<?xml version="1.0" encoding="UTF-8" standalone="no" ?>
<gpx xmlns="http://www.topografix.com/GPX/1/1" xmlns:xsi="http://www.w3.org/2001/XMLSchema-instance" xsi:schemaLocation="http://www.topografix.com/GPX/1/1 http://www.topografix.com/GPX/1/1/gpx.xsd" version="1.1" creator="VisuGPX - https://www.visugpx.com">
  <metadata>
    <name>French-divide 2021</name>
  </metadata>
  <trk>
    <name><![CDATA[11 FD]]></name>
    <trkseg>
      <trkpt lat="44.68645" lon="1.56088">
        <ele>331.31</ele>
        <time>2021-08-17T04:37:25Z</time>
      </trkpt>
      <trkpt lat="44.68654" lon="1.5615">
        <ele>332.27</ele>
        <time>2021-08-17T04:37:55Z</time>
      </trkpt>
      <trkpt lat="44.68665" lon="1.56149">
        <ele>332.27</ele>
        <time>2021-08-17T04:39:16Z</time>
      </trkpt>
      <trkpt lat="44.68667" lon="1.56149">
        <ele>331.31</ele>
        <time>2021-08-17T04:39:24Z</time>
      </trkpt>
      <trkpt lat="44.68666" lon="1.56151">
        <ele>331.31</ele>
        <time>2021-08-17T04:39:41Z</time>
      </trkpt>
      <trkpt lat="44.68666" lon="1.5615">
        <ele>331.31</ele>
        <time>2021-08-17T04:39:54Z</time>
      </trkpt>
      <trkpt lat="44.68665" lon="1.56149">
        <ele>331.31</ele>
        <time>2021-08-17T04:40:08Z</time>
      </trkpt>
      <trkpt lat="44.68655" lon="1.56153">
        <ele>331.31</ele>
        <time>2021-08-17T04:40:16Z</time>
      </trkpt>
      <trkpt lat="44.68653" lon="1.56152">
        <ele>331.31</ele>
        <time>2021-08-17T04:40:17Z</time>
      </trkpt>
      <trkpt lat="44.68651" lon="1.56151">
        <ele>331.31</ele>
        <time>2021-08-17T04:40:18Z</time>
      </trkpt>
      <trkpt lat="44.68649" lon="1.5615">
        <ele>331.31</ele>
        <time>2021-08-17T04:40:19Z</time>
      </trkpt>
      <trkpt lat="44.68647" lon="1.56149">
        <ele>331.31</ele>
        <time>2021-08-17T04:40:20Z</time>
      </trkpt>
      <trkpt lat="44.68626" lon="1.56137">
        <ele>331.31</ele>
        <time>2021-08-17T04:40:29Z</time>
      </trkpt>
      <trkpt lat="44.68623" lon="1.56137">
        <ele>331.31</ele>
        <time>2021-08-17T04:40:31Z</time>
      </trkpt>
      <trkpt lat="44.68621" lon="1.56139">
        <ele>331.31</ele>
        <time>2021-08-17T04:40:32Z</time>
      </trkpt>
      <trkpt lat="44.68621" lon="1.5614">
        <ele>331.31</ele>
        <time>2021-08-17T04:40:33Z</time>
      </trkpt>
      <trkpt lat="44.6862" lon="1.56143">
        <ele>331.31</ele>
        <time>2021-08-17T04:40:34Z</time>
      </trkpt>
      <trkpt lat="44.68619" lon="1.56146">
        <ele>331.31</ele>
        <time>2021-08-17T04:40:35Z</time>
      </trkpt>
      <trkpt lat="44.68616" lon="1.56167">
        <ele>331.31</ele>
        <time>2021-08-17T04:40:42Z</time>
      </trkpt>
      <trkpt lat="44.68612" lon="1.56192">
        <ele>328.43</ele>
        <time>2021-08-17T04:40:48Z</time>
      </trkpt>
      <trkpt lat="44.68607" lon="1.56207">
        <ele>324.1</ele>
        <time>2021-08-17T04:40:51Z</time>
      </trkpt>
      <trkpt lat="44.68605" lon="1.56212">
        <ele>323.14</ele>
        <time>2021-08-17T04:40:52Z</time>
      </trkpt>
      <trkpt lat="44.68602" lon="1.56224">
        <ele>320.74</ele>
        <time>2021-08-17T04:40:54Z</time>
      </trkpt>
      <trkpt lat="44.686" lon="1.5623">
        <ele>319.3</ele>
        <time>2021-08-17T04:40:55Z</time>
      </trkpt>
      <trkpt lat="44.686" lon="1.56235">
        <ele>318.33</ele>
        <time>2021-08-17T04:40:56Z</time>
      </trkpt>
      <trkpt lat="44.68599" lon="1.56241">
        <ele>317.85</ele>
        <time>2021-08-17T04:40:57Z</time>
      </trkpt>
      <trkpt lat="44.68599" lon="1.56246">
        <ele>316.89</ele>
        <time>2021-08-17T04:40:58Z</time>
      </trkpt>
      <trkpt lat="44.68598" lon="1.56251">
        <ele>316.41</ele>
        <time>2021-08-17T04:40:59Z</time>
      </trkpt>
      <trkpt lat="44.68598" lon="1.56255">
        <ele>315.45</ele>
        <time>2021-08-17T04:41:00Z</time>
      </trkpt>
      <trkpt lat="44.68598" lon="1.56259">
        <ele>314.97</ele>
        <time>2021-08-17T04:41:01Z</time>
      </trkpt>
      <trkpt lat="44.68599" lon="1.56263">
        <ele>314.01</ele>
        <time>2021-08-17T04:41:02Z</time>
      </trkpt>
      <trkpt lat="44.68599" lon="1.56268">
        <ele>313.53</ele>
        <time>2021-08-17T04:41:03Z</time>
      </trkpt>
      <trkpt lat="44.68598" lon="1.56275">
        <ele>313.53</ele>
        <time>2021-08-17T04:41:04Z</time>
      </trkpt>
      <trkpt lat="44.68596" lon="1.56278">
        <ele>312.57</ele>
        <time>2021-08-17T04:41:05Z</time>
      </trkpt>
      <trkpt lat="44.68593" lon="1.56282">
        <ele>313.05</ele>
        <time>2021-08-17T04:41:06Z</time>
      </trkpt>
      <trkpt lat="44.68567" lon="1.5631">
        <ele>311.6</ele>
        <time>2021-08-17T04:41:13Z</time>
      </trkpt>
      <trkpt lat="44.68553" lon="1.56322">
        <ele>312.09</ele>
        <time>2021-08-17T04:41:18Z</time>
      </trkpt>
      <trkpt lat="44.68541" lon="1.56336">
        <ele>312.09</ele>
        <time>2021-08-17T04:41:24Z</time>
      </trkpt>
      <trkpt lat="44.68521" lon="1.56352">
        <ele>313.05</ele>
        <time>2021-08-17T04:41:34Z</time>
      </trkpt>
      <trkpt lat="44.68498" lon="1.56367">
        <ele>315.45</ele>
        <time>2021-08-17T04:41:46Z</time>
      </trkpt>
      <trkpt lat="44.68474" lon="1.5638">
        <ele>316.89</ele>
        <time>2021-08-17T04:41:57Z</time>
      </trkpt>
      <trkpt lat="44.6845" lon="1.56392">
        <ele>316.89</ele>
        <time>2021-08-17T04:42:07Z</time>
      </trkpt>
      <trkpt lat="44.6842" lon="1.56409">
        <ele>318.33</ele>
        <time>2021-08-17T04:42:20Z</time>
      </trkpt>
      <trkpt lat="44.68402" lon="1.56419">
        <ele>319.3</ele>
        <time>2021-08-17T04:42:28Z</time>
      </trkpt>
      <trkpt lat="44.68385" lon="1.56427">
        <ele>319.3</ele>
        <time>2021-08-17T04:42:36Z</time>
      </trkpt>
      <trkpt lat="44.68357" lon="1.56437">
        <ele>319.78</ele>
        <time>2021-08-17T04:42:46Z</time>
      </trkpt>
      <trkpt lat="44.68327" lon="1.56448">
        <ele>320.74</ele>
        <time>2021-08-17T04:42:58Z</time>
      </trkpt>
      <trkpt lat="44.68307" lon="1.56454">
        <ele>321.7</ele>
        <time>2021-08-17T04:43:06Z</time>
      </trkpt>
      <trkpt lat="44.68297" lon="1.56474">
        <ele>321.7</ele>
        <time>2021-08-17T04:43:12Z</time>
      </trkpt>
      <trkpt lat="44.68295" lon="1.5651">
        <ele>321.7</ele>
        <time>2021-08-17T04:43:20Z</time>
      </trkpt>
      <trkpt lat="44.68289" lon="1.5653">
        <ele>323.14</ele>
        <time>2021-08-17T04:43:27Z</time>
      </trkpt>
      <trkpt lat="44.6828" lon="1.56541">
        <ele>324.1</ele>
        <time>2021-08-17T04:43:37Z</time>
      </trkpt>
      <trkpt lat="44.68271" lon="1.56547">
        <ele>325.06</ele>
        <time>2021-08-17T04:43:45Z</time>
      </trkpt>
      <trkpt lat="44.6826" lon="1.56556">
        <ele>326.99</ele>
        <time>2021-08-17T04:43:56Z</time>
      </trkpt>
      <trkpt lat="44.68254" lon="1.5656">
        <ele>327.95</ele>
        <time>2021-08-17T04:44:03Z</time>
      </trkpt>
      <trkpt lat="44.68246" lon="1.56567">
        <ele>329.39</ele>
        <time>2021-08-17T04:44:14Z</time>
      </trkpt>
      <trkpt lat="44.6824" lon="1.56577">
        <ele>331.31</ele>
        <time>2021-08-17T04:44:25Z</time>
      </trkpt>
      <trkpt lat="44.68234" lon="1.56585">
        <ele>332.75</ele>
        <time>2021-08-17T04:44:34Z</time>
      </trkpt>
      <trkpt lat="44.6823" lon="1.56592">
        <ele>334.2</ele>
        <time>2021-08-17T04:44:43Z</time>
      </trkpt>
      <trkpt lat="44.68226" lon="1.56598">
        <ele>335.64</ele>
        <time>2021-08-17T04:44:52Z</time>
      </trkpt>
      <trkpt lat="44.68221" lon="1.56605">
        <ele>336.6</ele>
        <time>2021-08-17T04:45:01Z</time>
      </trkpt>
      <trkpt lat="44.68218" lon="1.56615">
        <ele>338.04</ele>
        <time>2021-08-17T04:45:10Z</time>
      </trkpt>
      <trkpt lat="44.68215" lon="1.56622">
        <ele>339.48</ele>
        <time>2021-08-17T04:45:19Z</time>
      </trkpt>
      <trkpt lat="44.68213" lon="1.56633">
        <ele>340.92</ele>
        <time>2021-08-17T04:45:29Z</time>
      </trkpt>
      <trkpt lat="44.68211" lon="1.56641">
        <ele>342.37</ele>
        <time>2021-08-17T04:45:37Z</time>
      </trkpt>
      <trkpt lat="44.68211" lon="1.56656">
        <ele>344.29</ele>
        <time>2021-08-17T04:45:49Z</time>
      </trkpt>
      <trkpt lat="44.6821" lon="1.56671">
        <ele>345.73</ele>
        <time>2021-08-17T04:45:59Z</time>
      </trkpt>
      <trkpt lat="44.68208" lon="1.56675">
        <ele>346.21</ele>
        <time>2021-08-17T04:46:05Z</time>
      </trkpt>
      <trkpt lat="44.68207" lon="1.5668">
        <ele>346.69</ele>
        <time>2021-08-17T04:46:11Z</time>
      </trkpt>
      <trkpt lat="44.68205" lon="1.56695">
        <ele>348.62</ele>
        <time>2021-08-17T04:46:22Z</time>
      </trkpt>
      <trkpt lat="44.68201" lon="1.56708">
        <ele>350.06</ele>
        <time>2021-08-17T04:46:31Z</time>
      </trkpt>
      <trkpt lat="44.68201" lon="1.5671">
        <ele>350.06</ele>
        <time>2021-08-17T04:46:32Z</time>
      </trkpt>
      <trkpt lat="44.68197" lon="1.56717">
        <ele>351.02</ele>
        <time>2021-08-17T04:46:37Z</time>
      </trkpt>
      <trkpt lat="44.68196" lon="1.56718">
        <ele>351.5</ele>
        <time>2021-08-17T04:46:38Z</time>
      </trkpt>
      <trkpt lat="44.6819" lon="1.56731">
        <ele>352.94</ele>
        <time>2021-08-17T04:46:48Z</time>
      </trkpt>
      <trkpt lat="44.68189" lon="1.56732">
        <ele>352.94</ele>
        <time>2021-08-17T04:46:49Z</time>
      </trkpt>
      <trkpt lat="44.68187" lon="1.56732">
        <ele>352.94</ele>
        <time>2021-08-17T04:46:50Z</time>
      </trkpt>
      <trkpt lat="44.68187" lon="1.56734">
        <ele>353.42</ele>
        <time>2021-08-17T04:46:51Z</time>
      </trkpt>
      <trkpt lat="44.68186" lon="1.56735">
        <ele>353.42</ele>
        <time>2021-08-17T04:46:52Z</time>
      </trkpt>
      <trkpt lat="44.68185" lon="1.56737">
        <ele>353.42</ele>
        <time>2021-08-17T04:46:53Z</time>
      </trkpt>
      <trkpt lat="44.68185" lon="1.56739">
        <ele>353.42</ele>
        <time>2021-08-17T04:46:54Z</time>
      </trkpt>
      <trkpt lat="44.68184" lon="1.56741">
        <ele>353.9</ele>
        <time>2021-08-17T04:46:56Z</time>
      </trkpt>
      <trkpt lat="44.68183" lon="1.56742">
        <ele>353.9</ele>
        <time>2021-08-17T04:46:57Z</time>
      </trkpt>
      <trkpt lat="44.68182" lon="1.56744">
        <ele>354.38</ele>
        <time>2021-08-17T04:46:58Z</time>
      </trkpt>
      <trkpt lat="44.68181" lon="1.56745">
        <ele>354.38</ele>
        <time>2021-08-17T04:46:59Z</time>
      </trkpt>
      <trkpt lat="44.6818" lon="1.56747">
        <ele>354.86</ele>
        <time>2021-08-17T04:47:00Z</time>
      </trkpt>
      <trkpt lat="44.68177" lon="1.56754">
        <ele>355.34</ele>
        <time>2021-08-17T04:47:05Z</time>
      </trkpt>
      <trkpt lat="44.68176" lon="1.56755">
        <ele>355.34</ele>
        <time>2021-08-17T04:47:06Z</time>
      </trkpt>
      <trkpt lat="44.68176" lon="1.56757">
        <ele>355.83</ele>
        <time>2021-08-17T04:47:07Z</time>
      </trkpt>
      <trkpt lat="44.68175" lon="1.56758">
        <ele>355.83</ele>
        <time>2021-08-17T04:47:08Z</time>
      </trkpt>
      <trkpt lat="44.68174" lon="1.5676">
        <ele>356.31</ele>
        <time>2021-08-17T04:47:09Z</time>
      </trkpt>
      <trkpt lat="44.68173" lon="1.56762">
        <ele>356.31</ele>
        <time>2021-08-17T04:47:10Z</time>
      </trkpt>
      <trkpt lat="44.68172" lon="1.56764">
        <ele>356.31</ele>
        <time>2021-08-17T04:47:11Z</time>
      </trkpt>
      <trkpt lat="44.68172" lon="1.56765">
        <ele>356.31</ele>
        <time>2021-08-17T04:47:12Z</time>
      </trkpt>
      <trkpt lat="44.68171" lon="1.56767">
        <ele>356.79</ele>
        <time>2021-08-17T04:47:13Z</time>
      </trkpt>
      <trkpt lat="44.68163" lon="1.56785">
        <ele>358.71</ele>
        <time>2021-08-17T04:47:23Z</time>
      </trkpt>
      <trkpt lat="44.68154" lon="1.56801">
        <ele>359.67</ele>
        <time>2021-08-17T04:47:32Z</time>
      </trkpt>
      <trkpt lat="44.68146" lon="1.56817">
        <ele>361.11</ele>
        <time>2021-08-17T04:47:41Z</time>
      </trkpt>
      <trkpt lat="44.68138" lon="1.5683">
        <ele>362.55</ele>
        <time>2021-08-17T04:47:49Z</time>
      </trkpt>
      <trkpt lat="44.68129" lon="1.56844">
        <ele>363.52</ele>
        <time>2021-08-17T04:47:58Z</time>
      </trkpt>
      <trkpt lat="44.68119" lon="1.5686">
        <ele>364.96</ele>
        <time>2021-08-17T04:48:07Z</time>
      </trkpt>
      <trkpt lat="44.68108" lon="1.56876">
        <ele>366.4</ele>
        <time>2021-08-17T04:48:16Z</time>
      </trkpt>
      <trkpt lat="44.68096" lon="1.56897">
        <ele>367.36</ele>
        <time>2021-08-17T04:48:25Z</time>
      </trkpt>
      <trkpt lat="44.6808" lon="1.56922">
        <ele>368.32</ele>
        <time>2021-08-17T04:48:35Z</time>
      </trkpt>
      <trkpt lat="44.68058" lon="1.56949">
        <ele>368.8</ele>
        <time>2021-08-17T04:48:45Z</time>
      </trkpt>
      <trkpt lat="44.68035" lon="1.56952">
        <ele>369.76</ele>
        <time>2021-08-17T04:48:52Z</time>
      </trkpt>
      <trkpt lat="44.6801" lon="1.56946">
        <ele>370.24</ele>
        <time>2021-08-17T04:49:00Z</time>
      </trkpt>
      <trkpt lat="44.67987" lon="1.5694">
        <ele>371.69</ele>
        <time>2021-08-17T04:49:09Z</time>
      </trkpt>
      <trkpt lat="44.67962" lon="1.56933">
        <ele>372.65</ele>
        <time>2021-08-17T04:49:19Z</time>
      </trkpt>
      <trkpt lat="44.67936" lon="1.56926">
        <ele>373.61</ele>
        <time>2021-08-17T04:49:29Z</time>
      </trkpt>
      <trkpt lat="44.67905" lon="1.5692">
        <ele>374.57</ele>
        <time>2021-08-17T04:49:41Z</time>
      </trkpt>
      <trkpt lat="44.67876" lon="1.56916">
        <ele>375.53</ele>
        <time>2021-08-17T04:49:52Z</time>
      </trkpt>
      <trkpt lat="44.67854" lon="1.56912">
        <ele>377.45</ele>
        <time>2021-08-17T04:50:01Z</time>
      </trkpt>
      <trkpt lat="44.67837" lon="1.5691">
        <ele>378.42</ele>
        <time>2021-08-17T04:50:08Z</time>
      </trkpt>
      <trkpt lat="44.67813" lon="1.56909">
        <ele>379.38</ele>
        <time>2021-08-17T04:50:17Z</time>
      </trkpt>
      <trkpt lat="44.67785" lon="1.56911">
        <ele>379.86</ele>
        <time>2021-08-17T04:50:26Z</time>
      </trkpt>
      <trkpt lat="44.6776" lon="1.56917">
        <ele>379.86</ele>
        <time>2021-08-17T04:50:34Z</time>
      </trkpt>
      <trkpt lat="44.6773" lon="1.56925">
        <ele>380.82</ele>
        <time>2021-08-17T04:50:43Z</time>
      </trkpt>
      <trkpt lat="44.67692" lon="1.56936">
        <ele>382.26</ele>
        <time>2021-08-17T04:50:56Z</time>
      </trkpt>
      <trkpt lat="44.67669" lon="1.56951">
        <ele>383.22</ele>
        <time>2021-08-17T04:51:04Z</time>
      </trkpt>
      <trkpt lat="44.67643" lon="1.56972">
        <ele>383.22</ele>
        <time>2021-08-17T04:51:12Z</time>
      </trkpt>
      <trkpt lat="44.67614" lon="1.56996">
        <ele>383.22</ele>
        <time>2021-08-17T04:51:20Z</time>
      </trkpt>
      <trkpt lat="44.6758" lon="1.5701">
        <ele>383.7</ele>
        <time>2021-08-17T04:51:29Z</time>
      </trkpt>
      <trkpt lat="44.6755" lon="1.57025">
        <ele>384.18</ele>
        <time>2021-08-17T04:51:37Z</time>
      </trkpt>
      <trkpt lat="44.67546" lon="1.57028">
        <ele>384.18</ele>
        <time>2021-08-17T04:51:38Z</time>
      </trkpt>
      <trkpt lat="44.67526" lon="1.57049">
        <ele>384.18</ele>
        <time>2021-08-17T04:51:44Z</time>
      </trkpt>
      <trkpt lat="44.67507" lon="1.57079">
        <ele>384.18</ele>
        <time>2021-08-17T04:51:51Z</time>
      </trkpt>
      <trkpt lat="44.67505" lon="1.57084">
        <ele>384.18</ele>
        <time>2021-08-17T04:51:52Z</time>
      </trkpt>
      <trkpt lat="44.67481" lon="1.57142">
        <ele>384.66</ele>
        <time>2021-08-17T04:52:03Z</time>
      </trkpt>
      <trkpt lat="44.67456" lon="1.57196">
        <ele>385.63</ele>
        <time>2021-08-17T04:52:14Z</time>
      </trkpt>
      <trkpt lat="44.67438" lon="1.57224">
        <ele>386.59</ele>
        <time>2021-08-17T04:52:22Z</time>
      </trkpt>
      <trkpt lat="44.67414" lon="1.57239">
        <ele>388.51</ele>
        <time>2021-08-17T04:52:30Z</time>
      </trkpt>
      <trkpt lat="44.67389" lon="1.57247">
        <ele>389.95</ele>
        <time>2021-08-17T04:52:39Z</time>
      </trkpt>
      <trkpt lat="44.67362" lon="1.57254">
        <ele>391.39</ele>
        <time>2021-08-17T04:52:49Z</time>
      </trkpt>
      <trkpt lat="44.67338" lon="1.5726">
        <ele>392.84</ele>
        <time>2021-08-17T04:52:59Z</time>
      </trkpt>
      <trkpt lat="44.67338" lon="1.57261">
        <ele>392.84</ele>
        <time>2021-08-17T04:53:06Z</time>
      </trkpt>
      <trkpt lat="44.67338" lon="1.5726">
        <ele>392.84</ele>
        <time>2021-08-17T04:53:22Z</time>
      </trkpt>
      <trkpt lat="44.67338" lon="1.5726">
        <ele>392.84</ele>
        <time>2021-08-17T04:53:38Z</time>
      </trkpt>
      <trkpt lat="44.67337" lon="1.57261">
        <ele>392.84</ele>
        <time>2021-08-17T04:53:40Z</time>
      </trkpt>
      <trkpt lat="44.67336" lon="1.57262">
        <ele>392.84</ele>
        <time>2021-08-17T04:53:41Z</time>
      </trkpt>
      <trkpt lat="44.67334" lon="1.57262">
        <ele>392.84</ele>
        <time>2021-08-17T04:53:42Z</time>
      </trkpt>
      <trkpt lat="44.67332" lon="1.57263">
        <ele>392.84</ele>
        <time>2021-08-17T04:53:43Z</time>
      </trkpt>
      <trkpt lat="44.6733" lon="1.57263">
        <ele>392.84</ele>
        <time>2021-08-17T04:53:44Z</time>
      </trkpt>
      <trkpt lat="44.67328" lon="1.57264">
        <ele>393.32</ele>
        <time>2021-08-17T04:53:45Z</time>
      </trkpt>
      <trkpt lat="44.67306" lon="1.57271">
        <ele>393.8</ele>
        <time>2021-08-17T04:53:53Z</time>
      </trkpt>
      <trkpt lat="44.67278" lon="1.57281">
        <ele>395.24</ele>
        <time>2021-08-17T04:54:03Z</time>
      </trkpt>
      <trkpt lat="44.67247" lon="1.57292">
        <ele>396.2</ele>
        <time>2021-08-17T04:54:14Z</time>
      </trkpt>
      <trkpt lat="44.67219" lon="1.57301">
        <ele>397.64</ele>
        <time>2021-08-17T04:54:24Z</time>
      </trkpt>
      <trkpt lat="44.67193" lon="1.57324">
        <ele>399.57</ele>
        <time>2021-08-17T04:54:35Z</time>
      </trkpt>
      <trkpt lat="44.67173" lon="1.57344">
        <ele>401.49</ele>
        <time>2021-08-17T04:54:45Z</time>
      </trkpt>
      <trkpt lat="44.6715" lon="1.57367">
        <ele>402.93</ele>
        <time>2021-08-17T04:54:56Z</time>
      </trkpt>
      <trkpt lat="44.67127" lon="1.57389">
        <ele>404.37</ele>
        <time>2021-08-17T04:55:07Z</time>
      </trkpt>
      <trkpt lat="44.67107" lon="1.57405">
        <ele>405.81</ele>
        <time>2021-08-17T04:55:16Z</time>
      </trkpt>
      <trkpt lat="44.67086" lon="1.57413">
        <ele>407.26</ele>
        <time>2021-08-17T04:55:25Z</time>
      </trkpt>
      <trkpt lat="44.67062" lon="1.57407">
        <ele>407.26</ele>
        <time>2021-08-17T04:55:33Z</time>
      </trkpt>
      <trkpt lat="44.67021" lon="1.5739">
        <ele>407.74</ele>
        <time>2021-08-17T04:55:46Z</time>
      </trkpt>
      <trkpt lat="44.66985" lon="1.57374">
        <ele>408.7</ele>
        <time>2021-08-17T04:55:58Z</time>
      </trkpt>
      <trkpt lat="44.6697" lon="1.57368">
        <ele>410.14</ele>
        <time>2021-08-17T04:56:04Z</time>
      </trkpt>
      <trkpt lat="44.66948" lon="1.57358">
        <ele>411.58</ele>
        <time>2021-08-17T04:56:13Z</time>
      </trkpt>
      <trkpt lat="44.66922" lon="1.57342">
        <ele>413.98</ele>
        <time>2021-08-17T04:56:24Z</time>
      </trkpt>
      <trkpt lat="44.66899" lon="1.57327">
        <ele>414.47</ele>
        <time>2021-08-17T04:56:34Z</time>
      </trkpt>
      <trkpt lat="44.66885" lon="1.57335">
        <ele>414.95</ele>
        <time>2021-08-17T04:56:40Z</time>
      </trkpt>
      <trkpt lat="44.66864" lon="1.57347">
        <ele>414.95</ele>
        <time>2021-08-17T04:56:46Z</time>
      </trkpt>
      <trkpt lat="44.66842" lon="1.57351">
        <ele>414.95</ele>
        <time>2021-08-17T04:56:52Z</time>
      </trkpt>
      <trkpt lat="44.6683" lon="1.57349">
        <ele>413.5</ele>
        <time>2021-08-17T04:56:55Z</time>
      </trkpt>
      <trkpt lat="44.6679" lon="1.57341">
        <ele>410.62</ele>
        <time>2021-08-17T04:57:02Z</time>
      </trkpt>
      <trkpt lat="44.66748" lon="1.57344">
        <ele>407.74</ele>
        <time>2021-08-17T04:57:08Z</time>
      </trkpt>
      <trkpt lat="44.6668" lon="1.57363">
        <ele>405.81</ele>
        <time>2021-08-17T04:57:17Z</time>
      </trkpt>
      <trkpt lat="44.66666" lon="1.57371">
        <ele>407.26</ele>
        <time>2021-08-17T04:57:20Z</time>
      </trkpt>
      <trkpt lat="44.66647" lon="1.57382">
        <ele>409.66</ele>
        <time>2021-08-17T04:57:26Z</time>
      </trkpt>
      <trkpt lat="44.66624" lon="1.57393">
        <ele>411.58</ele>
        <time>2021-08-17T04:57:34Z</time>
      </trkpt>
      <trkpt lat="44.66598" lon="1.57407">
        <ele>412.06</ele>
        <time>2021-08-17T04:57:43Z</time>
      </trkpt>
      <trkpt lat="44.66591" lon="1.57412">
        <ele>412.06</ele>
        <time>2021-08-17T04:57:45Z</time>
      </trkpt>
      <trkpt lat="44.66587" lon="1.57415">
        <ele>412.06</ele>
        <time>2021-08-17T04:57:46Z</time>
      </trkpt>
      <trkpt lat="44.66579" lon="1.57421">
        <ele>411.58</ele>
        <time>2021-08-17T04:57:48Z</time>
      </trkpt>
      <trkpt lat="44.6657" lon="1.57425">
        <ele>410.62</ele>
        <time>2021-08-17T04:57:50Z</time>
      </trkpt>
      <trkpt lat="44.66565" lon="1.57427">
        <ele>410.62</ele>
        <time>2021-08-17T04:57:51Z</time>
      </trkpt>
      <trkpt lat="44.66539" lon="1.57432">
        <ele>407.74</ele>
        <time>2021-08-17T04:57:56Z</time>
      </trkpt>
      <trkpt lat="44.66502" lon="1.57435">
        <ele>405.33</ele>
        <time>2021-08-17T04:58:02Z</time>
      </trkpt>
      <trkpt lat="44.66461" lon="1.57435">
        <ele>403.41</ele>
        <time>2021-08-17T04:58:09Z</time>
      </trkpt>
      <trkpt lat="44.66455" lon="1.57437">
        <ele>402.45</ele>
        <time>2021-08-17T04:58:10Z</time>
      </trkpt>
      <trkpt lat="44.66449" lon="1.5744">
        <ele>401.97</ele>
        <time>2021-08-17T04:58:11Z</time>
      </trkpt>
      <trkpt lat="44.66426" lon="1.57455">
        <ele>398.6</ele>
        <time>2021-08-17T04:58:15Z</time>
      </trkpt>
      <trkpt lat="44.66407" lon="1.57469">
        <ele>396.2</ele>
        <time>2021-08-17T04:58:18Z</time>
      </trkpt>
      <trkpt lat="44.66383" lon="1.57483">
        <ele>394.28</ele>
        <time>2021-08-17T04:58:22Z</time>
      </trkpt>
      <trkpt lat="44.66376" lon="1.57485">
        <ele>393.8</ele>
        <time>2021-08-17T04:58:23Z</time>
      </trkpt>
      <trkpt lat="44.66358" lon="1.57487">
        <ele>392.36</ele>
        <time>2021-08-17T04:58:26Z</time>
      </trkpt>
      <trkpt lat="44.66323" lon="1.57484">
        <ele>388.99</ele>
        <time>2021-08-17T04:58:32Z</time>
      </trkpt>
      <trkpt lat="44.66289" lon="1.57487">
        <ele>385.63</ele>
        <time>2021-08-17T04:58:37Z</time>
      </trkpt>
      <trkpt lat="44.66276" lon="1.5749">
        <ele>383.7</ele>
        <time>2021-08-17T04:58:39Z</time>
      </trkpt>
      <trkpt lat="44.66244" lon="1.57502">
        <ele>380.82</ele>
        <time>2021-08-17T04:58:44Z</time>
      </trkpt>
      <trkpt lat="44.66238" lon="1.57507">
        <ele>380.34</ele>
        <time>2021-08-17T04:58:45Z</time>
      </trkpt>
      <trkpt lat="44.66234" lon="1.57514">
        <ele>379.38</ele>
        <time>2021-08-17T04:58:46Z</time>
      </trkpt>
      <trkpt lat="44.6623" lon="1.57522">
        <ele>378.9</ele>
        <time>2021-08-17T04:58:47Z</time>
      </trkpt>
      <trkpt lat="44.66226" lon="1.5753">
        <ele>378.9</ele>
        <time>2021-08-17T04:58:48Z</time>
      </trkpt>
      <trkpt lat="44.6621" lon="1.57572">
        <ele>378.42</ele>
        <time>2021-08-17T04:58:54Z</time>
      </trkpt>
      <trkpt lat="44.66203" lon="1.57594">
        <ele>379.86</ele>
        <time>2021-08-17T04:59:00Z</time>
      </trkpt>
      <trkpt lat="44.662" lon="1.57609">
        <ele>381.3</ele>
        <time>2021-08-17T04:59:09Z</time>
      </trkpt>
      <trkpt lat="44.66196" lon="1.57624">
        <ele>382.74</ele>
        <time>2021-08-17T04:59:17Z</time>
      </trkpt>
      <trkpt lat="44.66195" lon="1.57626">
        <ele>383.22</ele>
        <time>2021-08-17T04:59:18Z</time>
      </trkpt>
      <trkpt lat="44.66193" lon="1.57628">
        <ele>383.22</ele>
        <time>2021-08-17T04:59:20Z</time>
      </trkpt>
      <trkpt lat="44.66179" lon="1.57623">
        <ele>383.22</ele>
        <time>2021-08-17T04:59:27Z</time>
      </trkpt>
      <trkpt lat="44.66163" lon="1.57606">
        <ele>383.22</ele>
        <time>2021-08-17T04:59:35Z</time>
      </trkpt>
      <trkpt lat="44.66146" lon="1.57588">
        <ele>383.22</ele>
        <time>2021-08-17T04:59:44Z</time>
      </trkpt>
      <trkpt lat="44.66128" lon="1.5757">
        <ele>383.22</ele>
        <time>2021-08-17T04:59:52Z</time>
      </trkpt>
      <trkpt lat="44.66108" lon="1.57548">
        <ele>383.22</ele>
        <time>2021-08-17T05:00:00Z</time>
      </trkpt>
      <trkpt lat="44.6609" lon="1.57528">
        <ele>383.22</ele>
        <time>2021-08-17T05:00:07Z</time>
      </trkpt>
      <trkpt lat="44.66069" lon="1.5751">
        <ele>383.7</ele>
        <time>2021-08-17T05:00:15Z</time>
      </trkpt>
      <trkpt lat="44.66056" lon="1.57499">
        <ele>385.15</ele>
        <time>2021-08-17T05:00:22Z</time>
      </trkpt>
      <trkpt lat="44.6604" lon="1.57487">
        <ele>385.63</ele>
        <time>2021-08-17T05:00:29Z</time>
      </trkpt>
      <trkpt lat="44.66024" lon="1.57474">
        <ele>386.11</ele>
        <time>2021-08-17T05:00:36Z</time>
      </trkpt>
      <trkpt lat="44.66005" lon="1.57468">
        <ele>386.11</ele>
        <time>2021-08-17T05:00:42Z</time>
      </trkpt>
      <trkpt lat="44.65989" lon="1.5748">
        <ele>387.55</ele>
        <time>2021-08-17T05:00:49Z</time>
      </trkpt>
      <trkpt lat="44.65979" lon="1.5749">
        <ele>387.55</ele>
        <time>2021-08-17T05:00:54Z</time>
      </trkpt>
      <trkpt lat="44.65978" lon="1.57491">
        <ele>387.55</ele>
        <time>2021-08-17T05:00:55Z</time>
      </trkpt>
      <trkpt lat="44.65975" lon="1.57494">
        <ele>388.03</ele>
        <time>2021-08-17T05:00:56Z</time>
      </trkpt>
      <trkpt lat="44.65973" lon="1.57495">
        <ele>388.03</ele>
        <time>2021-08-17T05:00:57Z</time>
      </trkpt>
      <trkpt lat="44.65971" lon="1.57498">
        <ele>388.03</ele>
        <time>2021-08-17T05:00:58Z</time>
      </trkpt>
      <trkpt lat="44.65969" lon="1.575">
        <ele>388.51</ele>
        <time>2021-08-17T05:00:59Z</time>
      </trkpt>
      <trkpt lat="44.65967" lon="1.57503">
        <ele>388.51</ele>
        <time>2021-08-17T05:01:00Z</time>
      </trkpt>
      <trkpt lat="44.65949" lon="1.57527">
        <ele>389.47</ele>
        <time>2021-08-17T05:01:10Z</time>
      </trkpt>
      <trkpt lat="44.65937" lon="1.57545">
        <ele>390.91</ele>
        <time>2021-08-17T05:01:19Z</time>
      </trkpt>
      <trkpt lat="44.65935" lon="1.57546">
        <ele>390.91</ele>
        <time>2021-08-17T05:01:20Z</time>
      </trkpt>
      <trkpt lat="44.65933" lon="1.57547">
        <ele>390.91</ele>
        <time>2021-08-17T05:01:21Z</time>
      </trkpt>
      <trkpt lat="44.65932" lon="1.57548">
        <ele>390.91</ele>
        <time>2021-08-17T05:01:22Z</time>
      </trkpt>
      <trkpt lat="44.6593" lon="1.57547">
        <ele>390.91</ele>
        <time>2021-08-17T05:01:23Z</time>
      </trkpt>
      <trkpt lat="44.65928" lon="1.57545">
        <ele>390.91</ele>
        <time>2021-08-17T05:01:24Z</time>
      </trkpt>
      <trkpt lat="44.65927" lon="1.57542">
        <ele>390.91</ele>
        <time>2021-08-17T05:01:25Z</time>
      </trkpt>
      <trkpt lat="44.65926" lon="1.57539">
        <ele>390.91</ele>
        <time>2021-08-17T05:01:26Z</time>
      </trkpt>
      <trkpt lat="44.65926" lon="1.57536">
        <ele>390.91</ele>
        <time>2021-08-17T05:01:27Z</time>
      </trkpt>
      <trkpt lat="44.65925" lon="1.57532">
        <ele>390.91</ele>
        <time>2021-08-17T05:01:28Z</time>
      </trkpt>
      <trkpt lat="44.65924" lon="1.57527">
        <ele>390.91</ele>
        <time>2021-08-17T05:01:29Z</time>
      </trkpt>
      <trkpt lat="44.65923" lon="1.57522">
        <ele>389.95</ele>
        <time>2021-08-17T05:01:30Z</time>
      </trkpt>
      <trkpt lat="44.65923" lon="1.57517">
        <ele>389.95</ele>
        <time>2021-08-17T05:01:31Z</time>
      </trkpt>
      <trkpt lat="44.65918" lon="1.57488">
        <ele>388.99</ele>
        <time>2021-08-17T05:01:37Z</time>
      </trkpt>
      <trkpt lat="44.65911" lon="1.57448">
        <ele>387.55</ele>
        <time>2021-08-17T05:01:44Z</time>
      </trkpt>
      <trkpt lat="44.65901" lon="1.57387">
        <ele>387.07</ele>
        <time>2021-08-17T05:01:54Z</time>
      </trkpt>
      <trkpt lat="44.65899" lon="1.57382">
        <ele>386.59</ele>
        <time>2021-08-17T05:01:55Z</time>
      </trkpt>
      <trkpt lat="44.65897" lon="1.57376">
        <ele>386.59</ele>
        <time>2021-08-17T05:01:56Z</time>
      </trkpt>
      <trkpt lat="44.65894" lon="1.57371">
        <ele>386.11</ele>
        <time>2021-08-17T05:01:57Z</time>
      </trkpt>
      <trkpt lat="44.65892" lon="1.57366">
        <ele>386.11</ele>
        <time>2021-08-17T05:01:58Z</time>
      </trkpt>
      <trkpt lat="44.65888" lon="1.5736">
        <ele>386.11</ele>
        <time>2021-08-17T05:01:59Z</time>
      </trkpt>
      <trkpt lat="44.65886" lon="1.57357">
        <ele>386.11</ele>
        <time>2021-08-17T05:02:00Z</time>
      </trkpt>
      <trkpt lat="44.65879" lon="1.57348">
        <ele>387.07</ele>
        <time>2021-08-17T05:02:03Z</time>
      </trkpt>
      <trkpt lat="44.65868" lon="1.57332">
        <ele>389.47</ele>
        <time>2021-08-17T05:02:11Z</time>
      </trkpt>
      <trkpt lat="44.65855" lon="1.57314">
        <ele>390.43</ele>
        <time>2021-08-17T05:02:19Z</time>
      </trkpt>
      <trkpt lat="44.65838" lon="1.57289">
        <ele>390.91</ele>
        <time>2021-08-17T05:02:28Z</time>
      </trkpt>
      <trkpt lat="44.65819" lon="1.57264">
        <ele>391.39</ele>
        <time>2021-08-17T05:02:37Z</time>
      </trkpt>
      <trkpt lat="44.65801" lon="1.5724">
        <ele>391.87</ele>
        <time>2021-08-17T05:02:46Z</time>
      </trkpt>
      <trkpt lat="44.65785" lon="1.57214">
        <ele>393.32</ele>
        <time>2021-08-17T05:02:56Z</time>
      </trkpt>
      <trkpt lat="44.65769" lon="1.57194">
        <ele>393.8</ele>
        <time>2021-08-17T05:03:04Z</time>
      </trkpt>
      <trkpt lat="44.65742" lon="1.5717">
        <ele>394.28</ele>
        <time>2021-08-17T05:03:15Z</time>
      </trkpt>
      <trkpt lat="44.65717" lon="1.57152">
        <ele>395.72</ele>
        <time>2021-08-17T05:03:25Z</time>
      </trkpt>
      <trkpt lat="44.65695" lon="1.57139">
        <ele>396.2</ele>
        <time>2021-08-17T05:03:33Z</time>
      </trkpt>
      <trkpt lat="44.65672" lon="1.5712">
        <ele>397.16</ele>
        <time>2021-08-17T05:03:42Z</time>
      </trkpt>
      <trkpt lat="44.65654" lon="1.57098">
        <ele>397.64</ele>
        <time>2021-08-17T05:03:50Z</time>
      </trkpt>
      <trkpt lat="44.65635" lon="1.57075">
        <ele>398.12</ele>
        <time>2021-08-17T05:03:58Z</time>
      </trkpt>
      <trkpt lat="44.65611" lon="1.57056">
        <ele>398.6</ele>
        <time>2021-08-17T05:04:07Z</time>
      </trkpt>
      <trkpt lat="44.65586" lon="1.57052">
        <ele>398.6</ele>
        <time>2021-08-17T05:04:15Z</time>
      </trkpt>
      <trkpt lat="44.65561" lon="1.5706">
        <ele>398.6</ele>
        <time>2021-08-17T05:04:23Z</time>
      </trkpt>
      <trkpt lat="44.65526" lon="1.57073">
        <ele>399.08</ele>
        <time>2021-08-17T05:04:34Z</time>
      </trkpt>
      <trkpt lat="44.65499" lon="1.5708">
        <ele>399.08</ele>
        <time>2021-08-17T05:04:43Z</time>
      </trkpt>
      <trkpt lat="44.65486" lon="1.57076">
        <ele>400.05</ele>
        <time>2021-08-17T05:04:48Z</time>
      </trkpt>
      <trkpt lat="44.65473" lon="1.57059">
        <ele>401.49</ele>
        <time>2021-08-17T05:04:57Z</time>
      </trkpt>
      <trkpt lat="44.65464" lon="1.57038">
        <ele>402.93</ele>
        <time>2021-08-17T05:05:07Z</time>
      </trkpt>
      <trkpt lat="44.65458" lon="1.57018">
        <ele>404.37</ele>
        <time>2021-08-17T05:05:16Z</time>
      </trkpt>
      <trkpt lat="44.6545" lon="1.56999">
        <ele>405.81</ele>
        <time>2021-08-17T05:05:25Z</time>
      </trkpt>
      <trkpt lat="44.65441" lon="1.56981">
        <ele>406.77</ele>
        <time>2021-08-17T05:05:34Z</time>
      </trkpt>
      <trkpt lat="44.65429" lon="1.56967">
        <ele>407.26</ele>
        <time>2021-08-17T05:05:43Z</time>
      </trkpt>
      <trkpt lat="44.65419" lon="1.56955">
        <ele>408.22</ele>
        <time>2021-08-17T05:05:51Z</time>
      </trkpt>
      <trkpt lat="44.6541" lon="1.56945">
        <ele>409.18</ele>
        <time>2021-08-17T05:05:58Z</time>
      </trkpt>
      <trkpt lat="44.65399" lon="1.5693">
        <ele>411.1</ele>
        <time>2021-08-17T05:06:06Z</time>
      </trkpt>
      <trkpt lat="44.65388" lon="1.56913">
        <ele>412.54</ele>
        <time>2021-08-17T05:06:15Z</time>
      </trkpt>
      <trkpt lat="44.6538" lon="1.56896">
        <ele>413.02</ele>
        <time>2021-08-17T05:06:23Z</time>
      </trkpt>
      <trkpt lat="44.65372" lon="1.56874">
        <ele>414.47</ele>
        <time>2021-08-17T05:06:32Z</time>
      </trkpt>
      <trkpt lat="44.65361" lon="1.56855">
        <ele>415.43</ele>
        <time>2021-08-17T05:06:41Z</time>
      </trkpt>
      <trkpt lat="44.65343" lon="1.56844">
        <ele>416.39</ele>
        <time>2021-08-17T05:06:50Z</time>
      </trkpt>
      <trkpt lat="44.65316" lon="1.56836">
        <ele>416.39</ele>
        <time>2021-08-17T05:06:58Z</time>
      </trkpt>
      <trkpt lat="44.65276" lon="1.56828">
        <ele>415.43</ele>
        <time>2021-08-17T05:07:08Z</time>
      </trkpt>
      <trkpt lat="44.65245" lon="1.56825">
        <ele>415.43</ele>
        <time>2021-08-17T05:07:15Z</time>
      </trkpt>
      <trkpt lat="44.65227" lon="1.56826">
        <ele>416.39</ele>
        <time>2021-08-17T05:07:20Z</time>
      </trkpt>
      <trkpt lat="44.65207" lon="1.56826">
        <ele>417.83</ele>
        <time>2021-08-17T05:07:29Z</time>
      </trkpt>
      <trkpt lat="44.65188" lon="1.56822">
        <ele>419.27</ele>
        <time>2021-08-17T05:07:39Z</time>
      </trkpt>
      <trkpt lat="44.6517" lon="1.56813">
        <ele>420.23</ele>
        <time>2021-08-17T05:07:49Z</time>
      </trkpt>
      <trkpt lat="44.65149" lon="1.56799">
        <ele>421.68</ele>
        <time>2021-08-17T05:08:00Z</time>
      </trkpt>
      <trkpt lat="44.65136" lon="1.56791">
        <ele>422.64</ele>
        <time>2021-08-17T05:08:07Z</time>
      </trkpt>
      <trkpt lat="44.65116" lon="1.56782">
        <ele>424.08</ele>
        <time>2021-08-17T05:08:16Z</time>
      </trkpt>
      <trkpt lat="44.65094" lon="1.56776">
        <ele>425.52</ele>
        <time>2021-08-17T05:08:26Z</time>
      </trkpt>
      <trkpt lat="44.65077" lon="1.5677">
        <ele>426.96</ele>
        <time>2021-08-17T05:08:35Z</time>
      </trkpt>
      <trkpt lat="44.65062" lon="1.5676">
        <ele>428.4</ele>
        <time>2021-08-17T05:08:44Z</time>
      </trkpt>
      <trkpt lat="44.65058" lon="1.56759">
        <ele>428.4</ele>
        <time>2021-08-17T05:08:46Z</time>
      </trkpt>
      <trkpt lat="44.65046" lon="1.56756">
        <ele>429.85</ele>
        <time>2021-08-17T05:08:56Z</time>
      </trkpt>
      <trkpt lat="44.65045" lon="1.56756">
        <ele>430.33</ele>
        <time>2021-08-17T05:08:57Z</time>
      </trkpt>
      <trkpt lat="44.65044" lon="1.56756">
        <ele>430.33</ele>
        <time>2021-08-17T05:08:58Z</time>
      </trkpt>
      <trkpt lat="44.65042" lon="1.56755">
        <ele>430.33</ele>
        <time>2021-08-17T05:08:59Z</time>
      </trkpt>
      <trkpt lat="44.65041" lon="1.56755">
        <ele>430.33</ele>
        <time>2021-08-17T05:09:00Z</time>
      </trkpt>
      <trkpt lat="44.6504" lon="1.56755">
        <ele>430.81</ele>
        <time>2021-08-17T05:09:01Z</time>
      </trkpt>
      <trkpt lat="44.65028" lon="1.56753">
        <ele>432.25</ele>
        <time>2021-08-17T05:09:11Z</time>
      </trkpt>
      <trkpt lat="44.65027" lon="1.56753">
        <ele>432.25</ele>
        <time>2021-08-17T05:09:12Z</time>
      </trkpt>
      <trkpt lat="44.65014" lon="1.56749">
        <ele>434.17</ele>
        <time>2021-08-17T05:09:23Z</time>
      </trkpt>
      <trkpt lat="44.65008" lon="1.56746">
        <ele>435.13</ele>
        <time>2021-08-17T05:09:28Z</time>
      </trkpt>
      <trkpt lat="44.65007" lon="1.56746">
        <ele>435.61</ele>
        <time>2021-08-17T05:09:29Z</time>
      </trkpt>
      <trkpt lat="44.64995" lon="1.56743">
        <ele>437.06</ele>
        <time>2021-08-17T05:09:39Z</time>
      </trkpt>
      <trkpt lat="44.64986" lon="1.56742">
        <ele>438.5</ele>
        <time>2021-08-17T05:09:46Z</time>
      </trkpt>
      <trkpt lat="44.64978" lon="1.56742">
        <ele>439.46</ele>
        <time>2021-08-17T05:09:53Z</time>
      </trkpt>
      <trkpt lat="44.64968" lon="1.56742">
        <ele>439.94</ele>
        <time>2021-08-17T05:10:00Z</time>
      </trkpt>
      <trkpt lat="44.64954" lon="1.56738">
        <ele>440.9</ele>
        <time>2021-08-17T05:10:08Z</time>
      </trkpt>
      <trkpt lat="44.64951" lon="1.56739">
        <ele>441.38</ele>
        <time>2021-08-17T05:10:10Z</time>
      </trkpt>
      <trkpt lat="44.6495" lon="1.56741">
        <ele>441.38</ele>
        <time>2021-08-17T05:10:11Z</time>
      </trkpt>
      <trkpt lat="44.64949" lon="1.56743">
        <ele>441.38</ele>
        <time>2021-08-17T05:10:12Z</time>
      </trkpt>
      <trkpt lat="44.64948" lon="1.56745">
        <ele>441.38</ele>
        <time>2021-08-17T05:10:13Z</time>
      </trkpt>
      <trkpt lat="44.64946" lon="1.56746">
        <ele>441.38</ele>
        <time>2021-08-17T05:10:14Z</time>
      </trkpt>
      <trkpt lat="44.64945" lon="1.56748">
        <ele>441.38</ele>
        <time>2021-08-17T05:10:15Z</time>
      </trkpt>
      <trkpt lat="44.64943" lon="1.56749">
        <ele>441.38</ele>
        <time>2021-08-17T05:10:16Z</time>
      </trkpt>
      <trkpt lat="44.64941" lon="1.5675">
        <ele>441.86</ele>
        <time>2021-08-17T05:10:17Z</time>
      </trkpt>
      <trkpt lat="44.6494" lon="1.56751">
        <ele>441.86</ele>
        <time>2021-08-17T05:10:18Z</time>
      </trkpt>
      <trkpt lat="44.64938" lon="1.56752">
        <ele>441.86</ele>
        <time>2021-08-17T05:10:19Z</time>
      </trkpt>
      <trkpt lat="44.64936" lon="1.56753">
        <ele>441.86</ele>
        <time>2021-08-17T05:10:20Z</time>
      </trkpt>
      <trkpt lat="44.64923" lon="1.56761">
        <ele>442.82</ele>
        <time>2021-08-17T05:10:27Z</time>
      </trkpt>
      <trkpt lat="44.64908" lon="1.5677">
        <ele>443.79</ele>
        <time>2021-08-17T05:10:35Z</time>
      </trkpt>
      <trkpt lat="44.64888" lon="1.56782">
        <ele>445.23</ele>
        <time>2021-08-17T05:10:45Z</time>
      </trkpt>
      <trkpt lat="44.64872" lon="1.56796">
        <ele>446.19</ele>
        <time>2021-08-17T05:10:52Z</time>
      </trkpt>
      <trkpt lat="44.6487" lon="1.56798">
        <ele>446.19</ele>
        <time>2021-08-17T05:10:53Z</time>
      </trkpt>
      <trkpt lat="44.64868" lon="1.56799">
        <ele>446.19</ele>
        <time>2021-08-17T05:10:54Z</time>
      </trkpt>
      <trkpt lat="44.64852" lon="1.56806">
        <ele>447.15</ele>
        <time>2021-08-17T05:11:01Z</time>
      </trkpt>
      <trkpt lat="44.64841" lon="1.56817">
        <ele>447.15</ele>
        <time>2021-08-17T05:11:08Z</time>
      </trkpt>
      <trkpt lat="44.64839" lon="1.56817">
        <ele>447.15</ele>
        <time>2021-08-17T05:11:09Z</time>
      </trkpt>
      <trkpt lat="44.64838" lon="1.56816">
        <ele>447.15</ele>
        <time>2021-08-17T05:11:10Z</time>
      </trkpt>
      <trkpt lat="44.64838" lon="1.56815">
        <ele>447.15</ele>
        <time>2021-08-17T05:11:11Z</time>
      </trkpt>
      <trkpt lat="44.64837" lon="1.56812">
        <ele>447.15</ele>
        <time>2021-08-17T05:11:13Z</time>
      </trkpt>
      <trkpt lat="44.64836" lon="1.5681">
        <ele>447.15</ele>
        <time>2021-08-17T05:11:14Z</time>
      </trkpt>
      <trkpt lat="44.64834" lon="1.5681">
        <ele>446.67</ele>
        <time>2021-08-17T05:11:15Z</time>
      </trkpt>
      <trkpt lat="44.64818" lon="1.56808">
        <ele>446.67</ele>
        <time>2021-08-17T05:11:22Z</time>
      </trkpt>
      <trkpt lat="44.64803" lon="1.56803">
        <ele>446.67</ele>
        <time>2021-08-17T05:11:29Z</time>
      </trkpt>
      <trkpt lat="44.6479" lon="1.56795">
        <ele>446.67</ele>
        <time>2021-08-17T05:11:35Z</time>
      </trkpt>
      <trkpt lat="44.64789" lon="1.56796">
        <ele>446.67</ele>
        <time>2021-08-17T05:11:36Z</time>
      </trkpt>
      <trkpt lat="44.64787" lon="1.56796">
        <ele>446.67</ele>
        <time>2021-08-17T05:11:37Z</time>
      </trkpt>
      <trkpt lat="44.64785" lon="1.56797">
        <ele>446.67</ele>
        <time>2021-08-17T05:11:38Z</time>
      </trkpt>
      <trkpt lat="44.64783" lon="1.56799">
        <ele>446.67</ele>
        <time>2021-08-17T05:11:39Z</time>
      </trkpt>
      <trkpt lat="44.6478" lon="1.56801">
        <ele>446.67</ele>
        <time>2021-08-17T05:11:40Z</time>
      </trkpt>
      <trkpt lat="44.64778" lon="1.56803">
        <ele>446.67</ele>
        <time>2021-08-17T05:11:41Z</time>
      </trkpt>
      <trkpt lat="44.64776" lon="1.56805">
        <ele>446.67</ele>
        <time>2021-08-17T05:11:42Z</time>
      </trkpt>
      <trkpt lat="44.64755" lon="1.56828">
        <ele>446.67</ele>
        <time>2021-08-17T05:11:50Z</time>
      </trkpt>
      <trkpt lat="44.64745" lon="1.56836">
        <ele>446.67</ele>
        <time>2021-08-17T05:11:56Z</time>
      </trkpt>
      <trkpt lat="44.64747" lon="1.5683">
        <ele>446.67</ele>
        <time>2021-08-17T05:12:01Z</time>
      </trkpt>
      <trkpt lat="44.64758" lon="1.56818">
        <ele>446.67</ele>
        <time>2021-08-17T05:12:08Z</time>
      </trkpt>
      <trkpt lat="44.64762" lon="1.56815">
        <ele>446.67</ele>
        <time>2021-08-17T05:12:10Z</time>
      </trkpt>
      <trkpt lat="44.64767" lon="1.56812">
        <ele>446.67</ele>
        <time>2021-08-17T05:12:12Z</time>
      </trkpt>
      <trkpt lat="44.6477" lon="1.56811">
        <ele>446.67</ele>
        <time>2021-08-17T05:12:13Z</time>
      </trkpt>
      <trkpt lat="44.6479" lon="1.56808">
        <ele>446.67</ele>
        <time>2021-08-17T05:12:20Z</time>
      </trkpt>
      <trkpt lat="44.64809" lon="1.56812">
        <ele>446.67</ele>
        <time>2021-08-17T05:12:27Z</time>
      </trkpt>
      <trkpt lat="44.64821" lon="1.56812">
        <ele>447.15</ele>
        <time>2021-08-17T05:12:35Z</time>
      </trkpt>
      <trkpt lat="44.64823" lon="1.56812">
        <ele>447.15</ele>
        <time>2021-08-17T05:12:42Z</time>
      </trkpt>
      <trkpt lat="44.64824" lon="1.56811">
        <ele>447.15</ele>
        <time>2021-08-17T05:12:54Z</time>
      </trkpt>
      <trkpt lat="44.64824" lon="1.5681">
        <ele>447.15</ele>
        <time>2021-08-17T05:13:05Z</time>
      </trkpt>
      <trkpt lat="44.64823" lon="1.56812">
        <ele>447.15</ele>
        <time>2021-08-17T05:13:15Z</time>
      </trkpt>
      <trkpt lat="44.64823" lon="1.5681">
        <ele>447.15</ele>
        <time>2021-08-17T05:13:30Z</time>
      </trkpt>
      <trkpt lat="44.64825" lon="1.56809">
        <ele>447.15</ele>
        <time>2021-08-17T05:13:48Z</time>
      </trkpt>
      <trkpt lat="44.64826" lon="1.56808">
        <ele>447.15</ele>
        <time>2021-08-17T05:13:55Z</time>
      </trkpt>
      <trkpt lat="44.64827" lon="1.56811">
        <ele>447.15</ele>
        <time>2021-08-17T05:14:05Z</time>
      </trkpt>
      <trkpt lat="44.64827" lon="1.56816">
        <ele>447.15</ele>
        <time>2021-08-17T05:14:21Z</time>
      </trkpt>
      <trkpt lat="44.64827" lon="1.56823">
        <ele>447.15</ele>
        <time>2021-08-17T05:14:41Z</time>
      </trkpt>
      <trkpt lat="44.64829" lon="1.56824">
        <ele>447.15</ele>
        <time>2021-08-17T05:14:59Z</time>
      </trkpt>
      <trkpt lat="44.6483" lon="1.56826">
        <ele>447.15</ele>
        <time>2021-08-17T05:15:14Z</time>
      </trkpt>
      <trkpt lat="44.64828" lon="1.56827">
        <ele>447.15</ele>
        <time>2021-08-17T05:15:35Z</time>
      </trkpt>
      <trkpt lat="44.64827" lon="1.56829">
        <ele>447.63</ele>
        <time>2021-08-17T05:15:51Z</time>
      </trkpt>
      <trkpt lat="44.64827" lon="1.5683">
        <ele>447.63</ele>
        <time>2021-08-17T05:15:58Z</time>
      </trkpt>
      <trkpt lat="44.64828" lon="1.5683">
        <ele>447.63</ele>
        <time>2021-08-17T05:16:13Z</time>
      </trkpt>
      <trkpt lat="44.64827" lon="1.56831">
        <ele>447.63</ele>
        <time>2021-08-17T05:16:35Z</time>
      </trkpt>
      <trkpt lat="44.64829" lon="1.56834">
        <ele>448.11</ele>
        <time>2021-08-17T05:16:52Z</time>
      </trkpt>
      <trkpt lat="44.64828" lon="1.56835">
        <ele>448.11</ele>
        <time>2021-08-17T05:17:17Z</time>
      </trkpt>
      <trkpt lat="44.64827" lon="1.56834">
        <ele>448.59</ele>
        <time>2021-08-17T05:17:34Z</time>
      </trkpt>
      <trkpt lat="44.64826" lon="1.56832">
        <ele>448.59</ele>
        <time>2021-08-17T05:17:47Z</time>
      </trkpt>
      <trkpt lat="44.64829" lon="1.56834">
        <ele>448.59</ele>
        <time>2021-08-17T05:18:02Z</time>
      </trkpt>
      <trkpt lat="44.64831" lon="1.56837">
        <ele>449.07</ele>
        <time>2021-08-17T05:18:20Z</time>
      </trkpt>
      <trkpt lat="44.64829" lon="1.56841">
        <ele>449.07</ele>
        <time>2021-08-17T05:18:45Z</time>
      </trkpt>
      <trkpt lat="44.64826" lon="1.56841">
        <ele>449.55</ele>
        <time>2021-08-17T05:19:09Z</time>
      </trkpt>
      <trkpt lat="44.64831" lon="1.56843">
        <ele>449.55</ele>
        <time>2021-08-17T05:19:31Z</time>
      </trkpt>
      <trkpt lat="44.6483" lon="1.5684">
        <ele>450.03</ele>
        <time>2021-08-17T05:19:48Z</time>
      </trkpt>
      <trkpt lat="44.64831" lon="1.56844">
        <ele>450.03</ele>
        <time>2021-08-17T05:20:01Z</time>
      </trkpt>
      <trkpt lat="44.64829" lon="1.56846">
        <ele>450.52</ele>
        <time>2021-08-17T05:20:21Z</time>
      </trkpt>
      <trkpt lat="44.64827" lon="1.56842">
        <ele>451</ele>
        <time>2021-08-17T05:20:46Z</time>
      </trkpt>
      <trkpt lat="44.64829" lon="1.56841">
        <ele>451</ele>
        <time>2021-08-17T05:21:00Z</time>
      </trkpt>
      <trkpt lat="44.64828" lon="1.5684">
        <ele>451</ele>
        <time>2021-08-17T05:21:18Z</time>
      </trkpt>
      <trkpt lat="44.64825" lon="1.56841">
        <ele>451.48</ele>
        <time>2021-08-17T05:21:37Z</time>
      </trkpt>
      <trkpt lat="44.64827" lon="1.5684">
        <ele>451.48</ele>
        <time>2021-08-17T05:22:02Z</time>
      </trkpt>
      <trkpt lat="44.64827" lon="1.56842">
        <ele>451.96</ele>
        <time>2021-08-17T05:22:19Z</time>
      </trkpt>
      <trkpt lat="44.64826" lon="1.56841">
        <ele>451.96</ele>
        <time>2021-08-17T05:22:36Z</time>
      </trkpt>
      <trkpt lat="44.64824" lon="1.56841">
        <ele>452.44</ele>
        <time>2021-08-17T05:22:52Z</time>
      </trkpt>
      <trkpt lat="44.64827" lon="1.56842">
        <ele>452.44</ele>
        <time>2021-08-17T05:23:15Z</time>
      </trkpt>
      <trkpt lat="44.64828" lon="1.56842">
        <ele>452.92</ele>
        <time>2021-08-17T05:23:34Z</time>
      </trkpt>
      <trkpt lat="44.64827" lon="1.56843">
        <ele>452.92</ele>
        <time>2021-08-17T05:23:50Z</time>
      </trkpt>
      <trkpt lat="44.64825" lon="1.56843">
        <ele>452.92</ele>
        <time>2021-08-17T05:24:11Z</time>
      </trkpt>
      <trkpt lat="44.64825" lon="1.56839">
        <ele>453.4</ele>
        <time>2021-08-17T05:24:33Z</time>
      </trkpt>
      <trkpt lat="44.64826" lon="1.56837">
        <ele>453.4</ele>
        <time>2021-08-17T05:24:51Z</time>
      </trkpt>
      <trkpt lat="44.64825" lon="1.56838">
        <ele>453.88</ele>
        <time>2021-08-17T05:25:11Z</time>
      </trkpt>
      <trkpt lat="44.64825" lon="1.56836">
        <ele>453.88</ele>
        <time>2021-08-17T05:25:32Z</time>
      </trkpt>
      <trkpt lat="44.64825" lon="1.56836">
        <ele>454.36</ele>
        <time>2021-08-17T05:25:50Z</time>
      </trkpt>
      <trkpt lat="44.64827" lon="1.56835">
        <ele>454.36</ele>
        <time>2021-08-17T05:25:58Z</time>
      </trkpt>
      <trkpt lat="44.64829" lon="1.56836">
        <ele>454.36</ele>
        <time>2021-08-17T05:26:13Z</time>
      </trkpt>
      <trkpt lat="44.64827" lon="1.56838">
        <ele>454.36</ele>
        <time>2021-08-17T05:26:30Z</time>
      </trkpt>
      <trkpt lat="44.64827" lon="1.5684">
        <ele>453.88</ele>
        <time>2021-08-17T05:26:49Z</time>
      </trkpt>
      <trkpt lat="44.64828" lon="1.56836">
        <ele>453.88</ele>
        <time>2021-08-17T05:27:11Z</time>
      </trkpt>
      <trkpt lat="44.64824" lon="1.56835">
        <ele>453.88</ele>
        <time>2021-08-17T05:27:19Z</time>
      </trkpt>
      <trkpt lat="44.64812" lon="1.56825">
        <ele>453.88</ele>
        <time>2021-08-17T05:27:29Z</time>
      </trkpt>
      <trkpt lat="44.64811" lon="1.56826">
        <ele>453.88</ele>
        <time>2021-08-17T05:27:30Z</time>
      </trkpt>
      <trkpt lat="44.64804" lon="1.56826">
        <ele>454.36</ele>
        <time>2021-08-17T05:27:36Z</time>
      </trkpt>
      <trkpt lat="44.64792" lon="1.56826">
        <ele>454.36</ele>
        <time>2021-08-17T05:27:46Z</time>
      </trkpt>
      <trkpt lat="44.6478" lon="1.56826">
        <ele>454.36</ele>
        <time>2021-08-17T05:27:57Z</time>
      </trkpt>
      <trkpt lat="44.6477" lon="1.56831">
        <ele>454.36</ele>
        <time>2021-08-17T05:28:06Z</time>
      </trkpt>
      <trkpt lat="44.6476" lon="1.56833">
        <ele>454.36</ele>
        <time>2021-08-17T05:28:14Z</time>
      </trkpt>
      <trkpt lat="44.64753" lon="1.56833">
        <ele>454.36</ele>
        <time>2021-08-17T05:28:22Z</time>
      </trkpt>
      <trkpt lat="44.64751" lon="1.56834">
        <ele>454.36</ele>
        <time>2021-08-17T05:28:29Z</time>
      </trkpt>
      <trkpt lat="44.64747" lon="1.56836">
        <ele>454.36</ele>
        <time>2021-08-17T05:28:47Z</time>
      </trkpt>
      <trkpt lat="44.64747" lon="1.56834">
        <ele>454.36</ele>
        <time>2021-08-17T05:29:03Z</time>
      </trkpt>
      <trkpt lat="44.64749" lon="1.56832">
        <ele>454.36</ele>
        <time>2021-08-17T05:29:22Z</time>
      </trkpt>
      <trkpt lat="44.64749" lon="1.56834">
        <ele>453.88</ele>
        <time>2021-08-17T05:29:38Z</time>
      </trkpt>
      <trkpt lat="44.64747" lon="1.56833">
        <ele>453.88</ele>
        <time>2021-08-17T05:29:58Z</time>
      </trkpt>
      <trkpt lat="44.64747" lon="1.56833">
        <ele>453.88</ele>
        <time>2021-08-17T05:30:16Z</time>
      </trkpt>
      <trkpt lat="44.64746" lon="1.5683">
        <ele>453.88</ele>
        <time>2021-08-17T05:30:32Z</time>
      </trkpt>
      <trkpt lat="44.64748" lon="1.56828">
        <ele>453.4</ele>
        <time>2021-08-17T05:30:48Z</time>
      </trkpt>
      <trkpt lat="44.6475" lon="1.5683">
        <ele>453.4</ele>
        <time>2021-08-17T05:30:55Z</time>
      </trkpt>
      <trkpt lat="44.6475" lon="1.5683">
        <ele>453.4</ele>
        <time>2021-08-17T05:30:57Z</time>
      </trkpt>
      <trkpt lat="44.64752" lon="1.56834">
        <ele>453.4</ele>
        <time>2021-08-17T05:31:03Z</time>
      </trkpt>
      <trkpt lat="44.6475" lon="1.56836">
        <ele>453.4</ele>
        <time>2021-08-17T05:31:14Z</time>
      </trkpt>
      <trkpt lat="44.64749" lon="1.56835">
        <ele>453.4</ele>
        <time>2021-08-17T05:31:35Z</time>
      </trkpt>
      <trkpt lat="44.64748" lon="1.56834">
        <ele>453.4</ele>
        <time>2021-08-17T05:31:47Z</time>
      </trkpt>
      <trkpt lat="44.64747" lon="1.56832">
        <ele>453.4</ele>
        <time>2021-08-17T05:32:03Z</time>
      </trkpt>
      <trkpt lat="44.64748" lon="1.56829">
        <ele>452.92</ele>
        <time>2021-08-17T05:32:27Z</time>
      </trkpt>
      <trkpt lat="44.64749" lon="1.56828">
        <ele>452.44</ele>
        <time>2021-08-17T05:32:42Z</time>
      </trkpt>
      <trkpt lat="44.64748" lon="1.56827">
        <ele>452.44</ele>
        <time>2021-08-17T05:32:58Z</time>
      </trkpt>
      <trkpt lat="44.64748" lon="1.56828">
        <ele>452.44</ele>
        <time>2021-08-17T05:33:12Z</time>
      </trkpt>
      <trkpt lat="44.64748" lon="1.56827">
        <ele>452.44</ele>
        <time>2021-08-17T05:33:27Z</time>
      </trkpt>
      <trkpt lat="44.64748" lon="1.56827">
        <ele>452.44</ele>
        <time>2021-08-17T05:33:45Z</time>
      </trkpt>
      <trkpt lat="44.64749" lon="1.56829">
        <ele>452.44</ele>
        <time>2021-08-17T05:34:04Z</time>
      </trkpt>
      <trkpt lat="44.64749" lon="1.56828">
        <ele>452.44</ele>
        <time>2021-08-17T05:34:27Z</time>
      </trkpt>
      <trkpt lat="44.64749" lon="1.56826">
        <ele>452.44</ele>
        <time>2021-08-17T05:34:44Z</time>
      </trkpt>
      <trkpt lat="44.64748" lon="1.56827">
        <ele>452.44</ele>
        <time>2021-08-17T05:35:03Z</time>
      </trkpt>
      <trkpt lat="44.64747" lon="1.56832">
        <ele>452.44</ele>
        <time>2021-08-17T05:35:20Z</time>
      </trkpt>
      <trkpt lat="44.64747" lon="1.56834">
        <ele>451.96</ele>
        <time>2021-08-17T05:35:37Z</time>
      </trkpt>
      <trkpt lat="44.64748" lon="1.56835">
        <ele>451.96</ele>
        <time>2021-08-17T05:35:52Z</time>
      </trkpt>
      <trkpt lat="44.64748" lon="1.56833">
        <ele>451.96</ele>
        <time>2021-08-17T05:36:03Z</time>
      </trkpt>
      <trkpt lat="44.64747" lon="1.56832">
        <ele>451.96</ele>
        <time>2021-08-17T05:36:18Z</time>
      </trkpt>
      <trkpt lat="44.64746" lon="1.56832">
        <ele>451.96</ele>
        <time>2021-08-17T05:36:30Z</time>
      </trkpt>
      <trkpt lat="44.64746" lon="1.56834">
        <ele>451.96</ele>
        <time>2021-08-17T05:36:43Z</time>
      </trkpt>
      <trkpt lat="44.64747" lon="1.56834">
        <ele>451.96</ele>
        <time>2021-08-17T05:37:02Z</time>
      </trkpt>
      <trkpt lat="44.64749" lon="1.56832">
        <ele>451.96</ele>
        <time>2021-08-17T05:37:19Z</time>
      </trkpt>
      <trkpt lat="44.64749" lon="1.56829">
        <ele>451.48</ele>
        <time>2021-08-17T05:37:41Z</time>
      </trkpt>
      <trkpt lat="44.64747" lon="1.56832">
        <ele>451.48</ele>
        <time>2021-08-17T05:38:01Z</time>
      </trkpt>
      <trkpt lat="44.64746" lon="1.56833">
        <ele>451.48</ele>
        <time>2021-08-17T05:38:13Z</time>
      </trkpt>
      <trkpt lat="44.64747" lon="1.56837">
        <ele>451.48</ele>
        <time>2021-08-17T05:38:27Z</time>
      </trkpt>
      <trkpt lat="44.64748" lon="1.56836">
        <ele>451.48</ele>
        <time>2021-08-17T05:38:44Z</time>
      </trkpt>
      <trkpt lat="44.64748" lon="1.56835">
        <ele>451.48</ele>
        <time>2021-08-17T05:38:59Z</time>
      </trkpt>
      <trkpt lat="44.64747" lon="1.56831">
        <ele>451.48</ele>
        <time>2021-08-17T05:39:16Z</time>
      </trkpt>
      <trkpt lat="44.64745" lon="1.56829">
        <ele>451</ele>
        <time>2021-08-17T05:39:31Z</time>
      </trkpt>
      <trkpt lat="44.64745" lon="1.56828">
        <ele>451</ele>
        <time>2021-08-17T05:39:45Z</time>
      </trkpt>
      <trkpt lat="44.64744" lon="1.56828">
        <ele>451</ele>
        <time>2021-08-17T05:39:58Z</time>
      </trkpt>
      <trkpt lat="44.64744" lon="1.56832">
        <ele>451</ele>
        <time>2021-08-17T05:40:15Z</time>
      </trkpt>
      <trkpt lat="44.64746" lon="1.56834">
        <ele>451</ele>
        <time>2021-08-17T05:40:32Z</time>
      </trkpt>
      <trkpt lat="44.64748" lon="1.56833">
        <ele>451</ele>
        <time>2021-08-17T05:40:45Z</time>
      </trkpt>
      <trkpt lat="44.64749" lon="1.56834">
        <ele>451</ele>
        <time>2021-08-17T05:40:53Z</time>
      </trkpt>
      <trkpt lat="44.6475" lon="1.56833">
        <ele>451</ele>
        <time>2021-08-17T05:41:01Z</time>
      </trkpt>
      <trkpt lat="44.64749" lon="1.56835">
        <ele>451</ele>
        <time>2021-08-17T05:41:18Z</time>
      </trkpt>
      <trkpt lat="44.64747" lon="1.56835">
        <ele>451</ele>
        <time>2021-08-17T05:41:41Z</time>
      </trkpt>
      <trkpt lat="44.64746" lon="1.56831">
        <ele>451</ele>
        <time>2021-08-17T05:41:59Z</time>
      </trkpt>
      <trkpt lat="44.64747" lon="1.56828">
        <ele>451</ele>
        <time>2021-08-17T05:42:14Z</time>
      </trkpt>
      <trkpt lat="44.64747" lon="1.56826">
        <ele>451</ele>
        <time>2021-08-17T05:42:26Z</time>
      </trkpt>
      <trkpt lat="44.64748" lon="1.56827">
        <ele>450.52</ele>
        <time>2021-08-17T05:42:39Z</time>
      </trkpt>
      <trkpt lat="44.64747" lon="1.56827">
        <ele>450.52</ele>
        <time>2021-08-17T05:42:50Z</time>
      </trkpt>
      <trkpt lat="44.64746" lon="1.56829">
        <ele>450.52</ele>
        <time>2021-08-17T05:43:04Z</time>
      </trkpt>
      <trkpt lat="44.64746" lon="1.56831">
        <ele>450.52</ele>
        <time>2021-08-17T05:43:19Z</time>
      </trkpt>
      <trkpt lat="44.64745" lon="1.56827">
        <ele>450.52</ele>
        <time>2021-08-17T05:43:33Z</time>
      </trkpt>
      <trkpt lat="44.64744" lon="1.56826">
        <ele>450.52</ele>
        <time>2021-08-17T05:43:50Z</time>
      </trkpt>
      <trkpt lat="44.64745" lon="1.56826">
        <ele>450.52</ele>
        <time>2021-08-17T05:44:05Z</time>
      </trkpt>
      <trkpt lat="44.64745" lon="1.56828">
        <ele>450.52</ele>
        <time>2021-08-17T05:44:19Z</time>
      </trkpt>
      <trkpt lat="44.64745" lon="1.56828">
        <ele>450.52</ele>
        <time>2021-08-17T05:44:36Z</time>
      </trkpt>
      <trkpt lat="44.64746" lon="1.56825">
        <ele>450.52</ele>
        <time>2021-08-17T05:44:51Z</time>
      </trkpt>
      <trkpt lat="44.64746" lon="1.56829">
        <ele>450.52</ele>
        <time>2021-08-17T05:45:05Z</time>
      </trkpt>
      <trkpt lat="44.64746" lon="1.56832">
        <ele>450.52</ele>
        <time>2021-08-17T05:45:22Z</time>
      </trkpt>
      <trkpt lat="44.64746" lon="1.56833">
        <ele>450.52</ele>
        <time>2021-08-17T05:45:36Z</time>
      </trkpt>
      <trkpt lat="44.64747" lon="1.56833">
        <ele>450.52</ele>
        <time>2021-08-17T05:45:48Z</time>
      </trkpt>
      <trkpt lat="44.64754" lon="1.56815">
        <ele>450.52</ele>
        <time>2021-08-17T05:45:58Z</time>
      </trkpt>
      <trkpt lat="44.64756" lon="1.56801">
        <ele>451.48</ele>
        <time>2021-08-17T05:46:07Z</time>
      </trkpt>
      <trkpt lat="44.64755" lon="1.568">
        <ele>451.48</ele>
        <time>2021-08-17T05:46:10Z</time>
      </trkpt>
      <trkpt lat="44.64746" lon="1.56792">
        <ele>451.96</ele>
        <time>2021-08-17T05:46:20Z</time>
      </trkpt>
      <trkpt lat="44.64745" lon="1.56791">
        <ele>451.96</ele>
        <time>2021-08-17T05:46:28Z</time>
      </trkpt>
      <trkpt lat="44.64744" lon="1.56793">
        <ele>451.96</ele>
        <time>2021-08-17T05:46:40Z</time>
      </trkpt>
      <trkpt lat="44.64738" lon="1.56796">
        <ele>451.96</ele>
        <time>2021-08-17T05:46:54Z</time>
      </trkpt>
      <trkpt lat="44.64736" lon="1.568">
        <ele>451.96</ele>
        <time>2021-08-17T05:47:07Z</time>
      </trkpt>
      <trkpt lat="44.64736" lon="1.56799">
        <ele>451.96</ele>
        <time>2021-08-17T05:47:25Z</time>
      </trkpt>
      <trkpt lat="44.64734" lon="1.56799">
        <ele>451.96</ele>
        <time>2021-08-17T05:47:50Z</time>
      </trkpt>
      <trkpt lat="44.64735" lon="1.56798">
        <ele>451.96</ele>
        <time>2021-08-17T05:48:08Z</time>
      </trkpt>
      <trkpt lat="44.64734" lon="1.56798">
        <ele>451.96</ele>
        <time>2021-08-17T05:48:26Z</time>
      </trkpt>
      <trkpt lat="44.64734" lon="1.568">
        <ele>451.96</ele>
        <time>2021-08-17T05:48:49Z</time>
      </trkpt>
      <trkpt lat="44.64734" lon="1.56802">
        <ele>451.96</ele>
        <time>2021-08-17T05:49:06Z</time>
      </trkpt>
      <trkpt lat="44.64733" lon="1.56799">
        <ele>451.96</ele>
        <time>2021-08-17T05:49:29Z</time>
      </trkpt>
      <trkpt lat="44.64735" lon="1.56797">
        <ele>451.96</ele>
        <time>2021-08-17T05:49:43Z</time>
      </trkpt>
      <trkpt lat="44.64733" lon="1.56797">
        <ele>452.44</ele>
        <time>2021-08-17T05:50:01Z</time>
      </trkpt>
      <trkpt lat="44.64733" lon="1.56796">
        <ele>452.44</ele>
        <time>2021-08-17T05:50:25Z</time>
      </trkpt>
      <trkpt lat="44.64734" lon="1.56795">
        <ele>452.44</ele>
        <time>2021-08-17T05:50:41Z</time>
      </trkpt>
      <trkpt lat="44.64733" lon="1.56797">
        <ele>452.44</ele>
        <time>2021-08-17T05:51:03Z</time>
      </trkpt>
      <trkpt lat="44.64731" lon="1.56801">
        <ele>452.44</ele>
        <time>2021-08-17T05:51:28Z</time>
      </trkpt>
      <trkpt lat="44.64731" lon="1.56804">
        <ele>452.44</ele>
        <time>2021-08-17T05:51:34Z</time>
      </trkpt>
      <trkpt lat="44.64731" lon="1.56804">
        <ele>452.44</ele>
        <time>2021-08-17T05:51:41Z</time>
      </trkpt>
      <trkpt lat="44.64732" lon="1.56801">
        <ele>452.44</ele>
        <time>2021-08-17T05:52:00Z</time>
      </trkpt>
      <trkpt lat="44.64733" lon="1.56801">
        <ele>452.92</ele>
        <time>2021-08-17T05:52:16Z</time>
      </trkpt>
      <trkpt lat="44.64734" lon="1.56802">
        <ele>452.92</ele>
        <time>2021-08-17T05:52:37Z</time>
      </trkpt>
      <trkpt lat="44.64734" lon="1.568">
        <ele>452.92</ele>
        <time>2021-08-17T05:52:59Z</time>
      </trkpt>
      <trkpt lat="44.64734" lon="1.56797">
        <ele>452.92</ele>
        <time>2021-08-17T05:53:21Z</time>
      </trkpt>
      <trkpt lat="44.64734" lon="1.56795">
        <ele>452.92</ele>
        <time>2021-08-17T05:53:44Z</time>
      </trkpt>
      <trkpt lat="44.64733" lon="1.56796">
        <ele>452.92</ele>
        <time>2021-08-17T05:54:07Z</time>
      </trkpt>
      <trkpt lat="44.64733" lon="1.56797">
        <ele>452.92</ele>
        <time>2021-08-17T05:54:30Z</time>
      </trkpt>
      <trkpt lat="44.64733" lon="1.56796">
        <ele>453.4</ele>
        <time>2021-08-17T05:54:55Z</time>
      </trkpt>
      <trkpt lat="44.64734" lon="1.56797">
        <ele>453.4</ele>
        <time>2021-08-17T05:55:16Z</time>
      </trkpt>
      <trkpt lat="44.64733" lon="1.56798">
        <ele>453.4</ele>
        <time>2021-08-17T05:55:33Z</time>
      </trkpt>
      <trkpt lat="44.64734" lon="1.56799">
        <ele>453.4</ele>
        <time>2021-08-17T05:55:47Z</time>
      </trkpt>
      <trkpt lat="44.64735" lon="1.568">
        <ele>453.4</ele>
        <time>2021-08-17T05:56:01Z</time>
      </trkpt>
      <trkpt lat="44.64735" lon="1.568">
        <ele>453.4</ele>
        <time>2021-08-17T05:56:22Z</time>
      </trkpt>
      <trkpt lat="44.64731" lon="1.56801">
        <ele>453.4</ele>
        <time>2021-08-17T05:56:44Z</time>
      </trkpt>
      <trkpt lat="44.64729" lon="1.56802">
        <ele>453.4</ele>
        <time>2021-08-17T05:57:12Z</time>
      </trkpt>
      <trkpt lat="44.64729" lon="1.56802">
        <ele>453.4</ele>
        <time>2021-08-17T05:57:39Z</time>
      </trkpt>
      <trkpt lat="44.64729" lon="1.56802">
        <ele>453.4</ele>
        <time>2021-08-17T05:57:47Z</time>
      </trkpt>
      <trkpt lat="44.6473" lon="1.56801">
        <ele>453.4</ele>
        <time>2021-08-17T05:57:55Z</time>
      </trkpt>
      <trkpt lat="44.6473" lon="1.56799">
        <ele>453.4</ele>
        <time>2021-08-17T05:58:17Z</time>
      </trkpt>
      <trkpt lat="44.64728" lon="1.56798">
        <ele>453.4</ele>
        <time>2021-08-17T05:58:36Z</time>
      </trkpt>
      <trkpt lat="44.64731" lon="1.56798">
        <ele>453.4</ele>
        <time>2021-08-17T05:58:54Z</time>
      </trkpt>
      <trkpt lat="44.64734" lon="1.56801">
        <ele>453.4</ele>
        <time>2021-08-17T05:59:15Z</time>
      </trkpt>
      <trkpt lat="44.64735" lon="1.56799">
        <ele>453.4</ele>
        <time>2021-08-17T05:59:34Z</time>
      </trkpt>
      <trkpt lat="44.64732" lon="1.56799">
        <ele>453.4</ele>
        <time>2021-08-17T05:59:53Z</time>
      </trkpt>
      <trkpt lat="44.64733" lon="1.56798">
        <ele>453.4</ele>
        <time>2021-08-17T06:00:09Z</time>
      </trkpt>
      <trkpt lat="44.64736" lon="1.56801">
        <ele>453.4</ele>
        <time>2021-08-17T06:00:15Z</time>
      </trkpt>
      <trkpt lat="44.6474" lon="1.56802">
        <ele>453.4</ele>
        <time>2021-08-17T06:00:22Z</time>
      </trkpt>
      <trkpt lat="44.64743" lon="1.56804">
        <ele>451.96</ele>
        <time>2021-08-17T06:00:30Z</time>
      </trkpt>
      <trkpt lat="44.64748" lon="1.56811">
        <ele>451.96</ele>
        <time>2021-08-17T06:00:35Z</time>
      </trkpt>
      <trkpt lat="44.64751" lon="1.56808">
        <ele>451.48</ele>
        <time>2021-08-17T06:00:40Z</time>
      </trkpt>
      <trkpt lat="44.64752" lon="1.56804">
        <ele>451.48</ele>
        <time>2021-08-17T06:00:54Z</time>
      </trkpt>
      <trkpt lat="44.64754" lon="1.568">
        <ele>451.48</ele>
        <time>2021-08-17T06:01:09Z</time>
      </trkpt>
      <trkpt lat="44.64758" lon="1.56807">
        <ele>451.48</ele>
        <time>2021-08-17T06:01:18Z</time>
      </trkpt>
      <trkpt lat="44.64762" lon="1.5681">
        <ele>451.48</ele>
        <time>2021-08-17T06:01:20Z</time>
      </trkpt>
      <trkpt lat="44.64764" lon="1.56811">
        <ele>451.48</ele>
        <time>2021-08-17T06:01:21Z</time>
      </trkpt>
      <trkpt lat="44.64767" lon="1.5681">
        <ele>451.48</ele>
        <time>2021-08-17T06:01:22Z</time>
      </trkpt>
      <trkpt lat="44.64769" lon="1.56809">
        <ele>451</ele>
        <time>2021-08-17T06:01:23Z</time>
      </trkpt>
      <trkpt lat="44.64772" lon="1.56807">
        <ele>451</ele>
        <time>2021-08-17T06:01:24Z</time>
      </trkpt>
      <trkpt lat="44.64774" lon="1.56805">
        <ele>451</ele>
        <time>2021-08-17T06:01:25Z</time>
      </trkpt>
      <trkpt lat="44.64777" lon="1.56803">
        <ele>451</ele>
        <time>2021-08-17T06:01:26Z</time>
      </trkpt>
      <trkpt lat="44.64779" lon="1.56801">
        <ele>451</ele>
        <time>2021-08-17T06:01:27Z</time>
      </trkpt>
      <trkpt lat="44.6478" lon="1.56798">
        <ele>451</ele>
        <time>2021-08-17T06:01:28Z</time>
      </trkpt>
      <trkpt lat="44.6478" lon="1.56796">
        <ele>451</ele>
        <time>2021-08-17T06:01:29Z</time>
      </trkpt>
      <trkpt lat="44.64778" lon="1.56792">
        <ele>451</ele>
        <time>2021-08-17T06:01:30Z</time>
      </trkpt>
      <trkpt lat="44.64776" lon="1.56789">
        <ele>451</ele>
        <time>2021-08-17T06:01:31Z</time>
      </trkpt>
      <trkpt lat="44.64774" lon="1.56787">
        <ele>451</ele>
        <time>2021-08-17T06:01:32Z</time>
      </trkpt>
      <trkpt lat="44.64771" lon="1.56784">
        <ele>451</ele>
        <time>2021-08-17T06:01:33Z</time>
      </trkpt>
      <trkpt lat="44.64752" lon="1.56771">
        <ele>451</ele>
        <time>2021-08-17T06:01:40Z</time>
      </trkpt>
      <trkpt lat="44.64728" lon="1.56758">
        <ele>451</ele>
        <time>2021-08-17T06:01:47Z</time>
      </trkpt>
      <trkpt lat="44.64715" lon="1.5675">
        <ele>450.52</ele>
        <time>2021-08-17T06:01:50Z</time>
      </trkpt>
      <trkpt lat="44.64677" lon="1.56722">
        <ele>448.11</ele>
        <time>2021-08-17T06:01:58Z</time>
      </trkpt>
      <trkpt lat="44.64631" lon="1.56681">
        <ele>445.23</ele>
        <time>2021-08-17T06:02:07Z</time>
      </trkpt>
      <trkpt lat="44.64585" lon="1.56657">
        <ele>443.31</ele>
        <time>2021-08-17T06:02:14Z</time>
      </trkpt>
      <trkpt lat="44.64544" lon="1.56636">
        <ele>441.86</ele>
        <time>2021-08-17T06:02:20Z</time>
      </trkpt>
      <trkpt lat="44.64497" lon="1.56591">
        <ele>440.9</ele>
        <time>2021-08-17T06:02:28Z</time>
      </trkpt>
      <trkpt lat="44.64462" lon="1.56557">
        <ele>440.42</ele>
        <time>2021-08-17T06:02:35Z</time>
      </trkpt>
      <trkpt lat="44.64427" lon="1.56528">
        <ele>439.94</ele>
        <time>2021-08-17T06:02:42Z</time>
      </trkpt>
      <trkpt lat="44.64376" lon="1.56491">
        <ele>437.06</ele>
        <time>2021-08-17T06:02:51Z</time>
      </trkpt>
      <trkpt lat="44.64347" lon="1.56464">
        <ele>437.06</ele>
        <time>2021-08-17T06:02:57Z</time>
      </trkpt>
      <trkpt lat="44.64342" lon="1.56461">
        <ele>437.06</ele>
        <time>2021-08-17T06:02:58Z</time>
      </trkpt>
      <trkpt lat="44.64337" lon="1.56459">
        <ele>437.06</ele>
        <time>2021-08-17T06:02:59Z</time>
      </trkpt>
      <trkpt lat="44.64322" lon="1.56452">
        <ele>436.58</ele>
        <time>2021-08-17T06:03:02Z</time>
      </trkpt>
      <trkpt lat="44.6428" lon="1.5642">
        <ele>435.13</ele>
        <time>2021-08-17T06:03:10Z</time>
      </trkpt>
      <trkpt lat="44.64218" lon="1.56376">
        <ele>432.73</ele>
        <time>2021-08-17T06:03:20Z</time>
      </trkpt>
      <trkpt lat="44.64155" lon="1.56332">
        <ele>431.29</ele>
        <time>2021-08-17T06:03:30Z</time>
      </trkpt>
      <trkpt lat="44.64097" lon="1.56293">
        <ele>430.33</ele>
        <time>2021-08-17T06:03:39Z</time>
      </trkpt>
      <trkpt lat="44.64038" lon="1.56251">
        <ele>427.92</ele>
        <time>2021-08-17T06:03:48Z</time>
      </trkpt>
      <trkpt lat="44.63982" lon="1.56211">
        <ele>426.48</ele>
        <time>2021-08-17T06:03:56Z</time>
      </trkpt>
      <trkpt lat="44.63901" lon="1.56154">
        <ele>423.6</ele>
        <time>2021-08-17T06:04:07Z</time>
      </trkpt>
      <trkpt lat="44.63856" lon="1.56123">
        <ele>423.6</ele>
        <time>2021-08-17T06:04:14Z</time>
      </trkpt>
      <trkpt lat="44.63814" lon="1.56092">
        <ele>420.23</ele>
        <time>2021-08-17T06:04:21Z</time>
      </trkpt>
      <trkpt lat="44.63809" lon="1.56087">
        <ele>420.23</ele>
        <time>2021-08-17T06:04:22Z</time>
      </trkpt>
      <trkpt lat="44.63805" lon="1.56082">
        <ele>419.75</ele>
        <time>2021-08-17T06:04:23Z</time>
      </trkpt>
      <trkpt lat="44.63781" lon="1.56052">
        <ele>420.71</ele>
        <time>2021-08-17T06:04:30Z</time>
      </trkpt>
      <trkpt lat="44.63771" lon="1.56025">
        <ele>420.71</ele>
        <time>2021-08-17T06:04:36Z</time>
      </trkpt>
      <trkpt lat="44.63767" lon="1.56013">
        <ele>420.71</ele>
        <time>2021-08-17T06:04:38Z</time>
      </trkpt>
      <trkpt lat="44.63765" lon="1.56008">
        <ele>419.27</ele>
        <time>2021-08-17T06:04:39Z</time>
      </trkpt>
      <trkpt lat="44.63762" lon="1.56003">
        <ele>419.27</ele>
        <time>2021-08-17T06:04:40Z</time>
      </trkpt>
      <trkpt lat="44.6374" lon="1.55969">
        <ele>416.39</ele>
        <time>2021-08-17T06:04:47Z</time>
      </trkpt>
      <trkpt lat="44.63724" lon="1.55947">
        <ele>413.5</ele>
        <time>2021-08-17T06:04:52Z</time>
      </trkpt>
      <trkpt lat="44.6371" lon="1.55926">
        <ele>410.62</ele>
        <time>2021-08-17T06:04:56Z</time>
      </trkpt>
      <trkpt lat="44.63696" lon="1.55903">
        <ele>408.22</ele>
        <time>2021-08-17T06:05:00Z</time>
      </trkpt>
      <trkpt lat="44.63674" lon="1.55873">
        <ele>405.81</ele>
        <time>2021-08-17T06:05:06Z</time>
      </trkpt>
      <trkpt lat="44.63671" lon="1.55868">
        <ele>404.37</ele>
        <time>2021-08-17T06:05:07Z</time>
      </trkpt>
      <trkpt lat="44.63668" lon="1.55863">
        <ele>404.37</ele>
        <time>2021-08-17T06:05:08Z</time>
      </trkpt>
      <trkpt lat="44.63665" lon="1.55857">
        <ele>403.41</ele>
        <time>2021-08-17T06:05:09Z</time>
      </trkpt>
      <trkpt lat="44.63661" lon="1.55852">
        <ele>403.41</ele>
        <time>2021-08-17T06:05:10Z</time>
      </trkpt>
      <trkpt lat="44.63656" lon="1.55846">
        <ele>402.93</ele>
        <time>2021-08-17T06:05:11Z</time>
      </trkpt>
      <trkpt lat="44.63651" lon="1.55841">
        <ele>402.45</ele>
        <time>2021-08-17T06:05:12Z</time>
      </trkpt>
      <trkpt lat="44.63645" lon="1.55836">
        <ele>401.97</ele>
        <time>2021-08-17T06:05:13Z</time>
      </trkpt>
      <trkpt lat="44.63617" lon="1.5581">
        <ele>401.01</ele>
        <time>2021-08-17T06:05:19Z</time>
      </trkpt>
      <trkpt lat="44.6361" lon="1.55799">
        <ele>399.57</ele>
        <time>2021-08-17T06:05:21Z</time>
      </trkpt>
      <trkpt lat="44.63602" lon="1.55779">
        <ele>397.16</ele>
        <time>2021-08-17T06:05:24Z</time>
      </trkpt>
      <trkpt lat="44.636" lon="1.55774">
        <ele>396.2</ele>
        <time>2021-08-17T06:05:25Z</time>
      </trkpt>
      <trkpt lat="44.63597" lon="1.55769">
        <ele>395.72</ele>
        <time>2021-08-17T06:05:26Z</time>
      </trkpt>
      <trkpt lat="44.63593" lon="1.55764">
        <ele>395.24</ele>
        <time>2021-08-17T06:05:27Z</time>
      </trkpt>
      <trkpt lat="44.63589" lon="1.5576">
        <ele>394.28</ele>
        <time>2021-08-17T06:05:28Z</time>
      </trkpt>
      <trkpt lat="44.63586" lon="1.55756">
        <ele>393.8</ele>
        <time>2021-08-17T06:05:29Z</time>
      </trkpt>
      <trkpt lat="44.63574" lon="1.55746">
        <ele>391.39</ele>
        <time>2021-08-17T06:05:32Z</time>
      </trkpt>
      <trkpt lat="44.6357" lon="1.55743">
        <ele>390.91</ele>
        <time>2021-08-17T06:05:33Z</time>
      </trkpt>
      <trkpt lat="44.63546" lon="1.5573">
        <ele>388.03</ele>
        <time>2021-08-17T06:05:39Z</time>
      </trkpt>
      <trkpt lat="44.63541" lon="1.55728">
        <ele>387.55</ele>
        <time>2021-08-17T06:05:40Z</time>
      </trkpt>
      <trkpt lat="44.63537" lon="1.55728">
        <ele>386.59</ele>
        <time>2021-08-17T06:05:41Z</time>
      </trkpt>
      <trkpt lat="44.63532" lon="1.55728">
        <ele>386.11</ele>
        <time>2021-08-17T06:05:42Z</time>
      </trkpt>
      <trkpt lat="44.63528" lon="1.55729">
        <ele>385.63</ele>
        <time>2021-08-17T06:05:43Z</time>
      </trkpt>
      <trkpt lat="44.63524" lon="1.55731">
        <ele>384.66</ele>
        <time>2021-08-17T06:05:44Z</time>
      </trkpt>
      <trkpt lat="44.6352" lon="1.55733">
        <ele>384.18</ele>
        <time>2021-08-17T06:05:45Z</time>
      </trkpt>
      <trkpt lat="44.63516" lon="1.55735">
        <ele>383.22</ele>
        <time>2021-08-17T06:05:46Z</time>
      </trkpt>
      <trkpt lat="44.63504" lon="1.55743">
        <ele>380.34</ele>
        <time>2021-08-17T06:05:50Z</time>
      </trkpt>
      <trkpt lat="44.63492" lon="1.55749">
        <ele>376.97</ele>
        <time>2021-08-17T06:05:54Z</time>
      </trkpt>
      <trkpt lat="44.63477" lon="1.55756">
        <ele>373.13</ele>
        <time>2021-08-17T06:05:59Z</time>
      </trkpt>
      <trkpt lat="44.63465" lon="1.55767">
        <ele>371.69</ele>
        <time>2021-08-17T06:06:03Z</time>
      </trkpt>
      <trkpt lat="44.63462" lon="1.55766">
        <ele>371.21</ele>
        <time>2021-08-17T06:06:04Z</time>
      </trkpt>
      <trkpt lat="44.6346" lon="1.55764">
        <ele>370.73</ele>
        <time>2021-08-17T06:06:05Z</time>
      </trkpt>
      <trkpt lat="44.63447" lon="1.55753">
        <ele>368.8</ele>
        <time>2021-08-17T06:06:10Z</time>
      </trkpt>
      <trkpt lat="44.63429" lon="1.55736">
        <ele>365.92</ele>
        <time>2021-08-17T06:06:15Z</time>
      </trkpt>
      <trkpt lat="44.63407" lon="1.55711">
        <ele>362.07</ele>
        <time>2021-08-17T06:06:22Z</time>
      </trkpt>
      <trkpt lat="44.63398" lon="1.55693">
        <ele>358.71</ele>
        <time>2021-08-17T06:06:26Z</time>
      </trkpt>
      <trkpt lat="44.63391" lon="1.55677">
        <ele>354.86</ele>
        <time>2021-08-17T06:06:30Z</time>
      </trkpt>
      <trkpt lat="44.63388" lon="1.55663">
        <ele>351.98</ele>
        <time>2021-08-17T06:06:34Z</time>
      </trkpt>
      <trkpt lat="44.63382" lon="1.55649">
        <ele>348.62</ele>
        <time>2021-08-17T06:06:38Z</time>
      </trkpt>
      <trkpt lat="44.63377" lon="1.55633">
        <ele>344.77</ele>
        <time>2021-08-17T06:06:42Z</time>
      </trkpt>
      <trkpt lat="44.63372" lon="1.55615">
        <ele>341.89</ele>
        <time>2021-08-17T06:06:46Z</time>
      </trkpt>
      <trkpt lat="44.63363" lon="1.556">
        <ele>338.52</ele>
        <time>2021-08-17T06:06:51Z</time>
      </trkpt>
      <trkpt lat="44.63359" lon="1.55598">
        <ele>338.04</ele>
        <time>2021-08-17T06:06:52Z</time>
      </trkpt>
      <trkpt lat="44.63345" lon="1.55593">
        <ele>337.56</ele>
        <time>2021-08-17T06:06:55Z</time>
      </trkpt>
      <trkpt lat="44.63336" lon="1.55587">
        <ele>337.08</ele>
        <time>2021-08-17T06:06:57Z</time>
      </trkpt>
      <trkpt lat="44.63333" lon="1.55584">
        <ele>337.08</ele>
        <time>2021-08-17T06:06:58Z</time>
      </trkpt>
      <trkpt lat="44.6331" lon="1.55562">
        <ele>335.64</ele>
        <time>2021-08-17T06:07:05Z</time>
      </trkpt>
      <trkpt lat="44.63295" lon="1.55545">
        <ele>335.64</ele>
        <time>2021-08-17T06:07:11Z</time>
      </trkpt>
      <trkpt lat="44.63281" lon="1.5553">
        <ele>334.68</ele>
        <time>2021-08-17T06:07:16Z</time>
      </trkpt>
      <trkpt lat="44.63272" lon="1.55519">
        <ele>333.71</ele>
        <time>2021-08-17T06:07:19Z</time>
      </trkpt>
      <trkpt lat="44.6325" lon="1.55502">
        <ele>332.27</ele>
        <time>2021-08-17T06:07:24Z</time>
      </trkpt>
      <trkpt lat="44.63244" lon="1.55497">
        <ele>331.31</ele>
        <time>2021-08-17T06:07:25Z</time>
      </trkpt>
      <trkpt lat="44.63204" lon="1.55467">
        <ele>330.35</ele>
        <time>2021-08-17T06:07:31Z</time>
      </trkpt>
      <trkpt lat="44.63199" lon="1.55461">
        <ele>329.87</ele>
        <time>2021-08-17T06:07:32Z</time>
      </trkpt>
      <trkpt lat="44.63195" lon="1.55456">
        <ele>329.87</ele>
        <time>2021-08-17T06:07:33Z</time>
      </trkpt>
      <trkpt lat="44.63191" lon="1.55451">
        <ele>328.91</ele>
        <time>2021-08-17T06:07:34Z</time>
      </trkpt>
      <trkpt lat="44.63186" lon="1.55445">
        <ele>328.43</ele>
        <time>2021-08-17T06:07:35Z</time>
      </trkpt>
      <trkpt lat="44.63152" lon="1.5541">
        <ele>326.02</ele>
        <time>2021-08-17T06:07:41Z</time>
      </trkpt>
      <trkpt lat="44.63108" lon="1.55388">
        <ele>325.54</ele>
        <time>2021-08-17T06:07:48Z</time>
      </trkpt>
      <trkpt lat="44.63079" lon="1.55371">
        <ele>324.1</ele>
        <time>2021-08-17T06:07:54Z</time>
      </trkpt>
      <trkpt lat="44.63041" lon="1.5534">
        <ele>320.74</ele>
        <time>2021-08-17T06:08:00Z</time>
      </trkpt>
      <trkpt lat="44.63028" lon="1.55329">
        <ele>319.78</ele>
        <time>2021-08-17T06:08:02Z</time>
      </trkpt>
      <trkpt lat="44.62994" lon="1.55306">
        <ele>317.85</ele>
        <time>2021-08-17T06:08:07Z</time>
      </trkpt>
      <trkpt lat="44.62987" lon="1.55304">
        <ele>317.85</ele>
        <time>2021-08-17T06:08:08Z</time>
      </trkpt>
      <trkpt lat="44.62937" lon="1.55291">
        <ele>316.89</ele>
        <time>2021-08-17T06:08:16Z</time>
      </trkpt>
      <trkpt lat="44.62926" lon="1.55288">
        <ele>316.89</ele>
        <time>2021-08-17T06:08:18Z</time>
      </trkpt>
      <trkpt lat="44.6292" lon="1.55287">
        <ele>316.41</ele>
        <time>2021-08-17T06:08:19Z</time>
      </trkpt>
      <trkpt lat="44.62914" lon="1.55286">
        <ele>316.89</ele>
        <time>2021-08-17T06:08:20Z</time>
      </trkpt>
      <trkpt lat="44.62898" lon="1.55284">
        <ele>315.45</ele>
        <time>2021-08-17T06:08:23Z</time>
      </trkpt>
      <trkpt lat="44.62857" lon="1.55266">
        <ele>313.53</ele>
        <time>2021-08-17T06:08:30Z</time>
      </trkpt>
      <trkpt lat="44.62815" lon="1.55246">
        <ele>312.09</ele>
        <time>2021-08-17T06:08:37Z</time>
      </trkpt>
      <trkpt lat="44.62808" lon="1.55244">
        <ele>311.12</ele>
        <time>2021-08-17T06:08:38Z</time>
      </trkpt>
      <trkpt lat="44.62795" lon="1.55242">
        <ele>311.6</ele>
        <time>2021-08-17T06:08:40Z</time>
      </trkpt>
      <trkpt lat="44.62783" lon="1.55242">
        <ele>311.12</ele>
        <time>2021-08-17T06:08:42Z</time>
      </trkpt>
      <trkpt lat="44.62777" lon="1.55243">
        <ele>311.12</ele>
        <time>2021-08-17T06:08:43Z</time>
      </trkpt>
      <trkpt lat="44.62758" lon="1.55245">
        <ele>311.12</ele>
        <time>2021-08-17T06:08:47Z</time>
      </trkpt>
      <trkpt lat="44.62735" lon="1.5525">
        <ele>310.64</ele>
        <time>2021-08-17T06:08:52Z</time>
      </trkpt>
      <trkpt lat="44.62703" lon="1.55259">
        <ele>309.2</ele>
        <time>2021-08-17T06:08:59Z</time>
      </trkpt>
      <trkpt lat="44.62674" lon="1.55269">
        <ele>307.76</ele>
        <time>2021-08-17T06:09:04Z</time>
      </trkpt>
      <trkpt lat="44.62644" lon="1.55287">
        <ele>307.76</ele>
        <time>2021-08-17T06:09:10Z</time>
      </trkpt>
      <trkpt lat="44.62636" lon="1.5529">
        <ele>308.72</ele>
        <time>2021-08-17T06:09:12Z</time>
      </trkpt>
      <trkpt lat="44.62625" lon="1.55288">
        <ele>309.2</ele>
        <time>2021-08-17T06:09:15Z</time>
      </trkpt>
      <trkpt lat="44.62616" lon="1.55283">
        <ele>308.24</ele>
        <time>2021-08-17T06:09:17Z</time>
      </trkpt>
      <trkpt lat="44.62592" lon="1.55267">
        <ele>305.84</ele>
        <time>2021-08-17T06:09:23Z</time>
      </trkpt>
      <trkpt lat="44.62577" lon="1.55259">
        <ele>304.88</ele>
        <time>2021-08-17T06:09:26Z</time>
      </trkpt>
      <trkpt lat="44.62536" lon="1.55242">
        <ele>302.95</ele>
        <time>2021-08-17T06:09:33Z</time>
      </trkpt>
      <trkpt lat="44.62499" lon="1.55228">
        <ele>300.55</ele>
        <time>2021-08-17T06:09:39Z</time>
      </trkpt>
      <trkpt lat="44.62453" lon="1.55223">
        <ele>298.63</ele>
        <time>2021-08-17T06:09:46Z</time>
      </trkpt>
      <trkpt lat="44.62413" lon="1.55217">
        <ele>297.67</ele>
        <time>2021-08-17T06:09:53Z</time>
      </trkpt>
      <trkpt lat="44.624" lon="1.55212">
        <ele>297.67</ele>
        <time>2021-08-17T06:09:56Z</time>
      </trkpt>
      <trkpt lat="44.62378" lon="1.55201">
        <ele>296.22</ele>
        <time>2021-08-17T06:10:00Z</time>
      </trkpt>
      <trkpt lat="44.62354" lon="1.55191">
        <ele>295.26</ele>
        <time>2021-08-17T06:10:04Z</time>
      </trkpt>
      <trkpt lat="44.6235" lon="1.5519">
        <ele>295.26</ele>
        <time>2021-08-17T06:10:05Z</time>
      </trkpt>
      <trkpt lat="44.62338" lon="1.55185">
        <ele>296.7</ele>
        <time>2021-08-17T06:10:08Z</time>
      </trkpt>
      <trkpt lat="44.62318" lon="1.55179">
        <ele>298.15</ele>
        <time>2021-08-17T06:10:16Z</time>
      </trkpt>
      <trkpt lat="44.62294" lon="1.55171">
        <ele>297.18</ele>
        <time>2021-08-17T06:10:22Z</time>
      </trkpt>
      <trkpt lat="44.62259" lon="1.55156">
        <ele>294.3</ele>
        <time>2021-08-17T06:10:28Z</time>
      </trkpt>
      <trkpt lat="44.62207" lon="1.55136">
        <ele>290.94</ele>
        <time>2021-08-17T06:10:35Z</time>
      </trkpt>
      <trkpt lat="44.62154" lon="1.55123">
        <ele>288.05</ele>
        <time>2021-08-17T06:10:42Z</time>
      </trkpt>
      <trkpt lat="44.62149" lon="1.55123">
        <ele>288.05</ele>
        <time>2021-08-17T06:10:43Z</time>
      </trkpt>
      <trkpt lat="44.62129" lon="1.5512">
        <ele>287.09</ele>
        <time>2021-08-17T06:10:48Z</time>
      </trkpt>
      <trkpt lat="44.62128" lon="1.55117">
        <ele>287.09</ele>
        <time>2021-08-17T06:10:49Z</time>
      </trkpt>
      <trkpt lat="44.62127" lon="1.55112">
        <ele>285.65</ele>
        <time>2021-08-17T06:10:50Z</time>
      </trkpt>
      <trkpt lat="44.62126" lon="1.55106">
        <ele>285.65</ele>
        <time>2021-08-17T06:10:51Z</time>
      </trkpt>
      <trkpt lat="44.62124" lon="1.551">
        <ele>285.17</ele>
        <time>2021-08-17T06:10:52Z</time>
      </trkpt>
      <trkpt lat="44.62122" lon="1.55094">
        <ele>285.17</ele>
        <time>2021-08-17T06:10:53Z</time>
      </trkpt>
      <trkpt lat="44.6212" lon="1.55089">
        <ele>285.17</ele>
        <time>2021-08-17T06:10:54Z</time>
      </trkpt>
      <trkpt lat="44.62118" lon="1.55086">
        <ele>285.17</ele>
        <time>2021-08-17T06:10:55Z</time>
      </trkpt>
      <trkpt lat="44.62116" lon="1.55085">
        <ele>285.17</ele>
        <time>2021-08-17T06:10:56Z</time>
      </trkpt>
      <trkpt lat="44.62112" lon="1.55085">
        <ele>285.17</ele>
        <time>2021-08-17T06:10:57Z</time>
      </trkpt>
      <trkpt lat="44.62109" lon="1.55085">
        <ele>285.17</ele>
        <time>2021-08-17T06:10:58Z</time>
      </trkpt>
      <trkpt lat="44.62106" lon="1.55085">
        <ele>285.17</ele>
        <time>2021-08-17T06:10:59Z</time>
      </trkpt>
      <trkpt lat="44.62102" lon="1.55085">
        <ele>285.17</ele>
        <time>2021-08-17T06:11:00Z</time>
      </trkpt>
      <trkpt lat="44.62099" lon="1.55084">
        <ele>285.17</ele>
        <time>2021-08-17T06:11:01Z</time>
      </trkpt>
      <trkpt lat="44.62096" lon="1.55084">
        <ele>285.17</ele>
        <time>2021-08-17T06:11:02Z</time>
      </trkpt>
      <trkpt lat="44.62093" lon="1.55083">
        <ele>285.17</ele>
        <time>2021-08-17T06:11:03Z</time>
      </trkpt>
      <trkpt lat="44.6209" lon="1.55084">
        <ele>285.17</ele>
        <time>2021-08-17T06:11:04Z</time>
      </trkpt>
      <trkpt lat="44.62087" lon="1.55085">
        <ele>285.17</ele>
        <time>2021-08-17T06:11:05Z</time>
      </trkpt>
      <trkpt lat="44.62083" lon="1.55086">
        <ele>285.17</ele>
        <time>2021-08-17T06:11:06Z</time>
      </trkpt>
      <trkpt lat="44.6208" lon="1.55087">
        <ele>284.69</ele>
        <time>2021-08-17T06:11:07Z</time>
      </trkpt>
      <trkpt lat="44.62076" lon="1.55087">
        <ele>284.69</ele>
        <time>2021-08-17T06:11:08Z</time>
      </trkpt>
      <trkpt lat="44.62052" lon="1.55085">
        <ele>284.69</ele>
        <time>2021-08-17T06:11:15Z</time>
      </trkpt>
      <trkpt lat="44.6203" lon="1.5507">
        <ele>281.8</ele>
        <time>2021-08-17T06:11:21Z</time>
      </trkpt>
      <trkpt lat="44.62026" lon="1.55066">
        <ele>280.84</ele>
        <time>2021-08-17T06:11:22Z</time>
      </trkpt>
      <trkpt lat="44.62022" lon="1.55063">
        <ele>280.36</ele>
        <time>2021-08-17T06:11:23Z</time>
      </trkpt>
      <trkpt lat="44.62013" lon="1.55054">
        <ele>279.88</ele>
        <time>2021-08-17T06:11:25Z</time>
      </trkpt>
      <trkpt lat="44.62009" lon="1.55049">
        <ele>279.4</ele>
        <time>2021-08-17T06:11:26Z</time>
      </trkpt>
      <trkpt lat="44.62002" lon="1.55038">
        <ele>279.4</ele>
        <time>2021-08-17T06:11:28Z</time>
      </trkpt>
      <trkpt lat="44.61984" lon="1.55004">
        <ele>279.4</ele>
        <time>2021-08-17T06:11:35Z</time>
      </trkpt>
      <trkpt lat="44.61967" lon="1.54977">
        <ele>279.4</ele>
        <time>2021-08-17T06:11:42Z</time>
      </trkpt>
      <trkpt lat="44.61945" lon="1.54938">
        <ele>279.4</ele>
        <time>2021-08-17T06:11:51Z</time>
      </trkpt>
      <trkpt lat="44.61925" lon="1.54909">
        <ele>278.92</ele>
        <time>2021-08-17T06:11:58Z</time>
      </trkpt>
      <trkpt lat="44.61894" lon="1.54869">
        <ele>277.48</ele>
        <time>2021-08-17T06:12:06Z</time>
      </trkpt>
      <trkpt lat="44.61892" lon="1.54862">
        <ele>277.48</ele>
        <time>2021-08-17T06:12:07Z</time>
      </trkpt>
      <trkpt lat="44.61891" lon="1.54855">
        <ele>276.52</ele>
        <time>2021-08-17T06:12:08Z</time>
      </trkpt>
      <trkpt lat="44.6189" lon="1.54848">
        <ele>276.52</ele>
        <time>2021-08-17T06:12:09Z</time>
      </trkpt>
      <trkpt lat="44.6189" lon="1.5484">
        <ele>275.56</ele>
        <time>2021-08-17T06:12:10Z</time>
      </trkpt>
      <trkpt lat="44.61889" lon="1.54834">
        <ele>275.07</ele>
        <time>2021-08-17T06:12:11Z</time>
      </trkpt>
      <trkpt lat="44.61886" lon="1.54829">
        <ele>274.59</ele>
        <time>2021-08-17T06:12:12Z</time>
      </trkpt>
      <trkpt lat="44.61883" lon="1.54824">
        <ele>274.59</ele>
        <time>2021-08-17T06:12:13Z</time>
      </trkpt>
      <trkpt lat="44.61879" lon="1.5482">
        <ele>274.11</ele>
        <time>2021-08-17T06:12:14Z</time>
      </trkpt>
      <trkpt lat="44.61876" lon="1.54817">
        <ele>274.11</ele>
        <time>2021-08-17T06:12:15Z</time>
      </trkpt>
      <trkpt lat="44.61872" lon="1.54815">
        <ele>274.59</ele>
        <time>2021-08-17T06:12:16Z</time>
      </trkpt>
      <trkpt lat="44.61869" lon="1.54814">
        <ele>274.59</ele>
        <time>2021-08-17T06:12:17Z</time>
      </trkpt>
      <trkpt lat="44.61849" lon="1.54812">
        <ele>275.56</ele>
        <time>2021-08-17T06:12:23Z</time>
      </trkpt>
      <trkpt lat="44.61832" lon="1.54812">
        <ele>277</ele>
        <time>2021-08-17T06:12:30Z</time>
      </trkpt>
      <trkpt lat="44.61818" lon="1.54816">
        <ele>278.44</ele>
        <time>2021-08-17T06:12:39Z</time>
      </trkpt>
      <trkpt lat="44.61803" lon="1.5481">
        <ele>279.88</ele>
        <time>2021-08-17T06:12:48Z</time>
      </trkpt>
      <trkpt lat="44.61789" lon="1.54794">
        <ele>280.36</ele>
        <time>2021-08-17T06:12:57Z</time>
      </trkpt>
      <trkpt lat="44.61778" lon="1.54763">
        <ele>280.84</ele>
        <time>2021-08-17T06:13:06Z</time>
      </trkpt>
      <trkpt lat="44.61763" lon="1.54716">
        <ele>278.44</ele>
        <time>2021-08-17T06:13:15Z</time>
      </trkpt>
      <trkpt lat="44.61759" lon="1.54701">
        <ele>277.48</ele>
        <time>2021-08-17T06:13:17Z</time>
      </trkpt>
      <trkpt lat="44.61742" lon="1.54649">
        <ele>274.59</ele>
        <time>2021-08-17T06:13:23Z</time>
      </trkpt>
      <trkpt lat="44.61731" lon="1.54618">
        <ele>272.67</ele>
        <time>2021-08-17T06:13:26Z</time>
      </trkpt>
      <trkpt lat="44.6171" lon="1.54565">
        <ele>271.71</ele>
        <time>2021-08-17T06:13:32Z</time>
      </trkpt>
      <trkpt lat="44.61706" lon="1.54558">
        <ele>271.71</ele>
        <time>2021-08-17T06:13:33Z</time>
      </trkpt>
      <trkpt lat="44.61696" lon="1.54543">
        <ele>270.27</ele>
        <time>2021-08-17T06:13:35Z</time>
      </trkpt>
      <trkpt lat="44.61693" lon="1.54534">
        <ele>270.27</ele>
        <time>2021-08-17T06:13:36Z</time>
      </trkpt>
      <trkpt lat="44.61667" lon="1.54475">
        <ele>269.31</ele>
        <time>2021-08-17T06:13:43Z</time>
      </trkpt>
      <trkpt lat="44.61647" lon="1.54437">
        <ele>269.31</ele>
        <time>2021-08-17T06:13:49Z</time>
      </trkpt>
      <trkpt lat="44.61623" lon="1.54401">
        <ele>268.83</ele>
        <time>2021-08-17T06:13:57Z</time>
      </trkpt>
      <trkpt lat="44.61613" lon="1.54389">
        <ele>268.83</ele>
        <time>2021-08-17T06:14:00Z</time>
      </trkpt>
      <trkpt lat="44.61582" lon="1.54362">
        <ele>270.27</ele>
        <time>2021-08-17T06:14:09Z</time>
      </trkpt>
      <trkpt lat="44.6158" lon="1.5436">
        <ele>270.27</ele>
        <time>2021-08-17T06:14:10Z</time>
      </trkpt>
      <trkpt lat="44.61561" lon="1.5435">
        <ele>271.23</ele>
        <time>2021-08-17T06:14:17Z</time>
      </trkpt>
      <trkpt lat="44.61556" lon="1.5435">
        <ele>271.23</ele>
        <time>2021-08-17T06:14:18Z</time>
      </trkpt>
      <trkpt lat="44.61552" lon="1.54351">
        <ele>271.23</ele>
        <time>2021-08-17T06:14:19Z</time>
      </trkpt>
      <trkpt lat="44.61545" lon="1.54353">
        <ele>270.27</ele>
        <time>2021-08-17T06:14:21Z</time>
      </trkpt>
      <trkpt lat="44.61512" lon="1.54349">
        <ele>269.79</ele>
        <time>2021-08-17T06:14:29Z</time>
      </trkpt>
      <trkpt lat="44.61479" lon="1.54335">
        <ele>268.35</ele>
        <time>2021-08-17T06:14:37Z</time>
      </trkpt>
      <trkpt lat="44.61455" lon="1.5433">
        <ele>269.79</ele>
        <time>2021-08-17T06:14:43Z</time>
      </trkpt>
      <trkpt lat="44.61442" lon="1.5433">
        <ele>267.86</ele>
        <time>2021-08-17T06:14:46Z</time>
      </trkpt>
      <trkpt lat="44.61398" lon="1.5434">
        <ele>266.42</ele>
        <time>2021-08-17T06:14:53Z</time>
      </trkpt>
      <trkpt lat="44.61337" lon="1.54356">
        <ele>264.5</ele>
        <time>2021-08-17T06:15:03Z</time>
      </trkpt>
      <trkpt lat="44.61298" lon="1.54358">
        <ele>264.5</ele>
        <time>2021-08-17T06:15:10Z</time>
      </trkpt>
      <trkpt lat="44.61294" lon="1.54356">
        <ele>264.5</ele>
        <time>2021-08-17T06:15:11Z</time>
      </trkpt>
      <trkpt lat="44.61291" lon="1.54354">
        <ele>264.5</ele>
        <time>2021-08-17T06:15:12Z</time>
      </trkpt>
      <trkpt lat="44.61287" lon="1.5435">
        <ele>264.02</ele>
        <time>2021-08-17T06:15:13Z</time>
      </trkpt>
      <trkpt lat="44.61284" lon="1.54347">
        <ele>264.5</ele>
        <time>2021-08-17T06:15:14Z</time>
      </trkpt>
      <trkpt lat="44.6128" lon="1.54343">
        <ele>264.5</ele>
        <time>2021-08-17T06:15:15Z</time>
      </trkpt>
      <trkpt lat="44.61253" lon="1.54307">
        <ele>263.06</ele>
        <time>2021-08-17T06:15:22Z</time>
      </trkpt>
      <trkpt lat="44.61236" lon="1.54292">
        <ele>263.06</ele>
        <time>2021-08-17T06:15:26Z</time>
      </trkpt>
      <trkpt lat="44.61218" lon="1.54282">
        <ele>264.98</ele>
        <time>2021-08-17T06:15:32Z</time>
      </trkpt>
      <trkpt lat="44.61206" lon="1.5428">
        <ele>266.9</ele>
        <time>2021-08-17T06:15:41Z</time>
      </trkpt>
      <trkpt lat="44.61197" lon="1.54283">
        <ele>268.35</ele>
        <time>2021-08-17T06:15:49Z</time>
      </trkpt>
      <trkpt lat="44.61189" lon="1.54289">
        <ele>269.31</ele>
        <time>2021-08-17T06:15:57Z</time>
      </trkpt>
      <trkpt lat="44.61185" lon="1.54293">
        <ele>270.75</ele>
        <time>2021-08-17T06:16:04Z</time>
      </trkpt>
      <trkpt lat="44.61179" lon="1.543">
        <ele>271.71</ele>
        <time>2021-08-17T06:16:13Z</time>
      </trkpt>
      <trkpt lat="44.61176" lon="1.54304">
        <ele>273.15</ele>
        <time>2021-08-17T06:16:19Z</time>
      </trkpt>
      <trkpt lat="44.61171" lon="1.54311">
        <ele>274.59</ele>
        <time>2021-08-17T06:16:27Z</time>
      </trkpt>
      <trkpt lat="44.6117" lon="1.54313">
        <ele>275.07</ele>
        <time>2021-08-17T06:16:31Z</time>
      </trkpt>
      <trkpt lat="44.61161" lon="1.54322">
        <ele>277</ele>
        <time>2021-08-17T06:16:41Z</time>
      </trkpt>
      <trkpt lat="44.61155" lon="1.54329">
        <ele>277.96</ele>
        <time>2021-08-17T06:16:49Z</time>
      </trkpt>
      <trkpt lat="44.61149" lon="1.54336">
        <ele>279.4</ele>
        <time>2021-08-17T06:16:57Z</time>
      </trkpt>
      <trkpt lat="44.61141" lon="1.54344">
        <ele>281.32</ele>
        <time>2021-08-17T06:17:07Z</time>
      </trkpt>
      <trkpt lat="44.61134" lon="1.5435">
        <ele>282.77</ele>
        <time>2021-08-17T06:17:15Z</time>
      </trkpt>
      <trkpt lat="44.61127" lon="1.54357">
        <ele>284.21</ele>
        <time>2021-08-17T06:17:24Z</time>
      </trkpt>
      <trkpt lat="44.61116" lon="1.54364">
        <ele>286.61</ele>
        <time>2021-08-17T06:17:35Z</time>
      </trkpt>
      <trkpt lat="44.61109" lon="1.54367">
        <ele>288.05</ele>
        <time>2021-08-17T06:17:43Z</time>
      </trkpt>
      <trkpt lat="44.61099" lon="1.54371">
        <ele>289.49</ele>
        <time>2021-08-17T06:17:54Z</time>
      </trkpt>
      <trkpt lat="44.61092" lon="1.54374">
        <ele>290.94</ele>
        <time>2021-08-17T06:18:01Z</time>
      </trkpt>
      <trkpt lat="44.61083" lon="1.54378">
        <ele>292.86</ele>
        <time>2021-08-17T06:18:11Z</time>
      </trkpt>
      <trkpt lat="44.61075" lon="1.54383">
        <ele>294.3</ele>
        <time>2021-08-17T06:18:20Z</time>
      </trkpt>
      <trkpt lat="44.61067" lon="1.54387">
        <ele>295.26</ele>
        <time>2021-08-17T06:18:28Z</time>
      </trkpt>
      <trkpt lat="44.61058" lon="1.5439">
        <ele>296.7</ele>
        <time>2021-08-17T06:18:37Z</time>
      </trkpt>
      <trkpt lat="44.61047" lon="1.54395">
        <ele>298.63</ele>
        <time>2021-08-17T06:18:48Z</time>
      </trkpt>
      <trkpt lat="44.61037" lon="1.54399">
        <ele>300.55</ele>
        <time>2021-08-17T06:18:58Z</time>
      </trkpt>
      <trkpt lat="44.6103" lon="1.54401">
        <ele>301.99</ele>
        <time>2021-08-17T06:19:06Z</time>
      </trkpt>
      <trkpt lat="44.61017" lon="1.54407">
        <ele>303.91</ele>
        <time>2021-08-17T06:19:18Z</time>
      </trkpt>
      <trkpt lat="44.61008" lon="1.54409">
        <ele>305.36</ele>
        <time>2021-08-17T06:19:28Z</time>
      </trkpt>
      <trkpt lat="44.60998" lon="1.5441">
        <ele>307.28</ele>
        <time>2021-08-17T06:19:38Z</time>
      </trkpt>
      <trkpt lat="44.60991" lon="1.54412">
        <ele>308.24</ele>
        <time>2021-08-17T06:19:46Z</time>
      </trkpt>
      <trkpt lat="44.60984" lon="1.54413">
        <ele>309.68</ele>
        <time>2021-08-17T06:19:54Z</time>
      </trkpt>
      <trkpt lat="44.60975" lon="1.54414">
        <ele>311.6</ele>
        <time>2021-08-17T06:20:04Z</time>
      </trkpt>
      <trkpt lat="44.60966" lon="1.54417">
        <ele>312.57</ele>
        <time>2021-08-17T06:20:14Z</time>
      </trkpt>
      <trkpt lat="44.60954" lon="1.54421">
        <ele>314.01</ele>
        <time>2021-08-17T06:20:25Z</time>
      </trkpt>
      <trkpt lat="44.60943" lon="1.54424">
        <ele>315.45</ele>
        <time>2021-08-17T06:20:34Z</time>
      </trkpt>
      <trkpt lat="44.60937" lon="1.54427">
        <ele>316.41</ele>
        <time>2021-08-17T06:20:44Z</time>
      </trkpt>
      <trkpt lat="44.60936" lon="1.54427">
        <ele>316.41</ele>
        <time>2021-08-17T06:20:57Z</time>
      </trkpt>
      <trkpt lat="44.60937" lon="1.54427">
        <ele>316.41</ele>
        <time>2021-08-17T06:21:15Z</time>
      </trkpt>
      <trkpt lat="44.60937" lon="1.54426">
        <ele>316.41</ele>
        <time>2021-08-17T06:21:27Z</time>
      </trkpt>
      <trkpt lat="44.60936" lon="1.54427">
        <ele>316.41</ele>
        <time>2021-08-17T06:21:39Z</time>
      </trkpt>
      <trkpt lat="44.60936" lon="1.54426">
        <ele>316.41</ele>
        <time>2021-08-17T06:21:54Z</time>
      </trkpt>
      <trkpt lat="44.60936" lon="1.54428">
        <ele>316.41</ele>
        <time>2021-08-17T06:22:12Z</time>
      </trkpt>
      <trkpt lat="44.60934" lon="1.54429">
        <ele>316.89</ele>
        <time>2021-08-17T06:22:22Z</time>
      </trkpt>
      <trkpt lat="44.60933" lon="1.54429">
        <ele>316.89</ele>
        <time>2021-08-17T06:22:23Z</time>
      </trkpt>
      <trkpt lat="44.60932" lon="1.5443">
        <ele>317.37</ele>
        <time>2021-08-17T06:22:24Z</time>
      </trkpt>
      <trkpt lat="44.6093" lon="1.54431">
        <ele>317.37</ele>
        <time>2021-08-17T06:22:25Z</time>
      </trkpt>
      <trkpt lat="44.60929" lon="1.54431">
        <ele>317.37</ele>
        <time>2021-08-17T06:22:26Z</time>
      </trkpt>
      <trkpt lat="44.60925" lon="1.54434">
        <ele>318.33</ele>
        <time>2021-08-17T06:22:30Z</time>
      </trkpt>
      <trkpt lat="44.60924" lon="1.54434">
        <ele>318.33</ele>
        <time>2021-08-17T06:22:31Z</time>
      </trkpt>
      <trkpt lat="44.6091" lon="1.54438">
        <ele>320.26</ele>
        <time>2021-08-17T06:22:41Z</time>
      </trkpt>
      <trkpt lat="44.60902" lon="1.54441">
        <ele>321.7</ele>
        <time>2021-08-17T06:22:48Z</time>
      </trkpt>
      <trkpt lat="44.60894" lon="1.54441">
        <ele>322.66</ele>
        <time>2021-08-17T06:22:54Z</time>
      </trkpt>
      <trkpt lat="44.60893" lon="1.54442">
        <ele>323.62</ele>
        <time>2021-08-17T06:22:55Z</time>
      </trkpt>
      <trkpt lat="44.60891" lon="1.54442">
        <ele>323.62</ele>
        <time>2021-08-17T06:22:56Z</time>
      </trkpt>
      <trkpt lat="44.6089" lon="1.54442">
        <ele>323.62</ele>
        <time>2021-08-17T06:22:57Z</time>
      </trkpt>
      <trkpt lat="44.60888" lon="1.54442">
        <ele>323.62</ele>
        <time>2021-08-17T06:22:58Z</time>
      </trkpt>
      <trkpt lat="44.60887" lon="1.54441">
        <ele>323.62</ele>
        <time>2021-08-17T06:22:59Z</time>
      </trkpt>
      <trkpt lat="44.60886" lon="1.54441">
        <ele>324.1</ele>
        <time>2021-08-17T06:23:00Z</time>
      </trkpt>
      <trkpt lat="44.60884" lon="1.54441">
        <ele>324.1</ele>
        <time>2021-08-17T06:23:01Z</time>
      </trkpt>
      <trkpt lat="44.60883" lon="1.54441">
        <ele>324.1</ele>
        <time>2021-08-17T06:23:02Z</time>
      </trkpt>
      <trkpt lat="44.60882" lon="1.54442">
        <ele>324.58</ele>
        <time>2021-08-17T06:23:03Z</time>
      </trkpt>
      <trkpt lat="44.6088" lon="1.54442">
        <ele>324.58</ele>
        <time>2021-08-17T06:23:04Z</time>
      </trkpt>
      <trkpt lat="44.60879" lon="1.54442">
        <ele>324.58</ele>
        <time>2021-08-17T06:23:05Z</time>
      </trkpt>
      <trkpt lat="44.60878" lon="1.54441">
        <ele>325.06</ele>
        <time>2021-08-17T06:23:06Z</time>
      </trkpt>
      <trkpt lat="44.60877" lon="1.54441">
        <ele>325.06</ele>
        <time>2021-08-17T06:23:07Z</time>
      </trkpt>
      <trkpt lat="44.60875" lon="1.54441">
        <ele>325.06</ele>
        <time>2021-08-17T06:23:08Z</time>
      </trkpt>
      <trkpt lat="44.60874" lon="1.54441">
        <ele>325.54</ele>
        <time>2021-08-17T06:23:09Z</time>
      </trkpt>
      <trkpt lat="44.60862" lon="1.54437">
        <ele>326.99</ele>
        <time>2021-08-17T06:23:19Z</time>
      </trkpt>
      <trkpt lat="44.60851" lon="1.54433">
        <ele>328.91</ele>
        <time>2021-08-17T06:23:28Z</time>
      </trkpt>
      <trkpt lat="44.6085" lon="1.54432">
        <ele>328.91</ele>
        <time>2021-08-17T06:23:29Z</time>
      </trkpt>
      <trkpt lat="44.60849" lon="1.54432">
        <ele>328.91</ele>
        <time>2021-08-17T06:23:30Z</time>
      </trkpt>
      <trkpt lat="44.60848" lon="1.54431">
        <ele>329.39</ele>
        <time>2021-08-17T06:23:31Z</time>
      </trkpt>
      <trkpt lat="44.60847" lon="1.54431">
        <ele>329.39</ele>
        <time>2021-08-17T06:23:32Z</time>
      </trkpt>
      <trkpt lat="44.60846" lon="1.5443">
        <ele>329.39</ele>
        <time>2021-08-17T06:23:33Z</time>
      </trkpt>
      <trkpt lat="44.60844" lon="1.54429">
        <ele>329.39</ele>
        <time>2021-08-17T06:23:34Z</time>
      </trkpt>
      <trkpt lat="44.60843" lon="1.54428">
        <ele>329.87</ele>
        <time>2021-08-17T06:23:35Z</time>
      </trkpt>
      <trkpt lat="44.60842" lon="1.54427">
        <ele>329.87</ele>
        <time>2021-08-17T06:23:36Z</time>
      </trkpt>
      <trkpt lat="44.60831" lon="1.54419">
        <ele>331.31</ele>
        <time>2021-08-17T06:23:44Z</time>
      </trkpt>
      <trkpt lat="44.60817" lon="1.54406">
        <ele>333.23</ele>
        <time>2021-08-17T06:23:55Z</time>
      </trkpt>
      <trkpt lat="44.60803" lon="1.54392">
        <ele>335.16</ele>
        <time>2021-08-17T06:24:05Z</time>
      </trkpt>
      <trkpt lat="44.60793" lon="1.54381">
        <ele>336.6</ele>
        <time>2021-08-17T06:24:13Z</time>
      </trkpt>
      <trkpt lat="44.60783" lon="1.54362">
        <ele>338.52</ele>
        <time>2021-08-17T06:24:23Z</time>
      </trkpt>
      <trkpt lat="44.60779" lon="1.54342">
        <ele>340.44</ele>
        <time>2021-08-17T06:24:32Z</time>
      </trkpt>
      <trkpt lat="44.60778" lon="1.5432">
        <ele>342.37</ele>
        <time>2021-08-17T06:24:42Z</time>
      </trkpt>
      <trkpt lat="44.60781" lon="1.54294">
        <ele>343.81</ele>
        <time>2021-08-17T06:24:53Z</time>
      </trkpt>
      <trkpt lat="44.60786" lon="1.54266">
        <ele>345.25</ele>
        <time>2021-08-17T06:25:04Z</time>
      </trkpt>
      <trkpt lat="44.60793" lon="1.54245">
        <ele>347.17</ele>
        <time>2021-08-17T06:25:14Z</time>
      </trkpt>
      <trkpt lat="44.60795" lon="1.5424">
        <ele>348.13</ele>
        <time>2021-08-17T06:25:17Z</time>
      </trkpt>
      <trkpt lat="44.60796" lon="1.54238">
        <ele>348.13</ele>
        <time>2021-08-17T06:25:18Z</time>
      </trkpt>
      <trkpt lat="44.60796" lon="1.54236">
        <ele>348.62</ele>
        <time>2021-08-17T06:25:19Z</time>
      </trkpt>
      <trkpt lat="44.60801" lon="1.54214">
        <ele>350.54</ele>
        <time>2021-08-17T06:25:30Z</time>
      </trkpt>
      <trkpt lat="44.60799" lon="1.54193">
        <ele>351.02</ele>
        <time>2021-08-17T06:25:38Z</time>
      </trkpt>
      <trkpt lat="44.6079" lon="1.54161">
        <ele>351.5</ele>
        <time>2021-08-17T06:25:47Z</time>
      </trkpt>
      <trkpt lat="44.60781" lon="1.54133">
        <ele>352.46</ele>
        <time>2021-08-17T06:25:55Z</time>
      </trkpt>
      <trkpt lat="44.60773" lon="1.54111">
        <ele>353.9</ele>
        <time>2021-08-17T06:26:04Z</time>
      </trkpt>
      <trkpt lat="44.60764" lon="1.54093">
        <ele>355.34</ele>
        <time>2021-08-17T06:26:14Z</time>
      </trkpt>
      <trkpt lat="44.60757" lon="1.54077">
        <ele>356.31</ele>
        <time>2021-08-17T06:26:23Z</time>
      </trkpt>
      <trkpt lat="44.60753" lon="1.54069">
        <ele>357.27</ele>
        <time>2021-08-17T06:26:29Z</time>
      </trkpt>
      <trkpt lat="44.60747" lon="1.5405">
        <ele>358.71</ele>
        <time>2021-08-17T06:26:39Z</time>
      </trkpt>
      <trkpt lat="44.60744" lon="1.54038">
        <ele>360.15</ele>
        <time>2021-08-17T06:26:48Z</time>
      </trkpt>
      <trkpt lat="44.60739" lon="1.54023">
        <ele>361.59</ele>
        <time>2021-08-17T06:26:59Z</time>
      </trkpt>
      <trkpt lat="44.60737" lon="1.5401">
        <ele>363.04</ele>
        <time>2021-08-17T06:27:08Z</time>
      </trkpt>
      <trkpt lat="44.60735" lon="1.53993">
        <ele>364.48</ele>
        <time>2021-08-17T06:27:19Z</time>
      </trkpt>
      <trkpt lat="44.60735" lon="1.53974">
        <ele>366.4</ele>
        <time>2021-08-17T06:27:31Z</time>
      </trkpt>
      <trkpt lat="44.60735" lon="1.53963">
        <ele>366.88</ele>
        <time>2021-08-17T06:27:37Z</time>
      </trkpt>
      <trkpt lat="44.60736" lon="1.53961">
        <ele>366.88</ele>
        <time>2021-08-17T06:27:44Z</time>
      </trkpt>
      <trkpt lat="44.60736" lon="1.53958">
        <ele>366.88</ele>
        <time>2021-08-17T06:27:53Z</time>
      </trkpt>
      <trkpt lat="44.60736" lon="1.53956">
        <ele>366.88</ele>
        <time>2021-08-17T06:27:54Z</time>
      </trkpt>
      <trkpt lat="44.60736" lon="1.53953">
        <ele>367.36</ele>
        <time>2021-08-17T06:27:55Z</time>
      </trkpt>
      <trkpt lat="44.60736" lon="1.5395">
        <ele>367.36</ele>
        <time>2021-08-17T06:27:56Z</time>
      </trkpt>
      <trkpt lat="44.60736" lon="1.53948">
        <ele>367.36</ele>
        <time>2021-08-17T06:27:57Z</time>
      </trkpt>
      <trkpt lat="44.60739" lon="1.53926">
        <ele>368.8</ele>
        <time>2021-08-17T06:28:05Z</time>
      </trkpt>
      <trkpt lat="44.60743" lon="1.53907">
        <ele>369.76</ele>
        <time>2021-08-17T06:28:13Z</time>
      </trkpt>
      <trkpt lat="44.60744" lon="1.53883">
        <ele>371.69</ele>
        <time>2021-08-17T06:28:22Z</time>
      </trkpt>
      <trkpt lat="44.60744" lon="1.53841">
        <ele>372.17</ele>
        <time>2021-08-17T06:28:34Z</time>
      </trkpt>
      <trkpt lat="44.60742" lon="1.53816">
        <ele>372.17</ele>
        <time>2021-08-17T06:28:40Z</time>
      </trkpt>
      <trkpt lat="44.6073" lon="1.53788">
        <ele>372.17</ele>
        <time>2021-08-17T06:28:48Z</time>
      </trkpt>
      <trkpt lat="44.60712" lon="1.53763">
        <ele>372.17</ele>
        <time>2021-08-17T06:28:55Z</time>
      </trkpt>
      <trkpt lat="44.60704" lon="1.53748">
        <ele>373.13</ele>
        <time>2021-08-17T06:29:01Z</time>
      </trkpt>
      <trkpt lat="44.60694" lon="1.53736">
        <ele>374.57</ele>
        <time>2021-08-17T06:29:10Z</time>
      </trkpt>
      <trkpt lat="44.60683" lon="1.53722">
        <ele>376.01</ele>
        <time>2021-08-17T06:29:19Z</time>
      </trkpt>
      <trkpt lat="44.60673" lon="1.53713">
        <ele>377.45</ele>
        <time>2021-08-17T06:29:27Z</time>
      </trkpt>
      <trkpt lat="44.60663" lon="1.53705">
        <ele>378.9</ele>
        <time>2021-08-17T06:29:34Z</time>
      </trkpt>
      <trkpt lat="44.60652" lon="1.53692">
        <ele>381.3</ele>
        <time>2021-08-17T06:29:42Z</time>
      </trkpt>
      <trkpt lat="44.60639" lon="1.53676">
        <ele>383.22</ele>
        <time>2021-08-17T06:29:51Z</time>
      </trkpt>
      <trkpt lat="44.60623" lon="1.53657">
        <ele>383.7</ele>
        <time>2021-08-17T06:30:00Z</time>
      </trkpt>
      <trkpt lat="44.60604" lon="1.53636">
        <ele>384.66</ele>
        <time>2021-08-17T06:30:09Z</time>
      </trkpt>
      <trkpt lat="44.60585" lon="1.53619">
        <ele>384.66</ele>
        <time>2021-08-17T06:30:16Z</time>
      </trkpt>
      <trkpt lat="44.6056" lon="1.536">
        <ele>384.66</ele>
        <time>2021-08-17T06:30:24Z</time>
      </trkpt>
      <trkpt lat="44.60539" lon="1.53583">
        <ele>384.66</ele>
        <time>2021-08-17T06:30:30Z</time>
      </trkpt>
      <trkpt lat="44.60511" lon="1.5356">
        <ele>384.66</ele>
        <time>2021-08-17T06:30:38Z</time>
      </trkpt>
      <trkpt lat="44.60489" lon="1.53539">
        <ele>384.66</ele>
        <time>2021-08-17T06:30:44Z</time>
      </trkpt>
      <trkpt lat="44.60463" lon="1.53511">
        <ele>384.66</ele>
        <time>2021-08-17T06:30:51Z</time>
      </trkpt>
      <trkpt lat="44.60431" lon="1.53474">
        <ele>383.7</ele>
        <time>2021-08-17T06:31:00Z</time>
      </trkpt>
      <trkpt lat="44.60423" lon="1.53466">
        <ele>383.7</ele>
        <time>2021-08-17T06:31:02Z</time>
      </trkpt>
      <trkpt lat="44.60419" lon="1.53464">
        <ele>383.7</ele>
        <time>2021-08-17T06:31:03Z</time>
      </trkpt>
      <trkpt lat="44.60415" lon="1.53461">
        <ele>383.22</ele>
        <time>2021-08-17T06:31:04Z</time>
      </trkpt>
      <trkpt lat="44.60382" lon="1.53427">
        <ele>380.34</ele>
        <time>2021-08-17T06:31:11Z</time>
      </trkpt>
      <trkpt lat="44.60351" lon="1.53392">
        <ele>380.34</ele>
        <time>2021-08-17T06:31:18Z</time>
      </trkpt>
      <trkpt lat="44.60327" lon="1.5337">
        <ele>379.86</ele>
        <time>2021-08-17T06:31:24Z</time>
      </trkpt>
      <trkpt lat="44.60309" lon="1.53352">
        <ele>379.86</ele>
        <time>2021-08-17T06:31:28Z</time>
      </trkpt>
      <trkpt lat="44.60273" lon="1.53312">
        <ele>378.42</ele>
        <time>2021-08-17T06:31:36Z</time>
      </trkpt>
      <trkpt lat="44.60257" lon="1.53294">
        <ele>378.9</ele>
        <time>2021-08-17T06:31:40Z</time>
      </trkpt>
      <trkpt lat="44.60228" lon="1.53251">
        <ele>377.45</ele>
        <time>2021-08-17T06:31:48Z</time>
      </trkpt>
      <trkpt lat="44.60197" lon="1.53204">
        <ele>375.05</ele>
        <time>2021-08-17T06:31:55Z</time>
      </trkpt>
      <trkpt lat="44.60171" lon="1.53163">
        <ele>375.05</ele>
        <time>2021-08-17T06:32:01Z</time>
      </trkpt>
      <trkpt lat="44.60166" lon="1.53157">
        <ele>375.05</ele>
        <time>2021-08-17T06:32:02Z</time>
      </trkpt>
      <trkpt lat="44.60146" lon="1.53133">
        <ele>375.05</ele>
        <time>2021-08-17T06:32:07Z</time>
      </trkpt>
      <trkpt lat="44.60118" lon="1.53089">
        <ele>375.05</ele>
        <time>2021-08-17T06:32:15Z</time>
      </trkpt>
      <trkpt lat="44.60115" lon="1.53085">
        <ele>376.49</ele>
        <time>2021-08-17T06:32:16Z</time>
      </trkpt>
      <trkpt lat="44.60112" lon="1.5308">
        <ele>376.97</ele>
        <time>2021-08-17T06:32:17Z</time>
      </trkpt>
      <trkpt lat="44.60093" lon="1.53054">
        <ele>377.94</ele>
        <time>2021-08-17T06:32:24Z</time>
      </trkpt>
      <trkpt lat="44.60072" lon="1.53029">
        <ele>379.86</ele>
        <time>2021-08-17T06:32:33Z</time>
      </trkpt>
      <trkpt lat="44.60056" lon="1.53009">
        <ele>382.26</ele>
        <time>2021-08-17T06:32:43Z</time>
      </trkpt>
      <trkpt lat="44.60042" lon="1.5299">
        <ele>383.7</ele>
        <time>2021-08-17T06:32:51Z</time>
      </trkpt>
      <trkpt lat="44.60021" lon="1.52964">
        <ele>384.66</ele>
        <time>2021-08-17T06:33:02Z</time>
      </trkpt>
      <trkpt lat="44.6002" lon="1.52962">
        <ele>384.18</ele>
        <time>2021-08-17T06:33:06Z</time>
      </trkpt>
      <trkpt lat="44.60017" lon="1.5296">
        <ele>384.66</ele>
        <time>2021-08-17T06:33:18Z</time>
      </trkpt>
      <trkpt lat="44.60015" lon="1.52955">
        <ele>384.66</ele>
        <time>2021-08-17T06:33:26Z</time>
      </trkpt>
      <trkpt lat="44.60013" lon="1.52953">
        <ele>384.66</ele>
        <time>2021-08-17T06:33:34Z</time>
      </trkpt>
      <trkpt lat="44.60013" lon="1.52954">
        <ele>384.66</ele>
        <time>2021-08-17T06:33:43Z</time>
      </trkpt>
      <trkpt lat="44.60013" lon="1.52955">
        <ele>384.66</ele>
        <time>2021-08-17T06:34:11Z</time>
      </trkpt>
      <trkpt lat="44.60013" lon="1.52956">
        <ele>384.66</ele>
        <time>2021-08-17T06:34:34Z</time>
      </trkpt>
      <trkpt lat="44.60013" lon="1.52955">
        <ele>384.66</ele>
        <time>2021-08-17T06:34:51Z</time>
      </trkpt>
      <trkpt lat="44.60013" lon="1.52958">
        <ele>384.66</ele>
        <time>2021-08-17T06:35:14Z</time>
      </trkpt>
      <trkpt lat="44.60014" lon="1.52956">
        <ele>384.66</ele>
        <time>2021-08-17T06:35:32Z</time>
      </trkpt>
      <trkpt lat="44.60014" lon="1.52955">
        <ele>384.66</ele>
        <time>2021-08-17T06:35:51Z</time>
      </trkpt>
      <trkpt lat="44.60014" lon="1.52956">
        <ele>384.66</ele>
        <time>2021-08-17T06:36:06Z</time>
      </trkpt>
      <trkpt lat="44.60014" lon="1.52956">
        <ele>385.15</ele>
        <time>2021-08-17T06:36:23Z</time>
      </trkpt>
      <trkpt lat="44.60014" lon="1.52955">
        <ele>385.15</ele>
        <time>2021-08-17T06:36:33Z</time>
      </trkpt>
      <trkpt lat="44.60013" lon="1.52954">
        <ele>385.15</ele>
        <time>2021-08-17T06:36:50Z</time>
      </trkpt>
      <trkpt lat="44.60011" lon="1.52952">
        <ele>385.15</ele>
        <time>2021-08-17T06:36:55Z</time>
      </trkpt>
      <trkpt lat="44.6001" lon="1.52951">
        <ele>385.15</ele>
        <time>2021-08-17T06:36:56Z</time>
      </trkpt>
      <trkpt lat="44.60009" lon="1.5295">
        <ele>385.15</ele>
        <time>2021-08-17T06:36:57Z</time>
      </trkpt>
      <trkpt lat="44.60008" lon="1.52948">
        <ele>385.15</ele>
        <time>2021-08-17T06:36:58Z</time>
      </trkpt>
      <trkpt lat="44.60006" lon="1.52946">
        <ele>385.15</ele>
        <time>2021-08-17T06:36:59Z</time>
      </trkpt>
      <trkpt lat="44.60004" lon="1.52944">
        <ele>385.15</ele>
        <time>2021-08-17T06:37:00Z</time>
      </trkpt>
      <trkpt lat="44.60003" lon="1.52941">
        <ele>385.15</ele>
        <time>2021-08-17T06:37:01Z</time>
      </trkpt>
      <trkpt lat="44.60001" lon="1.52939">
        <ele>385.15</ele>
        <time>2021-08-17T06:37:02Z</time>
      </trkpt>
      <trkpt lat="44.59982" lon="1.52916">
        <ele>385.15</ele>
        <time>2021-08-17T06:37:09Z</time>
      </trkpt>
      <trkpt lat="44.59966" lon="1.52894">
        <ele>383.7</ele>
        <time>2021-08-17T06:37:14Z</time>
      </trkpt>
      <trkpt lat="44.59932" lon="1.52861">
        <ele>382.74</ele>
        <time>2021-08-17T06:37:22Z</time>
      </trkpt>
      <trkpt lat="44.59928" lon="1.52856">
        <ele>381.78</ele>
        <time>2021-08-17T06:37:23Z</time>
      </trkpt>
      <trkpt lat="44.59918" lon="1.52845">
        <ele>380.82</ele>
        <time>2021-08-17T06:37:25Z</time>
      </trkpt>
      <trkpt lat="44.59914" lon="1.5284">
        <ele>380.34</ele>
        <time>2021-08-17T06:37:26Z</time>
      </trkpt>
      <trkpt lat="44.5991" lon="1.52834">
        <ele>379.86</ele>
        <time>2021-08-17T06:37:27Z</time>
      </trkpt>
      <trkpt lat="44.59902" lon="1.52822">
        <ele>379.86</ele>
        <time>2021-08-17T06:37:29Z</time>
      </trkpt>
      <trkpt lat="44.59896" lon="1.52811">
        <ele>378.9</ele>
        <time>2021-08-17T06:37:31Z</time>
      </trkpt>
      <trkpt lat="44.59893" lon="1.52806">
        <ele>378.9</ele>
        <time>2021-08-17T06:37:32Z</time>
      </trkpt>
      <trkpt lat="44.59887" lon="1.52797">
        <ele>377.94</ele>
        <time>2021-08-17T06:37:34Z</time>
      </trkpt>
      <trkpt lat="44.59862" lon="1.52757">
        <ele>375.05</ele>
        <time>2021-08-17T06:37:40Z</time>
      </trkpt>
      <trkpt lat="44.59816" lon="1.52693">
        <ele>373.13</ele>
        <time>2021-08-17T06:37:49Z</time>
      </trkpt>
      <trkpt lat="44.59778" lon="1.52647">
        <ele>374.57</ele>
        <time>2021-08-17T06:37:57Z</time>
      </trkpt>
      <trkpt lat="44.59761" lon="1.52624">
        <ele>376.01</ele>
        <time>2021-08-17T06:38:03Z</time>
      </trkpt>
      <trkpt lat="44.59748" lon="1.52606">
        <ele>376.97</ele>
        <time>2021-08-17T06:38:09Z</time>
      </trkpt>
      <trkpt lat="44.59731" lon="1.52586">
        <ele>378.42</ele>
        <time>2021-08-17T06:38:18Z</time>
      </trkpt>
      <trkpt lat="44.59716" lon="1.52564">
        <ele>379.38</ele>
        <time>2021-08-17T06:38:26Z</time>
      </trkpt>
      <trkpt lat="44.59706" lon="1.52547">
        <ele>379.86</ele>
        <time>2021-08-17T06:38:32Z</time>
      </trkpt>
      <trkpt lat="44.59693" lon="1.5253">
        <ele>379.86</ele>
        <time>2021-08-17T06:38:38Z</time>
      </trkpt>
      <trkpt lat="44.59678" lon="1.52516">
        <ele>380.82</ele>
        <time>2021-08-17T06:38:45Z</time>
      </trkpt>
      <trkpt lat="44.59667" lon="1.5251">
        <ele>381.78</ele>
        <time>2021-08-17T06:38:51Z</time>
      </trkpt>
      <trkpt lat="44.59653" lon="1.52504">
        <ele>382.74</ele>
        <time>2021-08-17T06:38:59Z</time>
      </trkpt>
      <trkpt lat="44.59639" lon="1.525">
        <ele>384.66</ele>
        <time>2021-08-17T06:39:08Z</time>
      </trkpt>
      <trkpt lat="44.59631" lon="1.52499">
        <ele>385.15</ele>
        <time>2021-08-17T06:39:13Z</time>
      </trkpt>
      <trkpt lat="44.5963" lon="1.52499">
        <ele>385.63</ele>
        <time>2021-08-17T06:39:14Z</time>
      </trkpt>
      <trkpt lat="44.59615" lon="1.52497">
        <ele>388.03</ele>
        <time>2021-08-17T06:39:25Z</time>
      </trkpt>
      <trkpt lat="44.59606" lon="1.52495">
        <ele>388.99</ele>
        <time>2021-08-17T06:39:31Z</time>
      </trkpt>
      <trkpt lat="44.59605" lon="1.52495">
        <ele>388.99</ele>
        <time>2021-08-17T06:39:32Z</time>
      </trkpt>
      <trkpt lat="44.59603" lon="1.52495">
        <ele>389.47</ele>
        <time>2021-08-17T06:39:33Z</time>
      </trkpt>
      <trkpt lat="44.59595" lon="1.52492">
        <ele>390.43</ele>
        <time>2021-08-17T06:39:41Z</time>
      </trkpt>
      <trkpt lat="44.59585" lon="1.52486">
        <ele>392.36</ele>
        <time>2021-08-17T06:39:50Z</time>
      </trkpt>
      <trkpt lat="44.59582" lon="1.52487">
        <ele>392.36</ele>
        <time>2021-08-17T06:39:58Z</time>
      </trkpt>
      <trkpt lat="44.59578" lon="1.52483">
        <ele>393.32</ele>
        <time>2021-08-17T06:40:10Z</time>
      </trkpt>
      <trkpt lat="44.59567" lon="1.52472">
        <ele>394.76</ele>
        <time>2021-08-17T06:40:21Z</time>
      </trkpt>
      <trkpt lat="44.59556" lon="1.52463">
        <ele>396.2</ele>
        <time>2021-08-17T06:40:31Z</time>
      </trkpt>
      <trkpt lat="44.59546" lon="1.52455">
        <ele>398.12</ele>
        <time>2021-08-17T06:40:41Z</time>
      </trkpt>
      <trkpt lat="44.59538" lon="1.52448">
        <ele>399.57</ele>
        <time>2021-08-17T06:40:50Z</time>
      </trkpt>
      <trkpt lat="44.59529" lon="1.52443">
        <ele>401.49</ele>
        <time>2021-08-17T06:40:58Z</time>
      </trkpt>
      <trkpt lat="44.59526" lon="1.52443">
        <ele>401.49</ele>
        <time>2021-08-17T06:41:04Z</time>
      </trkpt>
      <trkpt lat="44.59522" lon="1.52442">
        <ele>401.49</ele>
        <time>2021-08-17T06:41:09Z</time>
      </trkpt>
      <trkpt lat="44.59521" lon="1.52442">
        <ele>401.97</ele>
        <time>2021-08-17T06:41:10Z</time>
      </trkpt>
      <trkpt lat="44.59519" lon="1.52442">
        <ele>401.97</ele>
        <time>2021-08-17T06:41:11Z</time>
      </trkpt>
      <trkpt lat="44.59518" lon="1.52441">
        <ele>402.45</ele>
        <time>2021-08-17T06:41:12Z</time>
      </trkpt>
      <trkpt lat="44.59517" lon="1.5244">
        <ele>402.45</ele>
        <time>2021-08-17T06:41:13Z</time>
      </trkpt>
      <trkpt lat="44.59505" lon="1.52434">
        <ele>403.89</ele>
        <time>2021-08-17T06:41:21Z</time>
      </trkpt>
      <trkpt lat="44.59493" lon="1.52424">
        <ele>404.85</ele>
        <time>2021-08-17T06:41:29Z</time>
      </trkpt>
      <trkpt lat="44.59477" lon="1.52404">
        <ele>405.81</ele>
        <time>2021-08-17T06:41:37Z</time>
      </trkpt>
      <trkpt lat="44.59469" lon="1.52384">
        <ele>405.81</ele>
        <time>2021-08-17T06:41:43Z</time>
      </trkpt>
      <trkpt lat="44.5945" lon="1.52352">
        <ele>406.29</ele>
        <time>2021-08-17T06:41:52Z</time>
      </trkpt>
      <trkpt lat="44.59425" lon="1.5233">
        <ele>406.77</ele>
        <time>2021-08-17T06:42:00Z</time>
      </trkpt>
      <trkpt lat="44.59397" lon="1.52337">
        <ele>406.77</ele>
        <time>2021-08-17T06:42:08Z</time>
      </trkpt>
      <trkpt lat="44.59364" lon="1.52348">
        <ele>408.22</ele>
        <time>2021-08-17T06:42:18Z</time>
      </trkpt>
      <trkpt lat="44.5934" lon="1.52361">
        <ele>409.66</ele>
        <time>2021-08-17T06:42:26Z</time>
      </trkpt>
      <trkpt lat="44.59322" lon="1.52371">
        <ele>411.1</ele>
        <time>2021-08-17T06:42:33Z</time>
      </trkpt>
      <trkpt lat="44.59297" lon="1.52385">
        <ele>411.1</ele>
        <time>2021-08-17T06:42:41Z</time>
      </trkpt>
      <trkpt lat="44.59264" lon="1.52423">
        <ele>410.14</ele>
        <time>2021-08-17T06:42:50Z</time>
      </trkpt>
      <trkpt lat="44.59223" lon="1.52461">
        <ele>410.14</ele>
        <time>2021-08-17T06:43:00Z</time>
      </trkpt>
      <trkpt lat="44.59215" lon="1.52466">
        <ele>411.58</ele>
        <time>2021-08-17T06:43:02Z</time>
      </trkpt>
      <trkpt lat="44.59174" lon="1.52492">
        <ele>413.5</ele>
        <time>2021-08-17T06:43:13Z</time>
      </trkpt>
      <trkpt lat="44.59137" lon="1.52512">
        <ele>415.43</ele>
        <time>2021-08-17T06:43:23Z</time>
      </trkpt>
      <trkpt lat="44.59111" lon="1.52523">
        <ele>416.39</ele>
        <time>2021-08-17T06:43:31Z</time>
      </trkpt>
      <trkpt lat="44.59078" lon="1.52532">
        <ele>418.79</ele>
        <time>2021-08-17T06:43:41Z</time>
      </trkpt>
      <trkpt lat="44.5905" lon="1.52539">
        <ele>419.75</ele>
        <time>2021-08-17T06:43:50Z</time>
      </trkpt>
      <trkpt lat="44.59014" lon="1.52547">
        <ele>419.27</ele>
        <time>2021-08-17T06:43:59Z</time>
      </trkpt>
      <trkpt lat="44.59009" lon="1.52548">
        <ele>419.27</ele>
        <time>2021-08-17T06:44:00Z</time>
      </trkpt>
      <trkpt lat="44.59004" lon="1.52549">
        <ele>419.27</ele>
        <time>2021-08-17T06:44:01Z</time>
      </trkpt>
      <trkpt lat="44.58999" lon="1.5255">
        <ele>417.83</ele>
        <time>2021-08-17T06:44:02Z</time>
      </trkpt>
      <trkpt lat="44.58994" lon="1.52551">
        <ele>417.83</ele>
        <time>2021-08-17T06:44:03Z</time>
      </trkpt>
      <trkpt lat="44.58949" lon="1.52566">
        <ele>414.95</ele>
        <time>2021-08-17T06:44:10Z</time>
      </trkpt>
      <trkpt lat="44.58929" lon="1.52579">
        <ele>413.98</ele>
        <time>2021-08-17T06:44:13Z</time>
      </trkpt>
      <trkpt lat="44.58922" lon="1.52585">
        <ele>413.98</ele>
        <time>2021-08-17T06:44:14Z</time>
      </trkpt>
      <trkpt lat="44.58917" lon="1.52592">
        <ele>413.98</ele>
        <time>2021-08-17T06:44:15Z</time>
      </trkpt>
      <trkpt lat="44.58902" lon="1.52615">
        <ele>413.5</ele>
        <time>2021-08-17T06:44:18Z</time>
      </trkpt>
      <trkpt lat="44.58897" lon="1.5262">
        <ele>413.5</ele>
        <time>2021-08-17T06:44:19Z</time>
      </trkpt>
      <trkpt lat="44.58868" lon="1.52654">
        <ele>410.62</ele>
        <time>2021-08-17T06:44:25Z</time>
      </trkpt>
      <trkpt lat="44.58849" lon="1.52676">
        <ele>407.26</ele>
        <time>2021-08-17T06:44:28Z</time>
      </trkpt>
      <trkpt lat="44.58836" lon="1.52692">
        <ele>405.81</ele>
        <time>2021-08-17T06:44:30Z</time>
      </trkpt>
      <trkpt lat="44.58829" lon="1.52699">
        <ele>405.81</ele>
        <time>2021-08-17T06:44:31Z</time>
      </trkpt>
      <trkpt lat="44.58821" lon="1.52703">
        <ele>405.33</ele>
        <time>2021-08-17T06:44:32Z</time>
      </trkpt>
      <trkpt lat="44.58813" lon="1.52706">
        <ele>404.85</ele>
        <time>2021-08-17T06:44:33Z</time>
      </trkpt>
      <trkpt lat="44.58806" lon="1.52708">
        <ele>404.37</ele>
        <time>2021-08-17T06:44:34Z</time>
      </trkpt>
      <trkpt lat="44.58798" lon="1.52708">
        <ele>404.85</ele>
        <time>2021-08-17T06:44:35Z</time>
      </trkpt>
      <trkpt lat="44.58791" lon="1.52708">
        <ele>404.37</ele>
        <time>2021-08-17T06:44:36Z</time>
      </trkpt>
      <trkpt lat="44.58748" lon="1.52708">
        <ele>404.37</ele>
        <time>2021-08-17T06:44:43Z</time>
      </trkpt>
      <trkpt lat="44.58743" lon="1.5271">
        <ele>404.37</ele>
        <time>2021-08-17T06:44:44Z</time>
      </trkpt>
      <trkpt lat="44.58733" lon="1.52713">
        <ele>404.85</ele>
        <time>2021-08-17T06:44:46Z</time>
      </trkpt>
      <trkpt lat="44.58729" lon="1.52715">
        <ele>404.85</ele>
        <time>2021-08-17T06:44:47Z</time>
      </trkpt>
      <trkpt lat="44.58724" lon="1.52717">
        <ele>404.85</ele>
        <time>2021-08-17T06:44:48Z</time>
      </trkpt>
      <trkpt lat="44.5872" lon="1.52719">
        <ele>404.85</ele>
        <time>2021-08-17T06:44:49Z</time>
      </trkpt>
      <trkpt lat="44.58717" lon="1.52721">
        <ele>404.85</ele>
        <time>2021-08-17T06:44:50Z</time>
      </trkpt>
      <trkpt lat="44.587" lon="1.52737">
        <ele>403.89</ele>
        <time>2021-08-17T06:44:55Z</time>
      </trkpt>
      <trkpt lat="44.58695" lon="1.5274">
        <ele>403.89</ele>
        <time>2021-08-17T06:44:56Z</time>
      </trkpt>
      <trkpt lat="44.5869" lon="1.5274">
        <ele>403.89</ele>
        <time>2021-08-17T06:44:57Z</time>
      </trkpt>
      <trkpt lat="44.58686" lon="1.5274">
        <ele>403.89</ele>
        <time>2021-08-17T06:44:58Z</time>
      </trkpt>
      <trkpt lat="44.58683" lon="1.5274">
        <ele>403.89</ele>
        <time>2021-08-17T06:44:59Z</time>
      </trkpt>
      <trkpt lat="44.5868" lon="1.52739">
        <ele>404.85</ele>
        <time>2021-08-17T06:45:00Z</time>
      </trkpt>
      <trkpt lat="44.58677" lon="1.52738">
        <ele>404.85</ele>
        <time>2021-08-17T06:45:01Z</time>
      </trkpt>
      <trkpt lat="44.58654" lon="1.52734">
        <ele>405.33</ele>
        <time>2021-08-17T06:45:08Z</time>
      </trkpt>
      <trkpt lat="44.58621" lon="1.52728">
        <ele>406.29</ele>
        <time>2021-08-17T06:45:17Z</time>
      </trkpt>
      <trkpt lat="44.58602" lon="1.5273">
        <ele>406.29</ele>
        <time>2021-08-17T06:45:22Z</time>
      </trkpt>
      <trkpt lat="44.58594" lon="1.52734">
        <ele>404.85</ele>
        <time>2021-08-17T06:45:24Z</time>
      </trkpt>
      <trkpt lat="44.58555" lon="1.52756">
        <ele>403.89</ele>
        <time>2021-08-17T06:45:32Z</time>
      </trkpt>
      <trkpt lat="44.58539" lon="1.52768">
        <ele>403.89</ele>
        <time>2021-08-17T06:45:37Z</time>
      </trkpt>
      <trkpt lat="44.5852" lon="1.52784">
        <ele>401.01</ele>
        <time>2021-08-17T06:45:41Z</time>
      </trkpt>
      <trkpt lat="44.58506" lon="1.52803">
        <ele>398.6</ele>
        <time>2021-08-17T06:45:44Z</time>
      </trkpt>
      <trkpt lat="44.58486" lon="1.52825">
        <ele>396.2</ele>
        <time>2021-08-17T06:45:48Z</time>
      </trkpt>
      <trkpt lat="44.58471" lon="1.52841">
        <ele>394.28</ele>
        <time>2021-08-17T06:45:51Z</time>
      </trkpt>
      <trkpt lat="44.58466" lon="1.52845">
        <ele>393.8</ele>
        <time>2021-08-17T06:45:52Z</time>
      </trkpt>
      <trkpt lat="44.58448" lon="1.52857">
        <ele>392.84</ele>
        <time>2021-08-17T06:45:55Z</time>
      </trkpt>
      <trkpt lat="44.58413" lon="1.52877">
        <ele>388.99</ele>
        <time>2021-08-17T06:46:00Z</time>
      </trkpt>
      <trkpt lat="44.58405" lon="1.52881">
        <ele>389.47</ele>
        <time>2021-08-17T06:46:01Z</time>
      </trkpt>
      <trkpt lat="44.58399" lon="1.52885">
        <ele>389.47</ele>
        <time>2021-08-17T06:46:02Z</time>
      </trkpt>
      <trkpt lat="44.58393" lon="1.52891">
        <ele>388.51</ele>
        <time>2021-08-17T06:46:03Z</time>
      </trkpt>
      <trkpt lat="44.58388" lon="1.52896">
        <ele>388.51</ele>
        <time>2021-08-17T06:46:04Z</time>
      </trkpt>
      <trkpt lat="44.58362" lon="1.52932">
        <ele>387.55</ele>
        <time>2021-08-17T06:46:11Z</time>
      </trkpt>
      <trkpt lat="44.58339" lon="1.52954">
        <ele>387.07</ele>
        <time>2021-08-17T06:46:18Z</time>
      </trkpt>
      <trkpt lat="44.58324" lon="1.52966">
        <ele>386.59</ele>
        <time>2021-08-17T06:46:23Z</time>
      </trkpt>
      <trkpt lat="44.58301" lon="1.52979">
        <ele>386.59</ele>
        <time>2021-08-17T06:46:30Z</time>
      </trkpt>
      <trkpt lat="44.58276" lon="1.52993">
        <ele>386.59</ele>
        <time>2021-08-17T06:46:37Z</time>
      </trkpt>
      <trkpt lat="44.58271" lon="1.52995">
        <ele>386.59</ele>
        <time>2021-08-17T06:46:38Z</time>
      </trkpt>
      <trkpt lat="44.58237" lon="1.53007">
        <ele>386.59</ele>
        <time>2021-08-17T06:46:46Z</time>
      </trkpt>
      <trkpt lat="44.58205" lon="1.53019">
        <ele>386.11</ele>
        <time>2021-08-17T06:46:53Z</time>
      </trkpt>
      <trkpt lat="44.58177" lon="1.53026">
        <ele>387.07</ele>
        <time>2021-08-17T06:47:00Z</time>
      </trkpt>
      <trkpt lat="44.58155" lon="1.53036">
        <ele>388.03</ele>
        <time>2021-08-17T06:47:07Z</time>
      </trkpt>
      <trkpt lat="44.58132" lon="1.53051">
        <ele>387.07</ele>
        <time>2021-08-17T06:47:12Z</time>
      </trkpt>
      <trkpt lat="44.58123" lon="1.53058">
        <ele>386.11</ele>
        <time>2021-08-17T06:47:14Z</time>
      </trkpt>
      <trkpt lat="44.58095" lon="1.53071">
        <ele>384.18</ele>
        <time>2021-08-17T06:47:19Z</time>
      </trkpt>
      <trkpt lat="44.5809" lon="1.53075">
        <ele>383.22</ele>
        <time>2021-08-17T06:47:20Z</time>
      </trkpt>
      <trkpt lat="44.58084" lon="1.5308">
        <ele>383.22</ele>
        <time>2021-08-17T06:47:21Z</time>
      </trkpt>
      <trkpt lat="44.5805" lon="1.53118">
        <ele>381.78</ele>
        <time>2021-08-17T06:47:28Z</time>
      </trkpt>
      <trkpt lat="44.58009" lon="1.53171">
        <ele>380.34</ele>
        <time>2021-08-17T06:47:37Z</time>
      </trkpt>
      <trkpt lat="44.57986" lon="1.53194">
        <ele>378.9</ele>
        <time>2021-08-17T06:47:41Z</time>
      </trkpt>
      <trkpt lat="44.57973" lon="1.53201">
        <ele>378.42</ele>
        <time>2021-08-17T06:47:43Z</time>
      </trkpt>
      <trkpt lat="44.57966" lon="1.53202">
        <ele>378.42</ele>
        <time>2021-08-17T06:47:44Z</time>
      </trkpt>
      <trkpt lat="44.57922" lon="1.53204">
        <ele>377.45</ele>
        <time>2021-08-17T06:47:51Z</time>
      </trkpt>
      <trkpt lat="44.57917" lon="1.53207">
        <ele>377.45</ele>
        <time>2021-08-17T06:47:52Z</time>
      </trkpt>
      <trkpt lat="44.57911" lon="1.53211">
        <ele>376.97</ele>
        <time>2021-08-17T06:47:53Z</time>
      </trkpt>
      <trkpt lat="44.57906" lon="1.53216">
        <ele>376.97</ele>
        <time>2021-08-17T06:47:54Z</time>
      </trkpt>
      <trkpt lat="44.57902" lon="1.53221">
        <ele>376.49</ele>
        <time>2021-08-17T06:47:55Z</time>
      </trkpt>
      <trkpt lat="44.57897" lon="1.53226">
        <ele>376.49</ele>
        <time>2021-08-17T06:47:56Z</time>
      </trkpt>
      <trkpt lat="44.57878" lon="1.53249">
        <ele>376.01</ele>
        <time>2021-08-17T06:48:00Z</time>
      </trkpt>
      <trkpt lat="44.57874" lon="1.53254">
        <ele>375.05</ele>
        <time>2021-08-17T06:48:01Z</time>
      </trkpt>
      <trkpt lat="44.57843" lon="1.53283">
        <ele>373.13</ele>
        <time>2021-08-17T06:48:06Z</time>
      </trkpt>
      <trkpt lat="44.57802" lon="1.5333">
        <ele>369.76</ele>
        <time>2021-08-17T06:48:13Z</time>
      </trkpt>
      <trkpt lat="44.57791" lon="1.53343">
        <ele>368.8</ele>
        <time>2021-08-17T06:48:15Z</time>
      </trkpt>
      <trkpt lat="44.57734" lon="1.53388">
        <ele>367.84</ele>
        <time>2021-08-17T06:48:25Z</time>
      </trkpt>
      <trkpt lat="44.57722" lon="1.53394">
        <ele>368.32</ele>
        <time>2021-08-17T06:48:27Z</time>
      </trkpt>
      <trkpt lat="44.57715" lon="1.53396">
        <ele>368.32</ele>
        <time>2021-08-17T06:48:28Z</time>
      </trkpt>
      <trkpt lat="44.57709" lon="1.53397">
        <ele>368.32</ele>
        <time>2021-08-17T06:48:29Z</time>
      </trkpt>
      <trkpt lat="44.57703" lon="1.53397">
        <ele>368.32</ele>
        <time>2021-08-17T06:48:30Z</time>
      </trkpt>
      <trkpt lat="44.57697" lon="1.53396">
        <ele>368.32</ele>
        <time>2021-08-17T06:48:31Z</time>
      </trkpt>
      <trkpt lat="44.57691" lon="1.53395">
        <ele>368.32</ele>
        <time>2021-08-17T06:48:32Z</time>
      </trkpt>
      <trkpt lat="44.57686" lon="1.53392">
        <ele>368.32</ele>
        <time>2021-08-17T06:48:33Z</time>
      </trkpt>
      <trkpt lat="44.57637" lon="1.53355">
        <ele>368.32</ele>
        <time>2021-08-17T06:48:43Z</time>
      </trkpt>
      <trkpt lat="44.57605" lon="1.53316">
        <ele>369.28</ele>
        <time>2021-08-17T06:48:51Z</time>
      </trkpt>
      <trkpt lat="44.57583" lon="1.5329">
        <ele>371.21</ele>
        <time>2021-08-17T06:48:58Z</time>
      </trkpt>
      <trkpt lat="44.57565" lon="1.53279">
        <ele>372.65</ele>
        <time>2021-08-17T06:49:06Z</time>
      </trkpt>
      <trkpt lat="44.57547" lon="1.53275">
        <ele>374.09</ele>
        <time>2021-08-17T06:49:15Z</time>
      </trkpt>
      <trkpt lat="44.57531" lon="1.53277">
        <ele>375.53</ele>
        <time>2021-08-17T06:49:23Z</time>
      </trkpt>
      <trkpt lat="44.57501" lon="1.53278">
        <ele>377.94</ele>
        <time>2021-08-17T06:49:36Z</time>
      </trkpt>
      <trkpt lat="44.57476" lon="1.53279">
        <ele>378.42</ele>
        <time>2021-08-17T06:49:46Z</time>
      </trkpt>
      <trkpt lat="44.57454" lon="1.53278">
        <ele>378.9</ele>
        <time>2021-08-17T06:49:53Z</time>
      </trkpt>
      <trkpt lat="44.5742" lon="1.53272">
        <ele>378.9</ele>
        <time>2021-08-17T06:50:02Z</time>
      </trkpt>
      <trkpt lat="44.57377" lon="1.53259">
        <ele>378.9</ele>
        <time>2021-08-17T06:50:12Z</time>
      </trkpt>
      <trkpt lat="44.57338" lon="1.5325">
        <ele>376.49</ele>
        <time>2021-08-17T06:50:19Z</time>
      </trkpt>
      <trkpt lat="44.57301" lon="1.5324">
        <ele>372.65</ele>
        <time>2021-08-17T06:50:24Z</time>
      </trkpt>
      <trkpt lat="44.57258" lon="1.53217">
        <ele>368.8</ele>
        <time>2021-08-17T06:50:29Z</time>
      </trkpt>
      <trkpt lat="44.57217" lon="1.53203">
        <ele>364.96</ele>
        <time>2021-08-17T06:50:33Z</time>
      </trkpt>
      <trkpt lat="44.57206" lon="1.53203">
        <ele>364.48</ele>
        <time>2021-08-17T06:50:34Z</time>
      </trkpt>
      <trkpt lat="44.57195" lon="1.53203">
        <ele>363.52</ele>
        <time>2021-08-17T06:50:35Z</time>
      </trkpt>
      <trkpt lat="44.57183" lon="1.53205">
        <ele>362.55</ele>
        <time>2021-08-17T06:50:36Z</time>
      </trkpt>
      <trkpt lat="44.57161" lon="1.53212">
        <ele>361.11</ele>
        <time>2021-08-17T06:50:38Z</time>
      </trkpt>
      <trkpt lat="44.57138" lon="1.53215">
        <ele>359.67</ele>
        <time>2021-08-17T06:50:40Z</time>
      </trkpt>
      <trkpt lat="44.57126" lon="1.53215">
        <ele>359.67</ele>
        <time>2021-08-17T06:50:41Z</time>
      </trkpt>
      <trkpt lat="44.57078" lon="1.53206">
        <ele>362.07</ele>
        <time>2021-08-17T06:50:46Z</time>
      </trkpt>
      <trkpt lat="44.57043" lon="1.53207">
        <ele>364.96</ele>
        <time>2021-08-17T06:50:51Z</time>
      </trkpt>
      <trkpt lat="44.57037" lon="1.53208">
        <ele>365.44</ele>
        <time>2021-08-17T06:50:52Z</time>
      </trkpt>
      <trkpt lat="44.57015" lon="1.5321">
        <ele>367.84</ele>
        <time>2021-08-17T06:50:58Z</time>
      </trkpt>
      <trkpt lat="44.56991" lon="1.5321">
        <ele>369.28</ele>
        <time>2021-08-17T06:51:07Z</time>
      </trkpt>
      <trkpt lat="44.56973" lon="1.53208">
        <ele>370.24</ele>
        <time>2021-08-17T06:51:14Z</time>
      </trkpt>
      <trkpt lat="44.56949" lon="1.53205">
        <ele>372.17</ele>
        <time>2021-08-17T06:51:24Z</time>
      </trkpt>
      <trkpt lat="44.5693" lon="1.53204">
        <ele>373.61</ele>
        <time>2021-08-17T06:51:31Z</time>
      </trkpt>
      <trkpt lat="44.56906" lon="1.53202">
        <ele>375.05</ele>
        <time>2021-08-17T06:51:40Z</time>
      </trkpt>
      <trkpt lat="44.56885" lon="1.53205">
        <ele>376.49</ele>
        <time>2021-08-17T06:51:49Z</time>
      </trkpt>
      <trkpt lat="44.56878" lon="1.53205">
        <ele>376.97</ele>
        <time>2021-08-17T06:51:52Z</time>
      </trkpt>
      <trkpt lat="44.56877" lon="1.53203">
        <ele>377.45</ele>
        <time>2021-08-17T06:51:53Z</time>
      </trkpt>
      <trkpt lat="44.56875" lon="1.53201">
        <ele>376.97</ele>
        <time>2021-08-17T06:51:54Z</time>
      </trkpt>
      <trkpt lat="44.56874" lon="1.53198">
        <ele>376.97</ele>
        <time>2021-08-17T06:51:55Z</time>
      </trkpt>
      <trkpt lat="44.56875" lon="1.53196">
        <ele>377.45</ele>
        <time>2021-08-17T06:51:56Z</time>
      </trkpt>
      <trkpt lat="44.56875" lon="1.53192">
        <ele>376.97</ele>
        <time>2021-08-17T06:51:57Z</time>
      </trkpt>
      <trkpt lat="44.56878" lon="1.53165">
        <ele>375.53</ele>
        <time>2021-08-17T06:52:02Z</time>
      </trkpt>
      <trkpt lat="44.56885" lon="1.53116">
        <ele>372.65</ele>
        <time>2021-08-17T06:52:08Z</time>
      </trkpt>
      <trkpt lat="44.56892" lon="1.53088">
        <ele>371.21</ele>
        <time>2021-08-17T06:52:11Z</time>
      </trkpt>
      <trkpt lat="44.56895" lon="1.53078">
        <ele>370.73</ele>
        <time>2021-08-17T06:52:12Z</time>
      </trkpt>
      <trkpt lat="44.56899" lon="1.53069">
        <ele>369.76</ele>
        <time>2021-08-17T06:52:13Z</time>
      </trkpt>
      <trkpt lat="44.56927" lon="1.53023">
        <ele>366.4</ele>
        <time>2021-08-17T06:52:18Z</time>
      </trkpt>
      <trkpt lat="44.56958" lon="1.52975">
        <ele>362.55</ele>
        <time>2021-08-17T06:52:23Z</time>
      </trkpt>
      <trkpt lat="44.56965" lon="1.52968">
        <ele>362.07</ele>
        <time>2021-08-17T06:52:24Z</time>
      </trkpt>
      <trkpt lat="44.56973" lon="1.5296">
        <ele>362.07</ele>
        <time>2021-08-17T06:52:25Z</time>
      </trkpt>
      <trkpt lat="44.57017" lon="1.52915">
        <ele>358.23</ele>
        <time>2021-08-17T06:52:31Z</time>
      </trkpt>
      <trkpt lat="44.57023" lon="1.52904">
        <ele>357.27</ele>
        <time>2021-08-17T06:52:32Z</time>
      </trkpt>
      <trkpt lat="44.57029" lon="1.52893">
        <ele>356.79</ele>
        <time>2021-08-17T06:52:33Z</time>
      </trkpt>
      <trkpt lat="44.57034" lon="1.52881">
        <ele>355.83</ele>
        <time>2021-08-17T06:52:34Z</time>
      </trkpt>
      <trkpt lat="44.57039" lon="1.52869">
        <ele>354.86</ele>
        <time>2021-08-17T06:52:35Z</time>
      </trkpt>
      <trkpt lat="44.57058" lon="1.52815">
        <ele>351.02</ele>
        <time>2021-08-17T06:52:39Z</time>
      </trkpt>
      <trkpt lat="44.57068" lon="1.52787">
        <ele>350.06</ele>
        <time>2021-08-17T06:52:41Z</time>
      </trkpt>
      <trkpt lat="44.57087" lon="1.52727">
        <ele>346.21</ele>
        <time>2021-08-17T06:52:45Z</time>
      </trkpt>
      <trkpt lat="44.57096" lon="1.52678">
        <ele>343.33</ele>
        <time>2021-08-17T06:52:48Z</time>
      </trkpt>
      <trkpt lat="44.57104" lon="1.52636">
        <ele>340.44</ele>
        <time>2021-08-17T06:52:51Z</time>
      </trkpt>
      <trkpt lat="44.57109" lon="1.52624">
        <ele>340.44</ele>
        <time>2021-08-17T06:52:52Z</time>
      </trkpt>
      <trkpt lat="44.57115" lon="1.52614">
        <ele>339.48</ele>
        <time>2021-08-17T06:52:53Z</time>
      </trkpt>
      <trkpt lat="44.57124" lon="1.52603">
        <ele>338.52</ele>
        <time>2021-08-17T06:52:54Z</time>
      </trkpt>
      <trkpt lat="44.57131" lon="1.52596">
        <ele>337.56</ele>
        <time>2021-08-17T06:52:55Z</time>
      </trkpt>
      <trkpt lat="44.57139" lon="1.52589">
        <ele>337.08</ele>
        <time>2021-08-17T06:52:56Z</time>
      </trkpt>
      <trkpt lat="44.57149" lon="1.52581">
        <ele>336.12</ele>
        <time>2021-08-17T06:52:57Z</time>
      </trkpt>
      <trkpt lat="44.57186" lon="1.52556">
        <ele>332.27</ele>
        <time>2021-08-17T06:53:01Z</time>
      </trkpt>
      <trkpt lat="44.57206" lon="1.52542">
        <ele>331.31</ele>
        <time>2021-08-17T06:53:03Z</time>
      </trkpt>
      <trkpt lat="44.57235" lon="1.52516">
        <ele>327.95</ele>
        <time>2021-08-17T06:53:06Z</time>
      </trkpt>
      <trkpt lat="44.57272" lon="1.52479">
        <ele>324.1</ele>
        <time>2021-08-17T06:53:10Z</time>
      </trkpt>
      <trkpt lat="44.57281" lon="1.52473">
        <ele>323.14</ele>
        <time>2021-08-17T06:53:11Z</time>
      </trkpt>
      <trkpt lat="44.57291" lon="1.52469">
        <ele>322.66</ele>
        <time>2021-08-17T06:53:12Z</time>
      </trkpt>
      <trkpt lat="44.573" lon="1.52467">
        <ele>322.18</ele>
        <time>2021-08-17T06:53:13Z</time>
      </trkpt>
      <trkpt lat="44.5731" lon="1.52468">
        <ele>321.7</ele>
        <time>2021-08-17T06:53:14Z</time>
      </trkpt>
      <trkpt lat="44.57319" lon="1.5247">
        <ele>321.22</ele>
        <time>2021-08-17T06:53:15Z</time>
      </trkpt>
      <trkpt lat="44.57328" lon="1.52474">
        <ele>321.22</ele>
        <time>2021-08-17T06:53:16Z</time>
      </trkpt>
      <trkpt lat="44.57337" lon="1.52479">
        <ele>320.26</ele>
        <time>2021-08-17T06:53:17Z</time>
      </trkpt>
      <trkpt lat="44.57346" lon="1.52485">
        <ele>319.3</ele>
        <time>2021-08-17T06:53:18Z</time>
      </trkpt>
      <trkpt lat="44.57355" lon="1.52492">
        <ele>318.33</ele>
        <time>2021-08-17T06:53:19Z</time>
      </trkpt>
      <trkpt lat="44.57362" lon="1.525">
        <ele>317.85</ele>
        <time>2021-08-17T06:53:20Z</time>
      </trkpt>
      <trkpt lat="44.57368" lon="1.52509">
        <ele>316.89</ele>
        <time>2021-08-17T06:53:21Z</time>
      </trkpt>
      <trkpt lat="44.57371" lon="1.5252">
        <ele>316.41</ele>
        <time>2021-08-17T06:53:22Z</time>
      </trkpt>
      <trkpt lat="44.57373" lon="1.52532">
        <ele>315.45</ele>
        <time>2021-08-17T06:53:23Z</time>
      </trkpt>
      <trkpt lat="44.57373" lon="1.52545">
        <ele>314.97</ele>
        <time>2021-08-17T06:53:24Z</time>
      </trkpt>
      <trkpt lat="44.57373" lon="1.52559">
        <ele>314.01</ele>
        <time>2021-08-17T06:53:25Z</time>
      </trkpt>
      <trkpt lat="44.57372" lon="1.52572">
        <ele>313.53</ele>
        <time>2021-08-17T06:53:26Z</time>
      </trkpt>
      <trkpt lat="44.57371" lon="1.52629">
        <ele>310.16</ele>
        <time>2021-08-17T06:53:30Z</time>
      </trkpt>
      <trkpt lat="44.57374" lon="1.52686">
        <ele>307.76</ele>
        <time>2021-08-17T06:53:34Z</time>
      </trkpt>
      <trkpt lat="44.57376" lon="1.52698">
        <ele>306.8</ele>
        <time>2021-08-17T06:53:35Z</time>
      </trkpt>
      <trkpt lat="44.57379" lon="1.52709">
        <ele>305.84</ele>
        <time>2021-08-17T06:53:36Z</time>
      </trkpt>
      <trkpt lat="44.57384" lon="1.52717">
        <ele>305.36</ele>
        <time>2021-08-17T06:53:37Z</time>
      </trkpt>
      <trkpt lat="44.57391" lon="1.52723">
        <ele>304.88</ele>
        <time>2021-08-17T06:53:38Z</time>
      </trkpt>
      <trkpt lat="44.57398" lon="1.52728">
        <ele>304.88</ele>
        <time>2021-08-17T06:53:39Z</time>
      </trkpt>
      <trkpt lat="44.57405" lon="1.52732">
        <ele>303.91</ele>
        <time>2021-08-17T06:53:40Z</time>
      </trkpt>
      <trkpt lat="44.57412" lon="1.52734">
        <ele>303.43</ele>
        <time>2021-08-17T06:53:41Z</time>
      </trkpt>
      <trkpt lat="44.57419" lon="1.52733">
        <ele>302.47</ele>
        <time>2021-08-17T06:53:42Z</time>
      </trkpt>
      <trkpt lat="44.57426" lon="1.5273">
        <ele>301.99</ele>
        <time>2021-08-17T06:53:43Z</time>
      </trkpt>
      <trkpt lat="44.57431" lon="1.52724">
        <ele>301.03</ele>
        <time>2021-08-17T06:53:44Z</time>
      </trkpt>
      <trkpt lat="44.57434" lon="1.52715">
        <ele>300.55</ele>
        <time>2021-08-17T06:53:45Z</time>
      </trkpt>
      <trkpt lat="44.57434" lon="1.52705">
        <ele>299.59</ele>
        <time>2021-08-17T06:53:46Z</time>
      </trkpt>
      <trkpt lat="44.57434" lon="1.52695">
        <ele>300.07</ele>
        <time>2021-08-17T06:53:47Z</time>
      </trkpt>
      <trkpt lat="44.57433" lon="1.52684">
        <ele>298.63</ele>
        <time>2021-08-17T06:53:48Z</time>
      </trkpt>
      <trkpt lat="44.5743" lon="1.52648">
        <ele>296.22</ele>
        <time>2021-08-17T06:53:51Z</time>
      </trkpt>
      <trkpt lat="44.57431" lon="1.52634">
        <ele>294.78</ele>
        <time>2021-08-17T06:53:52Z</time>
      </trkpt>
      <trkpt lat="44.57432" lon="1.52621">
        <ele>293.82</ele>
        <time>2021-08-17T06:53:53Z</time>
      </trkpt>
      <trkpt lat="44.57436" lon="1.52594">
        <ele>290.94</ele>
        <time>2021-08-17T06:53:55Z</time>
      </trkpt>
      <trkpt lat="44.57439" lon="1.52582">
        <ele>289.97</ele>
        <time>2021-08-17T06:53:56Z</time>
      </trkpt>
      <trkpt lat="44.57442" lon="1.52572">
        <ele>288.53</ele>
        <time>2021-08-17T06:53:57Z</time>
      </trkpt>
      <trkpt lat="44.57449" lon="1.52553">
        <ele>287.09</ele>
        <time>2021-08-17T06:53:59Z</time>
      </trkpt>
      <trkpt lat="44.5745" lon="1.52544">
        <ele>286.61</ele>
        <time>2021-08-17T06:54:00Z</time>
      </trkpt>
      <trkpt lat="44.5745" lon="1.52534">
        <ele>285.17</ele>
        <time>2021-08-17T06:54:01Z</time>
      </trkpt>
      <trkpt lat="44.57447" lon="1.52524">
        <ele>284.21</ele>
        <time>2021-08-17T06:54:02Z</time>
      </trkpt>
      <trkpt lat="44.57445" lon="1.52515">
        <ele>282.77</ele>
        <time>2021-08-17T06:54:03Z</time>
      </trkpt>
      <trkpt lat="44.57442" lon="1.52504">
        <ele>281.8</ele>
        <time>2021-08-17T06:54:04Z</time>
      </trkpt>
      <trkpt lat="44.57442" lon="1.52494">
        <ele>281.32</ele>
        <time>2021-08-17T06:54:05Z</time>
      </trkpt>
      <trkpt lat="44.57443" lon="1.52483">
        <ele>281.32</ele>
        <time>2021-08-17T06:54:06Z</time>
      </trkpt>
      <trkpt lat="44.57447" lon="1.52461">
        <ele>279.4</ele>
        <time>2021-08-17T06:54:08Z</time>
      </trkpt>
      <trkpt lat="44.57447" lon="1.52453">
        <ele>279.4</ele>
        <time>2021-08-17T06:54:09Z</time>
      </trkpt>
      <trkpt lat="44.57444" lon="1.52444">
        <ele>278.92</ele>
        <time>2021-08-17T06:54:10Z</time>
      </trkpt>
      <trkpt lat="44.57439" lon="1.52436">
        <ele>278.44</ele>
        <time>2021-08-17T06:54:11Z</time>
      </trkpt>
      <trkpt lat="44.57433" lon="1.52429">
        <ele>277.48</ele>
        <time>2021-08-17T06:54:12Z</time>
      </trkpt>
      <trkpt lat="44.57399" lon="1.52395">
        <ele>274.11</ele>
        <time>2021-08-17T06:54:17Z</time>
      </trkpt>
      <trkpt lat="44.57393" lon="1.52388">
        <ele>273.15</ele>
        <time>2021-08-17T06:54:18Z</time>
      </trkpt>
      <trkpt lat="44.57355" lon="1.52344">
        <ele>270.27</ele>
        <time>2021-08-17T06:54:23Z</time>
      </trkpt>
      <trkpt lat="44.57304" lon="1.52301">
        <ele>267.38</ele>
        <time>2021-08-17T06:54:29Z</time>
      </trkpt>
      <trkpt lat="44.57286" lon="1.52292">
        <ele>266.42</ele>
        <time>2021-08-17T06:54:31Z</time>
      </trkpt>
      <trkpt lat="44.57274" lon="1.52288">
        <ele>265.94</ele>
        <time>2021-08-17T06:54:32Z</time>
      </trkpt>
      <trkpt lat="44.57267" lon="1.52287">
        <ele>265.46</ele>
        <time>2021-08-17T06:54:33Z</time>
      </trkpt>
      <trkpt lat="44.57256" lon="1.52288">
        <ele>265.46</ele>
        <time>2021-08-17T06:54:34Z</time>
      </trkpt>
      <trkpt lat="44.57248" lon="1.5229">
        <ele>264.98</ele>
        <time>2021-08-17T06:54:35Z</time>
      </trkpt>
      <trkpt lat="44.57237" lon="1.52293">
        <ele>264.98</ele>
        <time>2021-08-17T06:54:36Z</time>
      </trkpt>
      <trkpt lat="44.57186" lon="1.52306">
        <ele>264.02</ele>
        <time>2021-08-17T06:54:42Z</time>
      </trkpt>
      <trkpt lat="44.57181" lon="1.52309">
        <ele>264.02</ele>
        <time>2021-08-17T06:54:43Z</time>
      </trkpt>
      <trkpt lat="44.57175" lon="1.52314">
        <ele>264.98</ele>
        <time>2021-08-17T06:54:44Z</time>
      </trkpt>
      <trkpt lat="44.57142" lon="1.52352">
        <ele>265.46</ele>
        <time>2021-08-17T06:54:51Z</time>
      </trkpt>
      <trkpt lat="44.57126" lon="1.52364">
        <ele>265.46</ele>
        <time>2021-08-17T06:54:54Z</time>
      </trkpt>
      <trkpt lat="44.57121" lon="1.52367">
        <ele>265.46</ele>
        <time>2021-08-17T06:54:55Z</time>
      </trkpt>
      <trkpt lat="44.5711" lon="1.52372">
        <ele>265.46</ele>
        <time>2021-08-17T06:54:57Z</time>
      </trkpt>
      <trkpt lat="44.57104" lon="1.52374">
        <ele>265.46</ele>
        <time>2021-08-17T06:54:58Z</time>
      </trkpt>
      <trkpt lat="44.57098" lon="1.52375">
        <ele>265.46</ele>
        <time>2021-08-17T06:54:59Z</time>
      </trkpt>
      <trkpt lat="44.57046" lon="1.52382">
        <ele>264.02</ele>
        <time>2021-08-17T06:55:08Z</time>
      </trkpt>
      <trkpt lat="44.57019" lon="1.52383">
        <ele>263.06</ele>
        <time>2021-08-17T06:55:12Z</time>
      </trkpt>
      <trkpt lat="44.56998" lon="1.52379">
        <ele>262.1</ele>
        <time>2021-08-17T06:55:15Z</time>
      </trkpt>
      <trkpt lat="44.5699" lon="1.52377">
        <ele>261.62</ele>
        <time>2021-08-17T06:55:16Z</time>
      </trkpt>
      <trkpt lat="44.56983" lon="1.52374">
        <ele>261.62</ele>
        <time>2021-08-17T06:55:17Z</time>
      </trkpt>
      <trkpt lat="44.56976" lon="1.52372">
        <ele>261.14</ele>
        <time>2021-08-17T06:55:18Z</time>
      </trkpt>
      <trkpt lat="44.56968" lon="1.52371">
        <ele>261.14</ele>
        <time>2021-08-17T06:55:19Z</time>
      </trkpt>
      <trkpt lat="44.56962" lon="1.52371">
        <ele>260.65</ele>
        <time>2021-08-17T06:55:20Z</time>
      </trkpt>
      <trkpt lat="44.56954" lon="1.52371">
        <ele>260.17</ele>
        <time>2021-08-17T06:55:21Z</time>
      </trkpt>
      <trkpt lat="44.56947" lon="1.52372">
        <ele>259.69</ele>
        <time>2021-08-17T06:55:22Z</time>
      </trkpt>
      <trkpt lat="44.56896" lon="1.52371">
        <ele>258.73</ele>
        <time>2021-08-17T06:55:29Z</time>
      </trkpt>
      <trkpt lat="44.5689" lon="1.52373">
        <ele>258.73</ele>
        <time>2021-08-17T06:55:30Z</time>
      </trkpt>
      <trkpt lat="44.56886" lon="1.52374">
        <ele>258.73</ele>
        <time>2021-08-17T06:55:31Z</time>
      </trkpt>
      <trkpt lat="44.56873" lon="1.52378">
        <ele>257.77</ele>
        <time>2021-08-17T06:55:33Z</time>
      </trkpt>
      <trkpt lat="44.56867" lon="1.52379">
        <ele>256.81</ele>
        <time>2021-08-17T06:55:34Z</time>
      </trkpt>
      <trkpt lat="44.56854" lon="1.52383">
        <ele>256.33</ele>
        <time>2021-08-17T06:55:36Z</time>
      </trkpt>
      <trkpt lat="44.56827" lon="1.52392">
        <ele>254.89</ele>
        <time>2021-08-17T06:55:40Z</time>
      </trkpt>
      <trkpt lat="44.5682" lon="1.52393">
        <ele>254.41</ele>
        <time>2021-08-17T06:55:41Z</time>
      </trkpt>
      <trkpt lat="44.56813" lon="1.52393">
        <ele>254.89</ele>
        <time>2021-08-17T06:55:42Z</time>
      </trkpt>
      <trkpt lat="44.5677" lon="1.52396">
        <ele>252.96</ele>
        <time>2021-08-17T06:55:49Z</time>
      </trkpt>
      <trkpt lat="44.56764" lon="1.52397">
        <ele>253.44</ele>
        <time>2021-08-17T06:55:50Z</time>
      </trkpt>
      <trkpt lat="44.56758" lon="1.52398">
        <ele>252.48</ele>
        <time>2021-08-17T06:55:51Z</time>
      </trkpt>
      <trkpt lat="44.56738" lon="1.52398">
        <ele>252</ele>
        <time>2021-08-17T06:55:54Z</time>
      </trkpt>
      <trkpt lat="44.56732" lon="1.52397">
        <ele>252</ele>
        <time>2021-08-17T06:55:55Z</time>
      </trkpt>
      <trkpt lat="44.56726" lon="1.52396">
        <ele>252</ele>
        <time>2021-08-17T06:55:56Z</time>
      </trkpt>
      <trkpt lat="44.56721" lon="1.52396">
        <ele>252</ele>
        <time>2021-08-17T06:55:57Z</time>
      </trkpt>
      <trkpt lat="44.56716" lon="1.52396">
        <ele>252</ele>
        <time>2021-08-17T06:55:58Z</time>
      </trkpt>
      <trkpt lat="44.56711" lon="1.52397">
        <ele>252</ele>
        <time>2021-08-17T06:55:59Z</time>
      </trkpt>
      <trkpt lat="44.56678" lon="1.52405">
        <ele>252</ele>
        <time>2021-08-17T06:56:06Z</time>
      </trkpt>
      <trkpt lat="44.56641" lon="1.52405">
        <ele>250.56</ele>
        <time>2021-08-17T06:56:12Z</time>
      </trkpt>
      <trkpt lat="44.56632" lon="1.52403">
        <ele>250.56</ele>
        <time>2021-08-17T06:56:14Z</time>
      </trkpt>
      <trkpt lat="44.56627" lon="1.52403">
        <ele>250.56</ele>
        <time>2021-08-17T06:56:15Z</time>
      </trkpt>
      <trkpt lat="44.56622" lon="1.52402">
        <ele>250.56</ele>
        <time>2021-08-17T06:56:16Z</time>
      </trkpt>
      <trkpt lat="44.56618" lon="1.52401">
        <ele>250.56</ele>
        <time>2021-08-17T06:56:17Z</time>
      </trkpt>
      <trkpt lat="44.56613" lon="1.524">
        <ele>250.56</ele>
        <time>2021-08-17T06:56:18Z</time>
      </trkpt>
      <trkpt lat="44.56568" lon="1.52395">
        <ele>250.56</ele>
        <time>2021-08-17T06:56:28Z</time>
      </trkpt>
      <trkpt lat="44.56547" lon="1.52394">
        <ele>249.6</ele>
        <time>2021-08-17T06:56:32Z</time>
      </trkpt>
      <trkpt lat="44.56541" lon="1.52392">
        <ele>249.6</ele>
        <time>2021-08-17T06:56:33Z</time>
      </trkpt>
      <trkpt lat="44.565" lon="1.52378">
        <ele>249.6</ele>
        <time>2021-08-17T06:56:41Z</time>
      </trkpt>
      <trkpt lat="44.56467" lon="1.52368">
        <ele>249.12</ele>
        <time>2021-08-17T06:56:47Z</time>
      </trkpt>
      <trkpt lat="44.56436" lon="1.52362">
        <ele>248.64</ele>
        <time>2021-08-17T06:56:53Z</time>
      </trkpt>
      <trkpt lat="44.56413" lon="1.52362">
        <ele>248.64</ele>
        <time>2021-08-17T06:56:59Z</time>
      </trkpt>
      <trkpt lat="44.56378" lon="1.52361">
        <ele>247.2</ele>
        <time>2021-08-17T06:57:07Z</time>
      </trkpt>
      <trkpt lat="44.56372" lon="1.52362">
        <ele>246.72</ele>
        <time>2021-08-17T06:57:08Z</time>
      </trkpt>
      <trkpt lat="44.56366" lon="1.52363">
        <ele>246.23</ele>
        <time>2021-08-17T06:57:09Z</time>
      </trkpt>
      <trkpt lat="44.5632" lon="1.52374">
        <ele>245.75</ele>
        <time>2021-08-17T06:57:17Z</time>
      </trkpt>
      <trkpt lat="44.56315" lon="1.52375">
        <ele>245.75</ele>
        <time>2021-08-17T06:57:18Z</time>
      </trkpt>
      <trkpt lat="44.56291" lon="1.52379">
        <ele>245.27</ele>
        <time>2021-08-17T06:57:24Z</time>
      </trkpt>
      <trkpt lat="44.5626" lon="1.52384">
        <ele>243.83</ele>
        <time>2021-08-17T06:57:30Z</time>
      </trkpt>
      <trkpt lat="44.56236" lon="1.52387">
        <ele>241.91</ele>
        <time>2021-08-17T06:57:34Z</time>
      </trkpt>
      <trkpt lat="44.56197" lon="1.52384">
        <ele>241.43</ele>
        <time>2021-08-17T06:57:41Z</time>
      </trkpt>
      <trkpt lat="44.56157" lon="1.52374">
        <ele>239.99</ele>
        <time>2021-08-17T06:57:48Z</time>
      </trkpt>
      <trkpt lat="44.56123" lon="1.52369">
        <ele>241.43</ele>
        <time>2021-08-17T06:57:54Z</time>
      </trkpt>
      <trkpt lat="44.561" lon="1.52365">
        <ele>238.54</ele>
        <time>2021-08-17T06:57:58Z</time>
      </trkpt>
      <trkpt lat="44.56093" lon="1.52363">
        <ele>238.54</ele>
        <time>2021-08-17T06:57:59Z</time>
      </trkpt>
      <trkpt lat="44.56066" lon="1.52355">
        <ele>239.99</ele>
        <time>2021-08-17T06:58:04Z</time>
      </trkpt>
      <trkpt lat="44.56062" lon="1.52355">
        <ele>239.99</ele>
        <time>2021-08-17T06:58:05Z</time>
      </trkpt>
      <trkpt lat="44.56035" lon="1.52355">
        <ele>238.06</ele>
        <time>2021-08-17T06:58:11Z</time>
      </trkpt>
      <trkpt lat="44.56029" lon="1.52357">
        <ele>237.1</ele>
        <time>2021-08-17T06:58:12Z</time>
      </trkpt>
      <trkpt lat="44.56023" lon="1.5236">
        <ele>237.1</ele>
        <time>2021-08-17T06:58:13Z</time>
      </trkpt>
      <trkpt lat="44.56016" lon="1.52364">
        <ele>237.1</ele>
        <time>2021-08-17T06:58:14Z</time>
      </trkpt>
      <trkpt lat="44.56011" lon="1.52371">
        <ele>236.62</ele>
        <time>2021-08-17T06:58:15Z</time>
      </trkpt>
      <trkpt lat="44.56006" lon="1.52377">
        <ele>236.62</ele>
        <time>2021-08-17T06:58:16Z</time>
      </trkpt>
      <trkpt lat="44.55994" lon="1.52389">
        <ele>235.66</ele>
        <time>2021-08-17T06:58:18Z</time>
      </trkpt>
      <trkpt lat="44.55988" lon="1.52394">
        <ele>235.18</ele>
        <time>2021-08-17T06:58:19Z</time>
      </trkpt>
      <trkpt lat="44.55983" lon="1.52399">
        <ele>235.18</ele>
        <time>2021-08-17T06:58:20Z</time>
      </trkpt>
      <trkpt lat="44.55978" lon="1.52401">
        <ele>234.7</ele>
        <time>2021-08-17T06:58:21Z</time>
      </trkpt>
      <trkpt lat="44.55974" lon="1.52402">
        <ele>234.7</ele>
        <time>2021-08-17T06:58:22Z</time>
      </trkpt>
      <trkpt lat="44.5597" lon="1.52401">
        <ele>234.7</ele>
        <time>2021-08-17T06:58:23Z</time>
      </trkpt>
      <trkpt lat="44.55967" lon="1.524">
        <ele>234.7</ele>
        <time>2021-08-17T06:58:24Z</time>
      </trkpt>
      <trkpt lat="44.5596" lon="1.52396">
        <ele>234.7</ele>
        <time>2021-08-17T06:58:29Z</time>
      </trkpt>
      <trkpt lat="44.55957" lon="1.52395">
        <ele>236.14</ele>
        <time>2021-08-17T06:58:34Z</time>
      </trkpt>
      <trkpt lat="44.55957" lon="1.52396">
        <ele>236.14</ele>
        <time>2021-08-17T06:58:36Z</time>
      </trkpt>
      <trkpt lat="44.55961" lon="1.52399">
        <ele>236.14</ele>
        <time>2021-08-17T06:58:39Z</time>
      </trkpt>
      <trkpt lat="44.55963" lon="1.52399">
        <ele>236.14</ele>
        <time>2021-08-17T06:58:40Z</time>
      </trkpt>
      <trkpt lat="44.55965" lon="1.524">
        <ele>236.14</ele>
        <time>2021-08-17T06:58:41Z</time>
      </trkpt>
      <trkpt lat="44.55967" lon="1.52401">
        <ele>236.14</ele>
        <time>2021-08-17T06:58:42Z</time>
      </trkpt>
      <trkpt lat="44.55968" lon="1.52404">
        <ele>236.14</ele>
        <time>2021-08-17T06:58:43Z</time>
      </trkpt>
      <trkpt lat="44.55968" lon="1.52407">
        <ele>234.7</ele>
        <time>2021-08-17T06:58:44Z</time>
      </trkpt>
      <trkpt lat="44.55967" lon="1.5241">
        <ele>234.7</ele>
        <time>2021-08-17T06:58:45Z</time>
      </trkpt>
      <trkpt lat="44.55965" lon="1.52412">
        <ele>234.7</ele>
        <time>2021-08-17T06:58:46Z</time>
      </trkpt>
      <trkpt lat="44.55964" lon="1.52415">
        <ele>234.7</ele>
        <time>2021-08-17T06:58:47Z</time>
      </trkpt>
      <trkpt lat="44.55963" lon="1.52419">
        <ele>234.7</ele>
        <time>2021-08-17T06:58:48Z</time>
      </trkpt>
      <trkpt lat="44.55962" lon="1.52422">
        <ele>234.7</ele>
        <time>2021-08-17T06:58:49Z</time>
      </trkpt>
      <trkpt lat="44.55961" lon="1.52424">
        <ele>234.7</ele>
        <time>2021-08-17T06:58:50Z</time>
      </trkpt>
      <trkpt lat="44.55959" lon="1.52425">
        <ele>235.66</ele>
        <time>2021-08-17T06:58:51Z</time>
      </trkpt>
      <trkpt lat="44.55957" lon="1.52426">
        <ele>235.66</ele>
        <time>2021-08-17T06:58:52Z</time>
      </trkpt>
      <trkpt lat="44.55955" lon="1.52426">
        <ele>235.66</ele>
        <time>2021-08-17T06:58:53Z</time>
      </trkpt>
      <trkpt lat="44.55942" lon="1.52432">
        <ele>236.62</ele>
        <time>2021-08-17T06:58:58Z</time>
      </trkpt>
      <trkpt lat="44.55931" lon="1.52439">
        <ele>236.62</ele>
        <time>2021-08-17T06:59:01Z</time>
      </trkpt>
      <trkpt lat="44.55922" lon="1.52442">
        <ele>234.7</ele>
        <time>2021-08-17T06:59:03Z</time>
      </trkpt>
      <trkpt lat="44.55917" lon="1.52442">
        <ele>234.22</ele>
        <time>2021-08-17T06:59:04Z</time>
      </trkpt>
      <trkpt lat="44.55912" lon="1.52443">
        <ele>234.22</ele>
        <time>2021-08-17T06:59:05Z</time>
      </trkpt>
      <trkpt lat="44.55907" lon="1.52442">
        <ele>234.22</ele>
        <time>2021-08-17T06:59:06Z</time>
      </trkpt>
      <trkpt lat="44.55902" lon="1.52441">
        <ele>233.74</ele>
        <time>2021-08-17T06:59:07Z</time>
      </trkpt>
      <trkpt lat="44.55897" lon="1.52439">
        <ele>233.74</ele>
        <time>2021-08-17T06:59:08Z</time>
      </trkpt>
      <trkpt lat="44.55892" lon="1.52437">
        <ele>233.74</ele>
        <time>2021-08-17T06:59:09Z</time>
      </trkpt>
      <trkpt lat="44.55865" lon="1.52418">
        <ele>234.7</ele>
        <time>2021-08-17T06:59:16Z</time>
      </trkpt>
      <trkpt lat="44.55861" lon="1.52415">
        <ele>234.7</ele>
        <time>2021-08-17T06:59:17Z</time>
      </trkpt>
      <trkpt lat="44.55851" lon="1.52409">
        <ele>232.78</ele>
        <time>2021-08-17T06:59:19Z</time>
      </trkpt>
      <trkpt lat="44.55846" lon="1.52405">
        <ele>232.3</ele>
        <time>2021-08-17T06:59:20Z</time>
      </trkpt>
      <trkpt lat="44.55841" lon="1.524">
        <ele>231.33</ele>
        <time>2021-08-17T06:59:21Z</time>
      </trkpt>
      <trkpt lat="44.55836" lon="1.52394">
        <ele>231.33</ele>
        <time>2021-08-17T06:59:22Z</time>
      </trkpt>
      <trkpt lat="44.55831" lon="1.52387">
        <ele>230.85</ele>
        <time>2021-08-17T06:59:23Z</time>
      </trkpt>
      <trkpt lat="44.55827" lon="1.52379">
        <ele>230.37</ele>
        <time>2021-08-17T06:59:24Z</time>
      </trkpt>
      <trkpt lat="44.55823" lon="1.52372">
        <ele>230.37</ele>
        <time>2021-08-17T06:59:25Z</time>
      </trkpt>
      <trkpt lat="44.55796" lon="1.52324">
        <ele>228.93</ele>
        <time>2021-08-17T06:59:31Z</time>
      </trkpt>
      <trkpt lat="44.55789" lon="1.52307">
        <ele>228.93</ele>
        <time>2021-08-17T06:59:33Z</time>
      </trkpt>
      <trkpt lat="44.55782" lon="1.52278">
        <ele>228.45</ele>
        <time>2021-08-17T06:59:36Z</time>
      </trkpt>
      <trkpt lat="44.55781" lon="1.52269">
        <ele>228.45</ele>
        <time>2021-08-17T06:59:37Z</time>
      </trkpt>
      <trkpt lat="44.5578" lon="1.5226">
        <ele>228.45</ele>
        <time>2021-08-17T06:59:38Z</time>
      </trkpt>
      <trkpt lat="44.5578" lon="1.52252">
        <ele>228.45</ele>
        <time>2021-08-17T06:59:39Z</time>
      </trkpt>
      <trkpt lat="44.55778" lon="1.52244">
        <ele>228.45</ele>
        <time>2021-08-17T06:59:40Z</time>
      </trkpt>
      <trkpt lat="44.55776" lon="1.52239">
        <ele>228.45</ele>
        <time>2021-08-17T06:59:41Z</time>
      </trkpt>
      <trkpt lat="44.55773" lon="1.52235">
        <ele>229.41</ele>
        <time>2021-08-17T06:59:42Z</time>
      </trkpt>
      <trkpt lat="44.5577" lon="1.52231">
        <ele>229.89</ele>
        <time>2021-08-17T06:59:43Z</time>
      </trkpt>
      <trkpt lat="44.55755" lon="1.52214">
        <ele>229.89</ele>
        <time>2021-08-17T06:59:47Z</time>
      </trkpt>
      <trkpt lat="44.55737" lon="1.52198">
        <ele>228.45</ele>
        <time>2021-08-17T06:59:51Z</time>
      </trkpt>
      <trkpt lat="44.55725" lon="1.52192">
        <ele>227.49</ele>
        <time>2021-08-17T06:59:53Z</time>
      </trkpt>
      <trkpt lat="44.55711" lon="1.52187">
        <ele>227.01</ele>
        <time>2021-08-17T06:59:55Z</time>
      </trkpt>
      <trkpt lat="44.55657" lon="1.52174">
        <ele>226.05</ele>
        <time>2021-08-17T07:00:04Z</time>
      </trkpt>
      <trkpt lat="44.55646" lon="1.52172">
        <ele>226.05</ele>
        <time>2021-08-17T07:00:06Z</time>
      </trkpt>
      <trkpt lat="44.5561" lon="1.52164">
        <ele>225.09</ele>
        <time>2021-08-17T07:00:13Z</time>
      </trkpt>
      <trkpt lat="44.55574" lon="1.52149">
        <ele>224.12</ele>
        <time>2021-08-17T07:00:20Z</time>
      </trkpt>
      <trkpt lat="44.55568" lon="1.52148">
        <ele>224.12</ele>
        <time>2021-08-17T07:00:21Z</time>
      </trkpt>
      <trkpt lat="44.55561" lon="1.52148">
        <ele>224.12</ele>
        <time>2021-08-17T07:00:22Z</time>
      </trkpt>
      <trkpt lat="44.55555" lon="1.52149">
        <ele>224.12</ele>
        <time>2021-08-17T07:00:23Z</time>
      </trkpt>
      <trkpt lat="44.55549" lon="1.5215">
        <ele>224.12</ele>
        <time>2021-08-17T07:00:24Z</time>
      </trkpt>
      <trkpt lat="44.55543" lon="1.52153">
        <ele>223.64</ele>
        <time>2021-08-17T07:00:25Z</time>
      </trkpt>
      <trkpt lat="44.55537" lon="1.52156">
        <ele>223.64</ele>
        <time>2021-08-17T07:00:26Z</time>
      </trkpt>
      <trkpt lat="44.55531" lon="1.5216">
        <ele>223.64</ele>
        <time>2021-08-17T07:00:27Z</time>
      </trkpt>
      <trkpt lat="44.55494" lon="1.52191">
        <ele>223.16</ele>
        <time>2021-08-17T07:00:34Z</time>
      </trkpt>
      <trkpt lat="44.55461" lon="1.52224">
        <ele>222.2</ele>
        <time>2021-08-17T07:00:41Z</time>
      </trkpt>
      <trkpt lat="44.55421" lon="1.52252">
        <ele>221.24</ele>
        <time>2021-08-17T07:00:48Z</time>
      </trkpt>
      <trkpt lat="44.55379" lon="1.52272">
        <ele>220.76</ele>
        <time>2021-08-17T07:00:55Z</time>
      </trkpt>
      <trkpt lat="44.55368" lon="1.52276">
        <ele>220.76</ele>
        <time>2021-08-17T07:00:57Z</time>
      </trkpt>
      <trkpt lat="44.55363" lon="1.52277">
        <ele>220.76</ele>
        <time>2021-08-17T07:00:58Z</time>
      </trkpt>
      <trkpt lat="44.55326" lon="1.52292">
        <ele>218.84</ele>
        <time>2021-08-17T07:01:04Z</time>
      </trkpt>
      <trkpt lat="44.55298" lon="1.52303">
        <ele>217.88</ele>
        <time>2021-08-17T07:01:08Z</time>
      </trkpt>
      <trkpt lat="44.55291" lon="1.52307">
        <ele>217.88</ele>
        <time>2021-08-17T07:01:09Z</time>
      </trkpt>
      <trkpt lat="44.55249" lon="1.52333">
        <ele>217.4</ele>
        <time>2021-08-17T07:01:16Z</time>
      </trkpt>
      <trkpt lat="44.55243" lon="1.52335">
        <ele>217.4</ele>
        <time>2021-08-17T07:01:17Z</time>
      </trkpt>
      <trkpt lat="44.55236" lon="1.52336">
        <ele>216.91</ele>
        <time>2021-08-17T07:01:18Z</time>
      </trkpt>
      <trkpt lat="44.55212" lon="1.52339">
        <ele>216.91</ele>
        <time>2021-08-17T07:01:22Z</time>
      </trkpt>
      <trkpt lat="44.55196" lon="1.52344">
        <ele>218.36</ele>
        <time>2021-08-17T07:01:25Z</time>
      </trkpt>
      <trkpt lat="44.55184" lon="1.52348">
        <ele>216.91</ele>
        <time>2021-08-17T07:01:27Z</time>
      </trkpt>
      <trkpt lat="44.55169" lon="1.52353">
        <ele>215.47</ele>
        <time>2021-08-17T07:01:29Z</time>
      </trkpt>
      <trkpt lat="44.55129" lon="1.52359">
        <ele>215.47</ele>
        <time>2021-08-17T07:01:35Z</time>
      </trkpt>
      <trkpt lat="44.55117" lon="1.52358">
        <ele>215.47</ele>
        <time>2021-08-17T07:01:37Z</time>
      </trkpt>
      <trkpt lat="44.5511" lon="1.52357">
        <ele>214.99</ele>
        <time>2021-08-17T07:01:38Z</time>
      </trkpt>
      <trkpt lat="44.55104" lon="1.52354">
        <ele>214.51</ele>
        <time>2021-08-17T07:01:39Z</time>
      </trkpt>
      <trkpt lat="44.55098" lon="1.52351">
        <ele>214.03</ele>
        <time>2021-08-17T07:01:40Z</time>
      </trkpt>
      <trkpt lat="44.55093" lon="1.52348">
        <ele>214.03</ele>
        <time>2021-08-17T07:01:41Z</time>
      </trkpt>
      <trkpt lat="44.55088" lon="1.52346">
        <ele>214.03</ele>
        <time>2021-08-17T07:01:42Z</time>
      </trkpt>
      <trkpt lat="44.55047" lon="1.52332">
        <ele>213.55</ele>
        <time>2021-08-17T07:01:49Z</time>
      </trkpt>
      <trkpt lat="44.55035" lon="1.52327">
        <ele>213.07</ele>
        <time>2021-08-17T07:01:51Z</time>
      </trkpt>
      <trkpt lat="44.5503" lon="1.52324">
        <ele>213.07</ele>
        <time>2021-08-17T07:01:52Z</time>
      </trkpt>
      <trkpt lat="44.55026" lon="1.5232">
        <ele>213.07</ele>
        <time>2021-08-17T07:01:53Z</time>
      </trkpt>
      <trkpt lat="44.55022" lon="1.52315">
        <ele>212.59</ele>
        <time>2021-08-17T07:01:54Z</time>
      </trkpt>
      <trkpt lat="44.55018" lon="1.52311">
        <ele>212.59</ele>
        <time>2021-08-17T07:01:55Z</time>
      </trkpt>
      <trkpt lat="44.55013" lon="1.52308">
        <ele>212.11</ele>
        <time>2021-08-17T07:01:56Z</time>
      </trkpt>
      <trkpt lat="44.55008" lon="1.52305">
        <ele>212.11</ele>
        <time>2021-08-17T07:01:57Z</time>
      </trkpt>
      <trkpt lat="44.55003" lon="1.52302">
        <ele>212.11</ele>
        <time>2021-08-17T07:01:58Z</time>
      </trkpt>
      <trkpt lat="44.54968" lon="1.52291">
        <ele>212.11</ele>
        <time>2021-08-17T07:02:05Z</time>
      </trkpt>
      <trkpt lat="44.54952" lon="1.52288">
        <ele>212.11</ele>
        <time>2021-08-17T07:02:08Z</time>
      </trkpt>
      <trkpt lat="44.54936" lon="1.52288">
        <ele>212.11</ele>
        <time>2021-08-17T07:02:11Z</time>
      </trkpt>
      <trkpt lat="44.54901" lon="1.523">
        <ele>212.11</ele>
        <time>2021-08-17T07:02:18Z</time>
      </trkpt>
      <trkpt lat="44.54875" lon="1.52312">
        <ele>211.63</ele>
        <time>2021-08-17T07:02:23Z</time>
      </trkpt>
      <trkpt lat="44.54869" lon="1.52315">
        <ele>211.63</ele>
        <time>2021-08-17T07:02:24Z</time>
      </trkpt>
      <trkpt lat="44.54822" lon="1.52335">
        <ele>209.7</ele>
        <time>2021-08-17T07:02:32Z</time>
      </trkpt>
      <trkpt lat="44.54771" lon="1.52349">
        <ele>208.26</ele>
        <time>2021-08-17T07:02:40Z</time>
      </trkpt>
      <trkpt lat="44.54726" lon="1.52345">
        <ele>207.78</ele>
        <time>2021-08-17T07:02:47Z</time>
      </trkpt>
      <trkpt lat="44.5469" lon="1.52342">
        <ele>206.34</ele>
        <time>2021-08-17T07:02:53Z</time>
      </trkpt>
      <trkpt lat="44.54652" lon="1.52338">
        <ele>205.86</ele>
        <time>2021-08-17T07:02:59Z</time>
      </trkpt>
      <trkpt lat="44.54608" lon="1.52323">
        <ele>205.38</ele>
        <time>2021-08-17T07:03:07Z</time>
      </trkpt>
      <trkpt lat="44.54588" lon="1.52311">
        <ele>205.38</ele>
        <time>2021-08-17T07:03:11Z</time>
      </trkpt>
      <trkpt lat="44.54558" lon="1.52294">
        <ele>204.9</ele>
        <time>2021-08-17T07:03:17Z</time>
      </trkpt>
      <trkpt lat="44.54553" lon="1.52292">
        <ele>204.42</ele>
        <time>2021-08-17T07:03:18Z</time>
      </trkpt>
      <trkpt lat="44.54548" lon="1.52289">
        <ele>203.94</ele>
        <time>2021-08-17T07:03:19Z</time>
      </trkpt>
      <trkpt lat="44.54542" lon="1.52287">
        <ele>203.46</ele>
        <time>2021-08-17T07:03:20Z</time>
      </trkpt>
      <trkpt lat="44.54529" lon="1.52282">
        <ele>202.98</ele>
        <time>2021-08-17T07:03:22Z</time>
      </trkpt>
      <trkpt lat="44.54523" lon="1.52282">
        <ele>202.49</ele>
        <time>2021-08-17T07:03:23Z</time>
      </trkpt>
      <trkpt lat="44.54518" lon="1.52283">
        <ele>202.49</ele>
        <time>2021-08-17T07:03:24Z</time>
      </trkpt>
      <trkpt lat="44.54512" lon="1.52285">
        <ele>202.01</ele>
        <time>2021-08-17T07:03:25Z</time>
      </trkpt>
      <trkpt lat="44.54507" lon="1.52287">
        <ele>202.49</ele>
        <time>2021-08-17T07:03:26Z</time>
      </trkpt>
      <trkpt lat="44.54503" lon="1.52289">
        <ele>201.53</ele>
        <time>2021-08-17T07:03:27Z</time>
      </trkpt>
      <trkpt lat="44.54496" lon="1.52291">
        <ele>201.53</ele>
        <time>2021-08-17T07:03:30Z</time>
      </trkpt>
      <trkpt lat="44.54494" lon="1.52292">
        <ele>201.53</ele>
        <time>2021-08-17T07:03:31Z</time>
      </trkpt>
      <trkpt lat="44.54493" lon="1.52295">
        <ele>201.53</ele>
        <time>2021-08-17T07:03:32Z</time>
      </trkpt>
      <trkpt lat="44.54492" lon="1.52298">
        <ele>201.53</ele>
        <time>2021-08-17T07:03:33Z</time>
      </trkpt>
      <trkpt lat="44.54492" lon="1.52301">
        <ele>201.53</ele>
        <time>2021-08-17T07:03:34Z</time>
      </trkpt>
      <trkpt lat="44.54491" lon="1.52304">
        <ele>201.53</ele>
        <time>2021-08-17T07:03:35Z</time>
      </trkpt>
      <trkpt lat="44.5449" lon="1.52308">
        <ele>201.53</ele>
        <time>2021-08-17T07:03:36Z</time>
      </trkpt>
      <trkpt lat="44.54488" lon="1.52339">
        <ele>201.53</ele>
        <time>2021-08-17T07:03:42Z</time>
      </trkpt>
      <trkpt lat="44.54488" lon="1.52375">
        <ele>201.53</ele>
        <time>2021-08-17T07:03:48Z</time>
      </trkpt>
      <trkpt lat="44.54487" lon="1.52381">
        <ele>201.53</ele>
        <time>2021-08-17T07:03:49Z</time>
      </trkpt>
      <trkpt lat="44.54487" lon="1.52388">
        <ele>202.01</ele>
        <time>2021-08-17T07:03:50Z</time>
      </trkpt>
      <trkpt lat="44.54485" lon="1.52395">
        <ele>202.01</ele>
        <time>2021-08-17T07:03:51Z</time>
      </trkpt>
      <trkpt lat="44.54484" lon="1.52401">
        <ele>201.53</ele>
        <time>2021-08-17T07:03:52Z</time>
      </trkpt>
      <trkpt lat="44.54482" lon="1.52408">
        <ele>201.53</ele>
        <time>2021-08-17T07:03:53Z</time>
      </trkpt>
      <trkpt lat="44.5448" lon="1.52415">
        <ele>202.01</ele>
        <time>2021-08-17T07:03:54Z</time>
      </trkpt>
      <trkpt lat="44.54467" lon="1.5246">
        <ele>201.53</ele>
        <time>2021-08-17T07:04:01Z</time>
      </trkpt>
      <trkpt lat="44.54462" lon="1.52472">
        <ele>201.53</ele>
        <time>2021-08-17T07:04:03Z</time>
      </trkpt>
      <trkpt lat="44.54459" lon="1.52478">
        <ele>201.53</ele>
        <time>2021-08-17T07:04:04Z</time>
      </trkpt>
      <trkpt lat="44.54446" lon="1.52506">
        <ele>201.53</ele>
        <time>2021-08-17T07:04:09Z</time>
      </trkpt>
      <trkpt lat="44.54444" lon="1.52512">
        <ele>201.53</ele>
        <time>2021-08-17T07:04:10Z</time>
      </trkpt>
      <trkpt lat="44.54433" lon="1.52533">
        <ele>201.53</ele>
        <time>2021-08-17T07:04:14Z</time>
      </trkpt>
      <trkpt lat="44.5443" lon="1.52539">
        <ele>201.53</ele>
        <time>2021-08-17T07:04:15Z</time>
      </trkpt>
      <trkpt lat="44.54419" lon="1.52569">
        <ele>201.53</ele>
        <time>2021-08-17T07:04:20Z</time>
      </trkpt>
      <trkpt lat="44.54417" lon="1.52575">
        <ele>202.98</ele>
        <time>2021-08-17T07:04:21Z</time>
      </trkpt>
      <trkpt lat="44.54416" lon="1.52581">
        <ele>202.98</ele>
        <time>2021-08-17T07:04:22Z</time>
      </trkpt>
      <trkpt lat="44.54414" lon="1.5261">
        <ele>203.46</ele>
        <time>2021-08-17T07:04:27Z</time>
      </trkpt>
      <trkpt lat="44.54406" lon="1.52643">
        <ele>202.01</ele>
        <time>2021-08-17T07:04:32Z</time>
      </trkpt>
      <trkpt lat="44.54404" lon="1.52649">
        <ele>202.01</ele>
        <time>2021-08-17T07:04:33Z</time>
      </trkpt>
      <trkpt lat="44.54396" lon="1.52672">
        <ele>202.01</ele>
        <time>2021-08-17T07:04:37Z</time>
      </trkpt>
      <trkpt lat="44.54388" lon="1.52723">
        <ele>199.61</ele>
        <time>2021-08-17T07:04:44Z</time>
      </trkpt>
      <trkpt lat="44.54387" lon="1.52731">
        <ele>199.61</ele>
        <time>2021-08-17T07:04:45Z</time>
      </trkpt>
      <trkpt lat="44.54388" lon="1.5274">
        <ele>198.65</ele>
        <time>2021-08-17T07:04:46Z</time>
      </trkpt>
      <trkpt lat="44.5439" lon="1.52757">
        <ele>198.65</ele>
        <time>2021-08-17T07:04:48Z</time>
      </trkpt>
      <trkpt lat="44.54393" lon="1.52797">
        <ele>198.65</ele>
        <time>2021-08-17T07:04:54Z</time>
      </trkpt>
      <trkpt lat="44.54394" lon="1.52808">
        <ele>199.61</ele>
        <time>2021-08-17T07:04:56Z</time>
      </trkpt>
      <trkpt lat="44.54397" lon="1.52829">
        <ele>200.09</ele>
        <time>2021-08-17T07:05:00Z</time>
      </trkpt>
      <trkpt lat="44.54397" lon="1.52836">
        <ele>200.09</ele>
        <time>2021-08-17T07:05:01Z</time>
      </trkpt>
      <trkpt lat="44.54396" lon="1.52842">
        <ele>201.05</ele>
        <time>2021-08-17T07:05:02Z</time>
      </trkpt>
      <trkpt lat="44.54396" lon="1.52848">
        <ele>201.05</ele>
        <time>2021-08-17T07:05:03Z</time>
      </trkpt>
      <trkpt lat="44.54395" lon="1.52854">
        <ele>201.05</ele>
        <time>2021-08-17T07:05:04Z</time>
      </trkpt>
      <trkpt lat="44.54393" lon="1.52861">
        <ele>201.05</ele>
        <time>2021-08-17T07:05:05Z</time>
      </trkpt>
      <trkpt lat="44.54391" lon="1.52867">
        <ele>201.05</ele>
        <time>2021-08-17T07:05:06Z</time>
      </trkpt>
      <trkpt lat="44.54389" lon="1.52873">
        <ele>201.05</ele>
        <time>2021-08-17T07:05:07Z</time>
      </trkpt>
      <trkpt lat="44.54386" lon="1.52879">
        <ele>201.05</ele>
        <time>2021-08-17T07:05:08Z</time>
      </trkpt>
      <trkpt lat="44.54383" lon="1.52883">
        <ele>201.05</ele>
        <time>2021-08-17T07:05:09Z</time>
      </trkpt>
      <trkpt lat="44.5438" lon="1.52888">
        <ele>201.05</ele>
        <time>2021-08-17T07:05:10Z</time>
      </trkpt>
      <trkpt lat="44.54377" lon="1.52893">
        <ele>200.57</ele>
        <time>2021-08-17T07:05:11Z</time>
      </trkpt>
      <trkpt lat="44.54375" lon="1.52898">
        <ele>200.57</ele>
        <time>2021-08-17T07:05:12Z</time>
      </trkpt>
      <trkpt lat="44.54373" lon="1.52903">
        <ele>200.57</ele>
        <time>2021-08-17T07:05:13Z</time>
      </trkpt>
      <trkpt lat="44.54371" lon="1.52908">
        <ele>200.57</ele>
        <time>2021-08-17T07:05:14Z</time>
      </trkpt>
      <trkpt lat="44.54368" lon="1.52912">
        <ele>200.57</ele>
        <time>2021-08-17T07:05:15Z</time>
      </trkpt>
      <trkpt lat="44.54365" lon="1.52915">
        <ele>199.61</ele>
        <time>2021-08-17T07:05:16Z</time>
      </trkpt>
      <trkpt lat="44.5436" lon="1.52916">
        <ele>199.61</ele>
        <time>2021-08-17T07:05:17Z</time>
      </trkpt>
      <trkpt lat="44.54356" lon="1.52916">
        <ele>199.61</ele>
        <time>2021-08-17T07:05:18Z</time>
      </trkpt>
      <trkpt lat="44.54353" lon="1.52916">
        <ele>199.61</ele>
        <time>2021-08-17T07:05:19Z</time>
      </trkpt>
      <trkpt lat="44.54332" lon="1.52911">
        <ele>199.13</ele>
        <time>2021-08-17T07:05:24Z</time>
      </trkpt>
      <trkpt lat="44.54328" lon="1.52909">
        <ele>199.13</ele>
        <time>2021-08-17T07:05:25Z</time>
      </trkpt>
      <trkpt lat="44.54324" lon="1.52906">
        <ele>199.13</ele>
        <time>2021-08-17T07:05:26Z</time>
      </trkpt>
      <trkpt lat="44.54317" lon="1.52901">
        <ele>199.13</ele>
        <time>2021-08-17T07:05:28Z</time>
      </trkpt>
      <trkpt lat="44.54313" lon="1.52901">
        <ele>199.13</ele>
        <time>2021-08-17T07:05:29Z</time>
      </trkpt>
      <trkpt lat="44.54311" lon="1.52903">
        <ele>199.13</ele>
        <time>2021-08-17T07:05:30Z</time>
      </trkpt>
      <trkpt lat="44.54309" lon="1.52906">
        <ele>199.13</ele>
        <time>2021-08-17T07:05:31Z</time>
      </trkpt>
      <trkpt lat="44.54307" lon="1.5291">
        <ele>199.13</ele>
        <time>2021-08-17T07:05:32Z</time>
      </trkpt>
      <trkpt lat="44.54302" lon="1.52916">
        <ele>198.65</ele>
        <time>2021-08-17T07:05:34Z</time>
      </trkpt>
      <trkpt lat="44.54299" lon="1.52916">
        <ele>198.65</ele>
        <time>2021-08-17T07:05:35Z</time>
      </trkpt>
      <trkpt lat="44.54295" lon="1.52916">
        <ele>198.65</ele>
        <time>2021-08-17T07:05:36Z</time>
      </trkpt>
      <trkpt lat="44.54287" lon="1.52915">
        <ele>198.65</ele>
        <time>2021-08-17T07:05:38Z</time>
      </trkpt>
      <trkpt lat="44.54263" lon="1.52905">
        <ele>198.65</ele>
        <time>2021-08-17T07:05:45Z</time>
      </trkpt>
      <trkpt lat="44.54244" lon="1.52896">
        <ele>201.05</ele>
        <time>2021-08-17T07:05:52Z</time>
      </trkpt>
      <trkpt lat="44.54242" lon="1.52895">
        <ele>201.05</ele>
        <time>2021-08-17T07:05:53Z</time>
      </trkpt>
      <trkpt lat="44.54241" lon="1.52893">
        <ele>201.05</ele>
        <time>2021-08-17T07:05:54Z</time>
      </trkpt>
      <trkpt lat="44.54239" lon="1.52892">
        <ele>201.05</ele>
        <time>2021-08-17T07:05:55Z</time>
      </trkpt>
      <trkpt lat="44.54237" lon="1.52891">
        <ele>201.05</ele>
        <time>2021-08-17T07:05:56Z</time>
      </trkpt>
      <trkpt lat="44.54235" lon="1.52889">
        <ele>201.53</ele>
        <time>2021-08-17T07:05:57Z</time>
      </trkpt>
      <trkpt lat="44.54217" lon="1.52879">
        <ele>202.98</ele>
        <time>2021-08-17T07:06:06Z</time>
      </trkpt>
      <trkpt lat="44.54206" lon="1.5287">
        <ele>203.46</ele>
        <time>2021-08-17T07:06:11Z</time>
      </trkpt>
      <trkpt lat="44.54192" lon="1.52859">
        <ele>203.94</ele>
        <time>2021-08-17T07:06:18Z</time>
      </trkpt>
      <trkpt lat="44.54174" lon="1.52848">
        <ele>204.9</ele>
        <time>2021-08-17T07:06:27Z</time>
      </trkpt>
      <trkpt lat="44.5416" lon="1.5284">
        <ele>205.38</ele>
        <time>2021-08-17T07:06:34Z</time>
      </trkpt>
      <trkpt lat="44.54129" lon="1.5283">
        <ele>205.86</ele>
        <time>2021-08-17T07:06:44Z</time>
      </trkpt>
      <trkpt lat="44.5411" lon="1.52825">
        <ele>205.86</ele>
        <time>2021-08-17T07:06:51Z</time>
      </trkpt>
      <trkpt lat="44.54094" lon="1.5282">
        <ele>207.3</ele>
        <time>2021-08-17T07:06:59Z</time>
      </trkpt>
      <trkpt lat="44.54071" lon="1.52812">
        <ele>208.74</ele>
        <time>2021-08-17T07:07:10Z</time>
      </trkpt>
      <trkpt lat="44.54053" lon="1.52798">
        <ele>209.22</ele>
        <time>2021-08-17T07:07:19Z</time>
      </trkpt>
      <trkpt lat="44.54034" lon="1.52782">
        <ele>210.67</ele>
        <time>2021-08-17T07:07:29Z</time>
      </trkpt>
      <trkpt lat="44.54021" lon="1.52774">
        <ele>211.15</ele>
        <time>2021-08-17T07:07:36Z</time>
      </trkpt>
      <trkpt lat="44.54009" lon="1.52768">
        <ele>212.11</ele>
        <time>2021-08-17T07:07:43Z</time>
      </trkpt>
      <trkpt lat="44.53996" lon="1.52761">
        <ele>212.59</ele>
        <time>2021-08-17T07:07:49Z</time>
      </trkpt>
      <trkpt lat="44.53983" lon="1.52754">
        <ele>213.07</ele>
        <time>2021-08-17T07:07:56Z</time>
      </trkpt>
      <trkpt lat="44.53972" lon="1.52749">
        <ele>214.03</ele>
        <time>2021-08-17T07:08:02Z</time>
      </trkpt>
      <trkpt lat="44.53956" lon="1.52742">
        <ele>214.51</ele>
        <time>2021-08-17T07:08:10Z</time>
      </trkpt>
      <trkpt lat="44.5394" lon="1.52743">
        <ele>215.47</ele>
        <time>2021-08-17T07:08:18Z</time>
      </trkpt>
      <trkpt lat="44.53926" lon="1.52748">
        <ele>216.43</ele>
        <time>2021-08-17T07:08:25Z</time>
      </trkpt>
      <trkpt lat="44.53921" lon="1.52751">
        <ele>216.91</ele>
        <time>2021-08-17T07:08:28Z</time>
      </trkpt>
      <trkpt lat="44.53907" lon="1.52773">
        <ele>217.88</ele>
        <time>2021-08-17T07:08:38Z</time>
      </trkpt>
      <trkpt lat="44.53896" lon="1.52789">
        <ele>217.88</ele>
        <time>2021-08-17T07:08:45Z</time>
      </trkpt>
      <trkpt lat="44.53881" lon="1.52803">
        <ele>219.8</ele>
        <time>2021-08-17T07:08:53Z</time>
      </trkpt>
      <trkpt lat="44.53863" lon="1.52819">
        <ele>221.24</ele>
        <time>2021-08-17T07:09:02Z</time>
      </trkpt>
      <trkpt lat="44.53849" lon="1.5283">
        <ele>221.72</ele>
        <time>2021-08-17T07:09:09Z</time>
      </trkpt>
      <trkpt lat="44.53838" lon="1.52842">
        <ele>223.64</ele>
        <time>2021-08-17T07:09:16Z</time>
      </trkpt>
      <trkpt lat="44.53824" lon="1.52855">
        <ele>224.61</ele>
        <time>2021-08-17T07:09:23Z</time>
      </trkpt>
      <trkpt lat="44.53814" lon="1.52865">
        <ele>225.57</ele>
        <time>2021-08-17T07:09:31Z</time>
      </trkpt>
      <trkpt lat="44.53805" lon="1.52875">
        <ele>226.53</ele>
        <time>2021-08-17T07:09:40Z</time>
      </trkpt>
      <trkpt lat="44.53795" lon="1.52882">
        <ele>228.45</ele>
        <time>2021-08-17T07:09:49Z</time>
      </trkpt>
      <trkpt lat="44.53786" lon="1.5289">
        <ele>229.41</ele>
        <time>2021-08-17T07:10:00Z</time>
      </trkpt>
      <trkpt lat="44.53781" lon="1.52892">
        <ele>229.41</ele>
        <time>2021-08-17T07:10:07Z</time>
      </trkpt>
      <trkpt lat="44.5377" lon="1.52897">
        <ele>229.89</ele>
        <time>2021-08-17T07:10:14Z</time>
      </trkpt>
      <trkpt lat="44.5376" lon="1.529">
        <ele>231.33</ele>
        <time>2021-08-17T07:10:20Z</time>
      </trkpt>
      <trkpt lat="44.53758" lon="1.52901">
        <ele>231.33</ele>
        <time>2021-08-17T07:10:21Z</time>
      </trkpt>
      <trkpt lat="44.53756" lon="1.52902">
        <ele>231.33</ele>
        <time>2021-08-17T07:10:22Z</time>
      </trkpt>
      <trkpt lat="44.53755" lon="1.52903">
        <ele>231.33</ele>
        <time>2021-08-17T07:10:23Z</time>
      </trkpt>
      <trkpt lat="44.53753" lon="1.52903">
        <ele>231.33</ele>
        <time>2021-08-17T07:10:24Z</time>
      </trkpt>
      <trkpt lat="44.53751" lon="1.52904">
        <ele>231.81</ele>
        <time>2021-08-17T07:10:25Z</time>
      </trkpt>
      <trkpt lat="44.53749" lon="1.52904">
        <ele>231.81</ele>
        <time>2021-08-17T07:10:26Z</time>
      </trkpt>
      <trkpt lat="44.53748" lon="1.52904">
        <ele>231.81</ele>
        <time>2021-08-17T07:10:27Z</time>
      </trkpt>
      <trkpt lat="44.53741" lon="1.52906">
        <ele>232.3</ele>
        <time>2021-08-17T07:10:31Z</time>
      </trkpt>
      <trkpt lat="44.53739" lon="1.52905">
        <ele>232.3</ele>
        <time>2021-08-17T07:10:32Z</time>
      </trkpt>
      <trkpt lat="44.53727" lon="1.52907">
        <ele>233.26</ele>
        <time>2021-08-17T07:10:39Z</time>
      </trkpt>
      <trkpt lat="44.53726" lon="1.52908">
        <ele>233.26</ele>
        <time>2021-08-17T07:10:40Z</time>
      </trkpt>
      <trkpt lat="44.53712" lon="1.52909">
        <ele>234.22</ele>
        <time>2021-08-17T07:10:47Z</time>
      </trkpt>
      <trkpt lat="44.53702" lon="1.52911">
        <ele>235.18</ele>
        <time>2021-08-17T07:10:54Z</time>
      </trkpt>
      <trkpt lat="44.53692" lon="1.52907">
        <ele>236.14</ele>
        <time>2021-08-17T07:11:03Z</time>
      </trkpt>
      <trkpt lat="44.5369" lon="1.52903">
        <ele>236.14</ele>
        <time>2021-08-17T07:11:06Z</time>
      </trkpt>
      <trkpt lat="44.53684" lon="1.52896">
        <ele>237.1</ele>
        <time>2021-08-17T07:11:14Z</time>
      </trkpt>
      <trkpt lat="44.53678" lon="1.52888">
        <ele>237.58</ele>
        <time>2021-08-17T07:11:23Z</time>
      </trkpt>
      <trkpt lat="44.53671" lon="1.52879">
        <ele>238.06</ele>
        <time>2021-08-17T07:11:30Z</time>
      </trkpt>
      <trkpt lat="44.53665" lon="1.52872">
        <ele>239.02</ele>
        <time>2021-08-17T07:11:38Z</time>
      </trkpt>
      <trkpt lat="44.53659" lon="1.52863">
        <ele>239.99</ele>
        <time>2021-08-17T07:11:46Z</time>
      </trkpt>
      <trkpt lat="44.53658" lon="1.52862">
        <ele>240.47</ele>
        <time>2021-08-17T07:12:01Z</time>
      </trkpt>
      <trkpt lat="44.53654" lon="1.52854">
        <ele>240.95</ele>
        <time>2021-08-17T07:12:09Z</time>
      </trkpt>
      <trkpt lat="44.5365" lon="1.52845">
        <ele>241.91</ele>
        <time>2021-08-17T07:12:18Z</time>
      </trkpt>
      <trkpt lat="44.53646" lon="1.52838">
        <ele>243.35</ele>
        <time>2021-08-17T07:12:26Z</time>
      </trkpt>
      <trkpt lat="44.53642" lon="1.52831">
        <ele>244.31</ele>
        <time>2021-08-17T07:12:33Z</time>
      </trkpt>
      <trkpt lat="44.53637" lon="1.52819">
        <ele>244.79</ele>
        <time>2021-08-17T07:12:42Z</time>
      </trkpt>
      <trkpt lat="44.53636" lon="1.52818">
        <ele>244.79</ele>
        <time>2021-08-17T07:12:43Z</time>
      </trkpt>
      <trkpt lat="44.5363" lon="1.52811">
        <ele>245.75</ele>
        <time>2021-08-17T07:12:53Z</time>
      </trkpt>
      <trkpt lat="44.53622" lon="1.52801">
        <ele>246.72</ele>
        <time>2021-08-17T07:13:01Z</time>
      </trkpt>
      <trkpt lat="44.53611" lon="1.52792">
        <ele>247.2</ele>
        <time>2021-08-17T07:13:08Z</time>
      </trkpt>
      <trkpt lat="44.53602" lon="1.52783">
        <ele>248.64</ele>
        <time>2021-08-17T07:13:14Z</time>
      </trkpt>
      <trkpt lat="44.53597" lon="1.52779">
        <ele>250.08</ele>
        <time>2021-08-17T07:13:20Z</time>
      </trkpt>
      <trkpt lat="44.53589" lon="1.52769">
        <ele>250.56</ele>
        <time>2021-08-17T07:13:30Z</time>
      </trkpt>
      <trkpt lat="44.53579" lon="1.52758">
        <ele>252</ele>
        <time>2021-08-17T07:13:41Z</time>
      </trkpt>
      <trkpt lat="44.53571" lon="1.5275">
        <ele>252.96</ele>
        <time>2021-08-17T07:13:49Z</time>
      </trkpt>
      <trkpt lat="44.53561" lon="1.52741">
        <ele>254.89</ele>
        <time>2021-08-17T07:14:00Z</time>
      </trkpt>
      <trkpt lat="44.53555" lon="1.52736">
        <ele>254.89</ele>
        <time>2021-08-17T07:14:10Z</time>
      </trkpt>
      <trkpt lat="44.53543" lon="1.52733">
        <ele>255.37</ele>
        <time>2021-08-17T07:14:17Z</time>
      </trkpt>
      <trkpt lat="44.53529" lon="1.52727">
        <ele>255.37</ele>
        <time>2021-08-17T07:14:24Z</time>
      </trkpt>
      <trkpt lat="44.53517" lon="1.52717">
        <ele>256.81</ele>
        <time>2021-08-17T07:14:33Z</time>
      </trkpt>
      <trkpt lat="44.53511" lon="1.52711">
        <ele>257.29</ele>
        <time>2021-08-17T07:14:38Z</time>
      </trkpt>
      <trkpt lat="44.53498" lon="1.52697">
        <ele>258.73</ele>
        <time>2021-08-17T07:14:49Z</time>
      </trkpt>
      <trkpt lat="44.53487" lon="1.52689">
        <ele>259.69</ele>
        <time>2021-08-17T07:14:57Z</time>
      </trkpt>
      <trkpt lat="44.53476" lon="1.52676">
        <ele>261.14</ele>
        <time>2021-08-17T07:15:07Z</time>
      </trkpt>
      <trkpt lat="44.53473" lon="1.52674">
        <ele>261.62</ele>
        <time>2021-08-17T07:15:09Z</time>
      </trkpt>
      <trkpt lat="44.53465" lon="1.52659">
        <ele>263.06</ele>
        <time>2021-08-17T07:15:18Z</time>
      </trkpt>
      <trkpt lat="44.53461" lon="1.52652">
        <ele>264.02</ele>
        <time>2021-08-17T07:15:22Z</time>
      </trkpt>
      <trkpt lat="44.53456" lon="1.5264">
        <ele>265.94</ele>
        <time>2021-08-17T07:15:31Z</time>
      </trkpt>
      <trkpt lat="44.53445" lon="1.52626">
        <ele>267.86</ele>
        <time>2021-08-17T07:15:42Z</time>
      </trkpt>
      <trkpt lat="44.5344" lon="1.52616">
        <ele>268.83</ele>
        <time>2021-08-17T07:15:50Z</time>
      </trkpt>
      <trkpt lat="44.53434" lon="1.52606">
        <ele>269.31</ele>
        <time>2021-08-17T07:15:59Z</time>
      </trkpt>
      <trkpt lat="44.53435" lon="1.52605">
        <ele>269.31</ele>
        <time>2021-08-17T07:16:05Z</time>
      </trkpt>
      <trkpt lat="44.53439" lon="1.52602">
        <ele>269.31</ele>
        <time>2021-08-17T07:16:11Z</time>
      </trkpt>
      <trkpt lat="44.53438" lon="1.52603">
        <ele>269.31</ele>
        <time>2021-08-17T07:16:17Z</time>
      </trkpt>
      <trkpt lat="44.53433" lon="1.52601">
        <ele>269.31</ele>
        <time>2021-08-17T07:16:31Z</time>
      </trkpt>
      <trkpt lat="44.53425" lon="1.52588">
        <ele>270.27</ele>
        <time>2021-08-17T07:16:40Z</time>
      </trkpt>
      <trkpt lat="44.5342" lon="1.52577">
        <ele>271.23</ele>
        <time>2021-08-17T07:16:47Z</time>
      </trkpt>
      <trkpt lat="44.53414" lon="1.52565">
        <ele>273.15</ele>
        <time>2021-08-17T07:16:55Z</time>
      </trkpt>
      <trkpt lat="44.5341" lon="1.52553">
        <ele>274.11</ele>
        <time>2021-08-17T07:17:02Z</time>
      </trkpt>
      <trkpt lat="44.53405" lon="1.52542">
        <ele>276.04</ele>
        <time>2021-08-17T07:17:09Z</time>
      </trkpt>
      <trkpt lat="44.53399" lon="1.52531">
        <ele>277.48</ele>
        <time>2021-08-17T07:17:17Z</time>
      </trkpt>
      <trkpt lat="44.53392" lon="1.52522">
        <ele>277.96</ele>
        <time>2021-08-17T07:17:25Z</time>
      </trkpt>
      <trkpt lat="44.53391" lon="1.52521">
        <ele>278.44</ele>
        <time>2021-08-17T07:17:26Z</time>
      </trkpt>
      <trkpt lat="44.53388" lon="1.52514">
        <ele>278.92</ele>
        <time>2021-08-17T07:17:33Z</time>
      </trkpt>
      <trkpt lat="44.53383" lon="1.52506">
        <ele>279.88</ele>
        <time>2021-08-17T07:17:41Z</time>
      </trkpt>
      <trkpt lat="44.53379" lon="1.52499">
        <ele>282.28</ele>
        <time>2021-08-17T07:17:51Z</time>
      </trkpt>
      <trkpt lat="44.53375" lon="1.52489">
        <ele>284.21</ele>
        <time>2021-08-17T07:18:02Z</time>
      </trkpt>
      <trkpt lat="44.53373" lon="1.52481">
        <ele>286.13</ele>
        <time>2021-08-17T07:18:12Z</time>
      </trkpt>
      <trkpt lat="44.53369" lon="1.52473">
        <ele>288.05</ele>
        <time>2021-08-17T07:18:23Z</time>
      </trkpt>
      <trkpt lat="44.53365" lon="1.52465">
        <ele>289.97</ele>
        <time>2021-08-17T07:18:35Z</time>
      </trkpt>
      <trkpt lat="44.53359" lon="1.52458">
        <ele>291.9</ele>
        <time>2021-08-17T07:18:46Z</time>
      </trkpt>
      <trkpt lat="44.53355" lon="1.52455">
        <ele>293.34</ele>
        <time>2021-08-17T07:18:54Z</time>
      </trkpt>
      <trkpt lat="44.53348" lon="1.5245">
        <ele>294.78</ele>
        <time>2021-08-17T07:19:04Z</time>
      </trkpt>
      <trkpt lat="44.53341" lon="1.52444">
        <ele>296.22</ele>
        <time>2021-08-17T07:19:14Z</time>
      </trkpt>
      <trkpt lat="44.53333" lon="1.52444">
        <ele>298.63</ele>
        <time>2021-08-17T07:19:25Z</time>
      </trkpt>
      <trkpt lat="44.53334" lon="1.52449">
        <ele>299.59</ele>
        <time>2021-08-17T07:19:32Z</time>
      </trkpt>
      <trkpt lat="44.53335" lon="1.52454">
        <ele>300.55</ele>
        <time>2021-08-17T07:19:41Z</time>
      </trkpt>
      <trkpt lat="44.53335" lon="1.52456">
        <ele>300.55</ele>
        <time>2021-08-17T07:19:43Z</time>
      </trkpt>
      <trkpt lat="44.53338" lon="1.52472">
        <ele>301.51</ele>
        <time>2021-08-17T07:19:52Z</time>
      </trkpt>
      <trkpt lat="44.5334" lon="1.52489">
        <ele>302.95</ele>
        <time>2021-08-17T07:20:00Z</time>
      </trkpt>
      <trkpt lat="44.5334" lon="1.52496">
        <ele>303.43</ele>
        <time>2021-08-17T07:20:04Z</time>
      </trkpt>
      <trkpt lat="44.5334" lon="1.52507">
        <ele>304.39</ele>
        <time>2021-08-17T07:20:10Z</time>
      </trkpt>
      <trkpt lat="44.5334" lon="1.52522">
        <ele>305.84</ele>
        <time>2021-08-17T07:20:19Z</time>
      </trkpt>
      <trkpt lat="44.53339" lon="1.52526">
        <ele>306.32</ele>
        <time>2021-08-17T07:20:25Z</time>
      </trkpt>
      <trkpt lat="44.53338" lon="1.52535">
        <ele>307.28</ele>
        <time>2021-08-17T07:20:33Z</time>
      </trkpt>
      <trkpt lat="44.53336" lon="1.52543">
        <ele>308.24</ele>
        <time>2021-08-17T07:20:42Z</time>
      </trkpt>
      <trkpt lat="44.53335" lon="1.52549">
        <ele>308.72</ele>
        <time>2021-08-17T07:20:51Z</time>
      </trkpt>
      <trkpt lat="44.53332" lon="1.52549">
        <ele>310.64</ele>
        <time>2021-08-17T07:20:59Z</time>
      </trkpt>
      <trkpt lat="44.53332" lon="1.52549">
        <ele>311.12</ele>
        <time>2021-08-17T07:21:00Z</time>
      </trkpt>
      <trkpt lat="44.53328" lon="1.52549">
        <ele>311.6</ele>
        <time>2021-08-17T07:21:07Z</time>
      </trkpt>
      <trkpt lat="44.53325" lon="1.52549">
        <ele>313.53</ele>
        <time>2021-08-17T07:21:15Z</time>
      </trkpt>
      <trkpt lat="44.53321" lon="1.52548">
        <ele>314.97</ele>
        <time>2021-08-17T07:21:25Z</time>
      </trkpt>
      <trkpt lat="44.53319" lon="1.52548">
        <ele>314.97</ele>
        <time>2021-08-17T07:21:35Z</time>
      </trkpt>
      <trkpt lat="44.53318" lon="1.52547">
        <ele>315.93</ele>
        <time>2021-08-17T07:21:45Z</time>
      </trkpt>
      <trkpt lat="44.53314" lon="1.52548">
        <ele>317.37</ele>
        <time>2021-08-17T07:21:53Z</time>
      </trkpt>
      <trkpt lat="44.53308" lon="1.52549">
        <ele>318.81</ele>
        <time>2021-08-17T07:22:03Z</time>
      </trkpt>
      <trkpt lat="44.53305" lon="1.5255">
        <ele>320.26</ele>
        <time>2021-08-17T07:22:10Z</time>
      </trkpt>
      <trkpt lat="44.53297" lon="1.52549">
        <ele>322.18</ele>
        <time>2021-08-17T07:22:22Z</time>
      </trkpt>
      <trkpt lat="44.53293" lon="1.52549">
        <ele>323.14</ele>
        <time>2021-08-17T07:22:30Z</time>
      </trkpt>
      <trkpt lat="44.53287" lon="1.5255">
        <ele>325.06</ele>
        <time>2021-08-17T07:22:41Z</time>
      </trkpt>
      <trkpt lat="44.53281" lon="1.5255">
        <ele>326.02</ele>
        <time>2021-08-17T07:22:50Z</time>
      </trkpt>
      <trkpt lat="44.53274" lon="1.52551">
        <ele>327.47</ele>
        <time>2021-08-17T07:22:59Z</time>
      </trkpt>
      <trkpt lat="44.53266" lon="1.52554">
        <ele>328.91</ele>
        <time>2021-08-17T07:23:10Z</time>
      </trkpt>
      <trkpt lat="44.53258" lon="1.52556">
        <ele>329.87</ele>
        <time>2021-08-17T07:23:19Z</time>
      </trkpt>
      <trkpt lat="44.5325" lon="1.52557">
        <ele>331.31</ele>
        <time>2021-08-17T07:23:28Z</time>
      </trkpt>
      <trkpt lat="44.53245" lon="1.52557">
        <ele>331.31</ele>
        <time>2021-08-17T07:23:36Z</time>
      </trkpt>
      <trkpt lat="44.53243" lon="1.52557">
        <ele>331.31</ele>
        <time>2021-08-17T07:23:39Z</time>
      </trkpt>
      <trkpt lat="44.53227" lon="1.52558">
        <ele>332.27</ele>
        <time>2021-08-17T07:23:48Z</time>
      </trkpt>
      <trkpt lat="44.53212" lon="1.52556">
        <ele>332.27</ele>
        <time>2021-08-17T07:23:55Z</time>
      </trkpt>
      <trkpt lat="44.53198" lon="1.52543">
        <ele>333.23</ele>
        <time>2021-08-17T07:24:02Z</time>
      </trkpt>
      <trkpt lat="44.53179" lon="1.52523">
        <ele>334.68</ele>
        <time>2021-08-17T07:24:13Z</time>
      </trkpt>
      <trkpt lat="44.53161" lon="1.52502">
        <ele>335.16</ele>
        <time>2021-08-17T07:24:22Z</time>
      </trkpt>
      <trkpt lat="44.5313" lon="1.52473">
        <ele>335.64</ele>
        <time>2021-08-17T07:24:33Z</time>
      </trkpt>
      <trkpt lat="44.53109" lon="1.52452">
        <ele>337.08</ele>
        <time>2021-08-17T07:24:41Z</time>
      </trkpt>
      <trkpt lat="44.53091" lon="1.52434">
        <ele>339</ele>
        <time>2021-08-17T07:24:50Z</time>
      </trkpt>
      <trkpt lat="44.53075" lon="1.5242">
        <ele>340.44</ele>
        <time>2021-08-17T07:24:58Z</time>
      </trkpt>
      <trkpt lat="44.53056" lon="1.52403">
        <ele>342.37</ele>
        <time>2021-08-17T07:25:07Z</time>
      </trkpt>
      <trkpt lat="44.53039" lon="1.5239">
        <ele>343.33</ele>
        <time>2021-08-17T07:25:15Z</time>
      </trkpt>
      <trkpt lat="44.53015" lon="1.52373">
        <ele>343.81</ele>
        <time>2021-08-17T07:25:24Z</time>
      </trkpt>
      <trkpt lat="44.52988" lon="1.52354">
        <ele>344.77</ele>
        <time>2021-08-17T07:25:34Z</time>
      </trkpt>
      <trkpt lat="44.52969" lon="1.52339">
        <ele>344.77</ele>
        <time>2021-08-17T07:25:42Z</time>
      </trkpt>
      <trkpt lat="44.52968" lon="1.52337">
        <ele>344.77</ele>
        <time>2021-08-17T07:25:43Z</time>
      </trkpt>
      <trkpt lat="44.52967" lon="1.52335">
        <ele>344.77</ele>
        <time>2021-08-17T07:25:44Z</time>
      </trkpt>
      <trkpt lat="44.52967" lon="1.52333">
        <ele>344.77</ele>
        <time>2021-08-17T07:25:45Z</time>
      </trkpt>
      <trkpt lat="44.52966" lon="1.5233">
        <ele>344.77</ele>
        <time>2021-08-17T07:25:46Z</time>
      </trkpt>
      <trkpt lat="44.52965" lon="1.52328">
        <ele>344.29</ele>
        <time>2021-08-17T07:25:47Z</time>
      </trkpt>
      <trkpt lat="44.52963" lon="1.52326">
        <ele>344.77</ele>
        <time>2021-08-17T07:25:48Z</time>
      </trkpt>
      <trkpt lat="44.52961" lon="1.52325">
        <ele>344.77</ele>
        <time>2021-08-17T07:25:49Z</time>
      </trkpt>
      <trkpt lat="44.5296" lon="1.52324">
        <ele>344.77</ele>
        <time>2021-08-17T07:25:50Z</time>
      </trkpt>
      <trkpt lat="44.52959" lon="1.5232">
        <ele>344.77</ele>
        <time>2021-08-17T07:25:51Z</time>
      </trkpt>
      <trkpt lat="44.52959" lon="1.52317">
        <ele>344.77</ele>
        <time>2021-08-17T07:25:52Z</time>
      </trkpt>
      <trkpt lat="44.5296" lon="1.52313">
        <ele>344.29</ele>
        <time>2021-08-17T07:25:53Z</time>
      </trkpt>
      <trkpt lat="44.52959" lon="1.523">
        <ele>343.33</ele>
        <time>2021-08-17T07:25:56Z</time>
      </trkpt>
      <trkpt lat="44.52958" lon="1.52263">
        <ele>342.37</ele>
        <time>2021-08-17T07:26:03Z</time>
      </trkpt>
      <trkpt lat="44.52957" lon="1.52243">
        <ele>342.37</ele>
        <time>2021-08-17T07:26:06Z</time>
      </trkpt>
      <trkpt lat="44.52958" lon="1.52178">
        <ele>340.44</ele>
        <time>2021-08-17T07:26:14Z</time>
      </trkpt>
      <trkpt lat="44.52952" lon="1.52093">
        <ele>340.44</ele>
        <time>2021-08-17T07:26:24Z</time>
      </trkpt>
      <trkpt lat="44.52942" lon="1.52025">
        <ele>340.44</ele>
        <time>2021-08-17T07:26:33Z</time>
      </trkpt>
      <trkpt lat="44.52933" lon="1.51986">
        <ele>341.41</ele>
        <time>2021-08-17T07:26:39Z</time>
      </trkpt>
      <trkpt lat="44.52927" lon="1.51954">
        <ele>343.33</ele>
        <time>2021-08-17T07:26:46Z</time>
      </trkpt>
      <trkpt lat="44.52927" lon="1.51934">
        <ele>344.29</ele>
        <time>2021-08-17T07:26:53Z</time>
      </trkpt>
      <trkpt lat="44.52931" lon="1.51913">
        <ele>345.73</ele>
        <time>2021-08-17T07:27:01Z</time>
      </trkpt>
      <trkpt lat="44.52935" lon="1.51886">
        <ele>347.65</ele>
        <time>2021-08-17T07:27:10Z</time>
      </trkpt>
      <trkpt lat="44.52936" lon="1.51864">
        <ele>350.06</ele>
        <time>2021-08-17T07:27:18Z</time>
      </trkpt>
      <trkpt lat="44.52936" lon="1.51841">
        <ele>351.5</ele>
        <time>2021-08-17T07:27:26Z</time>
      </trkpt>
      <trkpt lat="44.52931" lon="1.51819">
        <ele>351.5</ele>
        <time>2021-08-17T07:27:33Z</time>
      </trkpt>
      <trkpt lat="44.52928" lon="1.51818">
        <ele>351.98</ele>
        <time>2021-08-17T07:27:34Z</time>
      </trkpt>
      <trkpt lat="44.52926" lon="1.51817">
        <ele>351.5</ele>
        <time>2021-08-17T07:27:35Z</time>
      </trkpt>
      <trkpt lat="44.52923" lon="1.51817">
        <ele>351.5</ele>
        <time>2021-08-17T07:27:36Z</time>
      </trkpt>
      <trkpt lat="44.5292" lon="1.51816">
        <ele>351.5</ele>
        <time>2021-08-17T07:27:37Z</time>
      </trkpt>
      <trkpt lat="44.52898" lon="1.51812">
        <ele>351.5</ele>
        <time>2021-08-17T07:27:43Z</time>
      </trkpt>
      <trkpt lat="44.52873" lon="1.51808">
        <ele>351.5</ele>
        <time>2021-08-17T07:27:49Z</time>
      </trkpt>
      <trkpt lat="44.52869" lon="1.51805">
        <ele>351.5</ele>
        <time>2021-08-17T07:27:50Z</time>
      </trkpt>
      <trkpt lat="44.52868" lon="1.518">
        <ele>351.5</ele>
        <time>2021-08-17T07:27:51Z</time>
      </trkpt>
      <trkpt lat="44.52869" lon="1.51793">
        <ele>351.5</ele>
        <time>2021-08-17T07:27:52Z</time>
      </trkpt>
      <trkpt lat="44.52871" lon="1.51791">
        <ele>351.5</ele>
        <time>2021-08-17T07:27:53Z</time>
      </trkpt>
      <trkpt lat="44.52873" lon="1.51786">
        <ele>351.5</ele>
        <time>2021-08-17T07:27:54Z</time>
      </trkpt>
      <trkpt lat="44.52876" lon="1.51781">
        <ele>351.5</ele>
        <time>2021-08-17T07:27:55Z</time>
      </trkpt>
      <trkpt lat="44.52877" lon="1.51776">
        <ele>351.5</ele>
        <time>2021-08-17T07:27:56Z</time>
      </trkpt>
      <trkpt lat="44.52879" lon="1.51771">
        <ele>351.5</ele>
        <time>2021-08-17T07:27:57Z</time>
      </trkpt>
      <trkpt lat="44.52897" lon="1.51725">
        <ele>351.98</ele>
        <time>2021-08-17T07:28:06Z</time>
      </trkpt>
      <trkpt lat="44.52906" lon="1.51702">
        <ele>353.42</ele>
        <time>2021-08-17T07:28:12Z</time>
      </trkpt>
      <trkpt lat="44.52905" lon="1.51698">
        <ele>353.42</ele>
        <time>2021-08-17T07:28:13Z</time>
      </trkpt>
      <trkpt lat="44.52904" lon="1.51693">
        <ele>353.42</ele>
        <time>2021-08-17T07:28:14Z</time>
      </trkpt>
      <trkpt lat="44.52887" lon="1.51656">
        <ele>354.86</ele>
        <time>2021-08-17T07:28:23Z</time>
      </trkpt>
      <trkpt lat="44.52868" lon="1.51621">
        <ele>356.79</ele>
        <time>2021-08-17T07:28:32Z</time>
      </trkpt>
      <trkpt lat="44.52846" lon="1.51585">
        <ele>356.79</ele>
        <time>2021-08-17T07:28:41Z</time>
      </trkpt>
      <trkpt lat="44.52834" lon="1.51562">
        <ele>356.31</ele>
        <time>2021-08-17T07:28:47Z</time>
      </trkpt>
      <trkpt lat="44.52835" lon="1.51559">
        <ele>356.31</ele>
        <time>2021-08-17T07:28:48Z</time>
      </trkpt>
      <trkpt lat="44.52836" lon="1.51557">
        <ele>356.31</ele>
        <time>2021-08-17T07:28:49Z</time>
      </trkpt>
      <trkpt lat="44.5284" lon="1.51553">
        <ele>356.79</ele>
        <time>2021-08-17T07:28:55Z</time>
      </trkpt>
      <trkpt lat="44.52838" lon="1.51551">
        <ele>356.79</ele>
        <time>2021-08-17T07:29:04Z</time>
      </trkpt>
      <trkpt lat="44.52837" lon="1.51551">
        <ele>356.79</ele>
        <time>2021-08-17T07:29:27Z</time>
      </trkpt>
      <trkpt lat="44.52838" lon="1.51554">
        <ele>356.79</ele>
        <time>2021-08-17T07:29:52Z</time>
      </trkpt>
      <trkpt lat="44.52838" lon="1.51549">
        <ele>356.79</ele>
        <time>2021-08-17T07:30:18Z</time>
      </trkpt>
      <trkpt lat="44.52837" lon="1.51546">
        <ele>356.79</ele>
        <time>2021-08-17T07:30:37Z</time>
      </trkpt>
      <trkpt lat="44.52837" lon="1.51545">
        <ele>356.79</ele>
        <time>2021-08-17T07:31:01Z</time>
      </trkpt>
      <trkpt lat="44.52835" lon="1.51546">
        <ele>356.79</ele>
        <time>2021-08-17T07:31:17Z</time>
      </trkpt>
      <trkpt lat="44.52838" lon="1.51549">
        <ele>356.79</ele>
        <time>2021-08-17T07:31:45Z</time>
      </trkpt>
      <trkpt lat="44.52838" lon="1.5155">
        <ele>356.79</ele>
        <time>2021-08-17T07:32:09Z</time>
      </trkpt>
      <trkpt lat="44.52839" lon="1.51551">
        <ele>356.31</ele>
        <time>2021-08-17T07:32:34Z</time>
      </trkpt>
      <trkpt lat="44.52838" lon="1.51549">
        <ele>356.31</ele>
        <time>2021-08-17T07:33:00Z</time>
      </trkpt>
      <trkpt lat="44.52837" lon="1.51547">
        <ele>356.31</ele>
        <time>2021-08-17T07:33:26Z</time>
      </trkpt>
      <trkpt lat="44.52837" lon="1.51547">
        <ele>356.31</ele>
        <time>2021-08-17T07:33:46Z</time>
      </trkpt>
      <trkpt lat="44.52838" lon="1.5155">
        <ele>356.31</ele>
        <time>2021-08-17T07:34:06Z</time>
      </trkpt>
      <trkpt lat="44.52834" lon="1.51549">
        <ele>356.31</ele>
        <time>2021-08-17T07:34:29Z</time>
      </trkpt>
      <trkpt lat="44.52834" lon="1.51549">
        <ele>356.31</ele>
        <time>2021-08-17T07:34:46Z</time>
      </trkpt>
      <trkpt lat="44.52837" lon="1.51549">
        <ele>356.31</ele>
        <time>2021-08-17T07:35:13Z</time>
      </trkpt>
      <trkpt lat="44.52838" lon="1.51548">
        <ele>356.79</ele>
        <time>2021-08-17T07:35:34Z</time>
      </trkpt>
      <trkpt lat="44.52839" lon="1.51547">
        <ele>356.79</ele>
        <time>2021-08-17T07:35:42Z</time>
      </trkpt>
      <trkpt lat="44.52839" lon="1.51546">
        <ele>356.79</ele>
        <time>2021-08-17T07:35:52Z</time>
      </trkpt>
      <trkpt lat="44.52839" lon="1.51544">
        <ele>356.79</ele>
        <time>2021-08-17T07:35:54Z</time>
      </trkpt>
      <trkpt lat="44.52836" lon="1.51535">
        <ele>356.79</ele>
        <time>2021-08-17T07:35:58Z</time>
      </trkpt>
      <trkpt lat="44.52834" lon="1.51535">
        <ele>356.79</ele>
        <time>2021-08-17T07:35:59Z</time>
      </trkpt>
      <trkpt lat="44.52827" lon="1.51533">
        <ele>356.31</ele>
        <time>2021-08-17T07:36:02Z</time>
      </trkpt>
      <trkpt lat="44.52823" lon="1.51532">
        <ele>355.34</ele>
        <time>2021-08-17T07:36:03Z</time>
      </trkpt>
      <trkpt lat="44.52822" lon="1.51529">
        <ele>355.34</ele>
        <time>2021-08-17T07:36:04Z</time>
      </trkpt>
      <trkpt lat="44.52821" lon="1.51526">
        <ele>355.34</ele>
        <time>2021-08-17T07:36:05Z</time>
      </trkpt>
      <trkpt lat="44.52821" lon="1.51521">
        <ele>354.86</ele>
        <time>2021-08-17T07:36:06Z</time>
      </trkpt>
      <trkpt lat="44.52811" lon="1.51478">
        <ele>353.42</ele>
        <time>2021-08-17T07:36:13Z</time>
      </trkpt>
      <trkpt lat="44.5281" lon="1.51474">
        <ele>353.42</ele>
        <time>2021-08-17T07:36:14Z</time>
      </trkpt>
      <trkpt lat="44.52809" lon="1.51471">
        <ele>353.42</ele>
        <time>2021-08-17T07:36:15Z</time>
      </trkpt>
      <trkpt lat="44.52807" lon="1.51464">
        <ele>352.94</ele>
        <time>2021-08-17T07:36:18Z</time>
      </trkpt>
      <trkpt lat="44.52806" lon="1.51469">
        <ele>352.94</ele>
        <time>2021-08-17T07:36:21Z</time>
      </trkpt>
      <trkpt lat="44.52812" lon="1.51488">
        <ele>352.94</ele>
        <time>2021-08-17T07:36:28Z</time>
      </trkpt>
      <trkpt lat="44.52814" lon="1.51496">
        <ele>354.38</ele>
        <time>2021-08-17T07:36:31Z</time>
      </trkpt>
      <trkpt lat="44.52813" lon="1.51498">
        <ele>354.38</ele>
        <time>2021-08-17T07:36:32Z</time>
      </trkpt>
      <trkpt lat="44.52812" lon="1.515">
        <ele>354.38</ele>
        <time>2021-08-17T07:36:33Z</time>
      </trkpt>
      <trkpt lat="44.528" lon="1.51512">
        <ele>353.9</ele>
        <time>2021-08-17T07:36:40Z</time>
      </trkpt>
      <trkpt lat="44.52795" lon="1.51518">
        <ele>352.94</ele>
        <time>2021-08-17T07:36:42Z</time>
      </trkpt>
      <trkpt lat="44.52781" lon="1.51522">
        <ele>351.5</ele>
        <time>2021-08-17T07:36:46Z</time>
      </trkpt>
      <trkpt lat="44.52776" lon="1.51523">
        <ele>350.54</ele>
        <time>2021-08-17T07:36:47Z</time>
      </trkpt>
      <trkpt lat="44.52772" lon="1.51525">
        <ele>350.06</ele>
        <time>2021-08-17T07:36:48Z</time>
      </trkpt>
      <trkpt lat="44.52767" lon="1.51528">
        <ele>349.58</ele>
        <time>2021-08-17T07:36:49Z</time>
      </trkpt>
      <trkpt lat="44.52763" lon="1.5153">
        <ele>348.62</ele>
        <time>2021-08-17T07:36:50Z</time>
      </trkpt>
      <trkpt lat="44.52744" lon="1.51538">
        <ele>346.21</ele>
        <time>2021-08-17T07:36:55Z</time>
      </trkpt>
      <trkpt lat="44.52728" lon="1.51551">
        <ele>342.85</ele>
        <time>2021-08-17T07:37:00Z</time>
      </trkpt>
      <trkpt lat="44.52709" lon="1.51555">
        <ele>339</ele>
        <time>2021-08-17T07:37:06Z</time>
      </trkpt>
      <trkpt lat="44.527" lon="1.51556">
        <ele>337.56</ele>
        <time>2021-08-17T07:37:08Z</time>
      </trkpt>
      <trkpt lat="44.52685" lon="1.51559">
        <ele>334.68</ele>
        <time>2021-08-17T07:37:12Z</time>
      </trkpt>
      <trkpt lat="44.52672" lon="1.51565">
        <ele>331.79</ele>
        <time>2021-08-17T07:37:16Z</time>
      </trkpt>
      <trkpt lat="44.52659" lon="1.51571">
        <ele>328.43</ele>
        <time>2021-08-17T07:37:21Z</time>
      </trkpt>
      <trkpt lat="44.52646" lon="1.51577">
        <ele>325.06</ele>
        <time>2021-08-17T07:37:26Z</time>
      </trkpt>
      <trkpt lat="44.52634" lon="1.51576">
        <ele>321.7</ele>
        <time>2021-08-17T07:37:31Z</time>
      </trkpt>
      <trkpt lat="44.5263" lon="1.51572">
        <ele>321.22</ele>
        <time>2021-08-17T07:37:33Z</time>
      </trkpt>
      <trkpt lat="44.52624" lon="1.51566">
        <ele>318.33</ele>
        <time>2021-08-17T07:37:37Z</time>
      </trkpt>
      <trkpt lat="44.52623" lon="1.51563">
        <ele>317.37</ele>
        <time>2021-08-17T07:37:38Z</time>
      </trkpt>
      <trkpt lat="44.52622" lon="1.5156">
        <ele>316.89</ele>
        <time>2021-08-17T07:37:39Z</time>
      </trkpt>
      <trkpt lat="44.52622" lon="1.51558">
        <ele>316.41</ele>
        <time>2021-08-17T07:37:40Z</time>
      </trkpt>
      <trkpt lat="44.52622" lon="1.51554">
        <ele>315.93</ele>
        <time>2021-08-17T07:37:41Z</time>
      </trkpt>
      <trkpt lat="44.52621" lon="1.5155">
        <ele>315.45</ele>
        <time>2021-08-17T07:37:42Z</time>
      </trkpt>
      <trkpt lat="44.52621" lon="1.51536">
        <ele>313.53</ele>
        <time>2021-08-17T07:37:46Z</time>
      </trkpt>
      <trkpt lat="44.52622" lon="1.51532">
        <ele>313.53</ele>
        <time>2021-08-17T07:37:47Z</time>
      </trkpt>
      <trkpt lat="44.52622" lon="1.51528">
        <ele>313.05</ele>
        <time>2021-08-17T07:37:48Z</time>
      </trkpt>
      <trkpt lat="44.52623" lon="1.51524">
        <ele>312.09</ele>
        <time>2021-08-17T07:37:49Z</time>
      </trkpt>
      <trkpt lat="44.52624" lon="1.5152">
        <ele>311.6</ele>
        <time>2021-08-17T07:37:50Z</time>
      </trkpt>
      <trkpt lat="44.52625" lon="1.51516">
        <ele>311.12</ele>
        <time>2021-08-17T07:37:51Z</time>
      </trkpt>
      <trkpt lat="44.52626" lon="1.51512">
        <ele>310.16</ele>
        <time>2021-08-17T07:37:52Z</time>
      </trkpt>
      <trkpt lat="44.52627" lon="1.51509">
        <ele>310.16</ele>
        <time>2021-08-17T07:37:53Z</time>
      </trkpt>
      <trkpt lat="44.52628" lon="1.51505">
        <ele>309.68</ele>
        <time>2021-08-17T07:37:54Z</time>
      </trkpt>
      <trkpt lat="44.52635" lon="1.51486">
        <ele>306.8</ele>
        <time>2021-08-17T07:37:59Z</time>
      </trkpt>
      <trkpt lat="44.52641" lon="1.51468">
        <ele>303.91</ele>
        <time>2021-08-17T07:38:04Z</time>
      </trkpt>
      <trkpt lat="44.5264" lon="1.51463">
        <ele>303.43</ele>
        <time>2021-08-17T07:38:05Z</time>
      </trkpt>
      <trkpt lat="44.52638" lon="1.5146">
        <ele>302.95</ele>
        <time>2021-08-17T07:38:06Z</time>
      </trkpt>
      <trkpt lat="44.52635" lon="1.51457">
        <ele>301.99</ele>
        <time>2021-08-17T07:38:07Z</time>
      </trkpt>
      <trkpt lat="44.52632" lon="1.51455">
        <ele>301.51</ele>
        <time>2021-08-17T07:38:08Z</time>
      </trkpt>
      <trkpt lat="44.52629" lon="1.51455">
        <ele>301.03</ele>
        <time>2021-08-17T07:38:09Z</time>
      </trkpt>
      <trkpt lat="44.52625" lon="1.51455">
        <ele>300.07</ele>
        <time>2021-08-17T07:38:10Z</time>
      </trkpt>
      <trkpt lat="44.52611" lon="1.51458">
        <ele>296.22</ele>
        <time>2021-08-17T07:38:14Z</time>
      </trkpt>
      <trkpt lat="44.52606" lon="1.51458">
        <ele>295.26</ele>
        <time>2021-08-17T07:38:15Z</time>
      </trkpt>
      <trkpt lat="44.52602" lon="1.5146">
        <ele>294.3</ele>
        <time>2021-08-17T07:38:16Z</time>
      </trkpt>
      <trkpt lat="44.52598" lon="1.51463">
        <ele>292.86</ele>
        <time>2021-08-17T07:38:17Z</time>
      </trkpt>
      <trkpt lat="44.52593" lon="1.51465">
        <ele>292.86</ele>
        <time>2021-08-17T07:38:18Z</time>
      </trkpt>
      <trkpt lat="44.52589" lon="1.51466">
        <ele>291.9</ele>
        <time>2021-08-17T07:38:19Z</time>
      </trkpt>
      <trkpt lat="44.52585" lon="1.51468">
        <ele>291.42</ele>
        <time>2021-08-17T07:38:20Z</time>
      </trkpt>
      <trkpt lat="44.52582" lon="1.51471">
        <ele>289.97</ele>
        <time>2021-08-17T07:38:21Z</time>
      </trkpt>
      <trkpt lat="44.52564" lon="1.5149">
        <ele>286.13</ele>
        <time>2021-08-17T07:38:26Z</time>
      </trkpt>
      <trkpt lat="44.52562" lon="1.51494">
        <ele>284.69</ele>
        <time>2021-08-17T07:38:27Z</time>
      </trkpt>
      <trkpt lat="44.5256" lon="1.51498">
        <ele>284.21</ele>
        <time>2021-08-17T07:38:28Z</time>
      </trkpt>
      <trkpt lat="44.52546" lon="1.51517">
        <ele>280.84</ele>
        <time>2021-08-17T07:38:33Z</time>
      </trkpt>
      <trkpt lat="44.52531" lon="1.51527">
        <ele>278.44</ele>
        <time>2021-08-17T07:38:38Z</time>
      </trkpt>
      <trkpt lat="44.52518" lon="1.51541">
        <ele>275.07</ele>
        <time>2021-08-17T07:38:42Z</time>
      </trkpt>
      <trkpt lat="44.52514" lon="1.51543">
        <ele>274.11</ele>
        <time>2021-08-17T07:38:43Z</time>
      </trkpt>
      <trkpt lat="44.52511" lon="1.51546">
        <ele>274.11</ele>
        <time>2021-08-17T07:38:44Z</time>
      </trkpt>
      <trkpt lat="44.52508" lon="1.51549">
        <ele>273.63</ele>
        <time>2021-08-17T07:38:45Z</time>
      </trkpt>
      <trkpt lat="44.52506" lon="1.51553">
        <ele>273.15</ele>
        <time>2021-08-17T07:38:46Z</time>
      </trkpt>
      <trkpt lat="44.52504" lon="1.51555">
        <ele>273.15</ele>
        <time>2021-08-17T07:38:47Z</time>
      </trkpt>
      <trkpt lat="44.52502" lon="1.51556">
        <ele>272.67</ele>
        <time>2021-08-17T07:38:48Z</time>
      </trkpt>
      <trkpt lat="44.525" lon="1.51555">
        <ele>272.19</ele>
        <time>2021-08-17T07:38:49Z</time>
      </trkpt>
      <trkpt lat="44.52497" lon="1.51555">
        <ele>272.19</ele>
        <time>2021-08-17T07:38:50Z</time>
      </trkpt>
      <trkpt lat="44.52494" lon="1.51554">
        <ele>271.71</ele>
        <time>2021-08-17T07:38:51Z</time>
      </trkpt>
      <trkpt lat="44.52491" lon="1.51554">
        <ele>271.71</ele>
        <time>2021-08-17T07:38:52Z</time>
      </trkpt>
      <trkpt lat="44.52486" lon="1.51554">
        <ele>270.75</ele>
        <time>2021-08-17T07:38:53Z</time>
      </trkpt>
      <trkpt lat="44.52481" lon="1.51553">
        <ele>270.75</ele>
        <time>2021-08-17T07:38:54Z</time>
      </trkpt>
      <trkpt lat="44.52459" lon="1.5155">
        <ele>268.35</ele>
        <time>2021-08-17T07:38:58Z</time>
      </trkpt>
      <trkpt lat="44.5244" lon="1.51548">
        <ele>267.38</ele>
        <time>2021-08-17T07:39:01Z</time>
      </trkpt>
      <trkpt lat="44.52414" lon="1.51549">
        <ele>266.42</ele>
        <time>2021-08-17T07:39:05Z</time>
      </trkpt>
      <trkpt lat="44.52408" lon="1.51549">
        <ele>266.42</ele>
        <time>2021-08-17T07:39:06Z</time>
      </trkpt>
      <trkpt lat="44.52402" lon="1.51548">
        <ele>266.42</ele>
        <time>2021-08-17T07:39:07Z</time>
      </trkpt>
      <trkpt lat="44.52396" lon="1.51548">
        <ele>264.98</ele>
        <time>2021-08-17T07:39:08Z</time>
      </trkpt>
      <trkpt lat="44.5239" lon="1.5155">
        <ele>264.02</ele>
        <time>2021-08-17T07:39:09Z</time>
      </trkpt>
      <trkpt lat="44.52383" lon="1.51552">
        <ele>263.06</ele>
        <time>2021-08-17T07:39:10Z</time>
      </trkpt>
      <trkpt lat="44.52356" lon="1.51561">
        <ele>260.65</ele>
        <time>2021-08-17T07:39:14Z</time>
      </trkpt>
      <trkpt lat="44.5235" lon="1.51565">
        <ele>259.69</ele>
        <time>2021-08-17T07:39:15Z</time>
      </trkpt>
      <trkpt lat="44.52344" lon="1.51571">
        <ele>258.73</ele>
        <time>2021-08-17T07:39:16Z</time>
      </trkpt>
      <trkpt lat="44.52339" lon="1.51577">
        <ele>259.21</ele>
        <time>2021-08-17T07:39:17Z</time>
      </trkpt>
      <trkpt lat="44.52322" lon="1.51595">
        <ele>257.29</ele>
        <time>2021-08-17T07:39:20Z</time>
      </trkpt>
      <trkpt lat="44.52288" lon="1.51627">
        <ele>254.41</ele>
        <time>2021-08-17T07:39:26Z</time>
      </trkpt>
      <trkpt lat="44.52282" lon="1.51632">
        <ele>253.93</ele>
        <time>2021-08-17T07:39:27Z</time>
      </trkpt>
      <trkpt lat="44.52277" lon="1.51638">
        <ele>253.93</ele>
        <time>2021-08-17T07:39:28Z</time>
      </trkpt>
      <trkpt lat="44.52252" lon="1.51671">
        <ele>252</ele>
        <time>2021-08-17T07:39:34Z</time>
      </trkpt>
      <trkpt lat="44.52247" lon="1.51674">
        <ele>252</ele>
        <time>2021-08-17T07:39:35Z</time>
      </trkpt>
      <trkpt lat="44.52236" lon="1.51681">
        <ele>252</ele>
        <time>2021-08-17T07:39:37Z</time>
      </trkpt>
      <trkpt lat="44.52212" lon="1.51692">
        <ele>251.52</ele>
        <time>2021-08-17T07:39:42Z</time>
      </trkpt>
      <trkpt lat="44.52207" lon="1.51695">
        <ele>251.52</ele>
        <time>2021-08-17T07:39:43Z</time>
      </trkpt>
      <trkpt lat="44.5218" lon="1.51712">
        <ele>252.48</ele>
        <time>2021-08-17T07:39:50Z</time>
      </trkpt>
      <trkpt lat="44.52178" lon="1.51714">
        <ele>252.48</ele>
        <time>2021-08-17T07:39:51Z</time>
      </trkpt>
      <trkpt lat="44.52162" lon="1.51723">
        <ele>254.41</ele>
        <time>2021-08-17T07:39:59Z</time>
      </trkpt>
      <trkpt lat="44.52143" lon="1.51722">
        <ele>252</ele>
        <time>2021-08-17T07:40:05Z</time>
      </trkpt>
      <trkpt lat="44.52118" lon="1.51725">
        <ele>249.6</ele>
        <time>2021-08-17T07:40:10Z</time>
      </trkpt>
      <trkpt lat="44.5211" lon="1.51727">
        <ele>248.16</ele>
        <time>2021-08-17T07:40:12Z</time>
      </trkpt>
      <trkpt lat="44.52105" lon="1.51728">
        <ele>247.2</ele>
        <time>2021-08-17T07:40:13Z</time>
      </trkpt>
      <trkpt lat="44.52101" lon="1.51729">
        <ele>246.72</ele>
        <time>2021-08-17T07:40:14Z</time>
      </trkpt>
      <trkpt lat="44.52096" lon="1.51731">
        <ele>245.75</ele>
        <time>2021-08-17T07:40:15Z</time>
      </trkpt>
      <trkpt lat="44.5209" lon="1.51735">
        <ele>244.79</ele>
        <time>2021-08-17T07:40:16Z</time>
      </trkpt>
      <trkpt lat="44.52051" lon="1.51757">
        <ele>241.43</ele>
        <time>2021-08-17T07:40:22Z</time>
      </trkpt>
      <trkpt lat="44.52044" lon="1.51762">
        <ele>241.43</ele>
        <time>2021-08-17T07:40:23Z</time>
      </trkpt>
      <trkpt lat="44.51997" lon="1.518">
        <ele>239.51</ele>
        <time>2021-08-17T07:40:30Z</time>
      </trkpt>
      <trkpt lat="44.5195" lon="1.51823">
        <ele>237.1</ele>
        <time>2021-08-17T07:40:37Z</time>
      </trkpt>
      <trkpt lat="44.51921" lon="1.51833">
        <ele>236.62</ele>
        <time>2021-08-17T07:40:41Z</time>
      </trkpt>
      <trkpt lat="44.51915" lon="1.51831">
        <ele>235.66</ele>
        <time>2021-08-17T07:40:42Z</time>
      </trkpt>
      <trkpt lat="44.51885" lon="1.51822">
        <ele>232.78</ele>
        <time>2021-08-17T07:40:46Z</time>
      </trkpt>
      <trkpt lat="44.51837" lon="1.51817">
        <ele>230.37</ele>
        <time>2021-08-17T07:40:52Z</time>
      </trkpt>
      <trkpt lat="44.51796" lon="1.51818">
        <ele>227.97</ele>
        <time>2021-08-17T07:40:58Z</time>
      </trkpt>
      <trkpt lat="44.51789" lon="1.5182">
        <ele>227.01</ele>
        <time>2021-08-17T07:40:59Z</time>
      </trkpt>
      <trkpt lat="44.51784" lon="1.51823">
        <ele>227.01</ele>
        <time>2021-08-17T07:41:00Z</time>
      </trkpt>
      <trkpt lat="44.51779" lon="1.51827">
        <ele>226.05</ele>
        <time>2021-08-17T07:41:01Z</time>
      </trkpt>
      <trkpt lat="44.51774" lon="1.51832">
        <ele>226.05</ele>
        <time>2021-08-17T07:41:02Z</time>
      </trkpt>
      <trkpt lat="44.51768" lon="1.51837">
        <ele>226.05</ele>
        <time>2021-08-17T07:41:03Z</time>
      </trkpt>
      <trkpt lat="44.5173" lon="1.51869">
        <ele>224.12</ele>
        <time>2021-08-17T07:41:10Z</time>
      </trkpt>
      <trkpt lat="44.517" lon="1.51897">
        <ele>223.16</ele>
        <time>2021-08-17T07:41:16Z</time>
      </trkpt>
      <trkpt lat="44.51697" lon="1.51901">
        <ele>223.16</ele>
        <time>2021-08-17T07:41:17Z</time>
      </trkpt>
      <trkpt lat="44.51693" lon="1.51907">
        <ele>223.16</ele>
        <time>2021-08-17T07:41:18Z</time>
      </trkpt>
      <trkpt lat="44.5169" lon="1.51912">
        <ele>222.68</ele>
        <time>2021-08-17T07:41:19Z</time>
      </trkpt>
      <trkpt lat="44.51688" lon="1.51914">
        <ele>222.68</ele>
        <time>2021-08-17T07:41:20Z</time>
      </trkpt>
      <trkpt lat="44.51687" lon="1.51915">
        <ele>222.68</ele>
        <time>2021-08-17T07:41:26Z</time>
      </trkpt>
      <trkpt lat="44.51686" lon="1.51915">
        <ele>222.68</ele>
        <time>2021-08-17T07:41:28Z</time>
      </trkpt>
      <trkpt lat="44.51684" lon="1.51914">
        <ele>222.68</ele>
        <time>2021-08-17T07:41:29Z</time>
      </trkpt>
      <trkpt lat="44.51671" lon="1.51907">
        <ele>222.2</ele>
        <time>2021-08-17T07:41:35Z</time>
      </trkpt>
      <trkpt lat="44.51669" lon="1.51906">
        <ele>222.2</ele>
        <time>2021-08-17T07:41:36Z</time>
      </trkpt>
      <trkpt lat="44.51668" lon="1.51906">
        <ele>222.2</ele>
        <time>2021-08-17T07:41:37Z</time>
      </trkpt>
      <trkpt lat="44.51666" lon="1.51906">
        <ele>222.2</ele>
        <time>2021-08-17T07:41:38Z</time>
      </trkpt>
      <trkpt lat="44.51665" lon="1.51907">
        <ele>222.2</ele>
        <time>2021-08-17T07:41:39Z</time>
      </trkpt>
      <trkpt lat="44.51663" lon="1.51908">
        <ele>222.2</ele>
        <time>2021-08-17T07:41:40Z</time>
      </trkpt>
      <trkpt lat="44.51661" lon="1.51909">
        <ele>222.2</ele>
        <time>2021-08-17T07:41:41Z</time>
      </trkpt>
      <trkpt lat="44.51646" lon="1.51918">
        <ele>222.2</ele>
        <time>2021-08-17T07:41:48Z</time>
      </trkpt>
      <trkpt lat="44.51622" lon="1.51931">
        <ele>222.2</ele>
        <time>2021-08-17T07:41:56Z</time>
      </trkpt>
      <trkpt lat="44.51606" lon="1.51946">
        <ele>222.2</ele>
        <time>2021-08-17T07:42:02Z</time>
      </trkpt>
      <trkpt lat="44.51589" lon="1.51956">
        <ele>221.72</ele>
        <time>2021-08-17T07:42:06Z</time>
      </trkpt>
      <trkpt lat="44.51585" lon="1.51957">
        <ele>221.24</ele>
        <time>2021-08-17T07:42:07Z</time>
      </trkpt>
      <trkpt lat="44.51575" lon="1.5196">
        <ele>220.28</ele>
        <time>2021-08-17T07:42:09Z</time>
      </trkpt>
      <trkpt lat="44.51548" lon="1.5196">
        <ele>220.28</ele>
        <time>2021-08-17T07:42:15Z</time>
      </trkpt>
      <trkpt lat="44.51524" lon="1.5196">
        <ele>220.28</ele>
        <time>2021-08-17T07:42:22Z</time>
      </trkpt>
      <trkpt lat="44.51495" lon="1.51965">
        <ele>219.8</ele>
        <time>2021-08-17T07:42:29Z</time>
      </trkpt>
      <trkpt lat="44.5149" lon="1.51967">
        <ele>219.32</ele>
        <time>2021-08-17T07:42:30Z</time>
      </trkpt>
      <trkpt lat="44.51485" lon="1.51969">
        <ele>218.84</ele>
        <time>2021-08-17T07:42:31Z</time>
      </trkpt>
      <trkpt lat="44.5148" lon="1.51972">
        <ele>217.88</ele>
        <time>2021-08-17T07:42:32Z</time>
      </trkpt>
      <trkpt lat="44.51476" lon="1.51975">
        <ele>216.91</ele>
        <time>2021-08-17T07:42:33Z</time>
      </trkpt>
      <trkpt lat="44.51474" lon="1.51979">
        <ele>216.43</ele>
        <time>2021-08-17T07:42:34Z</time>
      </trkpt>
      <trkpt lat="44.51472" lon="1.51981">
        <ele>216.43</ele>
        <time>2021-08-17T07:42:35Z</time>
      </trkpt>
      <trkpt lat="44.51471" lon="1.51983">
        <ele>216.43</ele>
        <time>2021-08-17T07:42:36Z</time>
      </trkpt>
      <trkpt lat="44.51466" lon="1.51985">
        <ele>216.43</ele>
        <time>2021-08-17T07:42:40Z</time>
      </trkpt>
      <trkpt lat="44.51464" lon="1.51986">
        <ele>216.43</ele>
        <time>2021-08-17T07:42:41Z</time>
      </trkpt>
      <trkpt lat="44.51462" lon="1.51986">
        <ele>216.43</ele>
        <time>2021-08-17T07:42:42Z</time>
      </trkpt>
      <trkpt lat="44.5146" lon="1.51986">
        <ele>216.43</ele>
        <time>2021-08-17T07:42:43Z</time>
      </trkpt>
      <trkpt lat="44.51458" lon="1.51986">
        <ele>217.4</ele>
        <time>2021-08-17T07:42:44Z</time>
      </trkpt>
      <trkpt lat="44.51452" lon="1.51985">
        <ele>217.4</ele>
        <time>2021-08-17T07:42:46Z</time>
      </trkpt>
      <trkpt lat="44.5145" lon="1.51985">
        <ele>217.4</ele>
        <time>2021-08-17T07:42:47Z</time>
      </trkpt>
      <trkpt lat="44.51437" lon="1.51984">
        <ele>218.36</ele>
        <time>2021-08-17T07:42:54Z</time>
      </trkpt>
      <trkpt lat="44.51424" lon="1.51982">
        <ele>219.32</ele>
        <time>2021-08-17T07:43:01Z</time>
      </trkpt>
      <trkpt lat="44.51411" lon="1.51977">
        <ele>217.4</ele>
        <time>2021-08-17T07:43:05Z</time>
      </trkpt>
      <trkpt lat="44.51391" lon="1.51966">
        <ele>216.91</ele>
        <time>2021-08-17T07:43:11Z</time>
      </trkpt>
      <trkpt lat="44.51369" lon="1.51955">
        <ele>216.43</ele>
        <time>2021-08-17T07:43:18Z</time>
      </trkpt>
      <trkpt lat="44.5134" lon="1.5194">
        <ele>214.51</ele>
        <time>2021-08-17T07:43:25Z</time>
      </trkpt>
      <trkpt lat="44.51325" lon="1.51941">
        <ele>215.95</ele>
        <time>2021-08-17T07:43:30Z</time>
      </trkpt>
      <trkpt lat="44.51306" lon="1.51944">
        <ele>214.51</ele>
        <time>2021-08-17T07:43:36Z</time>
      </trkpt>
      <trkpt lat="44.51275" lon="1.51952">
        <ele>213.55</ele>
        <time>2021-08-17T07:43:43Z</time>
      </trkpt>
      <trkpt lat="44.51247" lon="1.51955">
        <ele>213.55</ele>
        <time>2021-08-17T07:43:50Z</time>
      </trkpt>
      <trkpt lat="44.51215" lon="1.51956">
        <ele>212.11</ele>
        <time>2021-08-17T07:43:58Z</time>
      </trkpt>
      <trkpt lat="44.51196" lon="1.51946">
        <ele>212.11</ele>
        <time>2021-08-17T07:44:03Z</time>
      </trkpt>
      <trkpt lat="44.51166" lon="1.51927">
        <ele>211.63</ele>
        <time>2021-08-17T07:44:11Z</time>
      </trkpt>
      <trkpt lat="44.5114" lon="1.51913">
        <ele>211.63</ele>
        <time>2021-08-17T07:44:18Z</time>
      </trkpt>
      <trkpt lat="44.51114" lon="1.51901">
        <ele>210.67</ele>
        <time>2021-08-17T07:44:23Z</time>
      </trkpt>
      <trkpt lat="44.511" lon="1.51889">
        <ele>211.63</ele>
        <time>2021-08-17T07:44:27Z</time>
      </trkpt>
      <trkpt lat="44.5109" lon="1.51883">
        <ele>213.55</ele>
        <time>2021-08-17T07:44:33Z</time>
      </trkpt>
      <trkpt lat="44.51078" lon="1.51872">
        <ele>213.55</ele>
        <time>2021-08-17T07:44:39Z</time>
      </trkpt>
      <trkpt lat="44.51071" lon="1.51868">
        <ele>213.55</ele>
        <time>2021-08-17T07:44:41Z</time>
      </trkpt>
      <trkpt lat="44.51069" lon="1.51865">
        <ele>213.55</ele>
        <time>2021-08-17T07:44:42Z</time>
      </trkpt>
      <trkpt lat="44.51066" lon="1.51862">
        <ele>213.55</ele>
        <time>2021-08-17T07:44:43Z</time>
      </trkpt>
      <trkpt lat="44.51063" lon="1.51859">
        <ele>213.55</ele>
        <time>2021-08-17T07:44:44Z</time>
      </trkpt>
      <trkpt lat="44.5106" lon="1.51855">
        <ele>211.63</ele>
        <time>2021-08-17T07:44:45Z</time>
      </trkpt>
      <trkpt lat="44.51057" lon="1.51851">
        <ele>211.63</ele>
        <time>2021-08-17T07:44:46Z</time>
      </trkpt>
      <trkpt lat="44.51048" lon="1.51842">
        <ele>211.63</ele>
        <time>2021-08-17T07:44:50Z</time>
      </trkpt>
      <trkpt lat="44.51038" lon="1.51833">
        <ele>210.67</ele>
        <time>2021-08-17T07:44:53Z</time>
      </trkpt>
      <trkpt lat="44.51019" lon="1.51815">
        <ele>210.67</ele>
        <time>2021-08-17T07:44:59Z</time>
      </trkpt>
      <trkpt lat="44.51009" lon="1.51809">
        <ele>210.67</ele>
        <time>2021-08-17T07:45:04Z</time>
      </trkpt>
      <trkpt lat="44.51008" lon="1.51807">
        <ele>210.67</ele>
        <time>2021-08-17T07:45:05Z</time>
      </trkpt>
      <trkpt lat="44.51007" lon="1.51805">
        <ele>210.67</ele>
        <time>2021-08-17T07:45:06Z</time>
      </trkpt>
      <trkpt lat="44.51005" lon="1.51803">
        <ele>210.67</ele>
        <time>2021-08-17T07:45:07Z</time>
      </trkpt>
      <trkpt lat="44.50995" lon="1.51795">
        <ele>210.67</ele>
        <time>2021-08-17T07:45:11Z</time>
      </trkpt>
      <trkpt lat="44.50993" lon="1.51793">
        <ele>210.67</ele>
        <time>2021-08-17T07:45:12Z</time>
      </trkpt>
      <trkpt lat="44.50971" lon="1.51775">
        <ele>210.19</ele>
        <time>2021-08-17T07:45:19Z</time>
      </trkpt>
      <trkpt lat="44.50945" lon="1.51761">
        <ele>207.78</ele>
        <time>2021-08-17T07:45:25Z</time>
      </trkpt>
      <trkpt lat="44.50941" lon="1.51757">
        <ele>207.78</ele>
        <time>2021-08-17T07:45:26Z</time>
      </trkpt>
      <trkpt lat="44.50938" lon="1.51753">
        <ele>207.78</ele>
        <time>2021-08-17T07:45:27Z</time>
      </trkpt>
      <trkpt lat="44.50934" lon="1.51749">
        <ele>207.3</ele>
        <time>2021-08-17T07:45:28Z</time>
      </trkpt>
      <trkpt lat="44.50931" lon="1.51745">
        <ele>206.82</ele>
        <time>2021-08-17T07:45:29Z</time>
      </trkpt>
      <trkpt lat="44.50928" lon="1.51742">
        <ele>206.82</ele>
        <time>2021-08-17T07:45:30Z</time>
      </trkpt>
      <trkpt lat="44.50915" lon="1.51725">
        <ele>207.3</ele>
        <time>2021-08-17T07:45:35Z</time>
      </trkpt>
      <trkpt lat="44.509" lon="1.51707">
        <ele>207.3</ele>
        <time>2021-08-17T07:45:41Z</time>
      </trkpt>
      <trkpt lat="44.50892" lon="1.51695">
        <ele>207.3</ele>
        <time>2021-08-17T07:45:45Z</time>
      </trkpt>
      <trkpt lat="44.50889" lon="1.51692">
        <ele>207.3</ele>
        <time>2021-08-17T07:45:46Z</time>
      </trkpt>
      <trkpt lat="44.50885" lon="1.51688">
        <ele>206.82</ele>
        <time>2021-08-17T07:45:47Z</time>
      </trkpt>
      <trkpt lat="44.50882" lon="1.51684">
        <ele>206.34</ele>
        <time>2021-08-17T07:45:48Z</time>
      </trkpt>
      <trkpt lat="44.50879" lon="1.5168">
        <ele>206.34</ele>
        <time>2021-08-17T07:45:49Z</time>
      </trkpt>
      <trkpt lat="44.50876" lon="1.51676">
        <ele>206.34</ele>
        <time>2021-08-17T07:45:50Z</time>
      </trkpt>
      <trkpt lat="44.50865" lon="1.51657">
        <ele>205.86</ele>
        <time>2021-08-17T07:45:55Z</time>
      </trkpt>
      <trkpt lat="44.50861" lon="1.51646">
        <ele>205.86</ele>
        <time>2021-08-17T07:45:59Z</time>
      </trkpt>
      <trkpt lat="44.50859" lon="1.51643">
        <ele>205.86</ele>
        <time>2021-08-17T07:46:00Z</time>
      </trkpt>
      <trkpt lat="44.50857" lon="1.5164">
        <ele>205.86</ele>
        <time>2021-08-17T07:46:01Z</time>
      </trkpt>
      <trkpt lat="44.50854" lon="1.51637">
        <ele>205.86</ele>
        <time>2021-08-17T07:46:02Z</time>
      </trkpt>
      <trkpt lat="44.50852" lon="1.51635">
        <ele>205.86</ele>
        <time>2021-08-17T07:46:03Z</time>
      </trkpt>
      <trkpt lat="44.50831" lon="1.51609">
        <ele>207.3</ele>
        <time>2021-08-17T07:46:10Z</time>
      </trkpt>
      <trkpt lat="44.50818" lon="1.51598">
        <ele>208.26</ele>
        <time>2021-08-17T07:46:17Z</time>
      </trkpt>
      <trkpt lat="44.50813" lon="1.51598">
        <ele>208.26</ele>
        <time>2021-08-17T07:46:19Z</time>
      </trkpt>
      <trkpt lat="44.50785" lon="1.51595">
        <ele>203.94</ele>
        <time>2021-08-17T07:46:24Z</time>
      </trkpt>
      <trkpt lat="44.50773" lon="1.51591">
        <ele>203.94</ele>
        <time>2021-08-17T07:46:28Z</time>
      </trkpt>
      <trkpt lat="44.50765" lon="1.51587">
        <ele>203.94</ele>
        <time>2021-08-17T07:46:35Z</time>
      </trkpt>
      <trkpt lat="44.50746" lon="1.51575">
        <ele>204.42</ele>
        <time>2021-08-17T07:46:42Z</time>
      </trkpt>
      <trkpt lat="44.50728" lon="1.51559">
        <ele>205.38</ele>
        <time>2021-08-17T07:46:48Z</time>
      </trkpt>
      <trkpt lat="44.50725" lon="1.51556">
        <ele>205.38</ele>
        <time>2021-08-17T07:46:49Z</time>
      </trkpt>
      <trkpt lat="44.50704" lon="1.51534">
        <ele>202.98</ele>
        <time>2021-08-17T07:46:55Z</time>
      </trkpt>
      <trkpt lat="44.50696" lon="1.51525">
        <ele>202.01</ele>
        <time>2021-08-17T07:46:57Z</time>
      </trkpt>
      <trkpt lat="44.50692" lon="1.5152">
        <ele>202.01</ele>
        <time>2021-08-17T07:46:58Z</time>
      </trkpt>
      <trkpt lat="44.50687" lon="1.51515">
        <ele>202.01</ele>
        <time>2021-08-17T07:46:59Z</time>
      </trkpt>
      <trkpt lat="44.50684" lon="1.5151">
        <ele>202.01</ele>
        <time>2021-08-17T07:47:00Z</time>
      </trkpt>
      <trkpt lat="44.50681" lon="1.51504">
        <ele>202.01</ele>
        <time>2021-08-17T07:47:01Z</time>
      </trkpt>
      <trkpt lat="44.50676" lon="1.51493">
        <ele>202.01</ele>
        <time>2021-08-17T07:47:03Z</time>
      </trkpt>
      <trkpt lat="44.50674" lon="1.51487">
        <ele>202.01</ele>
        <time>2021-08-17T07:47:04Z</time>
      </trkpt>
      <trkpt lat="44.50659" lon="1.51444">
        <ele>202.01</ele>
        <time>2021-08-17T07:47:12Z</time>
      </trkpt>
      <trkpt lat="44.50655" lon="1.51426">
        <ele>202.01</ele>
        <time>2021-08-17T07:47:17Z</time>
      </trkpt>
      <trkpt lat="44.50655" lon="1.51423">
        <ele>202.01</ele>
        <time>2021-08-17T07:47:18Z</time>
      </trkpt>
      <trkpt lat="44.50654" lon="1.51418">
        <ele>202.98</ele>
        <time>2021-08-17T07:47:19Z</time>
      </trkpt>
      <trkpt lat="44.50653" lon="1.51413">
        <ele>203.46</ele>
        <time>2021-08-17T07:47:20Z</time>
      </trkpt>
      <trkpt lat="44.50651" lon="1.51407">
        <ele>203.46</ele>
        <time>2021-08-17T07:47:21Z</time>
      </trkpt>
      <trkpt lat="44.50649" lon="1.51401">
        <ele>203.46</ele>
        <time>2021-08-17T07:47:22Z</time>
      </trkpt>
      <trkpt lat="44.50647" lon="1.51395">
        <ele>203.46</ele>
        <time>2021-08-17T07:47:23Z</time>
      </trkpt>
      <trkpt lat="44.50646" lon="1.51389">
        <ele>203.46</ele>
        <time>2021-08-17T07:47:24Z</time>
      </trkpt>
      <trkpt lat="44.50635" lon="1.51355">
        <ele>203.46</ele>
        <time>2021-08-17T07:47:31Z</time>
      </trkpt>
      <trkpt lat="44.50629" lon="1.51338">
        <ele>201.53</ele>
        <time>2021-08-17T07:47:34Z</time>
      </trkpt>
      <trkpt lat="44.50626" lon="1.51331">
        <ele>201.53</ele>
        <time>2021-08-17T07:47:35Z</time>
      </trkpt>
      <trkpt lat="44.50624" lon="1.51325">
        <ele>201.05</ele>
        <time>2021-08-17T07:47:36Z</time>
      </trkpt>
      <trkpt lat="44.50617" lon="1.51298">
        <ele>200.57</ele>
        <time>2021-08-17T07:47:40Z</time>
      </trkpt>
      <trkpt lat="44.50614" lon="1.51284">
        <ele>200.09</ele>
        <time>2021-08-17T07:47:42Z</time>
      </trkpt>
      <trkpt lat="44.50613" lon="1.5127">
        <ele>200.09</ele>
        <time>2021-08-17T07:47:44Z</time>
      </trkpt>
      <trkpt lat="44.50611" lon="1.51263">
        <ele>199.13</ele>
        <time>2021-08-17T07:47:45Z</time>
      </trkpt>
      <trkpt lat="44.50608" lon="1.51257">
        <ele>199.13</ele>
        <time>2021-08-17T07:47:46Z</time>
      </trkpt>
      <trkpt lat="44.50605" lon="1.51252">
        <ele>199.13</ele>
        <time>2021-08-17T07:47:47Z</time>
      </trkpt>
      <trkpt lat="44.50601" lon="1.51247">
        <ele>199.13</ele>
        <time>2021-08-17T07:47:48Z</time>
      </trkpt>
      <trkpt lat="44.50597" lon="1.51244">
        <ele>199.13</ele>
        <time>2021-08-17T07:47:49Z</time>
      </trkpt>
      <trkpt lat="44.50593" lon="1.51241">
        <ele>199.13</ele>
        <time>2021-08-17T07:47:50Z</time>
      </trkpt>
      <trkpt lat="44.50589" lon="1.51239">
        <ele>199.13</ele>
        <time>2021-08-17T07:47:51Z</time>
      </trkpt>
      <trkpt lat="44.50585" lon="1.51237">
        <ele>199.13</ele>
        <time>2021-08-17T07:47:52Z</time>
      </trkpt>
      <trkpt lat="44.50582" lon="1.51236">
        <ele>199.13</ele>
        <time>2021-08-17T07:47:53Z</time>
      </trkpt>
      <trkpt lat="44.50578" lon="1.51234">
        <ele>199.13</ele>
        <time>2021-08-17T07:47:54Z</time>
      </trkpt>
      <trkpt lat="44.50575" lon="1.51232">
        <ele>199.13</ele>
        <time>2021-08-17T07:47:55Z</time>
      </trkpt>
      <trkpt lat="44.50572" lon="1.51229">
        <ele>199.13</ele>
        <time>2021-08-17T07:47:56Z</time>
      </trkpt>
      <trkpt lat="44.50557" lon="1.51216">
        <ele>199.13</ele>
        <time>2021-08-17T07:48:03Z</time>
      </trkpt>
      <trkpt lat="44.50547" lon="1.51209">
        <ele>201.05</ele>
        <time>2021-08-17T07:48:10Z</time>
      </trkpt>
      <trkpt lat="44.50546" lon="1.51207">
        <ele>201.05</ele>
        <time>2021-08-17T07:48:25Z</time>
      </trkpt>
      <trkpt lat="44.50548" lon="1.51207">
        <ele>201.05</ele>
        <time>2021-08-17T07:48:31Z</time>
      </trkpt>
      <trkpt lat="44.50548" lon="1.51201">
        <ele>179.42</ele>
        <time>2021-08-17T07:48:51Z</time>
      </trkpt>
      <trkpt lat="44.50548" lon="1.51198">
        <ele>178.94</ele>
        <time>2021-08-17T07:49:07Z</time>
      </trkpt>
      <trkpt lat="44.5055" lon="1.51199">
        <ele>180.87</ele>
        <time>2021-08-17T07:49:20Z</time>
      </trkpt>
      <trkpt lat="44.5055" lon="1.51197">
        <ele>184.23</ele>
        <time>2021-08-17T07:49:29Z</time>
      </trkpt>
      <trkpt lat="44.50547" lon="1.51198">
        <ele>187.11</ele>
        <time>2021-08-17T07:49:45Z</time>
      </trkpt>
      <trkpt lat="44.50547" lon="1.512">
        <ele>187.59</ele>
        <time>2021-08-17T07:49:55Z</time>
      </trkpt>
      <trkpt lat="44.50551" lon="1.51207">
        <ele>187.59</ele>
        <time>2021-08-17T07:49:58Z</time>
      </trkpt>
      <trkpt lat="44.50551" lon="1.5121">
        <ele>187.59</ele>
        <time>2021-08-17T07:49:59Z</time>
      </trkpt>
      <trkpt lat="44.50549" lon="1.51211">
        <ele>187.59</ele>
        <time>2021-08-17T07:50:00Z</time>
      </trkpt>
      <trkpt lat="44.50547" lon="1.51211">
        <ele>186.63</ele>
        <time>2021-08-17T07:50:01Z</time>
      </trkpt>
      <trkpt lat="44.50545" lon="1.5121">
        <ele>186.63</ele>
        <time>2021-08-17T07:50:02Z</time>
      </trkpt>
      <trkpt lat="44.50542" lon="1.51209">
        <ele>186.63</ele>
        <time>2021-08-17T07:50:03Z</time>
      </trkpt>
      <trkpt lat="44.50521" lon="1.51203">
        <ele>185.67</ele>
        <time>2021-08-17T07:50:10Z</time>
      </trkpt>
      <trkpt lat="44.50484" lon="1.51193">
        <ele>184.71</ele>
        <time>2021-08-17T07:50:18Z</time>
      </trkpt>
      <trkpt lat="44.50475" lon="1.51189">
        <ele>184.71</ele>
        <time>2021-08-17T07:50:20Z</time>
      </trkpt>
      <trkpt lat="44.50464" lon="1.5118">
        <ele>184.71</ele>
        <time>2021-08-17T07:50:23Z</time>
      </trkpt>
      <trkpt lat="44.50461" lon="1.51176">
        <ele>184.71</ele>
        <time>2021-08-17T07:50:24Z</time>
      </trkpt>
      <trkpt lat="44.50458" lon="1.51172">
        <ele>184.71</ele>
        <time>2021-08-17T07:50:25Z</time>
      </trkpt>
      <trkpt lat="44.50455" lon="1.51169">
        <ele>184.71</ele>
        <time>2021-08-17T07:50:26Z</time>
      </trkpt>
      <trkpt lat="44.50452" lon="1.51165">
        <ele>184.71</ele>
        <time>2021-08-17T07:50:27Z</time>
      </trkpt>
      <trkpt lat="44.5043" lon="1.51144">
        <ele>184.71</ele>
        <time>2021-08-17T07:50:33Z</time>
      </trkpt>
      <trkpt lat="44.50388" lon="1.51118">
        <ele>184.23</ele>
        <time>2021-08-17T07:50:42Z</time>
      </trkpt>
      <trkpt lat="44.50355" lon="1.51096">
        <ele>184.23</ele>
        <time>2021-08-17T07:50:50Z</time>
      </trkpt>
      <trkpt lat="44.5035" lon="1.51093">
        <ele>185.67</ele>
        <time>2021-08-17T07:50:52Z</time>
      </trkpt>
      <trkpt lat="44.50332" lon="1.5108">
        <ele>186.63</ele>
        <time>2021-08-17T07:51:00Z</time>
      </trkpt>
      <trkpt lat="44.50318" lon="1.51063">
        <ele>185.67</ele>
        <time>2021-08-17T07:51:05Z</time>
      </trkpt>
      <trkpt lat="44.50311" lon="1.51052">
        <ele>187.11</ele>
        <time>2021-08-17T07:51:11Z</time>
      </trkpt>
      <trkpt lat="44.5031" lon="1.51051">
        <ele>187.11</ele>
        <time>2021-08-17T07:51:12Z</time>
      </trkpt>
      <trkpt lat="44.50309" lon="1.5105">
        <ele>187.11</ele>
        <time>2021-08-17T07:51:13Z</time>
      </trkpt>
      <trkpt lat="44.50307" lon="1.51049">
        <ele>187.59</ele>
        <time>2021-08-17T07:51:14Z</time>
      </trkpt>
      <trkpt lat="44.50305" lon="1.51048">
        <ele>188.08</ele>
        <time>2021-08-17T07:51:15Z</time>
      </trkpt>
      <trkpt lat="44.50303" lon="1.51047">
        <ele>188.08</ele>
        <time>2021-08-17T07:51:16Z</time>
      </trkpt>
      <trkpt lat="44.503" lon="1.51048">
        <ele>188.08</ele>
        <time>2021-08-17T07:51:17Z</time>
      </trkpt>
      <trkpt lat="44.50298" lon="1.51049">
        <ele>188.08</ele>
        <time>2021-08-17T07:51:18Z</time>
      </trkpt>
      <trkpt lat="44.50295" lon="1.51051">
        <ele>188.08</ele>
        <time>2021-08-17T07:51:19Z</time>
      </trkpt>
      <trkpt lat="44.50293" lon="1.51053">
        <ele>188.08</ele>
        <time>2021-08-17T07:51:20Z</time>
      </trkpt>
      <trkpt lat="44.50272" lon="1.51077">
        <ele>185.67</ele>
        <time>2021-08-17T07:51:26Z</time>
      </trkpt>
      <trkpt lat="44.50264" lon="1.51089">
        <ele>184.71</ele>
        <time>2021-08-17T07:51:28Z</time>
      </trkpt>
      <trkpt lat="44.50257" lon="1.51102">
        <ele>183.75</ele>
        <time>2021-08-17T07:51:30Z</time>
      </trkpt>
      <trkpt lat="44.50253" lon="1.51108">
        <ele>183.27</ele>
        <time>2021-08-17T07:51:31Z</time>
      </trkpt>
      <trkpt lat="44.50248" lon="1.51112">
        <ele>183.27</ele>
        <time>2021-08-17T07:51:32Z</time>
      </trkpt>
      <trkpt lat="44.50244" lon="1.51113">
        <ele>183.27</ele>
        <time>2021-08-17T07:51:33Z</time>
      </trkpt>
      <trkpt lat="44.50239" lon="1.51114">
        <ele>182.79</ele>
        <time>2021-08-17T07:51:34Z</time>
      </trkpt>
      <trkpt lat="44.50234" lon="1.51113">
        <ele>182.79</ele>
        <time>2021-08-17T07:51:35Z</time>
      </trkpt>
      <trkpt lat="44.50224" lon="1.51113">
        <ele>181.35</ele>
        <time>2021-08-17T07:51:37Z</time>
      </trkpt>
      <trkpt lat="44.50218" lon="1.51113">
        <ele>180.38</ele>
        <time>2021-08-17T07:51:38Z</time>
      </trkpt>
      <trkpt lat="44.50208" lon="1.51114">
        <ele>179.9</ele>
        <time>2021-08-17T07:51:40Z</time>
      </trkpt>
      <trkpt lat="44.50204" lon="1.51118">
        <ele>178.94</ele>
        <time>2021-08-17T07:51:41Z</time>
      </trkpt>
      <trkpt lat="44.50202" lon="1.51125">
        <ele>178.46</ele>
        <time>2021-08-17T07:51:42Z</time>
      </trkpt>
      <trkpt lat="44.50201" lon="1.51132">
        <ele>177.98</ele>
        <time>2021-08-17T07:51:43Z</time>
      </trkpt>
      <trkpt lat="44.50199" lon="1.51139">
        <ele>177.98</ele>
        <time>2021-08-17T07:51:44Z</time>
      </trkpt>
      <trkpt lat="44.50194" lon="1.5117">
        <ele>177.98</ele>
        <time>2021-08-17T07:51:50Z</time>
      </trkpt>
      <trkpt lat="44.50193" lon="1.51184">
        <ele>179.42</ele>
        <time>2021-08-17T07:51:56Z</time>
      </trkpt>
      <trkpt lat="44.50193" lon="1.51186">
        <ele>179.42</ele>
        <time>2021-08-17T07:51:57Z</time>
      </trkpt>
      <trkpt lat="44.5019" lon="1.51191">
        <ele>180.38</ele>
        <time>2021-08-17T07:52:02Z</time>
      </trkpt>
      <trkpt lat="44.50189" lon="1.51191">
        <ele>180.38</ele>
        <time>2021-08-17T07:52:03Z</time>
      </trkpt>
      <trkpt lat="44.50175" lon="1.51187">
        <ele>180.38</ele>
        <time>2021-08-17T07:52:08Z</time>
      </trkpt>
      <trkpt lat="44.50171" lon="1.51186">
        <ele>178.94</ele>
        <time>2021-08-17T07:52:09Z</time>
      </trkpt>
      <trkpt lat="44.50165" lon="1.51186">
        <ele>178.94</ele>
        <time>2021-08-17T07:52:10Z</time>
      </trkpt>
      <trkpt lat="44.5016" lon="1.51186">
        <ele>178.94</ele>
        <time>2021-08-17T07:52:11Z</time>
      </trkpt>
      <trkpt lat="44.50155" lon="1.51187">
        <ele>178.94</ele>
        <time>2021-08-17T07:52:12Z</time>
      </trkpt>
      <trkpt lat="44.5015" lon="1.51189">
        <ele>178.46</ele>
        <time>2021-08-17T07:52:13Z</time>
      </trkpt>
      <trkpt lat="44.50145" lon="1.51192">
        <ele>178.46</ele>
        <time>2021-08-17T07:52:14Z</time>
      </trkpt>
      <trkpt lat="44.50139" lon="1.51195">
        <ele>177.5</ele>
        <time>2021-08-17T07:52:15Z</time>
      </trkpt>
      <trkpt lat="44.501" lon="1.51221">
        <ele>177.5</ele>
        <time>2021-08-17T07:52:22Z</time>
      </trkpt>
      <trkpt lat="44.50061" lon="1.51254">
        <ele>177.02</ele>
        <time>2021-08-17T07:52:30Z</time>
      </trkpt>
      <trkpt lat="44.50051" lon="1.51262">
        <ele>176.54</ele>
        <time>2021-08-17T07:52:32Z</time>
      </trkpt>
      <trkpt lat="44.50046" lon="1.51265">
        <ele>176.54</ele>
        <time>2021-08-17T07:52:33Z</time>
      </trkpt>
      <trkpt lat="44.50003" lon="1.51296">
        <ele>176.06</ele>
        <time>2021-08-17T07:52:42Z</time>
      </trkpt>
      <trkpt lat="44.49988" lon="1.51307">
        <ele>176.06</ele>
        <time>2021-08-17T07:52:45Z</time>
      </trkpt>
      <trkpt lat="44.49976" lon="1.51319">
        <ele>176.06</ele>
        <time>2021-08-17T07:52:48Z</time>
      </trkpt>
      <trkpt lat="44.49972" lon="1.51323">
        <ele>176.06</ele>
        <time>2021-08-17T07:52:49Z</time>
      </trkpt>
      <trkpt lat="44.49943" lon="1.5134">
        <ele>176.06</ele>
        <time>2021-08-17T07:52:56Z</time>
      </trkpt>
      <trkpt lat="44.49911" lon="1.51349">
        <ele>174.62</ele>
        <time>2021-08-17T07:53:02Z</time>
      </trkpt>
      <trkpt lat="44.499" lon="1.5135">
        <ele>174.62</ele>
        <time>2021-08-17T07:53:04Z</time>
      </trkpt>
      <trkpt lat="44.49894" lon="1.51349">
        <ele>173.66</ele>
        <time>2021-08-17T07:53:05Z</time>
      </trkpt>
      <trkpt lat="44.49889" lon="1.51347">
        <ele>173.66</ele>
        <time>2021-08-17T07:53:06Z</time>
      </trkpt>
      <trkpt lat="44.49884" lon="1.51345">
        <ele>172.69</ele>
        <time>2021-08-17T07:53:07Z</time>
      </trkpt>
      <trkpt lat="44.49878" lon="1.51344">
        <ele>172.69</ele>
        <time>2021-08-17T07:53:08Z</time>
      </trkpt>
      <trkpt lat="44.49873" lon="1.51344">
        <ele>172.69</ele>
        <time>2021-08-17T07:53:09Z</time>
      </trkpt>
      <trkpt lat="44.49868" lon="1.51346">
        <ele>172.69</ele>
        <time>2021-08-17T07:53:10Z</time>
      </trkpt>
      <trkpt lat="44.49864" lon="1.51349">
        <ele>172.69</ele>
        <time>2021-08-17T07:53:11Z</time>
      </trkpt>
      <trkpt lat="44.4986" lon="1.51352">
        <ele>172.69</ele>
        <time>2021-08-17T07:53:12Z</time>
      </trkpt>
      <trkpt lat="44.49856" lon="1.51355">
        <ele>172.69</ele>
        <time>2021-08-17T07:53:13Z</time>
      </trkpt>
      <trkpt lat="44.49853" lon="1.51358">
        <ele>172.69</ele>
        <time>2021-08-17T07:53:14Z</time>
      </trkpt>
      <trkpt lat="44.4985" lon="1.51361">
        <ele>172.69</ele>
        <time>2021-08-17T07:53:15Z</time>
      </trkpt>
      <trkpt lat="44.49828" lon="1.51376">
        <ele>174.62</ele>
        <time>2021-08-17T07:53:23Z</time>
      </trkpt>
      <trkpt lat="44.49813" lon="1.51384">
        <ele>174.62</ele>
        <time>2021-08-17T07:53:27Z</time>
      </trkpt>
      <trkpt lat="44.49803" lon="1.51388">
        <ele>173.66</ele>
        <time>2021-08-17T07:53:29Z</time>
      </trkpt>
      <trkpt lat="44.49783" lon="1.51394">
        <ele>173.66</ele>
        <time>2021-08-17T07:53:33Z</time>
      </trkpt>
      <trkpt lat="44.49752" lon="1.51403">
        <ele>172.21</ele>
        <time>2021-08-17T07:53:39Z</time>
      </trkpt>
      <trkpt lat="44.4974" lon="1.51403">
        <ele>171.73</ele>
        <time>2021-08-17T07:53:41Z</time>
      </trkpt>
      <trkpt lat="44.497" lon="1.51395">
        <ele>170.77</ele>
        <time>2021-08-17T07:53:48Z</time>
      </trkpt>
      <trkpt lat="44.4968" lon="1.51394">
        <ele>169.81</ele>
        <time>2021-08-17T07:53:52Z</time>
      </trkpt>
      <trkpt lat="44.49676" lon="1.51396">
        <ele>170.29</ele>
        <time>2021-08-17T07:53:53Z</time>
      </trkpt>
      <trkpt lat="44.49672" lon="1.51397">
        <ele>170.29</ele>
        <time>2021-08-17T07:53:54Z</time>
      </trkpt>
      <trkpt lat="44.49667" lon="1.51398">
        <ele>170.29</ele>
        <time>2021-08-17T07:53:55Z</time>
      </trkpt>
      <trkpt lat="44.49663" lon="1.514">
        <ele>170.29</ele>
        <time>2021-08-17T07:53:56Z</time>
      </trkpt>
      <trkpt lat="44.49659" lon="1.51402">
        <ele>170.29</ele>
        <time>2021-08-17T07:53:57Z</time>
      </trkpt>
      <trkpt lat="44.49645" lon="1.5141">
        <ele>170.29</ele>
        <time>2021-08-17T07:54:00Z</time>
      </trkpt>
      <trkpt lat="44.49618" lon="1.51431">
        <ele>169.33</ele>
        <time>2021-08-17T07:54:06Z</time>
      </trkpt>
      <trkpt lat="44.49608" lon="1.5144">
        <ele>169.33</ele>
        <time>2021-08-17T07:54:08Z</time>
      </trkpt>
      <trkpt lat="44.49581" lon="1.51454">
        <ele>168.37</ele>
        <time>2021-08-17T07:54:13Z</time>
      </trkpt>
      <trkpt lat="44.49547" lon="1.5146">
        <ele>167.89</ele>
        <time>2021-08-17T07:54:19Z</time>
      </trkpt>
      <trkpt lat="44.49518" lon="1.51467">
        <ele>167.89</ele>
        <time>2021-08-17T07:54:25Z</time>
      </trkpt>
      <trkpt lat="44.49509" lon="1.51473">
        <ele>168.85</ele>
        <time>2021-08-17T07:54:28Z</time>
      </trkpt>
      <trkpt lat="44.49496" lon="1.51484">
        <ele>170.77</ele>
        <time>2021-08-17T07:54:35Z</time>
      </trkpt>
      <trkpt lat="44.49487" lon="1.51486">
        <ele>171.25</ele>
        <time>2021-08-17T07:54:40Z</time>
      </trkpt>
      <trkpt lat="44.49485" lon="1.51485">
        <ele>171.25</ele>
        <time>2021-08-17T07:54:41Z</time>
      </trkpt>
      <trkpt lat="44.49476" lon="1.51478">
        <ele>169.81</ele>
        <time>2021-08-17T07:54:44Z</time>
      </trkpt>
      <trkpt lat="44.49472" lon="1.51477">
        <ele>169.33</ele>
        <time>2021-08-17T07:54:45Z</time>
      </trkpt>
      <trkpt lat="44.49452" lon="1.51478">
        <ele>166.93</ele>
        <time>2021-08-17T07:54:49Z</time>
      </trkpt>
      <trkpt lat="44.49408" lon="1.51486">
        <ele>165</ele>
        <time>2021-08-17T07:54:56Z</time>
      </trkpt>
      <trkpt lat="44.4937" lon="1.51477">
        <ele>165</ele>
        <time>2021-08-17T07:55:03Z</time>
      </trkpt>
      <trkpt lat="44.49361" lon="1.51474">
        <ele>165.48</ele>
        <time>2021-08-17T07:55:05Z</time>
      </trkpt>
      <trkpt lat="44.4933" lon="1.51454">
        <ele>165</ele>
        <time>2021-08-17T07:55:11Z</time>
      </trkpt>
      <trkpt lat="44.49301" lon="1.51433">
        <ele>164.04</ele>
        <time>2021-08-17T07:55:17Z</time>
      </trkpt>
      <trkpt lat="44.4929" lon="1.51424">
        <ele>163.08</ele>
        <time>2021-08-17T07:55:19Z</time>
      </trkpt>
      <trkpt lat="44.4927" lon="1.51403">
        <ele>161.64</ele>
        <time>2021-08-17T07:55:23Z</time>
      </trkpt>
      <trkpt lat="44.49264" lon="1.51399">
        <ele>161.64</ele>
        <time>2021-08-17T07:55:24Z</time>
      </trkpt>
      <trkpt lat="44.49257" lon="1.51398">
        <ele>161.64</ele>
        <time>2021-08-17T07:55:25Z</time>
      </trkpt>
      <trkpt lat="44.49252" lon="1.51398">
        <ele>161.64</ele>
        <time>2021-08-17T07:55:26Z</time>
      </trkpt>
      <trkpt lat="44.49247" lon="1.51398">
        <ele>161.64</ele>
        <time>2021-08-17T07:55:27Z</time>
      </trkpt>
      <trkpt lat="44.49228" lon="1.51403">
        <ele>163.08</ele>
        <time>2021-08-17T07:55:31Z</time>
      </trkpt>
      <trkpt lat="44.49192" lon="1.51408">
        <ele>161.64</ele>
        <time>2021-08-17T07:55:38Z</time>
      </trkpt>
      <trkpt lat="44.49169" lon="1.5141">
        <ele>161.64</ele>
        <time>2021-08-17T07:55:43Z</time>
      </trkpt>
      <trkpt lat="44.49165" lon="1.51411">
        <ele>163.56</ele>
        <time>2021-08-17T07:55:44Z</time>
      </trkpt>
      <trkpt lat="44.49161" lon="1.51411">
        <ele>163.56</ele>
        <time>2021-08-17T07:55:45Z</time>
      </trkpt>
      <trkpt lat="44.49145" lon="1.51411">
        <ele>164.04</ele>
        <time>2021-08-17T07:55:50Z</time>
      </trkpt>
      <trkpt lat="44.49137" lon="1.51412">
        <ele>162.6</ele>
        <time>2021-08-17T07:55:52Z</time>
      </trkpt>
      <trkpt lat="44.49133" lon="1.51411">
        <ele>162.6</ele>
        <time>2021-08-17T07:55:53Z</time>
      </trkpt>
      <trkpt lat="44.491" lon="1.51407">
        <ele>160.2</ele>
        <time>2021-08-17T07:55:59Z</time>
      </trkpt>
      <trkpt lat="44.49094" lon="1.51407">
        <ele>159.72</ele>
        <time>2021-08-17T07:56:00Z</time>
      </trkpt>
      <trkpt lat="44.49058" lon="1.51395">
        <ele>158.75</ele>
        <time>2021-08-17T07:56:06Z</time>
      </trkpt>
      <trkpt lat="44.49053" lon="1.51392">
        <ele>158.75</ele>
        <time>2021-08-17T07:56:07Z</time>
      </trkpt>
      <trkpt lat="44.49047" lon="1.51388">
        <ele>158.75</ele>
        <time>2021-08-17T07:56:08Z</time>
      </trkpt>
      <trkpt lat="44.49042" lon="1.51384">
        <ele>158.27</ele>
        <time>2021-08-17T07:56:09Z</time>
      </trkpt>
      <trkpt lat="44.49038" lon="1.51379">
        <ele>158.27</ele>
        <time>2021-08-17T07:56:10Z</time>
      </trkpt>
      <trkpt lat="44.49024" lon="1.51364">
        <ele>157.31</ele>
        <time>2021-08-17T07:56:13Z</time>
      </trkpt>
      <trkpt lat="44.48999" lon="1.51328">
        <ele>156.35</ele>
        <time>2021-08-17T07:56:19Z</time>
      </trkpt>
      <trkpt lat="44.48991" lon="1.51318">
        <ele>156.83</ele>
        <time>2021-08-17T07:56:21Z</time>
      </trkpt>
      <trkpt lat="44.48986" lon="1.51314">
        <ele>156.83</ele>
        <time>2021-08-17T07:56:22Z</time>
      </trkpt>
      <trkpt lat="44.48981" lon="1.51311">
        <ele>156.83</ele>
        <time>2021-08-17T07:56:23Z</time>
      </trkpt>
      <trkpt lat="44.48972" lon="1.51306">
        <ele>156.35</ele>
        <time>2021-08-17T07:56:25Z</time>
      </trkpt>
      <trkpt lat="44.48968" lon="1.51304">
        <ele>156.35</ele>
        <time>2021-08-17T07:56:26Z</time>
      </trkpt>
      <trkpt lat="44.48952" lon="1.51302">
        <ele>156.35</ele>
        <time>2021-08-17T07:56:29Z</time>
      </trkpt>
      <trkpt lat="44.48907" lon="1.51309">
        <ele>155.87</ele>
        <time>2021-08-17T07:56:37Z</time>
      </trkpt>
      <trkpt lat="44.48864" lon="1.51317">
        <ele>154.91</ele>
        <time>2021-08-17T07:56:44Z</time>
      </trkpt>
      <trkpt lat="44.48821" lon="1.51326">
        <ele>154.91</ele>
        <time>2021-08-17T07:56:52Z</time>
      </trkpt>
      <trkpt lat="44.48816" lon="1.51327">
        <ele>154.91</ele>
        <time>2021-08-17T07:56:53Z</time>
      </trkpt>
      <trkpt lat="44.48783" lon="1.5133">
        <ele>153.95</ele>
        <time>2021-08-17T07:56:59Z</time>
      </trkpt>
      <trkpt lat="44.4877" lon="1.51332">
        <ele>153.47</ele>
        <time>2021-08-17T07:57:01Z</time>
      </trkpt>
      <trkpt lat="44.48765" lon="1.51334">
        <ele>153.47</ele>
        <time>2021-08-17T07:57:02Z</time>
      </trkpt>
      <trkpt lat="44.4876" lon="1.51336">
        <ele>153.47</ele>
        <time>2021-08-17T07:57:03Z</time>
      </trkpt>
      <trkpt lat="44.48755" lon="1.51339">
        <ele>153.47</ele>
        <time>2021-08-17T07:57:04Z</time>
      </trkpt>
      <trkpt lat="44.4875" lon="1.51341">
        <ele>152.99</ele>
        <time>2021-08-17T07:57:05Z</time>
      </trkpt>
      <trkpt lat="44.48745" lon="1.51342">
        <ele>152.99</ele>
        <time>2021-08-17T07:57:06Z</time>
      </trkpt>
      <trkpt lat="44.48741" lon="1.51345">
        <ele>152.99</ele>
        <time>2021-08-17T07:57:07Z</time>
      </trkpt>
      <trkpt lat="44.48714" lon="1.51355">
        <ele>152.51</ele>
        <time>2021-08-17T07:57:12Z</time>
      </trkpt>
      <trkpt lat="44.48708" lon="1.51355">
        <ele>151.54</ele>
        <time>2021-08-17T07:57:13Z</time>
      </trkpt>
      <trkpt lat="44.48683" lon="1.51359">
        <ele>150.1</ele>
        <time>2021-08-17T07:57:17Z</time>
      </trkpt>
      <trkpt lat="44.48677" lon="1.51363">
        <ele>150.1</ele>
        <time>2021-08-17T07:57:18Z</time>
      </trkpt>
      <trkpt lat="44.48672" lon="1.51367">
        <ele>150.1</ele>
        <time>2021-08-17T07:57:19Z</time>
      </trkpt>
      <trkpt lat="44.48668" lon="1.51372">
        <ele>150.1</ele>
        <time>2021-08-17T07:57:20Z</time>
      </trkpt>
      <trkpt lat="44.48664" lon="1.51376">
        <ele>150.1</ele>
        <time>2021-08-17T07:57:21Z</time>
      </trkpt>
      <trkpt lat="44.4866" lon="1.51381">
        <ele>150.1</ele>
        <time>2021-08-17T07:57:22Z</time>
      </trkpt>
      <trkpt lat="44.48657" lon="1.51386">
        <ele>150.1</ele>
        <time>2021-08-17T07:57:23Z</time>
      </trkpt>
      <trkpt lat="44.48654" lon="1.51391">
        <ele>151.54</ele>
        <time>2021-08-17T07:57:24Z</time>
      </trkpt>
      <trkpt lat="44.48651" lon="1.51395">
        <ele>151.54</ele>
        <time>2021-08-17T07:57:25Z</time>
      </trkpt>
      <trkpt lat="44.48625" lon="1.51422">
        <ele>152.03</ele>
        <time>2021-08-17T07:57:33Z</time>
      </trkpt>
      <trkpt lat="44.48617" lon="1.51431">
        <ele>152.03</ele>
        <time>2021-08-17T07:57:35Z</time>
      </trkpt>
      <trkpt lat="44.48613" lon="1.51435">
        <ele>152.03</ele>
        <time>2021-08-17T07:57:36Z</time>
      </trkpt>
      <trkpt lat="44.48592" lon="1.51459">
        <ele>150.1</ele>
        <time>2021-08-17T07:57:41Z</time>
      </trkpt>
      <trkpt lat="44.48582" lon="1.51466">
        <ele>150.1</ele>
        <time>2021-08-17T07:57:43Z</time>
      </trkpt>
      <trkpt lat="44.48558" lon="1.51479">
        <ele>150.1</ele>
        <time>2021-08-17T07:57:48Z</time>
      </trkpt>
      <trkpt lat="44.48527" lon="1.51499">
        <ele>148.66</ele>
        <time>2021-08-17T07:57:55Z</time>
      </trkpt>
      <trkpt lat="44.48502" lon="1.51513">
        <ele>149.14</ele>
        <time>2021-08-17T07:58:01Z</time>
      </trkpt>
      <trkpt lat="44.48494" lon="1.51517">
        <ele>149.14</ele>
        <time>2021-08-17T07:58:03Z</time>
      </trkpt>
      <trkpt lat="44.48478" lon="1.51528">
        <ele>148.18</ele>
        <time>2021-08-17T07:58:06Z</time>
      </trkpt>
      <trkpt lat="44.48456" lon="1.51547">
        <ele>146.74</ele>
        <time>2021-08-17T07:58:10Z</time>
      </trkpt>
      <trkpt lat="44.48446" lon="1.51556">
        <ele>146.74</ele>
        <time>2021-08-17T07:58:12Z</time>
      </trkpt>
      <trkpt lat="44.4844" lon="1.51558">
        <ele>146.74</ele>
        <time>2021-08-17T07:58:13Z</time>
      </trkpt>
      <trkpt lat="44.48429" lon="1.5156">
        <ele>145.3</ele>
        <time>2021-08-17T07:58:15Z</time>
      </trkpt>
      <trkpt lat="44.48416" lon="1.51559">
        <ele>144.82</ele>
        <time>2021-08-17T07:58:17Z</time>
      </trkpt>
      <trkpt lat="44.48404" lon="1.51562">
        <ele>144.82</ele>
        <time>2021-08-17T07:58:19Z</time>
      </trkpt>
      <trkpt lat="44.484" lon="1.51566">
        <ele>144.82</ele>
        <time>2021-08-17T07:58:20Z</time>
      </trkpt>
      <trkpt lat="44.48397" lon="1.51571">
        <ele>144.82</ele>
        <time>2021-08-17T07:58:21Z</time>
      </trkpt>
      <trkpt lat="44.48396" lon="1.51577">
        <ele>143.85</ele>
        <time>2021-08-17T07:58:22Z</time>
      </trkpt>
      <trkpt lat="44.48397" lon="1.51583">
        <ele>144.34</ele>
        <time>2021-08-17T07:58:23Z</time>
      </trkpt>
      <trkpt lat="44.48398" lon="1.51589">
        <ele>144.34</ele>
        <time>2021-08-17T07:58:24Z</time>
      </trkpt>
      <trkpt lat="44.48399" lon="1.51594">
        <ele>144.34</ele>
        <time>2021-08-17T07:58:25Z</time>
      </trkpt>
      <trkpt lat="44.484" lon="1.51598">
        <ele>144.34</ele>
        <time>2021-08-17T07:58:26Z</time>
      </trkpt>
      <trkpt lat="44.48402" lon="1.51601">
        <ele>144.34</ele>
        <time>2021-08-17T07:58:27Z</time>
      </trkpt>
      <trkpt lat="44.48404" lon="1.51603">
        <ele>144.34</ele>
        <time>2021-08-17T07:58:28Z</time>
      </trkpt>
      <trkpt lat="44.48406" lon="1.51606">
        <ele>144.34</ele>
        <time>2021-08-17T07:58:29Z</time>
      </trkpt>
      <trkpt lat="44.48409" lon="1.51608">
        <ele>144.34</ele>
        <time>2021-08-17T07:58:30Z</time>
      </trkpt>
      <trkpt lat="44.48416" lon="1.51619">
        <ele>145.3</ele>
        <time>2021-08-17T07:58:33Z</time>
      </trkpt>
      <trkpt lat="44.48416" lon="1.51636">
        <ele>145.3</ele>
        <time>2021-08-17T07:58:36Z</time>
      </trkpt>
      <trkpt lat="44.48413" lon="1.51647">
        <ele>145.3</ele>
        <time>2021-08-17T07:58:38Z</time>
      </trkpt>
      <trkpt lat="44.484" lon="1.5168">
        <ele>145.3</ele>
        <time>2021-08-17T07:58:44Z</time>
      </trkpt>
      <trkpt lat="44.48398" lon="1.51686">
        <ele>145.3</ele>
        <time>2021-08-17T07:58:45Z</time>
      </trkpt>
      <trkpt lat="44.48386" lon="1.5172">
        <ele>142.89</ele>
        <time>2021-08-17T07:58:50Z</time>
      </trkpt>
      <trkpt lat="44.48384" lon="1.51725">
        <ele>142.89</ele>
        <time>2021-08-17T07:58:51Z</time>
      </trkpt>
      <trkpt lat="44.48374" lon="1.51756">
        <ele>144.34</ele>
        <time>2021-08-17T07:58:57Z</time>
      </trkpt>
      <trkpt lat="44.4836" lon="1.51794">
        <ele>144.34</ele>
        <time>2021-08-17T07:59:04Z</time>
      </trkpt>
      <trkpt lat="44.48341" lon="1.51833">
        <ele>145.3</ele>
        <time>2021-08-17T07:59:12Z</time>
      </trkpt>
      <trkpt lat="44.48332" lon="1.5185">
        <ele>145.3</ele>
        <time>2021-08-17T07:59:16Z</time>
      </trkpt>
      <trkpt lat="44.48305" lon="1.51883">
        <ele>143.37</ele>
        <time>2021-08-17T07:59:23Z</time>
      </trkpt>
      <trkpt lat="44.48292" lon="1.51899">
        <ele>141.93</ele>
        <time>2021-08-17T07:59:26Z</time>
      </trkpt>
      <trkpt lat="44.48287" lon="1.51904">
        <ele>141.93</ele>
        <time>2021-08-17T07:59:27Z</time>
      </trkpt>
      <trkpt lat="44.48261" lon="1.51923">
        <ele>141.93</ele>
        <time>2021-08-17T07:59:33Z</time>
      </trkpt>
      <trkpt lat="44.48248" lon="1.51929">
        <ele>144.34</ele>
        <time>2021-08-17T07:59:39Z</time>
      </trkpt>
      <trkpt lat="44.48229" lon="1.51939">
        <ele>144.34</ele>
        <time>2021-08-17T07:59:45Z</time>
      </trkpt>
      <trkpt lat="44.48211" lon="1.51953">
        <ele>141.45</ele>
        <time>2021-08-17T07:59:49Z</time>
      </trkpt>
      <trkpt lat="44.48205" lon="1.51956">
        <ele>140.49</ele>
        <time>2021-08-17T07:59:50Z</time>
      </trkpt>
      <trkpt lat="44.48198" lon="1.51957">
        <ele>140.49</ele>
        <time>2021-08-17T07:59:51Z</time>
      </trkpt>
      <trkpt lat="44.4819" lon="1.51959">
        <ele>139.53</ele>
        <time>2021-08-17T07:59:52Z</time>
      </trkpt>
      <trkpt lat="44.48176" lon="1.51961">
        <ele>139.05</ele>
        <time>2021-08-17T07:59:54Z</time>
      </trkpt>
      <trkpt lat="44.48164" lon="1.51968">
        <ele>139.05</ele>
        <time>2021-08-17T07:59:56Z</time>
      </trkpt>
      <trkpt lat="44.48159" lon="1.51975">
        <ele>139.05</ele>
        <time>2021-08-17T07:59:57Z</time>
      </trkpt>
      <trkpt lat="44.48156" lon="1.51982">
        <ele>139.05</ele>
        <time>2021-08-17T07:59:58Z</time>
      </trkpt>
      <trkpt lat="44.48154" lon="1.51989">
        <ele>139.05</ele>
        <time>2021-08-17T07:59:59Z</time>
      </trkpt>
      <trkpt lat="44.48152" lon="1.51996">
        <ele>139.05</ele>
        <time>2021-08-17T08:00:00Z</time>
      </trkpt>
      <trkpt lat="44.48151" lon="1.52001">
        <ele>139.05</ele>
        <time>2021-08-17T08:00:01Z</time>
      </trkpt>
      <trkpt lat="44.48149" lon="1.52011">
        <ele>140.49</ele>
        <time>2021-08-17T08:00:03Z</time>
      </trkpt>
      <trkpt lat="44.48136" lon="1.52049">
        <ele>140.97</ele>
        <time>2021-08-17T08:00:12Z</time>
      </trkpt>
      <trkpt lat="44.48117" lon="1.52098">
        <ele>140.97</ele>
        <time>2021-08-17T08:00:23Z</time>
      </trkpt>
      <trkpt lat="44.48108" lon="1.52129">
        <ele>141.93</ele>
        <time>2021-08-17T08:00:31Z</time>
      </trkpt>
      <trkpt lat="44.48108" lon="1.52159">
        <ele>142.41</ele>
        <time>2021-08-17T08:00:38Z</time>
      </trkpt>
      <trkpt lat="44.4812" lon="1.52199">
        <ele>142.41</ele>
        <time>2021-08-17T08:00:47Z</time>
      </trkpt>
      <trkpt lat="44.48128" lon="1.52215">
        <ele>143.37</ele>
        <time>2021-08-17T08:00:54Z</time>
      </trkpt>
      <trkpt lat="44.48129" lon="1.52219">
        <ele>143.85</ele>
        <time>2021-08-17T08:00:56Z</time>
      </trkpt>
      <trkpt lat="44.4813" lon="1.52221">
        <ele>143.85</ele>
        <time>2021-08-17T08:00:57Z</time>
      </trkpt>
      <trkpt lat="44.48131" lon="1.52223">
        <ele>144.34</ele>
        <time>2021-08-17T08:00:58Z</time>
      </trkpt>
      <trkpt lat="44.48132" lon="1.52225">
        <ele>144.34</ele>
        <time>2021-08-17T08:00:59Z</time>
      </trkpt>
      <trkpt lat="44.48133" lon="1.52227">
        <ele>144.34</ele>
        <time>2021-08-17T08:01:00Z</time>
      </trkpt>
      <trkpt lat="44.48134" lon="1.5223">
        <ele>144.34</ele>
        <time>2021-08-17T08:01:01Z</time>
      </trkpt>
      <trkpt lat="44.48139" lon="1.52244">
        <ele>145.3</ele>
        <time>2021-08-17T08:01:07Z</time>
      </trkpt>
      <trkpt lat="44.48145" lon="1.52265">
        <ele>146.74</ele>
        <time>2021-08-17T08:01:15Z</time>
      </trkpt>
      <trkpt lat="44.48149" lon="1.5229">
        <ele>147.7</ele>
        <time>2021-08-17T08:01:25Z</time>
      </trkpt>
      <trkpt lat="44.48148" lon="1.52313">
        <ele>149.14</ele>
        <time>2021-08-17T08:01:35Z</time>
      </trkpt>
      <trkpt lat="44.48145" lon="1.52324">
        <ele>150.1</ele>
        <time>2021-08-17T08:01:41Z</time>
      </trkpt>
      <trkpt lat="44.48144" lon="1.52333">
        <ele>151.06</ele>
        <time>2021-08-17T08:01:47Z</time>
      </trkpt>
      <trkpt lat="44.48145" lon="1.52349">
        <ele>152.03</ele>
        <time>2021-08-17T08:01:56Z</time>
      </trkpt>
      <trkpt lat="44.48144" lon="1.52359">
        <ele>152.99</ele>
        <time>2021-08-17T08:02:03Z</time>
      </trkpt>
      <trkpt lat="44.48145" lon="1.52361">
        <ele>153.47</ele>
        <time>2021-08-17T08:02:05Z</time>
      </trkpt>
      <trkpt lat="44.48145" lon="1.52367">
        <ele>153.95</ele>
        <time>2021-08-17T08:02:09Z</time>
      </trkpt>
      <trkpt lat="44.48145" lon="1.52377">
        <ele>155.39</ele>
        <time>2021-08-17T08:02:17Z</time>
      </trkpt>
      <trkpt lat="44.48145" lon="1.52386">
        <ele>156.35</ele>
        <time>2021-08-17T08:02:23Z</time>
      </trkpt>
      <trkpt lat="44.48145" lon="1.52387">
        <ele>156.35</ele>
        <time>2021-08-17T08:02:24Z</time>
      </trkpt>
      <trkpt lat="44.48145" lon="1.52389">
        <ele>156.35</ele>
        <time>2021-08-17T08:02:25Z</time>
      </trkpt>
      <trkpt lat="44.48145" lon="1.52391">
        <ele>156.35</ele>
        <time>2021-08-17T08:02:26Z</time>
      </trkpt>
      <trkpt lat="44.48145" lon="1.52392">
        <ele>156.83</ele>
        <time>2021-08-17T08:02:27Z</time>
      </trkpt>
      <trkpt lat="44.48145" lon="1.52395">
        <ele>156.83</ele>
        <time>2021-08-17T08:02:33Z</time>
      </trkpt>
      <trkpt lat="44.48145" lon="1.5241">
        <ele>157.31</ele>
        <time>2021-08-17T08:02:41Z</time>
      </trkpt>
      <trkpt lat="44.48143" lon="1.52427">
        <ele>159.24</ele>
        <time>2021-08-17T08:02:49Z</time>
      </trkpt>
      <trkpt lat="44.48143" lon="1.52445">
        <ele>160.2</ele>
        <time>2021-08-17T08:02:58Z</time>
      </trkpt>
      <trkpt lat="44.48143" lon="1.5246">
        <ele>161.16</ele>
        <time>2021-08-17T08:03:06Z</time>
      </trkpt>
      <trkpt lat="44.48144" lon="1.52479">
        <ele>162.6</ele>
        <time>2021-08-17T08:03:15Z</time>
      </trkpt>
      <trkpt lat="44.48144" lon="1.52499">
        <ele>164.04</ele>
        <time>2021-08-17T08:03:24Z</time>
      </trkpt>
      <trkpt lat="44.48145" lon="1.52501">
        <ele>164.04</ele>
        <time>2021-08-17T08:03:25Z</time>
      </trkpt>
      <trkpt lat="44.48145" lon="1.52503">
        <ele>164.04</ele>
        <time>2021-08-17T08:03:26Z</time>
      </trkpt>
      <trkpt lat="44.48146" lon="1.52527">
        <ele>165.48</ele>
        <time>2021-08-17T08:03:37Z</time>
      </trkpt>
      <trkpt lat="44.48146" lon="1.52531">
        <ele>165.96</ele>
        <time>2021-08-17T08:03:39Z</time>
      </trkpt>
      <trkpt lat="44.48146" lon="1.52533">
        <ele>165.96</ele>
        <time>2021-08-17T08:03:40Z</time>
      </trkpt>
      <trkpt lat="44.48149" lon="1.52551">
        <ele>166.45</ele>
        <time>2021-08-17T08:03:48Z</time>
      </trkpt>
      <trkpt lat="44.4815" lon="1.52567">
        <ele>167.41</ele>
        <time>2021-08-17T08:03:56Z</time>
      </trkpt>
      <trkpt lat="44.48151" lon="1.52589">
        <ele>169.33</ele>
        <time>2021-08-17T08:04:06Z</time>
      </trkpt>
      <trkpt lat="44.4815" lon="1.52608">
        <ele>170.77</ele>
        <time>2021-08-17T08:04:14Z</time>
      </trkpt>
      <trkpt lat="44.48146" lon="1.52631">
        <ele>171.73</ele>
        <time>2021-08-17T08:04:23Z</time>
      </trkpt>
      <trkpt lat="44.48144" lon="1.5265">
        <ele>172.69</ele>
        <time>2021-08-17T08:04:30Z</time>
      </trkpt>
      <trkpt lat="44.48144" lon="1.52652">
        <ele>172.69</ele>
        <time>2021-08-17T08:04:31Z</time>
      </trkpt>
      <trkpt lat="44.48144" lon="1.52654">
        <ele>173.17</ele>
        <time>2021-08-17T08:04:32Z</time>
      </trkpt>
      <trkpt lat="44.48143" lon="1.52657">
        <ele>173.17</ele>
        <time>2021-08-17T08:04:33Z</time>
      </trkpt>
      <trkpt lat="44.48143" lon="1.52659">
        <ele>173.17</ele>
        <time>2021-08-17T08:04:34Z</time>
      </trkpt>
      <trkpt lat="44.48142" lon="1.52661">
        <ele>173.17</ele>
        <time>2021-08-17T08:04:35Z</time>
      </trkpt>
      <trkpt lat="44.48142" lon="1.52663">
        <ele>173.17</ele>
        <time>2021-08-17T08:04:36Z</time>
      </trkpt>
      <trkpt lat="44.4814" lon="1.5268">
        <ele>174.14</ele>
        <time>2021-08-17T08:04:44Z</time>
      </trkpt>
      <trkpt lat="44.48138" lon="1.527">
        <ele>176.06</ele>
        <time>2021-08-17T08:04:54Z</time>
      </trkpt>
      <trkpt lat="44.48137" lon="1.52719">
        <ele>177.5</ele>
        <time>2021-08-17T08:05:03Z</time>
      </trkpt>
      <trkpt lat="44.48136" lon="1.52731">
        <ele>178.46</ele>
        <time>2021-08-17T08:05:10Z</time>
      </trkpt>
      <trkpt lat="44.48136" lon="1.52744">
        <ele>179.42</ele>
        <time>2021-08-17T08:05:18Z</time>
      </trkpt>
      <trkpt lat="44.48138" lon="1.5275">
        <ele>179.9</ele>
        <time>2021-08-17T08:05:22Z</time>
      </trkpt>
      <trkpt lat="44.48138" lon="1.52757">
        <ele>180.38</ele>
        <time>2021-08-17T08:05:26Z</time>
      </trkpt>
      <trkpt lat="44.4814" lon="1.52771">
        <ele>181.83</ele>
        <time>2021-08-17T08:05:34Z</time>
      </trkpt>
      <trkpt lat="44.48141" lon="1.52774">
        <ele>181.83</ele>
        <time>2021-08-17T08:05:36Z</time>
      </trkpt>
      <trkpt lat="44.48142" lon="1.52776">
        <ele>182.31</ele>
        <time>2021-08-17T08:05:37Z</time>
      </trkpt>
      <trkpt lat="44.48144" lon="1.52778">
        <ele>182.31</ele>
        <time>2021-08-17T08:05:39Z</time>
      </trkpt>
      <trkpt lat="44.48144" lon="1.5278">
        <ele>182.79</ele>
        <time>2021-08-17T08:05:40Z</time>
      </trkpt>
      <trkpt lat="44.48145" lon="1.52782">
        <ele>182.79</ele>
        <time>2021-08-17T08:05:41Z</time>
      </trkpt>
      <trkpt lat="44.48146" lon="1.52784">
        <ele>182.79</ele>
        <time>2021-08-17T08:05:42Z</time>
      </trkpt>
      <trkpt lat="44.48146" lon="1.52786">
        <ele>182.79</ele>
        <time>2021-08-17T08:05:43Z</time>
      </trkpt>
      <trkpt lat="44.48147" lon="1.52789">
        <ele>183.27</ele>
        <time>2021-08-17T08:05:44Z</time>
      </trkpt>
      <trkpt lat="44.48147" lon="1.52791">
        <ele>183.27</ele>
        <time>2021-08-17T08:05:45Z</time>
      </trkpt>
      <trkpt lat="44.48148" lon="1.52793">
        <ele>183.27</ele>
        <time>2021-08-17T08:05:46Z</time>
      </trkpt>
      <trkpt lat="44.48156" lon="1.52805">
        <ele>184.71</ele>
        <time>2021-08-17T08:05:56Z</time>
      </trkpt>
      <trkpt lat="44.48167" lon="1.52818">
        <ele>186.15</ele>
        <time>2021-08-17T08:06:06Z</time>
      </trkpt>
      <trkpt lat="44.48174" lon="1.52828">
        <ele>187.59</ele>
        <time>2021-08-17T08:06:13Z</time>
      </trkpt>
      <trkpt lat="44.48175" lon="1.52829">
        <ele>187.59</ele>
        <time>2021-08-17T08:06:14Z</time>
      </trkpt>
      <trkpt lat="44.48176" lon="1.5283">
        <ele>187.59</ele>
        <time>2021-08-17T08:06:15Z</time>
      </trkpt>
      <trkpt lat="44.48178" lon="1.52833">
        <ele>188.08</ele>
        <time>2021-08-17T08:06:17Z</time>
      </trkpt>
      <trkpt lat="44.48183" lon="1.5284">
        <ele>189.52</ele>
        <time>2021-08-17T08:06:22Z</time>
      </trkpt>
      <trkpt lat="44.48183" lon="1.52842">
        <ele>189.52</ele>
        <time>2021-08-17T08:06:23Z</time>
      </trkpt>
      <trkpt lat="44.48184" lon="1.52843">
        <ele>189.52</ele>
        <time>2021-08-17T08:06:24Z</time>
      </trkpt>
      <trkpt lat="44.4819" lon="1.52857">
        <ele>190.96</ele>
        <time>2021-08-17T08:06:32Z</time>
      </trkpt>
      <trkpt lat="44.48199" lon="1.52864">
        <ele>192.4</ele>
        <time>2021-08-17T08:06:40Z</time>
      </trkpt>
      <trkpt lat="44.482" lon="1.52862">
        <ele>192.4</ele>
        <time>2021-08-17T08:06:42Z</time>
      </trkpt>
      <trkpt lat="44.48201" lon="1.52861">
        <ele>192.88</ele>
        <time>2021-08-17T08:06:43Z</time>
      </trkpt>
      <trkpt lat="44.48201" lon="1.5286">
        <ele>192.88</ele>
        <time>2021-08-17T08:06:44Z</time>
      </trkpt>
      <trkpt lat="44.48201" lon="1.52858">
        <ele>193.36</ele>
        <time>2021-08-17T08:06:45Z</time>
      </trkpt>
      <trkpt lat="44.48202" lon="1.52857">
        <ele>193.36</ele>
        <time>2021-08-17T08:06:46Z</time>
      </trkpt>
      <trkpt lat="44.48202" lon="1.52854">
        <ele>193.36</ele>
        <time>2021-08-17T08:06:48Z</time>
      </trkpt>
      <trkpt lat="44.48202" lon="1.52852">
        <ele>193.36</ele>
        <time>2021-08-17T08:06:49Z</time>
      </trkpt>
      <trkpt lat="44.48202" lon="1.52851">
        <ele>193.84</ele>
        <time>2021-08-17T08:06:50Z</time>
      </trkpt>
      <trkpt lat="44.48201" lon="1.52849">
        <ele>193.84</ele>
        <time>2021-08-17T08:06:51Z</time>
      </trkpt>
      <trkpt lat="44.48201" lon="1.52848">
        <ele>193.84</ele>
        <time>2021-08-17T08:06:52Z</time>
      </trkpt>
      <trkpt lat="44.48201" lon="1.52846">
        <ele>193.84</ele>
        <time>2021-08-17T08:06:53Z</time>
      </trkpt>
      <trkpt lat="44.48198" lon="1.52829">
        <ele>195.28</ele>
        <time>2021-08-17T08:07:02Z</time>
      </trkpt>
      <trkpt lat="44.48201" lon="1.52813">
        <ele>196.73</ele>
        <time>2021-08-17T08:07:10Z</time>
      </trkpt>
      <trkpt lat="44.48202" lon="1.52804">
        <ele>197.21</ele>
        <time>2021-08-17T08:07:17Z</time>
      </trkpt>
      <trkpt lat="44.48208" lon="1.5279">
        <ele>199.13</ele>
        <time>2021-08-17T08:07:29Z</time>
      </trkpt>
      <trkpt lat="44.48213" lon="1.52779">
        <ele>200.09</ele>
        <time>2021-08-17T08:07:38Z</time>
      </trkpt>
      <trkpt lat="44.48218" lon="1.52768">
        <ele>201.53</ele>
        <time>2021-08-17T08:07:49Z</time>
      </trkpt>
      <trkpt lat="44.48223" lon="1.52758">
        <ele>202.98</ele>
        <time>2021-08-17T08:07:59Z</time>
      </trkpt>
      <trkpt lat="44.48229" lon="1.5276">
        <ele>203.94</ele>
        <time>2021-08-17T08:08:06Z</time>
      </trkpt>
      <trkpt lat="44.48231" lon="1.52763">
        <ele>204.42</ele>
        <time>2021-08-17T08:08:09Z</time>
      </trkpt>
      <trkpt lat="44.48231" lon="1.52765">
        <ele>204.42</ele>
        <time>2021-08-17T08:08:10Z</time>
      </trkpt>
      <trkpt lat="44.48233" lon="1.52774">
        <ele>205.38</ele>
        <time>2021-08-17T08:08:18Z</time>
      </trkpt>
      <trkpt lat="44.48235" lon="1.52783">
        <ele>206.82</ele>
        <time>2021-08-17T08:08:27Z</time>
      </trkpt>
      <trkpt lat="44.48242" lon="1.52793">
        <ele>208.26</ele>
        <time>2021-08-17T08:08:38Z</time>
      </trkpt>
      <trkpt lat="44.48247" lon="1.52801">
        <ele>209.7</ele>
        <time>2021-08-17T08:08:48Z</time>
      </trkpt>
      <trkpt lat="44.48252" lon="1.52806">
        <ele>210.67</ele>
        <time>2021-08-17T08:08:57Z</time>
      </trkpt>
      <trkpt lat="44.48258" lon="1.5281">
        <ele>212.11</ele>
        <time>2021-08-17T08:09:07Z</time>
      </trkpt>
      <trkpt lat="44.48264" lon="1.52816">
        <ele>213.07</ele>
        <time>2021-08-17T08:09:18Z</time>
      </trkpt>
      <trkpt lat="44.48264" lon="1.52817">
        <ele>213.07</ele>
        <time>2021-08-17T08:09:27Z</time>
      </trkpt>
      <trkpt lat="44.48265" lon="1.52818">
        <ele>213.07</ele>
        <time>2021-08-17T08:09:45Z</time>
      </trkpt>
      <trkpt lat="44.48266" lon="1.52818">
        <ele>213.07</ele>
        <time>2021-08-17T08:10:01Z</time>
      </trkpt>
      <trkpt lat="44.48265" lon="1.52817">
        <ele>213.55</ele>
        <time>2021-08-17T08:10:15Z</time>
      </trkpt>
      <trkpt lat="44.48264" lon="1.52817">
        <ele>213.55</ele>
        <time>2021-08-17T08:10:28Z</time>
      </trkpt>
      <trkpt lat="44.48266" lon="1.5282">
        <ele>213.55</ele>
        <time>2021-08-17T08:10:40Z</time>
      </trkpt>
      <trkpt lat="44.48265" lon="1.52819">
        <ele>213.55</ele>
        <time>2021-08-17T08:10:48Z</time>
      </trkpt>
      <trkpt lat="44.48267" lon="1.52818">
        <ele>213.55</ele>
        <time>2021-08-17T08:11:07Z</time>
      </trkpt>
      <trkpt lat="44.48267" lon="1.52819">
        <ele>213.55</ele>
        <time>2021-08-17T08:11:23Z</time>
      </trkpt>
      <trkpt lat="44.48266" lon="1.52817">
        <ele>213.55</ele>
        <time>2021-08-17T08:11:38Z</time>
      </trkpt>
      <trkpt lat="44.48266" lon="1.52817">
        <ele>213.55</ele>
        <time>2021-08-17T08:11:54Z</time>
      </trkpt>
      <trkpt lat="44.48271" lon="1.52818">
        <ele>214.51</ele>
        <time>2021-08-17T08:12:01Z</time>
      </trkpt>
      <trkpt lat="44.48276" lon="1.52821">
        <ele>215.47</ele>
        <time>2021-08-17T08:12:09Z</time>
      </trkpt>
      <trkpt lat="44.48284" lon="1.52824">
        <ele>216.43</ele>
        <time>2021-08-17T08:12:18Z</time>
      </trkpt>
      <trkpt lat="44.48285" lon="1.52825">
        <ele>216.91</ele>
        <time>2021-08-17T08:12:20Z</time>
      </trkpt>
      <trkpt lat="44.48294" lon="1.52829">
        <ele>218.36</ele>
        <time>2021-08-17T08:12:30Z</time>
      </trkpt>
      <trkpt lat="44.48302" lon="1.52831">
        <ele>219.8</ele>
        <time>2021-08-17T08:12:41Z</time>
      </trkpt>
      <trkpt lat="44.48312" lon="1.52834">
        <ele>221.24</ele>
        <time>2021-08-17T08:12:52Z</time>
      </trkpt>
      <trkpt lat="44.48319" lon="1.52839">
        <ele>223.16</ele>
        <time>2021-08-17T08:13:02Z</time>
      </trkpt>
      <trkpt lat="44.48327" lon="1.52839">
        <ele>224.61</ele>
        <time>2021-08-17T08:13:11Z</time>
      </trkpt>
      <trkpt lat="44.48327" lon="1.52838">
        <ele>224.61</ele>
        <time>2021-08-17T08:13:12Z</time>
      </trkpt>
      <trkpt lat="44.4833" lon="1.52829">
        <ele>225.57</ele>
        <time>2021-08-17T08:13:22Z</time>
      </trkpt>
      <trkpt lat="44.48331" lon="1.52827">
        <ele>226.05</ele>
        <time>2021-08-17T08:13:27Z</time>
      </trkpt>
      <trkpt lat="44.48332" lon="1.52825">
        <ele>226.05</ele>
        <time>2021-08-17T08:13:28Z</time>
      </trkpt>
      <trkpt lat="44.48332" lon="1.52823">
        <ele>226.05</ele>
        <time>2021-08-17T08:13:29Z</time>
      </trkpt>
      <trkpt lat="44.48332" lon="1.52821">
        <ele>226.05</ele>
        <time>2021-08-17T08:13:30Z</time>
      </trkpt>
      <trkpt lat="44.48332" lon="1.52819">
        <ele>226.53</ele>
        <time>2021-08-17T08:13:31Z</time>
      </trkpt>
      <trkpt lat="44.48333" lon="1.52817">
        <ele>226.53</ele>
        <time>2021-08-17T08:13:32Z</time>
      </trkpt>
      <trkpt lat="44.48334" lon="1.52815">
        <ele>226.53</ele>
        <time>2021-08-17T08:13:33Z</time>
      </trkpt>
      <trkpt lat="44.48335" lon="1.52813">
        <ele>226.53</ele>
        <time>2021-08-17T08:13:34Z</time>
      </trkpt>
      <trkpt lat="44.48336" lon="1.52811">
        <ele>227.01</ele>
        <time>2021-08-17T08:13:35Z</time>
      </trkpt>
      <trkpt lat="44.48338" lon="1.5281">
        <ele>227.01</ele>
        <time>2021-08-17T08:13:36Z</time>
      </trkpt>
      <trkpt lat="44.48343" lon="1.52808">
        <ele>227.97</ele>
        <time>2021-08-17T08:13:40Z</time>
      </trkpt>
      <trkpt lat="44.48344" lon="1.52808">
        <ele>227.97</ele>
        <time>2021-08-17T08:13:41Z</time>
      </trkpt>
      <trkpt lat="44.48345" lon="1.52809">
        <ele>227.97</ele>
        <time>2021-08-17T08:13:42Z</time>
      </trkpt>
      <trkpt lat="44.48347" lon="1.52809">
        <ele>227.97</ele>
        <time>2021-08-17T08:13:43Z</time>
      </trkpt>
      <trkpt lat="44.48348" lon="1.5281">
        <ele>227.97</ele>
        <time>2021-08-17T08:13:44Z</time>
      </trkpt>
      <trkpt lat="44.48349" lon="1.5281">
        <ele>228.45</ele>
        <time>2021-08-17T08:13:45Z</time>
      </trkpt>
      <trkpt lat="44.4835" lon="1.5281">
        <ele>228.45</ele>
        <time>2021-08-17T08:13:46Z</time>
      </trkpt>
      <trkpt lat="44.48352" lon="1.52809">
        <ele>228.45</ele>
        <time>2021-08-17T08:13:47Z</time>
      </trkpt>
      <trkpt lat="44.48353" lon="1.52809">
        <ele>228.45</ele>
        <time>2021-08-17T08:13:48Z</time>
      </trkpt>
      <trkpt lat="44.48355" lon="1.52809">
        <ele>229.41</ele>
        <time>2021-08-17T08:13:49Z</time>
      </trkpt>
      <trkpt lat="44.48356" lon="1.52809">
        <ele>229.41</ele>
        <time>2021-08-17T08:13:50Z</time>
      </trkpt>
      <trkpt lat="44.48369" lon="1.5281">
        <ele>230.85</ele>
        <time>2021-08-17T08:14:01Z</time>
      </trkpt>
      <trkpt lat="44.48371" lon="1.5281">
        <ele>230.85</ele>
        <time>2021-08-17T08:14:02Z</time>
      </trkpt>
      <trkpt lat="44.48372" lon="1.5281">
        <ele>231.33</ele>
        <time>2021-08-17T08:14:03Z</time>
      </trkpt>
      <trkpt lat="44.48373" lon="1.5281">
        <ele>231.33</ele>
        <time>2021-08-17T08:14:04Z</time>
      </trkpt>
      <trkpt lat="44.48374" lon="1.52811">
        <ele>231.33</ele>
        <time>2021-08-17T08:14:05Z</time>
      </trkpt>
      <trkpt lat="44.48375" lon="1.52811">
        <ele>231.81</ele>
        <time>2021-08-17T08:14:06Z</time>
      </trkpt>
      <trkpt lat="44.48377" lon="1.52811">
        <ele>231.81</ele>
        <time>2021-08-17T08:14:07Z</time>
      </trkpt>
      <trkpt lat="44.48378" lon="1.52811">
        <ele>231.81</ele>
        <time>2021-08-17T08:14:08Z</time>
      </trkpt>
      <trkpt lat="44.48379" lon="1.52811">
        <ele>232.3</ele>
        <time>2021-08-17T08:14:09Z</time>
      </trkpt>
      <trkpt lat="44.4838" lon="1.52811">
        <ele>232.3</ele>
        <time>2021-08-17T08:14:10Z</time>
      </trkpt>
      <trkpt lat="44.48382" lon="1.52811">
        <ele>232.3</ele>
        <time>2021-08-17T08:14:11Z</time>
      </trkpt>
      <trkpt lat="44.48392" lon="1.52811">
        <ele>233.74</ele>
        <time>2021-08-17T08:14:20Z</time>
      </trkpt>
      <trkpt lat="44.484" lon="1.52814">
        <ele>235.18</ele>
        <time>2021-08-17T08:14:28Z</time>
      </trkpt>
      <trkpt lat="44.48401" lon="1.52815">
        <ele>235.18</ele>
        <time>2021-08-17T08:14:29Z</time>
      </trkpt>
      <trkpt lat="44.48405" lon="1.52819">
        <ele>235.66</ele>
        <time>2021-08-17T08:14:35Z</time>
      </trkpt>
      <trkpt lat="44.48412" lon="1.52827">
        <ele>237.58</ele>
        <time>2021-08-17T08:14:46Z</time>
      </trkpt>
      <trkpt lat="44.48419" lon="1.52836">
        <ele>239.02</ele>
        <time>2021-08-17T08:14:56Z</time>
      </trkpt>
      <trkpt lat="44.48428" lon="1.52846">
        <ele>240.47</ele>
        <time>2021-08-17T08:15:07Z</time>
      </trkpt>
      <trkpt lat="44.48435" lon="1.52856">
        <ele>241.91</ele>
        <time>2021-08-17T08:15:17Z</time>
      </trkpt>
      <trkpt lat="44.48435" lon="1.52857">
        <ele>242.39</ele>
        <time>2021-08-17T08:15:18Z</time>
      </trkpt>
      <trkpt lat="44.48436" lon="1.52858">
        <ele>242.39</ele>
        <time>2021-08-17T08:15:19Z</time>
      </trkpt>
      <trkpt lat="44.48436" lon="1.5286">
        <ele>242.39</ele>
        <time>2021-08-17T08:15:20Z</time>
      </trkpt>
      <trkpt lat="44.48437" lon="1.5287">
        <ele>243.35</ele>
        <time>2021-08-17T08:15:28Z</time>
      </trkpt>
      <trkpt lat="44.48436" lon="1.52879">
        <ele>244.31</ele>
        <time>2021-08-17T08:15:36Z</time>
      </trkpt>
      <trkpt lat="44.48433" lon="1.52882">
        <ele>244.31</ele>
        <time>2021-08-17T08:15:40Z</time>
      </trkpt>
      <trkpt lat="44.48431" lon="1.52885">
        <ele>244.31</ele>
        <time>2021-08-17T08:15:41Z</time>
      </trkpt>
      <trkpt lat="44.4843" lon="1.52886">
        <ele>244.79</ele>
        <time>2021-08-17T08:15:42Z</time>
      </trkpt>
      <trkpt lat="44.48429" lon="1.52888">
        <ele>244.79</ele>
        <time>2021-08-17T08:15:43Z</time>
      </trkpt>
      <trkpt lat="44.48429" lon="1.5289">
        <ele>244.79</ele>
        <time>2021-08-17T08:15:44Z</time>
      </trkpt>
      <trkpt lat="44.4842" lon="1.52918">
        <ele>245.27</ele>
        <time>2021-08-17T08:15:53Z</time>
      </trkpt>
      <trkpt lat="44.48417" lon="1.5295">
        <ele>246.23</ele>
        <time>2021-08-17T08:16:01Z</time>
      </trkpt>
      <trkpt lat="44.4841" lon="1.52977">
        <ele>246.72</ele>
        <time>2021-08-17T08:16:09Z</time>
      </trkpt>
      <trkpt lat="44.48404" lon="1.53">
        <ele>247.68</ele>
        <time>2021-08-17T08:16:17Z</time>
      </trkpt>
      <trkpt lat="44.48398" lon="1.53026">
        <ele>249.12</ele>
        <time>2021-08-17T08:16:27Z</time>
      </trkpt>
      <trkpt lat="44.48396" lon="1.53032">
        <ele>250.08</ele>
        <time>2021-08-17T08:16:30Z</time>
      </trkpt>
      <trkpt lat="44.48396" lon="1.53034">
        <ele>250.08</ele>
        <time>2021-08-17T08:16:31Z</time>
      </trkpt>
      <trkpt lat="44.48396" lon="1.53036">
        <ele>250.08</ele>
        <time>2021-08-17T08:16:32Z</time>
      </trkpt>
      <trkpt lat="44.48396" lon="1.53038">
        <ele>250.08</ele>
        <time>2021-08-17T08:16:33Z</time>
      </trkpt>
      <trkpt lat="44.48396" lon="1.5304">
        <ele>250.08</ele>
        <time>2021-08-17T08:16:34Z</time>
      </trkpt>
      <trkpt lat="44.48394" lon="1.53062">
        <ele>252</ele>
        <time>2021-08-17T08:16:44Z</time>
      </trkpt>
      <trkpt lat="44.48393" lon="1.53086">
        <ele>253.44</ele>
        <time>2021-08-17T08:16:55Z</time>
      </trkpt>
      <trkpt lat="44.4839" lon="1.53107">
        <ele>253.93</ele>
        <time>2021-08-17T08:17:03Z</time>
      </trkpt>
      <trkpt lat="44.48388" lon="1.53129">
        <ele>255.37</ele>
        <time>2021-08-17T08:17:12Z</time>
      </trkpt>
      <trkpt lat="44.48386" lon="1.53139">
        <ele>255.85</ele>
        <time>2021-08-17T08:17:16Z</time>
      </trkpt>
      <trkpt lat="44.48386" lon="1.53141">
        <ele>255.85</ele>
        <time>2021-08-17T08:17:17Z</time>
      </trkpt>
      <trkpt lat="44.48385" lon="1.53144">
        <ele>256.81</ele>
        <time>2021-08-17T08:17:18Z</time>
      </trkpt>
      <trkpt lat="44.48371" lon="1.53169">
        <ele>256.33</ele>
        <time>2021-08-17T08:17:26Z</time>
      </trkpt>
      <trkpt lat="44.48354" lon="1.53205">
        <ele>256.33</ele>
        <time>2021-08-17T08:17:34Z</time>
      </trkpt>
      <trkpt lat="44.4834" lon="1.53233">
        <ele>254.89</ele>
        <time>2021-08-17T08:17:40Z</time>
      </trkpt>
      <trkpt lat="44.48336" lon="1.53238">
        <ele>253.93</ele>
        <time>2021-08-17T08:17:41Z</time>
      </trkpt>
      <trkpt lat="44.48322" lon="1.53256">
        <ele>252.96</ele>
        <time>2021-08-17T08:17:45Z</time>
      </trkpt>
      <trkpt lat="44.48319" lon="1.53261">
        <ele>252</ele>
        <time>2021-08-17T08:17:46Z</time>
      </trkpt>
      <trkpt lat="44.48313" lon="1.53276">
        <ele>251.52</ele>
        <time>2021-08-17T08:17:49Z</time>
      </trkpt>
      <trkpt lat="44.48313" lon="1.53281">
        <ele>251.52</ele>
        <time>2021-08-17T08:17:50Z</time>
      </trkpt>
      <trkpt lat="44.48314" lon="1.53284">
        <ele>251.52</ele>
        <time>2021-08-17T08:17:51Z</time>
      </trkpt>
      <trkpt lat="44.48315" lon="1.53287">
        <ele>251.52</ele>
        <time>2021-08-17T08:17:52Z</time>
      </trkpt>
      <trkpt lat="44.48317" lon="1.5329">
        <ele>251.52</ele>
        <time>2021-08-17T08:17:53Z</time>
      </trkpt>
      <trkpt lat="44.48318" lon="1.53292">
        <ele>251.52</ele>
        <time>2021-08-17T08:17:54Z</time>
      </trkpt>
      <trkpt lat="44.48319" lon="1.53294">
        <ele>251.52</ele>
        <time>2021-08-17T08:17:55Z</time>
      </trkpt>
      <trkpt lat="44.4832" lon="1.53296">
        <ele>251.52</ele>
        <time>2021-08-17T08:17:56Z</time>
      </trkpt>
      <trkpt lat="44.48321" lon="1.53297">
        <ele>251.52</ele>
        <time>2021-08-17T08:17:57Z</time>
      </trkpt>
      <trkpt lat="44.48326" lon="1.53301">
        <ele>252.96</ele>
        <time>2021-08-17T08:18:00Z</time>
      </trkpt>
      <trkpt lat="44.48337" lon="1.53312">
        <ele>254.41</ele>
        <time>2021-08-17T08:18:09Z</time>
      </trkpt>
      <trkpt lat="44.48342" lon="1.53316">
        <ele>255.37</ele>
        <time>2021-08-17T08:18:16Z</time>
      </trkpt>
      <trkpt lat="44.4835" lon="1.53324">
        <ele>256.81</ele>
        <time>2021-08-17T08:18:26Z</time>
      </trkpt>
      <trkpt lat="44.48356" lon="1.5333">
        <ele>257.77</ele>
        <time>2021-08-17T08:18:34Z</time>
      </trkpt>
      <trkpt lat="44.48361" lon="1.53333">
        <ele>258.25</ele>
        <time>2021-08-17T08:18:41Z</time>
      </trkpt>
      <trkpt lat="44.48367" lon="1.53338">
        <ele>259.21</ele>
        <time>2021-08-17T08:18:47Z</time>
      </trkpt>
      <trkpt lat="44.48376" lon="1.53347">
        <ele>260.65</ele>
        <time>2021-08-17T08:18:55Z</time>
      </trkpt>
      <trkpt lat="44.48383" lon="1.53353">
        <ele>261.14</ele>
        <time>2021-08-17T08:19:01Z</time>
      </trkpt>
      <trkpt lat="44.48384" lon="1.53354">
        <ele>261.14</ele>
        <time>2021-08-17T08:19:02Z</time>
      </trkpt>
      <trkpt lat="44.48385" lon="1.53355">
        <ele>261.62</ele>
        <time>2021-08-17T08:19:03Z</time>
      </trkpt>
      <trkpt lat="44.48386" lon="1.53356">
        <ele>261.62</ele>
        <time>2021-08-17T08:19:04Z</time>
      </trkpt>
      <trkpt lat="44.48387" lon="1.53356">
        <ele>261.62</ele>
        <time>2021-08-17T08:19:05Z</time>
      </trkpt>
      <trkpt lat="44.48388" lon="1.53357">
        <ele>262.1</ele>
        <time>2021-08-17T08:19:06Z</time>
      </trkpt>
      <trkpt lat="44.4839" lon="1.53358">
        <ele>262.1</ele>
        <time>2021-08-17T08:19:07Z</time>
      </trkpt>
      <trkpt lat="44.48391" lon="1.53359">
        <ele>262.58</ele>
        <time>2021-08-17T08:19:08Z</time>
      </trkpt>
      <trkpt lat="44.48392" lon="1.5336">
        <ele>262.58</ele>
        <time>2021-08-17T08:19:09Z</time>
      </trkpt>
      <trkpt lat="44.48402" lon="1.53367">
        <ele>263.54</ele>
        <time>2021-08-17T08:19:18Z</time>
      </trkpt>
      <trkpt lat="44.48405" lon="1.53369">
        <ele>264.02</ele>
        <time>2021-08-17T08:19:20Z</time>
      </trkpt>
      <trkpt lat="44.48406" lon="1.5337">
        <ele>264.02</ele>
        <time>2021-08-17T08:19:21Z</time>
      </trkpt>
      <trkpt lat="44.48407" lon="1.53371">
        <ele>264.5</ele>
        <time>2021-08-17T08:19:22Z</time>
      </trkpt>
      <trkpt lat="44.48409" lon="1.53373">
        <ele>264.5</ele>
        <time>2021-08-17T08:19:24Z</time>
      </trkpt>
      <trkpt lat="44.4841" lon="1.53374">
        <ele>264.98</ele>
        <time>2021-08-17T08:19:25Z</time>
      </trkpt>
      <trkpt lat="44.48411" lon="1.53375">
        <ele>264.98</ele>
        <time>2021-08-17T08:19:26Z</time>
      </trkpt>
      <trkpt lat="44.48412" lon="1.53376">
        <ele>264.98</ele>
        <time>2021-08-17T08:19:27Z</time>
      </trkpt>
      <trkpt lat="44.48414" lon="1.53376">
        <ele>265.46</ele>
        <time>2021-08-17T08:19:28Z</time>
      </trkpt>
      <trkpt lat="44.48416" lon="1.53379">
        <ele>265.46</ele>
        <time>2021-08-17T08:19:30Z</time>
      </trkpt>
      <trkpt lat="44.48417" lon="1.5338">
        <ele>265.46</ele>
        <time>2021-08-17T08:19:31Z</time>
      </trkpt>
      <trkpt lat="44.48428" lon="1.5339">
        <ele>267.38</ele>
        <time>2021-08-17T08:19:42Z</time>
      </trkpt>
      <trkpt lat="44.48437" lon="1.53398">
        <ele>269.31</ele>
        <time>2021-08-17T08:19:50Z</time>
      </trkpt>
      <trkpt lat="44.48447" lon="1.53408">
        <ele>270.75</ele>
        <time>2021-08-17T08:19:59Z</time>
      </trkpt>
      <trkpt lat="44.48448" lon="1.53408">
        <ele>270.75</ele>
        <time>2021-08-17T08:20:00Z</time>
      </trkpt>
      <trkpt lat="44.48449" lon="1.53409">
        <ele>270.75</ele>
        <time>2021-08-17T08:20:01Z</time>
      </trkpt>
      <trkpt lat="44.4845" lon="1.5341">
        <ele>271.23</ele>
        <time>2021-08-17T08:20:02Z</time>
      </trkpt>
      <trkpt lat="44.48452" lon="1.53411">
        <ele>271.23</ele>
        <time>2021-08-17T08:20:03Z</time>
      </trkpt>
      <trkpt lat="44.48453" lon="1.53412">
        <ele>271.71</ele>
        <time>2021-08-17T08:20:04Z</time>
      </trkpt>
      <trkpt lat="44.48454" lon="1.53413">
        <ele>271.71</ele>
        <time>2021-08-17T08:20:05Z</time>
      </trkpt>
      <trkpt lat="44.48455" lon="1.53415">
        <ele>271.71</ele>
        <time>2021-08-17T08:20:06Z</time>
      </trkpt>
      <trkpt lat="44.48456" lon="1.53416">
        <ele>272.19</ele>
        <time>2021-08-17T08:20:07Z</time>
      </trkpt>
      <trkpt lat="44.48457" lon="1.53417">
        <ele>272.19</ele>
        <time>2021-08-17T08:20:08Z</time>
      </trkpt>
      <trkpt lat="44.48458" lon="1.53418">
        <ele>272.19</ele>
        <time>2021-08-17T08:20:09Z</time>
      </trkpt>
      <trkpt lat="44.48459" lon="1.53419">
        <ele>272.67</ele>
        <time>2021-08-17T08:20:10Z</time>
      </trkpt>
      <trkpt lat="44.48467" lon="1.5343">
        <ele>273.63</ele>
        <time>2021-08-17T08:20:18Z</time>
      </trkpt>
      <trkpt lat="44.48478" lon="1.53444">
        <ele>275.07</ele>
        <time>2021-08-17T08:20:28Z</time>
      </trkpt>
      <trkpt lat="44.48482" lon="1.5345">
        <ele>275.56</ele>
        <time>2021-08-17T08:20:31Z</time>
      </trkpt>
      <trkpt lat="44.48483" lon="1.53452">
        <ele>275.56</ele>
        <time>2021-08-17T08:20:32Z</time>
      </trkpt>
      <trkpt lat="44.48485" lon="1.53454">
        <ele>275.56</ele>
        <time>2021-08-17T08:20:33Z</time>
      </trkpt>
      <trkpt lat="44.48486" lon="1.53455">
        <ele>276.04</ele>
        <time>2021-08-17T08:20:34Z</time>
      </trkpt>
      <trkpt lat="44.48487" lon="1.53456">
        <ele>276.04</ele>
        <time>2021-08-17T08:20:35Z</time>
      </trkpt>
      <trkpt lat="44.48489" lon="1.53457">
        <ele>276.52</ele>
        <time>2021-08-17T08:20:36Z</time>
      </trkpt>
      <trkpt lat="44.4849" lon="1.53458">
        <ele>276.52</ele>
        <time>2021-08-17T08:20:37Z</time>
      </trkpt>
      <trkpt lat="44.48491" lon="1.53459">
        <ele>277</ele>
        <time>2021-08-17T08:20:38Z</time>
      </trkpt>
      <trkpt lat="44.48492" lon="1.5346">
        <ele>277</ele>
        <time>2021-08-17T08:20:39Z</time>
      </trkpt>
      <trkpt lat="44.48505" lon="1.53469">
        <ele>277.96</ele>
        <time>2021-08-17T08:20:49Z</time>
      </trkpt>
      <trkpt lat="44.48517" lon="1.53481">
        <ele>279.4</ele>
        <time>2021-08-17T08:20:57Z</time>
      </trkpt>
      <trkpt lat="44.48532" lon="1.53497">
        <ele>280.36</ele>
        <time>2021-08-17T08:21:06Z</time>
      </trkpt>
      <trkpt lat="44.48535" lon="1.53504">
        <ele>280.36</ele>
        <time>2021-08-17T08:21:09Z</time>
      </trkpt>
      <trkpt lat="44.48532" lon="1.53526">
        <ele>278.92</ele>
        <time>2021-08-17T08:21:15Z</time>
      </trkpt>
      <trkpt lat="44.4853" lon="1.53532">
        <ele>278.92</ele>
        <time>2021-08-17T08:21:16Z</time>
      </trkpt>
      <trkpt lat="44.48527" lon="1.53544">
        <ele>278.44</ele>
        <time>2021-08-17T08:21:18Z</time>
      </trkpt>
      <trkpt lat="44.48527" lon="1.5355">
        <ele>277.48</ele>
        <time>2021-08-17T08:21:19Z</time>
      </trkpt>
      <trkpt lat="44.48527" lon="1.53557">
        <ele>277</ele>
        <time>2021-08-17T08:21:20Z</time>
      </trkpt>
      <trkpt lat="44.48528" lon="1.53564">
        <ele>277</ele>
        <time>2021-08-17T08:21:21Z</time>
      </trkpt>
      <trkpt lat="44.4853" lon="1.53572">
        <ele>276.52</ele>
        <time>2021-08-17T08:21:22Z</time>
      </trkpt>
      <trkpt lat="44.48532" lon="1.5358">
        <ele>276.04</ele>
        <time>2021-08-17T08:21:23Z</time>
      </trkpt>
      <trkpt lat="44.48534" lon="1.53588">
        <ele>275.07</ele>
        <time>2021-08-17T08:21:24Z</time>
      </trkpt>
      <trkpt lat="44.48542" lon="1.53616">
        <ele>273.63</ele>
        <time>2021-08-17T08:21:27Z</time>
      </trkpt>
      <trkpt lat="44.48557" lon="1.53678">
        <ele>272.67</ele>
        <time>2021-08-17T08:21:34Z</time>
      </trkpt>
      <trkpt lat="44.4856" lon="1.53685">
        <ele>272.67</ele>
        <time>2021-08-17T08:21:35Z</time>
      </trkpt>
      <trkpt lat="44.48562" lon="1.53692">
        <ele>272.67</ele>
        <time>2021-08-17T08:21:36Z</time>
      </trkpt>
      <trkpt lat="44.48568" lon="1.53702">
        <ele>272.67</ele>
        <time>2021-08-17T08:21:38Z</time>
      </trkpt>
      <trkpt lat="44.48571" lon="1.53706">
        <ele>273.63</ele>
        <time>2021-08-17T08:21:39Z</time>
      </trkpt>
      <trkpt lat="44.48573" lon="1.5371">
        <ele>274.11</ele>
        <time>2021-08-17T08:21:40Z</time>
      </trkpt>
      <trkpt lat="44.48586" lon="1.53724">
        <ele>275.07</ele>
        <time>2021-08-17T08:21:46Z</time>
      </trkpt>
      <trkpt lat="44.48603" lon="1.53721">
        <ele>275.07</ele>
        <time>2021-08-17T08:21:51Z</time>
      </trkpt>
      <trkpt lat="44.48613" lon="1.53721">
        <ele>275.07</ele>
        <time>2021-08-17T08:21:54Z</time>
      </trkpt>
      <trkpt lat="44.48616" lon="1.53723">
        <ele>275.07</ele>
        <time>2021-08-17T08:21:55Z</time>
      </trkpt>
      <trkpt lat="44.48619" lon="1.53727">
        <ele>275.07</ele>
        <time>2021-08-17T08:21:56Z</time>
      </trkpt>
      <trkpt lat="44.48621" lon="1.53731">
        <ele>275.07</ele>
        <time>2021-08-17T08:21:57Z</time>
      </trkpt>
      <trkpt lat="44.48623" lon="1.53736">
        <ele>275.07</ele>
        <time>2021-08-17T08:21:58Z</time>
      </trkpt>
      <trkpt lat="44.48636" lon="1.53792">
        <ele>275.07</ele>
        <time>2021-08-17T08:22:07Z</time>
      </trkpt>
      <trkpt lat="44.48646" lon="1.53826">
        <ele>273.63</ele>
        <time>2021-08-17T08:22:12Z</time>
      </trkpt>
      <trkpt lat="44.48664" lon="1.53866">
        <ele>273.63</ele>
        <time>2021-08-17T08:22:18Z</time>
      </trkpt>
      <trkpt lat="44.48693" lon="1.53909">
        <ele>273.15</ele>
        <time>2021-08-17T08:22:26Z</time>
      </trkpt>
      <trkpt lat="44.48698" lon="1.5392">
        <ele>273.15</ele>
        <time>2021-08-17T08:22:28Z</time>
      </trkpt>
      <trkpt lat="44.48703" lon="1.53932">
        <ele>273.15</ele>
        <time>2021-08-17T08:22:30Z</time>
      </trkpt>
      <trkpt lat="44.48703" lon="1.53939">
        <ele>273.15</ele>
        <time>2021-08-17T08:22:31Z</time>
      </trkpt>
      <trkpt lat="44.48702" lon="1.53946">
        <ele>273.15</ele>
        <time>2021-08-17T08:22:32Z</time>
      </trkpt>
      <trkpt lat="44.48699" lon="1.53952">
        <ele>272.67</ele>
        <time>2021-08-17T08:22:33Z</time>
      </trkpt>
      <trkpt lat="44.48696" lon="1.53957">
        <ele>272.67</ele>
        <time>2021-08-17T08:22:34Z</time>
      </trkpt>
      <trkpt lat="44.48693" lon="1.53962">
        <ele>272.67</ele>
        <time>2021-08-17T08:22:35Z</time>
      </trkpt>
      <trkpt lat="44.48689" lon="1.53967">
        <ele>272.19</ele>
        <time>2021-08-17T08:22:36Z</time>
      </trkpt>
      <trkpt lat="44.48657" lon="1.54012">
        <ele>270.75</ele>
        <time>2021-08-17T08:22:44Z</time>
      </trkpt>
      <trkpt lat="44.48646" lon="1.54032">
        <ele>270.27</ele>
        <time>2021-08-17T08:22:47Z</time>
      </trkpt>
      <trkpt lat="44.48644" lon="1.54039">
        <ele>270.27</ele>
        <time>2021-08-17T08:22:48Z</time>
      </trkpt>
      <trkpt lat="44.48619" lon="1.54109">
        <ele>269.31</ele>
        <time>2021-08-17T08:22:58Z</time>
      </trkpt>
      <trkpt lat="44.48596" lon="1.54159">
        <ele>266.42</ele>
        <time>2021-08-17T08:23:04Z</time>
      </trkpt>
      <trkpt lat="44.48591" lon="1.54166">
        <ele>266.42</ele>
        <time>2021-08-17T08:23:05Z</time>
      </trkpt>
      <trkpt lat="44.48586" lon="1.54173">
        <ele>265.46</ele>
        <time>2021-08-17T08:23:06Z</time>
      </trkpt>
      <trkpt lat="44.48565" lon="1.54194">
        <ele>264.02</ele>
        <time>2021-08-17T08:23:10Z</time>
      </trkpt>
      <trkpt lat="44.48561" lon="1.54198">
        <ele>263.54</ele>
        <time>2021-08-17T08:23:11Z</time>
      </trkpt>
      <trkpt lat="44.48558" lon="1.54202">
        <ele>263.54</ele>
        <time>2021-08-17T08:23:12Z</time>
      </trkpt>
      <trkpt lat="44.48556" lon="1.54207">
        <ele>262.58</ele>
        <time>2021-08-17T08:23:13Z</time>
      </trkpt>
      <trkpt lat="44.48557" lon="1.54213">
        <ele>261.62</ele>
        <time>2021-08-17T08:23:14Z</time>
      </trkpt>
      <trkpt lat="44.48558" lon="1.5422">
        <ele>260.17</ele>
        <time>2021-08-17T08:23:15Z</time>
      </trkpt>
      <trkpt lat="44.4856" lon="1.54228">
        <ele>259.21</ele>
        <time>2021-08-17T08:23:16Z</time>
      </trkpt>
      <trkpt lat="44.48568" lon="1.54259">
        <ele>254.41</ele>
        <time>2021-08-17T08:23:19Z</time>
      </trkpt>
      <trkpt lat="44.48574" lon="1.54281">
        <ele>251.52</ele>
        <time>2021-08-17T08:23:21Z</time>
      </trkpt>
      <trkpt lat="44.48583" lon="1.54315">
        <ele>246.72</ele>
        <time>2021-08-17T08:23:24Z</time>
      </trkpt>
      <trkpt lat="44.48589" lon="1.54341">
        <ele>243.35</ele>
        <time>2021-08-17T08:23:26Z</time>
      </trkpt>
      <trkpt lat="44.48597" lon="1.54376">
        <ele>239.02</ele>
        <time>2021-08-17T08:23:29Z</time>
      </trkpt>
      <trkpt lat="44.48606" lon="1.54411">
        <ele>235.66</ele>
        <time>2021-08-17T08:23:32Z</time>
      </trkpt>
      <trkpt lat="44.48608" lon="1.54421">
        <ele>234.7</ele>
        <time>2021-08-17T08:23:33Z</time>
      </trkpt>
      <trkpt lat="44.48609" lon="1.54431">
        <ele>233.74</ele>
        <time>2021-08-17T08:23:34Z</time>
      </trkpt>
      <trkpt lat="44.48609" lon="1.54441">
        <ele>233.26</ele>
        <time>2021-08-17T08:23:35Z</time>
      </trkpt>
      <trkpt lat="44.48605" lon="1.54466">
        <ele>231.33</ele>
        <time>2021-08-17T08:23:38Z</time>
      </trkpt>
      <trkpt lat="44.48602" lon="1.54474">
        <ele>230.37</ele>
        <time>2021-08-17T08:23:39Z</time>
      </trkpt>
      <trkpt lat="44.48591" lon="1.54499">
        <ele>228.45</ele>
        <time>2021-08-17T08:23:42Z</time>
      </trkpt>
      <trkpt lat="44.48588" lon="1.54509">
        <ele>227.01</ele>
        <time>2021-08-17T08:23:43Z</time>
      </trkpt>
      <trkpt lat="44.48577" lon="1.54551">
        <ele>223.16</ele>
        <time>2021-08-17T08:23:47Z</time>
      </trkpt>
      <trkpt lat="44.48573" lon="1.54568">
        <ele>221.24</ele>
        <time>2021-08-17T08:23:49Z</time>
      </trkpt>
      <trkpt lat="44.48572" lon="1.54575">
        <ele>220.28</ele>
        <time>2021-08-17T08:23:50Z</time>
      </trkpt>
      <trkpt lat="44.48572" lon="1.54582">
        <ele>219.8</ele>
        <time>2021-08-17T08:23:51Z</time>
      </trkpt>
      <trkpt lat="44.48574" lon="1.54589">
        <ele>218.84</ele>
        <time>2021-08-17T08:23:52Z</time>
      </trkpt>
      <trkpt lat="44.48576" lon="1.54593">
        <ele>217.88</ele>
        <time>2021-08-17T08:23:53Z</time>
      </trkpt>
      <trkpt lat="44.48579" lon="1.54597">
        <ele>217.4</ele>
        <time>2021-08-17T08:23:54Z</time>
      </trkpt>
      <trkpt lat="44.48583" lon="1.54601">
        <ele>216.43</ele>
        <time>2021-08-17T08:23:55Z</time>
      </trkpt>
      <trkpt lat="44.48588" lon="1.54605">
        <ele>215.95</ele>
        <time>2021-08-17T08:23:56Z</time>
      </trkpt>
      <trkpt lat="44.48597" lon="1.54615">
        <ele>214.51</ele>
        <time>2021-08-17T08:23:58Z</time>
      </trkpt>
      <trkpt lat="44.486" lon="1.54622">
        <ele>214.51</ele>
        <time>2021-08-17T08:23:59Z</time>
      </trkpt>
      <trkpt lat="44.48603" lon="1.54629">
        <ele>213.55</ele>
        <time>2021-08-17T08:24:00Z</time>
      </trkpt>
      <trkpt lat="44.48606" lon="1.54637">
        <ele>213.55</ele>
        <time>2021-08-17T08:24:01Z</time>
      </trkpt>
      <trkpt lat="44.48608" lon="1.54645">
        <ele>213.55</ele>
        <time>2021-08-17T08:24:02Z</time>
      </trkpt>
      <trkpt lat="44.48609" lon="1.54653">
        <ele>213.55</ele>
        <time>2021-08-17T08:24:03Z</time>
      </trkpt>
      <trkpt lat="44.48608" lon="1.54661">
        <ele>213.55</ele>
        <time>2021-08-17T08:24:04Z</time>
      </trkpt>
      <trkpt lat="44.48607" lon="1.54667">
        <ele>213.07</ele>
        <time>2021-08-17T08:24:05Z</time>
      </trkpt>
      <trkpt lat="44.48604" lon="1.54672">
        <ele>213.07</ele>
        <time>2021-08-17T08:24:06Z</time>
      </trkpt>
      <trkpt lat="44.48601" lon="1.54678">
        <ele>213.07</ele>
        <time>2021-08-17T08:24:07Z</time>
      </trkpt>
      <trkpt lat="44.48589" lon="1.54694">
        <ele>213.07</ele>
        <time>2021-08-17T08:24:12Z</time>
      </trkpt>
      <trkpt lat="44.48578" lon="1.54707">
        <ele>213.55</ele>
        <time>2021-08-17T08:24:19Z</time>
      </trkpt>
      <trkpt lat="44.48566" lon="1.54724">
        <ele>214.51</ele>
        <time>2021-08-17T08:24:25Z</time>
      </trkpt>
      <trkpt lat="44.48552" lon="1.54744">
        <ele>214.99</ele>
        <time>2021-08-17T08:24:32Z</time>
      </trkpt>
      <trkpt lat="44.48545" lon="1.54756">
        <ele>216.43</ele>
        <time>2021-08-17T08:24:37Z</time>
      </trkpt>
      <trkpt lat="44.48544" lon="1.54757">
        <ele>216.43</ele>
        <time>2021-08-17T08:24:49Z</time>
      </trkpt>
      <trkpt lat="44.48544" lon="1.5476">
        <ele>216.43</ele>
        <time>2021-08-17T08:25:00Z</time>
      </trkpt>
      <trkpt lat="44.48541" lon="1.54764">
        <ele>216.43</ele>
        <time>2021-08-17T08:25:13Z</time>
      </trkpt>
      <trkpt lat="44.48527" lon="1.54781">
        <ele>214.99</ele>
        <time>2021-08-17T08:25:18Z</time>
      </trkpt>
      <trkpt lat="44.4852" lon="1.54791">
        <ele>214.51</ele>
        <time>2021-08-17T08:25:20Z</time>
      </trkpt>
      <trkpt lat="44.48512" lon="1.54802">
        <ele>213.55</ele>
        <time>2021-08-17T08:25:22Z</time>
      </trkpt>
      <trkpt lat="44.48499" lon="1.54821">
        <ele>212.59</ele>
        <time>2021-08-17T08:25:25Z</time>
      </trkpt>
      <trkpt lat="44.48478" lon="1.54863">
        <ele>211.63</ele>
        <time>2021-08-17T08:25:31Z</time>
      </trkpt>
      <trkpt lat="44.48472" lon="1.54876">
        <ele>210.67</ele>
        <time>2021-08-17T08:25:33Z</time>
      </trkpt>
      <trkpt lat="44.48458" lon="1.54917">
        <ele>209.22</ele>
        <time>2021-08-17T08:25:38Z</time>
      </trkpt>
      <trkpt lat="44.48456" lon="1.54925">
        <ele>209.22</ele>
        <time>2021-08-17T08:25:39Z</time>
      </trkpt>
      <trkpt lat="44.48455" lon="1.54934">
        <ele>208.26</ele>
        <time>2021-08-17T08:25:40Z</time>
      </trkpt>
      <trkpt lat="44.48454" lon="1.54943">
        <ele>208.26</ele>
        <time>2021-08-17T08:25:41Z</time>
      </trkpt>
      <trkpt lat="44.48454" lon="1.54953">
        <ele>207.3</ele>
        <time>2021-08-17T08:25:42Z</time>
      </trkpt>
      <trkpt lat="44.48455" lon="1.54962">
        <ele>207.78</ele>
        <time>2021-08-17T08:25:43Z</time>
      </trkpt>
      <trkpt lat="44.48455" lon="1.5497">
        <ele>207.3</ele>
        <time>2021-08-17T08:25:44Z</time>
      </trkpt>
      <trkpt lat="44.48454" lon="1.54978">
        <ele>207.3</ele>
        <time>2021-08-17T08:25:45Z</time>
      </trkpt>
      <trkpt lat="44.48454" lon="1.54983">
        <ele>206.34</ele>
        <time>2021-08-17T08:25:46Z</time>
      </trkpt>
      <trkpt lat="44.48452" lon="1.54988">
        <ele>205.38</ele>
        <time>2021-08-17T08:25:47Z</time>
      </trkpt>
      <trkpt lat="44.48451" lon="1.54994">
        <ele>204.9</ele>
        <time>2021-08-17T08:25:48Z</time>
      </trkpt>
      <trkpt lat="44.48451" lon="1.54999">
        <ele>203.94</ele>
        <time>2021-08-17T08:25:49Z</time>
      </trkpt>
      <trkpt lat="44.4845" lon="1.55019">
        <ele>201.53</ele>
        <time>2021-08-17T08:25:54Z</time>
      </trkpt>
      <trkpt lat="44.48452" lon="1.55022">
        <ele>201.05</ele>
        <time>2021-08-17T08:25:55Z</time>
      </trkpt>
      <trkpt lat="44.48456" lon="1.55024">
        <ele>200.09</ele>
        <time>2021-08-17T08:25:56Z</time>
      </trkpt>
      <trkpt lat="44.4846" lon="1.55027">
        <ele>199.13</ele>
        <time>2021-08-17T08:25:57Z</time>
      </trkpt>
      <trkpt lat="44.48465" lon="1.5503">
        <ele>198.17</ele>
        <time>2021-08-17T08:25:58Z</time>
      </trkpt>
      <trkpt lat="44.48479" lon="1.55037">
        <ele>194.8</ele>
        <time>2021-08-17T08:26:02Z</time>
      </trkpt>
      <trkpt lat="44.48499" lon="1.55039">
        <ele>190.96</ele>
        <time>2021-08-17T08:26:07Z</time>
      </trkpt>
      <trkpt lat="44.48503" lon="1.5504">
        <ele>190.48</ele>
        <time>2021-08-17T08:26:08Z</time>
      </trkpt>
      <trkpt lat="44.48523" lon="1.55049">
        <ele>186.63</ele>
        <time>2021-08-17T08:26:12Z</time>
      </trkpt>
      <trkpt lat="44.48543" lon="1.55058">
        <ele>184.71</ele>
        <time>2021-08-17T08:26:15Z</time>
      </trkpt>
      <trkpt lat="44.48556" lon="1.55068">
        <ele>183.75</ele>
        <time>2021-08-17T08:26:19Z</time>
      </trkpt>
      <trkpt lat="44.48555" lon="1.55069">
        <ele>183.75</ele>
        <time>2021-08-17T08:26:20Z</time>
      </trkpt>
      <trkpt lat="44.48553" lon="1.55068">
        <ele>183.27</ele>
        <time>2021-08-17T08:26:21Z</time>
      </trkpt>
      <trkpt lat="44.4855" lon="1.55067">
        <ele>183.27</ele>
        <time>2021-08-17T08:26:22Z</time>
      </trkpt>
      <trkpt lat="44.48543" lon="1.55065">
        <ele>181.83</ele>
        <time>2021-08-17T08:26:24Z</time>
      </trkpt>
      <trkpt lat="44.48526" lon="1.55068">
        <ele>178.46</ele>
        <time>2021-08-17T08:26:30Z</time>
      </trkpt>
      <trkpt lat="44.48527" lon="1.5507">
        <ele>178.46</ele>
        <time>2021-08-17T08:26:31Z</time>
      </trkpt>
      <trkpt lat="44.48529" lon="1.55072">
        <ele>177.98</ele>
        <time>2021-08-17T08:26:32Z</time>
      </trkpt>
      <trkpt lat="44.48532" lon="1.55073">
        <ele>177.5</ele>
        <time>2021-08-17T08:26:33Z</time>
      </trkpt>
      <trkpt lat="44.48534" lon="1.55076">
        <ele>177.5</ele>
        <time>2021-08-17T08:26:34Z</time>
      </trkpt>
      <trkpt lat="44.48537" lon="1.55079">
        <ele>176.54</ele>
        <time>2021-08-17T08:26:35Z</time>
      </trkpt>
      <trkpt lat="44.48539" lon="1.55081">
        <ele>176.06</ele>
        <time>2021-08-17T08:26:36Z</time>
      </trkpt>
      <trkpt lat="44.4855" lon="1.55096">
        <ele>172.69</ele>
        <time>2021-08-17T08:26:41Z</time>
      </trkpt>
      <trkpt lat="44.48563" lon="1.55115">
        <ele>169.33</ele>
        <time>2021-08-17T08:26:46Z</time>
      </trkpt>
      <trkpt lat="44.48576" lon="1.55134">
        <ele>165.96</ele>
        <time>2021-08-17T08:26:49Z</time>
      </trkpt>
      <trkpt lat="44.48579" lon="1.55139">
        <ele>165.96</ele>
        <time>2021-08-17T08:26:50Z</time>
      </trkpt>
      <trkpt lat="44.48583" lon="1.55146">
        <ele>164.52</ele>
        <time>2021-08-17T08:26:52Z</time>
      </trkpt>
      <trkpt lat="44.48583" lon="1.55149">
        <ele>164.52</ele>
        <time>2021-08-17T08:26:53Z</time>
      </trkpt>
      <trkpt lat="44.48581" lon="1.55149">
        <ele>163.56</ele>
        <time>2021-08-17T08:26:54Z</time>
      </trkpt>
      <trkpt lat="44.48577" lon="1.55147">
        <ele>162.6</ele>
        <time>2021-08-17T08:26:55Z</time>
      </trkpt>
      <trkpt lat="44.48572" lon="1.55145">
        <ele>161.64</ele>
        <time>2021-08-17T08:26:56Z</time>
      </trkpt>
      <trkpt lat="44.48562" lon="1.55139">
        <ele>158.75</ele>
        <time>2021-08-17T08:26:58Z</time>
      </trkpt>
      <trkpt lat="44.48555" lon="1.55138">
        <ele>157.31</ele>
        <time>2021-08-17T08:26:59Z</time>
      </trkpt>
      <trkpt lat="44.48547" lon="1.55137">
        <ele>155.39</ele>
        <time>2021-08-17T08:27:00Z</time>
      </trkpt>
      <trkpt lat="44.48533" lon="1.55136">
        <ele>152.51</ele>
        <time>2021-08-17T08:27:02Z</time>
      </trkpt>
      <trkpt lat="44.48519" lon="1.55138">
        <ele>149.62</ele>
        <time>2021-08-17T08:27:05Z</time>
      </trkpt>
      <trkpt lat="44.48514" lon="1.55139">
        <ele>148.18</ele>
        <time>2021-08-17T08:27:06Z</time>
      </trkpt>
      <trkpt lat="44.48497" lon="1.55137">
        <ele>144.34</ele>
        <time>2021-08-17T08:27:09Z</time>
      </trkpt>
      <trkpt lat="44.48492" lon="1.55136">
        <ele>142.89</ele>
        <time>2021-08-17T08:27:10Z</time>
      </trkpt>
      <trkpt lat="44.48487" lon="1.55135">
        <ele>141.45</ele>
        <time>2021-08-17T08:27:11Z</time>
      </trkpt>
      <trkpt lat="44.48483" lon="1.55135">
        <ele>140.97</ele>
        <time>2021-08-17T08:27:12Z</time>
      </trkpt>
      <trkpt lat="44.4848" lon="1.55136">
        <ele>140.01</ele>
        <time>2021-08-17T08:27:13Z</time>
      </trkpt>
      <trkpt lat="44.48478" lon="1.55138">
        <ele>140.49</ele>
        <time>2021-08-17T08:27:14Z</time>
      </trkpt>
      <trkpt lat="44.48476" lon="1.55141">
        <ele>140.49</ele>
        <time>2021-08-17T08:27:15Z</time>
      </trkpt>
      <trkpt lat="44.48477" lon="1.55144">
        <ele>139.53</ele>
        <time>2021-08-17T08:27:16Z</time>
      </trkpt>
      <trkpt lat="44.4848" lon="1.55147">
        <ele>139.53</ele>
        <time>2021-08-17T08:27:17Z</time>
      </trkpt>
      <trkpt lat="44.48484" lon="1.55149">
        <ele>139.05</ele>
        <time>2021-08-17T08:27:18Z</time>
      </trkpt>
      <trkpt lat="44.48511" lon="1.55166">
        <ele>136.64</ele>
        <time>2021-08-17T08:27:24Z</time>
      </trkpt>
      <trkpt lat="44.4852" lon="1.55174">
        <ele>135.68</ele>
        <time>2021-08-17T08:27:26Z</time>
      </trkpt>
      <trkpt lat="44.48534" lon="1.55187">
        <ele>134.24</ele>
        <time>2021-08-17T08:27:31Z</time>
      </trkpt>
      <trkpt lat="44.48542" lon="1.55193">
        <ele>134.24</ele>
        <time>2021-08-17T08:27:38Z</time>
      </trkpt>
      <trkpt lat="44.48543" lon="1.55197">
        <ele>134.72</ele>
        <time>2021-08-17T08:27:42Z</time>
      </trkpt>
      <trkpt lat="44.48542" lon="1.55198">
        <ele>134.72</ele>
        <time>2021-08-17T08:27:43Z</time>
      </trkpt>
      <trkpt lat="44.48541" lon="1.55197">
        <ele>134.72</ele>
        <time>2021-08-17T08:27:44Z</time>
      </trkpt>
      <trkpt lat="44.48539" lon="1.55196">
        <ele>134.72</ele>
        <time>2021-08-17T08:27:45Z</time>
      </trkpt>
      <trkpt lat="44.48538" lon="1.55196">
        <ele>134.72</ele>
        <time>2021-08-17T08:27:46Z</time>
      </trkpt>
      <trkpt lat="44.48535" lon="1.55195">
        <ele>134.72</ele>
        <time>2021-08-17T08:27:47Z</time>
      </trkpt>
      <trkpt lat="44.48533" lon="1.55195">
        <ele>134.72</ele>
        <time>2021-08-17T08:27:48Z</time>
      </trkpt>
      <trkpt lat="44.48516" lon="1.55182">
        <ele>134.72</ele>
        <time>2021-08-17T08:27:54Z</time>
      </trkpt>
      <trkpt lat="44.48509" lon="1.55177">
        <ele>134.72</ele>
        <time>2021-08-17T08:27:56Z</time>
      </trkpt>
      <trkpt lat="44.48505" lon="1.55174">
        <ele>134.72</ele>
        <time>2021-08-17T08:27:57Z</time>
      </trkpt>
      <trkpt lat="44.48488" lon="1.55162">
        <ele>133.76</ele>
        <time>2021-08-17T08:28:01Z</time>
      </trkpt>
      <trkpt lat="44.48483" lon="1.55159">
        <ele>133.76</ele>
        <time>2021-08-17T08:28:02Z</time>
      </trkpt>
      <trkpt lat="44.48462" lon="1.55153">
        <ele>133.76</ele>
        <time>2021-08-17T08:28:06Z</time>
      </trkpt>
      <trkpt lat="44.48457" lon="1.55152">
        <ele>133.28</ele>
        <time>2021-08-17T08:28:07Z</time>
      </trkpt>
      <trkpt lat="44.48414" lon="1.55147">
        <ele>132.32</ele>
        <time>2021-08-17T08:28:15Z</time>
      </trkpt>
      <trkpt lat="44.48378" lon="1.55146">
        <ele>133.76</ele>
        <time>2021-08-17T08:28:22Z</time>
      </trkpt>
      <trkpt lat="44.48359" lon="1.55149">
        <ele>135.2</ele>
        <time>2021-08-17T08:28:28Z</time>
      </trkpt>
      <trkpt lat="44.4834" lon="1.55155">
        <ele>136.16</ele>
        <time>2021-08-17T08:28:35Z</time>
      </trkpt>
      <trkpt lat="44.48323" lon="1.55163">
        <ele>136.64</ele>
        <time>2021-08-17T08:28:41Z</time>
      </trkpt>
      <trkpt lat="44.48321" lon="1.55166">
        <ele>136.64</ele>
        <time>2021-08-17T08:28:42Z</time>
      </trkpt>
      <trkpt lat="44.4832" lon="1.5517">
        <ele>137.13</ele>
        <time>2021-08-17T08:28:43Z</time>
      </trkpt>
      <trkpt lat="44.48303" lon="1.55208">
        <ele>137.13</ele>
        <time>2021-08-17T08:28:52Z</time>
      </trkpt>
      <trkpt lat="44.48289" lon="1.55234">
        <ele>136.16</ele>
        <time>2021-08-17T08:28:57Z</time>
      </trkpt>
      <trkpt lat="44.4826" lon="1.55289">
        <ele>134.24</ele>
        <time>2021-08-17T08:29:06Z</time>
      </trkpt>
      <trkpt lat="44.48229" lon="1.55347">
        <ele>132.32</ele>
        <time>2021-08-17T08:29:14Z</time>
      </trkpt>
      <trkpt lat="44.48202" lon="1.55397">
        <ele>133.76</ele>
        <time>2021-08-17T08:29:21Z</time>
      </trkpt>
      <trkpt lat="44.48199" lon="1.55403">
        <ele>133.76</ele>
        <time>2021-08-17T08:29:22Z</time>
      </trkpt>
      <trkpt lat="44.48193" lon="1.55413">
        <ele>134.24</ele>
        <time>2021-08-17T08:29:24Z</time>
      </trkpt>
      <trkpt lat="44.48191" lon="1.55417">
        <ele>134.72</ele>
        <time>2021-08-17T08:29:25Z</time>
      </trkpt>
      <trkpt lat="44.48189" lon="1.55421">
        <ele>134.72</ele>
        <time>2021-08-17T08:29:26Z</time>
      </trkpt>
      <trkpt lat="44.48176" lon="1.55443">
        <ele>136.64</ele>
        <time>2021-08-17T08:29:33Z</time>
      </trkpt>
      <trkpt lat="44.48158" lon="1.55478">
        <ele>138.09</ele>
        <time>2021-08-17T08:29:45Z</time>
      </trkpt>
      <trkpt lat="44.48147" lon="1.55499">
        <ele>139.53</ele>
        <time>2021-08-17T08:29:53Z</time>
      </trkpt>
      <trkpt lat="44.4813" lon="1.55519">
        <ele>140.01</ele>
        <time>2021-08-17T08:30:02Z</time>
      </trkpt>
      <trkpt lat="44.48112" lon="1.55519">
        <ele>141.93</ele>
        <time>2021-08-17T08:30:10Z</time>
      </trkpt>
      <trkpt lat="44.48111" lon="1.55517">
        <ele>141.93</ele>
        <time>2021-08-17T08:30:11Z</time>
      </trkpt>
      <trkpt lat="44.48109" lon="1.55515">
        <ele>141.93</ele>
        <time>2021-08-17T08:30:12Z</time>
      </trkpt>
      <trkpt lat="44.4809" lon="1.55495">
        <ele>142.41</ele>
        <time>2021-08-17T08:30:21Z</time>
      </trkpt>
      <trkpt lat="44.48072" lon="1.55487">
        <ele>142.89</ele>
        <time>2021-08-17T08:30:27Z</time>
      </trkpt>
      <trkpt lat="44.48045" lon="1.55483">
        <ele>143.37</ele>
        <time>2021-08-17T08:30:35Z</time>
      </trkpt>
      <trkpt lat="44.48021" lon="1.55487">
        <ele>143.85</ele>
        <time>2021-08-17T08:30:43Z</time>
      </trkpt>
      <trkpt lat="44.47995" lon="1.55501">
        <ele>145.78</ele>
        <time>2021-08-17T08:30:53Z</time>
      </trkpt>
      <trkpt lat="44.47978" lon="1.55513">
        <ele>146.74</ele>
        <time>2021-08-17T08:31:03Z</time>
      </trkpt>
      <trkpt lat="44.47964" lon="1.55527">
        <ele>148.18</ele>
        <time>2021-08-17T08:31:13Z</time>
      </trkpt>
      <trkpt lat="44.47955" lon="1.5554">
        <ele>149.14</ele>
        <time>2021-08-17T08:31:21Z</time>
      </trkpt>
      <trkpt lat="44.47947" lon="1.55553">
        <ele>150.58</ele>
        <time>2021-08-17T08:31:29Z</time>
      </trkpt>
      <trkpt lat="44.47934" lon="1.55572">
        <ele>152.03</ele>
        <time>2021-08-17T08:31:40Z</time>
      </trkpt>
      <trkpt lat="44.47924" lon="1.55591">
        <ele>153.47</ele>
        <time>2021-08-17T08:31:50Z</time>
      </trkpt>
      <trkpt lat="44.4791" lon="1.5561">
        <ele>153.47</ele>
        <time>2021-08-17T08:31:58Z</time>
      </trkpt>
      <trkpt lat="44.47885" lon="1.55622">
        <ele>153.47</ele>
        <time>2021-08-17T08:32:05Z</time>
      </trkpt>
      <trkpt lat="44.47856" lon="1.55624">
        <ele>153.95</ele>
        <time>2021-08-17T08:32:12Z</time>
      </trkpt>
      <trkpt lat="44.47816" lon="1.55639">
        <ele>155.87</ele>
        <time>2021-08-17T08:32:22Z</time>
      </trkpt>
      <trkpt lat="44.47788" lon="1.55651">
        <ele>156.83</ele>
        <time>2021-08-17T08:32:30Z</time>
      </trkpt>
      <trkpt lat="44.47777" lon="1.55656">
        <ele>156.83</ele>
        <time>2021-08-17T08:32:33Z</time>
      </trkpt>
      <trkpt lat="44.47773" lon="1.55658">
        <ele>156.35</ele>
        <time>2021-08-17T08:32:34Z</time>
      </trkpt>
      <trkpt lat="44.47768" lon="1.55661">
        <ele>156.35</ele>
        <time>2021-08-17T08:32:35Z</time>
      </trkpt>
      <trkpt lat="44.4776" lon="1.55668">
        <ele>155.39</ele>
        <time>2021-08-17T08:32:37Z</time>
      </trkpt>
      <trkpt lat="44.47755" lon="1.55673">
        <ele>154.43</ele>
        <time>2021-08-17T08:32:38Z</time>
      </trkpt>
      <trkpt lat="44.47739" lon="1.55691">
        <ele>152.99</ele>
        <time>2021-08-17T08:32:41Z</time>
      </trkpt>
      <trkpt lat="44.47735" lon="1.55696">
        <ele>152.99</ele>
        <time>2021-08-17T08:32:42Z</time>
      </trkpt>
      <trkpt lat="44.47732" lon="1.55703">
        <ele>152.99</ele>
        <time>2021-08-17T08:32:43Z</time>
      </trkpt>
      <trkpt lat="44.47731" lon="1.5571">
        <ele>152.51</ele>
        <time>2021-08-17T08:32:44Z</time>
      </trkpt>
      <trkpt lat="44.4773" lon="1.55717">
        <ele>152.51</ele>
        <time>2021-08-17T08:32:45Z</time>
      </trkpt>
      <trkpt lat="44.4773" lon="1.55723">
        <ele>152.51</ele>
        <time>2021-08-17T08:32:46Z</time>
      </trkpt>
      <trkpt lat="44.4773" lon="1.55728">
        <ele>152.51</ele>
        <time>2021-08-17T08:32:47Z</time>
      </trkpt>
      <trkpt lat="44.47728" lon="1.5577">
        <ele>153.95</ele>
        <time>2021-08-17T08:32:55Z</time>
      </trkpt>
      <trkpt lat="44.47724" lon="1.55822">
        <ele>153.95</ele>
        <time>2021-08-17T08:33:04Z</time>
      </trkpt>
      <trkpt lat="44.47722" lon="1.55834">
        <ele>153.95</ele>
        <time>2021-08-17T08:33:06Z</time>
      </trkpt>
      <trkpt lat="44.47719" lon="1.55838">
        <ele>152.51</ele>
        <time>2021-08-17T08:33:07Z</time>
      </trkpt>
      <trkpt lat="44.47715" lon="1.55843">
        <ele>152.51</ele>
        <time>2021-08-17T08:33:08Z</time>
      </trkpt>
      <trkpt lat="44.47712" lon="1.55844">
        <ele>152.51</ele>
        <time>2021-08-17T08:33:09Z</time>
      </trkpt>
      <trkpt lat="44.47709" lon="1.55845">
        <ele>152.51</ele>
        <time>2021-08-17T08:33:10Z</time>
      </trkpt>
      <trkpt lat="44.47706" lon="1.55846">
        <ele>152.51</ele>
        <time>2021-08-17T08:33:11Z</time>
      </trkpt>
      <trkpt lat="44.47704" lon="1.55846">
        <ele>152.51</ele>
        <time>2021-08-17T08:33:12Z</time>
      </trkpt>
      <trkpt lat="44.47702" lon="1.55846">
        <ele>153.95</ele>
        <time>2021-08-17T08:33:13Z</time>
      </trkpt>
      <trkpt lat="44.47701" lon="1.55845">
        <ele>153.95</ele>
        <time>2021-08-17T08:33:14Z</time>
      </trkpt>
      <trkpt lat="44.477" lon="1.55845">
        <ele>154.43</ele>
        <time>2021-08-17T08:33:15Z</time>
      </trkpt>
      <trkpt lat="44.47699" lon="1.55844">
        <ele>154.43</ele>
        <time>2021-08-17T08:33:16Z</time>
      </trkpt>
      <trkpt lat="44.47687" lon="1.55841">
        <ele>155.87</ele>
        <time>2021-08-17T08:33:23Z</time>
      </trkpt>
      <trkpt lat="44.47681" lon="1.55839">
        <ele>156.83</ele>
        <time>2021-08-17T08:33:28Z</time>
      </trkpt>
      <trkpt lat="44.47674" lon="1.55835">
        <ele>157.79</ele>
        <time>2021-08-17T08:33:37Z</time>
      </trkpt>
      <trkpt lat="44.47667" lon="1.55834">
        <ele>158.75</ele>
        <time>2021-08-17T08:33:45Z</time>
      </trkpt>
      <trkpt lat="44.47661" lon="1.55832">
        <ele>160.2</ele>
        <time>2021-08-17T08:33:54Z</time>
      </trkpt>
      <trkpt lat="44.47657" lon="1.55828">
        <ele>161.16</ele>
        <time>2021-08-17T08:34:01Z</time>
      </trkpt>
      <trkpt lat="44.47653" lon="1.55822">
        <ele>162.6</ele>
        <time>2021-08-17T08:34:10Z</time>
      </trkpt>
      <trkpt lat="44.47648" lon="1.55818">
        <ele>163.08</ele>
        <time>2021-08-17T08:34:17Z</time>
      </trkpt>
      <trkpt lat="44.47643" lon="1.55813">
        <ele>163.56</ele>
        <time>2021-08-17T08:34:24Z</time>
      </trkpt>
      <trkpt lat="44.47637" lon="1.55807">
        <ele>165</ele>
        <time>2021-08-17T08:34:33Z</time>
      </trkpt>
      <trkpt lat="44.47632" lon="1.558">
        <ele>166.45</ele>
        <time>2021-08-17T08:34:41Z</time>
      </trkpt>
      <trkpt lat="44.4763" lon="1.55798">
        <ele>166.93</ele>
        <time>2021-08-17T08:34:44Z</time>
      </trkpt>
      <trkpt lat="44.47626" lon="1.55794">
        <ele>167.41</ele>
        <time>2021-08-17T08:34:51Z</time>
      </trkpt>
      <trkpt lat="44.47623" lon="1.55787">
        <ele>168.85</ele>
        <time>2021-08-17T08:35:00Z</time>
      </trkpt>
      <trkpt lat="44.4762" lon="1.5578">
        <ele>169.81</ele>
        <time>2021-08-17T08:35:08Z</time>
      </trkpt>
      <trkpt lat="44.47616" lon="1.55774">
        <ele>170.77</ele>
        <time>2021-08-17T08:35:16Z</time>
      </trkpt>
      <trkpt lat="44.47613" lon="1.55767">
        <ele>171.73</ele>
        <time>2021-08-17T08:35:24Z</time>
      </trkpt>
      <trkpt lat="44.4761" lon="1.55756">
        <ele>172.69</ele>
        <time>2021-08-17T08:35:34Z</time>
      </trkpt>
      <trkpt lat="44.47606" lon="1.55747">
        <ele>174.62</ele>
        <time>2021-08-17T08:35:44Z</time>
      </trkpt>
      <trkpt lat="44.47602" lon="1.5574">
        <ele>175.58</ele>
        <time>2021-08-17T08:35:52Z</time>
      </trkpt>
      <trkpt lat="44.47597" lon="1.55731">
        <ele>176.54</ele>
        <time>2021-08-17T08:36:01Z</time>
      </trkpt>
      <trkpt lat="44.47593" lon="1.55722">
        <ele>177.98</ele>
        <time>2021-08-17T08:36:11Z</time>
      </trkpt>
      <trkpt lat="44.4759" lon="1.55715">
        <ele>178.46</ele>
        <time>2021-08-17T08:36:18Z</time>
      </trkpt>
      <trkpt lat="44.47588" lon="1.55706">
        <ele>179.9</ele>
        <time>2021-08-17T08:36:26Z</time>
      </trkpt>
      <trkpt lat="44.47584" lon="1.55696">
        <ele>180.87</ele>
        <time>2021-08-17T08:36:36Z</time>
      </trkpt>
      <trkpt lat="44.4758" lon="1.55688">
        <ele>181.83</ele>
        <time>2021-08-17T08:36:45Z</time>
      </trkpt>
      <trkpt lat="44.47575" lon="1.55679">
        <ele>182.79</ele>
        <time>2021-08-17T08:36:53Z</time>
      </trkpt>
      <trkpt lat="44.47571" lon="1.55671">
        <ele>183.27</ele>
        <time>2021-08-17T08:37:00Z</time>
      </trkpt>
      <trkpt lat="44.47567" lon="1.55662">
        <ele>184.71</ele>
        <time>2021-08-17T08:37:09Z</time>
      </trkpt>
      <trkpt lat="44.47565" lon="1.55651">
        <ele>185.67</ele>
        <time>2021-08-17T08:37:17Z</time>
      </trkpt>
      <trkpt lat="44.47562" lon="1.55642">
        <ele>187.11</ele>
        <time>2021-08-17T08:37:26Z</time>
      </trkpt>
      <trkpt lat="44.47557" lon="1.55635">
        <ele>188.08</ele>
        <time>2021-08-17T08:37:34Z</time>
      </trkpt>
      <trkpt lat="44.47555" lon="1.55635">
        <ele>188.56</ele>
        <time>2021-08-17T08:37:36Z</time>
      </trkpt>
      <trkpt lat="44.47554" lon="1.55635">
        <ele>188.56</ele>
        <time>2021-08-17T08:37:37Z</time>
      </trkpt>
      <trkpt lat="44.47553" lon="1.55638">
        <ele>189.04</ele>
        <time>2021-08-17T08:37:43Z</time>
      </trkpt>
      <trkpt lat="44.47553" lon="1.5564">
        <ele>189.52</ele>
        <time>2021-08-17T08:37:51Z</time>
      </trkpt>
      <trkpt lat="44.47553" lon="1.55642">
        <ele>189.52</ele>
        <time>2021-08-17T08:37:53Z</time>
      </trkpt>
      <trkpt lat="44.47554" lon="1.55659">
        <ele>189.52</ele>
        <time>2021-08-17T08:38:00Z</time>
      </trkpt>
      <trkpt lat="44.47556" lon="1.55675">
        <ele>190.48</ele>
        <time>2021-08-17T08:38:06Z</time>
      </trkpt>
      <trkpt lat="44.47559" lon="1.55691">
        <ele>191.44</ele>
        <time>2021-08-17T08:38:13Z</time>
      </trkpt>
      <trkpt lat="44.4756" lon="1.55706">
        <ele>192.4</ele>
        <time>2021-08-17T08:38:20Z</time>
      </trkpt>
      <trkpt lat="44.47558" lon="1.55715">
        <ele>193.84</ele>
        <time>2021-08-17T08:38:25Z</time>
      </trkpt>
      <trkpt lat="44.47557" lon="1.55716">
        <ele>193.84</ele>
        <time>2021-08-17T08:38:26Z</time>
      </trkpt>
      <trkpt lat="44.47555" lon="1.55716">
        <ele>194.32</ele>
        <time>2021-08-17T08:38:27Z</time>
      </trkpt>
      <trkpt lat="44.47554" lon="1.55716">
        <ele>194.8</ele>
        <time>2021-08-17T08:38:28Z</time>
      </trkpt>
      <trkpt lat="44.47553" lon="1.55716">
        <ele>195.28</ele>
        <time>2021-08-17T08:38:33Z</time>
      </trkpt>
      <trkpt lat="44.47553" lon="1.55715">
        <ele>195.28</ele>
        <time>2021-08-17T08:38:40Z</time>
      </trkpt>
      <trkpt lat="44.47551" lon="1.55708">
        <ele>196.25</ele>
        <time>2021-08-17T08:38:48Z</time>
      </trkpt>
      <trkpt lat="44.47548" lon="1.55701">
        <ele>196.73</ele>
        <time>2021-08-17T08:38:56Z</time>
      </trkpt>
      <trkpt lat="44.47544" lon="1.55688">
        <ele>198.17</ele>
        <time>2021-08-17T08:39:07Z</time>
      </trkpt>
      <trkpt lat="44.4754" lon="1.55681">
        <ele>199.13</ele>
        <time>2021-08-17T08:39:16Z</time>
      </trkpt>
      <trkpt lat="44.47537" lon="1.55675">
        <ele>199.61</ele>
        <time>2021-08-17T08:39:28Z</time>
      </trkpt>
      <trkpt lat="44.47534" lon="1.55671">
        <ele>200.09</ele>
        <time>2021-08-17T08:39:34Z</time>
      </trkpt>
      <trkpt lat="44.4753" lon="1.55661">
        <ele>201.05</ele>
        <time>2021-08-17T08:39:43Z</time>
      </trkpt>
      <trkpt lat="44.47527" lon="1.55651">
        <ele>202.49</ele>
        <time>2021-08-17T08:39:53Z</time>
      </trkpt>
      <trkpt lat="44.47523" lon="1.55641">
        <ele>203.46</ele>
        <time>2021-08-17T08:40:02Z</time>
      </trkpt>
      <trkpt lat="44.47522" lon="1.55637">
        <ele>203.46</ele>
        <time>2021-08-17T08:40:10Z</time>
      </trkpt>
      <trkpt lat="44.47518" lon="1.55627">
        <ele>204.42</ele>
        <time>2021-08-17T08:40:19Z</time>
      </trkpt>
      <trkpt lat="44.47515" lon="1.55621">
        <ele>205.38</ele>
        <time>2021-08-17T08:40:26Z</time>
      </trkpt>
      <trkpt lat="44.47513" lon="1.55622">
        <ele>205.86</ele>
        <time>2021-08-17T08:40:27Z</time>
      </trkpt>
      <trkpt lat="44.47511" lon="1.55621">
        <ele>206.34</ele>
        <time>2021-08-17T08:40:28Z</time>
      </trkpt>
      <trkpt lat="44.47509" lon="1.55614">
        <ele>206.82</ele>
        <time>2021-08-17T08:40:34Z</time>
      </trkpt>
      <trkpt lat="44.47505" lon="1.55602">
        <ele>207.78</ele>
        <time>2021-08-17T08:40:44Z</time>
      </trkpt>
      <trkpt lat="44.47502" lon="1.55592">
        <ele>208.74</ele>
        <time>2021-08-17T08:40:53Z</time>
      </trkpt>
      <trkpt lat="44.47502" lon="1.5559">
        <ele>208.74</ele>
        <time>2021-08-17T08:40:55Z</time>
      </trkpt>
      <trkpt lat="44.475" lon="1.55577">
        <ele>209.7</ele>
        <time>2021-08-17T08:41:04Z</time>
      </trkpt>
      <trkpt lat="44.47497" lon="1.55565">
        <ele>210.67</ele>
        <time>2021-08-17T08:41:13Z</time>
      </trkpt>
      <trkpt lat="44.47494" lon="1.5555">
        <ele>212.59</ele>
        <time>2021-08-17T08:41:24Z</time>
      </trkpt>
      <trkpt lat="44.47491" lon="1.55539">
        <ele>213.07</ele>
        <time>2021-08-17T08:41:31Z</time>
      </trkpt>
      <trkpt lat="44.47488" lon="1.55526">
        <ele>213.55</ele>
        <time>2021-08-17T08:41:40Z</time>
      </trkpt>
      <trkpt lat="44.47485" lon="1.55516">
        <ele>214.51</ele>
        <time>2021-08-17T08:41:48Z</time>
      </trkpt>
      <trkpt lat="44.47483" lon="1.55506">
        <ele>215.47</ele>
        <time>2021-08-17T08:41:57Z</time>
      </trkpt>
      <trkpt lat="44.47479" lon="1.55498">
        <ele>216.43</ele>
        <time>2021-08-17T08:42:05Z</time>
      </trkpt>
      <trkpt lat="44.47475" lon="1.5549">
        <ele>217.88</ele>
        <time>2021-08-17T08:42:13Z</time>
      </trkpt>
      <trkpt lat="44.4747" lon="1.5548">
        <ele>218.84</ele>
        <time>2021-08-17T08:42:24Z</time>
      </trkpt>
      <trkpt lat="44.47469" lon="1.55479">
        <ele>218.84</ele>
        <time>2021-08-17T08:42:25Z</time>
      </trkpt>
      <trkpt lat="44.47465" lon="1.55473">
        <ele>219.8</ele>
        <time>2021-08-17T08:42:32Z</time>
      </trkpt>
      <trkpt lat="44.47456" lon="1.55467">
        <ele>221.24</ele>
        <time>2021-08-17T08:42:43Z</time>
      </trkpt>
      <trkpt lat="44.47449" lon="1.55465">
        <ele>222.2</ele>
        <time>2021-08-17T08:42:51Z</time>
      </trkpt>
      <trkpt lat="44.47445" lon="1.55465">
        <ele>222.68</ele>
        <time>2021-08-17T08:42:58Z</time>
      </trkpt>
      <trkpt lat="44.47439" lon="1.55465">
        <ele>223.16</ele>
        <time>2021-08-17T08:43:06Z</time>
      </trkpt>
      <trkpt lat="44.4743" lon="1.55466">
        <ele>224.12</ele>
        <time>2021-08-17T08:43:15Z</time>
      </trkpt>
      <trkpt lat="44.4742" lon="1.55469">
        <ele>225.57</ele>
        <time>2021-08-17T08:43:25Z</time>
      </trkpt>
      <trkpt lat="44.47413" lon="1.55476">
        <ele>226.53</ele>
        <time>2021-08-17T08:43:34Z</time>
      </trkpt>
      <trkpt lat="44.47409" lon="1.55483">
        <ele>228.45</ele>
        <time>2021-08-17T08:43:44Z</time>
      </trkpt>
      <trkpt lat="44.47408" lon="1.55484">
        <ele>228.93</ele>
        <time>2021-08-17T08:43:50Z</time>
      </trkpt>
      <trkpt lat="44.47403" lon="1.5549">
        <ele>230.37</ele>
        <time>2021-08-17T08:43:59Z</time>
      </trkpt>
      <trkpt lat="44.47397" lon="1.55496">
        <ele>231.33</ele>
        <time>2021-08-17T08:44:08Z</time>
      </trkpt>
      <trkpt lat="44.47394" lon="1.55506">
        <ele>232.78</ele>
        <time>2021-08-17T08:44:17Z</time>
      </trkpt>
      <trkpt lat="44.47387" lon="1.55511">
        <ele>233.74</ele>
        <time>2021-08-17T08:44:25Z</time>
      </trkpt>
      <trkpt lat="44.47383" lon="1.55517">
        <ele>234.7</ele>
        <time>2021-08-17T08:44:33Z</time>
      </trkpt>
      <trkpt lat="44.47377" lon="1.55524">
        <ele>235.66</ele>
        <time>2021-08-17T08:44:42Z</time>
      </trkpt>
      <trkpt lat="44.4737" lon="1.55532">
        <ele>237.1</ele>
        <time>2021-08-17T08:44:52Z</time>
      </trkpt>
      <trkpt lat="44.47364" lon="1.55541">
        <ele>238.54</ele>
        <time>2021-08-17T08:45:02Z</time>
      </trkpt>
      <trkpt lat="44.4736" lon="1.55548">
        <ele>239.99</ele>
        <time>2021-08-17T08:45:11Z</time>
      </trkpt>
      <trkpt lat="44.47355" lon="1.55555">
        <ele>240.95</ele>
        <time>2021-08-17T08:45:20Z</time>
      </trkpt>
      <trkpt lat="44.4735" lon="1.55563">
        <ele>241.91</ele>
        <time>2021-08-17T08:45:28Z</time>
      </trkpt>
      <trkpt lat="44.47342" lon="1.55572">
        <ele>243.83</ele>
        <time>2021-08-17T08:45:39Z</time>
      </trkpt>
      <trkpt lat="44.47333" lon="1.55583">
        <ele>244.79</ele>
        <time>2021-08-17T08:45:50Z</time>
      </trkpt>
      <trkpt lat="44.47326" lon="1.55594">
        <ele>246.23</ele>
        <time>2021-08-17T08:46:00Z</time>
      </trkpt>
      <trkpt lat="44.47323" lon="1.55604">
        <ele>247.68</ele>
        <time>2021-08-17T08:46:09Z</time>
      </trkpt>
      <trkpt lat="44.47323" lon="1.55617">
        <ele>249.6</ele>
        <time>2021-08-17T08:46:20Z</time>
      </trkpt>
      <trkpt lat="44.47324" lon="1.55624">
        <ele>250.08</ele>
        <time>2021-08-17T08:46:25Z</time>
      </trkpt>
      <trkpt lat="44.47326" lon="1.5564">
        <ele>251.52</ele>
        <time>2021-08-17T08:46:36Z</time>
      </trkpt>
      <trkpt lat="44.47331" lon="1.55654">
        <ele>252.48</ele>
        <time>2021-08-17T08:46:47Z</time>
      </trkpt>
      <trkpt lat="44.47333" lon="1.5566">
        <ele>252.48</ele>
        <time>2021-08-17T08:46:54Z</time>
      </trkpt>
      <trkpt lat="44.47345" lon="1.55672">
        <ele>252.96</ele>
        <time>2021-08-17T08:47:01Z</time>
      </trkpt>
      <trkpt lat="44.47362" lon="1.55688">
        <ele>251.52</ele>
        <time>2021-08-17T08:47:07Z</time>
      </trkpt>
      <trkpt lat="44.47363" lon="1.55691">
        <ele>251.52</ele>
        <time>2021-08-17T08:47:08Z</time>
      </trkpt>
      <trkpt lat="44.47363" lon="1.55695">
        <ele>251.52</ele>
        <time>2021-08-17T08:47:09Z</time>
      </trkpt>
      <trkpt lat="44.47362" lon="1.55698">
        <ele>251.52</ele>
        <time>2021-08-17T08:47:10Z</time>
      </trkpt>
      <trkpt lat="44.47361" lon="1.55701">
        <ele>251.52</ele>
        <time>2021-08-17T08:47:11Z</time>
      </trkpt>
      <trkpt lat="44.47361" lon="1.55704">
        <ele>251.52</ele>
        <time>2021-08-17T08:47:12Z</time>
      </trkpt>
      <trkpt lat="44.4736" lon="1.55708">
        <ele>251.52</ele>
        <time>2021-08-17T08:47:13Z</time>
      </trkpt>
      <trkpt lat="44.4736" lon="1.55713">
        <ele>251.52</ele>
        <time>2021-08-17T08:47:14Z</time>
      </trkpt>
      <trkpt lat="44.47355" lon="1.55734">
        <ele>252.96</ele>
        <time>2021-08-17T08:47:20Z</time>
      </trkpt>
      <trkpt lat="44.47354" lon="1.55738">
        <ele>252.96</ele>
        <time>2021-08-17T08:47:24Z</time>
      </trkpt>
      <trkpt lat="44.47354" lon="1.55739">
        <ele>253.44</ele>
        <time>2021-08-17T08:47:30Z</time>
      </trkpt>
      <trkpt lat="44.47353" lon="1.55741">
        <ele>253.44</ele>
        <time>2021-08-17T08:47:33Z</time>
      </trkpt>
      <trkpt lat="44.47351" lon="1.55748">
        <ele>253.44</ele>
        <time>2021-08-17T08:47:40Z</time>
      </trkpt>
      <trkpt lat="44.4735" lon="1.5575">
        <ele>253.44</ele>
        <time>2021-08-17T08:47:41Z</time>
      </trkpt>
      <trkpt lat="44.4735" lon="1.55758">
        <ele>253.44</ele>
        <time>2021-08-17T08:47:47Z</time>
      </trkpt>
      <trkpt lat="44.47345" lon="1.55763">
        <ele>253.44</ele>
        <time>2021-08-17T08:47:55Z</time>
      </trkpt>
      <trkpt lat="44.4734" lon="1.5576">
        <ele>255.85</ele>
        <time>2021-08-17T08:48:05Z</time>
      </trkpt>
      <trkpt lat="44.47337" lon="1.55759">
        <ele>256.81</ele>
        <time>2021-08-17T08:48:12Z</time>
      </trkpt>
      <trkpt lat="44.47333" lon="1.55758">
        <ele>257.77</ele>
        <time>2021-08-17T08:48:18Z</time>
      </trkpt>
      <trkpt lat="44.47329" lon="1.55757">
        <ele>257.77</ele>
        <time>2021-08-17T08:48:23Z</time>
      </trkpt>
      <trkpt lat="44.47327" lon="1.55756">
        <ele>258.73</ele>
        <time>2021-08-17T08:48:29Z</time>
      </trkpt>
      <trkpt lat="44.47322" lon="1.55755">
        <ele>259.69</ele>
        <time>2021-08-17T08:48:36Z</time>
      </trkpt>
      <trkpt lat="44.47319" lon="1.55754">
        <ele>260.17</ele>
        <time>2021-08-17T08:48:39Z</time>
      </trkpt>
      <trkpt lat="44.47312" lon="1.5575">
        <ele>261.14</ele>
        <time>2021-08-17T08:48:48Z</time>
      </trkpt>
      <trkpt lat="44.4731" lon="1.55749">
        <ele>261.14</ele>
        <time>2021-08-17T08:48:50Z</time>
      </trkpt>
      <trkpt lat="44.47309" lon="1.55748">
        <ele>261.14</ele>
        <time>2021-08-17T08:48:51Z</time>
      </trkpt>
      <trkpt lat="44.473" lon="1.55744">
        <ele>262.1</ele>
        <time>2021-08-17T08:49:00Z</time>
      </trkpt>
      <trkpt lat="44.47293" lon="1.55746">
        <ele>262.58</ele>
        <time>2021-08-17T08:49:07Z</time>
      </trkpt>
      <trkpt lat="44.47292" lon="1.55747">
        <ele>263.06</ele>
        <time>2021-08-17T08:49:08Z</time>
      </trkpt>
      <trkpt lat="44.47292" lon="1.55749">
        <ele>263.06</ele>
        <time>2021-08-17T08:49:09Z</time>
      </trkpt>
      <trkpt lat="44.47291" lon="1.5575">
        <ele>263.06</ele>
        <time>2021-08-17T08:49:10Z</time>
      </trkpt>
      <trkpt lat="44.4729" lon="1.55751">
        <ele>263.06</ele>
        <time>2021-08-17T08:49:11Z</time>
      </trkpt>
      <trkpt lat="44.47289" lon="1.55752">
        <ele>263.06</ele>
        <time>2021-08-17T08:49:12Z</time>
      </trkpt>
      <trkpt lat="44.47288" lon="1.55753">
        <ele>263.06</ele>
        <time>2021-08-17T08:49:13Z</time>
      </trkpt>
      <trkpt lat="44.47287" lon="1.55754">
        <ele>263.06</ele>
        <time>2021-08-17T08:49:14Z</time>
      </trkpt>
      <trkpt lat="44.47286" lon="1.55755">
        <ele>263.54</ele>
        <time>2021-08-17T08:49:15Z</time>
      </trkpt>
      <trkpt lat="44.47283" lon="1.55755">
        <ele>263.54</ele>
        <time>2021-08-17T08:49:17Z</time>
      </trkpt>
      <trkpt lat="44.47282" lon="1.55755">
        <ele>263.54</ele>
        <time>2021-08-17T08:49:18Z</time>
      </trkpt>
      <trkpt lat="44.47281" lon="1.55755">
        <ele>263.54</ele>
        <time>2021-08-17T08:49:19Z</time>
      </trkpt>
      <trkpt lat="44.47273" lon="1.55756">
        <ele>264.02</ele>
        <time>2021-08-17T08:49:27Z</time>
      </trkpt>
      <trkpt lat="44.4727" lon="1.55755">
        <ele>264.02</ele>
        <time>2021-08-17T08:49:33Z</time>
      </trkpt>
      <trkpt lat="44.47269" lon="1.55756">
        <ele>264.02</ele>
        <time>2021-08-17T08:49:34Z</time>
      </trkpt>
      <trkpt lat="44.47268" lon="1.55757">
        <ele>264.02</ele>
        <time>2021-08-17T08:49:35Z</time>
      </trkpt>
      <trkpt lat="44.47252" lon="1.55763">
        <ele>264.02</ele>
        <time>2021-08-17T08:49:41Z</time>
      </trkpt>
      <trkpt lat="44.47224" lon="1.55785">
        <ele>264.98</ele>
        <time>2021-08-17T08:49:51Z</time>
      </trkpt>
      <trkpt lat="44.47219" lon="1.55788">
        <ele>264.98</ele>
        <time>2021-08-17T08:49:53Z</time>
      </trkpt>
      <trkpt lat="44.47217" lon="1.55787">
        <ele>264.98</ele>
        <time>2021-08-17T08:49:54Z</time>
      </trkpt>
      <trkpt lat="44.47214" lon="1.55786">
        <ele>264.98</ele>
        <time>2021-08-17T08:49:55Z</time>
      </trkpt>
      <trkpt lat="44.47211" lon="1.55787">
        <ele>264.98</ele>
        <time>2021-08-17T08:49:56Z</time>
      </trkpt>
      <trkpt lat="44.47208" lon="1.55787">
        <ele>264.98</ele>
        <time>2021-08-17T08:49:57Z</time>
      </trkpt>
      <trkpt lat="44.47205" lon="1.55786">
        <ele>263.54</ele>
        <time>2021-08-17T08:49:58Z</time>
      </trkpt>
      <trkpt lat="44.47202" lon="1.55783">
        <ele>263.54</ele>
        <time>2021-08-17T08:49:59Z</time>
      </trkpt>
      <trkpt lat="44.472" lon="1.5578">
        <ele>262.58</ele>
        <time>2021-08-17T08:50:00Z</time>
      </trkpt>
      <trkpt lat="44.47196" lon="1.55776">
        <ele>262.1</ele>
        <time>2021-08-17T08:50:01Z</time>
      </trkpt>
      <trkpt lat="44.47192" lon="1.55773">
        <ele>261.14</ele>
        <time>2021-08-17T08:50:02Z</time>
      </trkpt>
      <trkpt lat="44.47187" lon="1.55772">
        <ele>260.65</ele>
        <time>2021-08-17T08:50:03Z</time>
      </trkpt>
      <trkpt lat="44.47182" lon="1.55772">
        <ele>259.69</ele>
        <time>2021-08-17T08:50:04Z</time>
      </trkpt>
      <trkpt lat="44.47177" lon="1.55773">
        <ele>259.21</ele>
        <time>2021-08-17T08:50:05Z</time>
      </trkpt>
      <trkpt lat="44.47173" lon="1.55776">
        <ele>259.69</ele>
        <time>2021-08-17T08:50:06Z</time>
      </trkpt>
      <trkpt lat="44.47171" lon="1.55779">
        <ele>259.21</ele>
        <time>2021-08-17T08:50:07Z</time>
      </trkpt>
      <trkpt lat="44.47167" lon="1.55781">
        <ele>259.21</ele>
        <time>2021-08-17T08:50:08Z</time>
      </trkpt>
      <trkpt lat="44.47164" lon="1.55782">
        <ele>259.21</ele>
        <time>2021-08-17T08:50:09Z</time>
      </trkpt>
      <trkpt lat="44.47162" lon="1.55783">
        <ele>259.21</ele>
        <time>2021-08-17T08:50:10Z</time>
      </trkpt>
      <trkpt lat="44.4716" lon="1.55784">
        <ele>260.65</ele>
        <time>2021-08-17T08:50:14Z</time>
      </trkpt>
      <trkpt lat="44.4716" lon="1.55784">
        <ele>260.65</ele>
        <time>2021-08-17T08:50:23Z</time>
      </trkpt>
      <trkpt lat="44.47155" lon="1.55786">
        <ele>261.62</ele>
        <time>2021-08-17T08:50:30Z</time>
      </trkpt>
      <trkpt lat="44.4715" lon="1.55789">
        <ele>262.58</ele>
        <time>2021-08-17T08:50:38Z</time>
      </trkpt>
      <trkpt lat="44.47145" lon="1.5579">
        <ele>264.02</ele>
        <time>2021-08-17T08:50:45Z</time>
      </trkpt>
      <trkpt lat="44.47138" lon="1.55793">
        <ele>265.46</ele>
        <time>2021-08-17T08:50:54Z</time>
      </trkpt>
      <trkpt lat="44.47136" lon="1.55794">
        <ele>266.42</ele>
        <time>2021-08-17T08:51:01Z</time>
      </trkpt>
      <trkpt lat="44.47131" lon="1.55796">
        <ele>267.38</ele>
        <time>2021-08-17T08:51:10Z</time>
      </trkpt>
      <trkpt lat="44.47128" lon="1.55798">
        <ele>268.83</ele>
        <time>2021-08-17T08:51:19Z</time>
      </trkpt>
      <trkpt lat="44.47124" lon="1.55802">
        <ele>270.75</ele>
        <time>2021-08-17T08:51:30Z</time>
      </trkpt>
      <trkpt lat="44.47121" lon="1.55805">
        <ele>271.71</ele>
        <time>2021-08-17T08:51:38Z</time>
      </trkpt>
      <trkpt lat="44.47115" lon="1.55807">
        <ele>273.15</ele>
        <time>2021-08-17T08:51:48Z</time>
      </trkpt>
      <trkpt lat="44.4711" lon="1.55808">
        <ele>274.59</ele>
        <time>2021-08-17T08:51:58Z</time>
      </trkpt>
      <trkpt lat="44.47106" lon="1.5581">
        <ele>275.56</ele>
        <time>2021-08-17T08:52:07Z</time>
      </trkpt>
      <trkpt lat="44.47101" lon="1.55814">
        <ele>277</ele>
        <time>2021-08-17T08:52:16Z</time>
      </trkpt>
      <trkpt lat="44.47095" lon="1.55816">
        <ele>278.44</ele>
        <time>2021-08-17T08:52:24Z</time>
      </trkpt>
      <trkpt lat="44.4709" lon="1.55819">
        <ele>279.88</ele>
        <time>2021-08-17T08:52:32Z</time>
      </trkpt>
      <trkpt lat="44.47084" lon="1.55824">
        <ele>280.84</ele>
        <time>2021-08-17T08:52:41Z</time>
      </trkpt>
      <trkpt lat="44.47074" lon="1.55829">
        <ele>282.77</ele>
        <time>2021-08-17T08:52:53Z</time>
      </trkpt>
      <trkpt lat="44.47072" lon="1.55831">
        <ele>282.77</ele>
        <time>2021-08-17T08:53:01Z</time>
      </trkpt>
      <trkpt lat="44.47071" lon="1.55831">
        <ele>282.77</ele>
        <time>2021-08-17T08:53:12Z</time>
      </trkpt>
      <trkpt lat="44.47069" lon="1.55831">
        <ele>283.25</ele>
        <time>2021-08-17T08:53:19Z</time>
      </trkpt>
      <trkpt lat="44.47067" lon="1.55832">
        <ele>283.25</ele>
        <time>2021-08-17T08:53:26Z</time>
      </trkpt>
      <trkpt lat="44.47066" lon="1.55833">
        <ele>283.25</ele>
        <time>2021-08-17T08:53:35Z</time>
      </trkpt>
      <trkpt lat="44.47063" lon="1.55835">
        <ele>283.73</ele>
        <time>2021-08-17T08:53:43Z</time>
      </trkpt>
      <trkpt lat="44.47055" lon="1.5584">
        <ele>284.69</ele>
        <time>2021-08-17T08:53:50Z</time>
      </trkpt>
      <trkpt lat="44.47053" lon="1.5584">
        <ele>284.69</ele>
        <time>2021-08-17T08:53:51Z</time>
      </trkpt>
      <trkpt lat="44.47052" lon="1.55841">
        <ele>284.69</ele>
        <time>2021-08-17T08:53:52Z</time>
      </trkpt>
      <trkpt lat="44.47046" lon="1.55845">
        <ele>285.65</ele>
        <time>2021-08-17T08:53:57Z</time>
      </trkpt>
      <trkpt lat="44.47044" lon="1.55846">
        <ele>286.13</ele>
        <time>2021-08-17T08:53:59Z</time>
      </trkpt>
      <trkpt lat="44.47034" lon="1.55853">
        <ele>287.57</ele>
        <time>2021-08-17T08:54:07Z</time>
      </trkpt>
      <trkpt lat="44.47025" lon="1.55862">
        <ele>288.53</ele>
        <time>2021-08-17T08:54:14Z</time>
      </trkpt>
      <trkpt lat="44.47012" lon="1.55868">
        <ele>288.53</ele>
        <time>2021-08-17T08:54:22Z</time>
      </trkpt>
      <trkpt lat="44.47006" lon="1.55869">
        <ele>289.01</ele>
        <time>2021-08-17T08:54:25Z</time>
      </trkpt>
      <trkpt lat="44.47004" lon="1.5587">
        <ele>289.01</ele>
        <time>2021-08-17T08:54:26Z</time>
      </trkpt>
      <trkpt lat="44.46984" lon="1.55876">
        <ele>290.46</ele>
        <time>2021-08-17T08:54:36Z</time>
      </trkpt>
      <trkpt lat="44.4697" lon="1.55879">
        <ele>291.42</ele>
        <time>2021-08-17T08:54:44Z</time>
      </trkpt>
      <trkpt lat="44.46953" lon="1.55888">
        <ele>291.9</ele>
        <time>2021-08-17T08:54:53Z</time>
      </trkpt>
      <trkpt lat="44.4694" lon="1.55897">
        <ele>293.34</ele>
        <time>2021-08-17T08:54:59Z</time>
      </trkpt>
      <trkpt lat="44.46926" lon="1.55902">
        <ele>294.3</ele>
        <time>2021-08-17T08:55:06Z</time>
      </trkpt>
      <trkpt lat="44.46913" lon="1.55907">
        <ele>295.74</ele>
        <time>2021-08-17T08:55:14Z</time>
      </trkpt>
      <trkpt lat="44.46901" lon="1.55913">
        <ele>296.22</ele>
        <time>2021-08-17T08:55:22Z</time>
      </trkpt>
      <trkpt lat="44.46889" lon="1.5592">
        <ele>297.18</ele>
        <time>2021-08-17T08:55:30Z</time>
      </trkpt>
      <trkpt lat="44.46878" lon="1.55925">
        <ele>298.15</ele>
        <time>2021-08-17T08:55:38Z</time>
      </trkpt>
      <trkpt lat="44.46866" lon="1.55932">
        <ele>299.59</ele>
        <time>2021-08-17T08:55:46Z</time>
      </trkpt>
      <trkpt lat="44.46856" lon="1.55941">
        <ele>300.55</ele>
        <time>2021-08-17T08:55:54Z</time>
      </trkpt>
      <trkpt lat="44.46844" lon="1.55948">
        <ele>301.99</ele>
        <time>2021-08-17T08:56:03Z</time>
      </trkpt>
      <trkpt lat="44.46831" lon="1.55953">
        <ele>303.43</ele>
        <time>2021-08-17T08:56:12Z</time>
      </trkpt>
      <trkpt lat="44.4682" lon="1.55957">
        <ele>304.39</ele>
        <time>2021-08-17T08:56:19Z</time>
      </trkpt>
      <trkpt lat="44.46807" lon="1.55968">
        <ele>305.36</ele>
        <time>2021-08-17T08:56:28Z</time>
      </trkpt>
      <trkpt lat="44.46797" lon="1.55973">
        <ele>306.32</ele>
        <time>2021-08-17T08:56:35Z</time>
      </trkpt>
      <trkpt lat="44.46784" lon="1.55981">
        <ele>307.28</ele>
        <time>2021-08-17T08:56:43Z</time>
      </trkpt>
      <trkpt lat="44.46769" lon="1.55993">
        <ele>307.76</ele>
        <time>2021-08-17T08:56:50Z</time>
      </trkpt>
      <trkpt lat="44.46748" lon="1.5601">
        <ele>307.76</ele>
        <time>2021-08-17T08:56:58Z</time>
      </trkpt>
      <trkpt lat="44.46727" lon="1.56026">
        <ele>308.24</ele>
        <time>2021-08-17T08:57:06Z</time>
      </trkpt>
      <trkpt lat="44.46718" lon="1.56034">
        <ele>308.72</ele>
        <time>2021-08-17T08:57:11Z</time>
      </trkpt>
      <trkpt lat="44.46699" lon="1.56052">
        <ele>308.72</ele>
        <time>2021-08-17T08:57:19Z</time>
      </trkpt>
      <trkpt lat="44.46681" lon="1.56068">
        <ele>310.16</ele>
        <time>2021-08-17T08:57:27Z</time>
      </trkpt>
      <trkpt lat="44.4667" lon="1.56086">
        <ele>311.12</ele>
        <time>2021-08-17T08:57:34Z</time>
      </trkpt>
      <trkpt lat="44.46662" lon="1.56101">
        <ele>312.09</ele>
        <time>2021-08-17T08:57:41Z</time>
      </trkpt>
      <trkpt lat="44.46651" lon="1.56118">
        <ele>313.05</ele>
        <time>2021-08-17T08:57:49Z</time>
      </trkpt>
      <trkpt lat="44.46638" lon="1.56137">
        <ele>314.01</ele>
        <time>2021-08-17T08:57:58Z</time>
      </trkpt>
      <trkpt lat="44.46629" lon="1.56155">
        <ele>314.97</ele>
        <time>2021-08-17T08:58:06Z</time>
      </trkpt>
      <trkpt lat="44.46619" lon="1.56174">
        <ele>315.45</ele>
        <time>2021-08-17T08:58:13Z</time>
      </trkpt>
      <trkpt lat="44.46603" lon="1.5619">
        <ele>316.41</ele>
        <time>2021-08-17T08:58:21Z</time>
      </trkpt>
      <trkpt lat="44.46584" lon="1.56212">
        <ele>318.33</ele>
        <time>2021-08-17T08:58:31Z</time>
      </trkpt>
      <trkpt lat="44.46566" lon="1.56234">
        <ele>318.33</ele>
        <time>2021-08-17T08:58:39Z</time>
      </trkpt>
      <trkpt lat="44.46564" lon="1.56237">
        <ele>318.33</ele>
        <time>2021-08-17T08:58:43Z</time>
      </trkpt>
      <trkpt lat="44.46563" lon="1.56237">
        <ele>318.33</ele>
        <time>2021-08-17T08:58:58Z</time>
      </trkpt>
      <trkpt lat="44.46563" lon="1.56238">
        <ele>318.33</ele>
        <time>2021-08-17T08:59:07Z</time>
      </trkpt>
      <trkpt lat="44.46562" lon="1.56238">
        <ele>318.33</ele>
        <time>2021-08-17T08:59:23Z</time>
      </trkpt>
      <trkpt lat="44.46562" lon="1.56238">
        <ele>318.33</ele>
        <time>2021-08-17T08:59:33Z</time>
      </trkpt>
      <trkpt lat="44.46562" lon="1.56238">
        <ele>318.33</ele>
        <time>2021-08-17T08:59:45Z</time>
      </trkpt>
      <trkpt lat="44.4656" lon="1.56237">
        <ele>318.33</ele>
        <time>2021-08-17T08:59:53Z</time>
      </trkpt>
      <trkpt lat="44.46558" lon="1.56237">
        <ele>318.33</ele>
        <time>2021-08-17T09:00:02Z</time>
      </trkpt>
      <trkpt lat="44.46557" lon="1.56238">
        <ele>318.33</ele>
        <time>2021-08-17T09:00:21Z</time>
      </trkpt>
      <trkpt lat="44.46555" lon="1.56238">
        <ele>318.33</ele>
        <time>2021-08-17T09:00:38Z</time>
      </trkpt>
      <trkpt lat="44.46556" lon="1.56239">
        <ele>318.33</ele>
        <time>2021-08-17T09:00:47Z</time>
      </trkpt>
      <trkpt lat="44.46558" lon="1.5624">
        <ele>318.33</ele>
        <time>2021-08-17T09:01:04Z</time>
      </trkpt>
      <trkpt lat="44.46557" lon="1.56241">
        <ele>318.33</ele>
        <time>2021-08-17T09:01:12Z</time>
      </trkpt>
      <trkpt lat="44.46553" lon="1.56241">
        <ele>318.33</ele>
        <time>2021-08-17T09:01:14Z</time>
      </trkpt>
      <trkpt lat="44.46552" lon="1.5624">
        <ele>318.33</ele>
        <time>2021-08-17T09:01:15Z</time>
      </trkpt>
      <trkpt lat="44.46545" lon="1.56235">
        <ele>317.37</ele>
        <time>2021-08-17T09:01:18Z</time>
      </trkpt>
      <trkpt lat="44.46542" lon="1.56235">
        <ele>316.41</ele>
        <time>2021-08-17T09:01:19Z</time>
      </trkpt>
      <trkpt lat="44.46538" lon="1.56236">
        <ele>316.41</ele>
        <time>2021-08-17T09:01:20Z</time>
      </trkpt>
      <trkpt lat="44.46535" lon="1.56238">
        <ele>316.41</ele>
        <time>2021-08-17T09:01:21Z</time>
      </trkpt>
      <trkpt lat="44.46531" lon="1.56241">
        <ele>315.93</ele>
        <time>2021-08-17T09:01:22Z</time>
      </trkpt>
      <trkpt lat="44.46528" lon="1.56246">
        <ele>315.93</ele>
        <time>2021-08-17T09:01:23Z</time>
      </trkpt>
      <trkpt lat="44.46525" lon="1.5625">
        <ele>315.93</ele>
        <time>2021-08-17T09:01:24Z</time>
      </trkpt>
      <trkpt lat="44.46515" lon="1.56265">
        <ele>314.49</ele>
        <time>2021-08-17T09:01:29Z</time>
      </trkpt>
      <trkpt lat="44.46515" lon="1.56264">
        <ele>314.49</ele>
        <time>2021-08-17T09:01:43Z</time>
      </trkpt>
      <trkpt lat="44.46511" lon="1.56268">
        <ele>314.49</ele>
        <time>2021-08-17T09:01:54Z</time>
      </trkpt>
      <trkpt lat="44.46494" lon="1.56271">
        <ele>312.09</ele>
        <time>2021-08-17T09:01:59Z</time>
      </trkpt>
      <trkpt lat="44.46489" lon="1.56273">
        <ele>311.12</ele>
        <time>2021-08-17T09:02:00Z</time>
      </trkpt>
      <trkpt lat="44.46481" lon="1.5628">
        <ele>310.16</ele>
        <time>2021-08-17T09:02:02Z</time>
      </trkpt>
      <trkpt lat="44.46477" lon="1.56284">
        <ele>309.68</ele>
        <time>2021-08-17T09:02:03Z</time>
      </trkpt>
      <trkpt lat="44.46474" lon="1.56289">
        <ele>308.72</ele>
        <time>2021-08-17T09:02:04Z</time>
      </trkpt>
      <trkpt lat="44.46467" lon="1.563">
        <ele>307.28</ele>
        <time>2021-08-17T09:02:06Z</time>
      </trkpt>
      <trkpt lat="44.46464" lon="1.56307">
        <ele>306.8</ele>
        <time>2021-08-17T09:02:07Z</time>
      </trkpt>
      <trkpt lat="44.46462" lon="1.56315">
        <ele>305.84</ele>
        <time>2021-08-17T09:02:08Z</time>
      </trkpt>
      <trkpt lat="44.46458" lon="1.56333">
        <ele>304.39</ele>
        <time>2021-08-17T09:02:10Z</time>
      </trkpt>
      <trkpt lat="44.46455" lon="1.56341">
        <ele>303.91</ele>
        <time>2021-08-17T09:02:11Z</time>
      </trkpt>
      <trkpt lat="44.46451" lon="1.56349">
        <ele>302.47</ele>
        <time>2021-08-17T09:02:12Z</time>
      </trkpt>
      <trkpt lat="44.46446" lon="1.56357">
        <ele>301.99</ele>
        <time>2021-08-17T09:02:13Z</time>
      </trkpt>
      <trkpt lat="44.46439" lon="1.56365">
        <ele>301.03</ele>
        <time>2021-08-17T09:02:14Z</time>
      </trkpt>
      <trkpt lat="44.46433" lon="1.56373">
        <ele>300.07</ele>
        <time>2021-08-17T09:02:15Z</time>
      </trkpt>
      <trkpt lat="44.46404" lon="1.56403">
        <ele>296.22</ele>
        <time>2021-08-17T09:02:19Z</time>
      </trkpt>
      <trkpt lat="44.46389" lon="1.56419">
        <ele>295.26</ele>
        <time>2021-08-17T09:02:21Z</time>
      </trkpt>
      <trkpt lat="44.46337" lon="1.56477">
        <ele>292.86</ele>
        <time>2021-08-17T09:02:28Z</time>
      </trkpt>
      <trkpt lat="44.46305" lon="1.5651">
        <ele>292.86</ele>
        <time>2021-08-17T09:02:33Z</time>
      </trkpt>
      <trkpt lat="44.463" lon="1.56515">
        <ele>292.86</ele>
        <time>2021-08-17T09:02:34Z</time>
      </trkpt>
      <trkpt lat="44.46294" lon="1.56518">
        <ele>292.86</ele>
        <time>2021-08-17T09:02:35Z</time>
      </trkpt>
      <trkpt lat="44.46274" lon="1.56529">
        <ele>294.3</ele>
        <time>2021-08-17T09:02:39Z</time>
      </trkpt>
      <trkpt lat="44.4627" lon="1.56532">
        <ele>294.3</ele>
        <time>2021-08-17T09:02:40Z</time>
      </trkpt>
      <trkpt lat="44.46244" lon="1.56552">
        <ele>295.74</ele>
        <time>2021-08-17T09:02:48Z</time>
      </trkpt>
      <trkpt lat="44.46208" lon="1.56583">
        <ele>295.26</ele>
        <time>2021-08-17T09:02:58Z</time>
      </trkpt>
      <trkpt lat="44.4619" lon="1.56602">
        <ele>296.22</ele>
        <time>2021-08-17T09:03:04Z</time>
      </trkpt>
      <trkpt lat="44.4619" lon="1.56606">
        <ele>296.22</ele>
        <time>2021-08-17T09:03:05Z</time>
      </trkpt>
      <trkpt lat="44.46192" lon="1.56609">
        <ele>296.22</ele>
        <time>2021-08-17T09:03:06Z</time>
      </trkpt>
      <trkpt lat="44.46194" lon="1.56611">
        <ele>296.22</ele>
        <time>2021-08-17T09:03:07Z</time>
      </trkpt>
      <trkpt lat="44.46196" lon="1.56613">
        <ele>296.22</ele>
        <time>2021-08-17T09:03:08Z</time>
      </trkpt>
      <trkpt lat="44.46199" lon="1.56616">
        <ele>296.22</ele>
        <time>2021-08-17T09:03:09Z</time>
      </trkpt>
      <trkpt lat="44.46208" lon="1.56626">
        <ele>296.22</ele>
        <time>2021-08-17T09:03:12Z</time>
      </trkpt>
      <trkpt lat="44.46211" lon="1.5663">
        <ele>295.74</ele>
        <time>2021-08-17T09:03:13Z</time>
      </trkpt>
      <trkpt lat="44.46213" lon="1.56636">
        <ele>296.22</ele>
        <time>2021-08-17T09:03:14Z</time>
      </trkpt>
      <trkpt lat="44.46215" lon="1.56642">
        <ele>294.78</ele>
        <time>2021-08-17T09:03:15Z</time>
      </trkpt>
      <trkpt lat="44.46214" lon="1.5665">
        <ele>294.3</ele>
        <time>2021-08-17T09:03:16Z</time>
      </trkpt>
      <trkpt lat="44.46211" lon="1.56657">
        <ele>293.34</ele>
        <time>2021-08-17T09:03:17Z</time>
      </trkpt>
      <trkpt lat="44.46207" lon="1.56664">
        <ele>292.86</ele>
        <time>2021-08-17T09:03:18Z</time>
      </trkpt>
      <trkpt lat="44.46201" lon="1.5667">
        <ele>292.38</ele>
        <time>2021-08-17T09:03:19Z</time>
      </trkpt>
      <trkpt lat="44.4619" lon="1.56682">
        <ele>291.42</ele>
        <time>2021-08-17T09:03:21Z</time>
      </trkpt>
      <trkpt lat="44.46163" lon="1.5671">
        <ele>289.01</ele>
        <time>2021-08-17T09:03:25Z</time>
      </trkpt>
      <trkpt lat="44.46157" lon="1.5672">
        <ele>288.53</ele>
        <time>2021-08-17T09:03:26Z</time>
      </trkpt>
      <trkpt lat="44.46151" lon="1.56731">
        <ele>287.09</ele>
        <time>2021-08-17T09:03:27Z</time>
      </trkpt>
      <trkpt lat="44.46146" lon="1.56742">
        <ele>286.61</ele>
        <time>2021-08-17T09:03:28Z</time>
      </trkpt>
      <trkpt lat="44.46141" lon="1.56754">
        <ele>285.17</ele>
        <time>2021-08-17T09:03:29Z</time>
      </trkpt>
      <trkpt lat="44.4612" lon="1.56806">
        <ele>281.8</ele>
        <time>2021-08-17T09:03:33Z</time>
      </trkpt>
      <trkpt lat="44.46116" lon="1.5682">
        <ele>280.84</ele>
        <time>2021-08-17T09:03:34Z</time>
      </trkpt>
      <trkpt lat="44.46113" lon="1.56835">
        <ele>279.88</ele>
        <time>2021-08-17T09:03:35Z</time>
      </trkpt>
      <trkpt lat="44.46111" lon="1.56851">
        <ele>278.92</ele>
        <time>2021-08-17T09:03:36Z</time>
      </trkpt>
      <trkpt lat="44.46106" lon="1.56913">
        <ele>276.52</ele>
        <time>2021-08-17T09:03:40Z</time>
      </trkpt>
      <trkpt lat="44.46104" lon="1.56945">
        <ele>275.56</ele>
        <time>2021-08-17T09:03:43Z</time>
      </trkpt>
      <trkpt lat="44.46106" lon="1.56953">
        <ele>275.07</ele>
        <time>2021-08-17T09:03:44Z</time>
      </trkpt>
      <trkpt lat="44.46108" lon="1.56959">
        <ele>274.59</ele>
        <time>2021-08-17T09:03:45Z</time>
      </trkpt>
      <trkpt lat="44.4611" lon="1.56964">
        <ele>274.59</ele>
        <time>2021-08-17T09:03:46Z</time>
      </trkpt>
      <trkpt lat="44.46114" lon="1.56969">
        <ele>273.63</ele>
        <time>2021-08-17T09:03:47Z</time>
      </trkpt>
      <trkpt lat="44.46117" lon="1.56974">
        <ele>273.63</ele>
        <time>2021-08-17T09:03:48Z</time>
      </trkpt>
      <trkpt lat="44.46122" lon="1.56978">
        <ele>273.15</ele>
        <time>2021-08-17T09:03:49Z</time>
      </trkpt>
      <trkpt lat="44.46127" lon="1.56984">
        <ele>272.19</ele>
        <time>2021-08-17T09:03:50Z</time>
      </trkpt>
      <trkpt lat="44.4615" lon="1.5701">
        <ele>270.27</ele>
        <time>2021-08-17T09:03:54Z</time>
      </trkpt>
      <trkpt lat="44.46161" lon="1.57025">
        <ele>268.83</ele>
        <time>2021-08-17T09:03:56Z</time>
      </trkpt>
      <trkpt lat="44.46165" lon="1.57033">
        <ele>268.83</ele>
        <time>2021-08-17T09:03:57Z</time>
      </trkpt>
      <trkpt lat="44.46169" lon="1.57042">
        <ele>268.83</ele>
        <time>2021-08-17T09:03:58Z</time>
      </trkpt>
      <trkpt lat="44.462" lon="1.57109">
        <ele>267.86</ele>
        <time>2021-08-17T09:04:06Z</time>
      </trkpt>
      <trkpt lat="44.46207" lon="1.57124">
        <ele>267.86</ele>
        <time>2021-08-17T09:04:08Z</time>
      </trkpt>
      <trkpt lat="44.46216" lon="1.57151">
        <ele>267.86</ele>
        <time>2021-08-17T09:04:12Z</time>
      </trkpt>
      <trkpt lat="44.46231" lon="1.57179">
        <ele>267.86</ele>
        <time>2021-08-17T09:04:18Z</time>
      </trkpt>
      <trkpt lat="44.46239" lon="1.57195">
        <ele>268.83</ele>
        <time>2021-08-17T09:04:22Z</time>
      </trkpt>
      <trkpt lat="44.46257" lon="1.5722">
        <ele>270.27</ele>
        <time>2021-08-17T09:04:30Z</time>
      </trkpt>
      <trkpt lat="44.46275" lon="1.57238">
        <ele>271.23</ele>
        <time>2021-08-17T09:04:40Z</time>
      </trkpt>
      <trkpt lat="44.46288" lon="1.57252">
        <ele>272.19</ele>
        <time>2021-08-17T09:04:48Z</time>
      </trkpt>
      <trkpt lat="44.463" lon="1.57266">
        <ele>273.15</ele>
        <time>2021-08-17T09:04:56Z</time>
      </trkpt>
      <trkpt lat="44.46312" lon="1.57281">
        <ele>274.59</ele>
        <time>2021-08-17T09:05:04Z</time>
      </trkpt>
      <trkpt lat="44.46322" lon="1.57296">
        <ele>275.56</ele>
        <time>2021-08-17T09:05:12Z</time>
      </trkpt>
      <trkpt lat="44.46333" lon="1.57311">
        <ele>277</ele>
        <time>2021-08-17T09:05:20Z</time>
      </trkpt>
      <trkpt lat="44.46337" lon="1.57316">
        <ele>277</ele>
        <time>2021-08-17T09:05:23Z</time>
      </trkpt>
      <trkpt lat="44.46346" lon="1.57333">
        <ele>278.44</ele>
        <time>2021-08-17T09:05:32Z</time>
      </trkpt>
      <trkpt lat="44.4636" lon="1.57351">
        <ele>279.88</ele>
        <time>2021-08-17T09:05:43Z</time>
      </trkpt>
      <trkpt lat="44.46366" lon="1.5736">
        <ele>280.36</ele>
        <time>2021-08-17T09:05:48Z</time>
      </trkpt>
      <trkpt lat="44.46376" lon="1.57374">
        <ele>281.8</ele>
        <time>2021-08-17T09:05:57Z</time>
      </trkpt>
      <trkpt lat="44.46385" lon="1.57384">
        <ele>282.28</ele>
        <time>2021-08-17T09:06:04Z</time>
      </trkpt>
      <trkpt lat="44.46399" lon="1.57402">
        <ele>283.25</ele>
        <time>2021-08-17T09:06:12Z</time>
      </trkpt>
      <trkpt lat="44.46409" lon="1.57421">
        <ele>284.69</ele>
        <time>2021-08-17T09:06:20Z</time>
      </trkpt>
      <trkpt lat="44.46419" lon="1.57437">
        <ele>285.17</ele>
        <time>2021-08-17T09:06:27Z</time>
      </trkpt>
      <trkpt lat="44.46438" lon="1.57456">
        <ele>285.65</ele>
        <time>2021-08-17T09:06:35Z</time>
      </trkpt>
      <trkpt lat="44.46459" lon="1.5747">
        <ele>285.65</ele>
        <time>2021-08-17T09:06:42Z</time>
      </trkpt>
      <trkpt lat="44.46474" lon="1.57481">
        <ele>286.61</ele>
        <time>2021-08-17T09:06:49Z</time>
      </trkpt>
      <trkpt lat="44.4649" lon="1.57492">
        <ele>287.57</ele>
        <time>2021-08-17T09:06:57Z</time>
      </trkpt>
      <trkpt lat="44.46508" lon="1.5751">
        <ele>288.05</ele>
        <time>2021-08-17T09:07:05Z</time>
      </trkpt>
      <trkpt lat="44.46529" lon="1.5753">
        <ele>288.53</ele>
        <time>2021-08-17T09:07:13Z</time>
      </trkpt>
      <trkpt lat="44.46551" lon="1.57555">
        <ele>289.01</ele>
        <time>2021-08-17T09:07:22Z</time>
      </trkpt>
      <trkpt lat="44.46569" lon="1.5758">
        <ele>289.01</ele>
        <time>2021-08-17T09:07:29Z</time>
      </trkpt>
      <trkpt lat="44.46587" lon="1.57594">
        <ele>289.49</ele>
        <time>2021-08-17T09:07:35Z</time>
      </trkpt>
      <trkpt lat="44.46607" lon="1.57616">
        <ele>289.49</ele>
        <time>2021-08-17T09:07:42Z</time>
      </trkpt>
      <trkpt lat="44.46622" lon="1.57649">
        <ele>289.49</ele>
        <time>2021-08-17T09:07:49Z</time>
      </trkpt>
      <trkpt lat="44.46623" lon="1.57656">
        <ele>289.49</ele>
        <time>2021-08-17T09:07:51Z</time>
      </trkpt>
      <trkpt lat="44.46625" lon="1.57655">
        <ele>289.49</ele>
        <time>2021-08-17T09:07:55Z</time>
      </trkpt>
      <trkpt lat="44.46625" lon="1.57652">
        <ele>289.49</ele>
        <time>2021-08-17T09:07:56Z</time>
      </trkpt>
      <trkpt lat="44.46626" lon="1.5765">
        <ele>289.49</ele>
        <time>2021-08-17T09:07:57Z</time>
      </trkpt>
      <trkpt lat="44.46627" lon="1.57648">
        <ele>289.49</ele>
        <time>2021-08-17T09:07:58Z</time>
      </trkpt>
      <trkpt lat="44.46629" lon="1.57646">
        <ele>289.49</ele>
        <time>2021-08-17T09:07:59Z</time>
      </trkpt>
      <trkpt lat="44.46631" lon="1.57646">
        <ele>289.49</ele>
        <time>2021-08-17T09:08:00Z</time>
      </trkpt>
      <trkpt lat="44.46634" lon="1.57645">
        <ele>289.49</ele>
        <time>2021-08-17T09:08:01Z</time>
      </trkpt>
      <trkpt lat="44.4665" lon="1.57645">
        <ele>289.49</ele>
        <time>2021-08-17T09:08:07Z</time>
      </trkpt>
      <trkpt lat="44.46662" lon="1.57651">
        <ele>287.09</ele>
        <time>2021-08-17T09:08:12Z</time>
      </trkpt>
      <trkpt lat="44.46676" lon="1.57661">
        <ele>285.65</ele>
        <time>2021-08-17T09:08:17Z</time>
      </trkpt>
      <trkpt lat="44.46677" lon="1.57664">
        <ele>285.17</ele>
        <time>2021-08-17T09:08:18Z</time>
      </trkpt>
      <trkpt lat="44.46678" lon="1.57667">
        <ele>285.17</ele>
        <time>2021-08-17T09:08:19Z</time>
      </trkpt>
      <trkpt lat="44.46678" lon="1.5767">
        <ele>285.17</ele>
        <time>2021-08-17T09:08:20Z</time>
      </trkpt>
      <trkpt lat="44.46678" lon="1.57673">
        <ele>285.17</ele>
        <time>2021-08-17T09:08:21Z</time>
      </trkpt>
      <trkpt lat="44.4668" lon="1.57674">
        <ele>284.69</ele>
        <time>2021-08-17T09:08:22Z</time>
      </trkpt>
      <trkpt lat="44.46687" lon="1.5769">
        <ele>282.77</ele>
        <time>2021-08-17T09:08:28Z</time>
      </trkpt>
      <trkpt lat="44.46697" lon="1.57704">
        <ele>280.84</ele>
        <time>2021-08-17T09:08:33Z</time>
      </trkpt>
      <trkpt lat="44.46709" lon="1.57713">
        <ele>278.44</ele>
        <time>2021-08-17T09:08:39Z</time>
      </trkpt>
      <trkpt lat="44.46728" lon="1.57721">
        <ele>275.07</ele>
        <time>2021-08-17T09:08:45Z</time>
      </trkpt>
      <trkpt lat="44.46741" lon="1.57725">
        <ele>272.67</ele>
        <time>2021-08-17T09:08:49Z</time>
      </trkpt>
      <trkpt lat="44.46754" lon="1.57732">
        <ele>269.79</ele>
        <time>2021-08-17T09:08:55Z</time>
      </trkpt>
      <trkpt lat="44.46756" lon="1.57733">
        <ele>269.31</ele>
        <time>2021-08-17T09:08:56Z</time>
      </trkpt>
      <trkpt lat="44.46758" lon="1.57735">
        <ele>268.35</ele>
        <time>2021-08-17T09:08:57Z</time>
      </trkpt>
      <trkpt lat="44.46759" lon="1.57735">
        <ele>268.35</ele>
        <time>2021-08-17T09:08:58Z</time>
      </trkpt>
      <trkpt lat="44.46761" lon="1.57736">
        <ele>267.86</ele>
        <time>2021-08-17T09:08:59Z</time>
      </trkpt>
      <trkpt lat="44.46763" lon="1.57737">
        <ele>266.9</ele>
        <time>2021-08-17T09:09:00Z</time>
      </trkpt>
      <trkpt lat="44.46765" lon="1.57739">
        <ele>266.42</ele>
        <time>2021-08-17T09:09:01Z</time>
      </trkpt>
      <trkpt lat="44.46767" lon="1.57741">
        <ele>265.94</ele>
        <time>2021-08-17T09:09:02Z</time>
      </trkpt>
      <trkpt lat="44.46769" lon="1.57744">
        <ele>265.94</ele>
        <time>2021-08-17T09:09:03Z</time>
      </trkpt>
      <trkpt lat="44.46775" lon="1.57755">
        <ele>262.58</ele>
        <time>2021-08-17T09:09:08Z</time>
      </trkpt>
      <trkpt lat="44.46777" lon="1.57756">
        <ele>262.1</ele>
        <time>2021-08-17T09:09:09Z</time>
      </trkpt>
      <trkpt lat="44.46779" lon="1.57758">
        <ele>262.1</ele>
        <time>2021-08-17T09:09:10Z</time>
      </trkpt>
      <trkpt lat="44.4678" lon="1.57761">
        <ele>261.14</ele>
        <time>2021-08-17T09:09:11Z</time>
      </trkpt>
      <trkpt lat="44.46782" lon="1.57763">
        <ele>260.17</ele>
        <time>2021-08-17T09:09:12Z</time>
      </trkpt>
      <trkpt lat="44.46793" lon="1.57776">
        <ele>256.81</ele>
        <time>2021-08-17T09:09:17Z</time>
      </trkpt>
      <trkpt lat="44.46801" lon="1.57794">
        <ele>253.93</ele>
        <time>2021-08-17T09:09:23Z</time>
      </trkpt>
      <trkpt lat="44.46812" lon="1.57811">
        <ele>251.04</ele>
        <time>2021-08-17T09:09:28Z</time>
      </trkpt>
      <trkpt lat="44.46824" lon="1.57827">
        <ele>247.68</ele>
        <time>2021-08-17T09:09:32Z</time>
      </trkpt>
      <trkpt lat="44.46834" lon="1.5785">
        <ele>243.83</ele>
        <time>2021-08-17T09:09:37Z</time>
      </trkpt>
      <trkpt lat="44.46841" lon="1.57865">
        <ele>241.91</ele>
        <time>2021-08-17T09:09:40Z</time>
      </trkpt>
      <trkpt lat="44.46844" lon="1.5787">
        <ele>240.95</ele>
        <time>2021-08-17T09:09:41Z</time>
      </trkpt>
      <trkpt lat="44.46848" lon="1.57874">
        <ele>240.47</ele>
        <time>2021-08-17T09:09:42Z</time>
      </trkpt>
      <trkpt lat="44.46854" lon="1.57877">
        <ele>239.99</ele>
        <time>2021-08-17T09:09:43Z</time>
      </trkpt>
      <trkpt lat="44.4686" lon="1.5788">
        <ele>239.02</ele>
        <time>2021-08-17T09:09:44Z</time>
      </trkpt>
      <trkpt lat="44.46866" lon="1.57882">
        <ele>238.54</ele>
        <time>2021-08-17T09:09:45Z</time>
      </trkpt>
      <trkpt lat="44.46886" lon="1.57889">
        <ele>236.14</ele>
        <time>2021-08-17T09:09:48Z</time>
      </trkpt>
      <trkpt lat="44.46908" lon="1.57894">
        <ele>232.3</ele>
        <time>2021-08-17T09:09:51Z</time>
      </trkpt>
      <trkpt lat="44.46934" lon="1.579">
        <ele>227.97</ele>
        <time>2021-08-17T09:09:54Z</time>
      </trkpt>
      <trkpt lat="44.46942" lon="1.57901">
        <ele>227.01</ele>
        <time>2021-08-17T09:09:55Z</time>
      </trkpt>
      <trkpt lat="44.46951" lon="1.579">
        <ele>226.05</ele>
        <time>2021-08-17T09:09:56Z</time>
      </trkpt>
      <trkpt lat="44.46956" lon="1.57899">
        <ele>225.09</ele>
        <time>2021-08-17T09:09:57Z</time>
      </trkpt>
      <trkpt lat="44.46961" lon="1.57896">
        <ele>225.57</ele>
        <time>2021-08-17T09:09:58Z</time>
      </trkpt>
      <trkpt lat="44.46964" lon="1.57893">
        <ele>224.12</ele>
        <time>2021-08-17T09:09:59Z</time>
      </trkpt>
      <trkpt lat="44.46966" lon="1.57891">
        <ele>224.12</ele>
        <time>2021-08-17T09:10:00Z</time>
      </trkpt>
      <trkpt lat="44.46968" lon="1.5789">
        <ele>224.12</ele>
        <time>2021-08-17T09:10:01Z</time>
      </trkpt>
      <trkpt lat="44.46968" lon="1.57889">
        <ele>224.12</ele>
        <time>2021-08-17T09:10:02Z</time>
      </trkpt>
      <trkpt lat="44.46969" lon="1.57888">
        <ele>223.64</ele>
        <time>2021-08-17T09:10:03Z</time>
      </trkpt>
      <trkpt lat="44.46967" lon="1.57888">
        <ele>223.64</ele>
        <time>2021-08-17T09:10:07Z</time>
      </trkpt>
      <trkpt lat="44.46966" lon="1.57889">
        <ele>224.12</ele>
        <time>2021-08-17T09:10:08Z</time>
      </trkpt>
      <trkpt lat="44.46963" lon="1.57892">
        <ele>224.12</ele>
        <time>2021-08-17T09:10:10Z</time>
      </trkpt>
      <trkpt lat="44.46966" lon="1.57897">
        <ele>224.12</ele>
        <time>2021-08-17T09:10:13Z</time>
      </trkpt>
      <trkpt lat="44.46967" lon="1.57897">
        <ele>224.12</ele>
        <time>2021-08-17T09:10:14Z</time>
      </trkpt>
      <trkpt lat="44.46984" lon="1.57898">
        <ele>220.76</ele>
        <time>2021-08-17T09:10:20Z</time>
      </trkpt>
      <trkpt lat="44.47001" lon="1.57905">
        <ele>216.91</ele>
        <time>2021-08-17T09:10:25Z</time>
      </trkpt>
      <trkpt lat="44.47016" lon="1.57914">
        <ele>213.55</ele>
        <time>2021-08-17T09:10:30Z</time>
      </trkpt>
      <trkpt lat="44.47019" lon="1.57915">
        <ele>213.07</ele>
        <time>2021-08-17T09:10:31Z</time>
      </trkpt>
      <trkpt lat="44.4703" lon="1.57914">
        <ele>211.15</ele>
        <time>2021-08-17T09:10:34Z</time>
      </trkpt>
      <trkpt lat="44.47034" lon="1.57914">
        <ele>210.19</ele>
        <time>2021-08-17T09:10:35Z</time>
      </trkpt>
      <trkpt lat="44.47039" lon="1.57913">
        <ele>209.22</ele>
        <time>2021-08-17T09:10:36Z</time>
      </trkpt>
      <trkpt lat="44.47043" lon="1.57912">
        <ele>208.26</ele>
        <time>2021-08-17T09:10:37Z</time>
      </trkpt>
      <trkpt lat="44.47047" lon="1.5791">
        <ele>207.3</ele>
        <time>2021-08-17T09:10:38Z</time>
      </trkpt>
      <trkpt lat="44.4705" lon="1.57907">
        <ele>207.3</ele>
        <time>2021-08-17T09:10:39Z</time>
      </trkpt>
      <trkpt lat="44.47053" lon="1.57903">
        <ele>206.34</ele>
        <time>2021-08-17T09:10:40Z</time>
      </trkpt>
      <trkpt lat="44.47056" lon="1.57898">
        <ele>205.38</ele>
        <time>2021-08-17T09:10:41Z</time>
      </trkpt>
      <trkpt lat="44.47059" lon="1.57896">
        <ele>204.9</ele>
        <time>2021-08-17T09:10:42Z</time>
      </trkpt>
      <trkpt lat="44.47063" lon="1.57897">
        <ele>203.94</ele>
        <time>2021-08-17T09:10:43Z</time>
      </trkpt>
      <trkpt lat="44.47067" lon="1.57901">
        <ele>202.98</ele>
        <time>2021-08-17T09:10:44Z</time>
      </trkpt>
      <trkpt lat="44.4707" lon="1.57907">
        <ele>202.49</ele>
        <time>2021-08-17T09:10:45Z</time>
      </trkpt>
      <trkpt lat="44.47074" lon="1.57915">
        <ele>201.53</ele>
        <time>2021-08-17T09:10:46Z</time>
      </trkpt>
      <trkpt lat="44.47077" lon="1.57923">
        <ele>200.57</ele>
        <time>2021-08-17T09:10:47Z</time>
      </trkpt>
      <trkpt lat="44.47089" lon="1.57948">
        <ele>197.69</ele>
        <time>2021-08-17T09:10:50Z</time>
      </trkpt>
      <trkpt lat="44.47092" lon="1.57955">
        <ele>196.73</ele>
        <time>2021-08-17T09:10:51Z</time>
      </trkpt>
      <trkpt lat="44.47094" lon="1.57959">
        <ele>196.25</ele>
        <time>2021-08-17T09:10:52Z</time>
      </trkpt>
      <trkpt lat="44.47098" lon="1.57961">
        <ele>195.77</ele>
        <time>2021-08-17T09:10:53Z</time>
      </trkpt>
      <trkpt lat="44.47102" lon="1.57958">
        <ele>194.32</ele>
        <time>2021-08-17T09:10:54Z</time>
      </trkpt>
      <trkpt lat="44.47106" lon="1.57953">
        <ele>193.36</ele>
        <time>2021-08-17T09:10:55Z</time>
      </trkpt>
      <trkpt lat="44.47109" lon="1.57945">
        <ele>192.88</ele>
        <time>2021-08-17T09:10:56Z</time>
      </trkpt>
      <trkpt lat="44.47111" lon="1.57936">
        <ele>191.92</ele>
        <time>2021-08-17T09:10:57Z</time>
      </trkpt>
      <trkpt lat="44.47113" lon="1.57927">
        <ele>190.96</ele>
        <time>2021-08-17T09:10:58Z</time>
      </trkpt>
      <trkpt lat="44.47119" lon="1.579">
        <ele>189.52</ele>
        <time>2021-08-17T09:11:01Z</time>
      </trkpt>
      <trkpt lat="44.47123" lon="1.57886">
        <ele>187.59</ele>
        <time>2021-08-17T09:11:03Z</time>
      </trkpt>
      <trkpt lat="44.47127" lon="1.57876">
        <ele>185.67</ele>
        <time>2021-08-17T09:11:05Z</time>
      </trkpt>
      <trkpt lat="44.4713" lon="1.57874">
        <ele>185.19</ele>
        <time>2021-08-17T09:11:06Z</time>
      </trkpt>
      <trkpt lat="44.47133" lon="1.57876">
        <ele>184.71</ele>
        <time>2021-08-17T09:11:07Z</time>
      </trkpt>
      <trkpt lat="44.47137" lon="1.57879">
        <ele>183.75</ele>
        <time>2021-08-17T09:11:08Z</time>
      </trkpt>
      <trkpt lat="44.4714" lon="1.57884">
        <ele>183.27</ele>
        <time>2021-08-17T09:11:09Z</time>
      </trkpt>
      <trkpt lat="44.47143" lon="1.5789">
        <ele>182.31</ele>
        <time>2021-08-17T09:11:10Z</time>
      </trkpt>
      <trkpt lat="44.47156" lon="1.57911">
        <ele>179.42</ele>
        <time>2021-08-17T09:11:14Z</time>
      </trkpt>
      <trkpt lat="44.47162" lon="1.57917">
        <ele>177.98</ele>
        <time>2021-08-17T09:11:16Z</time>
      </trkpt>
      <trkpt lat="44.47165" lon="1.57916">
        <ele>177.5</ele>
        <time>2021-08-17T09:11:17Z</time>
      </trkpt>
      <trkpt lat="44.47169" lon="1.57912">
        <ele>176.54</ele>
        <time>2021-08-17T09:11:18Z</time>
      </trkpt>
      <trkpt lat="44.47173" lon="1.57906">
        <ele>175.58</ele>
        <time>2021-08-17T09:11:19Z</time>
      </trkpt>
      <trkpt lat="44.47177" lon="1.57898">
        <ele>174.14</ele>
        <time>2021-08-17T09:11:20Z</time>
      </trkpt>
      <trkpt lat="44.47186" lon="1.57883">
        <ele>170.77</ele>
        <time>2021-08-17T09:11:22Z</time>
      </trkpt>
      <trkpt lat="44.47192" lon="1.57876">
        <ele>170.29</ele>
        <time>2021-08-17T09:11:23Z</time>
      </trkpt>
      <trkpt lat="44.472" lon="1.57871">
        <ele>169.33</ele>
        <time>2021-08-17T09:11:24Z</time>
      </trkpt>
      <trkpt lat="44.47223" lon="1.57853">
        <ele>165.96</ele>
        <time>2021-08-17T09:11:27Z</time>
      </trkpt>
      <trkpt lat="44.47238" lon="1.57838">
        <ele>165</ele>
        <time>2021-08-17T09:11:29Z</time>
      </trkpt>
      <trkpt lat="44.47244" lon="1.57833">
        <ele>164.04</ele>
        <time>2021-08-17T09:11:30Z</time>
      </trkpt>
      <trkpt lat="44.47251" lon="1.57829">
        <ele>165</ele>
        <time>2021-08-17T09:11:31Z</time>
      </trkpt>
      <trkpt lat="44.47256" lon="1.5783">
        <ele>165</ele>
        <time>2021-08-17T09:11:32Z</time>
      </trkpt>
      <trkpt lat="44.4726" lon="1.57834">
        <ele>165</ele>
        <time>2021-08-17T09:11:33Z</time>
      </trkpt>
      <trkpt lat="44.47264" lon="1.5784">
        <ele>164.52</ele>
        <time>2021-08-17T09:11:34Z</time>
      </trkpt>
      <trkpt lat="44.47266" lon="1.57846">
        <ele>164.52</ele>
        <time>2021-08-17T09:11:35Z</time>
      </trkpt>
      <trkpt lat="44.47268" lon="1.57852">
        <ele>164.04</ele>
        <time>2021-08-17T09:11:36Z</time>
      </trkpt>
      <trkpt lat="44.4727" lon="1.57859">
        <ele>164.04</ele>
        <time>2021-08-17T09:11:37Z</time>
      </trkpt>
      <trkpt lat="44.4727" lon="1.57866">
        <ele>163.08</ele>
        <time>2021-08-17T09:11:38Z</time>
      </trkpt>
      <trkpt lat="44.47269" lon="1.57872">
        <ele>163.08</ele>
        <time>2021-08-17T09:11:39Z</time>
      </trkpt>
      <trkpt lat="44.47266" lon="1.57879">
        <ele>163.08</ele>
        <time>2021-08-17T09:11:40Z</time>
      </trkpt>
      <trkpt lat="44.47261" lon="1.57885">
        <ele>162.12</ele>
        <time>2021-08-17T09:11:41Z</time>
      </trkpt>
      <trkpt lat="44.47257" lon="1.57891">
        <ele>161.64</ele>
        <time>2021-08-17T09:11:42Z</time>
      </trkpt>
      <trkpt lat="44.47251" lon="1.57897">
        <ele>161.16</ele>
        <time>2021-08-17T09:11:43Z</time>
      </trkpt>
      <trkpt lat="44.47245" lon="1.57903">
        <ele>160.68</ele>
        <time>2021-08-17T09:11:44Z</time>
      </trkpt>
      <trkpt lat="44.47211" lon="1.57933">
        <ele>157.31</ele>
        <time>2021-08-17T09:11:49Z</time>
      </trkpt>
      <trkpt lat="44.4718" lon="1.57966">
        <ele>153.95</ele>
        <time>2021-08-17T09:11:53Z</time>
      </trkpt>
      <trkpt lat="44.47154" lon="1.57996">
        <ele>150.1</ele>
        <time>2021-08-17T09:11:56Z</time>
      </trkpt>
      <trkpt lat="44.47119" lon="1.5804">
        <ele>145.78</ele>
        <time>2021-08-17T09:12:00Z</time>
      </trkpt>
      <trkpt lat="44.47104" lon="1.58064">
        <ele>144.34</ele>
        <time>2021-08-17T09:12:02Z</time>
      </trkpt>
      <trkpt lat="44.47098" lon="1.58076">
        <ele>144.34</ele>
        <time>2021-08-17T09:12:03Z</time>
      </trkpt>
      <trkpt lat="44.47093" lon="1.58085">
        <ele>144.34</ele>
        <time>2021-08-17T09:12:04Z</time>
      </trkpt>
      <trkpt lat="44.47087" lon="1.58092">
        <ele>143.37</ele>
        <time>2021-08-17T09:12:05Z</time>
      </trkpt>
      <trkpt lat="44.4708" lon="1.58097">
        <ele>143.85</ele>
        <time>2021-08-17T09:12:06Z</time>
      </trkpt>
      <trkpt lat="44.47066" lon="1.58106">
        <ele>141.93</ele>
        <time>2021-08-17T09:12:08Z</time>
      </trkpt>
      <trkpt lat="44.47058" lon="1.58112">
        <ele>140.49</ele>
        <time>2021-08-17T09:12:09Z</time>
      </trkpt>
      <trkpt lat="44.47026" lon="1.58147">
        <ele>136.64</ele>
        <time>2021-08-17T09:12:13Z</time>
      </trkpt>
      <trkpt lat="44.47002" lon="1.58179">
        <ele>133.76</ele>
        <time>2021-08-17T09:12:16Z</time>
      </trkpt>
      <trkpt lat="44.46988" lon="1.58202">
        <ele>132.8</ele>
        <time>2021-08-17T09:12:18Z</time>
      </trkpt>
      <trkpt lat="44.46973" lon="1.58221">
        <ele>132.8</ele>
        <time>2021-08-17T09:12:20Z</time>
      </trkpt>
      <trkpt lat="44.46966" lon="1.58227">
        <ele>132.8</ele>
        <time>2021-08-17T09:12:21Z</time>
      </trkpt>
      <trkpt lat="44.46958" lon="1.58233">
        <ele>132.8</ele>
        <time>2021-08-17T09:12:22Z</time>
      </trkpt>
      <trkpt lat="44.4695" lon="1.58237">
        <ele>132.8</ele>
        <time>2021-08-17T09:12:23Z</time>
      </trkpt>
      <trkpt lat="44.46942" lon="1.58241">
        <ele>132.8</ele>
        <time>2021-08-17T09:12:24Z</time>
      </trkpt>
      <trkpt lat="44.46935" lon="1.58245">
        <ele>134.24</ele>
        <time>2021-08-17T09:12:25Z</time>
      </trkpt>
      <trkpt lat="44.46904" lon="1.58265">
        <ele>135.2</ele>
        <time>2021-08-17T09:12:30Z</time>
      </trkpt>
      <trkpt lat="44.46868" lon="1.58298">
        <ele>135.68</ele>
        <time>2021-08-17T09:12:38Z</time>
      </trkpt>
      <trkpt lat="44.46833" lon="1.58343">
        <ele>135.68</ele>
        <time>2021-08-17T09:12:46Z</time>
      </trkpt>
      <trkpt lat="44.46813" lon="1.58381">
        <ele>135.68</ele>
        <time>2021-08-17T09:12:52Z</time>
      </trkpt>
      <trkpt lat="44.46805" lon="1.58396">
        <ele>137.61</ele>
        <time>2021-08-17T09:12:57Z</time>
      </trkpt>
      <trkpt lat="44.468" lon="1.58412">
        <ele>138.57</ele>
        <time>2021-08-17T09:13:03Z</time>
      </trkpt>
      <trkpt lat="44.46801" lon="1.58415">
        <ele>138.57</ele>
        <time>2021-08-17T09:13:04Z</time>
      </trkpt>
      <trkpt lat="44.46803" lon="1.58419">
        <ele>138.57</ele>
        <time>2021-08-17T09:13:05Z</time>
      </trkpt>
      <trkpt lat="44.46806" lon="1.58422">
        <ele>137.13</ele>
        <time>2021-08-17T09:13:06Z</time>
      </trkpt>
      <trkpt lat="44.4681" lon="1.58426">
        <ele>136.64</ele>
        <time>2021-08-17T09:13:07Z</time>
      </trkpt>
      <trkpt lat="44.46814" lon="1.5843">
        <ele>136.16</ele>
        <time>2021-08-17T09:13:08Z</time>
      </trkpt>
      <trkpt lat="44.46817" lon="1.58435">
        <ele>136.16</ele>
        <time>2021-08-17T09:13:09Z</time>
      </trkpt>
      <trkpt lat="44.46821" lon="1.58442">
        <ele>134.72</ele>
        <time>2021-08-17T09:13:10Z</time>
      </trkpt>
      <trkpt lat="44.46822" lon="1.58449">
        <ele>134.72</ele>
        <time>2021-08-17T09:13:11Z</time>
      </trkpt>
      <trkpt lat="44.46823" lon="1.58456">
        <ele>134.24</ele>
        <time>2021-08-17T09:13:12Z</time>
      </trkpt>
      <trkpt lat="44.46821" lon="1.58463">
        <ele>133.76</ele>
        <time>2021-08-17T09:13:13Z</time>
      </trkpt>
      <trkpt lat="44.46818" lon="1.5847">
        <ele>133.28</ele>
        <time>2021-08-17T09:13:14Z</time>
      </trkpt>
      <trkpt lat="44.46814" lon="1.58476">
        <ele>132.8</ele>
        <time>2021-08-17T09:13:15Z</time>
      </trkpt>
      <trkpt lat="44.4681" lon="1.58483">
        <ele>132.8</ele>
        <time>2021-08-17T09:13:16Z</time>
      </trkpt>
      <trkpt lat="44.46806" lon="1.5849">
        <ele>132.32</ele>
        <time>2021-08-17T09:13:17Z</time>
      </trkpt>
      <trkpt lat="44.46772" lon="1.5854">
        <ele>131.36</ele>
        <time>2021-08-17T09:13:25Z</time>
      </trkpt>
      <trkpt lat="44.46746" lon="1.58573">
        <ele>131.84</ele>
        <time>2021-08-17T09:13:33Z</time>
      </trkpt>
      <trkpt lat="44.46715" lon="1.58607">
        <ele>131.84</ele>
        <time>2021-08-17T09:13:42Z</time>
      </trkpt>
      <trkpt lat="44.46686" lon="1.58641">
        <ele>131.84</ele>
        <time>2021-08-17T09:13:50Z</time>
      </trkpt>
      <trkpt lat="44.46676" lon="1.58653">
        <ele>131.84</ele>
        <time>2021-08-17T09:13:53Z</time>
      </trkpt>
      <trkpt lat="44.46673" lon="1.58657">
        <ele>131.84</ele>
        <time>2021-08-17T09:13:54Z</time>
      </trkpt>
      <trkpt lat="44.46636" lon="1.5871">
        <ele>131.84</ele>
        <time>2021-08-17T09:14:05Z</time>
      </trkpt>
      <trkpt lat="44.46619" lon="1.58735">
        <ele>131.84</ele>
        <time>2021-08-17T09:14:10Z</time>
      </trkpt>
      <trkpt lat="44.46586" lon="1.58788">
        <ele>131.84</ele>
        <time>2021-08-17T09:14:20Z</time>
      </trkpt>
      <trkpt lat="44.46552" lon="1.58839">
        <ele>131.84</ele>
        <time>2021-08-17T09:14:30Z</time>
      </trkpt>
      <trkpt lat="44.46543" lon="1.58853">
        <ele>131.84</ele>
        <time>2021-08-17T09:14:35Z</time>
      </trkpt>
      <trkpt lat="44.46542" lon="1.58855">
        <ele>133.28</ele>
        <time>2021-08-17T09:14:40Z</time>
      </trkpt>
      <trkpt lat="44.46542" lon="1.58855">
        <ele>133.28</ele>
        <time>2021-08-17T09:15:05Z</time>
      </trkpt>
      <trkpt lat="44.4654" lon="1.58856">
        <ele>133.28</ele>
        <time>2021-08-17T09:15:09Z</time>
      </trkpt>
      <trkpt lat="44.46539" lon="1.58856">
        <ele>133.28</ele>
        <time>2021-08-17T09:15:10Z</time>
      </trkpt>
      <trkpt lat="44.46539" lon="1.58858">
        <ele>133.76</ele>
        <time>2021-08-17T09:15:17Z</time>
      </trkpt>
      <trkpt lat="44.46538" lon="1.58862">
        <ele>133.76</ele>
        <time>2021-08-17T09:15:34Z</time>
      </trkpt>
      <trkpt lat="44.46539" lon="1.58861">
        <ele>133.76</ele>
        <time>2021-08-17T09:15:44Z</time>
      </trkpt>
      <trkpt lat="44.4654" lon="1.58862">
        <ele>133.76</ele>
        <time>2021-08-17T09:16:05Z</time>
      </trkpt>
      <trkpt lat="44.4654" lon="1.5886">
        <ele>133.76</ele>
        <time>2021-08-17T09:16:22Z</time>
      </trkpt>
      <trkpt lat="44.46538" lon="1.58862">
        <ele>133.76</ele>
        <time>2021-08-17T09:16:33Z</time>
      </trkpt>
      <trkpt lat="44.46537" lon="1.58864">
        <ele>133.76</ele>
        <time>2021-08-17T09:16:34Z</time>
      </trkpt>
      <trkpt lat="44.46528" lon="1.58881">
        <ele>133.28</ele>
        <time>2021-08-17T09:16:41Z</time>
      </trkpt>
      <trkpt lat="44.46507" lon="1.58919">
        <ele>133.28</ele>
        <time>2021-08-17T09:16:49Z</time>
      </trkpt>
      <trkpt lat="44.46481" lon="1.58975">
        <ele>133.28</ele>
        <time>2021-08-17T09:17:00Z</time>
      </trkpt>
      <trkpt lat="44.46451" lon="1.59032">
        <ele>133.28</ele>
        <time>2021-08-17T09:17:11Z</time>
      </trkpt>
      <trkpt lat="44.46435" lon="1.5906">
        <ele>134.24</ele>
        <time>2021-08-17T09:17:18Z</time>
      </trkpt>
      <trkpt lat="44.46431" lon="1.59074">
        <ele>134.72</ele>
        <time>2021-08-17T09:17:25Z</time>
      </trkpt>
      <trkpt lat="44.46429" lon="1.59078">
        <ele>134.72</ele>
        <time>2021-08-17T09:17:27Z</time>
      </trkpt>
      <trkpt lat="44.46427" lon="1.5908">
        <ele>135.2</ele>
        <time>2021-08-17T09:17:28Z</time>
      </trkpt>
      <trkpt lat="44.46426" lon="1.59082">
        <ele>135.2</ele>
        <time>2021-08-17T09:17:29Z</time>
      </trkpt>
      <trkpt lat="44.46425" lon="1.59084">
        <ele>135.68</ele>
        <time>2021-08-17T09:17:30Z</time>
      </trkpt>
      <trkpt lat="44.46424" lon="1.59085">
        <ele>135.68</ele>
        <time>2021-08-17T09:17:31Z</time>
      </trkpt>
      <trkpt lat="44.4642" lon="1.59094">
        <ele>136.64</ele>
        <time>2021-08-17T09:17:37Z</time>
      </trkpt>
      <trkpt lat="44.46408" lon="1.59104">
        <ele>138.09</ele>
        <time>2021-08-17T09:17:47Z</time>
      </trkpt>
      <trkpt lat="44.46404" lon="1.59107">
        <ele>138.57</ele>
        <time>2021-08-17T09:17:53Z</time>
      </trkpt>
      <trkpt lat="44.46396" lon="1.59111">
        <ele>140.49</ele>
        <time>2021-08-17T09:18:03Z</time>
      </trkpt>
      <trkpt lat="44.46389" lon="1.59111">
        <ele>141.45</ele>
        <time>2021-08-17T09:18:11Z</time>
      </trkpt>
      <trkpt lat="44.46381" lon="1.59113">
        <ele>142.89</ele>
        <time>2021-08-17T09:18:19Z</time>
      </trkpt>
      <trkpt lat="44.46371" lon="1.59112">
        <ele>144.34</ele>
        <time>2021-08-17T09:18:28Z</time>
      </trkpt>
      <trkpt lat="44.46366" lon="1.59111">
        <ele>144.82</ele>
        <time>2021-08-17T09:18:36Z</time>
      </trkpt>
      <trkpt lat="44.46355" lon="1.59109">
        <ele>145.78</ele>
        <time>2021-08-17T09:18:45Z</time>
      </trkpt>
      <trkpt lat="44.46347" lon="1.59107">
        <ele>146.74</ele>
        <time>2021-08-17T09:18:52Z</time>
      </trkpt>
      <trkpt lat="44.46336" lon="1.59106">
        <ele>147.7</ele>
        <time>2021-08-17T09:19:00Z</time>
      </trkpt>
      <trkpt lat="44.46322" lon="1.59101">
        <ele>149.14</ele>
        <time>2021-08-17T09:19:09Z</time>
      </trkpt>
      <trkpt lat="44.46314" lon="1.59098">
        <ele>150.1</ele>
        <time>2021-08-17T09:19:17Z</time>
      </trkpt>
      <trkpt lat="44.4631" lon="1.59093">
        <ele>151.54</ele>
        <time>2021-08-17T09:19:25Z</time>
      </trkpt>
      <trkpt lat="44.46309" lon="1.59091">
        <ele>151.54</ele>
        <time>2021-08-17T09:19:27Z</time>
      </trkpt>
      <trkpt lat="44.46308" lon="1.5909">
        <ele>152.03</ele>
        <time>2021-08-17T09:19:28Z</time>
      </trkpt>
      <trkpt lat="44.46307" lon="1.59089">
        <ele>152.03</ele>
        <time>2021-08-17T09:19:29Z</time>
      </trkpt>
      <trkpt lat="44.46296" lon="1.59076">
        <ele>153.47</ele>
        <time>2021-08-17T09:19:40Z</time>
      </trkpt>
      <trkpt lat="44.4629" lon="1.59071">
        <ele>153.47</ele>
        <time>2021-08-17T09:19:48Z</time>
      </trkpt>
      <trkpt lat="44.46286" lon="1.59068">
        <ele>154.43</ele>
        <time>2021-08-17T09:19:52Z</time>
      </trkpt>
      <trkpt lat="44.46284" lon="1.59067">
        <ele>154.43</ele>
        <time>2021-08-17T09:19:53Z</time>
      </trkpt>
      <trkpt lat="44.46283" lon="1.59066">
        <ele>154.43</ele>
        <time>2021-08-17T09:19:54Z</time>
      </trkpt>
      <trkpt lat="44.46278" lon="1.59065">
        <ele>154.91</ele>
        <time>2021-08-17T09:19:57Z</time>
      </trkpt>
      <trkpt lat="44.46275" lon="1.59066">
        <ele>155.39</ele>
        <time>2021-08-17T09:19:58Z</time>
      </trkpt>
      <trkpt lat="44.46273" lon="1.59066">
        <ele>155.39</ele>
        <time>2021-08-17T09:19:59Z</time>
      </trkpt>
      <trkpt lat="44.46267" lon="1.59063">
        <ele>155.87</ele>
        <time>2021-08-17T09:20:03Z</time>
      </trkpt>
      <trkpt lat="44.46264" lon="1.59061">
        <ele>155.87</ele>
        <time>2021-08-17T09:20:05Z</time>
      </trkpt>
      <trkpt lat="44.46262" lon="1.59061">
        <ele>156.35</ele>
        <time>2021-08-17T09:20:06Z</time>
      </trkpt>
      <trkpt lat="44.4626" lon="1.5906">
        <ele>156.35</ele>
        <time>2021-08-17T09:20:07Z</time>
      </trkpt>
      <trkpt lat="44.46258" lon="1.5906">
        <ele>156.35</ele>
        <time>2021-08-17T09:20:08Z</time>
      </trkpt>
      <trkpt lat="44.46257" lon="1.5906">
        <ele>156.83</ele>
        <time>2021-08-17T09:20:09Z</time>
      </trkpt>
      <trkpt lat="44.46255" lon="1.59059">
        <ele>156.83</ele>
        <time>2021-08-17T09:20:10Z</time>
      </trkpt>
      <trkpt lat="44.46253" lon="1.59059">
        <ele>156.83</ele>
        <time>2021-08-17T09:20:11Z</time>
      </trkpt>
      <trkpt lat="44.46252" lon="1.59058">
        <ele>156.83</ele>
        <time>2021-08-17T09:20:12Z</time>
      </trkpt>
      <trkpt lat="44.4625" lon="1.59058">
        <ele>156.83</ele>
        <time>2021-08-17T09:20:13Z</time>
      </trkpt>
      <trkpt lat="44.46248" lon="1.59058">
        <ele>157.31</ele>
        <time>2021-08-17T09:20:14Z</time>
      </trkpt>
      <trkpt lat="44.46236" lon="1.59058">
        <ele>158.27</ele>
        <time>2021-08-17T09:20:22Z</time>
      </trkpt>
      <trkpt lat="44.46225" lon="1.59058">
        <ele>158.75</ele>
        <time>2021-08-17T09:20:29Z</time>
      </trkpt>
      <trkpt lat="44.46221" lon="1.5906">
        <ele>158.75</ele>
        <time>2021-08-17T09:20:32Z</time>
      </trkpt>
      <trkpt lat="44.4622" lon="1.59062">
        <ele>159.24</ele>
        <time>2021-08-17T09:20:33Z</time>
      </trkpt>
      <trkpt lat="44.4622" lon="1.59065">
        <ele>159.72</ele>
        <time>2021-08-17T09:20:34Z</time>
      </trkpt>
      <trkpt lat="44.46221" lon="1.59066">
        <ele>159.72</ele>
        <time>2021-08-17T09:20:35Z</time>
      </trkpt>
      <trkpt lat="44.46221" lon="1.59068">
        <ele>159.72</ele>
        <time>2021-08-17T09:20:36Z</time>
      </trkpt>
      <trkpt lat="44.46222" lon="1.59069">
        <ele>159.72</ele>
        <time>2021-08-17T09:20:37Z</time>
      </trkpt>
      <trkpt lat="44.46224" lon="1.5907">
        <ele>160.2</ele>
        <time>2021-08-17T09:20:38Z</time>
      </trkpt>
      <trkpt lat="44.46235" lon="1.59077">
        <ele>161.64</ele>
        <time>2021-08-17T09:20:47Z</time>
      </trkpt>
      <trkpt lat="44.46248" lon="1.59084">
        <ele>162.12</ele>
        <time>2021-08-17T09:20:56Z</time>
      </trkpt>
      <trkpt lat="44.46252" lon="1.59086">
        <ele>162.12</ele>
        <time>2021-08-17T09:20:58Z</time>
      </trkpt>
      <trkpt lat="44.46253" lon="1.59086">
        <ele>162.6</ele>
        <time>2021-08-17T09:20:59Z</time>
      </trkpt>
      <trkpt lat="44.46255" lon="1.59087">
        <ele>162.6</ele>
        <time>2021-08-17T09:21:00Z</time>
      </trkpt>
      <trkpt lat="44.46256" lon="1.59088">
        <ele>163.08</ele>
        <time>2021-08-17T09:21:01Z</time>
      </trkpt>
      <trkpt lat="44.46258" lon="1.59089">
        <ele>163.08</ele>
        <time>2021-08-17T09:21:02Z</time>
      </trkpt>
      <trkpt lat="44.46262" lon="1.59094">
        <ele>163.56</ele>
        <time>2021-08-17T09:21:06Z</time>
      </trkpt>
      <trkpt lat="44.46262" lon="1.59096">
        <ele>164.04</ele>
        <time>2021-08-17T09:21:07Z</time>
      </trkpt>
      <trkpt lat="44.4626" lon="1.59097">
        <ele>164.04</ele>
        <time>2021-08-17T09:21:08Z</time>
      </trkpt>
      <trkpt lat="44.46259" lon="1.59097">
        <ele>164.04</ele>
        <time>2021-08-17T09:21:09Z</time>
      </trkpt>
      <trkpt lat="44.46258" lon="1.59097">
        <ele>164.04</ele>
        <time>2021-08-17T09:21:10Z</time>
      </trkpt>
      <trkpt lat="44.46256" lon="1.59097">
        <ele>164.52</ele>
        <time>2021-08-17T09:21:11Z</time>
      </trkpt>
      <trkpt lat="44.46254" lon="1.59097">
        <ele>164.52</ele>
        <time>2021-08-17T09:21:12Z</time>
      </trkpt>
      <trkpt lat="44.46253" lon="1.59097">
        <ele>164.52</ele>
        <time>2021-08-17T09:21:13Z</time>
      </trkpt>
      <trkpt lat="44.46235" lon="1.591">
        <ele>165.48</ele>
        <time>2021-08-17T09:21:24Z</time>
      </trkpt>
      <trkpt lat="44.46229" lon="1.59102">
        <ele>166.45</ele>
        <time>2021-08-17T09:21:31Z</time>
      </trkpt>
      <trkpt lat="44.46222" lon="1.59102">
        <ele>167.89</ele>
        <time>2021-08-17T09:21:42Z</time>
      </trkpt>
      <trkpt lat="44.46218" lon="1.59103">
        <ele>169.33</ele>
        <time>2021-08-17T09:21:49Z</time>
      </trkpt>
      <trkpt lat="44.46214" lon="1.59104">
        <ele>169.81</ele>
        <time>2021-08-17T09:21:57Z</time>
      </trkpt>
      <trkpt lat="44.46208" lon="1.59105">
        <ele>171.25</ele>
        <time>2021-08-17T09:22:03Z</time>
      </trkpt>
      <trkpt lat="44.462" lon="1.59106">
        <ele>172.21</ele>
        <time>2021-08-17T09:22:12Z</time>
      </trkpt>
      <trkpt lat="44.46193" lon="1.59108">
        <ele>173.66</ele>
        <time>2021-08-17T09:22:21Z</time>
      </trkpt>
      <trkpt lat="44.46186" lon="1.59109">
        <ele>174.62</ele>
        <time>2021-08-17T09:22:29Z</time>
      </trkpt>
      <trkpt lat="44.46178" lon="1.59111">
        <ele>176.06</ele>
        <time>2021-08-17T09:22:39Z</time>
      </trkpt>
      <trkpt lat="44.4617" lon="1.59112">
        <ele>177.02</ele>
        <time>2021-08-17T09:22:48Z</time>
      </trkpt>
      <trkpt lat="44.46162" lon="1.59113">
        <ele>177.98</ele>
        <time>2021-08-17T09:22:57Z</time>
      </trkpt>
      <trkpt lat="44.46155" lon="1.59115">
        <ele>178.94</ele>
        <time>2021-08-17T09:23:05Z</time>
      </trkpt>
      <trkpt lat="44.46147" lon="1.59119">
        <ele>179.9</ele>
        <time>2021-08-17T09:23:14Z</time>
      </trkpt>
      <trkpt lat="44.46138" lon="1.59122">
        <ele>181.83</ele>
        <time>2021-08-17T09:23:24Z</time>
      </trkpt>
      <trkpt lat="44.46131" lon="1.59125">
        <ele>182.31</ele>
        <time>2021-08-17T09:23:32Z</time>
      </trkpt>
      <trkpt lat="44.46123" lon="1.59128">
        <ele>183.75</ele>
        <time>2021-08-17T09:23:42Z</time>
      </trkpt>
      <trkpt lat="44.46117" lon="1.59129">
        <ele>185.19</ele>
        <time>2021-08-17T09:23:50Z</time>
      </trkpt>
      <trkpt lat="44.46111" lon="1.59131">
        <ele>186.15</ele>
        <time>2021-08-17T09:23:59Z</time>
      </trkpt>
      <trkpt lat="44.46105" lon="1.59132">
        <ele>187.11</ele>
        <time>2021-08-17T09:24:07Z</time>
      </trkpt>
      <trkpt lat="44.46099" lon="1.59134">
        <ele>188.56</ele>
        <time>2021-08-17T09:24:16Z</time>
      </trkpt>
      <trkpt lat="44.46094" lon="1.59136">
        <ele>189.52</ele>
        <time>2021-08-17T09:24:24Z</time>
      </trkpt>
      <trkpt lat="44.4609" lon="1.59138">
        <ele>190.96</ele>
        <time>2021-08-17T09:24:32Z</time>
      </trkpt>
      <trkpt lat="44.46084" lon="1.5914">
        <ele>191.92</ele>
        <time>2021-08-17T09:24:41Z</time>
      </trkpt>
      <trkpt lat="44.4608" lon="1.59141">
        <ele>192.88</ele>
        <time>2021-08-17T09:24:48Z</time>
      </trkpt>
      <trkpt lat="44.46075" lon="1.59143">
        <ele>194.32</ele>
        <time>2021-08-17T09:24:57Z</time>
      </trkpt>
      <trkpt lat="44.46071" lon="1.59146">
        <ele>195.28</ele>
        <time>2021-08-17T09:25:04Z</time>
      </trkpt>
      <trkpt lat="44.46066" lon="1.5915">
        <ele>196.73</ele>
        <time>2021-08-17T09:25:12Z</time>
      </trkpt>
      <trkpt lat="44.46061" lon="1.59151">
        <ele>198.17</ele>
        <time>2021-08-17T09:25:22Z</time>
      </trkpt>
      <trkpt lat="44.46057" lon="1.59153">
        <ele>199.13</ele>
        <time>2021-08-17T09:25:29Z</time>
      </trkpt>
      <trkpt lat="44.46053" lon="1.59157">
        <ele>200.09</ele>
        <time>2021-08-17T09:25:37Z</time>
      </trkpt>
      <trkpt lat="44.46049" lon="1.59159">
        <ele>201.53</ele>
        <time>2021-08-17T09:25:46Z</time>
      </trkpt>
      <trkpt lat="44.46044" lon="1.59162">
        <ele>202.49</ele>
        <time>2021-08-17T09:25:54Z</time>
      </trkpt>
      <trkpt lat="44.46037" lon="1.59166">
        <ele>204.42</ele>
        <time>2021-08-17T09:26:03Z</time>
      </trkpt>
      <trkpt lat="44.4603" lon="1.59167">
        <ele>204.9</ele>
        <time>2021-08-17T09:26:12Z</time>
      </trkpt>
      <trkpt lat="44.46024" lon="1.59169">
        <ele>206.34</ele>
        <time>2021-08-17T09:26:20Z</time>
      </trkpt>
      <trkpt lat="44.46019" lon="1.59173">
        <ele>207.3</ele>
        <time>2021-08-17T09:26:29Z</time>
      </trkpt>
      <trkpt lat="44.46014" lon="1.59176">
        <ele>208.74</ele>
        <time>2021-08-17T09:26:37Z</time>
      </trkpt>
      <trkpt lat="44.46006" lon="1.5918">
        <ele>209.7</ele>
        <time>2021-08-17T09:26:46Z</time>
      </trkpt>
      <trkpt lat="44.46" lon="1.59183">
        <ele>211.63</ele>
        <time>2021-08-17T09:26:56Z</time>
      </trkpt>
      <trkpt lat="44.45994" lon="1.59186">
        <ele>212.59</ele>
        <time>2021-08-17T09:27:06Z</time>
      </trkpt>
      <trkpt lat="44.4599" lon="1.59187">
        <ele>213.55</ele>
        <time>2021-08-17T09:27:14Z</time>
      </trkpt>
      <trkpt lat="44.45984" lon="1.59192">
        <ele>215.47</ele>
        <time>2021-08-17T09:27:24Z</time>
      </trkpt>
      <trkpt lat="44.45978" lon="1.59196">
        <ele>216.43</ele>
        <time>2021-08-17T09:27:33Z</time>
      </trkpt>
      <trkpt lat="44.45972" lon="1.59201">
        <ele>217.88</ele>
        <time>2021-08-17T09:27:42Z</time>
      </trkpt>
      <trkpt lat="44.45966" lon="1.59206">
        <ele>219.32</ele>
        <time>2021-08-17T09:27:50Z</time>
      </trkpt>
      <trkpt lat="44.4596" lon="1.5921">
        <ele>220.28</ele>
        <time>2021-08-17T09:27:59Z</time>
      </trkpt>
      <trkpt lat="44.45954" lon="1.59216">
        <ele>221.24</ele>
        <time>2021-08-17T09:28:08Z</time>
      </trkpt>
      <trkpt lat="44.45951" lon="1.59219">
        <ele>222.2</ele>
        <time>2021-08-17T09:28:15Z</time>
      </trkpt>
      <trkpt lat="44.45945" lon="1.59224">
        <ele>223.64</ele>
        <time>2021-08-17T09:28:24Z</time>
      </trkpt>
      <trkpt lat="44.4594" lon="1.5923">
        <ele>225.57</ele>
        <time>2021-08-17T09:28:34Z</time>
      </trkpt>
      <trkpt lat="44.45935" lon="1.59237">
        <ele>226.53</ele>
        <time>2021-08-17T09:28:44Z</time>
      </trkpt>
      <trkpt lat="44.4593" lon="1.59243">
        <ele>228.45</ele>
        <time>2021-08-17T09:28:53Z</time>
      </trkpt>
      <trkpt lat="44.45926" lon="1.59244">
        <ele>228.93</ele>
        <time>2021-08-17T09:29:01Z</time>
      </trkpt>
      <trkpt lat="44.45922" lon="1.59248">
        <ele>228.93</ele>
        <time>2021-08-17T09:29:09Z</time>
      </trkpt>
      <trkpt lat="44.45921" lon="1.59248">
        <ele>228.93</ele>
        <time>2021-08-17T09:29:10Z</time>
      </trkpt>
      <trkpt lat="44.45918" lon="1.59251">
        <ele>229.41</ele>
        <time>2021-08-17T09:29:13Z</time>
      </trkpt>
      <trkpt lat="44.4591" lon="1.59257">
        <ele>230.85</ele>
        <time>2021-08-17T09:29:21Z</time>
      </trkpt>
      <trkpt lat="44.45901" lon="1.59264">
        <ele>232.3</ele>
        <time>2021-08-17T09:29:29Z</time>
      </trkpt>
      <trkpt lat="44.459" lon="1.59265">
        <ele>232.78</ele>
        <time>2021-08-17T09:29:30Z</time>
      </trkpt>
      <trkpt lat="44.45895" lon="1.59269">
        <ele>233.74</ele>
        <time>2021-08-17T09:29:36Z</time>
      </trkpt>
      <trkpt lat="44.45893" lon="1.5927">
        <ele>233.74</ele>
        <time>2021-08-17T09:29:37Z</time>
      </trkpt>
      <trkpt lat="44.45885" lon="1.59276">
        <ele>234.7</ele>
        <time>2021-08-17T09:29:44Z</time>
      </trkpt>
      <trkpt lat="44.45874" lon="1.59282">
        <ele>235.18</ele>
        <time>2021-08-17T09:29:52Z</time>
      </trkpt>
      <trkpt lat="44.45872" lon="1.59282">
        <ele>235.18</ele>
        <time>2021-08-17T09:29:53Z</time>
      </trkpt>
      <trkpt lat="44.4587" lon="1.59283">
        <ele>235.18</ele>
        <time>2021-08-17T09:29:54Z</time>
      </trkpt>
      <trkpt lat="44.45869" lon="1.59284">
        <ele>235.66</ele>
        <time>2021-08-17T09:29:55Z</time>
      </trkpt>
      <trkpt lat="44.45868" lon="1.59285">
        <ele>235.66</ele>
        <time>2021-08-17T09:29:56Z</time>
      </trkpt>
      <trkpt lat="44.45867" lon="1.59286">
        <ele>235.66</ele>
        <time>2021-08-17T09:29:57Z</time>
      </trkpt>
      <trkpt lat="44.45866" lon="1.59286">
        <ele>235.66</ele>
        <time>2021-08-17T09:29:58Z</time>
      </trkpt>
      <trkpt lat="44.45865" lon="1.59286">
        <ele>236.14</ele>
        <time>2021-08-17T09:29:59Z</time>
      </trkpt>
      <trkpt lat="44.45865" lon="1.59287">
        <ele>236.14</ele>
        <time>2021-08-17T09:30:00Z</time>
      </trkpt>
      <trkpt lat="44.45864" lon="1.59288">
        <ele>236.14</ele>
        <time>2021-08-17T09:30:01Z</time>
      </trkpt>
      <trkpt lat="44.45855" lon="1.59294">
        <ele>237.58</ele>
        <time>2021-08-17T09:30:09Z</time>
      </trkpt>
      <trkpt lat="44.45854" lon="1.59295">
        <ele>237.58</ele>
        <time>2021-08-17T09:30:10Z</time>
      </trkpt>
      <trkpt lat="44.45853" lon="1.59295">
        <ele>238.06</ele>
        <time>2021-08-17T09:30:11Z</time>
      </trkpt>
      <trkpt lat="44.45852" lon="1.59296">
        <ele>238.06</ele>
        <time>2021-08-17T09:30:12Z</time>
      </trkpt>
      <trkpt lat="44.4585" lon="1.59297">
        <ele>238.06</ele>
        <time>2021-08-17T09:30:13Z</time>
      </trkpt>
      <trkpt lat="44.45849" lon="1.59298">
        <ele>238.54</ele>
        <time>2021-08-17T09:30:14Z</time>
      </trkpt>
      <trkpt lat="44.4584" lon="1.59307">
        <ele>239.99</ele>
        <time>2021-08-17T09:30:23Z</time>
      </trkpt>
      <trkpt lat="44.45834" lon="1.59318">
        <ele>240.95</ele>
        <time>2021-08-17T09:30:31Z</time>
      </trkpt>
      <trkpt lat="44.45829" lon="1.59327">
        <ele>242.87</ele>
        <time>2021-08-17T09:30:39Z</time>
      </trkpt>
      <trkpt lat="44.45828" lon="1.59328">
        <ele>242.87</ele>
        <time>2021-08-17T09:30:40Z</time>
      </trkpt>
      <trkpt lat="44.45822" lon="1.59337">
        <ele>244.31</ele>
        <time>2021-08-17T09:30:48Z</time>
      </trkpt>
      <trkpt lat="44.45814" lon="1.59348">
        <ele>245.75</ele>
        <time>2021-08-17T09:30:57Z</time>
      </trkpt>
      <trkpt lat="44.45806" lon="1.59359">
        <ele>246.72</ele>
        <time>2021-08-17T09:31:06Z</time>
      </trkpt>
      <trkpt lat="44.45805" lon="1.5936">
        <ele>246.72</ele>
        <time>2021-08-17T09:31:07Z</time>
      </trkpt>
      <trkpt lat="44.45804" lon="1.59361">
        <ele>247.2</ele>
        <time>2021-08-17T09:31:08Z</time>
      </trkpt>
      <trkpt lat="44.45803" lon="1.59362">
        <ele>247.2</ele>
        <time>2021-08-17T09:31:09Z</time>
      </trkpt>
      <trkpt lat="44.45802" lon="1.59363">
        <ele>247.2</ele>
        <time>2021-08-17T09:31:10Z</time>
      </trkpt>
      <trkpt lat="44.45796" lon="1.59371">
        <ele>248.64</ele>
        <time>2021-08-17T09:31:18Z</time>
      </trkpt>
      <trkpt lat="44.4579" lon="1.59378">
        <ele>249.6</ele>
        <time>2021-08-17T09:31:24Z</time>
      </trkpt>
      <trkpt lat="44.45789" lon="1.59379">
        <ele>249.6</ele>
        <time>2021-08-17T09:31:25Z</time>
      </trkpt>
      <trkpt lat="44.45788" lon="1.5938">
        <ele>249.6</ele>
        <time>2021-08-17T09:31:26Z</time>
      </trkpt>
      <trkpt lat="44.45778" lon="1.59391">
        <ele>251.52</ele>
        <time>2021-08-17T09:31:37Z</time>
      </trkpt>
      <trkpt lat="44.45771" lon="1.59395">
        <ele>252.48</ele>
        <time>2021-08-17T09:31:42Z</time>
      </trkpt>
      <trkpt lat="44.4577" lon="1.59397">
        <ele>252.48</ele>
        <time>2021-08-17T09:31:43Z</time>
      </trkpt>
      <trkpt lat="44.45763" lon="1.59405">
        <ele>253.93</ele>
        <time>2021-08-17T09:31:51Z</time>
      </trkpt>
      <trkpt lat="44.45761" lon="1.59407">
        <ele>253.93</ele>
        <time>2021-08-17T09:31:53Z</time>
      </trkpt>
      <trkpt lat="44.45753" lon="1.59415">
        <ele>254.89</ele>
        <time>2021-08-17T09:32:01Z</time>
      </trkpt>
      <trkpt lat="44.45744" lon="1.59425">
        <ele>255.85</ele>
        <time>2021-08-17T09:32:10Z</time>
      </trkpt>
      <trkpt lat="44.45738" lon="1.59431">
        <ele>257.29</ele>
        <time>2021-08-17T09:32:17Z</time>
      </trkpt>
      <trkpt lat="44.45733" lon="1.59436">
        <ele>258.25</ele>
        <time>2021-08-17T09:32:24Z</time>
      </trkpt>
      <trkpt lat="44.45729" lon="1.59441">
        <ele>259.21</ele>
        <time>2021-08-17T09:32:31Z</time>
      </trkpt>
      <trkpt lat="44.45723" lon="1.59448">
        <ele>260.17</ele>
        <time>2021-08-17T09:32:40Z</time>
      </trkpt>
      <trkpt lat="44.45716" lon="1.59456">
        <ele>261.62</ele>
        <time>2021-08-17T09:32:50Z</time>
      </trkpt>
      <trkpt lat="44.4571" lon="1.59462">
        <ele>262.58</ele>
        <time>2021-08-17T09:32:59Z</time>
      </trkpt>
      <trkpt lat="44.45704" lon="1.59468">
        <ele>264.02</ele>
        <time>2021-08-17T09:33:08Z</time>
      </trkpt>
      <trkpt lat="44.45696" lon="1.59476">
        <ele>264.98</ele>
        <time>2021-08-17T09:33:18Z</time>
      </trkpt>
      <trkpt lat="44.45691" lon="1.59483">
        <ele>266.42</ele>
        <time>2021-08-17T09:33:28Z</time>
      </trkpt>
      <trkpt lat="44.45687" lon="1.59487">
        <ele>267.38</ele>
        <time>2021-08-17T09:33:35Z</time>
      </trkpt>
      <trkpt lat="44.45682" lon="1.59493">
        <ele>268.83</ele>
        <time>2021-08-17T09:33:42Z</time>
      </trkpt>
      <trkpt lat="44.45675" lon="1.59503">
        <ele>269.31</ele>
        <time>2021-08-17T09:33:52Z</time>
      </trkpt>
      <trkpt lat="44.4567" lon="1.5951">
        <ele>270.75</ele>
        <time>2021-08-17T09:34:00Z</time>
      </trkpt>
      <trkpt lat="44.45665" lon="1.59516">
        <ele>271.71</ele>
        <time>2021-08-17T09:34:08Z</time>
      </trkpt>
      <trkpt lat="44.4566" lon="1.59522">
        <ele>272.67</ele>
        <time>2021-08-17T09:34:17Z</time>
      </trkpt>
      <trkpt lat="44.45656" lon="1.59527">
        <ele>273.15</ele>
        <time>2021-08-17T09:34:25Z</time>
      </trkpt>
      <trkpt lat="44.45653" lon="1.5953">
        <ele>274.11</ele>
        <time>2021-08-17T09:34:33Z</time>
      </trkpt>
      <trkpt lat="44.45649" lon="1.59535">
        <ele>274.59</ele>
        <time>2021-08-17T09:34:37Z</time>
      </trkpt>
      <trkpt lat="44.45648" lon="1.59536">
        <ele>275.07</ele>
        <time>2021-08-17T09:34:38Z</time>
      </trkpt>
      <trkpt lat="44.45647" lon="1.59537">
        <ele>275.07</ele>
        <time>2021-08-17T09:34:39Z</time>
      </trkpt>
      <trkpt lat="44.45646" lon="1.59538">
        <ele>275.07</ele>
        <time>2021-08-17T09:34:40Z</time>
      </trkpt>
      <trkpt lat="44.45645" lon="1.59539">
        <ele>275.07</ele>
        <time>2021-08-17T09:34:41Z</time>
      </trkpt>
      <trkpt lat="44.45638" lon="1.59549">
        <ele>276.04</ele>
        <time>2021-08-17T09:34:48Z</time>
      </trkpt>
      <trkpt lat="44.45637" lon="1.59551">
        <ele>277</ele>
        <time>2021-08-17T09:34:49Z</time>
      </trkpt>
      <trkpt lat="44.45636" lon="1.59552">
        <ele>277</ele>
        <time>2021-08-17T09:34:50Z</time>
      </trkpt>
      <trkpt lat="44.45627" lon="1.59566">
        <ele>278.92</ele>
        <time>2021-08-17T09:34:59Z</time>
      </trkpt>
      <trkpt lat="44.45624" lon="1.59572">
        <ele>278.92</ele>
        <time>2021-08-17T09:35:03Z</time>
      </trkpt>
      <trkpt lat="44.45623" lon="1.59573">
        <ele>279.4</ele>
        <time>2021-08-17T09:35:04Z</time>
      </trkpt>
      <trkpt lat="44.45623" lon="1.59575">
        <ele>279.4</ele>
        <time>2021-08-17T09:35:05Z</time>
      </trkpt>
      <trkpt lat="44.45616" lon="1.5959">
        <ele>280.84</ele>
        <time>2021-08-17T09:35:14Z</time>
      </trkpt>
      <trkpt lat="44.45615" lon="1.59592">
        <ele>281.32</ele>
        <time>2021-08-17T09:35:15Z</time>
      </trkpt>
      <trkpt lat="44.45614" lon="1.59593">
        <ele>281.32</ele>
        <time>2021-08-17T09:35:16Z</time>
      </trkpt>
      <trkpt lat="44.45613" lon="1.59595">
        <ele>281.32</ele>
        <time>2021-08-17T09:35:17Z</time>
      </trkpt>
      <trkpt lat="44.45612" lon="1.59597">
        <ele>281.32</ele>
        <time>2021-08-17T09:35:18Z</time>
      </trkpt>
      <trkpt lat="44.45611" lon="1.59599">
        <ele>281.8</ele>
        <time>2021-08-17T09:35:19Z</time>
      </trkpt>
      <trkpt lat="44.45598" lon="1.59623">
        <ele>282.77</ele>
        <time>2021-08-17T09:35:28Z</time>
      </trkpt>
      <trkpt lat="44.45586" lon="1.59656">
        <ele>284.21</ele>
        <time>2021-08-17T09:35:38Z</time>
      </trkpt>
      <trkpt lat="44.45571" lon="1.59695">
        <ele>284.69</ele>
        <time>2021-08-17T09:35:48Z</time>
      </trkpt>
      <trkpt lat="44.45556" lon="1.59731">
        <ele>285.65</ele>
        <time>2021-08-17T09:35:57Z</time>
      </trkpt>
      <trkpt lat="44.45532" lon="1.59763">
        <ele>285.65</ele>
        <time>2021-08-17T09:36:06Z</time>
      </trkpt>
      <trkpt lat="44.45522" lon="1.59772">
        <ele>286.13</ele>
        <time>2021-08-17T09:36:09Z</time>
      </trkpt>
      <trkpt lat="44.45497" lon="1.59803">
        <ele>287.57</ele>
        <time>2021-08-17T09:36:18Z</time>
      </trkpt>
      <trkpt lat="44.45489" lon="1.59818">
        <ele>288.53</ele>
        <time>2021-08-17T09:36:24Z</time>
      </trkpt>
      <trkpt lat="44.45479" lon="1.59841">
        <ele>290.46</ele>
        <time>2021-08-17T09:36:34Z</time>
      </trkpt>
      <trkpt lat="44.4547" lon="1.59859">
        <ele>291.9</ele>
        <time>2021-08-17T09:36:42Z</time>
      </trkpt>
      <trkpt lat="44.45456" lon="1.59875">
        <ele>292.86</ele>
        <time>2021-08-17T09:36:50Z</time>
      </trkpt>
      <trkpt lat="44.45435" lon="1.59887">
        <ele>292.86</ele>
        <time>2021-08-17T09:36:57Z</time>
      </trkpt>
      <trkpt lat="44.45408" lon="1.59905">
        <ele>292.86</ele>
        <time>2021-08-17T09:37:04Z</time>
      </trkpt>
      <trkpt lat="44.45386" lon="1.59928">
        <ele>292.86</ele>
        <time>2021-08-17T09:37:11Z</time>
      </trkpt>
      <trkpt lat="44.45379" lon="1.59937">
        <ele>292.86</ele>
        <time>2021-08-17T09:37:13Z</time>
      </trkpt>
      <trkpt lat="44.4537" lon="1.59951">
        <ele>292.86</ele>
        <time>2021-08-17T09:37:16Z</time>
      </trkpt>
      <trkpt lat="44.45365" lon="1.59961">
        <ele>292.86</ele>
        <time>2021-08-17T09:37:18Z</time>
      </trkpt>
      <trkpt lat="44.45363" lon="1.59966">
        <ele>292.86</ele>
        <time>2021-08-17T09:37:19Z</time>
      </trkpt>
      <trkpt lat="44.45352" lon="1.60005">
        <ele>292.86</ele>
        <time>2021-08-17T09:37:27Z</time>
      </trkpt>
      <trkpt lat="44.45336" lon="1.60039">
        <ele>292.86</ele>
        <time>2021-08-17T09:37:34Z</time>
      </trkpt>
      <trkpt lat="44.45323" lon="1.60066">
        <ele>292.86</ele>
        <time>2021-08-17T09:37:39Z</time>
      </trkpt>
      <trkpt lat="44.45307" lon="1.6011">
        <ele>292.86</ele>
        <time>2021-08-17T09:37:46Z</time>
      </trkpt>
      <trkpt lat="44.45305" lon="1.60116">
        <ele>292.86</ele>
        <time>2021-08-17T09:37:47Z</time>
      </trkpt>
      <trkpt lat="44.45303" lon="1.60123">
        <ele>292.86</ele>
        <time>2021-08-17T09:37:48Z</time>
      </trkpt>
      <trkpt lat="44.45302" lon="1.6013">
        <ele>292.86</ele>
        <time>2021-08-17T09:37:49Z</time>
      </trkpt>
      <trkpt lat="44.45301" lon="1.60137">
        <ele>292.86</ele>
        <time>2021-08-17T09:37:50Z</time>
      </trkpt>
      <trkpt lat="44.453" lon="1.60152">
        <ele>291.9</ele>
        <time>2021-08-17T09:37:52Z</time>
      </trkpt>
      <trkpt lat="44.45299" lon="1.6016">
        <ele>291.9</ele>
        <time>2021-08-17T09:37:53Z</time>
      </trkpt>
      <trkpt lat="44.45297" lon="1.60169">
        <ele>290.94</ele>
        <time>2021-08-17T09:37:54Z</time>
      </trkpt>
      <trkpt lat="44.45283" lon="1.60206">
        <ele>286.61</ele>
        <time>2021-08-17T09:37:58Z</time>
      </trkpt>
      <trkpt lat="44.45263" lon="1.60243">
        <ele>283.73</ele>
        <time>2021-08-17T09:38:02Z</time>
      </trkpt>
      <trkpt lat="44.45231" lon="1.60294">
        <ele>280.84</ele>
        <time>2021-08-17T09:38:08Z</time>
      </trkpt>
      <trkpt lat="44.45227" lon="1.60303">
        <ele>279.88</ele>
        <time>2021-08-17T09:38:09Z</time>
      </trkpt>
      <trkpt lat="44.4522" lon="1.60323">
        <ele>278.44</ele>
        <time>2021-08-17T09:38:11Z</time>
      </trkpt>
      <trkpt lat="44.45216" lon="1.60331">
        <ele>278.44</ele>
        <time>2021-08-17T09:38:12Z</time>
      </trkpt>
      <trkpt lat="44.45213" lon="1.60337">
        <ele>279.88</ele>
        <time>2021-08-17T09:38:13Z</time>
      </trkpt>
      <trkpt lat="44.45211" lon="1.60343">
        <ele>280.84</ele>
        <time>2021-08-17T09:38:14Z</time>
      </trkpt>
      <trkpt lat="44.45209" lon="1.60349">
        <ele>280.36</ele>
        <time>2021-08-17T09:38:15Z</time>
      </trkpt>
      <trkpt lat="44.45208" lon="1.60356">
        <ele>280.84</ele>
        <time>2021-08-17T09:38:16Z</time>
      </trkpt>
      <trkpt lat="44.45206" lon="1.60362">
        <ele>280.84</ele>
        <time>2021-08-17T09:38:17Z</time>
      </trkpt>
      <trkpt lat="44.45195" lon="1.60398">
        <ele>281.32</ele>
        <time>2021-08-17T09:38:24Z</time>
      </trkpt>
      <trkpt lat="44.45186" lon="1.60417">
        <ele>281.8</ele>
        <time>2021-08-17T09:38:28Z</time>
      </trkpt>
      <trkpt lat="44.4517" lon="1.60448">
        <ele>281.8</ele>
        <time>2021-08-17T09:38:35Z</time>
      </trkpt>
      <trkpt lat="44.45169" lon="1.60462">
        <ele>282.28</ele>
        <time>2021-08-17T09:38:38Z</time>
      </trkpt>
      <trkpt lat="44.45172" lon="1.60476">
        <ele>283.73</ele>
        <time>2021-08-17T09:38:45Z</time>
      </trkpt>
      <trkpt lat="44.45173" lon="1.60477">
        <ele>283.73</ele>
        <time>2021-08-17T09:38:46Z</time>
      </trkpt>
      <trkpt lat="44.45173" lon="1.60479">
        <ele>283.73</ele>
        <time>2021-08-17T09:38:53Z</time>
      </trkpt>
      <trkpt lat="44.45175" lon="1.60485">
        <ele>284.21</ele>
        <time>2021-08-17T09:39:04Z</time>
      </trkpt>
      <trkpt lat="44.45175" lon="1.60493">
        <ele>285.17</ele>
        <time>2021-08-17T09:39:11Z</time>
      </trkpt>
      <trkpt lat="44.45176" lon="1.60496">
        <ele>286.13</ele>
        <time>2021-08-17T09:39:13Z</time>
      </trkpt>
      <trkpt lat="44.45178" lon="1.60508">
        <ele>286.61</ele>
        <time>2021-08-17T09:39:22Z</time>
      </trkpt>
      <trkpt lat="44.45179" lon="1.60517">
        <ele>287.57</ele>
        <time>2021-08-17T09:39:30Z</time>
      </trkpt>
      <trkpt lat="44.45177" lon="1.60528">
        <ele>289.01</ele>
        <time>2021-08-17T09:39:40Z</time>
      </trkpt>
      <trkpt lat="44.45177" lon="1.60539">
        <ele>290.94</ele>
        <time>2021-08-17T09:39:51Z</time>
      </trkpt>
      <trkpt lat="44.45176" lon="1.60546">
        <ele>291.42</ele>
        <time>2021-08-17T09:39:57Z</time>
      </trkpt>
      <trkpt lat="44.45178" lon="1.6055">
        <ele>291.9</ele>
        <time>2021-08-17T09:40:01Z</time>
      </trkpt>
      <trkpt lat="44.45176" lon="1.60559">
        <ele>293.34</ele>
        <time>2021-08-17T09:40:09Z</time>
      </trkpt>
      <trkpt lat="44.45175" lon="1.60572">
        <ele>294.78</ele>
        <time>2021-08-17T09:40:20Z</time>
      </trkpt>
      <trkpt lat="44.45174" lon="1.60585">
        <ele>296.22</ele>
        <time>2021-08-17T09:40:31Z</time>
      </trkpt>
      <trkpt lat="44.45172" lon="1.6059">
        <ele>296.22</ele>
        <time>2021-08-17T09:40:37Z</time>
      </trkpt>
      <trkpt lat="44.45172" lon="1.60592">
        <ele>296.22</ele>
        <time>2021-08-17T09:40:38Z</time>
      </trkpt>
      <trkpt lat="44.45172" lon="1.60594">
        <ele>296.7</ele>
        <time>2021-08-17T09:40:39Z</time>
      </trkpt>
      <trkpt lat="44.45172" lon="1.60596">
        <ele>296.7</ele>
        <time>2021-08-17T09:40:40Z</time>
      </trkpt>
      <trkpt lat="44.45172" lon="1.60598">
        <ele>296.7</ele>
        <time>2021-08-17T09:40:41Z</time>
      </trkpt>
      <trkpt lat="44.4517" lon="1.60615">
        <ele>298.15</ele>
        <time>2021-08-17T09:40:49Z</time>
      </trkpt>
      <trkpt lat="44.45169" lon="1.60626">
        <ele>299.11</ele>
        <time>2021-08-17T09:40:57Z</time>
      </trkpt>
      <trkpt lat="44.45167" lon="1.60637">
        <ele>300.55</ele>
        <time>2021-08-17T09:41:09Z</time>
      </trkpt>
      <trkpt lat="44.45164" lon="1.60645">
        <ele>301.51</ele>
        <time>2021-08-17T09:41:19Z</time>
      </trkpt>
      <trkpt lat="44.45162" lon="1.60652">
        <ele>303.43</ele>
        <time>2021-08-17T09:41:27Z</time>
      </trkpt>
      <trkpt lat="44.45159" lon="1.6066">
        <ele>304.88</ele>
        <time>2021-08-17T09:41:38Z</time>
      </trkpt>
      <trkpt lat="44.45159" lon="1.6067">
        <ele>306.8</ele>
        <time>2021-08-17T09:41:48Z</time>
      </trkpt>
      <trkpt lat="44.4516" lon="1.60677">
        <ele>307.76</ele>
        <time>2021-08-17T09:41:57Z</time>
      </trkpt>
      <trkpt lat="44.45165" lon="1.60683">
        <ele>308.72</ele>
        <time>2021-08-17T09:42:06Z</time>
      </trkpt>
      <trkpt lat="44.45166" lon="1.6069">
        <ele>310.16</ele>
        <time>2021-08-17T09:42:14Z</time>
      </trkpt>
      <trkpt lat="44.45166" lon="1.60699">
        <ele>311.12</ele>
        <time>2021-08-17T09:42:24Z</time>
      </trkpt>
      <trkpt lat="44.45165" lon="1.6071">
        <ele>313.05</ele>
        <time>2021-08-17T09:42:36Z</time>
      </trkpt>
      <trkpt lat="44.45166" lon="1.6072">
        <ele>314.97</ele>
        <time>2021-08-17T09:42:46Z</time>
      </trkpt>
      <trkpt lat="44.45165" lon="1.6073">
        <ele>315.93</ele>
        <time>2021-08-17T09:42:55Z</time>
      </trkpt>
      <trkpt lat="44.45163" lon="1.60738">
        <ele>316.89</ele>
        <time>2021-08-17T09:43:03Z</time>
      </trkpt>
      <trkpt lat="44.45163" lon="1.60748">
        <ele>318.33</ele>
        <time>2021-08-17T09:43:12Z</time>
      </trkpt>
      <trkpt lat="44.45164" lon="1.6076">
        <ele>319.3</ele>
        <time>2021-08-17T09:43:21Z</time>
      </trkpt>
      <trkpt lat="44.45165" lon="1.60768">
        <ele>320.26</ele>
        <time>2021-08-17T09:43:30Z</time>
      </trkpt>
      <trkpt lat="44.45165" lon="1.60773">
        <ele>320.74</ele>
        <time>2021-08-17T09:43:37Z</time>
      </trkpt>
      <trkpt lat="44.45165" lon="1.60775">
        <ele>320.74</ele>
        <time>2021-08-17T09:43:38Z</time>
      </trkpt>
      <trkpt lat="44.45163" lon="1.60787">
        <ele>322.18</ele>
        <time>2021-08-17T09:43:47Z</time>
      </trkpt>
      <trkpt lat="44.45161" lon="1.60794">
        <ele>323.14</ele>
        <time>2021-08-17T09:43:54Z</time>
      </trkpt>
      <trkpt lat="44.4516" lon="1.60805">
        <ele>324.1</ele>
        <time>2021-08-17T09:44:03Z</time>
      </trkpt>
      <trkpt lat="44.4516" lon="1.60817">
        <ele>326.02</ele>
        <time>2021-08-17T09:44:12Z</time>
      </trkpt>
      <trkpt lat="44.45159" lon="1.60826">
        <ele>326.5</ele>
        <time>2021-08-17T09:44:21Z</time>
      </trkpt>
      <trkpt lat="44.45159" lon="1.6083">
        <ele>326.99</ele>
        <time>2021-08-17T09:44:30Z</time>
      </trkpt>
      <trkpt lat="44.45158" lon="1.60838">
        <ele>327.47</ele>
        <time>2021-08-17T09:44:35Z</time>
      </trkpt>
      <trkpt lat="44.45157" lon="1.6084">
        <ele>327.47</ele>
        <time>2021-08-17T09:44:36Z</time>
      </trkpt>
      <trkpt lat="44.45157" lon="1.60842">
        <ele>328.43</ele>
        <time>2021-08-17T09:44:37Z</time>
      </trkpt>
      <trkpt lat="44.45157" lon="1.60843">
        <ele>328.43</ele>
        <time>2021-08-17T09:44:38Z</time>
      </trkpt>
      <trkpt lat="44.45156" lon="1.60845">
        <ele>328.43</ele>
        <time>2021-08-17T09:44:39Z</time>
      </trkpt>
      <trkpt lat="44.45154" lon="1.60858">
        <ele>329.87</ele>
        <time>2021-08-17T09:44:48Z</time>
      </trkpt>
      <trkpt lat="44.45153" lon="1.60863">
        <ele>330.83</ele>
        <time>2021-08-17T09:44:51Z</time>
      </trkpt>
      <trkpt lat="44.45153" lon="1.60865">
        <ele>330.83</ele>
        <time>2021-08-17T09:44:52Z</time>
      </trkpt>
      <trkpt lat="44.45153" lon="1.60867">
        <ele>330.83</ele>
        <time>2021-08-17T09:44:53Z</time>
      </trkpt>
      <trkpt lat="44.45152" lon="1.60869">
        <ele>331.31</ele>
        <time>2021-08-17T09:44:54Z</time>
      </trkpt>
      <trkpt lat="44.45152" lon="1.60871">
        <ele>331.31</ele>
        <time>2021-08-17T09:44:55Z</time>
      </trkpt>
      <trkpt lat="44.4515" lon="1.60876">
        <ele>332.27</ele>
        <time>2021-08-17T09:45:01Z</time>
      </trkpt>
      <trkpt lat="44.4515" lon="1.60879">
        <ele>332.75</ele>
        <time>2021-08-17T09:45:08Z</time>
      </trkpt>
      <trkpt lat="44.45149" lon="1.60881">
        <ele>332.75</ele>
        <time>2021-08-17T09:45:24Z</time>
      </trkpt>
      <trkpt lat="44.45147" lon="1.60888">
        <ele>333.71</ele>
        <time>2021-08-17T09:45:32Z</time>
      </trkpt>
      <trkpt lat="44.45143" lon="1.60898">
        <ele>335.64</ele>
        <time>2021-08-17T09:45:42Z</time>
      </trkpt>
      <trkpt lat="44.4514" lon="1.60905">
        <ele>337.08</ele>
        <time>2021-08-17T09:45:51Z</time>
      </trkpt>
      <trkpt lat="44.45138" lon="1.60914">
        <ele>338.04</ele>
        <time>2021-08-17T09:46:01Z</time>
      </trkpt>
      <trkpt lat="44.45136" lon="1.60921">
        <ele>339</ele>
        <time>2021-08-17T09:46:10Z</time>
      </trkpt>
      <trkpt lat="44.45134" lon="1.60927">
        <ele>339.96</ele>
        <time>2021-08-17T09:46:17Z</time>
      </trkpt>
      <trkpt lat="44.45132" lon="1.60933">
        <ele>340.92</ele>
        <time>2021-08-17T09:46:24Z</time>
      </trkpt>
      <trkpt lat="44.4513" lon="1.6094">
        <ele>342.37</ele>
        <time>2021-08-17T09:46:33Z</time>
      </trkpt>
      <trkpt lat="44.45127" lon="1.60949">
        <ele>343.81</ele>
        <time>2021-08-17T09:46:43Z</time>
      </trkpt>
      <trkpt lat="44.45125" lon="1.60956">
        <ele>344.77</ele>
        <time>2021-08-17T09:46:51Z</time>
      </trkpt>
      <trkpt lat="44.45122" lon="1.60963">
        <ele>346.21</ele>
        <time>2021-08-17T09:46:59Z</time>
      </trkpt>
      <trkpt lat="44.45118" lon="1.60972">
        <ele>347.17</ele>
        <time>2021-08-17T09:47:07Z</time>
      </trkpt>
      <trkpt lat="44.45116" lon="1.60975">
        <ele>347.65</ele>
        <time>2021-08-17T09:47:16Z</time>
      </trkpt>
      <trkpt lat="44.45113" lon="1.60982">
        <ele>348.62</ele>
        <time>2021-08-17T09:47:23Z</time>
      </trkpt>
      <trkpt lat="44.4511" lon="1.60986">
        <ele>349.58</ele>
        <time>2021-08-17T09:47:26Z</time>
      </trkpt>
      <trkpt lat="44.45107" lon="1.60992">
        <ele>349.58</ele>
        <time>2021-08-17T09:47:30Z</time>
      </trkpt>
      <trkpt lat="44.45106" lon="1.60993">
        <ele>349.58</ele>
        <time>2021-08-17T09:47:31Z</time>
      </trkpt>
      <trkpt lat="44.45105" lon="1.60995">
        <ele>349.58</ele>
        <time>2021-08-17T09:47:32Z</time>
      </trkpt>
      <trkpt lat="44.45101" lon="1.61">
        <ele>350.54</ele>
        <time>2021-08-17T09:47:36Z</time>
      </trkpt>
      <trkpt lat="44.451" lon="1.61002">
        <ele>350.54</ele>
        <time>2021-08-17T09:47:37Z</time>
      </trkpt>
      <trkpt lat="44.45099" lon="1.61004">
        <ele>350.54</ele>
        <time>2021-08-17T09:47:38Z</time>
      </trkpt>
      <trkpt lat="44.45097" lon="1.61005">
        <ele>350.54</ele>
        <time>2021-08-17T09:47:39Z</time>
      </trkpt>
      <trkpt lat="44.45096" lon="1.61007">
        <ele>351.02</ele>
        <time>2021-08-17T09:47:40Z</time>
      </trkpt>
      <trkpt lat="44.45095" lon="1.61009">
        <ele>351.02</ele>
        <time>2021-08-17T09:47:41Z</time>
      </trkpt>
      <trkpt lat="44.45093" lon="1.6101">
        <ele>351.02</ele>
        <time>2021-08-17T09:47:42Z</time>
      </trkpt>
      <trkpt lat="44.45092" lon="1.61012">
        <ele>351.02</ele>
        <time>2021-08-17T09:47:43Z</time>
      </trkpt>
      <trkpt lat="44.45091" lon="1.61015">
        <ele>351.5</ele>
        <time>2021-08-17T09:47:44Z</time>
      </trkpt>
      <trkpt lat="44.45073" lon="1.61032">
        <ele>351.5</ele>
        <time>2021-08-17T09:47:54Z</time>
      </trkpt>
      <trkpt lat="44.45055" lon="1.61049">
        <ele>351.5</ele>
        <time>2021-08-17T09:48:02Z</time>
      </trkpt>
      <trkpt lat="44.45053" lon="1.6105">
        <ele>351.5</ele>
        <time>2021-08-17T09:48:03Z</time>
      </trkpt>
      <trkpt lat="44.45052" lon="1.61049">
        <ele>351.5</ele>
        <time>2021-08-17T09:48:04Z</time>
      </trkpt>
      <trkpt lat="44.45051" lon="1.61049">
        <ele>351.5</ele>
        <time>2021-08-17T09:48:09Z</time>
      </trkpt>
      <trkpt lat="44.45052" lon="1.6105">
        <ele>351.5</ele>
        <time>2021-08-17T09:48:15Z</time>
      </trkpt>
      <trkpt lat="44.45053" lon="1.61051">
        <ele>350.54</ele>
        <time>2021-08-17T09:48:20Z</time>
      </trkpt>
      <trkpt lat="44.45053" lon="1.61053">
        <ele>350.54</ele>
        <time>2021-08-17T09:48:21Z</time>
      </trkpt>
      <trkpt lat="44.45051" lon="1.61055">
        <ele>350.06</ele>
        <time>2021-08-17T09:48:22Z</time>
      </trkpt>
      <trkpt lat="44.4505" lon="1.61058">
        <ele>349.58</ele>
        <time>2021-08-17T09:48:23Z</time>
      </trkpt>
      <trkpt lat="44.45044" lon="1.61065">
        <ele>348.62</ele>
        <time>2021-08-17T09:48:25Z</time>
      </trkpt>
      <trkpt lat="44.45041" lon="1.61065">
        <ele>348.62</ele>
        <time>2021-08-17T09:48:26Z</time>
      </trkpt>
      <trkpt lat="44.45038" lon="1.61063">
        <ele>348.62</ele>
        <time>2021-08-17T09:48:27Z</time>
      </trkpt>
      <trkpt lat="44.45019" lon="1.61053">
        <ele>348.62</ele>
        <time>2021-08-17T09:48:34Z</time>
      </trkpt>
      <trkpt lat="44.44987" lon="1.61041">
        <ele>348.62</ele>
        <time>2021-08-17T09:48:42Z</time>
      </trkpt>
      <trkpt lat="44.44983" lon="1.6104">
        <ele>348.62</ele>
        <time>2021-08-17T09:48:43Z</time>
      </trkpt>
      <trkpt lat="44.44978" lon="1.61039">
        <ele>348.62</ele>
        <time>2021-08-17T09:48:44Z</time>
      </trkpt>
      <trkpt lat="44.44975" lon="1.61037">
        <ele>348.62</ele>
        <time>2021-08-17T09:48:45Z</time>
      </trkpt>
      <trkpt lat="44.44935" lon="1.61022">
        <ele>348.62</ele>
        <time>2021-08-17T09:48:54Z</time>
      </trkpt>
      <trkpt lat="44.44912" lon="1.61013">
        <ele>349.58</ele>
        <time>2021-08-17T09:48:59Z</time>
      </trkpt>
      <trkpt lat="44.44872" lon="1.60993">
        <ele>350.06</ele>
        <time>2021-08-17T09:49:08Z</time>
      </trkpt>
      <trkpt lat="44.44855" lon="1.60981">
        <ele>350.06</ele>
        <time>2021-08-17T09:49:12Z</time>
      </trkpt>
      <trkpt lat="44.44815" lon="1.60947">
        <ele>351.02</ele>
        <time>2021-08-17T09:49:22Z</time>
      </trkpt>
      <trkpt lat="44.44811" lon="1.60944">
        <ele>351.02</ele>
        <time>2021-08-17T09:49:23Z</time>
      </trkpt>
      <trkpt lat="44.44807" lon="1.60941">
        <ele>351.02</ele>
        <time>2021-08-17T09:49:24Z</time>
      </trkpt>
      <trkpt lat="44.44761" lon="1.60915">
        <ele>351.5</ele>
        <time>2021-08-17T09:49:34Z</time>
      </trkpt>
      <trkpt lat="44.4471" lon="1.60891">
        <ele>352.46</ele>
        <time>2021-08-17T09:49:45Z</time>
      </trkpt>
      <trkpt lat="44.44673" lon="1.60872">
        <ele>352.94</ele>
        <time>2021-08-17T09:49:53Z</time>
      </trkpt>
      <trkpt lat="44.44668" lon="1.6087">
        <ele>352.94</ele>
        <time>2021-08-17T09:49:54Z</time>
      </trkpt>
      <trkpt lat="44.4463" lon="1.60846">
        <ele>353.42</ele>
        <time>2021-08-17T09:50:03Z</time>
      </trkpt>
      <trkpt lat="44.44614" lon="1.60833">
        <ele>353.9</ele>
        <time>2021-08-17T09:50:07Z</time>
      </trkpt>
      <trkpt lat="44.4461" lon="1.60831">
        <ele>353.9</ele>
        <time>2021-08-17T09:50:08Z</time>
      </trkpt>
      <trkpt lat="44.44606" lon="1.60832">
        <ele>353.9</ele>
        <time>2021-08-17T09:50:09Z</time>
      </trkpt>
      <trkpt lat="44.44603" lon="1.60835">
        <ele>353.9</ele>
        <time>2021-08-17T09:50:10Z</time>
      </trkpt>
      <trkpt lat="44.44601" lon="1.60841">
        <ele>353.9</ele>
        <time>2021-08-17T09:50:11Z</time>
      </trkpt>
      <trkpt lat="44.44602" lon="1.60847">
        <ele>353.9</ele>
        <time>2021-08-17T09:50:12Z</time>
      </trkpt>
      <trkpt lat="44.44604" lon="1.60853">
        <ele>353.9</ele>
        <time>2021-08-17T09:50:13Z</time>
      </trkpt>
      <trkpt lat="44.44608" lon="1.60858">
        <ele>352.46</ele>
        <time>2021-08-17T09:50:14Z</time>
      </trkpt>
      <trkpt lat="44.44612" lon="1.60862">
        <ele>351.98</ele>
        <time>2021-08-17T09:50:15Z</time>
      </trkpt>
      <trkpt lat="44.44656" lon="1.60901">
        <ele>349.58</ele>
        <time>2021-08-17T09:50:24Z</time>
      </trkpt>
      <trkpt lat="44.44681" lon="1.60923">
        <ele>346.69</ele>
        <time>2021-08-17T09:50:28Z</time>
      </trkpt>
      <trkpt lat="44.44705" lon="1.60944">
        <ele>343.33</ele>
        <time>2021-08-17T09:50:31Z</time>
      </trkpt>
      <trkpt lat="44.44733" lon="1.60967">
        <ele>339.48</ele>
        <time>2021-08-17T09:50:34Z</time>
      </trkpt>
      <trkpt lat="44.44752" lon="1.60986">
        <ele>336.12</ele>
        <time>2021-08-17T09:50:36Z</time>
      </trkpt>
      <trkpt lat="44.4478" lon="1.61019">
        <ele>331.79</ele>
        <time>2021-08-17T09:50:39Z</time>
      </trkpt>
      <trkpt lat="44.44789" lon="1.61032">
        <ele>329.87</ele>
        <time>2021-08-17T09:50:40Z</time>
      </trkpt>
      <trkpt lat="44.44795" lon="1.61045">
        <ele>328.91</ele>
        <time>2021-08-17T09:50:41Z</time>
      </trkpt>
      <trkpt lat="44.44806" lon="1.61071">
        <ele>326.02</ele>
        <time>2021-08-17T09:50:43Z</time>
      </trkpt>
      <trkpt lat="44.44813" lon="1.61082">
        <ele>325.54</ele>
        <time>2021-08-17T09:50:44Z</time>
      </trkpt>
      <trkpt lat="44.44821" lon="1.61091">
        <ele>324.1</ele>
        <time>2021-08-17T09:50:45Z</time>
      </trkpt>
      <trkpt lat="44.4483" lon="1.61099">
        <ele>323.14</ele>
        <time>2021-08-17T09:50:46Z</time>
      </trkpt>
      <trkpt lat="44.4484" lon="1.61106">
        <ele>322.18</ele>
        <time>2021-08-17T09:50:47Z</time>
      </trkpt>
      <trkpt lat="44.44859" lon="1.61124">
        <ele>319.78</ele>
        <time>2021-08-17T09:50:49Z</time>
      </trkpt>
      <trkpt lat="44.44868" lon="1.61136">
        <ele>318.33</ele>
        <time>2021-08-17T09:50:50Z</time>
      </trkpt>
      <trkpt lat="44.44875" lon="1.6115">
        <ele>316.89</ele>
        <time>2021-08-17T09:50:51Z</time>
      </trkpt>
      <trkpt lat="44.44882" lon="1.61165">
        <ele>315.93</ele>
        <time>2021-08-17T09:50:52Z</time>
      </trkpt>
      <trkpt lat="44.44888" lon="1.6118">
        <ele>314.49</ele>
        <time>2021-08-17T09:50:53Z</time>
      </trkpt>
      <trkpt lat="44.44905" lon="1.61221">
        <ele>310.64</ele>
        <time>2021-08-17T09:50:56Z</time>
      </trkpt>
      <trkpt lat="44.44914" lon="1.61248">
        <ele>308.72</ele>
        <time>2021-08-17T09:50:58Z</time>
      </trkpt>
      <trkpt lat="44.44915" lon="1.6126">
        <ele>307.76</ele>
        <time>2021-08-17T09:50:59Z</time>
      </trkpt>
      <trkpt lat="44.44914" lon="1.61273">
        <ele>307.28</ele>
        <time>2021-08-17T09:51:00Z</time>
      </trkpt>
      <trkpt lat="44.44913" lon="1.61283">
        <ele>305.84</ele>
        <time>2021-08-17T09:51:01Z</time>
      </trkpt>
      <trkpt lat="44.44912" lon="1.61294">
        <ele>305.84</ele>
        <time>2021-08-17T09:51:02Z</time>
      </trkpt>
      <trkpt lat="44.44913" lon="1.61304">
        <ele>304.88</ele>
        <time>2021-08-17T09:51:03Z</time>
      </trkpt>
      <trkpt lat="44.44916" lon="1.61314">
        <ele>304.88</ele>
        <time>2021-08-17T09:51:04Z</time>
      </trkpt>
      <trkpt lat="44.44919" lon="1.61323">
        <ele>304.39</ele>
        <time>2021-08-17T09:51:05Z</time>
      </trkpt>
      <trkpt lat="44.44921" lon="1.61332">
        <ele>304.39</ele>
        <time>2021-08-17T09:51:06Z</time>
      </trkpt>
      <trkpt lat="44.44923" lon="1.61343">
        <ele>303.43</ele>
        <time>2021-08-17T09:51:07Z</time>
      </trkpt>
      <trkpt lat="44.44926" lon="1.61373">
        <ele>301.99</ele>
        <time>2021-08-17T09:51:10Z</time>
      </trkpt>
      <trkpt lat="44.44924" lon="1.61383">
        <ele>302.95</ele>
        <time>2021-08-17T09:51:11Z</time>
      </trkpt>
      <trkpt lat="44.44922" lon="1.61392">
        <ele>301.99</ele>
        <time>2021-08-17T09:51:12Z</time>
      </trkpt>
      <trkpt lat="44.44918" lon="1.61401">
        <ele>301.03</ele>
        <time>2021-08-17T09:51:13Z</time>
      </trkpt>
      <trkpt lat="44.44914" lon="1.61409">
        <ele>300.07</ele>
        <time>2021-08-17T09:51:14Z</time>
      </trkpt>
      <trkpt lat="44.44911" lon="1.61419">
        <ele>299.59</ele>
        <time>2021-08-17T09:51:15Z</time>
      </trkpt>
      <trkpt lat="44.4491" lon="1.6143">
        <ele>298.15</ele>
        <time>2021-08-17T09:51:16Z</time>
      </trkpt>
      <trkpt lat="44.44909" lon="1.61441">
        <ele>298.15</ele>
        <time>2021-08-17T09:51:17Z</time>
      </trkpt>
      <trkpt lat="44.44909" lon="1.61453">
        <ele>296.7</ele>
        <time>2021-08-17T09:51:18Z</time>
      </trkpt>
      <trkpt lat="44.44908" lon="1.61466">
        <ele>295.74</ele>
        <time>2021-08-17T09:51:19Z</time>
      </trkpt>
      <trkpt lat="44.44905" lon="1.61479">
        <ele>294.3</ele>
        <time>2021-08-17T09:51:20Z</time>
      </trkpt>
      <trkpt lat="44.44899" lon="1.61492">
        <ele>293.34</ele>
        <time>2021-08-17T09:51:21Z</time>
      </trkpt>
      <trkpt lat="44.44892" lon="1.61503">
        <ele>292.86</ele>
        <time>2021-08-17T09:51:22Z</time>
      </trkpt>
      <trkpt lat="44.44885" lon="1.61514">
        <ele>291.9</ele>
        <time>2021-08-17T09:51:23Z</time>
      </trkpt>
      <trkpt lat="44.44877" lon="1.61524">
        <ele>291.42</ele>
        <time>2021-08-17T09:51:24Z</time>
      </trkpt>
      <trkpt lat="44.4487" lon="1.61536">
        <ele>290.46</ele>
        <time>2021-08-17T09:51:25Z</time>
      </trkpt>
      <trkpt lat="44.44863" lon="1.61547">
        <ele>289.97</ele>
        <time>2021-08-17T09:51:26Z</time>
      </trkpt>
      <trkpt lat="44.44852" lon="1.61573">
        <ele>288.05</ele>
        <time>2021-08-17T09:51:28Z</time>
      </trkpt>
      <trkpt lat="44.44847" lon="1.61587">
        <ele>288.05</ele>
        <time>2021-08-17T09:51:29Z</time>
      </trkpt>
      <trkpt lat="44.44844" lon="1.61601">
        <ele>288.05</ele>
        <time>2021-08-17T09:51:30Z</time>
      </trkpt>
      <trkpt lat="44.44842" lon="1.61614">
        <ele>288.05</ele>
        <time>2021-08-17T09:51:31Z</time>
      </trkpt>
      <trkpt lat="44.44841" lon="1.61628">
        <ele>288.05</ele>
        <time>2021-08-17T09:51:32Z</time>
      </trkpt>
      <trkpt lat="44.44837" lon="1.61687">
        <ele>291.9</ele>
        <time>2021-08-17T09:51:37Z</time>
      </trkpt>
      <trkpt lat="44.44835" lon="1.61695">
        <ele>292.38</ele>
        <time>2021-08-17T09:51:38Z</time>
      </trkpt>
      <trkpt lat="44.44832" lon="1.61702">
        <ele>293.34</ele>
        <time>2021-08-17T09:51:39Z</time>
      </trkpt>
      <trkpt lat="44.4483" lon="1.61708">
        <ele>293.34</ele>
        <time>2021-08-17T09:51:40Z</time>
      </trkpt>
      <trkpt lat="44.44827" lon="1.61713">
        <ele>294.3</ele>
        <time>2021-08-17T09:51:41Z</time>
      </trkpt>
      <trkpt lat="44.44824" lon="1.61718">
        <ele>294.3</ele>
        <time>2021-08-17T09:51:42Z</time>
      </trkpt>
      <trkpt lat="44.4482" lon="1.61721">
        <ele>294.78</ele>
        <time>2021-08-17T09:51:43Z</time>
      </trkpt>
      <trkpt lat="44.44816" lon="1.61724">
        <ele>294.78</ele>
        <time>2021-08-17T09:51:44Z</time>
      </trkpt>
      <trkpt lat="44.44811" lon="1.61726">
        <ele>294.78</ele>
        <time>2021-08-17T09:51:45Z</time>
      </trkpt>
      <trkpt lat="44.44807" lon="1.61727">
        <ele>294.78</ele>
        <time>2021-08-17T09:51:46Z</time>
      </trkpt>
      <trkpt lat="44.44802" lon="1.61727">
        <ele>294.78</ele>
        <time>2021-08-17T09:51:47Z</time>
      </trkpt>
      <trkpt lat="44.44797" lon="1.61726">
        <ele>294.78</ele>
        <time>2021-08-17T09:51:48Z</time>
      </trkpt>
      <trkpt lat="44.44792" lon="1.61726">
        <ele>294.78</ele>
        <time>2021-08-17T09:51:49Z</time>
      </trkpt>
      <trkpt lat="44.44746" lon="1.61727">
        <ele>294.3</ele>
        <time>2021-08-17T09:51:57Z</time>
      </trkpt>
      <trkpt lat="44.44722" lon="1.61737">
        <ele>292.86</ele>
        <time>2021-08-17T09:52:01Z</time>
      </trkpt>
      <trkpt lat="44.44669" lon="1.61765">
        <ele>289.49</ele>
        <time>2021-08-17T09:52:09Z</time>
      </trkpt>
      <trkpt lat="44.4463" lon="1.61799">
        <ele>286.13</ele>
        <time>2021-08-17T09:52:15Z</time>
      </trkpt>
      <trkpt lat="44.4461" lon="1.6182">
        <ele>282.77</ele>
        <time>2021-08-17T09:52:20Z</time>
      </trkpt>
      <trkpt lat="44.44594" lon="1.61825">
        <ele>280.36</ele>
        <time>2021-08-17T09:52:24Z</time>
      </trkpt>
      <trkpt lat="44.44588" lon="1.61824">
        <ele>278.92</ele>
        <time>2021-08-17T09:52:25Z</time>
      </trkpt>
      <trkpt lat="44.44581" lon="1.61823">
        <ele>278.92</ele>
        <time>2021-08-17T09:52:26Z</time>
      </trkpt>
      <trkpt lat="44.44536" lon="1.61815">
        <ele>277.48</ele>
        <time>2021-08-17T09:52:33Z</time>
      </trkpt>
      <trkpt lat="44.44531" lon="1.61814">
        <ele>277.48</ele>
        <time>2021-08-17T09:52:34Z</time>
      </trkpt>
      <trkpt lat="44.44489" lon="1.61797">
        <ele>278.92</ele>
        <time>2021-08-17T09:52:42Z</time>
      </trkpt>
      <trkpt lat="44.44485" lon="1.61795">
        <ele>278.92</ele>
        <time>2021-08-17T09:52:43Z</time>
      </trkpt>
      <trkpt lat="44.4446" lon="1.61785">
        <ele>279.88</ele>
        <time>2021-08-17T09:52:49Z</time>
      </trkpt>
      <trkpt lat="44.44457" lon="1.61784">
        <ele>279.88</ele>
        <time>2021-08-17T09:52:50Z</time>
      </trkpt>
      <trkpt lat="44.44454" lon="1.61783">
        <ele>280.36</ele>
        <time>2021-08-17T09:52:51Z</time>
      </trkpt>
      <trkpt lat="44.44451" lon="1.61783">
        <ele>280.36</ele>
        <time>2021-08-17T09:52:52Z</time>
      </trkpt>
      <trkpt lat="44.44447" lon="1.61783">
        <ele>280.36</ele>
        <time>2021-08-17T09:52:53Z</time>
      </trkpt>
      <trkpt lat="44.44444" lon="1.61783">
        <ele>280.84</ele>
        <time>2021-08-17T09:52:54Z</time>
      </trkpt>
      <trkpt lat="44.44441" lon="1.61783">
        <ele>280.84</ele>
        <time>2021-08-17T09:52:55Z</time>
      </trkpt>
      <trkpt lat="44.44438" lon="1.61782">
        <ele>280.84</ele>
        <time>2021-08-17T09:52:56Z</time>
      </trkpt>
      <trkpt lat="44.44436" lon="1.61783">
        <ele>281.32</ele>
        <time>2021-08-17T09:52:57Z</time>
      </trkpt>
      <trkpt lat="44.44423" lon="1.61781">
        <ele>281.8</ele>
        <time>2021-08-17T09:53:04Z</time>
      </trkpt>
      <trkpt lat="44.44406" lon="1.61779">
        <ele>283.73</ele>
        <time>2021-08-17T09:53:12Z</time>
      </trkpt>
      <trkpt lat="44.44389" lon="1.61778">
        <ele>283.73</ele>
        <time>2021-08-17T09:53:19Z</time>
      </trkpt>
      <trkpt lat="44.4437" lon="1.61776">
        <ele>284.21</ele>
        <time>2021-08-17T09:53:25Z</time>
      </trkpt>
      <trkpt lat="44.44348" lon="1.61773">
        <ele>284.21</ele>
        <time>2021-08-17T09:53:32Z</time>
      </trkpt>
      <trkpt lat="44.44322" lon="1.61773">
        <ele>282.77</ele>
        <time>2021-08-17T09:53:39Z</time>
      </trkpt>
      <trkpt lat="44.44317" lon="1.61774">
        <ele>282.77</ele>
        <time>2021-08-17T09:53:40Z</time>
      </trkpt>
      <trkpt lat="44.44292" lon="1.61778">
        <ele>279.88</ele>
        <time>2021-08-17T09:53:44Z</time>
      </trkpt>
      <trkpt lat="44.44261" lon="1.6179">
        <ele>276.52</ele>
        <time>2021-08-17T09:53:48Z</time>
      </trkpt>
      <trkpt lat="44.44247" lon="1.61799">
        <ele>276.52</ele>
        <time>2021-08-17T09:53:50Z</time>
      </trkpt>
      <trkpt lat="44.44242" lon="1.61805">
        <ele>276.52</ele>
        <time>2021-08-17T09:53:51Z</time>
      </trkpt>
      <trkpt lat="44.44238" lon="1.61812">
        <ele>276.52</ele>
        <time>2021-08-17T09:53:52Z</time>
      </trkpt>
      <trkpt lat="44.44235" lon="1.6182">
        <ele>276.52</ele>
        <time>2021-08-17T09:53:53Z</time>
      </trkpt>
      <trkpt lat="44.44231" lon="1.61828">
        <ele>275.56</ele>
        <time>2021-08-17T09:53:54Z</time>
      </trkpt>
      <trkpt lat="44.44226" lon="1.61834">
        <ele>275.56</ele>
        <time>2021-08-17T09:53:55Z</time>
      </trkpt>
      <trkpt lat="44.4422" lon="1.6184">
        <ele>274.59</ele>
        <time>2021-08-17T09:53:56Z</time>
      </trkpt>
      <trkpt lat="44.44212" lon="1.61846">
        <ele>273.63</ele>
        <time>2021-08-17T09:53:57Z</time>
      </trkpt>
      <trkpt lat="44.44199" lon="1.61858">
        <ele>273.15</ele>
        <time>2021-08-17T09:53:59Z</time>
      </trkpt>
      <trkpt lat="44.44193" lon="1.61867">
        <ele>273.15</ele>
        <time>2021-08-17T09:54:00Z</time>
      </trkpt>
      <trkpt lat="44.44182" lon="1.61882">
        <ele>272.67</ele>
        <time>2021-08-17T09:54:02Z</time>
      </trkpt>
      <trkpt lat="44.44146" lon="1.61925">
        <ele>272.67</ele>
        <time>2021-08-17T09:54:09Z</time>
      </trkpt>
      <trkpt lat="44.44133" lon="1.61951">
        <ele>272.67</ele>
        <time>2021-08-17T09:54:13Z</time>
      </trkpt>
      <trkpt lat="44.44125" lon="1.61981">
        <ele>272.67</ele>
        <time>2021-08-17T09:54:17Z</time>
      </trkpt>
      <trkpt lat="44.44122" lon="1.61988">
        <ele>273.63</ele>
        <time>2021-08-17T09:54:18Z</time>
      </trkpt>
      <trkpt lat="44.44118" lon="1.61994">
        <ele>273.63</ele>
        <time>2021-08-17T09:54:19Z</time>
      </trkpt>
      <trkpt lat="44.44079" lon="1.62051">
        <ele>273.63</ele>
        <time>2021-08-17T09:54:29Z</time>
      </trkpt>
      <trkpt lat="44.44053" lon="1.62085">
        <ele>273.63</ele>
        <time>2021-08-17T09:54:36Z</time>
      </trkpt>
      <trkpt lat="44.4405" lon="1.62091">
        <ele>273.63</ele>
        <time>2021-08-17T09:54:37Z</time>
      </trkpt>
      <trkpt lat="44.44033" lon="1.62128">
        <ele>273.63</ele>
        <time>2021-08-17T09:54:44Z</time>
      </trkpt>
      <trkpt lat="44.4403" lon="1.62132">
        <ele>273.63</ele>
        <time>2021-08-17T09:54:45Z</time>
      </trkpt>
      <trkpt lat="44.44025" lon="1.62135">
        <ele>273.63</ele>
        <time>2021-08-17T09:54:46Z</time>
      </trkpt>
      <trkpt lat="44.4402" lon="1.62138">
        <ele>273.63</ele>
        <time>2021-08-17T09:54:47Z</time>
      </trkpt>
      <trkpt lat="44.44016" lon="1.62141">
        <ele>273.63</ele>
        <time>2021-08-17T09:54:48Z</time>
      </trkpt>
      <trkpt lat="44.44011" lon="1.62145">
        <ele>273.63</ele>
        <time>2021-08-17T09:54:49Z</time>
      </trkpt>
      <trkpt lat="44.44006" lon="1.62148">
        <ele>273.63</ele>
        <time>2021-08-17T09:54:50Z</time>
      </trkpt>
      <trkpt lat="44.43967" lon="1.62173">
        <ele>272.19</ele>
        <time>2021-08-17T09:54:57Z</time>
      </trkpt>
      <trkpt lat="44.43962" lon="1.62175">
        <ele>272.19</ele>
        <time>2021-08-17T09:54:58Z</time>
      </trkpt>
      <trkpt lat="44.43955" lon="1.62177">
        <ele>272.19</ele>
        <time>2021-08-17T09:54:59Z</time>
      </trkpt>
      <trkpt lat="44.43948" lon="1.62177">
        <ele>272.19</ele>
        <time>2021-08-17T09:55:00Z</time>
      </trkpt>
      <trkpt lat="44.43912" lon="1.62177">
        <ele>271.71</ele>
        <time>2021-08-17T09:55:06Z</time>
      </trkpt>
      <trkpt lat="44.43908" lon="1.62176">
        <ele>271.71</ele>
        <time>2021-08-17T09:55:07Z</time>
      </trkpt>
      <trkpt lat="44.43906" lon="1.62172">
        <ele>271.71</ele>
        <time>2021-08-17T09:55:08Z</time>
      </trkpt>
      <trkpt lat="44.4391" lon="1.62159">
        <ele>271.71</ele>
        <time>2021-08-17T09:55:13Z</time>
      </trkpt>
      <trkpt lat="44.43912" lon="1.62156">
        <ele>272.67</ele>
        <time>2021-08-17T09:55:15Z</time>
      </trkpt>
      <trkpt lat="44.43913" lon="1.62154">
        <ele>272.67</ele>
        <time>2021-08-17T09:55:22Z</time>
      </trkpt>
      <trkpt lat="44.43912" lon="1.62154">
        <ele>273.15</ele>
        <time>2021-08-17T09:55:33Z</time>
      </trkpt>
      <trkpt lat="44.43911" lon="1.62155">
        <ele>273.15</ele>
        <time>2021-08-17T09:55:35Z</time>
      </trkpt>
      <trkpt lat="44.43908" lon="1.62159">
        <ele>273.15</ele>
        <time>2021-08-17T09:55:37Z</time>
      </trkpt>
      <trkpt lat="44.43901" lon="1.62176">
        <ele>272.19</ele>
        <time>2021-08-17T09:55:41Z</time>
      </trkpt>
      <trkpt lat="44.43899" lon="1.62179">
        <ele>271.71</ele>
        <time>2021-08-17T09:55:42Z</time>
      </trkpt>
      <trkpt lat="44.43895" lon="1.62181">
        <ele>271.71</ele>
        <time>2021-08-17T09:55:43Z</time>
      </trkpt>
      <trkpt lat="44.43892" lon="1.62184">
        <ele>271.71</ele>
        <time>2021-08-17T09:55:44Z</time>
      </trkpt>
      <trkpt lat="44.43889" lon="1.62188">
        <ele>271.71</ele>
        <time>2021-08-17T09:55:45Z</time>
      </trkpt>
      <trkpt lat="44.43872" lon="1.62211">
        <ele>271.23</ele>
        <time>2021-08-17T09:55:50Z</time>
      </trkpt>
      <trkpt lat="44.43869" lon="1.62217">
        <ele>271.23</ele>
        <time>2021-08-17T09:55:51Z</time>
      </trkpt>
      <trkpt lat="44.43852" lon="1.62254">
        <ele>271.23</ele>
        <time>2021-08-17T09:55:57Z</time>
      </trkpt>
      <trkpt lat="44.43848" lon="1.62267">
        <ele>271.23</ele>
        <time>2021-08-17T09:55:59Z</time>
      </trkpt>
      <trkpt lat="44.43841" lon="1.62293">
        <ele>271.23</ele>
        <time>2021-08-17T09:56:03Z</time>
      </trkpt>
      <trkpt lat="44.43839" lon="1.62298">
        <ele>271.23</ele>
        <time>2021-08-17T09:56:04Z</time>
      </trkpt>
      <trkpt lat="44.43836" lon="1.62303">
        <ele>271.23</ele>
        <time>2021-08-17T09:56:05Z</time>
      </trkpt>
      <trkpt lat="44.43833" lon="1.62308">
        <ele>271.23</ele>
        <time>2021-08-17T09:56:06Z</time>
      </trkpt>
      <trkpt lat="44.4383" lon="1.62311">
        <ele>271.23</ele>
        <time>2021-08-17T09:56:07Z</time>
      </trkpt>
      <trkpt lat="44.43827" lon="1.62314">
        <ele>272.67</ele>
        <time>2021-08-17T09:56:08Z</time>
      </trkpt>
      <trkpt lat="44.43823" lon="1.62316">
        <ele>272.67</ele>
        <time>2021-08-17T09:56:09Z</time>
      </trkpt>
      <trkpt lat="44.4382" lon="1.62315">
        <ele>272.67</ele>
        <time>2021-08-17T09:56:10Z</time>
      </trkpt>
      <trkpt lat="44.43815" lon="1.62312">
        <ele>272.67</ele>
        <time>2021-08-17T09:56:11Z</time>
      </trkpt>
      <trkpt lat="44.43812" lon="1.62309">
        <ele>271.23</ele>
        <time>2021-08-17T09:56:12Z</time>
      </trkpt>
      <trkpt lat="44.43809" lon="1.62304">
        <ele>271.23</ele>
        <time>2021-08-17T09:56:13Z</time>
      </trkpt>
      <trkpt lat="44.43807" lon="1.62298">
        <ele>271.23</ele>
        <time>2021-08-17T09:56:14Z</time>
      </trkpt>
      <trkpt lat="44.43804" lon="1.62293">
        <ele>270.75</ele>
        <time>2021-08-17T09:56:15Z</time>
      </trkpt>
      <trkpt lat="44.43801" lon="1.62287">
        <ele>270.27</ele>
        <time>2021-08-17T09:56:16Z</time>
      </trkpt>
      <trkpt lat="44.43798" lon="1.62281">
        <ele>270.27</ele>
        <time>2021-08-17T09:56:17Z</time>
      </trkpt>
      <trkpt lat="44.4379" lon="1.62263">
        <ele>270.27</ele>
        <time>2021-08-17T09:56:20Z</time>
      </trkpt>
      <trkpt lat="44.43786" lon="1.62259">
        <ele>269.79</ele>
        <time>2021-08-17T09:56:21Z</time>
      </trkpt>
      <trkpt lat="44.43781" lon="1.62254">
        <ele>269.31</ele>
        <time>2021-08-17T09:56:22Z</time>
      </trkpt>
      <trkpt lat="44.43777" lon="1.62251">
        <ele>269.31</ele>
        <time>2021-08-17T09:56:23Z</time>
      </trkpt>
      <trkpt lat="44.4377" lon="1.62247">
        <ele>269.31</ele>
        <time>2021-08-17T09:56:24Z</time>
      </trkpt>
      <trkpt lat="44.43739" lon="1.62225">
        <ele>269.31</ele>
        <time>2021-08-17T09:56:31Z</time>
      </trkpt>
      <trkpt lat="44.43724" lon="1.62217">
        <ele>271.23</ele>
        <time>2021-08-17T09:56:36Z</time>
      </trkpt>
      <trkpt lat="44.43721" lon="1.62219">
        <ele>271.23</ele>
        <time>2021-08-17T09:56:37Z</time>
      </trkpt>
      <trkpt lat="44.43718" lon="1.62222">
        <ele>271.23</ele>
        <time>2021-08-17T09:56:38Z</time>
      </trkpt>
      <trkpt lat="44.43715" lon="1.62227">
        <ele>271.23</ele>
        <time>2021-08-17T09:56:39Z</time>
      </trkpt>
      <trkpt lat="44.43712" lon="1.62232">
        <ele>269.79</ele>
        <time>2021-08-17T09:56:40Z</time>
      </trkpt>
      <trkpt lat="44.43708" lon="1.62238">
        <ele>269.31</ele>
        <time>2021-08-17T09:56:41Z</time>
      </trkpt>
      <trkpt lat="44.43675" lon="1.62284">
        <ele>267.38</ele>
        <time>2021-08-17T09:56:48Z</time>
      </trkpt>
      <trkpt lat="44.4367" lon="1.6229">
        <ele>267.38</ele>
        <time>2021-08-17T09:56:49Z</time>
      </trkpt>
      <trkpt lat="44.43639" lon="1.62315">
        <ele>266.9</ele>
        <time>2021-08-17T09:56:55Z</time>
      </trkpt>
      <trkpt lat="44.43599" lon="1.62353">
        <ele>266.9</ele>
        <time>2021-08-17T09:57:03Z</time>
      </trkpt>
      <trkpt lat="44.43595" lon="1.62358">
        <ele>266.9</ele>
        <time>2021-08-17T09:57:04Z</time>
      </trkpt>
      <trkpt lat="44.43592" lon="1.62364">
        <ele>266.9</ele>
        <time>2021-08-17T09:57:05Z</time>
      </trkpt>
      <trkpt lat="44.43589" lon="1.62369">
        <ele>266.9</ele>
        <time>2021-08-17T09:57:06Z</time>
      </trkpt>
      <trkpt lat="44.43587" lon="1.62375">
        <ele>266.9</ele>
        <time>2021-08-17T09:57:07Z</time>
      </trkpt>
      <trkpt lat="44.43582" lon="1.62387">
        <ele>266.9</ele>
        <time>2021-08-17T09:57:09Z</time>
      </trkpt>
      <trkpt lat="44.43581" lon="1.62393">
        <ele>266.9</ele>
        <time>2021-08-17T09:57:10Z</time>
      </trkpt>
      <trkpt lat="44.43577" lon="1.62422">
        <ele>266.9</ele>
        <time>2021-08-17T09:57:14Z</time>
      </trkpt>
      <trkpt lat="44.4358" lon="1.62483">
        <ele>266.9</ele>
        <time>2021-08-17T09:57:22Z</time>
      </trkpt>
      <trkpt lat="44.43586" lon="1.62534">
        <ele>266.42</ele>
        <time>2021-08-17T09:57:29Z</time>
      </trkpt>
      <trkpt lat="44.43585" lon="1.62541">
        <ele>266.42</ele>
        <time>2021-08-17T09:57:30Z</time>
      </trkpt>
      <trkpt lat="44.43579" lon="1.62579">
        <ele>267.38</ele>
        <time>2021-08-17T09:57:37Z</time>
      </trkpt>
      <trkpt lat="44.43558" lon="1.62616">
        <ele>267.38</ele>
        <time>2021-08-17T09:57:44Z</time>
      </trkpt>
      <trkpt lat="44.43523" lon="1.62666">
        <ele>264.98</ele>
        <time>2021-08-17T09:57:52Z</time>
      </trkpt>
      <trkpt lat="44.43495" lon="1.62698">
        <ele>264.98</ele>
        <time>2021-08-17T09:57:58Z</time>
      </trkpt>
      <trkpt lat="44.4346" lon="1.62739">
        <ele>263.54</ele>
        <time>2021-08-17T09:58:06Z</time>
      </trkpt>
      <trkpt lat="44.43439" lon="1.62764">
        <ele>264.02</ele>
        <time>2021-08-17T09:58:13Z</time>
      </trkpt>
      <trkpt lat="44.43427" lon="1.62791">
        <ele>264.02</ele>
        <time>2021-08-17T09:58:19Z</time>
      </trkpt>
      <trkpt lat="44.43419" lon="1.62806">
        <ele>265.94</ele>
        <time>2021-08-17T09:58:25Z</time>
      </trkpt>
      <trkpt lat="44.43409" lon="1.6282">
        <ele>266.9</ele>
        <time>2021-08-17T09:58:33Z</time>
      </trkpt>
      <trkpt lat="44.43402" lon="1.62831">
        <ele>268.83</ele>
        <time>2021-08-17T09:58:40Z</time>
      </trkpt>
      <trkpt lat="44.43402" lon="1.62833">
        <ele>269.31</ele>
        <time>2021-08-17T09:58:41Z</time>
      </trkpt>
      <trkpt lat="44.43402" lon="1.62835">
        <ele>269.31</ele>
        <time>2021-08-17T09:58:42Z</time>
      </trkpt>
      <trkpt lat="44.43404" lon="1.62836">
        <ele>269.31</ele>
        <time>2021-08-17T09:58:43Z</time>
      </trkpt>
      <trkpt lat="44.43406" lon="1.62837">
        <ele>269.31</ele>
        <time>2021-08-17T09:58:44Z</time>
      </trkpt>
      <trkpt lat="44.43407" lon="1.62838">
        <ele>269.31</ele>
        <time>2021-08-17T09:58:45Z</time>
      </trkpt>
      <trkpt lat="44.43409" lon="1.6284">
        <ele>269.31</ele>
        <time>2021-08-17T09:58:46Z</time>
      </trkpt>
      <trkpt lat="44.43429" lon="1.62857">
        <ele>270.27</ele>
        <time>2021-08-17T09:58:55Z</time>
      </trkpt>
      <trkpt lat="44.43454" lon="1.62878">
        <ele>271.23</ele>
        <time>2021-08-17T09:59:04Z</time>
      </trkpt>
      <trkpt lat="44.43476" lon="1.62901">
        <ele>271.23</ele>
        <time>2021-08-17T09:59:11Z</time>
      </trkpt>
      <trkpt lat="44.43497" lon="1.62937">
        <ele>271.23</ele>
        <time>2021-08-17T09:59:19Z</time>
      </trkpt>
      <trkpt lat="44.43504" lon="1.62952">
        <ele>272.67</ele>
        <time>2021-08-17T09:59:25Z</time>
      </trkpt>
      <trkpt lat="44.43505" lon="1.62974">
        <ele>274.11</ele>
        <time>2021-08-17T09:59:35Z</time>
      </trkpt>
      <trkpt lat="44.43503" lon="1.62988">
        <ele>275.07</ele>
        <time>2021-08-17T09:59:42Z</time>
      </trkpt>
      <trkpt lat="44.43502" lon="1.63001">
        <ele>276.04</ele>
        <time>2021-08-17T09:59:48Z</time>
      </trkpt>
      <trkpt lat="44.43502" lon="1.63003">
        <ele>276.04</ele>
        <time>2021-08-17T09:59:49Z</time>
      </trkpt>
      <trkpt lat="44.43502" lon="1.63008">
        <ele>277</ele>
        <time>2021-08-17T09:59:53Z</time>
      </trkpt>
      <trkpt lat="44.43501" lon="1.6301">
        <ele>277.48</ele>
        <time>2021-08-17T09:59:54Z</time>
      </trkpt>
      <trkpt lat="44.435" lon="1.63012">
        <ele>277.48</ele>
        <time>2021-08-17T09:59:55Z</time>
      </trkpt>
      <trkpt lat="44.43496" lon="1.63034">
        <ele>278.92</ele>
        <time>2021-08-17T10:00:05Z</time>
      </trkpt>
      <trkpt lat="44.43491" lon="1.6306">
        <ele>279.4</ele>
        <time>2021-08-17T10:00:12Z</time>
      </trkpt>
      <trkpt lat="44.43485" lon="1.63074">
        <ele>278.92</ele>
        <time>2021-08-17T10:00:15Z</time>
      </trkpt>
      <trkpt lat="44.43483" lon="1.63079">
        <ele>278.92</ele>
        <time>2021-08-17T10:00:16Z</time>
      </trkpt>
      <trkpt lat="44.43475" lon="1.6309">
        <ele>277.96</ele>
        <time>2021-08-17T10:00:18Z</time>
      </trkpt>
      <trkpt lat="44.43469" lon="1.63099">
        <ele>277.48</ele>
        <time>2021-08-17T10:00:20Z</time>
      </trkpt>
      <trkpt lat="44.43466" lon="1.63106">
        <ele>277.48</ele>
        <time>2021-08-17T10:00:21Z</time>
      </trkpt>
      <trkpt lat="44.43464" lon="1.63111">
        <ele>277.48</ele>
        <time>2021-08-17T10:00:22Z</time>
      </trkpt>
      <trkpt lat="44.43464" lon="1.63118">
        <ele>277.48</ele>
        <time>2021-08-17T10:00:23Z</time>
      </trkpt>
      <trkpt lat="44.43464" lon="1.63123">
        <ele>277.48</ele>
        <time>2021-08-17T10:00:24Z</time>
      </trkpt>
      <trkpt lat="44.43464" lon="1.63128">
        <ele>277.48</ele>
        <time>2021-08-17T10:00:25Z</time>
      </trkpt>
      <trkpt lat="44.43467" lon="1.63144">
        <ele>278.92</ele>
        <time>2021-08-17T10:00:29Z</time>
      </trkpt>
      <trkpt lat="44.43474" lon="1.63166">
        <ele>280.36</ele>
        <time>2021-08-17T10:00:37Z</time>
      </trkpt>
      <trkpt lat="44.43482" lon="1.6319">
        <ele>281.8</ele>
        <time>2021-08-17T10:00:46Z</time>
      </trkpt>
      <trkpt lat="44.43489" lon="1.63209">
        <ele>283.25</ele>
        <time>2021-08-17T10:00:54Z</time>
      </trkpt>
      <trkpt lat="44.43501" lon="1.63235">
        <ele>283.73</ele>
        <time>2021-08-17T10:01:04Z</time>
      </trkpt>
      <trkpt lat="44.43517" lon="1.63257">
        <ele>281.32</ele>
        <time>2021-08-17T10:01:09Z</time>
      </trkpt>
      <trkpt lat="44.43521" lon="1.63263">
        <ele>280.84</ele>
        <time>2021-08-17T10:01:10Z</time>
      </trkpt>
      <trkpt lat="44.43525" lon="1.6327">
        <ele>280.84</ele>
        <time>2021-08-17T10:01:11Z</time>
      </trkpt>
      <trkpt lat="44.43528" lon="1.63277">
        <ele>280.36</ele>
        <time>2021-08-17T10:01:12Z</time>
      </trkpt>
      <trkpt lat="44.4353" lon="1.63284">
        <ele>280.36</ele>
        <time>2021-08-17T10:01:13Z</time>
      </trkpt>
      <trkpt lat="44.43531" lon="1.63291">
        <ele>280.36</ele>
        <time>2021-08-17T10:01:14Z</time>
      </trkpt>
      <trkpt lat="44.43531" lon="1.63297">
        <ele>281.32</ele>
        <time>2021-08-17T10:01:15Z</time>
      </trkpt>
      <trkpt lat="44.4353" lon="1.63301">
        <ele>281.32</ele>
        <time>2021-08-17T10:01:16Z</time>
      </trkpt>
      <trkpt lat="44.4353" lon="1.63305">
        <ele>282.28</ele>
        <time>2021-08-17T10:01:17Z</time>
      </trkpt>
      <trkpt lat="44.43529" lon="1.63307">
        <ele>282.28</ele>
        <time>2021-08-17T10:01:18Z</time>
      </trkpt>
      <trkpt lat="44.43527" lon="1.63314">
        <ele>283.25</ele>
        <time>2021-08-17T10:01:22Z</time>
      </trkpt>
      <trkpt lat="44.43522" lon="1.63326">
        <ele>284.69</ele>
        <time>2021-08-17T10:01:30Z</time>
      </trkpt>
      <trkpt lat="44.43519" lon="1.63329">
        <ele>285.17</ele>
        <time>2021-08-17T10:01:33Z</time>
      </trkpt>
      <trkpt lat="44.43513" lon="1.63331">
        <ele>286.13</ele>
        <time>2021-08-17T10:01:37Z</time>
      </trkpt>
      <trkpt lat="44.43512" lon="1.63338">
        <ele>286.61</ele>
        <time>2021-08-17T10:01:43Z</time>
      </trkpt>
      <trkpt lat="44.43507" lon="1.63352">
        <ele>287.57</ele>
        <time>2021-08-17T10:01:52Z</time>
      </trkpt>
      <trkpt lat="44.43501" lon="1.63365">
        <ele>289.49</ele>
        <time>2021-08-17T10:02:02Z</time>
      </trkpt>
      <trkpt lat="44.43497" lon="1.63373">
        <ele>289.97</ele>
        <time>2021-08-17T10:02:08Z</time>
      </trkpt>
      <trkpt lat="44.43496" lon="1.63374">
        <ele>290.46</ele>
        <time>2021-08-17T10:02:09Z</time>
      </trkpt>
      <trkpt lat="44.43496" lon="1.63375">
        <ele>290.46</ele>
        <time>2021-08-17T10:02:10Z</time>
      </trkpt>
      <trkpt lat="44.43493" lon="1.63387">
        <ele>291.42</ele>
        <time>2021-08-17T10:02:18Z</time>
      </trkpt>
      <trkpt lat="44.43492" lon="1.63403">
        <ele>292.86</ele>
        <time>2021-08-17T10:02:28Z</time>
      </trkpt>
      <trkpt lat="44.43491" lon="1.63407">
        <ele>292.86</ele>
        <time>2021-08-17T10:02:35Z</time>
      </trkpt>
      <trkpt lat="44.43492" lon="1.63419">
        <ele>293.82</ele>
        <time>2021-08-17T10:02:43Z</time>
      </trkpt>
      <trkpt lat="44.43494" lon="1.63434">
        <ele>295.26</ele>
        <time>2021-08-17T10:02:52Z</time>
      </trkpt>
      <trkpt lat="44.43496" lon="1.63449">
        <ele>296.7</ele>
        <time>2021-08-17T10:03:01Z</time>
      </trkpt>
      <trkpt lat="44.43499" lon="1.63465">
        <ele>298.63</ele>
        <time>2021-08-17T10:03:10Z</time>
      </trkpt>
      <trkpt lat="44.43503" lon="1.6348">
        <ele>299.59</ele>
        <time>2021-08-17T10:03:19Z</time>
      </trkpt>
      <trkpt lat="44.43504" lon="1.63481">
        <ele>300.07</ele>
        <time>2021-08-17T10:03:20Z</time>
      </trkpt>
      <trkpt lat="44.43505" lon="1.63482">
        <ele>300.07</ele>
        <time>2021-08-17T10:03:21Z</time>
      </trkpt>
      <trkpt lat="44.43509" lon="1.63485">
        <ele>300.55</ele>
        <time>2021-08-17T10:03:25Z</time>
      </trkpt>
      <trkpt lat="44.4351" lon="1.63486">
        <ele>301.51</ele>
        <time>2021-08-17T10:03:26Z</time>
      </trkpt>
      <trkpt lat="44.43511" lon="1.63486">
        <ele>301.51</ele>
        <time>2021-08-17T10:03:27Z</time>
      </trkpt>
      <trkpt lat="44.43512" lon="1.63486">
        <ele>301.51</ele>
        <time>2021-08-17T10:03:28Z</time>
      </trkpt>
      <trkpt lat="44.43514" lon="1.63486">
        <ele>301.99</ele>
        <time>2021-08-17T10:03:29Z</time>
      </trkpt>
      <trkpt lat="44.43515" lon="1.63486">
        <ele>301.99</ele>
        <time>2021-08-17T10:03:30Z</time>
      </trkpt>
      <trkpt lat="44.43516" lon="1.63486">
        <ele>302.47</ele>
        <time>2021-08-17T10:03:31Z</time>
      </trkpt>
      <trkpt lat="44.43517" lon="1.63486">
        <ele>302.47</ele>
        <time>2021-08-17T10:03:32Z</time>
      </trkpt>
      <trkpt lat="44.43518" lon="1.63485">
        <ele>302.47</ele>
        <time>2021-08-17T10:03:33Z</time>
      </trkpt>
      <trkpt lat="44.43519" lon="1.63484">
        <ele>302.95</ele>
        <time>2021-08-17T10:03:34Z</time>
      </trkpt>
      <trkpt lat="44.4352" lon="1.63482">
        <ele>302.95</ele>
        <time>2021-08-17T10:03:35Z</time>
      </trkpt>
      <trkpt lat="44.43526" lon="1.63464">
        <ele>304.88</ele>
        <time>2021-08-17T10:03:46Z</time>
      </trkpt>
      <trkpt lat="44.43532" lon="1.6345">
        <ele>305.36</ele>
        <time>2021-08-17T10:03:55Z</time>
      </trkpt>
      <trkpt lat="44.43539" lon="1.6344">
        <ele>306.8</ele>
        <time>2021-08-17T10:04:03Z</time>
      </trkpt>
      <trkpt lat="44.43546" lon="1.63432">
        <ele>307.76</ele>
        <time>2021-08-17T10:04:10Z</time>
      </trkpt>
      <trkpt lat="44.43548" lon="1.63432">
        <ele>307.76</ele>
        <time>2021-08-17T10:04:11Z</time>
      </trkpt>
      <trkpt lat="44.43549" lon="1.63433">
        <ele>308.24</ele>
        <time>2021-08-17T10:04:12Z</time>
      </trkpt>
      <trkpt lat="44.43562" lon="1.63435">
        <ele>309.68</ele>
        <time>2021-08-17T10:04:21Z</time>
      </trkpt>
      <trkpt lat="44.43564" lon="1.63438">
        <ele>310.16</ele>
        <time>2021-08-17T10:04:23Z</time>
      </trkpt>
      <trkpt lat="44.43571" lon="1.63449">
        <ele>312.09</ele>
        <time>2021-08-17T10:04:32Z</time>
      </trkpt>
      <trkpt lat="44.43576" lon="1.63462">
        <ele>313.53</ele>
        <time>2021-08-17T10:04:40Z</time>
      </trkpt>
      <trkpt lat="44.43577" lon="1.63466">
        <ele>314.01</ele>
        <time>2021-08-17T10:04:42Z</time>
      </trkpt>
      <trkpt lat="44.43578" lon="1.63468">
        <ele>314.01</ele>
        <time>2021-08-17T10:04:43Z</time>
      </trkpt>
      <trkpt lat="44.43579" lon="1.63472">
        <ele>314.49</ele>
        <time>2021-08-17T10:04:45Z</time>
      </trkpt>
      <trkpt lat="44.43579" lon="1.63474">
        <ele>314.49</ele>
        <time>2021-08-17T10:04:46Z</time>
      </trkpt>
      <trkpt lat="44.4358" lon="1.63477">
        <ele>314.49</ele>
        <time>2021-08-17T10:04:47Z</time>
      </trkpt>
      <trkpt lat="44.43587" lon="1.63496">
        <ele>315.93</ele>
        <time>2021-08-17T10:04:56Z</time>
      </trkpt>
      <trkpt lat="44.43596" lon="1.63518">
        <ele>316.89</ele>
        <time>2021-08-17T10:05:05Z</time>
      </trkpt>
      <trkpt lat="44.4361" lon="1.63532">
        <ele>317.37</ele>
        <time>2021-08-17T10:05:12Z</time>
      </trkpt>
      <trkpt lat="44.43624" lon="1.63559">
        <ele>317.37</ele>
        <time>2021-08-17T10:05:20Z</time>
      </trkpt>
      <trkpt lat="44.43622" lon="1.63585">
        <ele>317.85</ele>
        <time>2021-08-17T10:05:27Z</time>
      </trkpt>
      <trkpt lat="44.43618" lon="1.63613">
        <ele>318.33</ele>
        <time>2021-08-17T10:05:35Z</time>
      </trkpt>
      <trkpt lat="44.43621" lon="1.63639">
        <ele>320.26</ele>
        <time>2021-08-17T10:05:43Z</time>
      </trkpt>
      <trkpt lat="44.43627" lon="1.63664">
        <ele>322.18</ele>
        <time>2021-08-17T10:05:52Z</time>
      </trkpt>
      <trkpt lat="44.43626" lon="1.63689">
        <ele>323.14</ele>
        <time>2021-08-17T10:06:00Z</time>
      </trkpt>
      <trkpt lat="44.4362" lon="1.63704">
        <ele>323.14</ele>
        <time>2021-08-17T10:06:05Z</time>
      </trkpt>
      <trkpt lat="44.43618" lon="1.63705">
        <ele>323.14</ele>
        <time>2021-08-17T10:06:06Z</time>
      </trkpt>
      <trkpt lat="44.43616" lon="1.63707">
        <ele>323.14</ele>
        <time>2021-08-17T10:06:07Z</time>
      </trkpt>
      <trkpt lat="44.43599" lon="1.63718">
        <ele>324.1</ele>
        <time>2021-08-17T10:06:15Z</time>
      </trkpt>
      <trkpt lat="44.43579" lon="1.63731">
        <ele>324.58</ele>
        <time>2021-08-17T10:06:23Z</time>
      </trkpt>
      <trkpt lat="44.43565" lon="1.63755">
        <ele>326.5</ele>
        <time>2021-08-17T10:06:32Z</time>
      </trkpt>
      <trkpt lat="44.43559" lon="1.63783">
        <ele>327.95</ele>
        <time>2021-08-17T10:06:41Z</time>
      </trkpt>
      <trkpt lat="44.43545" lon="1.63813">
        <ele>329.39</ele>
        <time>2021-08-17T10:06:51Z</time>
      </trkpt>
      <trkpt lat="44.43536" lon="1.63837">
        <ele>329.39</ele>
        <time>2021-08-17T10:06:58Z</time>
      </trkpt>
      <trkpt lat="44.43535" lon="1.63843">
        <ele>329.39</ele>
        <time>2021-08-17T10:06:59Z</time>
      </trkpt>
      <trkpt lat="44.43535" lon="1.63849">
        <ele>328.43</ele>
        <time>2021-08-17T10:07:00Z</time>
      </trkpt>
      <trkpt lat="44.43536" lon="1.63856">
        <ele>328.43</ele>
        <time>2021-08-17T10:07:01Z</time>
      </trkpt>
      <trkpt lat="44.43545" lon="1.63919">
        <ele>326.5</ele>
        <time>2021-08-17T10:07:09Z</time>
      </trkpt>
      <trkpt lat="44.43546" lon="1.63946">
        <ele>328.43</ele>
        <time>2021-08-17T10:07:14Z</time>
      </trkpt>
      <trkpt lat="44.43539" lon="1.63976">
        <ele>328.91</ele>
        <time>2021-08-17T10:07:21Z</time>
      </trkpt>
      <trkpt lat="44.43522" lon="1.64011">
        <ele>331.79</ele>
        <time>2021-08-17T10:07:30Z</time>
      </trkpt>
      <trkpt lat="44.43512" lon="1.64047">
        <ele>333.23</ele>
        <time>2021-08-17T10:07:39Z</time>
      </trkpt>
      <trkpt lat="44.43518" lon="1.64078">
        <ele>333.23</ele>
        <time>2021-08-17T10:07:45Z</time>
      </trkpt>
      <trkpt lat="44.43519" lon="1.64084">
        <ele>332.75</ele>
        <time>2021-08-17T10:07:46Z</time>
      </trkpt>
      <trkpt lat="44.43521" lon="1.6409">
        <ele>332.75</ele>
        <time>2021-08-17T10:07:47Z</time>
      </trkpt>
      <trkpt lat="44.43522" lon="1.64103">
        <ele>332.75</ele>
        <time>2021-08-17T10:07:49Z</time>
      </trkpt>
      <trkpt lat="44.43523" lon="1.64108">
        <ele>332.75</ele>
        <time>2021-08-17T10:07:50Z</time>
      </trkpt>
      <trkpt lat="44.43522" lon="1.64114">
        <ele>332.75</ele>
        <time>2021-08-17T10:07:51Z</time>
      </trkpt>
      <trkpt lat="44.43521" lon="1.64121">
        <ele>332.75</ele>
        <time>2021-08-17T10:07:52Z</time>
      </trkpt>
      <trkpt lat="44.4352" lon="1.64126">
        <ele>332.75</ele>
        <time>2021-08-17T10:07:53Z</time>
      </trkpt>
      <trkpt lat="44.43518" lon="1.64131">
        <ele>332.75</ele>
        <time>2021-08-17T10:07:54Z</time>
      </trkpt>
      <trkpt lat="44.43515" lon="1.64136">
        <ele>332.75</ele>
        <time>2021-08-17T10:07:55Z</time>
      </trkpt>
      <trkpt lat="44.43512" lon="1.64141">
        <ele>332.75</ele>
        <time>2021-08-17T10:07:56Z</time>
      </trkpt>
      <trkpt lat="44.43509" lon="1.64144">
        <ele>332.75</ele>
        <time>2021-08-17T10:07:57Z</time>
      </trkpt>
      <trkpt lat="44.43506" lon="1.64148">
        <ele>332.75</ele>
        <time>2021-08-17T10:07:58Z</time>
      </trkpt>
      <trkpt lat="44.43502" lon="1.64151">
        <ele>332.75</ele>
        <time>2021-08-17T10:07:59Z</time>
      </trkpt>
      <trkpt lat="44.43499" lon="1.64153">
        <ele>332.75</ele>
        <time>2021-08-17T10:08:00Z</time>
      </trkpt>
      <trkpt lat="44.43478" lon="1.64159">
        <ele>334.2</ele>
        <time>2021-08-17T10:08:07Z</time>
      </trkpt>
      <trkpt lat="44.43461" lon="1.64166">
        <ele>335.64</ele>
        <time>2021-08-17T10:08:15Z</time>
      </trkpt>
      <trkpt lat="44.43445" lon="1.64175">
        <ele>336.6</ele>
        <time>2021-08-17T10:08:23Z</time>
      </trkpt>
      <trkpt lat="44.43421" lon="1.64182">
        <ele>337.56</ele>
        <time>2021-08-17T10:08:33Z</time>
      </trkpt>
      <trkpt lat="44.43403" lon="1.64184">
        <ele>339</ele>
        <time>2021-08-17T10:08:42Z</time>
      </trkpt>
      <trkpt lat="44.43385" lon="1.64181">
        <ele>339.96</ele>
        <time>2021-08-17T10:08:50Z</time>
      </trkpt>
      <trkpt lat="44.43368" lon="1.64177">
        <ele>340.44</ele>
        <time>2021-08-17T10:08:57Z</time>
      </trkpt>
      <trkpt lat="44.43343" lon="1.64172">
        <ele>340.92</ele>
        <time>2021-08-17T10:09:06Z</time>
      </trkpt>
      <trkpt lat="44.43309" lon="1.64164">
        <ele>342.37</ele>
        <time>2021-08-17T10:09:16Z</time>
      </trkpt>
      <trkpt lat="44.43286" lon="1.64158">
        <ele>343.33</ele>
        <time>2021-08-17T10:09:23Z</time>
      </trkpt>
      <trkpt lat="44.43263" lon="1.6415">
        <ele>344.77</ele>
        <time>2021-08-17T10:09:31Z</time>
      </trkpt>
      <trkpt lat="44.43244" lon="1.64144">
        <ele>345.25</ele>
        <time>2021-08-17T10:09:38Z</time>
      </trkpt>
      <trkpt lat="44.4322" lon="1.64142">
        <ele>346.21</ele>
        <time>2021-08-17T10:09:45Z</time>
      </trkpt>
      <trkpt lat="44.43197" lon="1.64151">
        <ele>346.21</ele>
        <time>2021-08-17T10:09:52Z</time>
      </trkpt>
      <trkpt lat="44.43165" lon="1.64179">
        <ele>346.21</ele>
        <time>2021-08-17T10:10:00Z</time>
      </trkpt>
      <trkpt lat="44.43144" lon="1.64198">
        <ele>346.21</ele>
        <time>2021-08-17T10:10:05Z</time>
      </trkpt>
      <trkpt lat="44.43109" lon="1.64223">
        <ele>346.21</ele>
        <time>2021-08-17T10:10:13Z</time>
      </trkpt>
      <trkpt lat="44.43104" lon="1.64225">
        <ele>346.21</ele>
        <time>2021-08-17T10:10:14Z</time>
      </trkpt>
      <trkpt lat="44.43098" lon="1.64227">
        <ele>346.21</ele>
        <time>2021-08-17T10:10:15Z</time>
      </trkpt>
      <trkpt lat="44.43094" lon="1.64228">
        <ele>346.21</ele>
        <time>2021-08-17T10:10:16Z</time>
      </trkpt>
      <trkpt lat="44.43087" lon="1.64228">
        <ele>346.21</ele>
        <time>2021-08-17T10:10:17Z</time>
      </trkpt>
      <trkpt lat="44.43083" lon="1.64228">
        <ele>346.21</ele>
        <time>2021-08-17T10:10:18Z</time>
      </trkpt>
      <trkpt lat="44.43053" lon="1.64225">
        <ele>346.69</ele>
        <time>2021-08-17T10:10:25Z</time>
      </trkpt>
      <trkpt lat="44.43022" lon="1.64222">
        <ele>348.13</ele>
        <time>2021-08-17T10:10:34Z</time>
      </trkpt>
      <trkpt lat="44.43" lon="1.64224">
        <ele>350.06</ele>
        <time>2021-08-17T10:10:42Z</time>
      </trkpt>
      <trkpt lat="44.42983" lon="1.64232">
        <ele>351.5</ele>
        <time>2021-08-17T10:10:51Z</time>
      </trkpt>
      <trkpt lat="44.42968" lon="1.64243">
        <ele>352.46</ele>
        <time>2021-08-17T10:10:59Z</time>
      </trkpt>
      <trkpt lat="44.42951" lon="1.64258">
        <ele>353.9</ele>
        <time>2021-08-17T10:11:08Z</time>
      </trkpt>
      <trkpt lat="44.42933" lon="1.64271">
        <ele>355.34</ele>
        <time>2021-08-17T10:11:18Z</time>
      </trkpt>
      <trkpt lat="44.42917" lon="1.64281">
        <ele>357.27</ele>
        <time>2021-08-17T10:11:27Z</time>
      </trkpt>
      <trkpt lat="44.42896" lon="1.64299">
        <ele>358.71</ele>
        <time>2021-08-17T10:11:39Z</time>
      </trkpt>
      <trkpt lat="44.42886" lon="1.64317">
        <ele>359.19</ele>
        <time>2021-08-17T10:11:47Z</time>
      </trkpt>
      <trkpt lat="44.42877" lon="1.64342">
        <ele>361.11</ele>
        <time>2021-08-17T10:11:57Z</time>
      </trkpt>
      <trkpt lat="44.4287" lon="1.64362">
        <ele>362.07</ele>
        <time>2021-08-17T10:12:04Z</time>
      </trkpt>
      <trkpt lat="44.42866" lon="1.64386">
        <ele>363.52</ele>
        <time>2021-08-17T10:12:12Z</time>
      </trkpt>
      <trkpt lat="44.42862" lon="1.64409">
        <ele>364</ele>
        <time>2021-08-17T10:12:19Z</time>
      </trkpt>
      <trkpt lat="44.42861" lon="1.64435">
        <ele>364.48</ele>
        <time>2021-08-17T10:12:26Z</time>
      </trkpt>
      <trkpt lat="44.42861" lon="1.64459">
        <ele>364.48</ele>
        <time>2021-08-17T10:12:32Z</time>
      </trkpt>
      <trkpt lat="44.42859" lon="1.64462">
        <ele>364.48</ele>
        <time>2021-08-17T10:12:33Z</time>
      </trkpt>
      <trkpt lat="44.42856" lon="1.64464">
        <ele>364.48</ele>
        <time>2021-08-17T10:12:34Z</time>
      </trkpt>
      <trkpt lat="44.42853" lon="1.64464">
        <ele>364.48</ele>
        <time>2021-08-17T10:12:35Z</time>
      </trkpt>
      <trkpt lat="44.4285" lon="1.64464">
        <ele>364.96</ele>
        <time>2021-08-17T10:12:36Z</time>
      </trkpt>
      <trkpt lat="44.42847" lon="1.64463">
        <ele>364.96</ele>
        <time>2021-08-17T10:12:37Z</time>
      </trkpt>
      <trkpt lat="44.42844" lon="1.64462">
        <ele>364.96</ele>
        <time>2021-08-17T10:12:38Z</time>
      </trkpt>
      <trkpt lat="44.42842" lon="1.6446">
        <ele>364.96</ele>
        <time>2021-08-17T10:12:39Z</time>
      </trkpt>
      <trkpt lat="44.42839" lon="1.64458">
        <ele>365.44</ele>
        <time>2021-08-17T10:12:40Z</time>
      </trkpt>
      <trkpt lat="44.42826" lon="1.64448">
        <ele>366.4</ele>
        <time>2021-08-17T10:12:47Z</time>
      </trkpt>
      <trkpt lat="44.42808" lon="1.6444">
        <ele>367.36</ele>
        <time>2021-08-17T10:12:55Z</time>
      </trkpt>
      <trkpt lat="44.42784" lon="1.64434">
        <ele>367.36</ele>
        <time>2021-08-17T10:13:02Z</time>
      </trkpt>
      <trkpt lat="44.42748" lon="1.64429">
        <ele>365.44</ele>
        <time>2021-08-17T10:13:11Z</time>
      </trkpt>
      <trkpt lat="44.42743" lon="1.64428">
        <ele>365.44</ele>
        <time>2021-08-17T10:13:12Z</time>
      </trkpt>
      <trkpt lat="44.42729" lon="1.64426">
        <ele>364.48</ele>
        <time>2021-08-17T10:13:15Z</time>
      </trkpt>
      <trkpt lat="44.42723" lon="1.64424">
        <ele>364.48</ele>
        <time>2021-08-17T10:13:16Z</time>
      </trkpt>
      <trkpt lat="44.42718" lon="1.64421">
        <ele>364.48</ele>
        <time>2021-08-17T10:13:17Z</time>
      </trkpt>
      <trkpt lat="44.42702" lon="1.64412">
        <ele>363.04</ele>
        <time>2021-08-17T10:13:20Z</time>
      </trkpt>
      <trkpt lat="44.42696" lon="1.6441">
        <ele>363.04</ele>
        <time>2021-08-17T10:13:21Z</time>
      </trkpt>
      <trkpt lat="44.42677" lon="1.64406">
        <ele>361.59</ele>
        <time>2021-08-17T10:13:24Z</time>
      </trkpt>
      <trkpt lat="44.42663" lon="1.64403">
        <ele>360.63</ele>
        <time>2021-08-17T10:13:26Z</time>
      </trkpt>
      <trkpt lat="44.42623" lon="1.64396">
        <ele>357.27</ele>
        <time>2021-08-17T10:13:31Z</time>
      </trkpt>
      <trkpt lat="44.42605" lon="1.64387">
        <ele>355.83</ele>
        <time>2021-08-17T10:13:34Z</time>
      </trkpt>
      <trkpt lat="44.42601" lon="1.64384">
        <ele>355.34</ele>
        <time>2021-08-17T10:13:35Z</time>
      </trkpt>
      <trkpt lat="44.42599" lon="1.64379">
        <ele>355.34</ele>
        <time>2021-08-17T10:13:36Z</time>
      </trkpt>
      <trkpt lat="44.42599" lon="1.64373">
        <ele>354.38</ele>
        <time>2021-08-17T10:13:37Z</time>
      </trkpt>
      <trkpt lat="44.426" lon="1.64366">
        <ele>354.38</ele>
        <time>2021-08-17T10:13:38Z</time>
      </trkpt>
      <trkpt lat="44.42601" lon="1.6436">
        <ele>353.42</ele>
        <time>2021-08-17T10:13:39Z</time>
      </trkpt>
      <trkpt lat="44.42603" lon="1.64352">
        <ele>352.46</ele>
        <time>2021-08-17T10:13:40Z</time>
      </trkpt>
      <trkpt lat="44.42605" lon="1.64345">
        <ele>352.46</ele>
        <time>2021-08-17T10:13:41Z</time>
      </trkpt>
      <trkpt lat="44.42617" lon="1.64313">
        <ele>350.06</ele>
        <time>2021-08-17T10:13:45Z</time>
      </trkpt>
      <trkpt lat="44.42625" lon="1.64289">
        <ele>348.13</ele>
        <time>2021-08-17T10:13:48Z</time>
      </trkpt>
      <trkpt lat="44.42627" lon="1.64282">
        <ele>347.17</ele>
        <time>2021-08-17T10:13:49Z</time>
      </trkpt>
      <trkpt lat="44.42628" lon="1.64276">
        <ele>347.17</ele>
        <time>2021-08-17T10:13:50Z</time>
      </trkpt>
      <trkpt lat="44.42628" lon="1.6427">
        <ele>346.21</ele>
        <time>2021-08-17T10:13:51Z</time>
      </trkpt>
      <trkpt lat="44.42625" lon="1.64265">
        <ele>345.25</ele>
        <time>2021-08-17T10:13:52Z</time>
      </trkpt>
      <trkpt lat="44.42621" lon="1.64263">
        <ele>344.77</ele>
        <time>2021-08-17T10:13:53Z</time>
      </trkpt>
      <trkpt lat="44.42616" lon="1.64262">
        <ele>344.29</ele>
        <time>2021-08-17T10:13:54Z</time>
      </trkpt>
      <trkpt lat="44.42609" lon="1.64263">
        <ele>343.33</ele>
        <time>2021-08-17T10:13:55Z</time>
      </trkpt>
      <trkpt lat="44.42602" lon="1.64263">
        <ele>341.89</ele>
        <time>2021-08-17T10:13:56Z</time>
      </trkpt>
      <trkpt lat="44.42595" lon="1.64262">
        <ele>340.92</ele>
        <time>2021-08-17T10:13:57Z</time>
      </trkpt>
      <trkpt lat="44.42588" lon="1.64263">
        <ele>340.44</ele>
        <time>2021-08-17T10:13:58Z</time>
      </trkpt>
      <trkpt lat="44.4258" lon="1.64264">
        <ele>339</ele>
        <time>2021-08-17T10:13:59Z</time>
      </trkpt>
      <trkpt lat="44.42564" lon="1.64266">
        <ele>337.08</ele>
        <time>2021-08-17T10:14:01Z</time>
      </trkpt>
      <trkpt lat="44.42557" lon="1.64269">
        <ele>337.08</ele>
        <time>2021-08-17T10:14:02Z</time>
      </trkpt>
      <trkpt lat="44.4255" lon="1.64273">
        <ele>336.12</ele>
        <time>2021-08-17T10:14:03Z</time>
      </trkpt>
      <trkpt lat="44.42537" lon="1.64281">
        <ele>336.12</ele>
        <time>2021-08-17T10:14:05Z</time>
      </trkpt>
      <trkpt lat="44.4253" lon="1.64284">
        <ele>335.64</ele>
        <time>2021-08-17T10:14:06Z</time>
      </trkpt>
      <trkpt lat="44.42504" lon="1.64292">
        <ele>332.27</ele>
        <time>2021-08-17T10:14:10Z</time>
      </trkpt>
      <trkpt lat="44.4247" lon="1.6431">
        <ele>329.39</ele>
        <time>2021-08-17T10:14:15Z</time>
      </trkpt>
      <trkpt lat="44.42444" lon="1.64318">
        <ele>326.02</ele>
        <time>2021-08-17T10:14:18Z</time>
      </trkpt>
      <trkpt lat="44.42409" lon="1.64335">
        <ele>323.62</ele>
        <time>2021-08-17T10:14:22Z</time>
      </trkpt>
      <trkpt lat="44.42401" lon="1.64336">
        <ele>323.62</ele>
        <time>2021-08-17T10:14:23Z</time>
      </trkpt>
      <trkpt lat="44.42395" lon="1.64336">
        <ele>323.62</ele>
        <time>2021-08-17T10:14:24Z</time>
      </trkpt>
      <trkpt lat="44.42389" lon="1.64336">
        <ele>322.66</ele>
        <time>2021-08-17T10:14:25Z</time>
      </trkpt>
      <trkpt lat="44.42383" lon="1.64338">
        <ele>322.66</ele>
        <time>2021-08-17T10:14:26Z</time>
      </trkpt>
      <trkpt lat="44.42377" lon="1.64341">
        <ele>321.7</ele>
        <time>2021-08-17T10:14:27Z</time>
      </trkpt>
      <trkpt lat="44.42371" lon="1.64344">
        <ele>321.7</ele>
        <time>2021-08-17T10:14:28Z</time>
      </trkpt>
      <trkpt lat="44.42354" lon="1.64356">
        <ele>320.26</ele>
        <time>2021-08-17T10:14:31Z</time>
      </trkpt>
      <trkpt lat="44.4235" lon="1.6436">
        <ele>319.78</ele>
        <time>2021-08-17T10:14:32Z</time>
      </trkpt>
      <trkpt lat="44.42345" lon="1.64365">
        <ele>319.3</ele>
        <time>2021-08-17T10:14:33Z</time>
      </trkpt>
      <trkpt lat="44.42332" lon="1.64376">
        <ele>317.37</ele>
        <time>2021-08-17T10:14:37Z</time>
      </trkpt>
      <trkpt lat="44.42328" lon="1.64364">
        <ele>316.89</ele>
        <time>2021-08-17T10:14:41Z</time>
      </trkpt>
      <trkpt lat="44.4233" lon="1.64341">
        <ele>315.45</ele>
        <time>2021-08-17T10:14:45Z</time>
      </trkpt>
      <trkpt lat="44.42327" lon="1.64323">
        <ele>314.01</ele>
        <time>2021-08-17T10:14:48Z</time>
      </trkpt>
      <trkpt lat="44.42325" lon="1.64319">
        <ele>313.53</ele>
        <time>2021-08-17T10:14:49Z</time>
      </trkpt>
      <trkpt lat="44.4232" lon="1.64316">
        <ele>312.57</ele>
        <time>2021-08-17T10:14:50Z</time>
      </trkpt>
      <trkpt lat="44.42314" lon="1.64316">
        <ele>312.09</ele>
        <time>2021-08-17T10:14:51Z</time>
      </trkpt>
      <trkpt lat="44.42309" lon="1.64318">
        <ele>311.6</ele>
        <time>2021-08-17T10:14:52Z</time>
      </trkpt>
      <trkpt lat="44.42303" lon="1.6432">
        <ele>311.6</ele>
        <time>2021-08-17T10:14:53Z</time>
      </trkpt>
      <trkpt lat="44.42297" lon="1.64322">
        <ele>310.64</ele>
        <time>2021-08-17T10:14:54Z</time>
      </trkpt>
      <trkpt lat="44.42272" lon="1.64334">
        <ele>309.68</ele>
        <time>2021-08-17T10:14:58Z</time>
      </trkpt>
      <trkpt lat="44.42265" lon="1.64335">
        <ele>309.2</ele>
        <time>2021-08-17T10:14:59Z</time>
      </trkpt>
      <trkpt lat="44.42258" lon="1.64336">
        <ele>309.2</ele>
        <time>2021-08-17T10:15:00Z</time>
      </trkpt>
      <trkpt lat="44.4222" lon="1.64338">
        <ele>305.84</ele>
        <time>2021-08-17T10:15:05Z</time>
      </trkpt>
      <trkpt lat="44.42175" lon="1.64341">
        <ele>301.99</ele>
        <time>2021-08-17T10:15:10Z</time>
      </trkpt>
      <trkpt lat="44.42166" lon="1.64339">
        <ele>301.51</ele>
        <time>2021-08-17T10:15:11Z</time>
      </trkpt>
      <trkpt lat="44.42156" lon="1.64337">
        <ele>301.51</ele>
        <time>2021-08-17T10:15:12Z</time>
      </trkpt>
      <trkpt lat="44.42092" lon="1.64333">
        <ele>298.63</ele>
        <time>2021-08-17T10:15:19Z</time>
      </trkpt>
      <trkpt lat="44.4203" lon="1.64328">
        <ele>295.26</ele>
        <time>2021-08-17T10:15:26Z</time>
      </trkpt>
      <trkpt lat="44.41967" lon="1.6432">
        <ele>293.34</ele>
        <time>2021-08-17T10:15:33Z</time>
      </trkpt>
      <trkpt lat="44.41961" lon="1.6432">
        <ele>292.86</ele>
        <time>2021-08-17T10:15:34Z</time>
      </trkpt>
      <trkpt lat="44.41952" lon="1.64322">
        <ele>292.38</ele>
        <time>2021-08-17T10:15:35Z</time>
      </trkpt>
      <trkpt lat="44.41887" lon="1.64343">
        <ele>289.01</ele>
        <time>2021-08-17T10:15:43Z</time>
      </trkpt>
      <trkpt lat="44.41871" lon="1.64344">
        <ele>288.05</ele>
        <time>2021-08-17T10:15:45Z</time>
      </trkpt>
      <trkpt lat="44.41863" lon="1.64344">
        <ele>287.09</ele>
        <time>2021-08-17T10:15:46Z</time>
      </trkpt>
      <trkpt lat="44.41841" lon="1.64337">
        <ele>285.65</ele>
        <time>2021-08-17T10:15:49Z</time>
      </trkpt>
      <trkpt lat="44.41812" lon="1.64315">
        <ele>283.25</ele>
        <time>2021-08-17T10:15:53Z</time>
      </trkpt>
      <trkpt lat="44.41804" lon="1.64311">
        <ele>282.77</ele>
        <time>2021-08-17T10:15:54Z</time>
      </trkpt>
      <trkpt lat="44.41796" lon="1.64308">
        <ele>282.77</ele>
        <time>2021-08-17T10:15:55Z</time>
      </trkpt>
      <trkpt lat="44.41751" lon="1.64296">
        <ele>281.32</ele>
        <time>2021-08-17T10:16:01Z</time>
      </trkpt>
      <trkpt lat="44.41744" lon="1.64297">
        <ele>281.8</ele>
        <time>2021-08-17T10:16:02Z</time>
      </trkpt>
      <trkpt lat="44.41737" lon="1.64298">
        <ele>281.8</ele>
        <time>2021-08-17T10:16:03Z</time>
      </trkpt>
      <trkpt lat="44.41724" lon="1.64301">
        <ele>281.32</ele>
        <time>2021-08-17T10:16:05Z</time>
      </trkpt>
      <trkpt lat="44.41717" lon="1.64301">
        <ele>281.32</ele>
        <time>2021-08-17T10:16:06Z</time>
      </trkpt>
      <trkpt lat="44.41706" lon="1.64299">
        <ele>281.32</ele>
        <time>2021-08-17T10:16:08Z</time>
      </trkpt>
      <trkpt lat="44.417" lon="1.64298">
        <ele>281.32</ele>
        <time>2021-08-17T10:16:09Z</time>
      </trkpt>
      <trkpt lat="44.41677" lon="1.64296">
        <ele>282.77</ele>
        <time>2021-08-17T10:16:15Z</time>
      </trkpt>
      <trkpt lat="44.41674" lon="1.64296">
        <ele>282.77</ele>
        <time>2021-08-17T10:16:16Z</time>
      </trkpt>
      <trkpt lat="44.41664" lon="1.64297">
        <ele>283.25</ele>
        <time>2021-08-17T10:16:21Z</time>
      </trkpt>
      <trkpt lat="44.41648" lon="1.64298">
        <ele>284.69</ele>
        <time>2021-08-17T10:16:29Z</time>
      </trkpt>
      <trkpt lat="44.41628" lon="1.643">
        <ele>286.13</ele>
        <time>2021-08-17T10:16:38Z</time>
      </trkpt>
      <trkpt lat="44.41601" lon="1.64305">
        <ele>286.61</ele>
        <time>2021-08-17T10:16:49Z</time>
      </trkpt>
      <trkpt lat="44.41582" lon="1.64309">
        <ele>287.57</ele>
        <time>2021-08-17T10:16:57Z</time>
      </trkpt>
      <trkpt lat="44.41561" lon="1.64317">
        <ele>288.53</ele>
        <time>2021-08-17T10:17:06Z</time>
      </trkpt>
      <trkpt lat="44.41539" lon="1.64327">
        <ele>289.49</ele>
        <time>2021-08-17T10:17:14Z</time>
      </trkpt>
      <trkpt lat="44.41522" lon="1.64335">
        <ele>290.94</ele>
        <time>2021-08-17T10:17:22Z</time>
      </trkpt>
      <trkpt lat="44.41504" lon="1.64342">
        <ele>291.42</ele>
        <time>2021-08-17T10:17:29Z</time>
      </trkpt>
      <trkpt lat="44.41475" lon="1.64347">
        <ele>291.42</ele>
        <time>2021-08-17T10:17:38Z</time>
      </trkpt>
      <trkpt lat="44.41456" lon="1.64352">
        <ele>292.38</ele>
        <time>2021-08-17T10:17:44Z</time>
      </trkpt>
      <trkpt lat="44.41428" lon="1.64368">
        <ele>292.86</ele>
        <time>2021-08-17T10:17:52Z</time>
      </trkpt>
      <trkpt lat="44.41407" lon="1.64378">
        <ele>292.86</ele>
        <time>2021-08-17T10:17:57Z</time>
      </trkpt>
      <trkpt lat="44.4139" lon="1.64383">
        <ele>292.86</ele>
        <time>2021-08-17T10:18:01Z</time>
      </trkpt>
      <trkpt lat="44.41371" lon="1.64385">
        <ele>291.42</ele>
        <time>2021-08-17T10:18:05Z</time>
      </trkpt>
      <trkpt lat="44.41336" lon="1.64378">
        <ele>289.01</ele>
        <time>2021-08-17T10:18:11Z</time>
      </trkpt>
      <trkpt lat="44.41322" lon="1.64374">
        <ele>288.53</ele>
        <time>2021-08-17T10:18:13Z</time>
      </trkpt>
      <trkpt lat="44.41315" lon="1.64373">
        <ele>287.57</ele>
        <time>2021-08-17T10:18:14Z</time>
      </trkpt>
      <trkpt lat="44.41275" lon="1.64372">
        <ele>284.69</ele>
        <time>2021-08-17T10:18:19Z</time>
      </trkpt>
      <trkpt lat="44.4124" lon="1.64371">
        <ele>281.32</ele>
        <time>2021-08-17T10:18:23Z</time>
      </trkpt>
      <trkpt lat="44.41202" lon="1.64375">
        <ele>277.96</ele>
        <time>2021-08-17T10:18:27Z</time>
      </trkpt>
      <trkpt lat="44.41184" lon="1.64379">
        <ele>277</ele>
        <time>2021-08-17T10:18:29Z</time>
      </trkpt>
      <trkpt lat="44.41175" lon="1.64379">
        <ele>277.96</ele>
        <time>2021-08-17T10:18:30Z</time>
      </trkpt>
      <trkpt lat="44.41167" lon="1.64377">
        <ele>277.96</ele>
        <time>2021-08-17T10:18:31Z</time>
      </trkpt>
      <trkpt lat="44.41144" lon="1.64371">
        <ele>280.36</ele>
        <time>2021-08-17T10:18:35Z</time>
      </trkpt>
      <trkpt lat="44.41139" lon="1.64369">
        <ele>280.84</ele>
        <time>2021-08-17T10:18:37Z</time>
      </trkpt>
      <trkpt lat="44.41127" lon="1.64368">
        <ele>282.28</ele>
        <time>2021-08-17T10:18:43Z</time>
      </trkpt>
      <trkpt lat="44.41125" lon="1.64367">
        <ele>282.28</ele>
        <time>2021-08-17T10:18:44Z</time>
      </trkpt>
      <trkpt lat="44.41123" lon="1.64367">
        <ele>282.28</ele>
        <time>2021-08-17T10:18:45Z</time>
      </trkpt>
      <trkpt lat="44.41099" lon="1.64365">
        <ele>284.21</ele>
        <time>2021-08-17T10:18:56Z</time>
      </trkpt>
      <trkpt lat="44.4108" lon="1.64363">
        <ele>285.17</ele>
        <time>2021-08-17T10:19:04Z</time>
      </trkpt>
      <trkpt lat="44.41049" lon="1.64358">
        <ele>286.13</ele>
        <time>2021-08-17T10:19:14Z</time>
      </trkpt>
      <trkpt lat="44.41031" lon="1.64356">
        <ele>284.21</ele>
        <time>2021-08-17T10:19:18Z</time>
      </trkpt>
      <trkpt lat="44.4098" lon="1.64346">
        <ele>283.73</ele>
        <time>2021-08-17T10:19:28Z</time>
      </trkpt>
      <trkpt lat="44.4097" lon="1.64343">
        <ele>283.25</ele>
        <time>2021-08-17T10:19:30Z</time>
      </trkpt>
      <trkpt lat="44.40949" lon="1.64339">
        <ele>282.77</ele>
        <time>2021-08-17T10:19:34Z</time>
      </trkpt>
      <trkpt lat="44.40921" lon="1.6434">
        <ele>281.8</ele>
        <time>2021-08-17T10:19:39Z</time>
      </trkpt>
      <trkpt lat="44.40869" lon="1.64349">
        <ele>279.4</ele>
        <time>2021-08-17T10:19:47Z</time>
      </trkpt>
      <trkpt lat="44.40862" lon="1.64349">
        <ele>279.4</ele>
        <time>2021-08-17T10:19:48Z</time>
      </trkpt>
      <trkpt lat="44.40856" lon="1.64347">
        <ele>278.92</ele>
        <time>2021-08-17T10:19:49Z</time>
      </trkpt>
      <trkpt lat="44.4085" lon="1.64344">
        <ele>278.92</ele>
        <time>2021-08-17T10:19:50Z</time>
      </trkpt>
      <trkpt lat="44.40844" lon="1.64341">
        <ele>278.92</ele>
        <time>2021-08-17T10:19:51Z</time>
      </trkpt>
      <trkpt lat="44.40839" lon="1.64337">
        <ele>278.92</ele>
        <time>2021-08-17T10:19:52Z</time>
      </trkpt>
      <trkpt lat="44.40818" lon="1.64322">
        <ele>281.8</ele>
        <time>2021-08-17T10:19:58Z</time>
      </trkpt>
      <trkpt lat="44.40804" lon="1.64315">
        <ele>283.25</ele>
        <time>2021-08-17T10:20:05Z</time>
      </trkpt>
      <trkpt lat="44.40786" lon="1.64301">
        <ele>285.17</ele>
        <time>2021-08-17T10:20:15Z</time>
      </trkpt>
      <trkpt lat="44.40768" lon="1.64286">
        <ele>286.61</ele>
        <time>2021-08-17T10:20:25Z</time>
      </trkpt>
      <trkpt lat="44.40745" lon="1.64269">
        <ele>288.05</ele>
        <time>2021-08-17T10:20:37Z</time>
      </trkpt>
      <trkpt lat="44.4073" lon="1.64255">
        <ele>288.53</ele>
        <time>2021-08-17T10:20:44Z</time>
      </trkpt>
      <trkpt lat="44.40712" lon="1.64231">
        <ele>288.53</ele>
        <time>2021-08-17T10:20:51Z</time>
      </trkpt>
      <trkpt lat="44.40697" lon="1.64211">
        <ele>287.09</ele>
        <time>2021-08-17T10:20:56Z</time>
      </trkpt>
      <trkpt lat="44.40689" lon="1.64204">
        <ele>286.61</ele>
        <time>2021-08-17T10:20:58Z</time>
      </trkpt>
      <trkpt lat="44.40675" lon="1.64191">
        <ele>285.65</ele>
        <time>2021-08-17T10:21:01Z</time>
      </trkpt>
      <trkpt lat="44.40671" lon="1.64186">
        <ele>285.65</ele>
        <time>2021-08-17T10:21:02Z</time>
      </trkpt>
      <trkpt lat="44.40639" lon="1.64151">
        <ele>281.8</ele>
        <time>2021-08-17T10:21:08Z</time>
      </trkpt>
      <trkpt lat="44.40598" lon="1.6412">
        <ele>278.92</ele>
        <time>2021-08-17T10:21:14Z</time>
      </trkpt>
      <trkpt lat="44.40561" lon="1.64107">
        <ele>276.52</ele>
        <time>2021-08-17T10:21:19Z</time>
      </trkpt>
      <trkpt lat="44.40555" lon="1.64106">
        <ele>276.52</ele>
        <time>2021-08-17T10:21:20Z</time>
      </trkpt>
      <trkpt lat="44.40549" lon="1.64107">
        <ele>276.04</ele>
        <time>2021-08-17T10:21:21Z</time>
      </trkpt>
      <trkpt lat="44.40542" lon="1.64108">
        <ele>276.52</ele>
        <time>2021-08-17T10:21:22Z</time>
      </trkpt>
      <trkpt lat="44.40538" lon="1.64111">
        <ele>276.52</ele>
        <time>2021-08-17T10:21:23Z</time>
      </trkpt>
      <trkpt lat="44.40533" lon="1.64114">
        <ele>276.52</ele>
        <time>2021-08-17T10:21:24Z</time>
      </trkpt>
      <trkpt lat="44.40529" lon="1.64118">
        <ele>276.52</ele>
        <time>2021-08-17T10:21:25Z</time>
      </trkpt>
      <trkpt lat="44.40524" lon="1.64123">
        <ele>276.52</ele>
        <time>2021-08-17T10:21:26Z</time>
      </trkpt>
      <trkpt lat="44.4052" lon="1.64128">
        <ele>276.52</ele>
        <time>2021-08-17T10:21:27Z</time>
      </trkpt>
      <trkpt lat="44.40506" lon="1.64143">
        <ele>276.04</ele>
        <time>2021-08-17T10:21:30Z</time>
      </trkpt>
      <trkpt lat="44.40502" lon="1.64149">
        <ele>276.04</ele>
        <time>2021-08-17T10:21:31Z</time>
      </trkpt>
      <trkpt lat="44.40484" lon="1.64184">
        <ele>275.56</ele>
        <time>2021-08-17T10:21:36Z</time>
      </trkpt>
      <trkpt lat="44.40482" lon="1.64194">
        <ele>275.56</ele>
        <time>2021-08-17T10:21:37Z</time>
      </trkpt>
      <trkpt lat="44.40476" lon="1.64229">
        <ele>277</ele>
        <time>2021-08-17T10:21:42Z</time>
      </trkpt>
      <trkpt lat="44.40475" lon="1.64235">
        <ele>277</ele>
        <time>2021-08-17T10:21:43Z</time>
      </trkpt>
      <trkpt lat="44.40472" lon="1.64242">
        <ele>277</ele>
        <time>2021-08-17T10:21:44Z</time>
      </trkpt>
      <trkpt lat="44.40469" lon="1.64248">
        <ele>277</ele>
        <time>2021-08-17T10:21:45Z</time>
      </trkpt>
      <trkpt lat="44.40466" lon="1.64255">
        <ele>277</ele>
        <time>2021-08-17T10:21:46Z</time>
      </trkpt>
      <trkpt lat="44.40463" lon="1.64261">
        <ele>277</ele>
        <time>2021-08-17T10:21:47Z</time>
      </trkpt>
      <trkpt lat="44.40443" lon="1.64293">
        <ele>277.96</ele>
        <time>2021-08-17T10:21:53Z</time>
      </trkpt>
      <trkpt lat="44.40434" lon="1.64303">
        <ele>278.92</ele>
        <time>2021-08-17T10:21:56Z</time>
      </trkpt>
      <trkpt lat="44.40431" lon="1.64303">
        <ele>278.92</ele>
        <time>2021-08-17T10:21:57Z</time>
      </trkpt>
      <trkpt lat="44.40428" lon="1.64302">
        <ele>278.92</ele>
        <time>2021-08-17T10:21:58Z</time>
      </trkpt>
      <trkpt lat="44.40425" lon="1.64299">
        <ele>278.92</ele>
        <time>2021-08-17T10:21:59Z</time>
      </trkpt>
      <trkpt lat="44.40421" lon="1.64296">
        <ele>278.92</ele>
        <time>2021-08-17T10:22:00Z</time>
      </trkpt>
      <trkpt lat="44.40419" lon="1.64293">
        <ele>278.92</ele>
        <time>2021-08-17T10:22:01Z</time>
      </trkpt>
      <trkpt lat="44.40417" lon="1.6429">
        <ele>278.92</ele>
        <time>2021-08-17T10:22:02Z</time>
      </trkpt>
      <trkpt lat="44.40415" lon="1.64289">
        <ele>278.92</ele>
        <time>2021-08-17T10:22:03Z</time>
      </trkpt>
      <trkpt lat="44.40417" lon="1.64293">
        <ele>278.92</ele>
        <time>2021-08-17T10:22:07Z</time>
      </trkpt>
      <trkpt lat="44.40419" lon="1.64293">
        <ele>278.92</ele>
        <time>2021-08-17T10:22:08Z</time>
      </trkpt>
      <trkpt lat="44.40421" lon="1.64294">
        <ele>278.92</ele>
        <time>2021-08-17T10:22:09Z</time>
      </trkpt>
      <trkpt lat="44.40423" lon="1.64296">
        <ele>278.92</ele>
        <time>2021-08-17T10:22:10Z</time>
      </trkpt>
      <trkpt lat="44.40425" lon="1.64298">
        <ele>278.92</ele>
        <time>2021-08-17T10:22:11Z</time>
      </trkpt>
      <trkpt lat="44.40437" lon="1.64318">
        <ele>279.4</ele>
        <time>2021-08-17T10:22:17Z</time>
      </trkpt>
      <trkpt lat="44.40442" lon="1.64348">
        <ele>280.36</ele>
        <time>2021-08-17T10:22:25Z</time>
      </trkpt>
      <trkpt lat="44.40435" lon="1.64372">
        <ele>281.8</ele>
        <time>2021-08-17T10:22:33Z</time>
      </trkpt>
      <trkpt lat="44.40421" lon="1.6439">
        <ele>282.28</ele>
        <time>2021-08-17T10:22:41Z</time>
      </trkpt>
      <trkpt lat="44.40401" lon="1.64399">
        <ele>282.77</ele>
        <time>2021-08-17T10:22:48Z</time>
      </trkpt>
      <trkpt lat="44.40386" lon="1.64421">
        <ele>282.77</ele>
        <time>2021-08-17T10:22:54Z</time>
      </trkpt>
      <trkpt lat="44.40376" lon="1.64448">
        <ele>281.32</ele>
        <time>2021-08-17T10:23:00Z</time>
      </trkpt>
      <trkpt lat="44.40372" lon="1.6445">
        <ele>280.84</ele>
        <time>2021-08-17T10:23:01Z</time>
      </trkpt>
      <trkpt lat="44.40368" lon="1.64449">
        <ele>279.88</ele>
        <time>2021-08-17T10:23:02Z</time>
      </trkpt>
      <trkpt lat="44.40363" lon="1.64449">
        <ele>279.4</ele>
        <time>2021-08-17T10:23:03Z</time>
      </trkpt>
      <trkpt lat="44.40357" lon="1.64448">
        <ele>277.96</ele>
        <time>2021-08-17T10:23:04Z</time>
      </trkpt>
      <trkpt lat="44.4035" lon="1.64449">
        <ele>277</ele>
        <time>2021-08-17T10:23:05Z</time>
      </trkpt>
      <trkpt lat="44.40342" lon="1.64451">
        <ele>275.56</ele>
        <time>2021-08-17T10:23:06Z</time>
      </trkpt>
      <trkpt lat="44.40333" lon="1.64454">
        <ele>274.11</ele>
        <time>2021-08-17T10:23:07Z</time>
      </trkpt>
      <trkpt lat="44.40314" lon="1.64458">
        <ele>272.19</ele>
        <time>2021-08-17T10:23:09Z</time>
      </trkpt>
      <trkpt lat="44.40305" lon="1.64457">
        <ele>271.23</ele>
        <time>2021-08-17T10:23:10Z</time>
      </trkpt>
      <trkpt lat="44.40295" lon="1.64455">
        <ele>270.27</ele>
        <time>2021-08-17T10:23:11Z</time>
      </trkpt>
      <trkpt lat="44.40286" lon="1.64452">
        <ele>270.27</ele>
        <time>2021-08-17T10:23:12Z</time>
      </trkpt>
      <trkpt lat="44.40277" lon="1.64449">
        <ele>270.27</ele>
        <time>2021-08-17T10:23:13Z</time>
      </trkpt>
      <trkpt lat="44.40251" lon="1.64435">
        <ele>273.15</ele>
        <time>2021-08-17T10:23:17Z</time>
      </trkpt>
      <trkpt lat="44.40247" lon="1.64434">
        <ele>273.63</ele>
        <time>2021-08-17T10:23:18Z</time>
      </trkpt>
      <trkpt lat="44.40244" lon="1.64434">
        <ele>274.11</ele>
        <time>2021-08-17T10:23:19Z</time>
      </trkpt>
      <trkpt lat="44.40242" lon="1.64434">
        <ele>274.59</ele>
        <time>2021-08-17T10:23:20Z</time>
      </trkpt>
      <trkpt lat="44.4024" lon="1.64435">
        <ele>275.07</ele>
        <time>2021-08-17T10:23:21Z</time>
      </trkpt>
      <trkpt lat="44.40239" lon="1.64436">
        <ele>275.56</ele>
        <time>2021-08-17T10:23:22Z</time>
      </trkpt>
      <trkpt lat="44.40238" lon="1.64436">
        <ele>275.56</ele>
        <time>2021-08-17T10:23:23Z</time>
      </trkpt>
      <trkpt lat="44.40236" lon="1.64437">
        <ele>275.56</ele>
        <time>2021-08-17T10:23:24Z</time>
      </trkpt>
      <trkpt lat="44.40235" lon="1.64437">
        <ele>276.04</ele>
        <time>2021-08-17T10:23:25Z</time>
      </trkpt>
      <trkpt lat="44.40234" lon="1.64438">
        <ele>276.04</ele>
        <time>2021-08-17T10:23:26Z</time>
      </trkpt>
      <trkpt lat="44.40233" lon="1.64438">
        <ele>276.04</ele>
        <time>2021-08-17T10:23:27Z</time>
      </trkpt>
      <trkpt lat="44.40231" lon="1.64438">
        <ele>276.04</ele>
        <time>2021-08-17T10:23:28Z</time>
      </trkpt>
      <trkpt lat="44.4023" lon="1.64438">
        <ele>276.04</ele>
        <time>2021-08-17T10:23:29Z</time>
      </trkpt>
      <trkpt lat="44.4022" lon="1.64437">
        <ele>277.96</ele>
        <time>2021-08-17T10:23:37Z</time>
      </trkpt>
      <trkpt lat="44.40218" lon="1.64434">
        <ele>278.44</ele>
        <time>2021-08-17T10:23:39Z</time>
      </trkpt>
      <trkpt lat="44.40217" lon="1.64433">
        <ele>278.92</ele>
        <time>2021-08-17T10:23:40Z</time>
      </trkpt>
      <trkpt lat="44.40217" lon="1.64431">
        <ele>278.92</ele>
        <time>2021-08-17T10:23:41Z</time>
      </trkpt>
      <trkpt lat="44.40217" lon="1.64429">
        <ele>278.92</ele>
        <time>2021-08-17T10:23:42Z</time>
      </trkpt>
      <trkpt lat="44.40217" lon="1.64427">
        <ele>279.4</ele>
        <time>2021-08-17T10:23:43Z</time>
      </trkpt>
      <trkpt lat="44.40217" lon="1.64425">
        <ele>279.4</ele>
        <time>2021-08-17T10:23:44Z</time>
      </trkpt>
      <trkpt lat="44.40217" lon="1.64409">
        <ele>280.84</ele>
        <time>2021-08-17T10:23:51Z</time>
      </trkpt>
      <trkpt lat="44.40212" lon="1.64389">
        <ele>281.8</ele>
        <time>2021-08-17T10:24:00Z</time>
      </trkpt>
      <trkpt lat="44.40202" lon="1.64363">
        <ele>282.28</ele>
        <time>2021-08-17T10:24:09Z</time>
      </trkpt>
      <trkpt lat="44.40197" lon="1.64358">
        <ele>282.28</ele>
        <time>2021-08-17T10:24:12Z</time>
      </trkpt>
      <trkpt lat="44.40188" lon="1.64358">
        <ele>282.28</ele>
        <time>2021-08-17T10:24:16Z</time>
      </trkpt>
      <trkpt lat="44.40185" lon="1.64361">
        <ele>282.28</ele>
        <time>2021-08-17T10:24:17Z</time>
      </trkpt>
      <trkpt lat="44.40163" lon="1.64389">
        <ele>282.77</ele>
        <time>2021-08-17T10:24:26Z</time>
      </trkpt>
      <trkpt lat="44.4015" lon="1.64411">
        <ele>283.25</ele>
        <time>2021-08-17T10:24:32Z</time>
      </trkpt>
      <trkpt lat="44.40143" lon="1.64432">
        <ele>283.25</ele>
        <time>2021-08-17T10:24:38Z</time>
      </trkpt>
      <trkpt lat="44.40138" lon="1.64444">
        <ele>283.25</ele>
        <time>2021-08-17T10:24:42Z</time>
      </trkpt>
      <trkpt lat="44.40138" lon="1.64447">
        <ele>283.25</ele>
        <time>2021-08-17T10:24:43Z</time>
      </trkpt>
      <trkpt lat="44.40138" lon="1.6445">
        <ele>283.25</ele>
        <time>2021-08-17T10:24:44Z</time>
      </trkpt>
      <trkpt lat="44.40137" lon="1.64452">
        <ele>283.25</ele>
        <time>2021-08-17T10:24:45Z</time>
      </trkpt>
      <trkpt lat="44.40136" lon="1.64454">
        <ele>283.25</ele>
        <time>2021-08-17T10:24:46Z</time>
      </trkpt>
      <trkpt lat="44.40134" lon="1.64456">
        <ele>283.25</ele>
        <time>2021-08-17T10:24:47Z</time>
      </trkpt>
      <trkpt lat="44.40133" lon="1.64459">
        <ele>283.25</ele>
        <time>2021-08-17T10:24:48Z</time>
      </trkpt>
      <trkpt lat="44.40131" lon="1.64463">
        <ele>283.25</ele>
        <time>2021-08-17T10:24:49Z</time>
      </trkpt>
      <trkpt lat="44.40131" lon="1.64466">
        <ele>283.25</ele>
        <time>2021-08-17T10:24:50Z</time>
      </trkpt>
      <trkpt lat="44.4012" lon="1.64494">
        <ele>283.25</ele>
        <time>2021-08-17T10:24:58Z</time>
      </trkpt>
      <trkpt lat="44.40106" lon="1.64527">
        <ele>283.73</ele>
        <time>2021-08-17T10:25:07Z</time>
      </trkpt>
      <trkpt lat="44.40089" lon="1.64551">
        <ele>284.21</ele>
        <time>2021-08-17T10:25:15Z</time>
      </trkpt>
      <trkpt lat="44.40076" lon="1.64574">
        <ele>284.21</ele>
        <time>2021-08-17T10:25:23Z</time>
      </trkpt>
      <trkpt lat="44.40072" lon="1.64575">
        <ele>284.69</ele>
        <time>2021-08-17T10:25:29Z</time>
      </trkpt>
      <trkpt lat="44.4007" lon="1.64575">
        <ele>284.69</ele>
        <time>2021-08-17T10:25:42Z</time>
      </trkpt>
      <trkpt lat="44.40069" lon="1.64577">
        <ele>284.69</ele>
        <time>2021-08-17T10:25:49Z</time>
      </trkpt>
      <trkpt lat="44.40069" lon="1.64577">
        <ele>284.69</ele>
        <time>2021-08-17T10:26:05Z</time>
      </trkpt>
      <trkpt lat="44.40068" lon="1.64578">
        <ele>284.69</ele>
        <time>2021-08-17T10:26:20Z</time>
      </trkpt>
      <trkpt lat="44.40068" lon="1.64578">
        <ele>284.69</ele>
        <time>2021-08-17T10:26:32Z</time>
      </trkpt>
      <trkpt lat="44.40067" lon="1.64581">
        <ele>284.21</ele>
        <time>2021-08-17T10:26:48Z</time>
      </trkpt>
      <trkpt lat="44.40067" lon="1.6458">
        <ele>284.21</ele>
        <time>2021-08-17T10:26:57Z</time>
      </trkpt>
      <trkpt lat="44.40068" lon="1.6458">
        <ele>284.21</ele>
        <time>2021-08-17T10:26:58Z</time>
      </trkpt>
      <trkpt lat="44.40074" lon="1.64581">
        <ele>284.21</ele>
        <time>2021-08-17T10:27:07Z</time>
      </trkpt>
      <trkpt lat="44.40078" lon="1.64585">
        <ele>284.69</ele>
        <time>2021-08-17T10:27:16Z</time>
      </trkpt>
      <trkpt lat="44.40083" lon="1.64594">
        <ele>285.17</ele>
        <time>2021-08-17T10:27:24Z</time>
      </trkpt>
      <trkpt lat="44.4009" lon="1.64604">
        <ele>285.65</ele>
        <time>2021-08-17T10:27:32Z</time>
      </trkpt>
      <trkpt lat="44.40094" lon="1.64608">
        <ele>285.65</ele>
        <time>2021-08-17T10:27:40Z</time>
      </trkpt>
      <trkpt lat="44.40094" lon="1.64608">
        <ele>286.13</ele>
        <time>2021-08-17T10:27:54Z</time>
      </trkpt>
      <trkpt lat="44.40097" lon="1.64608">
        <ele>285.65</ele>
        <time>2021-08-17T10:28:09Z</time>
      </trkpt>
      <trkpt lat="44.40095" lon="1.6461">
        <ele>285.65</ele>
        <time>2021-08-17T10:28:26Z</time>
      </trkpt>
      <trkpt lat="44.40094" lon="1.6461">
        <ele>285.65</ele>
        <time>2021-08-17T10:28:44Z</time>
      </trkpt>
      <trkpt lat="44.40094" lon="1.64607">
        <ele>285.65</ele>
        <time>2021-08-17T10:29:01Z</time>
      </trkpt>
      <trkpt lat="44.40094" lon="1.64607">
        <ele>285.65</ele>
        <time>2021-08-17T10:29:25Z</time>
      </trkpt>
      <trkpt lat="44.40094" lon="1.64608">
        <ele>285.65</ele>
        <time>2021-08-17T10:29:35Z</time>
      </trkpt>
      <trkpt lat="44.40096" lon="1.64609">
        <ele>285.17</ele>
        <time>2021-08-17T10:29:57Z</time>
      </trkpt>
      <trkpt lat="44.40096" lon="1.64611">
        <ele>285.17</ele>
        <time>2021-08-17T10:30:18Z</time>
      </trkpt>
      <trkpt lat="44.40094" lon="1.64613">
        <ele>285.17</ele>
        <time>2021-08-17T10:30:42Z</time>
      </trkpt>
      <trkpt lat="44.40094" lon="1.64612">
        <ele>285.17</ele>
        <time>2021-08-17T10:31:10Z</time>
      </trkpt>
      <trkpt lat="44.40092" lon="1.6461">
        <ele>284.69</ele>
        <time>2021-08-17T10:31:39Z</time>
      </trkpt>
      <trkpt lat="44.40093" lon="1.64607">
        <ele>284.69</ele>
        <time>2021-08-17T10:32:08Z</time>
      </trkpt>
      <trkpt lat="44.40095" lon="1.64608">
        <ele>284.69</ele>
        <time>2021-08-17T10:32:29Z</time>
      </trkpt>
      <trkpt lat="44.40095" lon="1.64608">
        <ele>284.69</ele>
        <time>2021-08-17T10:32:55Z</time>
      </trkpt>
      <trkpt lat="44.40096" lon="1.64608">
        <ele>284.21</ele>
        <time>2021-08-17T10:33:23Z</time>
      </trkpt>
      <trkpt lat="44.40096" lon="1.64608">
        <ele>284.21</ele>
        <time>2021-08-17T10:33:51Z</time>
      </trkpt>
      <trkpt lat="44.40092" lon="1.64612">
        <ele>284.21</ele>
        <time>2021-08-17T10:34:14Z</time>
      </trkpt>
      <trkpt lat="44.40092" lon="1.64611">
        <ele>284.21</ele>
        <time>2021-08-17T10:34:28Z</time>
      </trkpt>
      <trkpt lat="44.40092" lon="1.64611">
        <ele>284.21</ele>
        <time>2021-08-17T10:34:34Z</time>
      </trkpt>
      <trkpt lat="44.40094" lon="1.64608">
        <ele>283.73</ele>
        <time>2021-08-17T10:34:59Z</time>
      </trkpt>
      <trkpt lat="44.40093" lon="1.64609">
        <ele>283.73</ele>
        <time>2021-08-17T10:35:24Z</time>
      </trkpt>
      <trkpt lat="44.40093" lon="1.64609">
        <ele>283.73</ele>
        <time>2021-08-17T10:35:49Z</time>
      </trkpt>
      <trkpt lat="44.40092" lon="1.6461">
        <ele>283.73</ele>
        <time>2021-08-17T10:36:07Z</time>
      </trkpt>
      <trkpt lat="44.40093" lon="1.64611">
        <ele>283.25</ele>
        <time>2021-08-17T10:36:35Z</time>
      </trkpt>
      <trkpt lat="44.40094" lon="1.64607">
        <ele>283.25</ele>
        <time>2021-08-17T10:37:04Z</time>
      </trkpt>
      <trkpt lat="44.40091" lon="1.64613">
        <ele>283.25</ele>
        <time>2021-08-17T10:37:32Z</time>
      </trkpt>
      <trkpt lat="44.40092" lon="1.64612">
        <ele>282.77</ele>
        <time>2021-08-17T10:37:59Z</time>
      </trkpt>
      <trkpt lat="44.40094" lon="1.64611">
        <ele>282.77</ele>
        <time>2021-08-17T10:38:21Z</time>
      </trkpt>
      <trkpt lat="44.40095" lon="1.64605">
        <ele>282.77</ele>
        <time>2021-08-17T10:38:45Z</time>
      </trkpt>
      <trkpt lat="44.40094" lon="1.64607">
        <ele>282.77</ele>
        <time>2021-08-17T10:39:12Z</time>
      </trkpt>
      <trkpt lat="44.40093" lon="1.64609">
        <ele>282.77</ele>
        <time>2021-08-17T10:39:25Z</time>
      </trkpt>
      <trkpt lat="44.40092" lon="1.64609">
        <ele>282.77</ele>
        <time>2021-08-17T10:39:28Z</time>
      </trkpt>
      <trkpt lat="44.40093" lon="1.6461">
        <ele>282.28</ele>
        <time>2021-08-17T10:39:35Z</time>
      </trkpt>
      <trkpt lat="44.40092" lon="1.64611">
        <ele>282.28</ele>
        <time>2021-08-17T10:40:02Z</time>
      </trkpt>
      <trkpt lat="44.40091" lon="1.64609">
        <ele>282.28</ele>
        <time>2021-08-17T10:40:19Z</time>
      </trkpt>
      <trkpt lat="44.40092" lon="1.64611">
        <ele>282.28</ele>
        <time>2021-08-17T10:40:41Z</time>
      </trkpt>
      <trkpt lat="44.40093" lon="1.6461">
        <ele>282.28</ele>
        <time>2021-08-17T10:40:58Z</time>
      </trkpt>
      <trkpt lat="44.40092" lon="1.64612">
        <ele>282.28</ele>
        <time>2021-08-17T10:41:20Z</time>
      </trkpt>
      <trkpt lat="44.40093" lon="1.64611">
        <ele>282.28</ele>
        <time>2021-08-17T10:41:32Z</time>
      </trkpt>
      <trkpt lat="44.40092" lon="1.64609">
        <ele>282.28</ele>
        <time>2021-08-17T10:41:44Z</time>
      </trkpt>
      <trkpt lat="44.40092" lon="1.6461">
        <ele>282.28</ele>
        <time>2021-08-17T10:41:57Z</time>
      </trkpt>
      <trkpt lat="44.40094" lon="1.64607">
        <ele>281.8</ele>
        <time>2021-08-17T10:42:12Z</time>
      </trkpt>
      <trkpt lat="44.40097" lon="1.64605">
        <ele>281.8</ele>
        <time>2021-08-17T10:42:22Z</time>
      </trkpt>
      <trkpt lat="44.40097" lon="1.64604">
        <ele>281.8</ele>
        <time>2021-08-17T10:42:39Z</time>
      </trkpt>
      <trkpt lat="44.40094" lon="1.64607">
        <ele>281.8</ele>
        <time>2021-08-17T10:42:55Z</time>
      </trkpt>
      <trkpt lat="44.40091" lon="1.64609">
        <ele>282.28</ele>
        <time>2021-08-17T10:43:09Z</time>
      </trkpt>
      <trkpt lat="44.40093" lon="1.64611">
        <ele>281.8</ele>
        <time>2021-08-17T10:43:23Z</time>
      </trkpt>
      <trkpt lat="44.40094" lon="1.6461">
        <ele>281.8</ele>
        <time>2021-08-17T10:43:42Z</time>
      </trkpt>
      <trkpt lat="44.40094" lon="1.6461">
        <ele>281.8</ele>
        <time>2021-08-17T10:43:53Z</time>
      </trkpt>
      <trkpt lat="44.40093" lon="1.64609">
        <ele>281.8</ele>
        <time>2021-08-17T10:44:03Z</time>
      </trkpt>
      <trkpt lat="44.40094" lon="1.64607">
        <ele>281.8</ele>
        <time>2021-08-17T10:44:18Z</time>
      </trkpt>
      <trkpt lat="44.40094" lon="1.64608">
        <ele>281.8</ele>
        <time>2021-08-17T10:44:28Z</time>
      </trkpt>
      <trkpt lat="44.40091" lon="1.64611">
        <ele>281.8</ele>
        <time>2021-08-17T10:44:36Z</time>
      </trkpt>
      <trkpt lat="44.40089" lon="1.6461">
        <ele>281.8</ele>
        <time>2021-08-17T10:44:46Z</time>
      </trkpt>
      <trkpt lat="44.4009" lon="1.6461">
        <ele>281.8</ele>
        <time>2021-08-17T10:44:58Z</time>
      </trkpt>
      <trkpt lat="44.4009" lon="1.64611">
        <ele>281.32</ele>
        <time>2021-08-17T10:45:11Z</time>
      </trkpt>
      <trkpt lat="44.40091" lon="1.64611">
        <ele>281.32</ele>
        <time>2021-08-17T10:45:25Z</time>
      </trkpt>
      <trkpt lat="44.40091" lon="1.64611">
        <ele>281.32</ele>
        <time>2021-08-17T10:45:40Z</time>
      </trkpt>
      <trkpt lat="44.40089" lon="1.64609">
        <ele>281.32</ele>
        <time>2021-08-17T10:45:57Z</time>
      </trkpt>
      <trkpt lat="44.40089" lon="1.64608">
        <ele>281.32</ele>
        <time>2021-08-17T10:46:08Z</time>
      </trkpt>
      <trkpt lat="44.40088" lon="1.64611">
        <ele>281.32</ele>
        <time>2021-08-17T10:46:27Z</time>
      </trkpt>
      <trkpt lat="44.40087" lon="1.64615">
        <ele>281.32</ele>
        <time>2021-08-17T10:46:45Z</time>
      </trkpt>
      <trkpt lat="44.40092" lon="1.64615">
        <ele>281.32</ele>
        <time>2021-08-17T10:47:05Z</time>
      </trkpt>
      <trkpt lat="44.40096" lon="1.6461">
        <ele>281.32</ele>
        <time>2021-08-17T10:47:24Z</time>
      </trkpt>
      <trkpt lat="44.40097" lon="1.6461">
        <ele>281.32</ele>
        <time>2021-08-17T10:47:43Z</time>
      </trkpt>
      <trkpt lat="44.40098" lon="1.64611">
        <ele>281.32</ele>
        <time>2021-08-17T10:47:59Z</time>
      </trkpt>
      <trkpt lat="44.40096" lon="1.64612">
        <ele>281.8</ele>
        <time>2021-08-17T10:48:24Z</time>
      </trkpt>
      <trkpt lat="44.40096" lon="1.64611">
        <ele>281.8</ele>
        <time>2021-08-17T10:48:46Z</time>
      </trkpt>
      <trkpt lat="44.40096" lon="1.64612">
        <ele>281.8</ele>
        <time>2021-08-17T10:49:06Z</time>
      </trkpt>
      <trkpt lat="44.40094" lon="1.64608">
        <ele>281.8</ele>
        <time>2021-08-17T10:49:12Z</time>
      </trkpt>
      <trkpt lat="44.40094" lon="1.64606">
        <ele>281.8</ele>
        <time>2021-08-17T10:49:25Z</time>
      </trkpt>
      <trkpt lat="44.40094" lon="1.64604">
        <ele>281.8</ele>
        <time>2021-08-17T10:49:41Z</time>
      </trkpt>
      <trkpt lat="44.40096" lon="1.64607">
        <ele>281.8</ele>
        <time>2021-08-17T10:49:47Z</time>
      </trkpt>
      <trkpt lat="44.40094" lon="1.64606">
        <ele>281.8</ele>
        <time>2021-08-17T10:49:58Z</time>
      </trkpt>
      <trkpt lat="44.40094" lon="1.64605">
        <ele>281.8</ele>
        <time>2021-08-17T10:50:01Z</time>
      </trkpt>
      <trkpt lat="44.40093" lon="1.64603">
        <ele>281.8</ele>
        <time>2021-08-17T10:50:02Z</time>
      </trkpt>
      <trkpt lat="44.40092" lon="1.64602">
        <ele>281.8</ele>
        <time>2021-08-17T10:50:03Z</time>
      </trkpt>
      <trkpt lat="44.4009" lon="1.64602">
        <ele>281.8</ele>
        <time>2021-08-17T10:50:04Z</time>
      </trkpt>
      <trkpt lat="44.40089" lon="1.64603">
        <ele>281.8</ele>
        <time>2021-08-17T10:50:05Z</time>
      </trkpt>
      <trkpt lat="44.40088" lon="1.64605">
        <ele>281.8</ele>
        <time>2021-08-17T10:50:06Z</time>
      </trkpt>
      <trkpt lat="44.40086" lon="1.64608">
        <ele>281.8</ele>
        <time>2021-08-17T10:50:07Z</time>
      </trkpt>
      <trkpt lat="44.40084" lon="1.64611">
        <ele>281.8</ele>
        <time>2021-08-17T10:50:08Z</time>
      </trkpt>
      <trkpt lat="44.40082" lon="1.64612">
        <ele>281.8</ele>
        <time>2021-08-17T10:50:09Z</time>
      </trkpt>
      <trkpt lat="44.40079" lon="1.64613">
        <ele>281.8</ele>
        <time>2021-08-17T10:50:10Z</time>
      </trkpt>
      <trkpt lat="44.40076" lon="1.64613">
        <ele>281.8</ele>
        <time>2021-08-17T10:50:11Z</time>
      </trkpt>
      <trkpt lat="44.40074" lon="1.64613">
        <ele>281.8</ele>
        <time>2021-08-17T10:50:12Z</time>
      </trkpt>
      <trkpt lat="44.40069" lon="1.64614">
        <ele>281.8</ele>
        <time>2021-08-17T10:50:14Z</time>
      </trkpt>
      <trkpt lat="44.40065" lon="1.64616">
        <ele>281.8</ele>
        <time>2021-08-17T10:50:19Z</time>
      </trkpt>
      <trkpt lat="44.40063" lon="1.64616">
        <ele>281.8</ele>
        <time>2021-08-17T10:50:20Z</time>
      </trkpt>
      <trkpt lat="44.40061" lon="1.64618">
        <ele>281.8</ele>
        <time>2021-08-17T10:50:21Z</time>
      </trkpt>
      <trkpt lat="44.40053" lon="1.64635">
        <ele>281.8</ele>
        <time>2021-08-17T10:50:28Z</time>
      </trkpt>
      <trkpt lat="44.40048" lon="1.64656">
        <ele>281.8</ele>
        <time>2021-08-17T10:50:34Z</time>
      </trkpt>
      <trkpt lat="44.40039" lon="1.64688">
        <ele>282.28</ele>
        <time>2021-08-17T10:50:42Z</time>
      </trkpt>
      <trkpt lat="44.40028" lon="1.64717">
        <ele>282.28</ele>
        <time>2021-08-17T10:50:49Z</time>
      </trkpt>
      <trkpt lat="44.40013" lon="1.6475">
        <ele>281.8</ele>
        <time>2021-08-17T10:50:57Z</time>
      </trkpt>
      <trkpt lat="44.39989" lon="1.64792">
        <ele>281.8</ele>
        <time>2021-08-17T10:51:06Z</time>
      </trkpt>
      <trkpt lat="44.3998" lon="1.64809">
        <ele>280.84</ele>
        <time>2021-08-17T10:51:09Z</time>
      </trkpt>
      <trkpt lat="44.39958" lon="1.64861">
        <ele>279.88</ele>
        <time>2021-08-17T10:51:18Z</time>
      </trkpt>
      <trkpt lat="44.39955" lon="1.64867">
        <ele>279.88</ele>
        <time>2021-08-17T10:51:19Z</time>
      </trkpt>
      <trkpt lat="44.39951" lon="1.64873">
        <ele>279.88</ele>
        <time>2021-08-17T10:51:20Z</time>
      </trkpt>
      <trkpt lat="44.39948" lon="1.64877">
        <ele>279.88</ele>
        <time>2021-08-17T10:51:21Z</time>
      </trkpt>
      <trkpt lat="44.39943" lon="1.64881">
        <ele>279.4</ele>
        <time>2021-08-17T10:51:22Z</time>
      </trkpt>
      <trkpt lat="44.39939" lon="1.64886">
        <ele>279.4</ele>
        <time>2021-08-17T10:51:23Z</time>
      </trkpt>
      <trkpt lat="44.39913" lon="1.64916">
        <ele>278.44</ele>
        <time>2021-08-17T10:51:29Z</time>
      </trkpt>
      <trkpt lat="44.39897" lon="1.64927">
        <ele>277.48</ele>
        <time>2021-08-17T10:51:32Z</time>
      </trkpt>
      <trkpt lat="44.39843" lon="1.64942">
        <ele>276.04</ele>
        <time>2021-08-17T10:51:40Z</time>
      </trkpt>
      <trkpt lat="44.39838" lon="1.64942">
        <ele>275.56</ele>
        <time>2021-08-17T10:51:41Z</time>
      </trkpt>
      <trkpt lat="44.3978" lon="1.6493">
        <ele>272.19</ele>
        <time>2021-08-17T10:51:49Z</time>
      </trkpt>
      <trkpt lat="44.39774" lon="1.64926">
        <ele>272.19</ele>
        <time>2021-08-17T10:51:50Z</time>
      </trkpt>
      <trkpt lat="44.39726" lon="1.64893">
        <ele>269.79</ele>
        <time>2021-08-17T10:51:58Z</time>
      </trkpt>
      <trkpt lat="44.39668" lon="1.64864">
        <ele>266.9</ele>
        <time>2021-08-17T10:52:06Z</time>
      </trkpt>
      <trkpt lat="44.39639" lon="1.6485">
        <ele>264.98</ele>
        <time>2021-08-17T10:52:10Z</time>
      </trkpt>
      <trkpt lat="44.39577" lon="1.64813">
        <ele>262.1</ele>
        <time>2021-08-17T10:52:18Z</time>
      </trkpt>
      <trkpt lat="44.39526" lon="1.6477">
        <ele>259.69</ele>
        <time>2021-08-17T10:52:25Z</time>
      </trkpt>
      <trkpt lat="44.3947" lon="1.64715">
        <ele>257.29</ele>
        <time>2021-08-17T10:52:33Z</time>
      </trkpt>
      <trkpt lat="44.39416" lon="1.64661">
        <ele>254.41</ele>
        <time>2021-08-17T10:52:41Z</time>
      </trkpt>
      <trkpt lat="44.39402" lon="1.6465">
        <ele>253.93</ele>
        <time>2021-08-17T10:52:43Z</time>
      </trkpt>
      <trkpt lat="44.39394" lon="1.64646">
        <ele>253.93</ele>
        <time>2021-08-17T10:52:44Z</time>
      </trkpt>
      <trkpt lat="44.39386" lon="1.64644">
        <ele>252.96</ele>
        <time>2021-08-17T10:52:45Z</time>
      </trkpt>
      <trkpt lat="44.39355" lon="1.64635">
        <ele>251.04</ele>
        <time>2021-08-17T10:52:49Z</time>
      </trkpt>
      <trkpt lat="44.3931" lon="1.64622">
        <ele>250.08</ele>
        <time>2021-08-17T10:52:55Z</time>
      </trkpt>
      <trkpt lat="44.39253" lon="1.64621">
        <ele>248.16</ele>
        <time>2021-08-17T10:53:03Z</time>
      </trkpt>
      <trkpt lat="44.39205" lon="1.64624">
        <ele>248.64</ele>
        <time>2021-08-17T10:53:11Z</time>
      </trkpt>
      <trkpt lat="44.39196" lon="1.64626">
        <ele>249.6</ele>
        <time>2021-08-17T10:53:13Z</time>
      </trkpt>
      <trkpt lat="44.39191" lon="1.64627">
        <ele>249.6</ele>
        <time>2021-08-17T10:53:14Z</time>
      </trkpt>
      <trkpt lat="44.39161" lon="1.6463">
        <ele>251.04</ele>
        <time>2021-08-17T10:53:22Z</time>
      </trkpt>
      <trkpt lat="44.39127" lon="1.64629">
        <ele>251.52</ele>
        <time>2021-08-17T10:53:32Z</time>
      </trkpt>
      <trkpt lat="44.39098" lon="1.64629">
        <ele>252</ele>
        <time>2021-08-17T10:53:41Z</time>
      </trkpt>
      <trkpt lat="44.39069" lon="1.64628">
        <ele>252.48</ele>
        <time>2021-08-17T10:53:50Z</time>
      </trkpt>
      <trkpt lat="44.39029" lon="1.64628">
        <ele>253.44</ele>
        <time>2021-08-17T10:54:02Z</time>
      </trkpt>
      <trkpt lat="44.39007" lon="1.64625">
        <ele>253.44</ele>
        <time>2021-08-17T10:54:09Z</time>
      </trkpt>
      <trkpt lat="44.38974" lon="1.64619">
        <ele>254.41</ele>
        <time>2021-08-17T10:54:19Z</time>
      </trkpt>
      <trkpt lat="44.38953" lon="1.64613">
        <ele>254.41</ele>
        <time>2021-08-17T10:54:26Z</time>
      </trkpt>
      <trkpt lat="44.38927" lon="1.64606">
        <ele>254.89</ele>
        <time>2021-08-17T10:54:34Z</time>
      </trkpt>
      <trkpt lat="44.38906" lon="1.64601">
        <ele>254.89</ele>
        <time>2021-08-17T10:54:40Z</time>
      </trkpt>
      <trkpt lat="44.3887" lon="1.64585">
        <ele>255.85</ele>
        <time>2021-08-17T10:54:51Z</time>
      </trkpt>
      <trkpt lat="44.38847" lon="1.64576">
        <ele>256.33</ele>
        <time>2021-08-17T10:54:59Z</time>
      </trkpt>
      <trkpt lat="44.38814" lon="1.64568">
        <ele>256.81</ele>
        <time>2021-08-17T10:55:09Z</time>
      </trkpt>
      <trkpt lat="44.38788" lon="1.64564">
        <ele>256.81</ele>
        <time>2021-08-17T10:55:16Z</time>
      </trkpt>
      <trkpt lat="44.38768" lon="1.64563">
        <ele>256.81</ele>
        <time>2021-08-17T10:55:21Z</time>
      </trkpt>
      <trkpt lat="44.38741" lon="1.64571">
        <ele>257.77</ele>
        <time>2021-08-17T10:55:28Z</time>
      </trkpt>
      <trkpt lat="44.38707" lon="1.64585">
        <ele>258.25</ele>
        <time>2021-08-17T10:55:38Z</time>
      </trkpt>
      <trkpt lat="44.38685" lon="1.64601">
        <ele>259.21</ele>
        <time>2021-08-17T10:55:46Z</time>
      </trkpt>
      <trkpt lat="44.38671" lon="1.64609">
        <ele>260.17</ele>
        <time>2021-08-17T10:55:52Z</time>
      </trkpt>
      <trkpt lat="44.38654" lon="1.64616">
        <ele>261.14</ele>
        <time>2021-08-17T10:56:02Z</time>
      </trkpt>
      <trkpt lat="44.38633" lon="1.64629">
        <ele>262.1</ele>
        <time>2021-08-17T10:56:13Z</time>
      </trkpt>
      <trkpt lat="44.38618" lon="1.64639">
        <ele>262.58</ele>
        <time>2021-08-17T10:56:20Z</time>
      </trkpt>
      <trkpt lat="44.38602" lon="1.64651">
        <ele>263.54</ele>
        <time>2021-08-17T10:56:28Z</time>
      </trkpt>
      <trkpt lat="44.38583" lon="1.64663">
        <ele>264.02</ele>
        <time>2021-08-17T10:56:36Z</time>
      </trkpt>
      <trkpt lat="44.38564" lon="1.64675">
        <ele>264.98</ele>
        <time>2021-08-17T10:56:43Z</time>
      </trkpt>
      <trkpt lat="44.38546" lon="1.64689">
        <ele>265.46</ele>
        <time>2021-08-17T10:56:51Z</time>
      </trkpt>
      <trkpt lat="44.38529" lon="1.64702">
        <ele>265.94</ele>
        <time>2021-08-17T10:56:58Z</time>
      </trkpt>
      <trkpt lat="44.3851" lon="1.64712">
        <ele>266.9</ele>
        <time>2021-08-17T10:57:05Z</time>
      </trkpt>
      <trkpt lat="44.38487" lon="1.64727">
        <ele>266.9</ele>
        <time>2021-08-17T10:57:13Z</time>
      </trkpt>
      <trkpt lat="44.38457" lon="1.64745">
        <ele>267.38</ele>
        <time>2021-08-17T10:57:23Z</time>
      </trkpt>
      <trkpt lat="44.38429" lon="1.64758">
        <ele>267.38</ele>
        <time>2021-08-17T10:57:31Z</time>
      </trkpt>
      <trkpt lat="44.38395" lon="1.64765">
        <ele>267.38</ele>
        <time>2021-08-17T10:57:40Z</time>
      </trkpt>
      <trkpt lat="44.38367" lon="1.6478">
        <ele>268.35</ele>
        <time>2021-08-17T10:57:49Z</time>
      </trkpt>
      <trkpt lat="44.38347" lon="1.64791">
        <ele>269.31</ele>
        <time>2021-08-17T10:57:58Z</time>
      </trkpt>
      <trkpt lat="44.38331" lon="1.648">
        <ele>270.27</ele>
        <time>2021-08-17T10:58:06Z</time>
      </trkpt>
      <trkpt lat="44.3831" lon="1.64808">
        <ele>271.71</ele>
        <time>2021-08-17T10:58:15Z</time>
      </trkpt>
      <trkpt lat="44.38291" lon="1.64813">
        <ele>273.15</ele>
        <time>2021-08-17T10:58:23Z</time>
      </trkpt>
      <trkpt lat="44.38267" lon="1.6482">
        <ele>273.15</ele>
        <time>2021-08-17T10:58:32Z</time>
      </trkpt>
      <trkpt lat="44.38242" lon="1.64827">
        <ele>274.59</ele>
        <time>2021-08-17T10:58:41Z</time>
      </trkpt>
      <trkpt lat="44.38221" lon="1.64836">
        <ele>275.07</ele>
        <time>2021-08-17T10:58:49Z</time>
      </trkpt>
      <trkpt lat="44.38202" lon="1.64845">
        <ele>275.56</ele>
        <time>2021-08-17T10:58:56Z</time>
      </trkpt>
      <trkpt lat="44.38181" lon="1.64858">
        <ele>276.52</ele>
        <time>2021-08-17T10:59:04Z</time>
      </trkpt>
      <trkpt lat="44.3817" lon="1.64868">
        <ele>277</ele>
        <time>2021-08-17T10:59:09Z</time>
      </trkpt>
      <trkpt lat="44.38146" lon="1.64891">
        <ele>277.48</ele>
        <time>2021-08-17T10:59:18Z</time>
      </trkpt>
      <trkpt lat="44.38116" lon="1.64909">
        <ele>278.44</ele>
        <time>2021-08-17T10:59:29Z</time>
      </trkpt>
      <trkpt lat="44.38085" lon="1.6492">
        <ele>279.4</ele>
        <time>2021-08-17T10:59:40Z</time>
      </trkpt>
      <trkpt lat="44.38064" lon="1.64925">
        <ele>279.88</ele>
        <time>2021-08-17T10:59:48Z</time>
      </trkpt>
      <trkpt lat="44.38035" lon="1.64932">
        <ele>280.84</ele>
        <time>2021-08-17T10:59:58Z</time>
      </trkpt>
      <trkpt lat="44.38018" lon="1.64933">
        <ele>281.8</ele>
        <time>2021-08-17T11:00:06Z</time>
      </trkpt>
      <trkpt lat="44.38008" lon="1.64932">
        <ele>282.28</ele>
        <time>2021-08-17T11:00:12Z</time>
      </trkpt>
      <trkpt lat="44.37993" lon="1.64932">
        <ele>283.73</ele>
        <time>2021-08-17T11:00:21Z</time>
      </trkpt>
      <trkpt lat="44.37978" lon="1.64926">
        <ele>284.69</ele>
        <time>2021-08-17T11:00:30Z</time>
      </trkpt>
      <trkpt lat="44.37966" lon="1.64919">
        <ele>285.65</ele>
        <time>2021-08-17T11:00:38Z</time>
      </trkpt>
      <trkpt lat="44.37951" lon="1.64914">
        <ele>287.57</ele>
        <time>2021-08-17T11:00:47Z</time>
      </trkpt>
      <trkpt lat="44.37938" lon="1.64909">
        <ele>288.53</ele>
        <time>2021-08-17T11:00:55Z</time>
      </trkpt>
      <trkpt lat="44.37927" lon="1.64903">
        <ele>288.53</ele>
        <time>2021-08-17T11:01:02Z</time>
      </trkpt>
      <trkpt lat="44.37912" lon="1.64896">
        <ele>289.97</ele>
        <time>2021-08-17T11:01:10Z</time>
      </trkpt>
      <trkpt lat="44.37899" lon="1.64891">
        <ele>290.94</ele>
        <time>2021-08-17T11:01:17Z</time>
      </trkpt>
      <trkpt lat="44.37884" lon="1.64885">
        <ele>291.42</ele>
        <time>2021-08-17T11:01:26Z</time>
      </trkpt>
      <trkpt lat="44.37869" lon="1.6488">
        <ele>292.38</ele>
        <time>2021-08-17T11:01:34Z</time>
      </trkpt>
      <trkpt lat="44.37848" lon="1.64878">
        <ele>293.82</ele>
        <time>2021-08-17T11:01:45Z</time>
      </trkpt>
      <trkpt lat="44.37831" lon="1.64884">
        <ele>294.78</ele>
        <time>2021-08-17T11:01:53Z</time>
      </trkpt>
      <trkpt lat="44.37813" lon="1.6489">
        <ele>295.26</ele>
        <time>2021-08-17T11:02:01Z</time>
      </trkpt>
      <trkpt lat="44.37783" lon="1.64887">
        <ele>296.22</ele>
        <time>2021-08-17T11:02:11Z</time>
      </trkpt>
      <trkpt lat="44.37756" lon="1.64891">
        <ele>296.7</ele>
        <time>2021-08-17T11:02:19Z</time>
      </trkpt>
      <trkpt lat="44.37726" lon="1.64893">
        <ele>296.7</ele>
        <time>2021-08-17T11:02:27Z</time>
      </trkpt>
      <trkpt lat="44.37701" lon="1.64897">
        <ele>296.7</ele>
        <time>2021-08-17T11:02:33Z</time>
      </trkpt>
      <trkpt lat="44.3767" lon="1.64899">
        <ele>297.18</ele>
        <time>2021-08-17T11:02:41Z</time>
      </trkpt>
      <trkpt lat="44.37634" lon="1.649">
        <ele>298.15</ele>
        <time>2021-08-17T11:02:50Z</time>
      </trkpt>
      <trkpt lat="44.37601" lon="1.64898">
        <ele>298.63</ele>
        <time>2021-08-17T11:02:59Z</time>
      </trkpt>
      <trkpt lat="44.3758" lon="1.64896">
        <ele>298.63</ele>
        <time>2021-08-17T11:03:06Z</time>
      </trkpt>
      <trkpt lat="44.37555" lon="1.64898">
        <ele>298.63</ele>
        <time>2021-08-17T11:03:13Z</time>
      </trkpt>
      <trkpt lat="44.37534" lon="1.64898">
        <ele>298.63</ele>
        <time>2021-08-17T11:03:19Z</time>
      </trkpt>
      <trkpt lat="44.3751" lon="1.64891">
        <ele>298.63</ele>
        <time>2021-08-17T11:03:26Z</time>
      </trkpt>
      <trkpt lat="44.37489" lon="1.64885">
        <ele>297.67</ele>
        <time>2021-08-17T11:03:32Z</time>
      </trkpt>
      <trkpt lat="44.37459" lon="1.64874">
        <ele>297.18</ele>
        <time>2021-08-17T11:03:40Z</time>
      </trkpt>
      <trkpt lat="44.37448" lon="1.64869">
        <ele>296.7</ele>
        <time>2021-08-17T11:03:43Z</time>
      </trkpt>
      <trkpt lat="44.37408" lon="1.64851">
        <ele>294.3</ele>
        <time>2021-08-17T11:03:52Z</time>
      </trkpt>
      <trkpt lat="44.37403" lon="1.64851">
        <ele>294.3</ele>
        <time>2021-08-17T11:03:53Z</time>
      </trkpt>
      <trkpt lat="44.37398" lon="1.64851">
        <ele>294.3</ele>
        <time>2021-08-17T11:03:54Z</time>
      </trkpt>
      <trkpt lat="44.37346" lon="1.64854">
        <ele>292.86</ele>
        <time>2021-08-17T11:04:04Z</time>
      </trkpt>
      <trkpt lat="44.37308" lon="1.64851">
        <ele>290.46</ele>
        <time>2021-08-17T11:04:10Z</time>
      </trkpt>
      <trkpt lat="44.37265" lon="1.64831">
        <ele>289.49</ele>
        <time>2021-08-17T11:04:17Z</time>
      </trkpt>
      <trkpt lat="44.37214" lon="1.6481">
        <ele>287.57</ele>
        <time>2021-08-17T11:04:26Z</time>
      </trkpt>
      <trkpt lat="44.37189" lon="1.648">
        <ele>286.13</ele>
        <time>2021-08-17T11:04:30Z</time>
      </trkpt>
      <trkpt lat="44.37156" lon="1.64782">
        <ele>286.13</ele>
        <time>2021-08-17T11:04:37Z</time>
      </trkpt>
      <trkpt lat="44.37142" lon="1.64776">
        <ele>286.13</ele>
        <time>2021-08-17T11:04:42Z</time>
      </trkpt>
      <trkpt lat="44.37106" lon="1.64763">
        <ele>286.13</ele>
        <time>2021-08-17T11:04:50Z</time>
      </trkpt>
      <trkpt lat="44.37091" lon="1.64759">
        <ele>285.65</ele>
        <time>2021-08-17T11:04:53Z</time>
      </trkpt>
      <trkpt lat="44.37086" lon="1.64757">
        <ele>285.65</ele>
        <time>2021-08-17T11:04:54Z</time>
      </trkpt>
      <trkpt lat="44.37055" lon="1.64744">
        <ele>283.25</ele>
        <time>2021-08-17T11:04:59Z</time>
      </trkpt>
      <trkpt lat="44.37025" lon="1.64734">
        <ele>279.88</ele>
        <time>2021-08-17T11:05:03Z</time>
      </trkpt>
      <trkpt lat="44.36985" lon="1.64711">
        <ele>278.92</ele>
        <time>2021-08-17T11:05:09Z</time>
      </trkpt>
      <trkpt lat="44.36958" lon="1.64685">
        <ele>276.04</ele>
        <time>2021-08-17T11:05:15Z</time>
      </trkpt>
      <trkpt lat="44.36952" lon="1.64682">
        <ele>275.07</ele>
        <time>2021-08-17T11:05:16Z</time>
      </trkpt>
      <trkpt lat="44.36947" lon="1.64679">
        <ele>274.59</ele>
        <time>2021-08-17T11:05:17Z</time>
      </trkpt>
      <trkpt lat="44.36936" lon="1.64675">
        <ele>273.63</ele>
        <time>2021-08-17T11:05:19Z</time>
      </trkpt>
      <trkpt lat="44.36915" lon="1.64673">
        <ele>269.79</ele>
        <time>2021-08-17T11:05:23Z</time>
      </trkpt>
      <trkpt lat="44.36909" lon="1.64674">
        <ele>268.83</ele>
        <time>2021-08-17T11:05:24Z</time>
      </trkpt>
      <trkpt lat="44.36902" lon="1.64676">
        <ele>268.35</ele>
        <time>2021-08-17T11:05:25Z</time>
      </trkpt>
      <trkpt lat="44.36889" lon="1.64683">
        <ele>266.9</ele>
        <time>2021-08-17T11:05:27Z</time>
      </trkpt>
      <trkpt lat="44.36882" lon="1.64688">
        <ele>266.9</ele>
        <time>2021-08-17T11:05:28Z</time>
      </trkpt>
      <trkpt lat="44.36863" lon="1.647">
        <ele>264.98</ele>
        <time>2021-08-17T11:05:31Z</time>
      </trkpt>
      <trkpt lat="44.36855" lon="1.64703">
        <ele>264.98</ele>
        <time>2021-08-17T11:05:32Z</time>
      </trkpt>
      <trkpt lat="44.36849" lon="1.64704">
        <ele>265.94</ele>
        <time>2021-08-17T11:05:33Z</time>
      </trkpt>
      <trkpt lat="44.36842" lon="1.64705">
        <ele>265.94</ele>
        <time>2021-08-17T11:05:34Z</time>
      </trkpt>
      <trkpt lat="44.36836" lon="1.64704">
        <ele>265.94</ele>
        <time>2021-08-17T11:05:35Z</time>
      </trkpt>
      <trkpt lat="44.36822" lon="1.64701">
        <ele>267.38</ele>
        <time>2021-08-17T11:05:39Z</time>
      </trkpt>
      <trkpt lat="44.36817" lon="1.64699">
        <ele>268.83</ele>
        <time>2021-08-17T11:05:45Z</time>
      </trkpt>
      <trkpt lat="44.36811" lon="1.64701">
        <ele>269.31</ele>
        <time>2021-08-17T11:05:55Z</time>
      </trkpt>
      <trkpt lat="44.3681" lon="1.64704">
        <ele>269.31</ele>
        <time>2021-08-17T11:05:58Z</time>
      </trkpt>
      <trkpt lat="44.36809" lon="1.64705">
        <ele>269.79</ele>
        <time>2021-08-17T11:05:59Z</time>
      </trkpt>
      <trkpt lat="44.36808" lon="1.64706">
        <ele>269.79</ele>
        <time>2021-08-17T11:06:00Z</time>
      </trkpt>
      <trkpt lat="44.36807" lon="1.64708">
        <ele>269.79</ele>
        <time>2021-08-17T11:06:01Z</time>
      </trkpt>
      <trkpt lat="44.36805" lon="1.6471">
        <ele>270.27</ele>
        <time>2021-08-17T11:06:03Z</time>
      </trkpt>
      <trkpt lat="44.36804" lon="1.64711">
        <ele>270.27</ele>
        <time>2021-08-17T11:06:04Z</time>
      </trkpt>
      <trkpt lat="44.36803" lon="1.64712">
        <ele>270.75</ele>
        <time>2021-08-17T11:06:05Z</time>
      </trkpt>
      <trkpt lat="44.36802" lon="1.64714">
        <ele>270.75</ele>
        <time>2021-08-17T11:06:06Z</time>
      </trkpt>
      <trkpt lat="44.368" lon="1.64715">
        <ele>270.75</ele>
        <time>2021-08-17T11:06:07Z</time>
      </trkpt>
      <trkpt lat="44.36799" lon="1.64715">
        <ele>270.75</ele>
        <time>2021-08-17T11:06:08Z</time>
      </trkpt>
      <trkpt lat="44.36797" lon="1.64716">
        <ele>270.75</ele>
        <time>2021-08-17T11:06:09Z</time>
      </trkpt>
      <trkpt lat="44.36795" lon="1.64716">
        <ele>271.23</ele>
        <time>2021-08-17T11:06:10Z</time>
      </trkpt>
      <trkpt lat="44.36777" lon="1.6472">
        <ele>272.19</ele>
        <time>2021-08-17T11:06:19Z</time>
      </trkpt>
      <trkpt lat="44.36759" lon="1.64726">
        <ele>273.63</ele>
        <time>2021-08-17T11:06:27Z</time>
      </trkpt>
      <trkpt lat="44.36744" lon="1.64723">
        <ele>274.11</ele>
        <time>2021-08-17T11:06:34Z</time>
      </trkpt>
      <trkpt lat="44.36731" lon="1.64716">
        <ele>275.07</ele>
        <time>2021-08-17T11:06:41Z</time>
      </trkpt>
      <trkpt lat="44.36714" lon="1.64704">
        <ele>276.04</ele>
        <time>2021-08-17T11:06:50Z</time>
      </trkpt>
      <trkpt lat="44.36698" lon="1.64692">
        <ele>277</ele>
        <time>2021-08-17T11:06:59Z</time>
      </trkpt>
      <trkpt lat="44.3668" lon="1.64682">
        <ele>278.44</ele>
        <time>2021-08-17T11:07:08Z</time>
      </trkpt>
      <trkpt lat="44.36662" lon="1.64669">
        <ele>279.4</ele>
        <time>2021-08-17T11:07:17Z</time>
      </trkpt>
      <trkpt lat="44.36643" lon="1.64654">
        <ele>280.36</ele>
        <time>2021-08-17T11:07:27Z</time>
      </trkpt>
      <trkpt lat="44.3663" lon="1.6464">
        <ele>281.32</ele>
        <time>2021-08-17T11:07:35Z</time>
      </trkpt>
      <trkpt lat="44.36617" lon="1.64625">
        <ele>281.8</ele>
        <time>2021-08-17T11:07:43Z</time>
      </trkpt>
      <trkpt lat="44.36606" lon="1.64611">
        <ele>282.77</ele>
        <time>2021-08-17T11:07:50Z</time>
      </trkpt>
      <trkpt lat="44.3659" lon="1.64591">
        <ele>283.73</ele>
        <time>2021-08-17T11:07:59Z</time>
      </trkpt>
      <trkpt lat="44.36581" lon="1.64574">
        <ele>284.69</ele>
        <time>2021-08-17T11:08:06Z</time>
      </trkpt>
      <trkpt lat="44.3656" lon="1.64551">
        <ele>284.69</ele>
        <time>2021-08-17T11:08:14Z</time>
      </trkpt>
      <trkpt lat="44.36533" lon="1.64529">
        <ele>284.69</ele>
        <time>2021-08-17T11:08:23Z</time>
      </trkpt>
      <trkpt lat="44.3651" lon="1.6451">
        <ele>285.65</ele>
        <time>2021-08-17T11:08:30Z</time>
      </trkpt>
      <trkpt lat="44.36487" lon="1.64481">
        <ele>285.65</ele>
        <time>2021-08-17T11:08:38Z</time>
      </trkpt>
      <trkpt lat="44.36455" lon="1.64452">
        <ele>285.65</ele>
        <time>2021-08-17T11:08:46Z</time>
      </trkpt>
      <trkpt lat="44.36445" lon="1.64445">
        <ele>284.69</ele>
        <time>2021-08-17T11:08:48Z</time>
      </trkpt>
      <trkpt lat="44.36431" lon="1.64435">
        <ele>284.21</ele>
        <time>2021-08-17T11:08:51Z</time>
      </trkpt>
      <trkpt lat="44.36428" lon="1.64432">
        <ele>283.73</ele>
        <time>2021-08-17T11:08:52Z</time>
      </trkpt>
      <trkpt lat="44.36425" lon="1.6443">
        <ele>283.73</ele>
        <time>2021-08-17T11:08:53Z</time>
      </trkpt>
      <trkpt lat="44.36423" lon="1.64429">
        <ele>283.73</ele>
        <time>2021-08-17T11:08:54Z</time>
      </trkpt>
      <trkpt lat="44.36422" lon="1.64427">
        <ele>283.73</ele>
        <time>2021-08-17T11:08:55Z</time>
      </trkpt>
      <trkpt lat="44.36408" lon="1.6441">
        <ele>283.25</ele>
        <time>2021-08-17T11:09:00Z</time>
      </trkpt>
      <trkpt lat="44.36404" lon="1.64406">
        <ele>282.28</ele>
        <time>2021-08-17T11:09:01Z</time>
      </trkpt>
      <trkpt lat="44.364" lon="1.64401">
        <ele>282.28</ele>
        <time>2021-08-17T11:09:02Z</time>
      </trkpt>
      <trkpt lat="44.36389" lon="1.64386">
        <ele>281.32</ele>
        <time>2021-08-17T11:09:05Z</time>
      </trkpt>
      <trkpt lat="44.36349" lon="1.64333">
        <ele>279.4</ele>
        <time>2021-08-17T11:09:14Z</time>
      </trkpt>
      <trkpt lat="44.3631" lon="1.64306">
        <ele>276.52</ele>
        <time>2021-08-17T11:09:21Z</time>
      </trkpt>
      <trkpt lat="44.36293" lon="1.643">
        <ele>275.07</ele>
        <time>2021-08-17T11:09:24Z</time>
      </trkpt>
      <trkpt lat="44.36289" lon="1.64296">
        <ele>275.07</ele>
        <time>2021-08-17T11:09:25Z</time>
      </trkpt>
      <trkpt lat="44.36287" lon="1.64293">
        <ele>274.59</ele>
        <time>2021-08-17T11:09:26Z</time>
      </trkpt>
      <trkpt lat="44.36284" lon="1.64289">
        <ele>274.11</ele>
        <time>2021-08-17T11:09:27Z</time>
      </trkpt>
      <trkpt lat="44.3628" lon="1.64287">
        <ele>273.15</ele>
        <time>2021-08-17T11:09:28Z</time>
      </trkpt>
      <trkpt lat="44.36275" lon="1.64284">
        <ele>273.15</ele>
        <time>2021-08-17T11:09:29Z</time>
      </trkpt>
      <trkpt lat="44.36271" lon="1.64284">
        <ele>273.15</ele>
        <time>2021-08-17T11:09:30Z</time>
      </trkpt>
      <trkpt lat="44.36267" lon="1.64285">
        <ele>273.15</ele>
        <time>2021-08-17T11:09:31Z</time>
      </trkpt>
      <trkpt lat="44.36242" lon="1.64297">
        <ele>273.15</ele>
        <time>2021-08-17T11:09:38Z</time>
      </trkpt>
      <trkpt lat="44.36209" lon="1.6431">
        <ele>273.63</ele>
        <time>2021-08-17T11:09:48Z</time>
      </trkpt>
      <trkpt lat="44.36188" lon="1.64321">
        <ele>274.59</ele>
        <time>2021-08-17T11:09:54Z</time>
      </trkpt>
      <trkpt lat="44.36184" lon="1.64323">
        <ele>274.59</ele>
        <time>2021-08-17T11:09:55Z</time>
      </trkpt>
      <trkpt lat="44.36158" lon="1.64341">
        <ele>275.07</ele>
        <time>2021-08-17T11:10:03Z</time>
      </trkpt>
      <trkpt lat="44.36125" lon="1.64359">
        <ele>275.56</ele>
        <time>2021-08-17T11:10:12Z</time>
      </trkpt>
      <trkpt lat="44.36105" lon="1.64367">
        <ele>275.56</ele>
        <time>2021-08-17T11:10:17Z</time>
      </trkpt>
      <trkpt lat="44.361" lon="1.64369">
        <ele>275.56</ele>
        <time>2021-08-17T11:10:18Z</time>
      </trkpt>
      <trkpt lat="44.36096" lon="1.64369">
        <ele>275.56</ele>
        <time>2021-08-17T11:10:19Z</time>
      </trkpt>
      <trkpt lat="44.3607" lon="1.64364">
        <ele>276.52</ele>
        <time>2021-08-17T11:10:26Z</time>
      </trkpt>
      <trkpt lat="44.36047" lon="1.64358">
        <ele>277.96</ele>
        <time>2021-08-17T11:10:34Z</time>
      </trkpt>
      <trkpt lat="44.36029" lon="1.64356">
        <ele>278.92</ele>
        <time>2021-08-17T11:10:41Z</time>
      </trkpt>
      <trkpt lat="44.36006" lon="1.64357">
        <ele>278.92</ele>
        <time>2021-08-17T11:10:49Z</time>
      </trkpt>
      <trkpt lat="44.35974" lon="1.64356">
        <ele>278.92</ele>
        <time>2021-08-17T11:10:57Z</time>
      </trkpt>
      <trkpt lat="44.35942" lon="1.64355">
        <ele>276.04</ele>
        <time>2021-08-17T11:11:03Z</time>
      </trkpt>
      <trkpt lat="44.35935" lon="1.64357">
        <ele>276.04</ele>
        <time>2021-08-17T11:11:04Z</time>
      </trkpt>
      <trkpt lat="44.35903" lon="1.6437">
        <ele>275.56</ele>
        <time>2021-08-17T11:11:09Z</time>
      </trkpt>
      <trkpt lat="44.35876" lon="1.64377">
        <ele>275.56</ele>
        <time>2021-08-17T11:11:14Z</time>
      </trkpt>
      <trkpt lat="44.35871" lon="1.64378">
        <ele>275.56</ele>
        <time>2021-08-17T11:11:15Z</time>
      </trkpt>
      <trkpt lat="44.35866" lon="1.64378">
        <ele>275.56</ele>
        <time>2021-08-17T11:11:16Z</time>
      </trkpt>
      <trkpt lat="44.35862" lon="1.64378">
        <ele>275.56</ele>
        <time>2021-08-17T11:11:17Z</time>
      </trkpt>
      <trkpt lat="44.35858" lon="1.64378">
        <ele>275.56</ele>
        <time>2021-08-17T11:11:18Z</time>
      </trkpt>
      <trkpt lat="44.35836" lon="1.64375">
        <ele>275.56</ele>
        <time>2021-08-17T11:11:24Z</time>
      </trkpt>
      <trkpt lat="44.35799" lon="1.6437">
        <ele>275.56</ele>
        <time>2021-08-17T11:11:34Z</time>
      </trkpt>
      <trkpt lat="44.35766" lon="1.64369">
        <ele>276.52</ele>
        <time>2021-08-17T11:11:43Z</time>
      </trkpt>
      <trkpt lat="44.35737" lon="1.6437">
        <ele>276.52</ele>
        <time>2021-08-17T11:11:51Z</time>
      </trkpt>
      <trkpt lat="44.35709" lon="1.64372">
        <ele>277</ele>
        <time>2021-08-17T11:11:58Z</time>
      </trkpt>
      <trkpt lat="44.35705" lon="1.64373">
        <ele>277</ele>
        <time>2021-08-17T11:11:59Z</time>
      </trkpt>
      <trkpt lat="44.35701" lon="1.64374">
        <ele>277</ele>
        <time>2021-08-17T11:12:00Z</time>
      </trkpt>
      <trkpt lat="44.35696" lon="1.64375">
        <ele>277</ele>
        <time>2021-08-17T11:12:01Z</time>
      </trkpt>
      <trkpt lat="44.35692" lon="1.64376">
        <ele>277</ele>
        <time>2021-08-17T11:12:02Z</time>
      </trkpt>
      <trkpt lat="44.35688" lon="1.64378">
        <ele>277</ele>
        <time>2021-08-17T11:12:03Z</time>
      </trkpt>
      <trkpt lat="44.35684" lon="1.6438">
        <ele>277</ele>
        <time>2021-08-17T11:12:04Z</time>
      </trkpt>
      <trkpt lat="44.35654" lon="1.64396">
        <ele>277</ele>
        <time>2021-08-17T11:12:12Z</time>
      </trkpt>
      <trkpt lat="44.35637" lon="1.64425">
        <ele>277.48</ele>
        <time>2021-08-17T11:12:19Z</time>
      </trkpt>
      <trkpt lat="44.35621" lon="1.64448">
        <ele>277.48</ele>
        <time>2021-08-17T11:12:25Z</time>
      </trkpt>
      <trkpt lat="44.35594" lon="1.64484">
        <ele>277.96</ele>
        <time>2021-08-17T11:12:35Z</time>
      </trkpt>
      <trkpt lat="44.35569" lon="1.64503">
        <ele>278.44</ele>
        <time>2021-08-17T11:12:43Z</time>
      </trkpt>
      <trkpt lat="44.35544" lon="1.64519">
        <ele>279.4</ele>
        <time>2021-08-17T11:12:51Z</time>
      </trkpt>
      <trkpt lat="44.35513" lon="1.64537">
        <ele>279.88</ele>
        <time>2021-08-17T11:13:01Z</time>
      </trkpt>
      <trkpt lat="44.35489" lon="1.64548">
        <ele>280.36</ele>
        <time>2021-08-17T11:13:08Z</time>
      </trkpt>
      <trkpt lat="44.35465" lon="1.64557">
        <ele>280.84</ele>
        <time>2021-08-17T11:13:15Z</time>
      </trkpt>
      <trkpt lat="44.3544" lon="1.64582">
        <ele>281.32</ele>
        <time>2021-08-17T11:13:23Z</time>
      </trkpt>
      <trkpt lat="44.35418" lon="1.64605">
        <ele>281.32</ele>
        <time>2021-08-17T11:13:30Z</time>
      </trkpt>
      <trkpt lat="44.35395" lon="1.64631">
        <ele>282.28</ele>
        <time>2021-08-17T11:13:38Z</time>
      </trkpt>
      <trkpt lat="44.35366" lon="1.64654">
        <ele>282.77</ele>
        <time>2021-08-17T11:13:47Z</time>
      </trkpt>
      <trkpt lat="44.3534" lon="1.64672">
        <ele>282.77</ele>
        <time>2021-08-17T11:13:55Z</time>
      </trkpt>
      <trkpt lat="44.35319" lon="1.64686">
        <ele>283.25</ele>
        <time>2021-08-17T11:14:02Z</time>
      </trkpt>
      <trkpt lat="44.35294" lon="1.64713">
        <ele>283.73</ele>
        <time>2021-08-17T11:14:11Z</time>
      </trkpt>
      <trkpt lat="44.35278" lon="1.64733">
        <ele>284.21</ele>
        <time>2021-08-17T11:14:17Z</time>
      </trkpt>
      <trkpt lat="44.3526" lon="1.64761">
        <ele>284.69</ele>
        <time>2021-08-17T11:14:25Z</time>
      </trkpt>
      <trkpt lat="44.35249" lon="1.64777">
        <ele>285.17</ele>
        <time>2021-08-17T11:14:30Z</time>
      </trkpt>
      <trkpt lat="44.35237" lon="1.64795">
        <ele>285.65</ele>
        <time>2021-08-17T11:14:36Z</time>
      </trkpt>
      <trkpt lat="44.35219" lon="1.64828">
        <ele>286.13</ele>
        <time>2021-08-17T11:14:44Z</time>
      </trkpt>
      <trkpt lat="44.35213" lon="1.64857">
        <ele>286.61</ele>
        <time>2021-08-17T11:14:51Z</time>
      </trkpt>
      <trkpt lat="44.35214" lon="1.64873">
        <ele>287.57</ele>
        <time>2021-08-17T11:14:56Z</time>
      </trkpt>
      <trkpt lat="44.35212" lon="1.64875">
        <ele>288.05</ele>
        <time>2021-08-17T11:14:57Z</time>
      </trkpt>
      <trkpt lat="44.35194" lon="1.64897">
        <ele>288.53</ele>
        <time>2021-08-17T11:15:07Z</time>
      </trkpt>
      <trkpt lat="44.35177" lon="1.64901">
        <ele>288.53</ele>
        <time>2021-08-17T11:15:13Z</time>
      </trkpt>
      <trkpt lat="44.35169" lon="1.64909">
        <ele>289.01</ele>
        <time>2021-08-17T11:15:18Z</time>
      </trkpt>
      <trkpt lat="44.35164" lon="1.64916">
        <ele>289.49</ele>
        <time>2021-08-17T11:15:22Z</time>
      </trkpt>
      <trkpt lat="44.35163" lon="1.64917">
        <ele>289.49</ele>
        <time>2021-08-17T11:15:23Z</time>
      </trkpt>
      <trkpt lat="44.35153" lon="1.64932">
        <ele>289.97</ele>
        <time>2021-08-17T11:15:31Z</time>
      </trkpt>
      <trkpt lat="44.35137" lon="1.64946">
        <ele>291.9</ele>
        <time>2021-08-17T11:15:40Z</time>
      </trkpt>
      <trkpt lat="44.35126" lon="1.6495">
        <ele>292.86</ele>
        <time>2021-08-17T11:15:48Z</time>
      </trkpt>
      <trkpt lat="44.35109" lon="1.64953">
        <ele>293.82</ele>
        <time>2021-08-17T11:15:58Z</time>
      </trkpt>
      <trkpt lat="44.35093" lon="1.64959">
        <ele>294.78</ele>
        <time>2021-08-17T11:16:07Z</time>
      </trkpt>
      <trkpt lat="44.35088" lon="1.64963">
        <ele>294.78</ele>
        <time>2021-08-17T11:16:10Z</time>
      </trkpt>
      <trkpt lat="44.35085" lon="1.64984">
        <ele>295.26</ele>
        <time>2021-08-17T11:16:17Z</time>
      </trkpt>
      <trkpt lat="44.3508" lon="1.65005">
        <ele>295.74</ele>
        <time>2021-08-17T11:16:23Z</time>
      </trkpt>
      <trkpt lat="44.35072" lon="1.65034">
        <ele>295.74</ele>
        <time>2021-08-17T11:16:30Z</time>
      </trkpt>
      <trkpt lat="44.35065" lon="1.65064">
        <ele>296.22</ele>
        <time>2021-08-17T11:16:37Z</time>
      </trkpt>
      <trkpt lat="44.35057" lon="1.651">
        <ele>296.7</ele>
        <time>2021-08-17T11:16:45Z</time>
      </trkpt>
      <trkpt lat="44.35049" lon="1.65134">
        <ele>297.18</ele>
        <time>2021-08-17T11:16:54Z</time>
      </trkpt>
      <trkpt lat="44.35044" lon="1.65155">
        <ele>298.63</ele>
        <time>2021-08-17T11:17:01Z</time>
      </trkpt>
      <trkpt lat="44.35041" lon="1.65173">
        <ele>299.11</ele>
        <time>2021-08-17T11:17:08Z</time>
      </trkpt>
      <trkpt lat="44.35038" lon="1.65191">
        <ele>299.59</ele>
        <time>2021-08-17T11:17:15Z</time>
      </trkpt>
      <trkpt lat="44.35034" lon="1.65213">
        <ele>301.03</ele>
        <time>2021-08-17T11:17:23Z</time>
      </trkpt>
      <trkpt lat="44.35031" lon="1.65235">
        <ele>301.03</ele>
        <time>2021-08-17T11:17:30Z</time>
      </trkpt>
      <trkpt lat="44.35029" lon="1.65256">
        <ele>301.51</ele>
        <time>2021-08-17T11:17:36Z</time>
      </trkpt>
      <trkpt lat="44.35028" lon="1.65283">
        <ele>302.47</ele>
        <time>2021-08-17T11:17:44Z</time>
      </trkpt>
      <trkpt lat="44.35027" lon="1.65322">
        <ele>303.43</ele>
        <time>2021-08-17T11:17:54Z</time>
      </trkpt>
      <trkpt lat="44.35026" lon="1.6535">
        <ele>304.39</ele>
        <time>2021-08-17T11:18:02Z</time>
      </trkpt>
      <trkpt lat="44.35022" lon="1.65375">
        <ele>305.36</ele>
        <time>2021-08-17T11:18:09Z</time>
      </trkpt>
      <trkpt lat="44.35021" lon="1.65401">
        <ele>305.84</ele>
        <time>2021-08-17T11:18:16Z</time>
      </trkpt>
      <trkpt lat="44.35024" lon="1.65433">
        <ele>306.8</ele>
        <time>2021-08-17T11:18:25Z</time>
      </trkpt>
      <trkpt lat="44.35023" lon="1.65457">
        <ele>307.28</ele>
        <time>2021-08-17T11:18:31Z</time>
      </trkpt>
      <trkpt lat="44.35023" lon="1.65496">
        <ele>307.28</ele>
        <time>2021-08-17T11:18:39Z</time>
      </trkpt>
      <trkpt lat="44.35021" lon="1.65531">
        <ele>308.24</ele>
        <time>2021-08-17T11:18:47Z</time>
      </trkpt>
      <trkpt lat="44.35015" lon="1.65567">
        <ele>308.72</ele>
        <time>2021-08-17T11:18:56Z</time>
      </trkpt>
      <trkpt lat="44.3501" lon="1.65599">
        <ele>309.68</ele>
        <time>2021-08-17T11:19:03Z</time>
      </trkpt>
      <trkpt lat="44.35002" lon="1.6563">
        <ele>310.16</ele>
        <time>2021-08-17T11:19:10Z</time>
      </trkpt>
      <trkpt lat="44.34995" lon="1.65664">
        <ele>311.12</ele>
        <time>2021-08-17T11:19:18Z</time>
      </trkpt>
      <trkpt lat="44.34988" lon="1.65697">
        <ele>311.6</ele>
        <time>2021-08-17T11:19:26Z</time>
      </trkpt>
      <trkpt lat="44.34981" lon="1.65734">
        <ele>312.09</ele>
        <time>2021-08-17T11:19:34Z</time>
      </trkpt>
      <trkpt lat="44.3498" lon="1.65739">
        <ele>312.09</ele>
        <time>2021-08-17T11:19:35Z</time>
      </trkpt>
      <trkpt lat="44.34973" lon="1.65771">
        <ele>312.57</ele>
        <time>2021-08-17T11:19:42Z</time>
      </trkpt>
      <trkpt lat="44.34965" lon="1.65811">
        <ele>313.05</ele>
        <time>2021-08-17T11:19:51Z</time>
      </trkpt>
      <trkpt lat="44.3496" lon="1.65841">
        <ele>314.01</ele>
        <time>2021-08-17T11:19:58Z</time>
      </trkpt>
      <trkpt lat="44.3496" lon="1.65875">
        <ele>314.01</ele>
        <time>2021-08-17T11:20:05Z</time>
      </trkpt>
      <trkpt lat="44.34961" lon="1.65878">
        <ele>314.01</ele>
        <time>2021-08-17T11:20:06Z</time>
      </trkpt>
      <trkpt lat="44.34964" lon="1.65879">
        <ele>314.01</ele>
        <time>2021-08-17T11:20:07Z</time>
      </trkpt>
      <trkpt lat="44.34967" lon="1.65881">
        <ele>314.01</ele>
        <time>2021-08-17T11:20:08Z</time>
      </trkpt>
      <trkpt lat="44.3497" lon="1.65884">
        <ele>314.01</ele>
        <time>2021-08-17T11:20:09Z</time>
      </trkpt>
      <trkpt lat="44.34973" lon="1.65885">
        <ele>314.01</ele>
        <time>2021-08-17T11:20:10Z</time>
      </trkpt>
      <trkpt lat="44.35003" lon="1.65899">
        <ele>314.01</ele>
        <time>2021-08-17T11:20:18Z</time>
      </trkpt>
      <trkpt lat="44.35022" lon="1.65908">
        <ele>313.05</ele>
        <time>2021-08-17T11:20:22Z</time>
      </trkpt>
      <trkpt lat="44.35026" lon="1.65911">
        <ele>313.05</ele>
        <time>2021-08-17T11:20:23Z</time>
      </trkpt>
      <trkpt lat="44.35063" lon="1.6593">
        <ele>312.57</ele>
        <time>2021-08-17T11:20:31Z</time>
      </trkpt>
      <trkpt lat="44.35081" lon="1.65938">
        <ele>311.6</ele>
        <time>2021-08-17T11:20:35Z</time>
      </trkpt>
      <trkpt lat="44.35085" lon="1.65941">
        <ele>311.6</ele>
        <time>2021-08-17T11:20:36Z</time>
      </trkpt>
      <trkpt lat="44.35089" lon="1.65943">
        <ele>311.6</ele>
        <time>2021-08-17T11:20:37Z</time>
      </trkpt>
      <trkpt lat="44.35098" lon="1.65946">
        <ele>310.64</ele>
        <time>2021-08-17T11:20:39Z</time>
      </trkpt>
      <trkpt lat="44.35116" lon="1.65951">
        <ele>310.16</ele>
        <time>2021-08-17T11:20:43Z</time>
      </trkpt>
      <trkpt lat="44.35144" lon="1.65966">
        <ele>310.64</ele>
        <time>2021-08-17T11:20:50Z</time>
      </trkpt>
      <trkpt lat="44.35169" lon="1.65976">
        <ele>310.16</ele>
        <time>2021-08-17T11:20:56Z</time>
      </trkpt>
      <trkpt lat="44.35187" lon="1.65983">
        <ele>310.16</ele>
        <time>2021-08-17T11:21:00Z</time>
      </trkpt>
      <trkpt lat="44.35193" lon="1.65984">
        <ele>310.16</ele>
        <time>2021-08-17T11:21:01Z</time>
      </trkpt>
      <trkpt lat="44.35203" lon="1.65987">
        <ele>310.16</ele>
        <time>2021-08-17T11:21:03Z</time>
      </trkpt>
      <trkpt lat="44.35253" lon="1.66009">
        <ele>310.16</ele>
        <time>2021-08-17T11:21:13Z</time>
      </trkpt>
      <trkpt lat="44.3529" lon="1.66025">
        <ele>309.68</ele>
        <time>2021-08-17T11:21:21Z</time>
      </trkpt>
      <trkpt lat="44.35299" lon="1.66029">
        <ele>309.2</ele>
        <time>2021-08-17T11:21:23Z</time>
      </trkpt>
      <trkpt lat="44.35303" lon="1.66031">
        <ele>309.2</ele>
        <time>2021-08-17T11:21:24Z</time>
      </trkpt>
      <trkpt lat="44.35307" lon="1.66035">
        <ele>309.2</ele>
        <time>2021-08-17T11:21:25Z</time>
      </trkpt>
      <trkpt lat="44.35308" lon="1.66039">
        <ele>308.72</ele>
        <time>2021-08-17T11:21:26Z</time>
      </trkpt>
      <trkpt lat="44.35308" lon="1.66045">
        <ele>308.72</ele>
        <time>2021-08-17T11:21:27Z</time>
      </trkpt>
      <trkpt lat="44.35307" lon="1.6605">
        <ele>308.72</ele>
        <time>2021-08-17T11:21:28Z</time>
      </trkpt>
      <trkpt lat="44.35306" lon="1.66055">
        <ele>308.72</ele>
        <time>2021-08-17T11:21:29Z</time>
      </trkpt>
      <trkpt lat="44.35298" lon="1.66115">
        <ele>307.28</ele>
        <time>2021-08-17T11:21:39Z</time>
      </trkpt>
      <trkpt lat="44.35298" lon="1.66122">
        <ele>307.28</ele>
        <time>2021-08-17T11:21:40Z</time>
      </trkpt>
      <trkpt lat="44.35291" lon="1.66182">
        <ele>306.8</ele>
        <time>2021-08-17T11:21:49Z</time>
      </trkpt>
      <trkpt lat="44.35286" lon="1.66216">
        <ele>305.36</ele>
        <time>2021-08-17T11:21:55Z</time>
      </trkpt>
      <trkpt lat="44.35286" lon="1.66216">
        <ele>305.36</ele>
        <time>2021-08-17T11:22:00Z</time>
      </trkpt>
      <trkpt lat="44.35284" lon="1.66215">
        <ele>304.88</ele>
        <time>2021-08-17T11:22:08Z</time>
      </trkpt>
      <trkpt lat="44.35284" lon="1.66213">
        <ele>304.88</ele>
        <time>2021-08-17T11:22:34Z</time>
      </trkpt>
      <trkpt lat="44.35282" lon="1.66212">
        <ele>304.88</ele>
        <time>2021-08-17T11:22:58Z</time>
      </trkpt>
      <trkpt lat="44.35281" lon="1.66212">
        <ele>304.88</ele>
        <time>2021-08-17T11:23:18Z</time>
      </trkpt>
      <trkpt lat="44.35281" lon="1.66212">
        <ele>304.88</ele>
        <time>2021-08-17T11:23:36Z</time>
      </trkpt>
      <trkpt lat="44.35283" lon="1.66213">
        <ele>304.88</ele>
        <time>2021-08-17T11:23:59Z</time>
      </trkpt>
      <trkpt lat="44.35283" lon="1.66213">
        <ele>304.88</ele>
        <time>2021-08-17T11:24:22Z</time>
      </trkpt>
      <trkpt lat="44.35283" lon="1.66211">
        <ele>304.88</ele>
        <time>2021-08-17T11:24:39Z</time>
      </trkpt>
      <trkpt lat="44.35283" lon="1.66213">
        <ele>304.88</ele>
        <time>2021-08-17T11:25:01Z</time>
      </trkpt>
      <trkpt lat="44.35283" lon="1.66215">
        <ele>304.88</ele>
        <time>2021-08-17T11:25:21Z</time>
      </trkpt>
      <trkpt lat="44.35283" lon="1.66213">
        <ele>304.88</ele>
        <time>2021-08-17T11:25:40Z</time>
      </trkpt>
      <trkpt lat="44.35281" lon="1.66212">
        <ele>304.88</ele>
        <time>2021-08-17T11:25:58Z</time>
      </trkpt>
      <trkpt lat="44.3528" lon="1.66211">
        <ele>304.88</ele>
        <time>2021-08-17T11:26:17Z</time>
      </trkpt>
      <trkpt lat="44.3528" lon="1.66211">
        <ele>304.88</ele>
        <time>2021-08-17T11:26:30Z</time>
      </trkpt>
      <trkpt lat="44.35281" lon="1.66211">
        <ele>304.88</ele>
        <time>2021-08-17T11:26:45Z</time>
      </trkpt>
      <trkpt lat="44.35283" lon="1.66213">
        <ele>304.88</ele>
        <time>2021-08-17T11:27:03Z</time>
      </trkpt>
      <trkpt lat="44.35284" lon="1.66214">
        <ele>304.88</ele>
        <time>2021-08-17T11:27:21Z</time>
      </trkpt>
      <trkpt lat="44.35283" lon="1.66214">
        <ele>304.88</ele>
        <time>2021-08-17T11:27:36Z</time>
      </trkpt>
      <trkpt lat="44.35283" lon="1.66214">
        <ele>304.88</ele>
        <time>2021-08-17T11:27:59Z</time>
      </trkpt>
      <trkpt lat="44.35283" lon="1.66213">
        <ele>304.88</ele>
        <time>2021-08-17T11:28:15Z</time>
      </trkpt>
      <trkpt lat="44.35283" lon="1.66213">
        <ele>304.88</ele>
        <time>2021-08-17T11:28:35Z</time>
      </trkpt>
      <trkpt lat="44.35284" lon="1.66214">
        <ele>304.88</ele>
        <time>2021-08-17T11:28:51Z</time>
      </trkpt>
      <trkpt lat="44.35283" lon="1.66212">
        <ele>304.88</ele>
        <time>2021-08-17T11:29:13Z</time>
      </trkpt>
      <trkpt lat="44.35284" lon="1.66212">
        <ele>304.88</ele>
        <time>2021-08-17T11:29:27Z</time>
      </trkpt>
      <trkpt lat="44.35282" lon="1.66212">
        <ele>304.88</ele>
        <time>2021-08-17T11:29:34Z</time>
      </trkpt>
      <trkpt lat="44.35283" lon="1.66213">
        <ele>304.88</ele>
        <time>2021-08-17T11:29:55Z</time>
      </trkpt>
      <trkpt lat="44.35283" lon="1.66213">
        <ele>304.88</ele>
        <time>2021-08-17T11:30:13Z</time>
      </trkpt>
      <trkpt lat="44.35284" lon="1.66214">
        <ele>304.88</ele>
        <time>2021-08-17T11:30:31Z</time>
      </trkpt>
      <trkpt lat="44.35284" lon="1.66215">
        <ele>304.88</ele>
        <time>2021-08-17T11:30:50Z</time>
      </trkpt>
      <trkpt lat="44.35284" lon="1.66215">
        <ele>305.84</ele>
        <time>2021-08-17T11:31:06Z</time>
      </trkpt>
      <trkpt lat="44.35282" lon="1.66213">
        <ele>305.84</ele>
        <time>2021-08-17T11:31:25Z</time>
      </trkpt>
      <trkpt lat="44.35282" lon="1.66213">
        <ele>305.84</ele>
        <time>2021-08-17T11:31:48Z</time>
      </trkpt>
      <trkpt lat="44.35281" lon="1.66211">
        <ele>305.84</ele>
        <time>2021-08-17T11:32:10Z</time>
      </trkpt>
      <trkpt lat="44.35281" lon="1.6621">
        <ele>305.84</ele>
        <time>2021-08-17T11:32:29Z</time>
      </trkpt>
      <trkpt lat="44.35281" lon="1.66211">
        <ele>305.84</ele>
        <time>2021-08-17T11:32:45Z</time>
      </trkpt>
      <trkpt lat="44.35281" lon="1.66212">
        <ele>305.84</ele>
        <time>2021-08-17T11:33:06Z</time>
      </trkpt>
      <trkpt lat="44.35281" lon="1.66212">
        <ele>305.36</ele>
        <time>2021-08-17T11:33:24Z</time>
      </trkpt>
      <trkpt lat="44.35282" lon="1.66212">
        <ele>305.36</ele>
        <time>2021-08-17T11:33:41Z</time>
      </trkpt>
      <trkpt lat="44.35283" lon="1.66212">
        <ele>306.32</ele>
        <time>2021-08-17T11:34:00Z</time>
      </trkpt>
      <trkpt lat="44.35281" lon="1.66218">
        <ele>306.32</ele>
        <time>2021-08-17T11:34:06Z</time>
      </trkpt>
      <trkpt lat="44.35281" lon="1.6622">
        <ele>306.32</ele>
        <time>2021-08-17T11:34:09Z</time>
      </trkpt>
      <trkpt lat="44.35278" lon="1.66221">
        <ele>306.32</ele>
        <time>2021-08-17T11:34:12Z</time>
      </trkpt>
      <trkpt lat="44.35276" lon="1.66221">
        <ele>306.32</ele>
        <time>2021-08-17T11:34:13Z</time>
      </trkpt>
      <trkpt lat="44.35274" lon="1.66221">
        <ele>306.32</ele>
        <time>2021-08-17T11:34:14Z</time>
      </trkpt>
      <trkpt lat="44.35253" lon="1.66227">
        <ele>306.8</ele>
        <time>2021-08-17T11:34:22Z</time>
      </trkpt>
      <trkpt lat="44.35234" lon="1.66233">
        <ele>306.8</ele>
        <time>2021-08-17T11:34:28Z</time>
      </trkpt>
      <trkpt lat="44.35208" lon="1.66242">
        <ele>306.8</ele>
        <time>2021-08-17T11:34:35Z</time>
      </trkpt>
      <trkpt lat="44.35181" lon="1.66253">
        <ele>307.28</ele>
        <time>2021-08-17T11:34:43Z</time>
      </trkpt>
      <trkpt lat="44.35159" lon="1.66263">
        <ele>308.24</ele>
        <time>2021-08-17T11:34:51Z</time>
      </trkpt>
      <trkpt lat="44.35142" lon="1.66269">
        <ele>309.2</ele>
        <time>2021-08-17T11:34:58Z</time>
      </trkpt>
      <trkpt lat="44.3514" lon="1.66271">
        <ele>309.2</ele>
        <time>2021-08-17T11:34:59Z</time>
      </trkpt>
      <trkpt lat="44.35139" lon="1.66274">
        <ele>309.2</ele>
        <time>2021-08-17T11:35:00Z</time>
      </trkpt>
      <trkpt lat="44.35138" lon="1.66276">
        <ele>309.2</ele>
        <time>2021-08-17T11:35:01Z</time>
      </trkpt>
      <trkpt lat="44.35137" lon="1.66279">
        <ele>309.2</ele>
        <time>2021-08-17T11:35:02Z</time>
      </trkpt>
      <trkpt lat="44.35136" lon="1.66311">
        <ele>309.2</ele>
        <time>2021-08-17T11:35:10Z</time>
      </trkpt>
      <trkpt lat="44.35137" lon="1.66344">
        <ele>309.68</ele>
        <time>2021-08-17T11:35:19Z</time>
      </trkpt>
      <trkpt lat="44.35139" lon="1.66374">
        <ele>310.16</ele>
        <time>2021-08-17T11:35:27Z</time>
      </trkpt>
      <trkpt lat="44.35134" lon="1.66405">
        <ele>310.64</ele>
        <time>2021-08-17T11:35:35Z</time>
      </trkpt>
      <trkpt lat="44.35129" lon="1.66432">
        <ele>312.09</ele>
        <time>2021-08-17T11:35:43Z</time>
      </trkpt>
      <trkpt lat="44.35124" lon="1.66451">
        <ele>312.57</ele>
        <time>2021-08-17T11:35:49Z</time>
      </trkpt>
      <trkpt lat="44.35124" lon="1.66454">
        <ele>312.57</ele>
        <time>2021-08-17T11:35:50Z</time>
      </trkpt>
      <trkpt lat="44.35123" lon="1.66457">
        <ele>313.05</ele>
        <time>2021-08-17T11:35:51Z</time>
      </trkpt>
      <trkpt lat="44.35113" lon="1.66486">
        <ele>313.05</ele>
        <time>2021-08-17T11:35:59Z</time>
      </trkpt>
      <trkpt lat="44.35104" lon="1.66511">
        <ele>313.53</ele>
        <time>2021-08-17T11:36:06Z</time>
      </trkpt>
      <trkpt lat="44.35093" lon="1.66536">
        <ele>313.53</ele>
        <time>2021-08-17T11:36:13Z</time>
      </trkpt>
      <trkpt lat="44.35082" lon="1.66559">
        <ele>314.49</ele>
        <time>2021-08-17T11:36:20Z</time>
      </trkpt>
      <trkpt lat="44.35069" lon="1.66583">
        <ele>314.49</ele>
        <time>2021-08-17T11:36:27Z</time>
      </trkpt>
      <trkpt lat="44.35061" lon="1.66619">
        <ele>314.97</ele>
        <time>2021-08-17T11:36:35Z</time>
      </trkpt>
      <trkpt lat="44.35064" lon="1.66667">
        <ele>315.93</ele>
        <time>2021-08-17T11:36:45Z</time>
      </trkpt>
      <trkpt lat="44.35068" lon="1.66709">
        <ele>316.89</ele>
        <time>2021-08-17T11:36:54Z</time>
      </trkpt>
      <trkpt lat="44.35062" lon="1.66746">
        <ele>317.37</ele>
        <time>2021-08-17T11:37:02Z</time>
      </trkpt>
      <trkpt lat="44.35054" lon="1.66784">
        <ele>317.37</ele>
        <time>2021-08-17T11:37:10Z</time>
      </trkpt>
      <trkpt lat="44.35051" lon="1.66825">
        <ele>317.85</ele>
        <time>2021-08-17T11:37:18Z</time>
      </trkpt>
      <trkpt lat="44.35053" lon="1.66829">
        <ele>317.85</ele>
        <time>2021-08-17T11:37:19Z</time>
      </trkpt>
      <trkpt lat="44.35056" lon="1.66831">
        <ele>318.33</ele>
        <time>2021-08-17T11:37:20Z</time>
      </trkpt>
      <trkpt lat="44.35075" lon="1.66845">
        <ele>318.33</ele>
        <time>2021-08-17T11:37:26Z</time>
      </trkpt>
      <trkpt lat="44.35077" lon="1.6685">
        <ele>318.33</ele>
        <time>2021-08-17T11:37:27Z</time>
      </trkpt>
      <trkpt lat="44.35077" lon="1.66855">
        <ele>318.81</ele>
        <time>2021-08-17T11:37:28Z</time>
      </trkpt>
      <trkpt lat="44.35077" lon="1.66859">
        <ele>318.81</ele>
        <time>2021-08-17T11:37:29Z</time>
      </trkpt>
      <trkpt lat="44.35077" lon="1.66864">
        <ele>318.81</ele>
        <time>2021-08-17T11:37:30Z</time>
      </trkpt>
      <trkpt lat="44.35076" lon="1.66869">
        <ele>318.81</ele>
        <time>2021-08-17T11:37:31Z</time>
      </trkpt>
      <trkpt lat="44.35075" lon="1.66874">
        <ele>318.81</ele>
        <time>2021-08-17T11:37:32Z</time>
      </trkpt>
      <trkpt lat="44.35073" lon="1.66878">
        <ele>318.81</ele>
        <time>2021-08-17T11:37:33Z</time>
      </trkpt>
      <trkpt lat="44.35066" lon="1.66919">
        <ele>319.3</ele>
        <time>2021-08-17T11:37:41Z</time>
      </trkpt>
      <trkpt lat="44.35059" lon="1.66954">
        <ele>319.3</ele>
        <time>2021-08-17T11:37:47Z</time>
      </trkpt>
      <trkpt lat="44.35054" lon="1.66976">
        <ele>317.37</ele>
        <time>2021-08-17T11:37:50Z</time>
      </trkpt>
      <trkpt lat="44.35039" lon="1.67031">
        <ele>318.81</ele>
        <time>2021-08-17T11:37:59Z</time>
      </trkpt>
      <trkpt lat="44.35031" lon="1.67058">
        <ele>319.3</ele>
        <time>2021-08-17T11:38:05Z</time>
      </trkpt>
      <trkpt lat="44.35018" lon="1.67093">
        <ele>320.74</ele>
        <time>2021-08-17T11:38:15Z</time>
      </trkpt>
      <trkpt lat="44.35006" lon="1.67116">
        <ele>321.22</ele>
        <time>2021-08-17T11:38:22Z</time>
      </trkpt>
      <trkpt lat="44.34998" lon="1.6714">
        <ele>321.7</ele>
        <time>2021-08-17T11:38:29Z</time>
      </trkpt>
      <trkpt lat="44.3499" lon="1.67168">
        <ele>322.18</ele>
        <time>2021-08-17T11:38:36Z</time>
      </trkpt>
      <trkpt lat="44.3498" lon="1.67198">
        <ele>323.14</ele>
        <time>2021-08-17T11:38:43Z</time>
      </trkpt>
      <trkpt lat="44.34965" lon="1.6724">
        <ele>323.62</ele>
        <time>2021-08-17T11:38:53Z</time>
      </trkpt>
      <trkpt lat="44.34953" lon="1.67276">
        <ele>323.62</ele>
        <time>2021-08-17T11:39:01Z</time>
      </trkpt>
      <trkpt lat="44.34939" lon="1.67283">
        <ele>323.62</ele>
        <time>2021-08-17T11:39:05Z</time>
      </trkpt>
      <trkpt lat="44.34903" lon="1.67263">
        <ele>323.62</ele>
        <time>2021-08-17T11:39:14Z</time>
      </trkpt>
      <trkpt lat="44.34863" lon="1.67247">
        <ele>322.66</ele>
        <time>2021-08-17T11:39:22Z</time>
      </trkpt>
      <trkpt lat="44.3484" lon="1.67241">
        <ele>321.7</ele>
        <time>2021-08-17T11:39:26Z</time>
      </trkpt>
      <trkpt lat="44.34811" lon="1.67234">
        <ele>321.7</ele>
        <time>2021-08-17T11:39:31Z</time>
      </trkpt>
      <trkpt lat="44.34805" lon="1.67234">
        <ele>321.7</ele>
        <time>2021-08-17T11:39:32Z</time>
      </trkpt>
      <trkpt lat="44.34799" lon="1.67237">
        <ele>321.7</ele>
        <time>2021-08-17T11:39:33Z</time>
      </trkpt>
      <trkpt lat="44.34795" lon="1.67239">
        <ele>321.7</ele>
        <time>2021-08-17T11:39:34Z</time>
      </trkpt>
      <trkpt lat="44.3479" lon="1.67243">
        <ele>321.7</ele>
        <time>2021-08-17T11:39:35Z</time>
      </trkpt>
      <trkpt lat="44.34786" lon="1.67247">
        <ele>321.7</ele>
        <time>2021-08-17T11:39:36Z</time>
      </trkpt>
      <trkpt lat="44.34773" lon="1.6726">
        <ele>321.7</ele>
        <time>2021-08-17T11:39:39Z</time>
      </trkpt>
      <trkpt lat="44.34769" lon="1.67263">
        <ele>321.7</ele>
        <time>2021-08-17T11:39:40Z</time>
      </trkpt>
      <trkpt lat="44.34764" lon="1.67265">
        <ele>321.7</ele>
        <time>2021-08-17T11:39:41Z</time>
      </trkpt>
      <trkpt lat="44.34749" lon="1.6727">
        <ele>321.7</ele>
        <time>2021-08-17T11:39:44Z</time>
      </trkpt>
      <trkpt lat="44.3473" lon="1.67274">
        <ele>321.7</ele>
        <time>2021-08-17T11:39:48Z</time>
      </trkpt>
      <trkpt lat="44.34719" lon="1.67274">
        <ele>321.7</ele>
        <time>2021-08-17T11:39:50Z</time>
      </trkpt>
      <trkpt lat="44.34714" lon="1.67272">
        <ele>320.74</ele>
        <time>2021-08-17T11:39:51Z</time>
      </trkpt>
      <trkpt lat="44.34709" lon="1.67269">
        <ele>320.74</ele>
        <time>2021-08-17T11:39:52Z</time>
      </trkpt>
      <trkpt lat="44.34695" lon="1.6726">
        <ele>321.22</ele>
        <time>2021-08-17T11:39:55Z</time>
      </trkpt>
      <trkpt lat="44.34689" lon="1.67256">
        <ele>321.22</ele>
        <time>2021-08-17T11:39:56Z</time>
      </trkpt>
      <trkpt lat="44.34678" lon="1.67251">
        <ele>320.74</ele>
        <time>2021-08-17T11:39:58Z</time>
      </trkpt>
      <trkpt lat="44.34633" lon="1.67233">
        <ele>320.74</ele>
        <time>2021-08-17T11:40:07Z</time>
      </trkpt>
      <trkpt lat="44.34587" lon="1.67211">
        <ele>320.26</ele>
        <time>2021-08-17T11:40:17Z</time>
      </trkpt>
      <trkpt lat="44.34552" lon="1.67192">
        <ele>321.7</ele>
        <time>2021-08-17T11:40:26Z</time>
      </trkpt>
      <trkpt lat="44.3452" lon="1.67183">
        <ele>322.18</ele>
        <time>2021-08-17T11:40:34Z</time>
      </trkpt>
      <trkpt lat="44.34486" lon="1.67177">
        <ele>323.14</ele>
        <time>2021-08-17T11:40:43Z</time>
      </trkpt>
      <trkpt lat="44.3445" lon="1.6717">
        <ele>323.14</ele>
        <time>2021-08-17T11:40:52Z</time>
      </trkpt>
      <trkpt lat="44.34433" lon="1.67166">
        <ele>323.14</ele>
        <time>2021-08-17T11:40:56Z</time>
      </trkpt>
      <trkpt lat="44.34429" lon="1.67166">
        <ele>323.14</ele>
        <time>2021-08-17T11:40:57Z</time>
      </trkpt>
      <trkpt lat="44.34424" lon="1.67165">
        <ele>323.14</ele>
        <time>2021-08-17T11:40:58Z</time>
      </trkpt>
      <trkpt lat="44.34387" lon="1.67156">
        <ele>323.14</ele>
        <time>2021-08-17T11:41:06Z</time>
      </trkpt>
      <trkpt lat="44.34343" lon="1.67146">
        <ele>323.14</ele>
        <time>2021-08-17T11:41:15Z</time>
      </trkpt>
      <trkpt lat="44.343" lon="1.67135">
        <ele>323.62</ele>
        <time>2021-08-17T11:41:24Z</time>
      </trkpt>
      <trkpt lat="44.34284" lon="1.67125">
        <ele>324.1</ele>
        <time>2021-08-17T11:41:28Z</time>
      </trkpt>
      <trkpt lat="44.34271" lon="1.67109">
        <ele>324.1</ele>
        <time>2021-08-17T11:41:32Z</time>
      </trkpt>
      <trkpt lat="44.34269" lon="1.67104">
        <ele>324.1</ele>
        <time>2021-08-17T11:41:33Z</time>
      </trkpt>
      <trkpt lat="44.34256" lon="1.67085">
        <ele>324.1</ele>
        <time>2021-08-17T11:41:37Z</time>
      </trkpt>
      <trkpt lat="44.34248" lon="1.67076">
        <ele>324.1</ele>
        <time>2021-08-17T11:41:39Z</time>
      </trkpt>
      <trkpt lat="44.34244" lon="1.67073">
        <ele>324.1</ele>
        <time>2021-08-17T11:41:40Z</time>
      </trkpt>
      <trkpt lat="44.34236" lon="1.67066">
        <ele>324.1</ele>
        <time>2021-08-17T11:41:42Z</time>
      </trkpt>
      <trkpt lat="44.34214" lon="1.6705">
        <ele>324.1</ele>
        <time>2021-08-17T11:41:47Z</time>
      </trkpt>
      <trkpt lat="44.3421" lon="1.67048">
        <ele>324.1</ele>
        <time>2021-08-17T11:41:48Z</time>
      </trkpt>
      <trkpt lat="44.34205" lon="1.67047">
        <ele>324.1</ele>
        <time>2021-08-17T11:41:49Z</time>
      </trkpt>
      <trkpt lat="44.34196" lon="1.67045">
        <ele>324.1</ele>
        <time>2021-08-17T11:41:51Z</time>
      </trkpt>
      <trkpt lat="44.34191" lon="1.67046">
        <ele>324.1</ele>
        <time>2021-08-17T11:41:52Z</time>
      </trkpt>
      <trkpt lat="44.34182" lon="1.67047">
        <ele>324.1</ele>
        <time>2021-08-17T11:41:54Z</time>
      </trkpt>
      <trkpt lat="44.34178" lon="1.6705">
        <ele>324.1</ele>
        <time>2021-08-17T11:41:55Z</time>
      </trkpt>
      <trkpt lat="44.34174" lon="1.67054">
        <ele>324.1</ele>
        <time>2021-08-17T11:41:56Z</time>
      </trkpt>
      <trkpt lat="44.34171" lon="1.67059">
        <ele>324.1</ele>
        <time>2021-08-17T11:41:57Z</time>
      </trkpt>
      <trkpt lat="44.34169" lon="1.67063">
        <ele>324.1</ele>
        <time>2021-08-17T11:41:58Z</time>
      </trkpt>
      <trkpt lat="44.34167" lon="1.67069">
        <ele>324.1</ele>
        <time>2021-08-17T11:41:59Z</time>
      </trkpt>
      <trkpt lat="44.34163" lon="1.6708">
        <ele>324.1</ele>
        <time>2021-08-17T11:42:01Z</time>
      </trkpt>
      <trkpt lat="44.34154" lon="1.67104">
        <ele>324.1</ele>
        <time>2021-08-17T11:42:05Z</time>
      </trkpt>
      <trkpt lat="44.34153" lon="1.67111">
        <ele>324.1</ele>
        <time>2021-08-17T11:42:06Z</time>
      </trkpt>
      <trkpt lat="44.34147" lon="1.67148">
        <ele>324.1</ele>
        <time>2021-08-17T11:42:11Z</time>
      </trkpt>
      <trkpt lat="44.34146" lon="1.67155">
        <ele>324.1</ele>
        <time>2021-08-17T11:42:12Z</time>
      </trkpt>
      <trkpt lat="44.34145" lon="1.67161">
        <ele>324.1</ele>
        <time>2021-08-17T11:42:13Z</time>
      </trkpt>
      <trkpt lat="44.34139" lon="1.67216">
        <ele>324.1</ele>
        <time>2021-08-17T11:42:21Z</time>
      </trkpt>
      <trkpt lat="44.34139" lon="1.67223">
        <ele>324.1</ele>
        <time>2021-08-17T11:42:22Z</time>
      </trkpt>
      <trkpt lat="44.34138" lon="1.67231">
        <ele>324.1</ele>
        <time>2021-08-17T11:42:23Z</time>
      </trkpt>
      <trkpt lat="44.34138" lon="1.67238">
        <ele>324.1</ele>
        <time>2021-08-17T11:42:24Z</time>
      </trkpt>
      <trkpt lat="44.34137" lon="1.67253">
        <ele>324.1</ele>
        <time>2021-08-17T11:42:26Z</time>
      </trkpt>
      <trkpt lat="44.34128" lon="1.67311">
        <ele>322.66</ele>
        <time>2021-08-17T11:42:34Z</time>
      </trkpt>
      <trkpt lat="44.34127" lon="1.67318">
        <ele>322.66</ele>
        <time>2021-08-17T11:42:35Z</time>
      </trkpt>
      <trkpt lat="44.34126" lon="1.67325">
        <ele>322.66</ele>
        <time>2021-08-17T11:42:36Z</time>
      </trkpt>
      <trkpt lat="44.34122" lon="1.67344">
        <ele>322.66</ele>
        <time>2021-08-17T11:42:39Z</time>
      </trkpt>
      <trkpt lat="44.34121" lon="1.67357">
        <ele>322.66</ele>
        <time>2021-08-17T11:42:41Z</time>
      </trkpt>
      <trkpt lat="44.34114" lon="1.67399">
        <ele>322.66</ele>
        <time>2021-08-17T11:42:48Z</time>
      </trkpt>
      <trkpt lat="44.34108" lon="1.67454">
        <ele>322.18</ele>
        <time>2021-08-17T11:42:56Z</time>
      </trkpt>
      <trkpt lat="44.34104" lon="1.67486">
        <ele>322.18</ele>
        <time>2021-08-17T11:43:00Z</time>
      </trkpt>
      <trkpt lat="44.34103" lon="1.67494">
        <ele>322.18</ele>
        <time>2021-08-17T11:43:01Z</time>
      </trkpt>
      <trkpt lat="44.34098" lon="1.67538">
        <ele>322.18</ele>
        <time>2021-08-17T11:43:07Z</time>
      </trkpt>
      <trkpt lat="44.34097" lon="1.67545">
        <ele>322.18</ele>
        <time>2021-08-17T11:43:08Z</time>
      </trkpt>
      <trkpt lat="44.34089" lon="1.67606">
        <ele>322.18</ele>
        <time>2021-08-17T11:43:17Z</time>
      </trkpt>
      <trkpt lat="44.34082" lon="1.67673">
        <ele>322.18</ele>
        <time>2021-08-17T11:43:27Z</time>
      </trkpt>
      <trkpt lat="44.34077" lon="1.67728">
        <ele>322.18</ele>
        <time>2021-08-17T11:43:35Z</time>
      </trkpt>
      <trkpt lat="44.34069" lon="1.67801">
        <ele>320.74</ele>
        <time>2021-08-17T11:43:44Z</time>
      </trkpt>
      <trkpt lat="44.34062" lon="1.67868">
        <ele>319.3</ele>
        <time>2021-08-17T11:43:52Z</time>
      </trkpt>
      <trkpt lat="44.34055" lon="1.67937">
        <ele>316.41</ele>
        <time>2021-08-17T11:44:00Z</time>
      </trkpt>
      <trkpt lat="44.34048" lon="1.68019">
        <ele>313.53</ele>
        <time>2021-08-17T11:44:08Z</time>
      </trkpt>
      <trkpt lat="44.34038" lon="1.681">
        <ele>311.12</ele>
        <time>2021-08-17T11:44:15Z</time>
      </trkpt>
      <trkpt lat="44.3403" lon="1.6819">
        <ele>308.72</ele>
        <time>2021-08-17T11:44:23Z</time>
      </trkpt>
      <trkpt lat="44.3403" lon="1.68235">
        <ele>306.8</ele>
        <time>2021-08-17T11:44:27Z</time>
      </trkpt>
      <trkpt lat="44.34033" lon="1.68318">
        <ele>303.91</ele>
        <time>2021-08-17T11:44:34Z</time>
      </trkpt>
      <trkpt lat="44.34035" lon="1.68393">
        <ele>300.55</ele>
        <time>2021-08-17T11:44:41Z</time>
      </trkpt>
      <trkpt lat="44.34037" lon="1.68415">
        <ele>299.11</ele>
        <time>2021-08-17T11:44:43Z</time>
      </trkpt>
      <trkpt lat="44.34043" lon="1.68495">
        <ele>296.22</ele>
        <time>2021-08-17T11:44:50Z</time>
      </trkpt>
      <trkpt lat="44.34049" lon="1.68583">
        <ele>295.26</ele>
        <time>2021-08-17T11:44:58Z</time>
      </trkpt>
      <trkpt lat="44.34049" lon="1.68593">
        <ele>295.26</ele>
        <time>2021-08-17T11:44:59Z</time>
      </trkpt>
      <trkpt lat="44.34048" lon="1.68602">
        <ele>295.26</ele>
        <time>2021-08-17T11:45:00Z</time>
      </trkpt>
      <trkpt lat="44.34047" lon="1.68609">
        <ele>295.26</ele>
        <time>2021-08-17T11:45:01Z</time>
      </trkpt>
      <trkpt lat="44.34045" lon="1.68615">
        <ele>296.7</ele>
        <time>2021-08-17T11:45:02Z</time>
      </trkpt>
      <trkpt lat="44.34043" lon="1.68621">
        <ele>296.7</ele>
        <time>2021-08-17T11:45:03Z</time>
      </trkpt>
      <trkpt lat="44.34038" lon="1.68634">
        <ele>298.15</ele>
        <time>2021-08-17T11:45:08Z</time>
      </trkpt>
      <trkpt lat="44.34033" lon="1.68648">
        <ele>299.11</ele>
        <time>2021-08-17T11:45:16Z</time>
      </trkpt>
      <trkpt lat="44.34033" lon="1.68657">
        <ele>299.59</ele>
        <time>2021-08-17T11:45:21Z</time>
      </trkpt>
      <trkpt lat="44.34033" lon="1.68658">
        <ele>299.59</ele>
        <time>2021-08-17T11:45:22Z</time>
      </trkpt>
      <trkpt lat="44.34033" lon="1.6866">
        <ele>300.55</ele>
        <time>2021-08-17T11:45:23Z</time>
      </trkpt>
      <trkpt lat="44.34033" lon="1.68662">
        <ele>300.55</ele>
        <time>2021-08-17T11:45:24Z</time>
      </trkpt>
      <trkpt lat="44.34032" lon="1.68664">
        <ele>300.55</ele>
        <time>2021-08-17T11:45:25Z</time>
      </trkpt>
      <trkpt lat="44.34032" lon="1.68665">
        <ele>301.03</ele>
        <time>2021-08-17T11:45:26Z</time>
      </trkpt>
      <trkpt lat="44.34031" lon="1.68667">
        <ele>301.03</ele>
        <time>2021-08-17T11:45:27Z</time>
      </trkpt>
      <trkpt lat="44.34031" lon="1.68669">
        <ele>301.03</ele>
        <time>2021-08-17T11:45:28Z</time>
      </trkpt>
      <trkpt lat="44.34031" lon="1.68671">
        <ele>301.03</ele>
        <time>2021-08-17T11:45:29Z</time>
      </trkpt>
      <trkpt lat="44.34031" lon="1.68672">
        <ele>301.03</ele>
        <time>2021-08-17T11:45:30Z</time>
      </trkpt>
      <trkpt lat="44.34031" lon="1.68674">
        <ele>301.03</ele>
        <time>2021-08-17T11:45:31Z</time>
      </trkpt>
      <trkpt lat="44.34031" lon="1.68676">
        <ele>301.51</ele>
        <time>2021-08-17T11:45:32Z</time>
      </trkpt>
      <trkpt lat="44.34031" lon="1.68677">
        <ele>301.51</ele>
        <time>2021-08-17T11:45:33Z</time>
      </trkpt>
      <trkpt lat="44.34031" lon="1.68679">
        <ele>301.51</ele>
        <time>2021-08-17T11:45:34Z</time>
      </trkpt>
      <trkpt lat="44.34031" lon="1.68681">
        <ele>301.51</ele>
        <time>2021-08-17T11:45:35Z</time>
      </trkpt>
      <trkpt lat="44.34031" lon="1.68682">
        <ele>302.47</ele>
        <time>2021-08-17T11:45:36Z</time>
      </trkpt>
      <trkpt lat="44.34032" lon="1.68684">
        <ele>302.47</ele>
        <time>2021-08-17T11:45:37Z</time>
      </trkpt>
      <trkpt lat="44.34033" lon="1.68686">
        <ele>302.47</ele>
        <time>2021-08-17T11:45:38Z</time>
      </trkpt>
      <trkpt lat="44.34033" lon="1.68687">
        <ele>302.95</ele>
        <time>2021-08-17T11:45:39Z</time>
      </trkpt>
      <trkpt lat="44.34033" lon="1.6869">
        <ele>302.95</ele>
        <time>2021-08-17T11:45:40Z</time>
      </trkpt>
      <trkpt lat="44.34033" lon="1.68692">
        <ele>302.95</ele>
        <time>2021-08-17T11:45:41Z</time>
      </trkpt>
      <trkpt lat="44.34033" lon="1.68694">
        <ele>302.95</ele>
        <time>2021-08-17T11:45:42Z</time>
      </trkpt>
      <trkpt lat="44.34033" lon="1.68696">
        <ele>302.95</ele>
        <time>2021-08-17T11:45:43Z</time>
      </trkpt>
      <trkpt lat="44.34034" lon="1.68698">
        <ele>302.95</ele>
        <time>2021-08-17T11:45:44Z</time>
      </trkpt>
      <trkpt lat="44.34034" lon="1.687">
        <ele>302.95</ele>
        <time>2021-08-17T11:45:45Z</time>
      </trkpt>
      <trkpt lat="44.34035" lon="1.68701">
        <ele>302.95</ele>
        <time>2021-08-17T11:45:46Z</time>
      </trkpt>
      <trkpt lat="44.34036" lon="1.68703">
        <ele>303.43</ele>
        <time>2021-08-17T11:45:47Z</time>
      </trkpt>
      <trkpt lat="44.34037" lon="1.68704">
        <ele>303.43</ele>
        <time>2021-08-17T11:45:48Z</time>
      </trkpt>
      <trkpt lat="44.34043" lon="1.68716">
        <ele>304.88</ele>
        <time>2021-08-17T11:45:56Z</time>
      </trkpt>
      <trkpt lat="44.34043" lon="1.68718">
        <ele>304.88</ele>
        <time>2021-08-17T11:45:57Z</time>
      </trkpt>
      <trkpt lat="44.34044" lon="1.68719">
        <ele>304.88</ele>
        <time>2021-08-17T11:45:58Z</time>
      </trkpt>
      <trkpt lat="44.34045" lon="1.68721">
        <ele>305.36</ele>
        <time>2021-08-17T11:45:59Z</time>
      </trkpt>
      <trkpt lat="44.34046" lon="1.68723">
        <ele>305.36</ele>
        <time>2021-08-17T11:46:00Z</time>
      </trkpt>
      <trkpt lat="44.34046" lon="1.68724">
        <ele>305.36</ele>
        <time>2021-08-17T11:46:01Z</time>
      </trkpt>
      <trkpt lat="44.34047" lon="1.68726">
        <ele>305.84</ele>
        <time>2021-08-17T11:46:02Z</time>
      </trkpt>
      <trkpt lat="44.34048" lon="1.68728">
        <ele>305.84</ele>
        <time>2021-08-17T11:46:03Z</time>
      </trkpt>
      <trkpt lat="44.34049" lon="1.68729">
        <ele>305.84</ele>
        <time>2021-08-17T11:46:04Z</time>
      </trkpt>
      <trkpt lat="44.34058" lon="1.68747">
        <ele>306.8</ele>
        <time>2021-08-17T11:46:14Z</time>
      </trkpt>
      <trkpt lat="44.34069" lon="1.68768">
        <ele>308.24</ele>
        <time>2021-08-17T11:46:24Z</time>
      </trkpt>
      <trkpt lat="44.34078" lon="1.6879">
        <ele>308.72</ele>
        <time>2021-08-17T11:46:33Z</time>
      </trkpt>
      <trkpt lat="44.34095" lon="1.68825">
        <ele>309.2</ele>
        <time>2021-08-17T11:46:44Z</time>
      </trkpt>
      <trkpt lat="44.34109" lon="1.68854">
        <ele>309.2</ele>
        <time>2021-08-17T11:46:51Z</time>
      </trkpt>
      <trkpt lat="44.3413" lon="1.68895">
        <ele>307.28</ele>
        <time>2021-08-17T11:46:58Z</time>
      </trkpt>
      <trkpt lat="44.34149" lon="1.68939">
        <ele>306.8</ele>
        <time>2021-08-17T11:47:05Z</time>
      </trkpt>
      <trkpt lat="44.34177" lon="1.68993">
        <ele>303.91</ele>
        <time>2021-08-17T11:47:13Z</time>
      </trkpt>
      <trkpt lat="44.34203" lon="1.6905">
        <ele>302.95</ele>
        <time>2021-08-17T11:47:21Z</time>
      </trkpt>
      <trkpt lat="44.34213" lon="1.69073">
        <ele>304.88</ele>
        <time>2021-08-17T11:47:25Z</time>
      </trkpt>
      <trkpt lat="44.34234" lon="1.69115">
        <ele>303.43</ele>
        <time>2021-08-17T11:47:32Z</time>
      </trkpt>
      <trkpt lat="44.34238" lon="1.69122">
        <ele>303.43</ele>
        <time>2021-08-17T11:47:33Z</time>
      </trkpt>
      <trkpt lat="44.34266" lon="1.69169">
        <ele>300.07</ele>
        <time>2021-08-17T11:47:39Z</time>
      </trkpt>
      <trkpt lat="44.34308" lon="1.69241">
        <ele>298.63</ele>
        <time>2021-08-17T11:47:48Z</time>
      </trkpt>
      <trkpt lat="44.34327" lon="1.69279">
        <ele>298.63</ele>
        <time>2021-08-17T11:47:53Z</time>
      </trkpt>
      <trkpt lat="44.3435" lon="1.6933">
        <ele>298.63</ele>
        <time>2021-08-17T11:48:00Z</time>
      </trkpt>
      <trkpt lat="44.34372" lon="1.69376">
        <ele>298.63</ele>
        <time>2021-08-17T11:48:08Z</time>
      </trkpt>
      <trkpt lat="44.34376" lon="1.69385">
        <ele>300.07</ele>
        <time>2021-08-17T11:48:10Z</time>
      </trkpt>
      <trkpt lat="44.34389" lon="1.69414">
        <ele>301.51</ele>
        <time>2021-08-17T11:48:18Z</time>
      </trkpt>
      <trkpt lat="44.34396" lon="1.69427">
        <ele>302.47</ele>
        <time>2021-08-17T11:48:24Z</time>
      </trkpt>
      <trkpt lat="44.34396" lon="1.6943">
        <ele>301.99</ele>
        <time>2021-08-17T11:48:25Z</time>
      </trkpt>
      <trkpt lat="44.34406" lon="1.69451">
        <ele>303.43</ele>
        <time>2021-08-17T11:48:34Z</time>
      </trkpt>
      <trkpt lat="44.34419" lon="1.69478">
        <ele>304.39</ele>
        <time>2021-08-17T11:48:45Z</time>
      </trkpt>
      <trkpt lat="44.34432" lon="1.69507">
        <ele>304.88</ele>
        <time>2021-08-17T11:48:55Z</time>
      </trkpt>
      <trkpt lat="44.34449" lon="1.69543">
        <ele>305.84</ele>
        <time>2021-08-17T11:49:06Z</time>
      </trkpt>
      <trkpt lat="44.34461" lon="1.69565">
        <ele>306.32</ele>
        <time>2021-08-17T11:49:14Z</time>
      </trkpt>
      <trkpt lat="44.3447" lon="1.69583">
        <ele>307.28</ele>
        <time>2021-08-17T11:49:21Z</time>
      </trkpt>
      <trkpt lat="44.34479" lon="1.69596">
        <ele>308.24</ele>
        <time>2021-08-17T11:49:27Z</time>
      </trkpt>
      <trkpt lat="44.3449" lon="1.69613">
        <ele>309.68</ele>
        <time>2021-08-17T11:49:36Z</time>
      </trkpt>
      <trkpt lat="44.34504" lon="1.69636">
        <ele>310.64</ele>
        <time>2021-08-17T11:49:47Z</time>
      </trkpt>
      <trkpt lat="44.34515" lon="1.69659">
        <ele>311.6</ele>
        <time>2021-08-17T11:49:56Z</time>
      </trkpt>
      <trkpt lat="44.34526" lon="1.69681">
        <ele>312.57</ele>
        <time>2021-08-17T11:50:05Z</time>
      </trkpt>
      <trkpt lat="44.34537" lon="1.69701">
        <ele>313.05</ele>
        <time>2021-08-17T11:50:14Z</time>
      </trkpt>
      <trkpt lat="44.34547" lon="1.69723">
        <ele>314.01</ele>
        <time>2021-08-17T11:50:23Z</time>
      </trkpt>
      <trkpt lat="44.3456" lon="1.69747">
        <ele>315.45</ele>
        <time>2021-08-17T11:50:33Z</time>
      </trkpt>
      <trkpt lat="44.34574" lon="1.69778">
        <ele>316.41</ele>
        <time>2021-08-17T11:50:43Z</time>
      </trkpt>
      <trkpt lat="44.3459" lon="1.69808">
        <ele>317.37</ele>
        <time>2021-08-17T11:50:52Z</time>
      </trkpt>
      <trkpt lat="44.3461" lon="1.69844">
        <ele>318.33</ele>
        <time>2021-08-17T11:51:03Z</time>
      </trkpt>
      <trkpt lat="44.34627" lon="1.69878">
        <ele>319.3</ele>
        <time>2021-08-17T11:51:13Z</time>
      </trkpt>
      <trkpt lat="44.34646" lon="1.69918">
        <ele>320.26</ele>
        <time>2021-08-17T11:51:25Z</time>
      </trkpt>
      <trkpt lat="44.34654" lon="1.69934">
        <ele>321.22</ele>
        <time>2021-08-17T11:51:31Z</time>
      </trkpt>
      <trkpt lat="44.34665" lon="1.69957">
        <ele>322.18</ele>
        <time>2021-08-17T11:51:39Z</time>
      </trkpt>
      <trkpt lat="44.34676" lon="1.69986">
        <ele>324.1</ele>
        <time>2021-08-17T11:51:48Z</time>
      </trkpt>
      <trkpt lat="44.34682" lon="1.70004">
        <ele>324.58</ele>
        <time>2021-08-17T11:51:55Z</time>
      </trkpt>
      <trkpt lat="44.34682" lon="1.70007">
        <ele>324.58</ele>
        <time>2021-08-17T11:51:56Z</time>
      </trkpt>
      <trkpt lat="44.34684" lon="1.70033">
        <ele>325.06</ele>
        <time>2021-08-17T11:52:03Z</time>
      </trkpt>
      <trkpt lat="44.34686" lon="1.70069">
        <ele>326.02</ele>
        <time>2021-08-17T11:52:11Z</time>
      </trkpt>
      <trkpt lat="44.34686" lon="1.70102">
        <ele>326.02</ele>
        <time>2021-08-17T11:52:18Z</time>
      </trkpt>
      <trkpt lat="44.34683" lon="1.70134">
        <ele>326.5</ele>
        <time>2021-08-17T11:52:25Z</time>
      </trkpt>
      <trkpt lat="44.34678" lon="1.70165">
        <ele>327.47</ele>
        <time>2021-08-17T11:52:32Z</time>
      </trkpt>
      <trkpt lat="44.34673" lon="1.70196">
        <ele>327.95</ele>
        <time>2021-08-17T11:52:39Z</time>
      </trkpt>
      <trkpt lat="44.34666" lon="1.70226">
        <ele>328.91</ele>
        <time>2021-08-17T11:52:46Z</time>
      </trkpt>
      <trkpt lat="44.34657" lon="1.70255">
        <ele>330.35</ele>
        <time>2021-08-17T11:52:54Z</time>
      </trkpt>
      <trkpt lat="44.34649" lon="1.70283">
        <ele>330.83</ele>
        <time>2021-08-17T11:53:02Z</time>
      </trkpt>
      <trkpt lat="44.34636" lon="1.70329">
        <ele>331.31</ele>
        <time>2021-08-17T11:53:11Z</time>
      </trkpt>
      <trkpt lat="44.34627" lon="1.70369">
        <ele>331.79</ele>
        <time>2021-08-17T11:53:20Z</time>
      </trkpt>
      <trkpt lat="44.34621" lon="1.70401">
        <ele>332.27</ele>
        <time>2021-08-17T11:53:27Z</time>
      </trkpt>
      <trkpt lat="44.34614" lon="1.70437">
        <ele>333.23</ele>
        <time>2021-08-17T11:53:35Z</time>
      </trkpt>
      <trkpt lat="44.34605" lon="1.7048">
        <ele>335.16</ele>
        <time>2021-08-17T11:53:45Z</time>
      </trkpt>
      <trkpt lat="44.34599" lon="1.70515">
        <ele>335.16</ele>
        <time>2021-08-17T11:53:52Z</time>
      </trkpt>
      <trkpt lat="44.34592" lon="1.70545">
        <ele>335.16</ele>
        <time>2021-08-17T11:53:57Z</time>
      </trkpt>
      <trkpt lat="44.34587" lon="1.70567">
        <ele>335.16</ele>
        <time>2021-08-17T11:54:00Z</time>
      </trkpt>
      <trkpt lat="44.34585" lon="1.70582">
        <ele>335.16</ele>
        <time>2021-08-17T11:54:02Z</time>
      </trkpt>
      <trkpt lat="44.34571" lon="1.70626">
        <ele>335.16</ele>
        <time>2021-08-17T11:54:09Z</time>
      </trkpt>
      <trkpt lat="44.34569" lon="1.70632">
        <ele>335.16</ele>
        <time>2021-08-17T11:54:10Z</time>
      </trkpt>
      <trkpt lat="44.34566" lon="1.70644">
        <ele>334.2</ele>
        <time>2021-08-17T11:54:12Z</time>
      </trkpt>
      <trkpt lat="44.34563" lon="1.70658">
        <ele>333.71</ele>
        <time>2021-08-17T11:54:14Z</time>
      </trkpt>
      <trkpt lat="44.34561" lon="1.70665">
        <ele>333.71</ele>
        <time>2021-08-17T11:54:15Z</time>
      </trkpt>
      <trkpt lat="44.3456" lon="1.70672">
        <ele>333.71</ele>
        <time>2021-08-17T11:54:16Z</time>
      </trkpt>
      <trkpt lat="44.3455" lon="1.70736">
        <ele>330.83</ele>
        <time>2021-08-17T11:54:24Z</time>
      </trkpt>
      <trkpt lat="44.3455" lon="1.70744">
        <ele>330.83</ele>
        <time>2021-08-17T11:54:25Z</time>
      </trkpt>
      <trkpt lat="44.34549" lon="1.70752">
        <ele>329.87</ele>
        <time>2021-08-17T11:54:26Z</time>
      </trkpt>
      <trkpt lat="44.34547" lon="1.70761">
        <ele>329.39</ele>
        <time>2021-08-17T11:54:27Z</time>
      </trkpt>
      <trkpt lat="44.34543" lon="1.7077">
        <ele>327.95</ele>
        <time>2021-08-17T11:54:28Z</time>
      </trkpt>
      <trkpt lat="44.3453" lon="1.70814">
        <ele>325.06</ele>
        <time>2021-08-17T11:54:32Z</time>
      </trkpt>
      <trkpt lat="44.34528" lon="1.70826">
        <ele>324.1</ele>
        <time>2021-08-17T11:54:33Z</time>
      </trkpt>
      <trkpt lat="44.34525" lon="1.70904">
        <ele>320.26</ele>
        <time>2021-08-17T11:54:39Z</time>
      </trkpt>
      <trkpt lat="44.34524" lon="1.70917">
        <ele>320.26</ele>
        <time>2021-08-17T11:54:40Z</time>
      </trkpt>
      <trkpt lat="44.34522" lon="1.70993">
        <ele>317.37</ele>
        <time>2021-08-17T11:54:46Z</time>
      </trkpt>
      <trkpt lat="44.34524" lon="1.71062">
        <ele>316.41</ele>
        <time>2021-08-17T11:54:52Z</time>
      </trkpt>
      <trkpt lat="44.34525" lon="1.71071">
        <ele>316.41</ele>
        <time>2021-08-17T11:54:53Z</time>
      </trkpt>
      <trkpt lat="44.34527" lon="1.7108">
        <ele>316.41</ele>
        <time>2021-08-17T11:54:54Z</time>
      </trkpt>
      <trkpt lat="44.3453" lon="1.71087">
        <ele>317.85</ele>
        <time>2021-08-17T11:54:55Z</time>
      </trkpt>
      <trkpt lat="44.34532" lon="1.71093">
        <ele>317.85</ele>
        <time>2021-08-17T11:54:56Z</time>
      </trkpt>
      <trkpt lat="44.34535" lon="1.71098">
        <ele>318.33</ele>
        <time>2021-08-17T11:54:57Z</time>
      </trkpt>
      <trkpt lat="44.34544" lon="1.71112">
        <ele>319.3</ele>
        <time>2021-08-17T11:55:02Z</time>
      </trkpt>
      <trkpt lat="44.34555" lon="1.7113">
        <ele>321.7</ele>
        <time>2021-08-17T11:55:13Z</time>
      </trkpt>
      <trkpt lat="44.34557" lon="1.71134">
        <ele>322.18</ele>
        <time>2021-08-17T11:55:16Z</time>
      </trkpt>
      <trkpt lat="44.34559" lon="1.71135">
        <ele>322.18</ele>
        <time>2021-08-17T11:55:17Z</time>
      </trkpt>
      <trkpt lat="44.3456" lon="1.71137">
        <ele>322.18</ele>
        <time>2021-08-17T11:55:18Z</time>
      </trkpt>
      <trkpt lat="44.34561" lon="1.71139">
        <ele>322.18</ele>
        <time>2021-08-17T11:55:19Z</time>
      </trkpt>
      <trkpt lat="44.34562" lon="1.7114">
        <ele>322.18</ele>
        <time>2021-08-17T11:55:20Z</time>
      </trkpt>
      <trkpt lat="44.34563" lon="1.71142">
        <ele>322.18</ele>
        <time>2021-08-17T11:55:21Z</time>
      </trkpt>
      <trkpt lat="44.3457" lon="1.71154">
        <ele>323.62</ele>
        <time>2021-08-17T11:55:30Z</time>
      </trkpt>
      <trkpt lat="44.3457" lon="1.71155">
        <ele>324.1</ele>
        <time>2021-08-17T11:55:31Z</time>
      </trkpt>
      <trkpt lat="44.3457" lon="1.71157">
        <ele>324.1</ele>
        <time>2021-08-17T11:55:32Z</time>
      </trkpt>
      <trkpt lat="44.3457" lon="1.71159">
        <ele>324.1</ele>
        <time>2021-08-17T11:55:33Z</time>
      </trkpt>
      <trkpt lat="44.3457" lon="1.71161">
        <ele>324.1</ele>
        <time>2021-08-17T11:55:34Z</time>
      </trkpt>
      <trkpt lat="44.3457" lon="1.71162">
        <ele>325.06</ele>
        <time>2021-08-17T11:55:35Z</time>
      </trkpt>
      <trkpt lat="44.34569" lon="1.71164">
        <ele>325.06</ele>
        <time>2021-08-17T11:55:36Z</time>
      </trkpt>
      <trkpt lat="44.34569" lon="1.71166">
        <ele>325.54</ele>
        <time>2021-08-17T11:55:37Z</time>
      </trkpt>
      <trkpt lat="44.34568" lon="1.71167">
        <ele>325.54</ele>
        <time>2021-08-17T11:55:38Z</time>
      </trkpt>
      <trkpt lat="44.34568" lon="1.71169">
        <ele>325.06</ele>
        <time>2021-08-17T11:55:39Z</time>
      </trkpt>
      <trkpt lat="44.34567" lon="1.7117">
        <ele>325.54</ele>
        <time>2021-08-17T11:55:40Z</time>
      </trkpt>
      <trkpt lat="44.34566" lon="1.71172">
        <ele>325.54</ele>
        <time>2021-08-17T11:55:41Z</time>
      </trkpt>
      <trkpt lat="44.34565" lon="1.71173">
        <ele>325.54</ele>
        <time>2021-08-17T11:55:42Z</time>
      </trkpt>
      <trkpt lat="44.34564" lon="1.71174">
        <ele>326.02</ele>
        <time>2021-08-17T11:55:43Z</time>
      </trkpt>
      <trkpt lat="44.34563" lon="1.71175">
        <ele>326.02</ele>
        <time>2021-08-17T11:55:44Z</time>
      </trkpt>
      <trkpt lat="44.34561" lon="1.71177">
        <ele>326.02</ele>
        <time>2021-08-17T11:55:45Z</time>
      </trkpt>
      <trkpt lat="44.3456" lon="1.71178">
        <ele>326.02</ele>
        <time>2021-08-17T11:55:46Z</time>
      </trkpt>
      <trkpt lat="44.34559" lon="1.71179">
        <ele>326.5</ele>
        <time>2021-08-17T11:55:47Z</time>
      </trkpt>
      <trkpt lat="44.34558" lon="1.7118">
        <ele>326.5</ele>
        <time>2021-08-17T11:55:48Z</time>
      </trkpt>
      <trkpt lat="44.34556" lon="1.71182">
        <ele>326.5</ele>
        <time>2021-08-17T11:55:49Z</time>
      </trkpt>
      <trkpt lat="44.34544" lon="1.71201">
        <ele>327.95</ele>
        <time>2021-08-17T11:55:59Z</time>
      </trkpt>
      <trkpt lat="44.34537" lon="1.71224">
        <ele>329.39</ele>
        <time>2021-08-17T11:56:09Z</time>
      </trkpt>
      <trkpt lat="44.3453" lon="1.71253">
        <ele>330.83</ele>
        <time>2021-08-17T11:56:20Z</time>
      </trkpt>
      <trkpt lat="44.34526" lon="1.71279">
        <ele>331.31</ele>
        <time>2021-08-17T11:56:29Z</time>
      </trkpt>
      <trkpt lat="44.34524" lon="1.71308">
        <ele>332.75</ele>
        <time>2021-08-17T11:56:39Z</time>
      </trkpt>
      <trkpt lat="44.34523" lon="1.71335">
        <ele>333.71</ele>
        <time>2021-08-17T11:56:47Z</time>
      </trkpt>
      <trkpt lat="44.34523" lon="1.71369">
        <ele>334.68</ele>
        <time>2021-08-17T11:56:56Z</time>
      </trkpt>
      <trkpt lat="44.34522" lon="1.71405">
        <ele>336.12</ele>
        <time>2021-08-17T11:57:07Z</time>
      </trkpt>
      <trkpt lat="44.34521" lon="1.71432">
        <ele>337.08</ele>
        <time>2021-08-17T11:57:15Z</time>
      </trkpt>
      <trkpt lat="44.34521" lon="1.71465">
        <ele>338.04</ele>
        <time>2021-08-17T11:57:24Z</time>
      </trkpt>
      <trkpt lat="44.34521" lon="1.71496">
        <ele>339</ele>
        <time>2021-08-17T11:57:33Z</time>
      </trkpt>
      <trkpt lat="44.34525" lon="1.71527">
        <ele>339.96</ele>
        <time>2021-08-17T11:57:42Z</time>
      </trkpt>
      <trkpt lat="44.34527" lon="1.71559">
        <ele>340.44</ele>
        <time>2021-08-17T11:57:51Z</time>
      </trkpt>
      <trkpt lat="44.34526" lon="1.71589">
        <ele>340.92</ele>
        <time>2021-08-17T11:57:59Z</time>
      </trkpt>
      <trkpt lat="44.34524" lon="1.71625">
        <ele>340.92</ele>
        <time>2021-08-17T11:58:08Z</time>
      </trkpt>
      <trkpt lat="44.3452" lon="1.71669">
        <ele>341.41</ele>
        <time>2021-08-17T11:58:16Z</time>
      </trkpt>
      <trkpt lat="44.34515" lon="1.71705">
        <ele>342.37</ele>
        <time>2021-08-17T11:58:24Z</time>
      </trkpt>
      <trkpt lat="44.3451" lon="1.71746">
        <ele>343.33</ele>
        <time>2021-08-17T11:58:33Z</time>
      </trkpt>
      <trkpt lat="44.34508" lon="1.71787">
        <ele>344.29</ele>
        <time>2021-08-17T11:58:42Z</time>
      </trkpt>
      <trkpt lat="44.34506" lon="1.71832">
        <ele>344.77</ele>
        <time>2021-08-17T11:58:52Z</time>
      </trkpt>
      <trkpt lat="44.34503" lon="1.71872">
        <ele>345.73</ele>
        <time>2021-08-17T11:59:01Z</time>
      </trkpt>
      <trkpt lat="44.345" lon="1.71919">
        <ele>346.21</ele>
        <time>2021-08-17T11:59:10Z</time>
      </trkpt>
      <trkpt lat="44.34497" lon="1.71963">
        <ele>346.69</ele>
        <time>2021-08-17T11:59:18Z</time>
      </trkpt>
      <trkpt lat="44.34493" lon="1.72025">
        <ele>347.65</ele>
        <time>2021-08-17T11:59:29Z</time>
      </trkpt>
      <trkpt lat="44.3449" lon="1.72059">
        <ele>348.13</ele>
        <time>2021-08-17T11:59:36Z</time>
      </trkpt>
      <trkpt lat="44.34488" lon="1.72093">
        <ele>349.1</ele>
        <time>2021-08-17T11:59:43Z</time>
      </trkpt>
      <trkpt lat="44.34486" lon="1.72132">
        <ele>350.06</ele>
        <time>2021-08-17T11:59:51Z</time>
      </trkpt>
      <trkpt lat="44.34484" lon="1.72165">
        <ele>351.02</ele>
        <time>2021-08-17T11:59:59Z</time>
      </trkpt>
      <trkpt lat="44.3448" lon="1.72202">
        <ele>351.98</ele>
        <time>2021-08-17T12:00:08Z</time>
      </trkpt>
      <trkpt lat="44.34478" lon="1.72226">
        <ele>352.46</ele>
        <time>2021-08-17T12:00:14Z</time>
      </trkpt>
      <trkpt lat="44.34474" lon="1.72264">
        <ele>353.9</ele>
        <time>2021-08-17T12:00:24Z</time>
      </trkpt>
      <trkpt lat="44.34471" lon="1.72296">
        <ele>354.86</ele>
        <time>2021-08-17T12:00:32Z</time>
      </trkpt>
      <trkpt lat="44.34468" lon="1.72327">
        <ele>355.83</ele>
        <time>2021-08-17T12:00:40Z</time>
      </trkpt>
      <trkpt lat="44.34464" lon="1.72361">
        <ele>357.27</ele>
        <time>2021-08-17T12:00:48Z</time>
      </trkpt>
      <trkpt lat="44.3446" lon="1.72385">
        <ele>357.75</ele>
        <time>2021-08-17T12:00:54Z</time>
      </trkpt>
      <trkpt lat="44.34455" lon="1.7242">
        <ele>358.23</ele>
        <time>2021-08-17T12:01:02Z</time>
      </trkpt>
      <trkpt lat="44.3445" lon="1.72453">
        <ele>359.19</ele>
        <time>2021-08-17T12:01:09Z</time>
      </trkpt>
      <trkpt lat="44.34446" lon="1.72492">
        <ele>359.67</ele>
        <time>2021-08-17T12:01:17Z</time>
      </trkpt>
      <trkpt lat="44.34446" lon="1.72525">
        <ele>360.63</ele>
        <time>2021-08-17T12:01:24Z</time>
      </trkpt>
      <trkpt lat="44.34446" lon="1.72561">
        <ele>361.11</ele>
        <time>2021-08-17T12:01:32Z</time>
      </trkpt>
      <trkpt lat="44.34449" lon="1.72598">
        <ele>362.07</ele>
        <time>2021-08-17T12:01:39Z</time>
      </trkpt>
      <trkpt lat="44.3445" lon="1.72646">
        <ele>362.07</ele>
        <time>2021-08-17T12:01:47Z</time>
      </trkpt>
      <trkpt lat="44.34451" lon="1.72694">
        <ele>362.07</ele>
        <time>2021-08-17T12:01:55Z</time>
      </trkpt>
      <trkpt lat="44.34451" lon="1.727">
        <ele>362.07</ele>
        <time>2021-08-17T12:01:56Z</time>
      </trkpt>
      <trkpt lat="44.3445" lon="1.72752">
        <ele>362.55</ele>
        <time>2021-08-17T12:02:05Z</time>
      </trkpt>
      <trkpt lat="44.3445" lon="1.72797">
        <ele>363.04</ele>
        <time>2021-08-17T12:02:13Z</time>
      </trkpt>
      <trkpt lat="44.34448" lon="1.72833">
        <ele>364.48</ele>
        <time>2021-08-17T12:02:20Z</time>
      </trkpt>
      <trkpt lat="44.34445" lon="1.72864">
        <ele>364.96</ele>
        <time>2021-08-17T12:02:27Z</time>
      </trkpt>
      <trkpt lat="44.34444" lon="1.72889">
        <ele>365.44</ele>
        <time>2021-08-17T12:02:33Z</time>
      </trkpt>
      <trkpt lat="44.34443" lon="1.72919">
        <ele>366.88</ele>
        <time>2021-08-17T12:02:41Z</time>
      </trkpt>
      <trkpt lat="44.34441" lon="1.72937">
        <ele>367.36</ele>
        <time>2021-08-17T12:02:47Z</time>
      </trkpt>
      <trkpt lat="44.34439" lon="1.7296">
        <ele>368.8</ele>
        <time>2021-08-17T12:02:54Z</time>
      </trkpt>
      <trkpt lat="44.34434" lon="1.72983">
        <ele>369.28</ele>
        <time>2021-08-17T12:03:01Z</time>
      </trkpt>
      <trkpt lat="44.34431" lon="1.7301">
        <ele>370.24</ele>
        <time>2021-08-17T12:03:09Z</time>
      </trkpt>
      <trkpt lat="44.34428" lon="1.73034">
        <ele>371.69</ele>
        <time>2021-08-17T12:03:16Z</time>
      </trkpt>
      <trkpt lat="44.34424" lon="1.73061">
        <ele>372.65</ele>
        <time>2021-08-17T12:03:24Z</time>
      </trkpt>
      <trkpt lat="44.34421" lon="1.73085">
        <ele>374.09</ele>
        <time>2021-08-17T12:03:31Z</time>
      </trkpt>
      <trkpt lat="44.34417" lon="1.73117">
        <ele>375.05</ele>
        <time>2021-08-17T12:03:40Z</time>
      </trkpt>
      <trkpt lat="44.34412" lon="1.73142">
        <ele>375.53</ele>
        <time>2021-08-17T12:03:48Z</time>
      </trkpt>
      <trkpt lat="44.34408" lon="1.73169">
        <ele>376.49</ele>
        <time>2021-08-17T12:03:55Z</time>
      </trkpt>
      <trkpt lat="44.34401" lon="1.73207">
        <ele>376.49</ele>
        <time>2021-08-17T12:04:03Z</time>
      </trkpt>
      <trkpt lat="44.34396" lon="1.73237">
        <ele>376.97</ele>
        <time>2021-08-17T12:04:09Z</time>
      </trkpt>
      <trkpt lat="44.34393" lon="1.73276">
        <ele>377.45</ele>
        <time>2021-08-17T12:04:16Z</time>
      </trkpt>
      <trkpt lat="44.34387" lon="1.73327">
        <ele>377.45</ele>
        <time>2021-08-17T12:04:25Z</time>
      </trkpt>
      <trkpt lat="44.34384" lon="1.73364">
        <ele>374.57</ele>
        <time>2021-08-17T12:04:30Z</time>
      </trkpt>
      <trkpt lat="44.34383" lon="1.73423">
        <ele>371.21</ele>
        <time>2021-08-17T12:04:36Z</time>
      </trkpt>
      <trkpt lat="44.34383" lon="1.73443">
        <ele>370.73</ele>
        <time>2021-08-17T12:04:38Z</time>
      </trkpt>
      <trkpt lat="44.34374" lon="1.7352">
        <ele>369.76</ele>
        <time>2021-08-17T12:04:46Z</time>
      </trkpt>
      <trkpt lat="44.34364" lon="1.73559">
        <ele>367.36</ele>
        <time>2021-08-17T12:04:50Z</time>
      </trkpt>
      <trkpt lat="44.34345" lon="1.73631">
        <ele>365.92</ele>
        <time>2021-08-17T12:04:57Z</time>
      </trkpt>
      <trkpt lat="44.34328" lon="1.73686">
        <ele>365.92</ele>
        <time>2021-08-17T12:05:04Z</time>
      </trkpt>
      <trkpt lat="44.34314" lon="1.73728">
        <ele>367.36</ele>
        <time>2021-08-17T12:05:11Z</time>
      </trkpt>
      <trkpt lat="44.34302" lon="1.73766">
        <ele>367.84</ele>
        <time>2021-08-17T12:05:18Z</time>
      </trkpt>
      <trkpt lat="44.34301" lon="1.73771">
        <ele>367.84</ele>
        <time>2021-08-17T12:05:19Z</time>
      </trkpt>
      <trkpt lat="44.343" lon="1.73777">
        <ele>368.32</ele>
        <time>2021-08-17T12:05:20Z</time>
      </trkpt>
      <trkpt lat="44.34288" lon="1.7382">
        <ele>368.32</ele>
        <time>2021-08-17T12:05:27Z</time>
      </trkpt>
      <trkpt lat="44.34273" lon="1.73867">
        <ele>368.32</ele>
        <time>2021-08-17T12:05:35Z</time>
      </trkpt>
      <trkpt lat="44.34263" lon="1.73898">
        <ele>368.32</ele>
        <time>2021-08-17T12:05:40Z</time>
      </trkpt>
      <trkpt lat="44.34254" lon="1.73941">
        <ele>369.28</ele>
        <time>2021-08-17T12:05:47Z</time>
      </trkpt>
      <trkpt lat="44.34254" lon="1.73996">
        <ele>369.76</ele>
        <time>2021-08-17T12:05:56Z</time>
      </trkpt>
      <trkpt lat="44.34267" lon="1.74047">
        <ele>370.24</ele>
        <time>2021-08-17T12:06:05Z</time>
      </trkpt>
      <trkpt lat="44.34277" lon="1.74081">
        <ele>370.73</ele>
        <time>2021-08-17T12:06:11Z</time>
      </trkpt>
      <trkpt lat="44.34279" lon="1.74087">
        <ele>371.21</ele>
        <time>2021-08-17T12:06:12Z</time>
      </trkpt>
      <trkpt lat="44.34294" lon="1.74138">
        <ele>372.17</ele>
        <time>2021-08-17T12:06:21Z</time>
      </trkpt>
      <trkpt lat="44.34307" lon="1.74185">
        <ele>372.65</ele>
        <time>2021-08-17T12:06:29Z</time>
      </trkpt>
      <trkpt lat="44.34315" lon="1.7424">
        <ele>373.13</ele>
        <time>2021-08-17T12:06:38Z</time>
      </trkpt>
      <trkpt lat="44.3432" lon="1.74296">
        <ele>374.09</ele>
        <time>2021-08-17T12:06:47Z</time>
      </trkpt>
      <trkpt lat="44.3432" lon="1.74366">
        <ele>374.57</ele>
        <time>2021-08-17T12:06:58Z</time>
      </trkpt>
      <trkpt lat="44.34311" lon="1.74412">
        <ele>375.05</ele>
        <time>2021-08-17T12:07:06Z</time>
      </trkpt>
      <trkpt lat="44.343" lon="1.74447">
        <ele>376.01</ele>
        <time>2021-08-17T12:07:12Z</time>
      </trkpt>
      <trkpt lat="44.34284" lon="1.74497">
        <ele>376.97</ele>
        <time>2021-08-17T12:07:21Z</time>
      </trkpt>
      <trkpt lat="44.34268" lon="1.74539">
        <ele>377.45</ele>
        <time>2021-08-17T12:07:29Z</time>
      </trkpt>
      <trkpt lat="44.34265" lon="1.74544">
        <ele>377.45</ele>
        <time>2021-08-17T12:07:30Z</time>
      </trkpt>
      <trkpt lat="44.34253" lon="1.74562">
        <ele>377.94</ele>
        <time>2021-08-17T12:07:34Z</time>
      </trkpt>
      <trkpt lat="44.3425" lon="1.74566">
        <ele>377.94</ele>
        <time>2021-08-17T12:07:35Z</time>
      </trkpt>
      <trkpt lat="44.34241" lon="1.74573">
        <ele>378.42</ele>
        <time>2021-08-17T12:07:37Z</time>
      </trkpt>
      <trkpt lat="44.34238" lon="1.74576">
        <ele>378.42</ele>
        <time>2021-08-17T12:07:38Z</time>
      </trkpt>
      <trkpt lat="44.34228" lon="1.74585">
        <ele>378.42</ele>
        <time>2021-08-17T12:07:41Z</time>
      </trkpt>
      <trkpt lat="44.34224" lon="1.74587">
        <ele>378.9</ele>
        <time>2021-08-17T12:07:42Z</time>
      </trkpt>
      <trkpt lat="44.3419" lon="1.74608">
        <ele>379.38</ele>
        <time>2021-08-17T12:07:51Z</time>
      </trkpt>
      <trkpt lat="44.34164" lon="1.74625">
        <ele>379.86</ele>
        <time>2021-08-17T12:07:58Z</time>
      </trkpt>
      <trkpt lat="44.34152" lon="1.74637">
        <ele>379.86</ele>
        <time>2021-08-17T12:08:01Z</time>
      </trkpt>
      <trkpt lat="44.34144" lon="1.74647">
        <ele>379.86</ele>
        <time>2021-08-17T12:08:04Z</time>
      </trkpt>
      <trkpt lat="44.34138" lon="1.74655">
        <ele>379.86</ele>
        <time>2021-08-17T12:08:05Z</time>
      </trkpt>
      <trkpt lat="44.34137" lon="1.74658">
        <ele>379.86</ele>
        <time>2021-08-17T12:08:06Z</time>
      </trkpt>
      <trkpt lat="44.34111" lon="1.74705">
        <ele>380.82</ele>
        <time>2021-08-17T12:08:16Z</time>
      </trkpt>
      <trkpt lat="44.34108" lon="1.74711">
        <ele>381.3</ele>
        <time>2021-08-17T12:08:17Z</time>
      </trkpt>
      <trkpt lat="44.34084" lon="1.74756">
        <ele>382.26</ele>
        <time>2021-08-17T12:08:26Z</time>
      </trkpt>
      <trkpt lat="44.34073" lon="1.74781">
        <ele>382.26</ele>
        <time>2021-08-17T12:08:32Z</time>
      </trkpt>
      <trkpt lat="44.34068" lon="1.74798">
        <ele>381.3</ele>
        <time>2021-08-17T12:08:36Z</time>
      </trkpt>
      <trkpt lat="44.34067" lon="1.74806">
        <ele>380.82</ele>
        <time>2021-08-17T12:08:37Z</time>
      </trkpt>
      <trkpt lat="44.34061" lon="1.74823">
        <ele>380.82</ele>
        <time>2021-08-17T12:08:40Z</time>
      </trkpt>
      <trkpt lat="44.34058" lon="1.74827">
        <ele>380.82</ele>
        <time>2021-08-17T12:08:41Z</time>
      </trkpt>
      <trkpt lat="44.34044" lon="1.74862">
        <ele>380.82</ele>
        <time>2021-08-17T12:08:48Z</time>
      </trkpt>
      <trkpt lat="44.34033" lon="1.74889">
        <ele>380.82</ele>
        <time>2021-08-17T12:08:55Z</time>
      </trkpt>
      <trkpt lat="44.34028" lon="1.74921">
        <ele>380.82</ele>
        <time>2021-08-17T12:09:01Z</time>
      </trkpt>
      <trkpt lat="44.34016" lon="1.74979">
        <ele>380.82</ele>
        <time>2021-08-17T12:09:11Z</time>
      </trkpt>
      <trkpt lat="44.34014" lon="1.74993">
        <ele>382.26</ele>
        <time>2021-08-17T12:09:14Z</time>
      </trkpt>
      <trkpt lat="44.34011" lon="1.75014">
        <ele>383.22</ele>
        <time>2021-08-17T12:09:21Z</time>
      </trkpt>
      <trkpt lat="44.3401" lon="1.75022">
        <ele>383.7</ele>
        <time>2021-08-17T12:09:24Z</time>
      </trkpt>
      <trkpt lat="44.3401" lon="1.75027">
        <ele>383.7</ele>
        <time>2021-08-17T12:09:25Z</time>
      </trkpt>
      <trkpt lat="44.3401" lon="1.75033">
        <ele>384.18</ele>
        <time>2021-08-17T12:09:27Z</time>
      </trkpt>
      <trkpt lat="44.34009" lon="1.75038">
        <ele>384.18</ele>
        <time>2021-08-17T12:09:29Z</time>
      </trkpt>
      <trkpt lat="44.34009" lon="1.7504">
        <ele>384.18</ele>
        <time>2021-08-17T12:09:30Z</time>
      </trkpt>
      <trkpt lat="44.34008" lon="1.75043">
        <ele>384.18</ele>
        <time>2021-08-17T12:09:31Z</time>
      </trkpt>
      <trkpt lat="44.34008" lon="1.75045">
        <ele>384.66</ele>
        <time>2021-08-17T12:09:32Z</time>
      </trkpt>
      <trkpt lat="44.34008" lon="1.75048">
        <ele>384.66</ele>
        <time>2021-08-17T12:09:33Z</time>
      </trkpt>
      <trkpt lat="44.34007" lon="1.7505">
        <ele>384.66</ele>
        <time>2021-08-17T12:09:34Z</time>
      </trkpt>
      <trkpt lat="44.34007" lon="1.75052">
        <ele>384.66</ele>
        <time>2021-08-17T12:09:35Z</time>
      </trkpt>
      <trkpt lat="44.34007" lon="1.75055">
        <ele>385.15</ele>
        <time>2021-08-17T12:09:36Z</time>
      </trkpt>
      <trkpt lat="44.34007" lon="1.75057">
        <ele>385.15</ele>
        <time>2021-08-17T12:09:37Z</time>
      </trkpt>
      <trkpt lat="44.34007" lon="1.7506">
        <ele>385.15</ele>
        <time>2021-08-17T12:09:38Z</time>
      </trkpt>
      <trkpt lat="44.34007" lon="1.75062">
        <ele>385.15</ele>
        <time>2021-08-17T12:09:39Z</time>
      </trkpt>
      <trkpt lat="44.34007" lon="1.75065">
        <ele>385.63</ele>
        <time>2021-08-17T12:09:40Z</time>
      </trkpt>
      <trkpt lat="44.34005" lon="1.75078">
        <ele>386.59</ele>
        <time>2021-08-17T12:09:46Z</time>
      </trkpt>
      <trkpt lat="44.34004" lon="1.75098">
        <ele>387.55</ele>
        <time>2021-08-17T12:09:53Z</time>
      </trkpt>
      <trkpt lat="44.34006" lon="1.751">
        <ele>387.55</ele>
        <time>2021-08-17T12:09:54Z</time>
      </trkpt>
      <trkpt lat="44.34016" lon="1.75132">
        <ele>388.03</ele>
        <time>2021-08-17T12:10:03Z</time>
      </trkpt>
      <trkpt lat="44.34022" lon="1.7518">
        <ele>388.51</ele>
        <time>2021-08-17T12:10:14Z</time>
      </trkpt>
      <trkpt lat="44.3402" lon="1.75217">
        <ele>388.51</ele>
        <time>2021-08-17T12:10:21Z</time>
      </trkpt>
      <trkpt lat="44.34016" lon="1.75252">
        <ele>388.51</ele>
        <time>2021-08-17T12:10:28Z</time>
      </trkpt>
      <trkpt lat="44.34012" lon="1.75287">
        <ele>388.51</ele>
        <time>2021-08-17T12:10:35Z</time>
      </trkpt>
      <trkpt lat="44.34013" lon="1.75338">
        <ele>387.55</ele>
        <time>2021-08-17T12:10:42Z</time>
      </trkpt>
      <trkpt lat="44.34014" lon="1.7542">
        <ele>387.55</ele>
        <time>2021-08-17T12:10:54Z</time>
      </trkpt>
      <trkpt lat="44.34014" lon="1.75471">
        <ele>387.55</ele>
        <time>2021-08-17T12:11:02Z</time>
      </trkpt>
      <trkpt lat="44.34013" lon="1.75484">
        <ele>388.99</ele>
        <time>2021-08-17T12:11:04Z</time>
      </trkpt>
      <trkpt lat="44.34011" lon="1.75533">
        <ele>390.43</ele>
        <time>2021-08-17T12:11:13Z</time>
      </trkpt>
      <trkpt lat="44.34012" lon="1.75567">
        <ele>391.39</ele>
        <time>2021-08-17T12:11:21Z</time>
      </trkpt>
      <trkpt lat="44.34014" lon="1.75605">
        <ele>392.36</ele>
        <time>2021-08-17T12:11:30Z</time>
      </trkpt>
      <trkpt lat="44.34015" lon="1.75642">
        <ele>392.36</ele>
        <time>2021-08-17T12:11:39Z</time>
      </trkpt>
      <trkpt lat="44.34016" lon="1.75685">
        <ele>393.8</ele>
        <time>2021-08-17T12:11:49Z</time>
      </trkpt>
      <trkpt lat="44.34015" lon="1.75726">
        <ele>394.28</ele>
        <time>2021-08-17T12:11:59Z</time>
      </trkpt>
      <trkpt lat="44.34015" lon="1.75765">
        <ele>395.24</ele>
        <time>2021-08-17T12:12:08Z</time>
      </trkpt>
      <trkpt lat="44.34015" lon="1.75791">
        <ele>396.68</ele>
        <time>2021-08-17T12:12:15Z</time>
      </trkpt>
      <trkpt lat="44.34014" lon="1.75823">
        <ele>397.16</ele>
        <time>2021-08-17T12:12:22Z</time>
      </trkpt>
      <trkpt lat="44.34014" lon="1.75845">
        <ele>397.64</ele>
        <time>2021-08-17T12:12:28Z</time>
      </trkpt>
      <trkpt lat="44.34015" lon="1.75878">
        <ele>396.2</ele>
        <time>2021-08-17T12:12:34Z</time>
      </trkpt>
      <trkpt lat="44.34015" lon="1.75924">
        <ele>394.76</ele>
        <time>2021-08-17T12:12:41Z</time>
      </trkpt>
      <trkpt lat="44.34014" lon="1.7593">
        <ele>394.76</ele>
        <time>2021-08-17T12:12:42Z</time>
      </trkpt>
      <trkpt lat="44.34013" lon="1.75937">
        <ele>394.76</ele>
        <time>2021-08-17T12:12:43Z</time>
      </trkpt>
      <trkpt lat="44.34012" lon="1.75944">
        <ele>394.76</ele>
        <time>2021-08-17T12:12:44Z</time>
      </trkpt>
      <trkpt lat="44.3401" lon="1.7595">
        <ele>394.76</ele>
        <time>2021-08-17T12:12:45Z</time>
      </trkpt>
      <trkpt lat="44.34007" lon="1.75955">
        <ele>394.76</ele>
        <time>2021-08-17T12:12:46Z</time>
      </trkpt>
      <trkpt lat="44.34005" lon="1.7596">
        <ele>394.76</ele>
        <time>2021-08-17T12:12:47Z</time>
      </trkpt>
      <trkpt lat="44.33989" lon="1.75988">
        <ele>394.76</ele>
        <time>2021-08-17T12:12:54Z</time>
      </trkpt>
      <trkpt lat="44.33974" lon="1.76013">
        <ele>394.76</ele>
        <time>2021-08-17T12:13:00Z</time>
      </trkpt>
      <trkpt lat="44.33966" lon="1.76027">
        <ele>394.76</ele>
        <time>2021-08-17T12:13:03Z</time>
      </trkpt>
      <trkpt lat="44.33964" lon="1.76032">
        <ele>394.76</ele>
        <time>2021-08-17T12:13:04Z</time>
      </trkpt>
      <trkpt lat="44.33962" lon="1.76037">
        <ele>394.76</ele>
        <time>2021-08-17T12:13:05Z</time>
      </trkpt>
      <trkpt lat="44.33945" lon="1.76075">
        <ele>396.2</ele>
        <time>2021-08-17T12:13:13Z</time>
      </trkpt>
      <trkpt lat="44.33943" lon="1.7608">
        <ele>396.2</ele>
        <time>2021-08-17T12:13:14Z</time>
      </trkpt>
      <trkpt lat="44.33932" lon="1.76111">
        <ele>396.68</ele>
        <time>2021-08-17T12:13:21Z</time>
      </trkpt>
      <trkpt lat="44.33915" lon="1.76145">
        <ele>397.16</ele>
        <time>2021-08-17T12:13:29Z</time>
      </trkpt>
      <trkpt lat="44.33911" lon="1.76147">
        <ele>397.16</ele>
        <time>2021-08-17T12:13:30Z</time>
      </trkpt>
      <trkpt lat="44.33908" lon="1.76148">
        <ele>396.68</ele>
        <time>2021-08-17T12:13:31Z</time>
      </trkpt>
      <trkpt lat="44.33904" lon="1.76148">
        <ele>396.68</ele>
        <time>2021-08-17T12:13:32Z</time>
      </trkpt>
      <trkpt lat="44.33872" lon="1.76141">
        <ele>393.8</ele>
        <time>2021-08-17T12:13:38Z</time>
      </trkpt>
      <trkpt lat="44.33831" lon="1.76132">
        <ele>390.43</ele>
        <time>2021-08-17T12:13:44Z</time>
      </trkpt>
      <trkpt lat="44.33772" lon="1.7612">
        <ele>387.07</ele>
        <time>2021-08-17T12:13:51Z</time>
      </trkpt>
      <trkpt lat="44.33763" lon="1.76119">
        <ele>387.07</ele>
        <time>2021-08-17T12:13:52Z</time>
      </trkpt>
      <trkpt lat="44.33713" lon="1.76117">
        <ele>386.59</ele>
        <time>2021-08-17T12:13:58Z</time>
      </trkpt>
      <trkpt lat="44.33681" lon="1.76113">
        <ele>385.63</ele>
        <time>2021-08-17T12:14:02Z</time>
      </trkpt>
      <trkpt lat="44.3366" lon="1.76111">
        <ele>385.15</ele>
        <time>2021-08-17T12:14:05Z</time>
      </trkpt>
      <trkpt lat="44.33655" lon="1.76114">
        <ele>384.66</ele>
        <time>2021-08-17T12:14:06Z</time>
      </trkpt>
      <trkpt lat="44.33651" lon="1.7612">
        <ele>384.66</ele>
        <time>2021-08-17T12:14:07Z</time>
      </trkpt>
      <trkpt lat="44.33625" lon="1.76158">
        <ele>383.7</ele>
        <time>2021-08-17T12:14:13Z</time>
      </trkpt>
      <trkpt lat="44.3362" lon="1.7616">
        <ele>383.7</ele>
        <time>2021-08-17T12:14:14Z</time>
      </trkpt>
      <trkpt lat="44.33615" lon="1.76159">
        <ele>382.74</ele>
        <time>2021-08-17T12:14:15Z</time>
      </trkpt>
      <trkpt lat="44.3361" lon="1.76155">
        <ele>382.26</ele>
        <time>2021-08-17T12:14:16Z</time>
      </trkpt>
      <trkpt lat="44.33606" lon="1.7615">
        <ele>382.26</ele>
        <time>2021-08-17T12:14:17Z</time>
      </trkpt>
      <trkpt lat="44.33601" lon="1.76143">
        <ele>380.82</ele>
        <time>2021-08-17T12:14:18Z</time>
      </trkpt>
      <trkpt lat="44.33591" lon="1.76129">
        <ele>379.38</ele>
        <time>2021-08-17T12:14:20Z</time>
      </trkpt>
      <trkpt lat="44.33585" lon="1.76122">
        <ele>378.9</ele>
        <time>2021-08-17T12:14:21Z</time>
      </trkpt>
      <trkpt lat="44.33579" lon="1.76116">
        <ele>377.45</ele>
        <time>2021-08-17T12:14:22Z</time>
      </trkpt>
      <trkpt lat="44.33573" lon="1.76109">
        <ele>376.49</ele>
        <time>2021-08-17T12:14:23Z</time>
      </trkpt>
      <trkpt lat="44.33566" lon="1.76104">
        <ele>375.53</ele>
        <time>2021-08-17T12:14:24Z</time>
      </trkpt>
      <trkpt lat="44.33531" lon="1.76079">
        <ele>372.65</ele>
        <time>2021-08-17T12:14:28Z</time>
      </trkpt>
      <trkpt lat="44.33506" lon="1.76063">
        <ele>371.69</ele>
        <time>2021-08-17T12:14:31Z</time>
      </trkpt>
      <trkpt lat="44.335" lon="1.76061">
        <ele>371.21</ele>
        <time>2021-08-17T12:14:32Z</time>
      </trkpt>
      <trkpt lat="44.33493" lon="1.76061">
        <ele>370.73</ele>
        <time>2021-08-17T12:14:33Z</time>
      </trkpt>
      <trkpt lat="44.33486" lon="1.76061">
        <ele>369.76</ele>
        <time>2021-08-17T12:14:34Z</time>
      </trkpt>
      <trkpt lat="44.33481" lon="1.76062">
        <ele>369.76</ele>
        <time>2021-08-17T12:14:35Z</time>
      </trkpt>
      <trkpt lat="44.33463" lon="1.76063">
        <ele>368.8</ele>
        <time>2021-08-17T12:14:39Z</time>
      </trkpt>
      <trkpt lat="44.33458" lon="1.76061">
        <ele>368.32</ele>
        <time>2021-08-17T12:14:40Z</time>
      </trkpt>
      <trkpt lat="44.33453" lon="1.76057">
        <ele>368.32</ele>
        <time>2021-08-17T12:14:41Z</time>
      </trkpt>
      <trkpt lat="44.33405" lon="1.76022">
        <ele>367.84</ele>
        <time>2021-08-17T12:14:50Z</time>
      </trkpt>
      <trkpt lat="44.33367" lon="1.76003">
        <ele>367.84</ele>
        <time>2021-08-17T12:14:57Z</time>
      </trkpt>
      <trkpt lat="44.33361" lon="1.76003">
        <ele>367.84</ele>
        <time>2021-08-17T12:14:58Z</time>
      </trkpt>
      <trkpt lat="44.33356" lon="1.76003">
        <ele>367.84</ele>
        <time>2021-08-17T12:14:59Z</time>
      </trkpt>
      <trkpt lat="44.33335" lon="1.76008">
        <ele>367.84</ele>
        <time>2021-08-17T12:15:03Z</time>
      </trkpt>
      <trkpt lat="44.33324" lon="1.76016">
        <ele>369.28</ele>
        <time>2021-08-17T12:15:06Z</time>
      </trkpt>
      <trkpt lat="44.33312" lon="1.76026">
        <ele>370.24</ele>
        <time>2021-08-17T12:15:11Z</time>
      </trkpt>
      <trkpt lat="44.3331" lon="1.76027">
        <ele>370.73</ele>
        <time>2021-08-17T12:15:12Z</time>
      </trkpt>
      <trkpt lat="44.33307" lon="1.76028">
        <ele>370.73</ele>
        <time>2021-08-17T12:15:13Z</time>
      </trkpt>
      <trkpt lat="44.33305" lon="1.7603">
        <ele>371.21</ele>
        <time>2021-08-17T12:15:14Z</time>
      </trkpt>
      <trkpt lat="44.33303" lon="1.76031">
        <ele>371.21</ele>
        <time>2021-08-17T12:15:15Z</time>
      </trkpt>
      <trkpt lat="44.33282" lon="1.76044">
        <ele>371.69</ele>
        <time>2021-08-17T12:15:23Z</time>
      </trkpt>
      <trkpt lat="44.33267" lon="1.76061">
        <ele>371.69</ele>
        <time>2021-08-17T12:15:28Z</time>
      </trkpt>
      <trkpt lat="44.33243" lon="1.76104">
        <ele>371.69</ele>
        <time>2021-08-17T12:15:36Z</time>
      </trkpt>
      <trkpt lat="44.33225" lon="1.7614">
        <ele>370.24</ele>
        <time>2021-08-17T12:15:42Z</time>
      </trkpt>
      <trkpt lat="44.33222" lon="1.76147">
        <ele>370.24</ele>
        <time>2021-08-17T12:15:43Z</time>
      </trkpt>
      <trkpt lat="44.3322" lon="1.76154">
        <ele>370.24</ele>
        <time>2021-08-17T12:15:44Z</time>
      </trkpt>
      <trkpt lat="44.33219" lon="1.76161">
        <ele>370.24</ele>
        <time>2021-08-17T12:15:45Z</time>
      </trkpt>
      <trkpt lat="44.33218" lon="1.76168">
        <ele>370.24</ele>
        <time>2021-08-17T12:15:46Z</time>
      </trkpt>
      <trkpt lat="44.33217" lon="1.76175">
        <ele>370.24</ele>
        <time>2021-08-17T12:15:47Z</time>
      </trkpt>
      <trkpt lat="44.33216" lon="1.76181">
        <ele>370.24</ele>
        <time>2021-08-17T12:15:48Z</time>
      </trkpt>
      <trkpt lat="44.33215" lon="1.76187">
        <ele>370.24</ele>
        <time>2021-08-17T12:15:49Z</time>
      </trkpt>
      <trkpt lat="44.33209" lon="1.76214">
        <ele>370.24</ele>
        <time>2021-08-17T12:15:54Z</time>
      </trkpt>
      <trkpt lat="44.33206" lon="1.76215">
        <ele>370.24</ele>
        <time>2021-08-17T12:15:55Z</time>
      </trkpt>
      <trkpt lat="44.33202" lon="1.76215">
        <ele>370.24</ele>
        <time>2021-08-17T12:15:56Z</time>
      </trkpt>
      <trkpt lat="44.33198" lon="1.76215">
        <ele>370.24</ele>
        <time>2021-08-17T12:15:57Z</time>
      </trkpt>
      <trkpt lat="44.33194" lon="1.76215">
        <ele>370.24</ele>
        <time>2021-08-17T12:15:58Z</time>
      </trkpt>
      <trkpt lat="44.33163" lon="1.76219">
        <ele>367.36</ele>
        <time>2021-08-17T12:16:04Z</time>
      </trkpt>
      <trkpt lat="44.33157" lon="1.76221">
        <ele>366.4</ele>
        <time>2021-08-17T12:16:05Z</time>
      </trkpt>
      <trkpt lat="44.33152" lon="1.76224">
        <ele>366.4</ele>
        <time>2021-08-17T12:16:06Z</time>
      </trkpt>
      <trkpt lat="44.33147" lon="1.76229">
        <ele>364.96</ele>
        <time>2021-08-17T12:16:07Z</time>
      </trkpt>
      <trkpt lat="44.33142" lon="1.76235">
        <ele>364</ele>
        <time>2021-08-17T12:16:08Z</time>
      </trkpt>
      <trkpt lat="44.33137" lon="1.76241">
        <ele>363.04</ele>
        <time>2021-08-17T12:16:09Z</time>
      </trkpt>
      <trkpt lat="44.33131" lon="1.76251">
        <ele>362.55</ele>
        <time>2021-08-17T12:16:10Z</time>
      </trkpt>
      <trkpt lat="44.33113" lon="1.7628">
        <ele>358.23</ele>
        <time>2021-08-17T12:16:13Z</time>
      </trkpt>
      <trkpt lat="44.33099" lon="1.76311">
        <ele>356.79</ele>
        <time>2021-08-17T12:16:16Z</time>
      </trkpt>
      <trkpt lat="44.33095" lon="1.76321">
        <ele>356.79</ele>
        <time>2021-08-17T12:16:17Z</time>
      </trkpt>
      <trkpt lat="44.33093" lon="1.76331">
        <ele>356.79</ele>
        <time>2021-08-17T12:16:18Z</time>
      </trkpt>
      <trkpt lat="44.33093" lon="1.76341">
        <ele>356.79</ele>
        <time>2021-08-17T12:16:19Z</time>
      </trkpt>
      <trkpt lat="44.33093" lon="1.76369">
        <ele>359.19</ele>
        <time>2021-08-17T12:16:23Z</time>
      </trkpt>
      <trkpt lat="44.33091" lon="1.76378">
        <ele>360.63</ele>
        <time>2021-08-17T12:16:26Z</time>
      </trkpt>
      <trkpt lat="44.33089" lon="1.76392">
        <ele>362.07</ele>
        <time>2021-08-17T12:16:34Z</time>
      </trkpt>
      <trkpt lat="44.33085" lon="1.76404">
        <ele>364</ele>
        <time>2021-08-17T12:16:43Z</time>
      </trkpt>
      <trkpt lat="44.33079" lon="1.76416">
        <ele>364.96</ele>
        <time>2021-08-17T12:16:51Z</time>
      </trkpt>
      <trkpt lat="44.33076" lon="1.76425">
        <ele>365.44</ele>
        <time>2021-08-17T12:16:57Z</time>
      </trkpt>
      <trkpt lat="44.33071" lon="1.76436">
        <ele>366.88</ele>
        <time>2021-08-17T12:17:04Z</time>
      </trkpt>
      <trkpt lat="44.33067" lon="1.76448">
        <ele>367.84</ele>
        <time>2021-08-17T12:17:10Z</time>
      </trkpt>
      <trkpt lat="44.33066" lon="1.7645">
        <ele>367.84</ele>
        <time>2021-08-17T12:17:11Z</time>
      </trkpt>
      <trkpt lat="44.33065" lon="1.76452">
        <ele>367.84</ele>
        <time>2021-08-17T12:17:12Z</time>
      </trkpt>
      <trkpt lat="44.33057" lon="1.76477">
        <ele>368.32</ele>
        <time>2021-08-17T12:17:19Z</time>
      </trkpt>
      <trkpt lat="44.33046" lon="1.76508">
        <ele>368.32</ele>
        <time>2021-08-17T12:17:25Z</time>
      </trkpt>
      <trkpt lat="44.33039" lon="1.76516">
        <ele>368.32</ele>
        <time>2021-08-17T12:17:27Z</time>
      </trkpt>
      <trkpt lat="44.33007" lon="1.76548">
        <ele>368.32</ele>
        <time>2021-08-17T12:17:36Z</time>
      </trkpt>
      <trkpt lat="44.32972" lon="1.76581">
        <ele>369.28</ele>
        <time>2021-08-17T12:17:46Z</time>
      </trkpt>
      <trkpt lat="44.32955" lon="1.76608">
        <ele>370.24</ele>
        <time>2021-08-17T12:17:53Z</time>
      </trkpt>
      <trkpt lat="44.32938" lon="1.76635">
        <ele>372.65</ele>
        <time>2021-08-17T12:18:02Z</time>
      </trkpt>
      <trkpt lat="44.32928" lon="1.76651">
        <ele>373.61</ele>
        <time>2021-08-17T12:18:10Z</time>
      </trkpt>
      <trkpt lat="44.32919" lon="1.76664">
        <ele>374.09</ele>
        <time>2021-08-17T12:18:17Z</time>
      </trkpt>
      <trkpt lat="44.329" lon="1.76685">
        <ele>374.57</ele>
        <time>2021-08-17T12:18:25Z</time>
      </trkpt>
      <trkpt lat="44.32883" lon="1.76709">
        <ele>375.05</ele>
        <time>2021-08-17T12:18:33Z</time>
      </trkpt>
      <trkpt lat="44.32864" lon="1.76731">
        <ele>375.05</ele>
        <time>2021-08-17T12:18:40Z</time>
      </trkpt>
      <trkpt lat="44.32838" lon="1.76767">
        <ele>373.13</ele>
        <time>2021-08-17T12:18:47Z</time>
      </trkpt>
      <trkpt lat="44.32834" lon="1.76772">
        <ele>373.13</ele>
        <time>2021-08-17T12:18:48Z</time>
      </trkpt>
      <trkpt lat="44.32831" lon="1.76777">
        <ele>373.13</ele>
        <time>2021-08-17T12:18:49Z</time>
      </trkpt>
      <trkpt lat="44.32813" lon="1.76803">
        <ele>372.65</ele>
        <time>2021-08-17T12:18:54Z</time>
      </trkpt>
      <trkpt lat="44.32806" lon="1.76813">
        <ele>372.17</ele>
        <time>2021-08-17T12:18:56Z</time>
      </trkpt>
      <trkpt lat="44.32774" lon="1.76843">
        <ele>371.21</ele>
        <time>2021-08-17T12:19:04Z</time>
      </trkpt>
      <trkpt lat="44.32736" lon="1.7687">
        <ele>368.8</ele>
        <time>2021-08-17T12:19:11Z</time>
      </trkpt>
      <trkpt lat="44.32685" lon="1.76901">
        <ele>366.88</ele>
        <time>2021-08-17T12:19:20Z</time>
      </trkpt>
      <trkpt lat="44.32679" lon="1.76903">
        <ele>367.36</ele>
        <time>2021-08-17T12:19:21Z</time>
      </trkpt>
      <trkpt lat="44.32655" lon="1.76909">
        <ele>366.88</ele>
        <time>2021-08-17T12:19:25Z</time>
      </trkpt>
      <trkpt lat="44.3265" lon="1.76912">
        <ele>366.4</ele>
        <time>2021-08-17T12:19:26Z</time>
      </trkpt>
      <trkpt lat="44.32629" lon="1.76922">
        <ele>366.4</ele>
        <time>2021-08-17T12:19:30Z</time>
      </trkpt>
      <trkpt lat="44.32599" lon="1.7694">
        <ele>364.48</ele>
        <time>2021-08-17T12:19:36Z</time>
      </trkpt>
      <trkpt lat="44.3259" lon="1.76945">
        <ele>364.48</ele>
        <time>2021-08-17T12:19:38Z</time>
      </trkpt>
      <trkpt lat="44.32555" lon="1.76963">
        <ele>364</ele>
        <time>2021-08-17T12:19:45Z</time>
      </trkpt>
      <trkpt lat="44.32542" lon="1.76971">
        <ele>363.52</ele>
        <time>2021-08-17T12:19:48Z</time>
      </trkpt>
      <trkpt lat="44.32534" lon="1.76978">
        <ele>363.52</ele>
        <time>2021-08-17T12:19:50Z</time>
      </trkpt>
      <trkpt lat="44.32506" lon="1.77002">
        <ele>362.55</ele>
        <time>2021-08-17T12:19:56Z</time>
      </trkpt>
      <trkpt lat="44.32457" lon="1.77034">
        <ele>360.15</ele>
        <time>2021-08-17T12:20:04Z</time>
      </trkpt>
      <trkpt lat="44.32441" lon="1.77041">
        <ele>359.67</ele>
        <time>2021-08-17T12:20:06Z</time>
      </trkpt>
      <trkpt lat="44.32432" lon="1.77043">
        <ele>359.19</ele>
        <time>2021-08-17T12:20:07Z</time>
      </trkpt>
      <trkpt lat="44.32392" lon="1.77053">
        <ele>356.31</ele>
        <time>2021-08-17T12:20:12Z</time>
      </trkpt>
      <trkpt lat="44.32368" lon="1.77064">
        <ele>355.34</ele>
        <time>2021-08-17T12:20:15Z</time>
      </trkpt>
      <trkpt lat="44.32361" lon="1.77068">
        <ele>355.34</ele>
        <time>2021-08-17T12:20:16Z</time>
      </trkpt>
      <trkpt lat="44.32343" lon="1.77083">
        <ele>356.79</ele>
        <time>2021-08-17T12:20:19Z</time>
      </trkpt>
      <trkpt lat="44.32338" lon="1.77088">
        <ele>357.27</ele>
        <time>2021-08-17T12:20:20Z</time>
      </trkpt>
      <trkpt lat="44.32303" lon="1.7712">
        <ele>355.83</ele>
        <time>2021-08-17T12:20:27Z</time>
      </trkpt>
      <trkpt lat="44.3228" lon="1.7714">
        <ele>352.94</ele>
        <time>2021-08-17T12:20:31Z</time>
      </trkpt>
      <trkpt lat="44.3225" lon="1.77167">
        <ele>349.1</ele>
        <time>2021-08-17T12:20:35Z</time>
      </trkpt>
      <trkpt lat="44.32228" lon="1.7719">
        <ele>347.65</ele>
        <time>2021-08-17T12:20:38Z</time>
      </trkpt>
      <trkpt lat="44.32191" lon="1.77237">
        <ele>346.21</ele>
        <time>2021-08-17T12:20:44Z</time>
      </trkpt>
      <trkpt lat="44.3216" lon="1.77269">
        <ele>346.69</ele>
        <time>2021-08-17T12:20:50Z</time>
      </trkpt>
      <trkpt lat="44.32138" lon="1.77288">
        <ele>347.65</ele>
        <time>2021-08-17T12:20:56Z</time>
      </trkpt>
      <trkpt lat="44.32121" lon="1.77306">
        <ele>348.13</ele>
        <time>2021-08-17T12:21:03Z</time>
      </trkpt>
      <trkpt lat="44.32112" lon="1.77316">
        <ele>349.1</ele>
        <time>2021-08-17T12:21:08Z</time>
      </trkpt>
      <trkpt lat="44.32107" lon="1.77324">
        <ele>350.06</ele>
        <time>2021-08-17T12:21:13Z</time>
      </trkpt>
      <trkpt lat="44.32104" lon="1.77327">
        <ele>350.06</ele>
        <time>2021-08-17T12:21:16Z</time>
      </trkpt>
      <trkpt lat="44.32103" lon="1.77328">
        <ele>350.06</ele>
        <time>2021-08-17T12:21:17Z</time>
      </trkpt>
      <trkpt lat="44.32102" lon="1.77329">
        <ele>350.06</ele>
        <time>2021-08-17T12:21:18Z</time>
      </trkpt>
      <trkpt lat="44.32096" lon="1.7734">
        <ele>351.02</ele>
        <time>2021-08-17T12:21:24Z</time>
      </trkpt>
      <trkpt lat="44.32094" lon="1.77342">
        <ele>351.02</ele>
        <time>2021-08-17T12:21:25Z</time>
      </trkpt>
      <trkpt lat="44.32093" lon="1.77344">
        <ele>351.02</ele>
        <time>2021-08-17T12:21:26Z</time>
      </trkpt>
      <trkpt lat="44.32091" lon="1.77345">
        <ele>351.02</ele>
        <time>2021-08-17T12:21:27Z</time>
      </trkpt>
      <trkpt lat="44.3209" lon="1.77347">
        <ele>351.02</ele>
        <time>2021-08-17T12:21:28Z</time>
      </trkpt>
      <trkpt lat="44.32089" lon="1.77349">
        <ele>351.02</ele>
        <time>2021-08-17T12:21:29Z</time>
      </trkpt>
      <trkpt lat="44.32075" lon="1.77366">
        <ele>351.98</ele>
        <time>2021-08-17T12:21:37Z</time>
      </trkpt>
      <trkpt lat="44.32065" lon="1.7738">
        <ele>352.46</ele>
        <time>2021-08-17T12:21:44Z</time>
      </trkpt>
      <trkpt lat="44.3206" lon="1.7739">
        <ele>352.94</ele>
        <time>2021-08-17T12:21:50Z</time>
      </trkpt>
      <trkpt lat="44.32049" lon="1.77404">
        <ele>353.42</ele>
        <time>2021-08-17T12:21:57Z</time>
      </trkpt>
      <trkpt lat="44.3204" lon="1.77416">
        <ele>354.86</ele>
        <time>2021-08-17T12:22:04Z</time>
      </trkpt>
      <trkpt lat="44.32031" lon="1.77429">
        <ele>355.34</ele>
        <time>2021-08-17T12:22:12Z</time>
      </trkpt>
      <trkpt lat="44.32022" lon="1.77442">
        <ele>356.31</ele>
        <time>2021-08-17T12:22:19Z</time>
      </trkpt>
      <trkpt lat="44.3201" lon="1.77461">
        <ele>356.31</ele>
        <time>2021-08-17T12:22:26Z</time>
      </trkpt>
      <trkpt lat="44.31998" lon="1.77482">
        <ele>356.31</ele>
        <time>2021-08-17T12:22:32Z</time>
      </trkpt>
      <trkpt lat="44.31989" lon="1.77497">
        <ele>354.86</ele>
        <time>2021-08-17T12:22:35Z</time>
      </trkpt>
      <trkpt lat="44.31985" lon="1.77503">
        <ele>354.38</ele>
        <time>2021-08-17T12:22:36Z</time>
      </trkpt>
      <trkpt lat="44.31974" lon="1.77514">
        <ele>353.42</ele>
        <time>2021-08-17T12:22:38Z</time>
      </trkpt>
      <trkpt lat="44.31969" lon="1.77519">
        <ele>352.46</ele>
        <time>2021-08-17T12:22:39Z</time>
      </trkpt>
      <trkpt lat="44.31938" lon="1.77553">
        <ele>349.58</ele>
        <time>2021-08-17T12:22:44Z</time>
      </trkpt>
      <trkpt lat="44.31934" lon="1.77558">
        <ele>349.58</ele>
        <time>2021-08-17T12:22:45Z</time>
      </trkpt>
      <trkpt lat="44.31922" lon="1.77569">
        <ele>347.65</ele>
        <time>2021-08-17T12:22:48Z</time>
      </trkpt>
      <trkpt lat="44.31906" lon="1.77576">
        <ele>345.73</ele>
        <time>2021-08-17T12:22:51Z</time>
      </trkpt>
      <trkpt lat="44.31895" lon="1.77578">
        <ele>345.73</ele>
        <time>2021-08-17T12:22:53Z</time>
      </trkpt>
      <trkpt lat="44.31885" lon="1.77582">
        <ele>345.73</ele>
        <time>2021-08-17T12:22:55Z</time>
      </trkpt>
      <trkpt lat="44.31881" lon="1.77584">
        <ele>345.73</ele>
        <time>2021-08-17T12:22:56Z</time>
      </trkpt>
      <trkpt lat="44.31873" lon="1.77587">
        <ele>347.17</ele>
        <time>2021-08-17T12:22:59Z</time>
      </trkpt>
      <trkpt lat="44.31861" lon="1.77592">
        <ele>348.13</ele>
        <time>2021-08-17T12:23:06Z</time>
      </trkpt>
      <trkpt lat="44.31846" lon="1.77593">
        <ele>349.1</ele>
        <time>2021-08-17T12:23:15Z</time>
      </trkpt>
      <trkpt lat="44.31837" lon="1.77591">
        <ele>350.54</ele>
        <time>2021-08-17T12:23:21Z</time>
      </trkpt>
      <trkpt lat="44.31825" lon="1.77583">
        <ele>351.98</ele>
        <time>2021-08-17T12:23:29Z</time>
      </trkpt>
      <trkpt lat="44.31817" lon="1.77576">
        <ele>352.46</ele>
        <time>2021-08-17T12:23:34Z</time>
      </trkpt>
      <trkpt lat="44.31815" lon="1.77576">
        <ele>352.46</ele>
        <time>2021-08-17T12:23:35Z</time>
      </trkpt>
      <trkpt lat="44.31813" lon="1.77575">
        <ele>352.46</ele>
        <time>2021-08-17T12:23:36Z</time>
      </trkpt>
      <trkpt lat="44.3181" lon="1.77574">
        <ele>352.46</ele>
        <time>2021-08-17T12:23:37Z</time>
      </trkpt>
      <trkpt lat="44.31808" lon="1.77574">
        <ele>352.46</ele>
        <time>2021-08-17T12:23:38Z</time>
      </trkpt>
      <trkpt lat="44.31805" lon="1.77575">
        <ele>352.46</ele>
        <time>2021-08-17T12:23:39Z</time>
      </trkpt>
      <trkpt lat="44.31802" lon="1.77576">
        <ele>352.46</ele>
        <time>2021-08-17T12:23:40Z</time>
      </trkpt>
      <trkpt lat="44.31799" lon="1.77578">
        <ele>352.46</ele>
        <time>2021-08-17T12:23:41Z</time>
      </trkpt>
      <trkpt lat="44.31793" lon="1.77584">
        <ele>351.5</ele>
        <time>2021-08-17T12:23:43Z</time>
      </trkpt>
      <trkpt lat="44.31788" lon="1.77588">
        <ele>351.02</ele>
        <time>2021-08-17T12:23:44Z</time>
      </trkpt>
      <trkpt lat="44.31783" lon="1.77591">
        <ele>350.54</ele>
        <time>2021-08-17T12:23:45Z</time>
      </trkpt>
      <trkpt lat="44.31759" lon="1.77606">
        <ele>347.17</ele>
        <time>2021-08-17T12:23:49Z</time>
      </trkpt>
      <trkpt lat="44.31737" lon="1.77622">
        <ele>343.81</ele>
        <time>2021-08-17T12:23:52Z</time>
      </trkpt>
      <trkpt lat="44.3172" lon="1.77633">
        <ele>342.37</ele>
        <time>2021-08-17T12:23:54Z</time>
      </trkpt>
      <trkpt lat="44.31695" lon="1.77653">
        <ele>344.29</ele>
        <time>2021-08-17T12:23:58Z</time>
      </trkpt>
      <trkpt lat="44.31661" lon="1.7768">
        <ele>344.77</ele>
        <time>2021-08-17T12:24:05Z</time>
      </trkpt>
      <trkpt lat="44.31632" lon="1.77704">
        <ele>344.77</ele>
        <time>2021-08-17T12:24:12Z</time>
      </trkpt>
      <trkpt lat="44.31608" lon="1.77725">
        <ele>343.81</ele>
        <time>2021-08-17T12:24:19Z</time>
      </trkpt>
      <trkpt lat="44.31605" lon="1.7773">
        <ele>343.81</ele>
        <time>2021-08-17T12:24:20Z</time>
      </trkpt>
      <trkpt lat="44.31578" lon="1.77775">
        <ele>343.81</ele>
        <time>2021-08-17T12:24:27Z</time>
      </trkpt>
      <trkpt lat="44.31564" lon="1.77804">
        <ele>345.25</ele>
        <time>2021-08-17T12:24:33Z</time>
      </trkpt>
      <trkpt lat="44.3155" lon="1.77837">
        <ele>346.69</ele>
        <time>2021-08-17T12:24:41Z</time>
      </trkpt>
      <trkpt lat="44.31542" lon="1.77865">
        <ele>346.69</ele>
        <time>2021-08-17T12:24:49Z</time>
      </trkpt>
      <trkpt lat="44.31541" lon="1.7789">
        <ele>346.69</ele>
        <time>2021-08-17T12:24:54Z</time>
      </trkpt>
      <trkpt lat="44.31526" lon="1.77908">
        <ele>346.69</ele>
        <time>2021-08-17T12:24:59Z</time>
      </trkpt>
      <trkpt lat="44.31523" lon="1.7791">
        <ele>346.69</ele>
        <time>2021-08-17T12:25:00Z</time>
      </trkpt>
      <trkpt lat="44.31519" lon="1.77911">
        <ele>346.69</ele>
        <time>2021-08-17T12:25:01Z</time>
      </trkpt>
      <trkpt lat="44.31501" lon="1.77922">
        <ele>347.17</ele>
        <time>2021-08-17T12:25:07Z</time>
      </trkpt>
      <trkpt lat="44.31481" lon="1.7794">
        <ele>345.25</ele>
        <time>2021-08-17T12:25:13Z</time>
      </trkpt>
      <trkpt lat="44.3145" lon="1.77961">
        <ele>343.81</ele>
        <time>2021-08-17T12:25:20Z</time>
      </trkpt>
      <trkpt lat="44.31421" lon="1.77984">
        <ele>344.29</ele>
        <time>2021-08-17T12:25:27Z</time>
      </trkpt>
      <trkpt lat="44.314" lon="1.77999">
        <ele>344.29</ele>
        <time>2021-08-17T12:25:33Z</time>
      </trkpt>
      <trkpt lat="44.31395" lon="1.78003">
        <ele>344.29</ele>
        <time>2021-08-17T12:25:34Z</time>
      </trkpt>
      <trkpt lat="44.31391" lon="1.78006">
        <ele>344.29</ele>
        <time>2021-08-17T12:25:35Z</time>
      </trkpt>
      <trkpt lat="44.31379" lon="1.78013">
        <ele>344.29</ele>
        <time>2021-08-17T12:25:38Z</time>
      </trkpt>
      <trkpt lat="44.31358" lon="1.78022">
        <ele>345.73</ele>
        <time>2021-08-17T12:25:42Z</time>
      </trkpt>
      <trkpt lat="44.31336" lon="1.78035">
        <ele>345.73</ele>
        <time>2021-08-17T12:25:49Z</time>
      </trkpt>
      <trkpt lat="44.31323" lon="1.78051">
        <ele>345.73</ele>
        <time>2021-08-17T12:25:53Z</time>
      </trkpt>
      <trkpt lat="44.31308" lon="1.78072">
        <ele>344.29</ele>
        <time>2021-08-17T12:25:57Z</time>
      </trkpt>
      <trkpt lat="44.31286" lon="1.78093">
        <ele>342.85</ele>
        <time>2021-08-17T12:26:02Z</time>
      </trkpt>
      <trkpt lat="44.31282" lon="1.78098">
        <ele>342.85</ele>
        <time>2021-08-17T12:26:03Z</time>
      </trkpt>
      <trkpt lat="44.31263" lon="1.78116">
        <ele>341.89</ele>
        <time>2021-08-17T12:26:07Z</time>
      </trkpt>
      <trkpt lat="44.31257" lon="1.78121">
        <ele>341.89</ele>
        <time>2021-08-17T12:26:08Z</time>
      </trkpt>
      <trkpt lat="44.31252" lon="1.78125">
        <ele>341.89</ele>
        <time>2021-08-17T12:26:09Z</time>
      </trkpt>
      <trkpt lat="44.31248" lon="1.78129">
        <ele>341.89</ele>
        <time>2021-08-17T12:26:10Z</time>
      </trkpt>
      <trkpt lat="44.31244" lon="1.78133">
        <ele>341.89</ele>
        <time>2021-08-17T12:26:11Z</time>
      </trkpt>
      <trkpt lat="44.31239" lon="1.78136">
        <ele>341.89</ele>
        <time>2021-08-17T12:26:12Z</time>
      </trkpt>
      <trkpt lat="44.31215" lon="1.78151">
        <ele>341.89</ele>
        <time>2021-08-17T12:26:18Z</time>
      </trkpt>
      <trkpt lat="44.31195" lon="1.78155">
        <ele>340.44</ele>
        <time>2021-08-17T12:26:22Z</time>
      </trkpt>
      <trkpt lat="44.31189" lon="1.78157">
        <ele>340.44</ele>
        <time>2021-08-17T12:26:23Z</time>
      </trkpt>
      <trkpt lat="44.31184" lon="1.78158">
        <ele>340.44</ele>
        <time>2021-08-17T12:26:24Z</time>
      </trkpt>
      <trkpt lat="44.31178" lon="1.78159">
        <ele>340.44</ele>
        <time>2021-08-17T12:26:25Z</time>
      </trkpt>
      <trkpt lat="44.31172" lon="1.78161">
        <ele>339.48</ele>
        <time>2021-08-17T12:26:26Z</time>
      </trkpt>
      <trkpt lat="44.31167" lon="1.78165">
        <ele>339.48</ele>
        <time>2021-08-17T12:26:27Z</time>
      </trkpt>
      <trkpt lat="44.31163" lon="1.7817">
        <ele>339.48</ele>
        <time>2021-08-17T12:26:28Z</time>
      </trkpt>
      <trkpt lat="44.3116" lon="1.78175">
        <ele>339.48</ele>
        <time>2021-08-17T12:26:29Z</time>
      </trkpt>
      <trkpt lat="44.31158" lon="1.78181">
        <ele>339.48</ele>
        <time>2021-08-17T12:26:30Z</time>
      </trkpt>
      <trkpt lat="44.31156" lon="1.78186">
        <ele>339.48</ele>
        <time>2021-08-17T12:26:31Z</time>
      </trkpt>
      <trkpt lat="44.31155" lon="1.78191">
        <ele>339.48</ele>
        <time>2021-08-17T12:26:32Z</time>
      </trkpt>
      <trkpt lat="44.31154" lon="1.78196">
        <ele>339.48</ele>
        <time>2021-08-17T12:26:33Z</time>
      </trkpt>
      <trkpt lat="44.31152" lon="1.78201">
        <ele>339.48</ele>
        <time>2021-08-17T12:26:34Z</time>
      </trkpt>
      <trkpt lat="44.3115" lon="1.78206">
        <ele>339.48</ele>
        <time>2021-08-17T12:26:35Z</time>
      </trkpt>
      <trkpt lat="44.31148" lon="1.78211">
        <ele>339.48</ele>
        <time>2021-08-17T12:26:36Z</time>
      </trkpt>
      <trkpt lat="44.31145" lon="1.78216">
        <ele>339.48</ele>
        <time>2021-08-17T12:26:37Z</time>
      </trkpt>
      <trkpt lat="44.31144" lon="1.78222">
        <ele>339.48</ele>
        <time>2021-08-17T12:26:38Z</time>
      </trkpt>
      <trkpt lat="44.31131" lon="1.78254">
        <ele>338.52</ele>
        <time>2021-08-17T12:26:43Z</time>
      </trkpt>
      <trkpt lat="44.31127" lon="1.78261">
        <ele>338.52</ele>
        <time>2021-08-17T12:26:44Z</time>
      </trkpt>
      <trkpt lat="44.31124" lon="1.78266">
        <ele>338.04</ele>
        <time>2021-08-17T12:26:45Z</time>
      </trkpt>
      <trkpt lat="44.3112" lon="1.7827">
        <ele>338.04</ele>
        <time>2021-08-17T12:26:46Z</time>
      </trkpt>
      <trkpt lat="44.31115" lon="1.78274">
        <ele>338.04</ele>
        <time>2021-08-17T12:26:47Z</time>
      </trkpt>
      <trkpt lat="44.31111" lon="1.78277">
        <ele>337.56</ele>
        <time>2021-08-17T12:26:48Z</time>
      </trkpt>
      <trkpt lat="44.31106" lon="1.78279">
        <ele>337.56</ele>
        <time>2021-08-17T12:26:49Z</time>
      </trkpt>
      <trkpt lat="44.31101" lon="1.78282">
        <ele>337.08</ele>
        <time>2021-08-17T12:26:50Z</time>
      </trkpt>
      <trkpt lat="44.31097" lon="1.78285">
        <ele>336.6</ele>
        <time>2021-08-17T12:26:51Z</time>
      </trkpt>
      <trkpt lat="44.31072" lon="1.78298">
        <ele>335.64</ele>
        <time>2021-08-17T12:26:56Z</time>
      </trkpt>
      <trkpt lat="44.31067" lon="1.783">
        <ele>335.64</ele>
        <time>2021-08-17T12:26:57Z</time>
      </trkpt>
      <trkpt lat="44.31045" lon="1.78305">
        <ele>337.08</ele>
        <time>2021-08-17T12:27:03Z</time>
      </trkpt>
      <trkpt lat="44.31026" lon="1.78309">
        <ele>337.08</ele>
        <time>2021-08-17T12:27:08Z</time>
      </trkpt>
      <trkpt lat="44.31017" lon="1.78308">
        <ele>337.08</ele>
        <time>2021-08-17T12:27:10Z</time>
      </trkpt>
      <trkpt lat="44.31013" lon="1.78307">
        <ele>337.08</ele>
        <time>2021-08-17T12:27:11Z</time>
      </trkpt>
      <trkpt lat="44.31009" lon="1.78305">
        <ele>337.08</ele>
        <time>2021-08-17T12:27:12Z</time>
      </trkpt>
      <trkpt lat="44.31004" lon="1.78305">
        <ele>337.08</ele>
        <time>2021-08-17T12:27:13Z</time>
      </trkpt>
      <trkpt lat="44.31" lon="1.78306">
        <ele>337.08</ele>
        <time>2021-08-17T12:27:14Z</time>
      </trkpt>
      <trkpt lat="44.30995" lon="1.78307">
        <ele>335.64</ele>
        <time>2021-08-17T12:27:15Z</time>
      </trkpt>
      <trkpt lat="44.30991" lon="1.78307">
        <ele>335.64</ele>
        <time>2021-08-17T12:27:16Z</time>
      </trkpt>
      <trkpt lat="44.30987" lon="1.78307">
        <ele>335.64</ele>
        <time>2021-08-17T12:27:17Z</time>
      </trkpt>
      <trkpt lat="44.30983" lon="1.78307">
        <ele>334.68</ele>
        <time>2021-08-17T12:27:18Z</time>
      </trkpt>
      <trkpt lat="44.30978" lon="1.78306">
        <ele>334.2</ele>
        <time>2021-08-17T12:27:19Z</time>
      </trkpt>
      <trkpt lat="44.30974" lon="1.78303">
        <ele>333.23</ele>
        <time>2021-08-17T12:27:20Z</time>
      </trkpt>
      <trkpt lat="44.30969" lon="1.78299">
        <ele>332.75</ele>
        <time>2021-08-17T12:27:21Z</time>
      </trkpt>
      <trkpt lat="44.30965" lon="1.78295">
        <ele>331.31</ele>
        <time>2021-08-17T12:27:22Z</time>
      </trkpt>
      <trkpt lat="44.30959" lon="1.78288">
        <ele>330.83</ele>
        <time>2021-08-17T12:27:23Z</time>
      </trkpt>
      <trkpt lat="44.30948" lon="1.78274">
        <ele>329.87</ele>
        <time>2021-08-17T12:27:25Z</time>
      </trkpt>
      <trkpt lat="44.30943" lon="1.78269">
        <ele>328.91</ele>
        <time>2021-08-17T12:27:26Z</time>
      </trkpt>
      <trkpt lat="44.30937" lon="1.78266">
        <ele>328.91</ele>
        <time>2021-08-17T12:27:27Z</time>
      </trkpt>
      <trkpt lat="44.30933" lon="1.78267">
        <ele>328.43</ele>
        <time>2021-08-17T12:27:28Z</time>
      </trkpt>
      <trkpt lat="44.30927" lon="1.78269">
        <ele>327.95</ele>
        <time>2021-08-17T12:27:29Z</time>
      </trkpt>
      <trkpt lat="44.30922" lon="1.7827">
        <ele>327.95</ele>
        <time>2021-08-17T12:27:30Z</time>
      </trkpt>
      <trkpt lat="44.30898" lon="1.78277">
        <ele>329.87</ele>
        <time>2021-08-17T12:27:36Z</time>
      </trkpt>
      <trkpt lat="44.30897" lon="1.78277">
        <ele>329.87</ele>
        <time>2021-08-17T12:27:37Z</time>
      </trkpt>
      <trkpt lat="44.30884" lon="1.78277">
        <ele>330.35</ele>
        <time>2021-08-17T12:27:45Z</time>
      </trkpt>
      <trkpt lat="44.30865" lon="1.78277">
        <ele>332.27</ele>
        <time>2021-08-17T12:27:56Z</time>
      </trkpt>
      <trkpt lat="44.3085" lon="1.78281">
        <ele>333.71</ele>
        <time>2021-08-17T12:28:05Z</time>
      </trkpt>
      <trkpt lat="44.30839" lon="1.78289">
        <ele>334.68</ele>
        <time>2021-08-17T12:28:13Z</time>
      </trkpt>
      <trkpt lat="44.30823" lon="1.78304">
        <ele>336.12</ele>
        <time>2021-08-17T12:28:24Z</time>
      </trkpt>
      <trkpt lat="44.30808" lon="1.78321">
        <ele>336.6</ele>
        <time>2021-08-17T12:28:33Z</time>
      </trkpt>
      <trkpt lat="44.30789" lon="1.78346">
        <ele>337.56</ele>
        <time>2021-08-17T12:28:43Z</time>
      </trkpt>
      <trkpt lat="44.3077" lon="1.78374">
        <ele>337.56</ele>
        <time>2021-08-17T12:28:50Z</time>
      </trkpt>
      <trkpt lat="44.30737" lon="1.78422">
        <ele>336.12</ele>
        <time>2021-08-17T12:29:01Z</time>
      </trkpt>
      <trkpt lat="44.30734" lon="1.78426">
        <ele>336.12</ele>
        <time>2021-08-17T12:29:02Z</time>
      </trkpt>
      <trkpt lat="44.30731" lon="1.7843">
        <ele>336.12</ele>
        <time>2021-08-17T12:29:03Z</time>
      </trkpt>
      <trkpt lat="44.30729" lon="1.78435">
        <ele>336.12</ele>
        <time>2021-08-17T12:29:04Z</time>
      </trkpt>
      <trkpt lat="44.30717" lon="1.78468">
        <ele>336.12</ele>
        <time>2021-08-17T12:29:11Z</time>
      </trkpt>
      <trkpt lat="44.30715" lon="1.78473">
        <ele>336.12</ele>
        <time>2021-08-17T12:29:12Z</time>
      </trkpt>
      <trkpt lat="44.30713" lon="1.78478">
        <ele>336.12</ele>
        <time>2021-08-17T12:29:13Z</time>
      </trkpt>
      <trkpt lat="44.30701" lon="1.78505">
        <ele>336.12</ele>
        <time>2021-08-17T12:29:19Z</time>
      </trkpt>
      <trkpt lat="44.30687" lon="1.78537">
        <ele>337.56</ele>
        <time>2021-08-17T12:29:27Z</time>
      </trkpt>
      <trkpt lat="44.30673" lon="1.78558">
        <ele>338.52</ele>
        <time>2021-08-17T12:29:35Z</time>
      </trkpt>
      <trkpt lat="44.30659" lon="1.78576">
        <ele>339.96</ele>
        <time>2021-08-17T12:29:43Z</time>
      </trkpt>
      <trkpt lat="44.3064" lon="1.78601">
        <ele>340.44</ele>
        <time>2021-08-17T12:29:53Z</time>
      </trkpt>
      <trkpt lat="44.30616" lon="1.78617">
        <ele>339</ele>
        <time>2021-08-17T12:30:00Z</time>
      </trkpt>
      <trkpt lat="44.30611" lon="1.7862">
        <ele>339</ele>
        <time>2021-08-17T12:30:01Z</time>
      </trkpt>
      <trkpt lat="44.30589" lon="1.78638">
        <ele>339</ele>
        <time>2021-08-17T12:30:08Z</time>
      </trkpt>
      <trkpt lat="44.30569" lon="1.78653">
        <ele>339</ele>
        <time>2021-08-17T12:30:17Z</time>
      </trkpt>
      <trkpt lat="44.30555" lon="1.78667">
        <ele>339.96</ele>
        <time>2021-08-17T12:30:24Z</time>
      </trkpt>
      <trkpt lat="44.30544" lon="1.78679">
        <ele>340.92</ele>
        <time>2021-08-17T12:30:30Z</time>
      </trkpt>
      <trkpt lat="44.30538" lon="1.787">
        <ele>341.89</ele>
        <time>2021-08-17T12:30:37Z</time>
      </trkpt>
      <trkpt lat="44.30534" lon="1.78727">
        <ele>343.33</ele>
        <time>2021-08-17T12:30:46Z</time>
      </trkpt>
      <trkpt lat="44.30533" lon="1.78752">
        <ele>343.81</ele>
        <time>2021-08-17T12:30:53Z</time>
      </trkpt>
      <trkpt lat="44.30529" lon="1.78788">
        <ele>345.25</ele>
        <time>2021-08-17T12:31:03Z</time>
      </trkpt>
      <trkpt lat="44.30527" lon="1.78817">
        <ele>345.73</ele>
        <time>2021-08-17T12:31:10Z</time>
      </trkpt>
      <trkpt lat="44.30522" lon="1.7886">
        <ele>346.21</ele>
        <time>2021-08-17T12:31:19Z</time>
      </trkpt>
      <trkpt lat="44.30517" lon="1.78908">
        <ele>344.77</ele>
        <time>2021-08-17T12:31:28Z</time>
      </trkpt>
      <trkpt lat="44.30516" lon="1.78915">
        <ele>344.77</ele>
        <time>2021-08-17T12:31:29Z</time>
      </trkpt>
      <trkpt lat="44.30515" lon="1.78921">
        <ele>344.77</ele>
        <time>2021-08-17T12:31:30Z</time>
      </trkpt>
      <trkpt lat="44.30515" lon="1.78928">
        <ele>344.29</ele>
        <time>2021-08-17T12:31:31Z</time>
      </trkpt>
      <trkpt lat="44.30516" lon="1.78935">
        <ele>344.29</ele>
        <time>2021-08-17T12:31:32Z</time>
      </trkpt>
      <trkpt lat="44.30518" lon="1.78941">
        <ele>343.33</ele>
        <time>2021-08-17T12:31:33Z</time>
      </trkpt>
      <trkpt lat="44.3052" lon="1.78955">
        <ele>342.85</ele>
        <time>2021-08-17T12:31:35Z</time>
      </trkpt>
      <trkpt lat="44.3052" lon="1.78962">
        <ele>341.89</ele>
        <time>2021-08-17T12:31:36Z</time>
      </trkpt>
      <trkpt lat="44.30518" lon="1.78969">
        <ele>341.41</ele>
        <time>2021-08-17T12:31:37Z</time>
      </trkpt>
      <trkpt lat="44.30516" lon="1.78975">
        <ele>340.44</ele>
        <time>2021-08-17T12:31:38Z</time>
      </trkpt>
      <trkpt lat="44.30512" lon="1.78981">
        <ele>339.48</ele>
        <time>2021-08-17T12:31:39Z</time>
      </trkpt>
      <trkpt lat="44.30509" lon="1.78987">
        <ele>339</ele>
        <time>2021-08-17T12:31:40Z</time>
      </trkpt>
      <trkpt lat="44.30504" lon="1.78992">
        <ele>338.52</ele>
        <time>2021-08-17T12:31:41Z</time>
      </trkpt>
      <trkpt lat="44.30483" lon="1.79012">
        <ele>335.16</ele>
        <time>2021-08-17T12:31:45Z</time>
      </trkpt>
      <trkpt lat="44.30479" lon="1.79019">
        <ele>334.68</ele>
        <time>2021-08-17T12:31:46Z</time>
      </trkpt>
      <trkpt lat="44.30475" lon="1.79028">
        <ele>334.68</ele>
        <time>2021-08-17T12:31:47Z</time>
      </trkpt>
      <trkpt lat="44.30471" lon="1.79036">
        <ele>334.2</ele>
        <time>2021-08-17T12:31:48Z</time>
      </trkpt>
      <trkpt lat="44.30468" lon="1.79043">
        <ele>334.2</ele>
        <time>2021-08-17T12:31:49Z</time>
      </trkpt>
      <trkpt lat="44.30464" lon="1.79051">
        <ele>334.2</ele>
        <time>2021-08-17T12:31:50Z</time>
      </trkpt>
      <trkpt lat="44.30462" lon="1.79061">
        <ele>334.2</ele>
        <time>2021-08-17T12:31:51Z</time>
      </trkpt>
      <trkpt lat="44.30462" lon="1.79069">
        <ele>334.2</ele>
        <time>2021-08-17T12:31:52Z</time>
      </trkpt>
      <trkpt lat="44.30463" lon="1.79076">
        <ele>334.2</ele>
        <time>2021-08-17T12:31:53Z</time>
      </trkpt>
      <trkpt lat="44.30463" lon="1.79079">
        <ele>336.12</ele>
        <time>2021-08-17T12:31:54Z</time>
      </trkpt>
      <trkpt lat="44.30464" lon="1.79084">
        <ele>336.12</ele>
        <time>2021-08-17T12:31:55Z</time>
      </trkpt>
      <trkpt lat="44.30464" lon="1.79089">
        <ele>337.08</ele>
        <time>2021-08-17T12:31:57Z</time>
      </trkpt>
      <trkpt lat="44.30464" lon="1.79092">
        <ele>337.08</ele>
        <time>2021-08-17T12:31:58Z</time>
      </trkpt>
      <trkpt lat="44.30465" lon="1.79093">
        <ele>337.08</ele>
        <time>2021-08-17T12:31:59Z</time>
      </trkpt>
      <trkpt lat="44.30466" lon="1.79092">
        <ele>337.08</ele>
        <time>2021-08-17T12:32:00Z</time>
      </trkpt>
      <trkpt lat="44.30466" lon="1.7909">
        <ele>337.08</ele>
        <time>2021-08-17T12:32:01Z</time>
      </trkpt>
      <trkpt lat="44.30465" lon="1.79086">
        <ele>337.08</ele>
        <time>2021-08-17T12:32:02Z</time>
      </trkpt>
      <trkpt lat="44.30463" lon="1.79084">
        <ele>337.08</ele>
        <time>2021-08-17T12:32:03Z</time>
      </trkpt>
      <trkpt lat="44.30461" lon="1.79083">
        <ele>337.08</ele>
        <time>2021-08-17T12:32:04Z</time>
      </trkpt>
      <trkpt lat="44.3046" lon="1.79083">
        <ele>337.08</ele>
        <time>2021-08-17T12:32:08Z</time>
      </trkpt>
      <trkpt lat="44.30461" lon="1.79085">
        <ele>337.08</ele>
        <time>2021-08-17T12:32:27Z</time>
      </trkpt>
      <trkpt lat="44.30461" lon="1.79087">
        <ele>337.08</ele>
        <time>2021-08-17T12:32:49Z</time>
      </trkpt>
      <trkpt lat="44.30459" lon="1.79087">
        <ele>337.08</ele>
        <time>2021-08-17T12:33:11Z</time>
      </trkpt>
      <trkpt lat="44.3046" lon="1.79087">
        <ele>337.08</ele>
        <time>2021-08-17T12:33:41Z</time>
      </trkpt>
      <trkpt lat="44.30461" lon="1.79087">
        <ele>336.6</ele>
        <time>2021-08-17T12:34:02Z</time>
      </trkpt>
      <trkpt lat="44.30463" lon="1.79088">
        <ele>336.6</ele>
        <time>2021-08-17T12:34:09Z</time>
      </trkpt>
      <trkpt lat="44.30464" lon="1.79089">
        <ele>336.6</ele>
        <time>2021-08-17T12:34:10Z</time>
      </trkpt>
      <trkpt lat="44.30465" lon="1.79091">
        <ele>336.6</ele>
        <time>2021-08-17T12:34:11Z</time>
      </trkpt>
      <trkpt lat="44.30466" lon="1.79093">
        <ele>336.6</ele>
        <time>2021-08-17T12:34:12Z</time>
      </trkpt>
      <trkpt lat="44.30466" lon="1.79095">
        <ele>336.6</ele>
        <time>2021-08-17T12:34:13Z</time>
      </trkpt>
      <trkpt lat="44.30466" lon="1.79097">
        <ele>337.08</ele>
        <time>2021-08-17T12:34:14Z</time>
      </trkpt>
      <trkpt lat="44.30467" lon="1.79099">
        <ele>337.08</ele>
        <time>2021-08-17T12:34:15Z</time>
      </trkpt>
      <trkpt lat="44.3047" lon="1.79121">
        <ele>339</ele>
        <time>2021-08-17T12:34:24Z</time>
      </trkpt>
      <trkpt lat="44.30469" lon="1.7914">
        <ele>340.44</ele>
        <time>2021-08-17T12:34:33Z</time>
      </trkpt>
      <trkpt lat="44.30459" lon="1.79147">
        <ele>341.41</ele>
        <time>2021-08-17T12:34:40Z</time>
      </trkpt>
      <trkpt lat="44.30445" lon="1.79149">
        <ele>342.37</ele>
        <time>2021-08-17T12:34:49Z</time>
      </trkpt>
      <trkpt lat="44.30431" lon="1.79152">
        <ele>343.33</ele>
        <time>2021-08-17T12:34:57Z</time>
      </trkpt>
      <trkpt lat="44.30417" lon="1.79157">
        <ele>344.77</ele>
        <time>2021-08-17T12:35:05Z</time>
      </trkpt>
      <trkpt lat="44.30403" lon="1.79164">
        <ele>345.73</ele>
        <time>2021-08-17T12:35:13Z</time>
      </trkpt>
      <trkpt lat="44.30386" lon="1.79176">
        <ele>347.17</ele>
        <time>2021-08-17T12:35:22Z</time>
      </trkpt>
      <trkpt lat="44.30368" lon="1.79184">
        <ele>347.17</ele>
        <time>2021-08-17T12:35:30Z</time>
      </trkpt>
      <trkpt lat="44.30347" lon="1.79198">
        <ele>347.65</ele>
        <time>2021-08-17T12:35:38Z</time>
      </trkpt>
      <trkpt lat="44.30326" lon="1.79227">
        <ele>348.13</ele>
        <time>2021-08-17T12:35:47Z</time>
      </trkpt>
      <trkpt lat="44.3032" lon="1.79252">
        <ele>349.1</ele>
        <time>2021-08-17T12:35:54Z</time>
      </trkpt>
      <trkpt lat="44.30317" lon="1.79253">
        <ele>349.1</ele>
        <time>2021-08-17T12:35:55Z</time>
      </trkpt>
      <trkpt lat="44.30313" lon="1.79253">
        <ele>349.1</ele>
        <time>2021-08-17T12:35:56Z</time>
      </trkpt>
      <trkpt lat="44.30311" lon="1.79252">
        <ele>349.1</ele>
        <time>2021-08-17T12:35:57Z</time>
      </trkpt>
      <trkpt lat="44.30308" lon="1.79252">
        <ele>349.1</ele>
        <time>2021-08-17T12:35:58Z</time>
      </trkpt>
      <trkpt lat="44.30304" lon="1.79251">
        <ele>349.1</ele>
        <time>2021-08-17T12:35:59Z</time>
      </trkpt>
      <trkpt lat="44.30301" lon="1.79251">
        <ele>349.1</ele>
        <time>2021-08-17T12:36:00Z</time>
      </trkpt>
      <trkpt lat="44.30297" lon="1.79251">
        <ele>349.1</ele>
        <time>2021-08-17T12:36:01Z</time>
      </trkpt>
      <trkpt lat="44.30272" lon="1.79247">
        <ele>349.1</ele>
        <time>2021-08-17T12:36:08Z</time>
      </trkpt>
      <trkpt lat="44.30267" lon="1.79248">
        <ele>347.65</ele>
        <time>2021-08-17T12:36:09Z</time>
      </trkpt>
      <trkpt lat="44.30263" lon="1.79249">
        <ele>347.65</ele>
        <time>2021-08-17T12:36:10Z</time>
      </trkpt>
      <trkpt lat="44.30249" lon="1.79255">
        <ele>347.65</ele>
        <time>2021-08-17T12:36:13Z</time>
      </trkpt>
      <trkpt lat="44.30219" lon="1.79274">
        <ele>346.69</ele>
        <time>2021-08-17T12:36:20Z</time>
      </trkpt>
      <trkpt lat="44.30216" lon="1.79273">
        <ele>346.69</ele>
        <time>2021-08-17T12:36:21Z</time>
      </trkpt>
      <trkpt lat="44.30216" lon="1.79271">
        <ele>346.21</ele>
        <time>2021-08-17T12:36:22Z</time>
      </trkpt>
      <trkpt lat="44.30219" lon="1.79265">
        <ele>346.21</ele>
        <time>2021-08-17T12:36:25Z</time>
      </trkpt>
      <trkpt lat="44.30222" lon="1.79263">
        <ele>346.21</ele>
        <time>2021-08-17T12:36:26Z</time>
      </trkpt>
      <trkpt lat="44.30233" lon="1.79246">
        <ele>346.21</ele>
        <time>2021-08-17T12:36:32Z</time>
      </trkpt>
      <trkpt lat="44.30235" lon="1.79209">
        <ele>346.21</ele>
        <time>2021-08-17T12:36:39Z</time>
      </trkpt>
      <trkpt lat="44.30236" lon="1.79191">
        <ele>345.25</ele>
        <time>2021-08-17T12:36:42Z</time>
      </trkpt>
      <trkpt lat="44.30238" lon="1.79179">
        <ele>344.77</ele>
        <time>2021-08-17T12:36:44Z</time>
      </trkpt>
      <trkpt lat="44.30237" lon="1.79162">
        <ele>344.29</ele>
        <time>2021-08-17T12:36:47Z</time>
      </trkpt>
      <trkpt lat="44.30234" lon="1.7916">
        <ele>343.81</ele>
        <time>2021-08-17T12:36:48Z</time>
      </trkpt>
      <trkpt lat="44.30232" lon="1.79161">
        <ele>343.33</ele>
        <time>2021-08-17T12:36:49Z</time>
      </trkpt>
      <trkpt lat="44.30229" lon="1.79164">
        <ele>343.33</ele>
        <time>2021-08-17T12:36:50Z</time>
      </trkpt>
      <trkpt lat="44.30227" lon="1.79167">
        <ele>343.33</ele>
        <time>2021-08-17T12:36:51Z</time>
      </trkpt>
      <trkpt lat="44.30207" lon="1.79191">
        <ele>342.37</ele>
        <time>2021-08-17T12:36:58Z</time>
      </trkpt>
      <trkpt lat="44.30207" lon="1.79192">
        <ele>341.89</ele>
        <time>2021-08-17T12:37:03Z</time>
      </trkpt>
      <trkpt lat="44.30207" lon="1.79192">
        <ele>341.89</ele>
        <time>2021-08-17T12:37:15Z</time>
      </trkpt>
      <trkpt lat="44.30207" lon="1.79191">
        <ele>341.89</ele>
        <time>2021-08-17T12:37:31Z</time>
      </trkpt>
      <trkpt lat="44.30207" lon="1.79191">
        <ele>341.89</ele>
        <time>2021-08-17T12:37:39Z</time>
      </trkpt>
      <trkpt lat="44.30206" lon="1.7919">
        <ele>341.89</ele>
        <time>2021-08-17T12:37:44Z</time>
      </trkpt>
      <trkpt lat="44.30208" lon="1.7919">
        <ele>341.89</ele>
        <time>2021-08-17T12:37:50Z</time>
      </trkpt>
      <trkpt lat="44.30209" lon="1.79188">
        <ele>341.89</ele>
        <time>2021-08-17T12:37:51Z</time>
      </trkpt>
      <trkpt lat="44.3021" lon="1.79187">
        <ele>341.89</ele>
        <time>2021-08-17T12:37:52Z</time>
      </trkpt>
      <trkpt lat="44.30211" lon="1.79186">
        <ele>341.89</ele>
        <time>2021-08-17T12:37:53Z</time>
      </trkpt>
      <trkpt lat="44.30213" lon="1.79184">
        <ele>341.89</ele>
        <time>2021-08-17T12:37:54Z</time>
      </trkpt>
      <trkpt lat="44.30226" lon="1.79167">
        <ele>341.89</ele>
        <time>2021-08-17T12:38:02Z</time>
      </trkpt>
      <trkpt lat="44.30236" lon="1.79162">
        <ele>341.89</ele>
        <time>2021-08-17T12:38:06Z</time>
      </trkpt>
      <trkpt lat="44.30238" lon="1.79164">
        <ele>343.33</ele>
        <time>2021-08-17T12:38:07Z</time>
      </trkpt>
      <trkpt lat="44.30239" lon="1.79167">
        <ele>343.33</ele>
        <time>2021-08-17T12:38:08Z</time>
      </trkpt>
      <trkpt lat="44.30239" lon="1.7917">
        <ele>343.81</ele>
        <time>2021-08-17T12:38:09Z</time>
      </trkpt>
      <trkpt lat="44.30238" lon="1.79174">
        <ele>343.81</ele>
        <time>2021-08-17T12:38:10Z</time>
      </trkpt>
      <trkpt lat="44.30238" lon="1.79177">
        <ele>343.81</ele>
        <time>2021-08-17T12:38:11Z</time>
      </trkpt>
      <trkpt lat="44.30237" lon="1.7918">
        <ele>344.29</ele>
        <time>2021-08-17T12:38:12Z</time>
      </trkpt>
      <trkpt lat="44.30236" lon="1.79183">
        <ele>344.29</ele>
        <time>2021-08-17T12:38:13Z</time>
      </trkpt>
      <trkpt lat="44.30236" lon="1.79186">
        <ele>344.29</ele>
        <time>2021-08-17T12:38:14Z</time>
      </trkpt>
      <trkpt lat="44.30236" lon="1.79209">
        <ele>344.77</ele>
        <time>2021-08-17T12:38:21Z</time>
      </trkpt>
      <trkpt lat="44.30235" lon="1.7924">
        <ele>345.73</ele>
        <time>2021-08-17T12:38:30Z</time>
      </trkpt>
      <trkpt lat="44.30227" lon="1.79267">
        <ele>346.21</ele>
        <time>2021-08-17T12:38:38Z</time>
      </trkpt>
      <trkpt lat="44.3021" lon="1.7928">
        <ele>346.21</ele>
        <time>2021-08-17T12:38:45Z</time>
      </trkpt>
      <trkpt lat="44.30207" lon="1.79283">
        <ele>346.21</ele>
        <time>2021-08-17T12:38:47Z</time>
      </trkpt>
      <trkpt lat="44.30206" lon="1.79284">
        <ele>346.21</ele>
        <time>2021-08-17T12:38:48Z</time>
      </trkpt>
      <trkpt lat="44.30205" lon="1.79283">
        <ele>346.21</ele>
        <time>2021-08-17T12:38:49Z</time>
      </trkpt>
      <trkpt lat="44.30203" lon="1.79283">
        <ele>346.21</ele>
        <time>2021-08-17T12:38:50Z</time>
      </trkpt>
      <trkpt lat="44.30203" lon="1.79281">
        <ele>346.21</ele>
        <time>2021-08-17T12:38:51Z</time>
      </trkpt>
      <trkpt lat="44.30201" lon="1.7927">
        <ele>346.21</ele>
        <time>2021-08-17T12:38:57Z</time>
      </trkpt>
      <trkpt lat="44.30197" lon="1.79263">
        <ele>344.77</ele>
        <time>2021-08-17T12:39:00Z</time>
      </trkpt>
      <trkpt lat="44.30187" lon="1.79264">
        <ele>344.77</ele>
        <time>2021-08-17T12:39:04Z</time>
      </trkpt>
      <trkpt lat="44.30181" lon="1.79263">
        <ele>344.29</ele>
        <time>2021-08-17T12:39:06Z</time>
      </trkpt>
      <trkpt lat="44.30171" lon="1.7925">
        <ele>342.37</ele>
        <time>2021-08-17T12:39:10Z</time>
      </trkpt>
      <trkpt lat="44.3016" lon="1.79227">
        <ele>339</ele>
        <time>2021-08-17T12:39:15Z</time>
      </trkpt>
      <trkpt lat="44.30151" lon="1.79213">
        <ele>336.12</ele>
        <time>2021-08-17T12:39:22Z</time>
      </trkpt>
      <trkpt lat="44.3015" lon="1.79213">
        <ele>335.64</ele>
        <time>2021-08-17T12:39:23Z</time>
      </trkpt>
      <trkpt lat="44.30143" lon="1.79218">
        <ele>332.75</ele>
        <time>2021-08-17T12:39:30Z</time>
      </trkpt>
      <trkpt lat="44.3014" lon="1.79219">
        <ele>332.27</ele>
        <time>2021-08-17T12:39:33Z</time>
      </trkpt>
      <trkpt lat="44.30137" lon="1.79218">
        <ele>330.83</ele>
        <time>2021-08-17T12:39:35Z</time>
      </trkpt>
      <trkpt lat="44.30135" lon="1.7922">
        <ele>330.35</ele>
        <time>2021-08-17T12:39:37Z</time>
      </trkpt>
      <trkpt lat="44.30123" lon="1.79232">
        <ele>326.99</ele>
        <time>2021-08-17T12:39:44Z</time>
      </trkpt>
      <trkpt lat="44.30121" lon="1.79233">
        <ele>326.99</ele>
        <time>2021-08-17T12:39:45Z</time>
      </trkpt>
      <trkpt lat="44.30107" lon="1.79244">
        <ele>323.62</ele>
        <time>2021-08-17T12:39:50Z</time>
      </trkpt>
      <trkpt lat="44.30104" lon="1.79245">
        <ele>323.62</ele>
        <time>2021-08-17T12:39:51Z</time>
      </trkpt>
      <trkpt lat="44.3009" lon="1.79255">
        <ele>320.74</ele>
        <time>2021-08-17T12:39:56Z</time>
      </trkpt>
      <trkpt lat="44.3008" lon="1.79262">
        <ele>318.81</ele>
        <time>2021-08-17T12:40:01Z</time>
      </trkpt>
      <trkpt lat="44.30078" lon="1.79263">
        <ele>318.33</ele>
        <time>2021-08-17T12:40:02Z</time>
      </trkpt>
      <trkpt lat="44.30076" lon="1.79264">
        <ele>318.33</ele>
        <time>2021-08-17T12:40:03Z</time>
      </trkpt>
      <trkpt lat="44.30074" lon="1.79265">
        <ele>317.37</ele>
        <time>2021-08-17T12:40:04Z</time>
      </trkpt>
      <trkpt lat="44.30071" lon="1.79266">
        <ele>316.89</ele>
        <time>2021-08-17T12:40:05Z</time>
      </trkpt>
      <trkpt lat="44.30069" lon="1.79267">
        <ele>316.41</ele>
        <time>2021-08-17T12:40:06Z</time>
      </trkpt>
      <trkpt lat="44.30061" lon="1.79269">
        <ele>315.45</ele>
        <time>2021-08-17T12:40:08Z</time>
      </trkpt>
      <trkpt lat="44.30037" lon="1.79284">
        <ele>314.49</ele>
        <time>2021-08-17T12:40:14Z</time>
      </trkpt>
      <trkpt lat="44.29997" lon="1.7931">
        <ele>311.6</ele>
        <time>2021-08-17T12:40:22Z</time>
      </trkpt>
      <trkpt lat="44.29992" lon="1.79315">
        <ele>311.6</ele>
        <time>2021-08-17T12:40:23Z</time>
      </trkpt>
      <trkpt lat="44.29987" lon="1.79322">
        <ele>311.6</ele>
        <time>2021-08-17T12:40:24Z</time>
      </trkpt>
      <trkpt lat="44.29971" lon="1.79345">
        <ele>311.12</ele>
        <time>2021-08-17T12:40:27Z</time>
      </trkpt>
      <trkpt lat="44.29959" lon="1.79358">
        <ele>310.64</ele>
        <time>2021-08-17T12:40:29Z</time>
      </trkpt>
      <trkpt lat="44.29952" lon="1.79363">
        <ele>310.16</ele>
        <time>2021-08-17T12:40:30Z</time>
      </trkpt>
      <trkpt lat="44.29946" lon="1.79368">
        <ele>310.16</ele>
        <time>2021-08-17T12:40:31Z</time>
      </trkpt>
      <trkpt lat="44.29915" lon="1.79384">
        <ele>309.2</ele>
        <time>2021-08-17T12:40:36Z</time>
      </trkpt>
      <trkpt lat="44.29905" lon="1.79391">
        <ele>309.2</ele>
        <time>2021-08-17T12:40:39Z</time>
      </trkpt>
      <trkpt lat="44.299" lon="1.79401">
        <ele>307.28</ele>
        <time>2021-08-17T12:40:41Z</time>
      </trkpt>
      <trkpt lat="44.29897" lon="1.79414">
        <ele>306.32</ele>
        <time>2021-08-17T12:40:43Z</time>
      </trkpt>
      <trkpt lat="44.29894" lon="1.79417">
        <ele>307.76</ele>
        <time>2021-08-17T12:40:44Z</time>
      </trkpt>
      <trkpt lat="44.29892" lon="1.79419">
        <ele>307.76</ele>
        <time>2021-08-17T12:40:45Z</time>
      </trkpt>
      <trkpt lat="44.29877" lon="1.7943">
        <ele>308.24</ele>
        <time>2021-08-17T12:40:51Z</time>
      </trkpt>
      <trkpt lat="44.29869" lon="1.79438">
        <ele>309.2</ele>
        <time>2021-08-17T12:40:56Z</time>
      </trkpt>
      <trkpt lat="44.29868" lon="1.7944">
        <ele>309.2</ele>
        <time>2021-08-17T12:40:57Z</time>
      </trkpt>
      <trkpt lat="44.29866" lon="1.79441">
        <ele>309.68</ele>
        <time>2021-08-17T12:40:58Z</time>
      </trkpt>
      <trkpt lat="44.29864" lon="1.79443">
        <ele>309.68</ele>
        <time>2021-08-17T12:40:59Z</time>
      </trkpt>
      <trkpt lat="44.29863" lon="1.79444">
        <ele>309.68</ele>
        <time>2021-08-17T12:41:00Z</time>
      </trkpt>
      <trkpt lat="44.29861" lon="1.79446">
        <ele>310.16</ele>
        <time>2021-08-17T12:41:01Z</time>
      </trkpt>
      <trkpt lat="44.2985" lon="1.79456">
        <ele>311.12</ele>
        <time>2021-08-17T12:41:09Z</time>
      </trkpt>
      <trkpt lat="44.29844" lon="1.79461">
        <ele>311.6</ele>
        <time>2021-08-17T12:41:13Z</time>
      </trkpt>
      <trkpt lat="44.29843" lon="1.79463">
        <ele>311.6</ele>
        <time>2021-08-17T12:41:14Z</time>
      </trkpt>
      <trkpt lat="44.29841" lon="1.79464">
        <ele>312.09</ele>
        <time>2021-08-17T12:41:15Z</time>
      </trkpt>
      <trkpt lat="44.2984" lon="1.79466">
        <ele>312.09</ele>
        <time>2021-08-17T12:41:16Z</time>
      </trkpt>
      <trkpt lat="44.29838" lon="1.79468">
        <ele>312.57</ele>
        <time>2021-08-17T12:41:17Z</time>
      </trkpt>
      <trkpt lat="44.29828" lon="1.79476">
        <ele>313.05</ele>
        <time>2021-08-17T12:41:24Z</time>
      </trkpt>
      <trkpt lat="44.2982" lon="1.79483">
        <ele>314.49</ele>
        <time>2021-08-17T12:41:34Z</time>
      </trkpt>
      <trkpt lat="44.29816" lon="1.79484">
        <ele>314.49</ele>
        <time>2021-08-17T12:41:37Z</time>
      </trkpt>
      <trkpt lat="44.29808" lon="1.79488">
        <ele>315.45</ele>
        <time>2021-08-17T12:41:45Z</time>
      </trkpt>
      <trkpt lat="44.298" lon="1.79491">
        <ele>316.41</ele>
        <time>2021-08-17T12:41:53Z</time>
      </trkpt>
      <trkpt lat="44.29797" lon="1.79492">
        <ele>316.89</ele>
        <time>2021-08-17T12:41:56Z</time>
      </trkpt>
      <trkpt lat="44.29784" lon="1.79497">
        <ele>317.37</ele>
        <time>2021-08-17T12:42:06Z</time>
      </trkpt>
      <trkpt lat="44.29774" lon="1.79502">
        <ele>317.85</ele>
        <time>2021-08-17T12:42:16Z</time>
      </trkpt>
      <trkpt lat="44.29763" lon="1.79505">
        <ele>319.3</ele>
        <time>2021-08-17T12:42:26Z</time>
      </trkpt>
      <trkpt lat="44.29754" lon="1.79513">
        <ele>320.74</ele>
        <time>2021-08-17T12:42:35Z</time>
      </trkpt>
      <trkpt lat="44.29748" lon="1.79519">
        <ele>321.7</ele>
        <time>2021-08-17T12:42:43Z</time>
      </trkpt>
      <trkpt lat="44.29746" lon="1.79527">
        <ele>322.66</ele>
        <time>2021-08-17T12:42:50Z</time>
      </trkpt>
      <trkpt lat="44.29746" lon="1.79531">
        <ele>323.14</ele>
        <time>2021-08-17T12:42:58Z</time>
      </trkpt>
      <trkpt lat="44.29746" lon="1.79537">
        <ele>323.62</ele>
        <time>2021-08-17T12:43:09Z</time>
      </trkpt>
      <trkpt lat="44.29749" lon="1.79546">
        <ele>324.58</ele>
        <time>2021-08-17T12:43:18Z</time>
      </trkpt>
      <trkpt lat="44.29749" lon="1.79547">
        <ele>325.06</ele>
        <time>2021-08-17T12:43:25Z</time>
      </trkpt>
      <trkpt lat="44.29749" lon="1.79549">
        <ele>325.06</ele>
        <time>2021-08-17T12:43:42Z</time>
      </trkpt>
      <trkpt lat="44.29747" lon="1.79546">
        <ele>325.54</ele>
        <time>2021-08-17T12:43:58Z</time>
      </trkpt>
      <trkpt lat="44.29746" lon="1.79546">
        <ele>325.54</ele>
        <time>2021-08-17T12:44:09Z</time>
      </trkpt>
      <trkpt lat="44.29747" lon="1.79547">
        <ele>325.54</ele>
        <time>2021-08-17T12:44:10Z</time>
      </trkpt>
      <trkpt lat="44.29748" lon="1.79546">
        <ele>325.54</ele>
        <time>2021-08-17T12:44:16Z</time>
      </trkpt>
      <trkpt lat="44.29749" lon="1.79549">
        <ele>325.54</ele>
        <time>2021-08-17T12:44:32Z</time>
      </trkpt>
      <trkpt lat="44.29756" lon="1.79562">
        <ele>326.5</ele>
        <time>2021-08-17T12:44:41Z</time>
      </trkpt>
      <trkpt lat="44.29762" lon="1.79574">
        <ele>327.47</ele>
        <time>2021-08-17T12:44:49Z</time>
      </trkpt>
      <trkpt lat="44.29765" lon="1.79589">
        <ele>328.43</ele>
        <time>2021-08-17T12:44:58Z</time>
      </trkpt>
      <trkpt lat="44.29765" lon="1.79594">
        <ele>328.43</ele>
        <time>2021-08-17T12:45:05Z</time>
      </trkpt>
      <trkpt lat="44.29767" lon="1.79606">
        <ele>328.91</ele>
        <time>2021-08-17T12:45:12Z</time>
      </trkpt>
      <trkpt lat="44.29769" lon="1.79615">
        <ele>329.87</ele>
        <time>2021-08-17T12:45:17Z</time>
      </trkpt>
      <trkpt lat="44.29773" lon="1.79632">
        <ele>330.83</ele>
        <time>2021-08-17T12:45:25Z</time>
      </trkpt>
      <trkpt lat="44.29777" lon="1.79647">
        <ele>331.79</ele>
        <time>2021-08-17T12:45:33Z</time>
      </trkpt>
      <trkpt lat="44.2978" lon="1.79664">
        <ele>333.71</ele>
        <time>2021-08-17T12:45:41Z</time>
      </trkpt>
      <trkpt lat="44.2978" lon="1.79682">
        <ele>333.71</ele>
        <time>2021-08-17T12:45:48Z</time>
      </trkpt>
      <trkpt lat="44.29781" lon="1.79704">
        <ele>334.68</ele>
        <time>2021-08-17T12:45:56Z</time>
      </trkpt>
      <trkpt lat="44.2978" lon="1.7973">
        <ele>335.16</ele>
        <time>2021-08-17T12:46:04Z</time>
      </trkpt>
      <trkpt lat="44.29779" lon="1.79763">
        <ele>335.64</ele>
        <time>2021-08-17T12:46:12Z</time>
      </trkpt>
      <trkpt lat="44.29777" lon="1.79794">
        <ele>336.12</ele>
        <time>2021-08-17T12:46:19Z</time>
      </trkpt>
      <trkpt lat="44.29779" lon="1.79823">
        <ele>337.08</ele>
        <time>2021-08-17T12:46:26Z</time>
      </trkpt>
      <trkpt lat="44.29783" lon="1.79854">
        <ele>337.08</ele>
        <time>2021-08-17T12:46:33Z</time>
      </trkpt>
      <trkpt lat="44.29785" lon="1.79891">
        <ele>337.56</ele>
        <time>2021-08-17T12:46:41Z</time>
      </trkpt>
      <trkpt lat="44.29787" lon="1.79922">
        <ele>338.04</ele>
        <time>2021-08-17T12:46:47Z</time>
      </trkpt>
      <trkpt lat="44.29773" lon="1.79945">
        <ele>336.6</ele>
        <time>2021-08-17T12:46:53Z</time>
      </trkpt>
      <trkpt lat="44.29755" lon="1.79969">
        <ele>336.6</ele>
        <time>2021-08-17T12:47:00Z</time>
      </trkpt>
      <trkpt lat="44.29725" lon="1.8001">
        <ele>336.6</ele>
        <time>2021-08-17T12:47:12Z</time>
      </trkpt>
      <trkpt lat="44.29706" lon="1.80033">
        <ele>338.04</ele>
        <time>2021-08-17T12:47:20Z</time>
      </trkpt>
      <trkpt lat="44.29693" lon="1.80049">
        <ele>339.48</ele>
        <time>2021-08-17T12:47:27Z</time>
      </trkpt>
      <trkpt lat="44.29687" lon="1.80058">
        <ele>339.96</ele>
        <time>2021-08-17T12:47:31Z</time>
      </trkpt>
      <trkpt lat="44.29685" lon="1.8006">
        <ele>339.96</ele>
        <time>2021-08-17T12:47:32Z</time>
      </trkpt>
      <trkpt lat="44.29684" lon="1.80062">
        <ele>340.44</ele>
        <time>2021-08-17T12:47:33Z</time>
      </trkpt>
      <trkpt lat="44.2967" lon="1.80079">
        <ele>340.44</ele>
        <time>2021-08-17T12:47:40Z</time>
      </trkpt>
      <trkpt lat="44.29653" lon="1.80093">
        <ele>341.41</ele>
        <time>2021-08-17T12:47:47Z</time>
      </trkpt>
      <trkpt lat="44.29629" lon="1.80113">
        <ele>341.41</ele>
        <time>2021-08-17T12:47:55Z</time>
      </trkpt>
      <trkpt lat="44.2961" lon="1.80139">
        <ele>341.41</ele>
        <time>2021-08-17T12:48:02Z</time>
      </trkpt>
      <trkpt lat="44.29598" lon="1.80159">
        <ele>339.96</ele>
        <time>2021-08-17T12:48:06Z</time>
      </trkpt>
      <trkpt lat="44.29578" lon="1.80198">
        <ele>339</ele>
        <time>2021-08-17T12:48:14Z</time>
      </trkpt>
      <trkpt lat="44.29558" lon="1.8022">
        <ele>339</ele>
        <time>2021-08-17T12:48:21Z</time>
      </trkpt>
      <trkpt lat="44.29539" lon="1.80227">
        <ele>340.44</ele>
        <time>2021-08-17T12:48:28Z</time>
      </trkpt>
      <trkpt lat="44.29524" lon="1.80242">
        <ele>341.41</ele>
        <time>2021-08-17T12:48:35Z</time>
      </trkpt>
      <trkpt lat="44.29514" lon="1.80256">
        <ele>342.37</ele>
        <time>2021-08-17T12:48:42Z</time>
      </trkpt>
      <trkpt lat="44.29508" lon="1.80259">
        <ele>342.85</ele>
        <time>2021-08-17T12:48:45Z</time>
      </trkpt>
      <trkpt lat="44.29507" lon="1.80258">
        <ele>343.33</ele>
        <time>2021-08-17T12:48:46Z</time>
      </trkpt>
      <trkpt lat="44.29492" lon="1.80243">
        <ele>343.33</ele>
        <time>2021-08-17T12:48:53Z</time>
      </trkpt>
      <trkpt lat="44.29474" lon="1.80227">
        <ele>343.81</ele>
        <time>2021-08-17T12:49:01Z</time>
      </trkpt>
      <trkpt lat="44.29465" lon="1.80219">
        <ele>343.81</ele>
        <time>2021-08-17T12:49:05Z</time>
      </trkpt>
      <trkpt lat="44.29444" lon="1.80209">
        <ele>342.85</ele>
        <time>2021-08-17T12:49:10Z</time>
      </trkpt>
      <trkpt lat="44.29416" lon="1.80192">
        <ele>340.44</ele>
        <time>2021-08-17T12:49:16Z</time>
      </trkpt>
      <trkpt lat="44.29411" lon="1.80189">
        <ele>340.44</ele>
        <time>2021-08-17T12:49:17Z</time>
      </trkpt>
      <trkpt lat="44.29405" lon="1.80186">
        <ele>339.48</ele>
        <time>2021-08-17T12:49:18Z</time>
      </trkpt>
      <trkpt lat="44.29399" lon="1.80184">
        <ele>339</ele>
        <time>2021-08-17T12:49:19Z</time>
      </trkpt>
      <trkpt lat="44.29392" lon="1.80183">
        <ele>338.52</ele>
        <time>2021-08-17T12:49:20Z</time>
      </trkpt>
      <trkpt lat="44.29377" lon="1.8018">
        <ele>337.56</ele>
        <time>2021-08-17T12:49:22Z</time>
      </trkpt>
      <trkpt lat="44.29332" lon="1.80167">
        <ele>334.68</ele>
        <time>2021-08-17T12:49:28Z</time>
      </trkpt>
      <trkpt lat="44.29319" lon="1.8016">
        <ele>333.71</ele>
        <time>2021-08-17T12:49:30Z</time>
      </trkpt>
      <trkpt lat="44.29313" lon="1.80156">
        <ele>333.71</ele>
        <time>2021-08-17T12:49:31Z</time>
      </trkpt>
      <trkpt lat="44.29298" lon="1.80142">
        <ele>335.64</ele>
        <time>2021-08-17T12:49:34Z</time>
      </trkpt>
      <trkpt lat="44.29278" lon="1.80124">
        <ele>336.12</ele>
        <time>2021-08-17T12:49:40Z</time>
      </trkpt>
      <trkpt lat="44.29269" lon="1.80109">
        <ele>336.12</ele>
        <time>2021-08-17T12:49:44Z</time>
      </trkpt>
      <trkpt lat="44.29266" lon="1.80105">
        <ele>336.12</ele>
        <time>2021-08-17T12:49:45Z</time>
      </trkpt>
      <trkpt lat="44.29262" lon="1.80101">
        <ele>336.12</ele>
        <time>2021-08-17T12:49:46Z</time>
      </trkpt>
      <trkpt lat="44.29258" lon="1.80098">
        <ele>336.12</ele>
        <time>2021-08-17T12:49:47Z</time>
      </trkpt>
      <trkpt lat="44.29254" lon="1.80097">
        <ele>336.12</ele>
        <time>2021-08-17T12:49:48Z</time>
      </trkpt>
      <trkpt lat="44.2925" lon="1.80096">
        <ele>336.12</ele>
        <time>2021-08-17T12:49:49Z</time>
      </trkpt>
      <trkpt lat="44.29245" lon="1.80095">
        <ele>336.12</ele>
        <time>2021-08-17T12:49:50Z</time>
      </trkpt>
      <trkpt lat="44.29241" lon="1.80095">
        <ele>336.12</ele>
        <time>2021-08-17T12:49:51Z</time>
      </trkpt>
      <trkpt lat="44.29237" lon="1.80096">
        <ele>336.12</ele>
        <time>2021-08-17T12:49:52Z</time>
      </trkpt>
      <trkpt lat="44.29233" lon="1.80097">
        <ele>336.6</ele>
        <time>2021-08-17T12:49:53Z</time>
      </trkpt>
      <trkpt lat="44.29224" lon="1.80098">
        <ele>337.08</ele>
        <time>2021-08-17T12:49:56Z</time>
      </trkpt>
      <trkpt lat="44.29222" lon="1.80097">
        <ele>338.04</ele>
        <time>2021-08-17T12:49:57Z</time>
      </trkpt>
      <trkpt lat="44.2922" lon="1.80096">
        <ele>338.04</ele>
        <time>2021-08-17T12:49:58Z</time>
      </trkpt>
      <trkpt lat="44.29217" lon="1.80096">
        <ele>338.04</ele>
        <time>2021-08-17T12:49:59Z</time>
      </trkpt>
      <trkpt lat="44.29214" lon="1.80095">
        <ele>338.04</ele>
        <time>2021-08-17T12:50:00Z</time>
      </trkpt>
      <trkpt lat="44.29207" lon="1.80097">
        <ele>338.04</ele>
        <time>2021-08-17T12:50:02Z</time>
      </trkpt>
      <trkpt lat="44.29203" lon="1.80099">
        <ele>338.04</ele>
        <time>2021-08-17T12:50:03Z</time>
      </trkpt>
      <trkpt lat="44.292" lon="1.80101">
        <ele>338.52</ele>
        <time>2021-08-17T12:50:04Z</time>
      </trkpt>
      <trkpt lat="44.29198" lon="1.80102">
        <ele>338.52</ele>
        <time>2021-08-17T12:50:05Z</time>
      </trkpt>
      <trkpt lat="44.29195" lon="1.80102">
        <ele>339</ele>
        <time>2021-08-17T12:50:06Z</time>
      </trkpt>
      <trkpt lat="44.29192" lon="1.80102">
        <ele>339</ele>
        <time>2021-08-17T12:50:07Z</time>
      </trkpt>
      <trkpt lat="44.2919" lon="1.80103">
        <ele>339.48</ele>
        <time>2021-08-17T12:50:08Z</time>
      </trkpt>
      <trkpt lat="44.29168" lon="1.80102">
        <ele>339.96</ele>
        <time>2021-08-17T12:50:15Z</time>
      </trkpt>
      <trkpt lat="44.29144" lon="1.80108">
        <ele>339.96</ele>
        <time>2021-08-17T12:50:22Z</time>
      </trkpt>
      <trkpt lat="44.29129" lon="1.80114">
        <ele>339.96</ele>
        <time>2021-08-17T12:50:26Z</time>
      </trkpt>
      <trkpt lat="44.2912" lon="1.8012">
        <ele>338.52</ele>
        <time>2021-08-17T12:50:28Z</time>
      </trkpt>
      <trkpt lat="44.29086" lon="1.80152">
        <ele>335.16</ele>
        <time>2021-08-17T12:50:35Z</time>
      </trkpt>
      <trkpt lat="44.2905" lon="1.80197">
        <ele>334.68</ele>
        <time>2021-08-17T12:50:42Z</time>
      </trkpt>
      <trkpt lat="44.29025" lon="1.80237">
        <ele>335.16</ele>
        <time>2021-08-17T12:50:49Z</time>
      </trkpt>
      <trkpt lat="44.29015" lon="1.80254">
        <ele>336.12</ele>
        <time>2021-08-17T12:50:53Z</time>
      </trkpt>
      <trkpt lat="44.29003" lon="1.80273">
        <ele>338.04</ele>
        <time>2021-08-17T12:51:00Z</time>
      </trkpt>
      <trkpt lat="44.28993" lon="1.80287">
        <ele>339</ele>
        <time>2021-08-17T12:51:08Z</time>
      </trkpt>
      <trkpt lat="44.2898" lon="1.80302">
        <ele>340.92</ele>
        <time>2021-08-17T12:51:17Z</time>
      </trkpt>
      <trkpt lat="44.28967" lon="1.80317">
        <ele>341.89</ele>
        <time>2021-08-17T12:51:25Z</time>
      </trkpt>
      <trkpt lat="44.28951" lon="1.80333">
        <ele>342.85</ele>
        <time>2021-08-17T12:51:33Z</time>
      </trkpt>
      <trkpt lat="44.28933" lon="1.80354">
        <ele>343.81</ele>
        <time>2021-08-17T12:51:42Z</time>
      </trkpt>
      <trkpt lat="44.28929" lon="1.80355">
        <ele>344.29</ele>
        <time>2021-08-17T12:51:44Z</time>
      </trkpt>
      <trkpt lat="44.28927" lon="1.80354">
        <ele>344.29</ele>
        <time>2021-08-17T12:51:45Z</time>
      </trkpt>
      <trkpt lat="44.28926" lon="1.80352">
        <ele>344.29</ele>
        <time>2021-08-17T12:51:46Z</time>
      </trkpt>
      <trkpt lat="44.28918" lon="1.80329">
        <ele>342.85</ele>
        <time>2021-08-17T12:51:51Z</time>
      </trkpt>
      <trkpt lat="44.28902" lon="1.80279">
        <ele>341.41</ele>
        <time>2021-08-17T12:51:58Z</time>
      </trkpt>
      <trkpt lat="44.2889" lon="1.80247">
        <ele>340.44</ele>
        <time>2021-08-17T12:52:02Z</time>
      </trkpt>
      <trkpt lat="44.28879" lon="1.80226">
        <ele>339.96</ele>
        <time>2021-08-17T12:52:05Z</time>
      </trkpt>
      <trkpt lat="44.28876" lon="1.80218">
        <ele>339.96</ele>
        <time>2021-08-17T12:52:06Z</time>
      </trkpt>
      <trkpt lat="44.28874" lon="1.8021">
        <ele>339.96</ele>
        <time>2021-08-17T12:52:07Z</time>
      </trkpt>
      <trkpt lat="44.28872" lon="1.80202">
        <ele>339.96</ele>
        <time>2021-08-17T12:52:08Z</time>
      </trkpt>
      <trkpt lat="44.28871" lon="1.80194">
        <ele>339.96</ele>
        <time>2021-08-17T12:52:09Z</time>
      </trkpt>
      <trkpt lat="44.28855" lon="1.80136">
        <ele>338.52</ele>
        <time>2021-08-17T12:52:16Z</time>
      </trkpt>
      <trkpt lat="44.28851" lon="1.80119">
        <ele>338.04</ele>
        <time>2021-08-17T12:52:18Z</time>
      </trkpt>
      <trkpt lat="44.2885" lon="1.80109">
        <ele>338.04</ele>
        <time>2021-08-17T12:52:19Z</time>
      </trkpt>
      <trkpt lat="44.2885" lon="1.80101">
        <ele>337.56</ele>
        <time>2021-08-17T12:52:20Z</time>
      </trkpt>
      <trkpt lat="44.28851" lon="1.80092">
        <ele>337.08</ele>
        <time>2021-08-17T12:52:21Z</time>
      </trkpt>
      <trkpt lat="44.28852" lon="1.80081">
        <ele>337.08</ele>
        <time>2021-08-17T12:52:22Z</time>
      </trkpt>
      <trkpt lat="44.28857" lon="1.80035">
        <ele>333.71</ele>
        <time>2021-08-17T12:52:27Z</time>
      </trkpt>
      <trkpt lat="44.28859" lon="1.80029">
        <ele>333.71</ele>
        <time>2021-08-17T12:52:28Z</time>
      </trkpt>
      <trkpt lat="44.28862" lon="1.80024">
        <ele>333.23</ele>
        <time>2021-08-17T12:52:29Z</time>
      </trkpt>
      <trkpt lat="44.28865" lon="1.80021">
        <ele>332.75</ele>
        <time>2021-08-17T12:52:30Z</time>
      </trkpt>
      <trkpt lat="44.28869" lon="1.80018">
        <ele>332.27</ele>
        <time>2021-08-17T12:52:31Z</time>
      </trkpt>
      <trkpt lat="44.28873" lon="1.80017">
        <ele>331.31</ele>
        <time>2021-08-17T12:52:32Z</time>
      </trkpt>
      <trkpt lat="44.28876" lon="1.80015">
        <ele>330.35</ele>
        <time>2021-08-17T12:52:33Z</time>
      </trkpt>
      <trkpt lat="44.28879" lon="1.80012">
        <ele>329.39</ele>
        <time>2021-08-17T12:52:34Z</time>
      </trkpt>
      <trkpt lat="44.28883" lon="1.80009">
        <ele>328.43</ele>
        <time>2021-08-17T12:52:35Z</time>
      </trkpt>
      <trkpt lat="44.28892" lon="1.79999">
        <ele>325.54</ele>
        <time>2021-08-17T12:52:38Z</time>
      </trkpt>
      <trkpt lat="44.28899" lon="1.79989">
        <ele>322.66</ele>
        <time>2021-08-17T12:52:42Z</time>
      </trkpt>
      <trkpt lat="44.289" lon="1.79987">
        <ele>322.66</ele>
        <time>2021-08-17T12:52:43Z</time>
      </trkpt>
      <trkpt lat="44.28897" lon="1.79984">
        <ele>321.22</ele>
        <time>2021-08-17T12:52:46Z</time>
      </trkpt>
      <trkpt lat="44.28894" lon="1.79983">
        <ele>320.26</ele>
        <time>2021-08-17T12:52:47Z</time>
      </trkpt>
      <trkpt lat="44.28891" lon="1.79982">
        <ele>319.78</ele>
        <time>2021-08-17T12:52:48Z</time>
      </trkpt>
      <trkpt lat="44.28888" lon="1.79982">
        <ele>318.33</ele>
        <time>2021-08-17T12:52:49Z</time>
      </trkpt>
      <trkpt lat="44.28884" lon="1.79981">
        <ele>317.85</ele>
        <time>2021-08-17T12:52:50Z</time>
      </trkpt>
      <trkpt lat="44.2888" lon="1.7998">
        <ele>316.89</ele>
        <time>2021-08-17T12:52:51Z</time>
      </trkpt>
      <trkpt lat="44.28877" lon="1.79979">
        <ele>316.41</ele>
        <time>2021-08-17T12:52:52Z</time>
      </trkpt>
      <trkpt lat="44.28875" lon="1.79979">
        <ele>315.93</ele>
        <time>2021-08-17T12:52:53Z</time>
      </trkpt>
      <trkpt lat="44.28872" lon="1.79978">
        <ele>315.93</ele>
        <time>2021-08-17T12:52:54Z</time>
      </trkpt>
      <trkpt lat="44.2887" lon="1.79977">
        <ele>314.97</ele>
        <time>2021-08-17T12:52:55Z</time>
      </trkpt>
      <trkpt lat="44.2887" lon="1.79976">
        <ele>314.49</ele>
        <time>2021-08-17T12:52:56Z</time>
      </trkpt>
      <trkpt lat="44.28872" lon="1.79972">
        <ele>313.53</ele>
        <time>2021-08-17T12:53:02Z</time>
      </trkpt>
      <trkpt lat="44.28874" lon="1.79971">
        <ele>312.57</ele>
        <time>2021-08-17T12:53:03Z</time>
      </trkpt>
      <trkpt lat="44.28876" lon="1.79969">
        <ele>312.57</ele>
        <time>2021-08-17T12:53:04Z</time>
      </trkpt>
      <trkpt lat="44.28877" lon="1.79967">
        <ele>311.6</ele>
        <time>2021-08-17T12:53:05Z</time>
      </trkpt>
      <trkpt lat="44.28878" lon="1.79965">
        <ele>311.12</ele>
        <time>2021-08-17T12:53:06Z</time>
      </trkpt>
      <trkpt lat="44.2888" lon="1.79964">
        <ele>310.64</ele>
        <time>2021-08-17T12:53:07Z</time>
      </trkpt>
      <trkpt lat="44.28881" lon="1.79963">
        <ele>310.64</ele>
        <time>2021-08-17T12:53:08Z</time>
      </trkpt>
      <trkpt lat="44.28882" lon="1.79961">
        <ele>310.16</ele>
        <time>2021-08-17T12:53:09Z</time>
      </trkpt>
      <trkpt lat="44.28883" lon="1.79959">
        <ele>309.68</ele>
        <time>2021-08-17T12:53:10Z</time>
      </trkpt>
      <trkpt lat="44.28892" lon="1.79949">
        <ele>306.32</ele>
        <time>2021-08-17T12:53:14Z</time>
      </trkpt>
      <trkpt lat="44.28897" lon="1.79942">
        <ele>303.91</ele>
        <time>2021-08-17T12:53:16Z</time>
      </trkpt>
      <trkpt lat="44.28902" lon="1.79935">
        <ele>301.99</ele>
        <time>2021-08-17T12:53:18Z</time>
      </trkpt>
      <trkpt lat="44.28909" lon="1.79923">
        <ele>298.63</ele>
        <time>2021-08-17T12:53:23Z</time>
      </trkpt>
      <trkpt lat="44.28908" lon="1.7992">
        <ele>297.67</ele>
        <time>2021-08-17T12:53:25Z</time>
      </trkpt>
      <trkpt lat="44.28906" lon="1.79919">
        <ele>296.22</ele>
        <time>2021-08-17T12:53:26Z</time>
      </trkpt>
      <trkpt lat="44.28904" lon="1.79918">
        <ele>295.26</ele>
        <time>2021-08-17T12:53:27Z</time>
      </trkpt>
      <trkpt lat="44.28902" lon="1.79916">
        <ele>294.78</ele>
        <time>2021-08-17T12:53:28Z</time>
      </trkpt>
      <trkpt lat="44.289" lon="1.79915">
        <ele>293.82</ele>
        <time>2021-08-17T12:53:29Z</time>
      </trkpt>
      <trkpt lat="44.28898" lon="1.79914">
        <ele>293.34</ele>
        <time>2021-08-17T12:53:30Z</time>
      </trkpt>
      <trkpt lat="44.28897" lon="1.79912">
        <ele>292.86</ele>
        <time>2021-08-17T12:53:31Z</time>
      </trkpt>
      <trkpt lat="44.28896" lon="1.7991">
        <ele>292.86</ele>
        <time>2021-08-17T12:53:32Z</time>
      </trkpt>
      <trkpt lat="44.28895" lon="1.79908">
        <ele>291.9</ele>
        <time>2021-08-17T12:53:33Z</time>
      </trkpt>
      <trkpt lat="44.28894" lon="1.79899">
        <ele>290.46</ele>
        <time>2021-08-17T12:53:36Z</time>
      </trkpt>
      <trkpt lat="44.28892" lon="1.79889">
        <ele>287.57</ele>
        <time>2021-08-17T12:53:40Z</time>
      </trkpt>
      <trkpt lat="44.28891" lon="1.79887">
        <ele>286.61</ele>
        <time>2021-08-17T12:53:41Z</time>
      </trkpt>
      <trkpt lat="44.28889" lon="1.79885">
        <ele>286.13</ele>
        <time>2021-08-17T12:53:42Z</time>
      </trkpt>
      <trkpt lat="44.28887" lon="1.79882">
        <ele>285.17</ele>
        <time>2021-08-17T12:53:43Z</time>
      </trkpt>
      <trkpt lat="44.28886" lon="1.79879">
        <ele>284.69</ele>
        <time>2021-08-17T12:53:44Z</time>
      </trkpt>
      <trkpt lat="44.28885" lon="1.79876">
        <ele>283.73</ele>
        <time>2021-08-17T12:53:45Z</time>
      </trkpt>
      <trkpt lat="44.28883" lon="1.79873">
        <ele>282.77</ele>
        <time>2021-08-17T12:53:46Z</time>
      </trkpt>
      <trkpt lat="44.28882" lon="1.7987">
        <ele>282.28</ele>
        <time>2021-08-17T12:53:47Z</time>
      </trkpt>
      <trkpt lat="44.28879" lon="1.79867">
        <ele>281.32</ele>
        <time>2021-08-17T12:53:48Z</time>
      </trkpt>
      <trkpt lat="44.28876" lon="1.79865">
        <ele>280.36</ele>
        <time>2021-08-17T12:53:49Z</time>
      </trkpt>
      <trkpt lat="44.28874" lon="1.79864">
        <ele>279.88</ele>
        <time>2021-08-17T12:53:50Z</time>
      </trkpt>
      <trkpt lat="44.28872" lon="1.79862">
        <ele>278.44</ele>
        <time>2021-08-17T12:53:51Z</time>
      </trkpt>
      <trkpt lat="44.2887" lon="1.79859">
        <ele>277.96</ele>
        <time>2021-08-17T12:53:52Z</time>
      </trkpt>
      <trkpt lat="44.28868" lon="1.79856">
        <ele>276.52</ele>
        <time>2021-08-17T12:53:53Z</time>
      </trkpt>
      <trkpt lat="44.2886" lon="1.79844">
        <ele>273.15</ele>
        <time>2021-08-17T12:53:57Z</time>
      </trkpt>
      <trkpt lat="44.28853" lon="1.79831">
        <ele>269.31</ele>
        <time>2021-08-17T12:54:01Z</time>
      </trkpt>
      <trkpt lat="44.28845" lon="1.79817">
        <ele>266.42</ele>
        <time>2021-08-17T12:54:05Z</time>
      </trkpt>
      <trkpt lat="44.28841" lon="1.79806">
        <ele>264.98</ele>
        <time>2021-08-17T12:54:07Z</time>
      </trkpt>
      <trkpt lat="44.28839" lon="1.79799">
        <ele>264.02</ele>
        <time>2021-08-17T12:54:08Z</time>
      </trkpt>
      <trkpt lat="44.28838" lon="1.79794">
        <ele>263.54</ele>
        <time>2021-08-17T12:54:09Z</time>
      </trkpt>
      <trkpt lat="44.28836" lon="1.79787">
        <ele>262.58</ele>
        <time>2021-08-17T12:54:10Z</time>
      </trkpt>
      <trkpt lat="44.28835" lon="1.79782">
        <ele>262.1</ele>
        <time>2021-08-17T12:54:11Z</time>
      </trkpt>
      <trkpt lat="44.28831" lon="1.79758">
        <ele>258.25</ele>
        <time>2021-08-17T12:54:16Z</time>
      </trkpt>
      <trkpt lat="44.2883" lon="1.79742">
        <ele>255.85</ele>
        <time>2021-08-17T12:54:19Z</time>
      </trkpt>
      <trkpt lat="44.28828" lon="1.79738">
        <ele>254.89</ele>
        <time>2021-08-17T12:54:20Z</time>
      </trkpt>
      <trkpt lat="44.28825" lon="1.79737">
        <ele>253.93</ele>
        <time>2021-08-17T12:54:21Z</time>
      </trkpt>
      <trkpt lat="44.2882" lon="1.79737">
        <ele>252.96</ele>
        <time>2021-08-17T12:54:22Z</time>
      </trkpt>
      <trkpt lat="44.28814" lon="1.79738">
        <ele>252</ele>
        <time>2021-08-17T12:54:23Z</time>
      </trkpt>
      <trkpt lat="44.28808" lon="1.79739">
        <ele>251.52</ele>
        <time>2021-08-17T12:54:24Z</time>
      </trkpt>
      <trkpt lat="44.28802" lon="1.7974">
        <ele>250.56</ele>
        <time>2021-08-17T12:54:25Z</time>
      </trkpt>
      <trkpt lat="44.28795" lon="1.79742">
        <ele>250.56</ele>
        <time>2021-08-17T12:54:26Z</time>
      </trkpt>
      <trkpt lat="44.28766" lon="1.79749">
        <ele>250.56</ele>
        <time>2021-08-17T12:54:31Z</time>
      </trkpt>
      <trkpt lat="44.28761" lon="1.7975">
        <ele>250.56</ele>
        <time>2021-08-17T12:54:32Z</time>
      </trkpt>
      <trkpt lat="44.28756" lon="1.79752">
        <ele>250.56</ele>
        <time>2021-08-17T12:54:33Z</time>
      </trkpt>
      <trkpt lat="44.28735" lon="1.7976">
        <ele>250.56</ele>
        <time>2021-08-17T12:54:38Z</time>
      </trkpt>
      <trkpt lat="44.28734" lon="1.79759">
        <ele>250.56</ele>
        <time>2021-08-17T12:54:39Z</time>
      </trkpt>
      <trkpt lat="44.28721" lon="1.79738">
        <ele>250.56</ele>
        <time>2021-08-17T12:54:46Z</time>
      </trkpt>
      <trkpt lat="44.28718" lon="1.79734">
        <ele>250.08</ele>
        <time>2021-08-17T12:54:47Z</time>
      </trkpt>
      <trkpt lat="44.28716" lon="1.79729">
        <ele>250.08</ele>
        <time>2021-08-17T12:54:48Z</time>
      </trkpt>
      <trkpt lat="44.28716" lon="1.79725">
        <ele>250.08</ele>
        <time>2021-08-17T12:54:49Z</time>
      </trkpt>
      <trkpt lat="44.28716" lon="1.79721">
        <ele>250.08</ele>
        <time>2021-08-17T12:54:50Z</time>
      </trkpt>
      <trkpt lat="44.28717" lon="1.79719">
        <ele>250.08</ele>
        <time>2021-08-17T12:54:51Z</time>
      </trkpt>
      <trkpt lat="44.28718" lon="1.79718">
        <ele>251.04</ele>
        <time>2021-08-17T12:54:52Z</time>
      </trkpt>
      <trkpt lat="44.28719" lon="1.79716">
        <ele>251.04</ele>
        <time>2021-08-17T12:54:53Z</time>
      </trkpt>
      <trkpt lat="44.2872" lon="1.79712">
        <ele>252</ele>
        <time>2021-08-17T12:54:56Z</time>
      </trkpt>
      <trkpt lat="44.28721" lon="1.79711">
        <ele>252.48</ele>
        <time>2021-08-17T12:54:57Z</time>
      </trkpt>
      <trkpt lat="44.28722" lon="1.79711">
        <ele>252.48</ele>
        <time>2021-08-17T12:54:58Z</time>
      </trkpt>
      <trkpt lat="44.28733" lon="1.79702">
        <ele>254.41</ele>
        <time>2021-08-17T12:55:08Z</time>
      </trkpt>
      <trkpt lat="44.28734" lon="1.79701">
        <ele>254.89</ele>
        <time>2021-08-17T12:55:09Z</time>
      </trkpt>
      <trkpt lat="44.28734" lon="1.79699">
        <ele>254.89</ele>
        <time>2021-08-17T12:55:10Z</time>
      </trkpt>
      <trkpt lat="44.28734" lon="1.79698">
        <ele>255.37</ele>
        <time>2021-08-17T12:55:11Z</time>
      </trkpt>
      <trkpt lat="44.28734" lon="1.79697">
        <ele>255.37</ele>
        <time>2021-08-17T12:55:12Z</time>
      </trkpt>
      <trkpt lat="44.28733" lon="1.79695">
        <ele>255.85</ele>
        <time>2021-08-17T12:55:13Z</time>
      </trkpt>
      <trkpt lat="44.28732" lon="1.79695">
        <ele>255.85</ele>
        <time>2021-08-17T12:55:14Z</time>
      </trkpt>
      <trkpt lat="44.28731" lon="1.79694">
        <ele>255.85</ele>
        <time>2021-08-17T12:55:15Z</time>
      </trkpt>
      <trkpt lat="44.28729" lon="1.79695">
        <ele>256.33</ele>
        <time>2021-08-17T12:55:16Z</time>
      </trkpt>
      <trkpt lat="44.28728" lon="1.79695">
        <ele>256.33</ele>
        <time>2021-08-17T12:55:17Z</time>
      </trkpt>
      <trkpt lat="44.28725" lon="1.79696">
        <ele>256.33</ele>
        <time>2021-08-17T12:55:18Z</time>
      </trkpt>
      <trkpt lat="44.28724" lon="1.79696">
        <ele>256.33</ele>
        <time>2021-08-17T12:55:19Z</time>
      </trkpt>
      <trkpt lat="44.28722" lon="1.79697">
        <ele>256.33</ele>
        <time>2021-08-17T12:55:20Z</time>
      </trkpt>
      <trkpt lat="44.2872" lon="1.79698">
        <ele>256.33</ele>
        <time>2021-08-17T12:55:21Z</time>
      </trkpt>
      <trkpt lat="44.28699" lon="1.79699">
        <ele>256.33</ele>
        <time>2021-08-17T12:55:28Z</time>
      </trkpt>
      <trkpt lat="44.28683" lon="1.79696">
        <ele>256.33</ele>
        <time>2021-08-17T12:55:33Z</time>
      </trkpt>
      <trkpt lat="44.28678" lon="1.79694">
        <ele>255.85</ele>
        <time>2021-08-17T12:55:34Z</time>
      </trkpt>
      <trkpt lat="44.28668" lon="1.7969">
        <ele>254.41</ele>
        <time>2021-08-17T12:55:36Z</time>
      </trkpt>
      <trkpt lat="44.28651" lon="1.79686">
        <ele>253.93</ele>
        <time>2021-08-17T12:55:39Z</time>
      </trkpt>
      <trkpt lat="44.28618" lon="1.79689">
        <ele>253.93</ele>
        <time>2021-08-17T12:55:46Z</time>
      </trkpt>
      <trkpt lat="44.28585" lon="1.79686">
        <ele>252.96</ele>
        <time>2021-08-17T12:55:54Z</time>
      </trkpt>
      <trkpt lat="44.2858" lon="1.79686">
        <ele>252.96</ele>
        <time>2021-08-17T12:55:55Z</time>
      </trkpt>
      <trkpt lat="44.28565" lon="1.79687">
        <ele>252.48</ele>
        <time>2021-08-17T12:55:58Z</time>
      </trkpt>
      <trkpt lat="44.28538" lon="1.79693">
        <ele>252.48</ele>
        <time>2021-08-17T12:56:04Z</time>
      </trkpt>
      <trkpt lat="44.28533" lon="1.79695">
        <ele>252.48</ele>
        <time>2021-08-17T12:56:05Z</time>
      </trkpt>
      <trkpt lat="44.28529" lon="1.79698">
        <ele>251.52</ele>
        <time>2021-08-17T12:56:06Z</time>
      </trkpt>
      <trkpt lat="44.28524" lon="1.79701">
        <ele>251.52</ele>
        <time>2021-08-17T12:56:07Z</time>
      </trkpt>
      <trkpt lat="44.28519" lon="1.79706">
        <ele>251.04</ele>
        <time>2021-08-17T12:56:08Z</time>
      </trkpt>
      <trkpt lat="44.28478" lon="1.79742">
        <ele>250.08</ele>
        <time>2021-08-17T12:56:15Z</time>
      </trkpt>
      <trkpt lat="44.28473" lon="1.79748">
        <ele>250.08</ele>
        <time>2021-08-17T12:56:16Z</time>
      </trkpt>
      <trkpt lat="44.28448" lon="1.79783">
        <ele>251.52</ele>
        <time>2021-08-17T12:56:22Z</time>
      </trkpt>
      <trkpt lat="44.28445" lon="1.79789">
        <ele>251.52</ele>
        <time>2021-08-17T12:56:23Z</time>
      </trkpt>
      <trkpt lat="44.28434" lon="1.79808">
        <ele>251.52</ele>
        <time>2021-08-17T12:56:26Z</time>
      </trkpt>
      <trkpt lat="44.28429" lon="1.79814">
        <ele>250.08</ele>
        <time>2021-08-17T12:56:27Z</time>
      </trkpt>
      <trkpt lat="44.28424" lon="1.79819">
        <ele>250.08</ele>
        <time>2021-08-17T12:56:28Z</time>
      </trkpt>
      <trkpt lat="44.28398" lon="1.79841">
        <ele>246.72</ele>
        <time>2021-08-17T12:56:32Z</time>
      </trkpt>
      <trkpt lat="44.28377" lon="1.79852">
        <ele>245.27</ele>
        <time>2021-08-17T12:56:34Z</time>
      </trkpt>
      <trkpt lat="44.28326" lon="1.79876">
        <ele>246.72</ele>
        <time>2021-08-17T12:56:40Z</time>
      </trkpt>
      <trkpt lat="44.28286" lon="1.79892">
        <ele>247.68</ele>
        <time>2021-08-17T12:56:47Z</time>
      </trkpt>
      <trkpt lat="44.2828" lon="1.79893">
        <ele>247.68</ele>
        <time>2021-08-17T12:56:48Z</time>
      </trkpt>
      <trkpt lat="44.28274" lon="1.79893">
        <ele>247.68</ele>
        <time>2021-08-17T12:56:49Z</time>
      </trkpt>
      <trkpt lat="44.28229" lon="1.79892">
        <ele>246.23</ele>
        <time>2021-08-17T12:56:56Z</time>
      </trkpt>
      <trkpt lat="44.28164" lon="1.7989">
        <ele>244.31</ele>
        <time>2021-08-17T12:57:05Z</time>
      </trkpt>
      <trkpt lat="44.28157" lon="1.79891">
        <ele>244.31</ele>
        <time>2021-08-17T12:57:06Z</time>
      </trkpt>
      <trkpt lat="44.28103" lon="1.79904">
        <ele>242.87</ele>
        <time>2021-08-17T12:57:13Z</time>
      </trkpt>
      <trkpt lat="44.28053" lon="1.79901">
        <ele>242.87</ele>
        <time>2021-08-17T12:57:20Z</time>
      </trkpt>
      <trkpt lat="44.28002" lon="1.79889">
        <ele>242.87</ele>
        <time>2021-08-17T12:57:28Z</time>
      </trkpt>
      <trkpt lat="44.27954" lon="1.79889">
        <ele>242.87</ele>
        <time>2021-08-17T12:57:36Z</time>
      </trkpt>
      <trkpt lat="44.27909" lon="1.79888">
        <ele>242.87</ele>
        <time>2021-08-17T12:57:43Z</time>
      </trkpt>
      <trkpt lat="44.2788" lon="1.79873">
        <ele>242.39</ele>
        <time>2021-08-17T12:57:48Z</time>
      </trkpt>
      <trkpt lat="44.2787" lon="1.79864">
        <ele>242.39</ele>
        <time>2021-08-17T12:57:50Z</time>
      </trkpt>
      <trkpt lat="44.27835" lon="1.79821">
        <ele>242.39</ele>
        <time>2021-08-17T12:57:58Z</time>
      </trkpt>
      <trkpt lat="44.27825" lon="1.79806">
        <ele>243.83</ele>
        <time>2021-08-17T12:58:01Z</time>
      </trkpt>
      <trkpt lat="44.27813" lon="1.79788">
        <ele>244.31</ele>
        <time>2021-08-17T12:58:05Z</time>
      </trkpt>
      <trkpt lat="44.27808" lon="1.7978">
        <ele>244.79</ele>
        <time>2021-08-17T12:58:07Z</time>
      </trkpt>
      <trkpt lat="44.27791" lon="1.79755">
        <ele>245.27</ele>
        <time>2021-08-17T12:58:14Z</time>
      </trkpt>
      <trkpt lat="44.27768" lon="1.79732">
        <ele>245.27</ele>
        <time>2021-08-17T12:58:22Z</time>
      </trkpt>
      <trkpt lat="44.27742" lon="1.79711">
        <ele>245.75</ele>
        <time>2021-08-17T12:58:30Z</time>
      </trkpt>
      <trkpt lat="44.27712" lon="1.79695">
        <ele>246.23</ele>
        <time>2021-08-17T12:58:38Z</time>
      </trkpt>
      <trkpt lat="44.27677" lon="1.79683">
        <ele>246.72</ele>
        <time>2021-08-17T12:58:46Z</time>
      </trkpt>
      <trkpt lat="44.27642" lon="1.79672">
        <ele>246.72</ele>
        <time>2021-08-17T12:58:54Z</time>
      </trkpt>
      <trkpt lat="44.27595" lon="1.79658">
        <ele>245.75</ele>
        <time>2021-08-17T12:59:03Z</time>
      </trkpt>
      <trkpt lat="44.27554" lon="1.79641">
        <ele>243.83</ele>
        <time>2021-08-17T12:59:10Z</time>
      </trkpt>
      <trkpt lat="44.27507" lon="1.79605">
        <ele>241.91</ele>
        <time>2021-08-17T12:59:18Z</time>
      </trkpt>
      <trkpt lat="44.2744" lon="1.79549">
        <ele>239.99</ele>
        <time>2021-08-17T12:59:29Z</time>
      </trkpt>
      <trkpt lat="44.27393" lon="1.79513">
        <ele>237.58</ele>
        <time>2021-08-17T12:59:36Z</time>
      </trkpt>
      <trkpt lat="44.27355" lon="1.79485">
        <ele>236.14</ele>
        <time>2021-08-17T12:59:41Z</time>
      </trkpt>
      <trkpt lat="44.27338" lon="1.79477">
        <ele>235.18</ele>
        <time>2021-08-17T12:59:43Z</time>
      </trkpt>
      <trkpt lat="44.27329" lon="1.79475">
        <ele>235.18</ele>
        <time>2021-08-17T12:59:44Z</time>
      </trkpt>
      <trkpt lat="44.27277" lon="1.79462">
        <ele>234.7</ele>
        <time>2021-08-17T12:59:50Z</time>
      </trkpt>
      <trkpt lat="44.27255" lon="1.79446">
        <ele>234.7</ele>
        <time>2021-08-17T12:59:53Z</time>
      </trkpt>
      <trkpt lat="44.27249" lon="1.7944">
        <ele>234.7</ele>
        <time>2021-08-17T12:59:54Z</time>
      </trkpt>
      <trkpt lat="44.27243" lon="1.79432">
        <ele>234.7</ele>
        <time>2021-08-17T12:59:55Z</time>
      </trkpt>
      <trkpt lat="44.27232" lon="1.79416">
        <ele>234.7</ele>
        <time>2021-08-17T12:59:57Z</time>
      </trkpt>
      <trkpt lat="44.27201" lon="1.7936">
        <ele>234.7</ele>
        <time>2021-08-17T13:00:04Z</time>
      </trkpt>
      <trkpt lat="44.27167" lon="1.79299">
        <ele>234.7</ele>
        <time>2021-08-17T13:00:12Z</time>
      </trkpt>
      <trkpt lat="44.27134" lon="1.79253">
        <ele>234.7</ele>
        <time>2021-08-17T13:00:19Z</time>
      </trkpt>
      <trkpt lat="44.27124" lon="1.79241">
        <ele>234.7</ele>
        <time>2021-08-17T13:00:21Z</time>
      </trkpt>
      <trkpt lat="44.27096" lon="1.79205">
        <ele>236.14</ele>
        <time>2021-08-17T13:00:27Z</time>
      </trkpt>
      <trkpt lat="44.27064" lon="1.79177">
        <ele>236.14</ele>
        <time>2021-08-17T13:00:34Z</time>
      </trkpt>
      <trkpt lat="44.27018" lon="1.79153">
        <ele>235.18</ele>
        <time>2021-08-17T13:00:42Z</time>
      </trkpt>
      <trkpt lat="44.26971" lon="1.79132">
        <ele>232.3</ele>
        <time>2021-08-17T13:00:49Z</time>
      </trkpt>
      <trkpt lat="44.26938" lon="1.79101">
        <ele>230.37</ele>
        <time>2021-08-17T13:00:54Z</time>
      </trkpt>
      <trkpt lat="44.26886" lon="1.79043">
        <ele>228.93</ele>
        <time>2021-08-17T13:01:02Z</time>
      </trkpt>
      <trkpt lat="44.26856" lon="1.79012">
        <ele>228.93</ele>
        <time>2021-08-17T13:01:07Z</time>
      </trkpt>
      <trkpt lat="44.26822" lon="1.78986">
        <ele>228.93</ele>
        <time>2021-08-17T13:01:13Z</time>
      </trkpt>
      <trkpt lat="44.26817" lon="1.78982">
        <ele>228.93</ele>
        <time>2021-08-17T13:01:14Z</time>
      </trkpt>
      <trkpt lat="44.26814" lon="1.78978">
        <ele>228.93</ele>
        <time>2021-08-17T13:01:15Z</time>
      </trkpt>
      <trkpt lat="44.26812" lon="1.78973">
        <ele>228.93</ele>
        <time>2021-08-17T13:01:16Z</time>
      </trkpt>
      <trkpt lat="44.26812" lon="1.78967">
        <ele>228.93</ele>
        <time>2021-08-17T13:01:17Z</time>
      </trkpt>
      <trkpt lat="44.26814" lon="1.7896">
        <ele>228.93</ele>
        <time>2021-08-17T13:01:18Z</time>
      </trkpt>
      <trkpt lat="44.26815" lon="1.78958">
        <ele>228.93</ele>
        <time>2021-08-17T13:01:19Z</time>
      </trkpt>
      <trkpt lat="44.2682" lon="1.78947">
        <ele>230.37</ele>
        <time>2021-08-17T13:01:22Z</time>
      </trkpt>
      <trkpt lat="44.26826" lon="1.78931">
        <ele>231.33</ele>
        <time>2021-08-17T13:01:30Z</time>
      </trkpt>
      <trkpt lat="44.26827" lon="1.78928">
        <ele>231.81</ele>
        <time>2021-08-17T13:01:32Z</time>
      </trkpt>
      <trkpt lat="44.26829" lon="1.78926">
        <ele>231.81</ele>
        <time>2021-08-17T13:01:33Z</time>
      </trkpt>
      <trkpt lat="44.2683" lon="1.78924">
        <ele>232.3</ele>
        <time>2021-08-17T13:01:35Z</time>
      </trkpt>
      <trkpt lat="44.2683" lon="1.78922">
        <ele>232.3</ele>
        <time>2021-08-17T13:01:36Z</time>
      </trkpt>
      <trkpt lat="44.26836" lon="1.78909">
        <ele>233.26</ele>
        <time>2021-08-17T13:01:43Z</time>
      </trkpt>
      <trkpt lat="44.26843" lon="1.78898">
        <ele>234.22</ele>
        <time>2021-08-17T13:01:51Z</time>
      </trkpt>
      <trkpt lat="44.26847" lon="1.78896">
        <ele>235.18</ele>
        <time>2021-08-17T13:01:54Z</time>
      </trkpt>
      <trkpt lat="44.26857" lon="1.78891">
        <ele>236.62</ele>
        <time>2021-08-17T13:02:03Z</time>
      </trkpt>
      <trkpt lat="44.26869" lon="1.7889">
        <ele>237.58</ele>
        <time>2021-08-17T13:02:12Z</time>
      </trkpt>
      <trkpt lat="44.26876" lon="1.78893">
        <ele>238.54</ele>
        <time>2021-08-17T13:02:18Z</time>
      </trkpt>
      <trkpt lat="44.26884" lon="1.78896">
        <ele>239.51</ele>
        <time>2021-08-17T13:02:26Z</time>
      </trkpt>
      <trkpt lat="44.2689" lon="1.78899">
        <ele>239.99</ele>
        <time>2021-08-17T13:02:32Z</time>
      </trkpt>
      <trkpt lat="44.26898" lon="1.78904">
        <ele>240.95</ele>
        <time>2021-08-17T13:02:39Z</time>
      </trkpt>
      <trkpt lat="44.26908" lon="1.7891">
        <ele>241.91</ele>
        <time>2021-08-17T13:02:47Z</time>
      </trkpt>
      <trkpt lat="44.26913" lon="1.78913">
        <ele>242.39</ele>
        <time>2021-08-17T13:02:52Z</time>
      </trkpt>
      <trkpt lat="44.26925" lon="1.78914">
        <ele>243.83</ele>
        <time>2021-08-17T13:03:00Z</time>
      </trkpt>
      <trkpt lat="44.26934" lon="1.78908">
        <ele>245.27</ele>
        <time>2021-08-17T13:03:08Z</time>
      </trkpt>
      <trkpt lat="44.26935" lon="1.78906">
        <ele>245.27</ele>
        <time>2021-08-17T13:03:09Z</time>
      </trkpt>
      <trkpt lat="44.26936" lon="1.78905">
        <ele>245.27</ele>
        <time>2021-08-17T13:03:10Z</time>
      </trkpt>
      <trkpt lat="44.26936" lon="1.78903">
        <ele>245.27</ele>
        <time>2021-08-17T13:03:11Z</time>
      </trkpt>
      <trkpt lat="44.26937" lon="1.78901">
        <ele>245.75</ele>
        <time>2021-08-17T13:03:12Z</time>
      </trkpt>
      <trkpt lat="44.26938" lon="1.789">
        <ele>245.75</ele>
        <time>2021-08-17T13:03:13Z</time>
      </trkpt>
      <trkpt lat="44.26938" lon="1.78898">
        <ele>245.75</ele>
        <time>2021-08-17T13:03:14Z</time>
      </trkpt>
      <trkpt lat="44.26938" lon="1.78897">
        <ele>245.75</ele>
        <time>2021-08-17T13:03:15Z</time>
      </trkpt>
      <trkpt lat="44.26939" lon="1.78895">
        <ele>246.23</ele>
        <time>2021-08-17T13:03:16Z</time>
      </trkpt>
      <trkpt lat="44.26936" lon="1.78877">
        <ele>247.2</ele>
        <time>2021-08-17T13:03:25Z</time>
      </trkpt>
      <trkpt lat="44.26935" lon="1.78875">
        <ele>247.2</ele>
        <time>2021-08-17T13:03:26Z</time>
      </trkpt>
      <trkpt lat="44.26929" lon="1.78863">
        <ele>248.16</ele>
        <time>2021-08-17T13:03:34Z</time>
      </trkpt>
      <trkpt lat="44.2693" lon="1.78864">
        <ele>247.68</ele>
        <time>2021-08-17T13:03:41Z</time>
      </trkpt>
      <trkpt lat="44.26931" lon="1.78864">
        <ele>248.16</ele>
        <time>2021-08-17T13:03:53Z</time>
      </trkpt>
      <trkpt lat="44.2693" lon="1.78866">
        <ele>248.16</ele>
        <time>2021-08-17T13:04:07Z</time>
      </trkpt>
      <trkpt lat="44.26933" lon="1.78862">
        <ele>248.16</ele>
        <time>2021-08-17T13:04:21Z</time>
      </trkpt>
      <trkpt lat="44.26931" lon="1.78864">
        <ele>248.16</ele>
        <time>2021-08-17T13:04:35Z</time>
      </trkpt>
      <trkpt lat="44.26926" lon="1.78854">
        <ele>248.64</ele>
        <time>2021-08-17T13:04:41Z</time>
      </trkpt>
      <trkpt lat="44.26916" lon="1.78838">
        <ele>250.08</ele>
        <time>2021-08-17T13:04:51Z</time>
      </trkpt>
      <trkpt lat="44.26907" lon="1.78819">
        <ele>251.52</ele>
        <time>2021-08-17T13:05:00Z</time>
      </trkpt>
      <trkpt lat="44.26897" lon="1.78801">
        <ele>252.48</ele>
        <time>2021-08-17T13:05:10Z</time>
      </trkpt>
      <trkpt lat="44.26886" lon="1.78782">
        <ele>254.41</ele>
        <time>2021-08-17T13:05:21Z</time>
      </trkpt>
      <trkpt lat="44.26877" lon="1.78768">
        <ele>255.85</ele>
        <time>2021-08-17T13:05:31Z</time>
      </trkpt>
      <trkpt lat="44.26868" lon="1.78757">
        <ele>256.81</ele>
        <time>2021-08-17T13:05:39Z</time>
      </trkpt>
      <trkpt lat="44.26859" lon="1.78743">
        <ele>258.25</ele>
        <time>2021-08-17T13:05:49Z</time>
      </trkpt>
      <trkpt lat="44.26851" lon="1.78731">
        <ele>259.21</ele>
        <time>2021-08-17T13:05:58Z</time>
      </trkpt>
      <trkpt lat="44.26843" lon="1.78722">
        <ele>260.65</ele>
        <time>2021-08-17T13:06:06Z</time>
      </trkpt>
      <trkpt lat="44.26837" lon="1.78713">
        <ele>261.62</ele>
        <time>2021-08-17T13:06:13Z</time>
      </trkpt>
      <trkpt lat="44.26827" lon="1.78703">
        <ele>262.58</ele>
        <time>2021-08-17T13:06:22Z</time>
      </trkpt>
      <trkpt lat="44.26822" lon="1.78697">
        <ele>263.06</ele>
        <time>2021-08-17T13:06:27Z</time>
      </trkpt>
      <trkpt lat="44.26821" lon="1.78696">
        <ele>263.06</ele>
        <time>2021-08-17T13:06:28Z</time>
      </trkpt>
      <trkpt lat="44.2682" lon="1.78695">
        <ele>263.54</ele>
        <time>2021-08-17T13:06:29Z</time>
      </trkpt>
      <trkpt lat="44.26818" lon="1.78693">
        <ele>263.54</ele>
        <time>2021-08-17T13:06:30Z</time>
      </trkpt>
      <trkpt lat="44.26817" lon="1.78692">
        <ele>264.02</ele>
        <time>2021-08-17T13:06:31Z</time>
      </trkpt>
      <trkpt lat="44.26815" lon="1.78691">
        <ele>264.02</ele>
        <time>2021-08-17T13:06:32Z</time>
      </trkpt>
      <trkpt lat="44.26804" lon="1.78682">
        <ele>265.46</ele>
        <time>2021-08-17T13:06:41Z</time>
      </trkpt>
      <trkpt lat="44.26792" lon="1.78675">
        <ele>266.42</ele>
        <time>2021-08-17T13:06:51Z</time>
      </trkpt>
      <trkpt lat="44.26791" lon="1.78675">
        <ele>266.42</ele>
        <time>2021-08-17T13:06:52Z</time>
      </trkpt>
      <trkpt lat="44.26789" lon="1.78674">
        <ele>266.9</ele>
        <time>2021-08-17T13:06:53Z</time>
      </trkpt>
      <trkpt lat="44.26783" lon="1.78671">
        <ele>267.38</ele>
        <time>2021-08-17T13:06:58Z</time>
      </trkpt>
      <trkpt lat="44.26782" lon="1.78671">
        <ele>267.86</ele>
        <time>2021-08-17T13:06:59Z</time>
      </trkpt>
      <trkpt lat="44.26772" lon="1.78665">
        <ele>268.83</ele>
        <time>2021-08-17T13:07:08Z</time>
      </trkpt>
      <trkpt lat="44.26764" lon="1.78661">
        <ele>269.79</ele>
        <time>2021-08-17T13:07:13Z</time>
      </trkpt>
      <trkpt lat="44.26763" lon="1.78659">
        <ele>269.79</ele>
        <time>2021-08-17T13:07:14Z</time>
      </trkpt>
      <trkpt lat="44.26761" lon="1.78658">
        <ele>269.79</ele>
        <time>2021-08-17T13:07:15Z</time>
      </trkpt>
      <trkpt lat="44.2676" lon="1.78658">
        <ele>270.27</ele>
        <time>2021-08-17T13:07:16Z</time>
      </trkpt>
      <trkpt lat="44.26758" lon="1.78657">
        <ele>270.27</ele>
        <time>2021-08-17T13:07:17Z</time>
      </trkpt>
      <trkpt lat="44.26757" lon="1.78657">
        <ele>270.75</ele>
        <time>2021-08-17T13:07:18Z</time>
      </trkpt>
      <trkpt lat="44.26755" lon="1.78655">
        <ele>270.75</ele>
        <time>2021-08-17T13:07:19Z</time>
      </trkpt>
      <trkpt lat="44.26753" lon="1.78654">
        <ele>270.75</ele>
        <time>2021-08-17T13:07:20Z</time>
      </trkpt>
      <trkpt lat="44.26751" lon="1.78653">
        <ele>270.75</ele>
        <time>2021-08-17T13:07:21Z</time>
      </trkpt>
      <trkpt lat="44.2675" lon="1.78653">
        <ele>270.75</ele>
        <time>2021-08-17T13:07:22Z</time>
      </trkpt>
      <trkpt lat="44.26748" lon="1.78652">
        <ele>270.75</ele>
        <time>2021-08-17T13:07:23Z</time>
      </trkpt>
      <trkpt lat="44.26746" lon="1.78651">
        <ele>271.71</ele>
        <time>2021-08-17T13:07:24Z</time>
      </trkpt>
      <trkpt lat="44.26734" lon="1.78645">
        <ele>272.67</ele>
        <time>2021-08-17T13:07:31Z</time>
      </trkpt>
      <trkpt lat="44.26726" lon="1.7864">
        <ele>273.15</ele>
        <time>2021-08-17T13:07:36Z</time>
      </trkpt>
      <trkpt lat="44.26724" lon="1.7864">
        <ele>273.63</ele>
        <time>2021-08-17T13:07:37Z</time>
      </trkpt>
      <trkpt lat="44.26715" lon="1.78634">
        <ele>274.59</ele>
        <time>2021-08-17T13:07:43Z</time>
      </trkpt>
      <trkpt lat="44.26713" lon="1.78634">
        <ele>274.59</ele>
        <time>2021-08-17T13:07:44Z</time>
      </trkpt>
      <trkpt lat="44.26702" lon="1.78628">
        <ele>275.56</ele>
        <time>2021-08-17T13:07:51Z</time>
      </trkpt>
      <trkpt lat="44.26702" lon="1.78627">
        <ele>276.04</ele>
        <time>2021-08-17T13:07:52Z</time>
      </trkpt>
      <trkpt lat="44.267" lon="1.78626">
        <ele>276.04</ele>
        <time>2021-08-17T13:07:53Z</time>
      </trkpt>
      <trkpt lat="44.26699" lon="1.78626">
        <ele>276.52</ele>
        <time>2021-08-17T13:07:54Z</time>
      </trkpt>
      <trkpt lat="44.26698" lon="1.78625">
        <ele>276.52</ele>
        <time>2021-08-17T13:07:55Z</time>
      </trkpt>
      <trkpt lat="44.26697" lon="1.78624">
        <ele>276.52</ele>
        <time>2021-08-17T13:07:56Z</time>
      </trkpt>
      <trkpt lat="44.26696" lon="1.78623">
        <ele>276.52</ele>
        <time>2021-08-17T13:07:57Z</time>
      </trkpt>
      <trkpt lat="44.26687" lon="1.78617">
        <ele>277.48</ele>
        <time>2021-08-17T13:08:04Z</time>
      </trkpt>
      <trkpt lat="44.26677" lon="1.78605">
        <ele>278.92</ele>
        <time>2021-08-17T13:08:13Z</time>
      </trkpt>
      <trkpt lat="44.26669" lon="1.78596">
        <ele>279.4</ele>
        <time>2021-08-17T13:08:21Z</time>
      </trkpt>
      <trkpt lat="44.26659" lon="1.78585">
        <ele>280.84</ele>
        <time>2021-08-17T13:08:30Z</time>
      </trkpt>
      <trkpt lat="44.26645" lon="1.78576">
        <ele>282.28</ele>
        <time>2021-08-17T13:08:39Z</time>
      </trkpt>
      <trkpt lat="44.26629" lon="1.78571">
        <ele>283.25</ele>
        <time>2021-08-17T13:08:49Z</time>
      </trkpt>
      <trkpt lat="44.26614" lon="1.7857">
        <ele>284.69</ele>
        <time>2021-08-17T13:08:58Z</time>
      </trkpt>
      <trkpt lat="44.26609" lon="1.7857">
        <ele>285.17</ele>
        <time>2021-08-17T13:09:01Z</time>
      </trkpt>
      <trkpt lat="44.26594" lon="1.78569">
        <ele>285.65</ele>
        <time>2021-08-17T13:09:09Z</time>
      </trkpt>
      <trkpt lat="44.26584" lon="1.78557">
        <ele>287.57</ele>
        <time>2021-08-17T13:09:17Z</time>
      </trkpt>
      <trkpt lat="44.26588" lon="1.78545">
        <ele>289.97</ele>
        <time>2021-08-17T13:09:24Z</time>
      </trkpt>
      <trkpt lat="44.26602" lon="1.78544">
        <ele>290.94</ele>
        <time>2021-08-17T13:09:33Z</time>
      </trkpt>
      <trkpt lat="44.26609" lon="1.78545">
        <ele>291.9</ele>
        <time>2021-08-17T13:09:38Z</time>
      </trkpt>
      <trkpt lat="44.2661" lon="1.78545">
        <ele>291.9</ele>
        <time>2021-08-17T13:09:39Z</time>
      </trkpt>
      <trkpt lat="44.26612" lon="1.78546">
        <ele>292.38</ele>
        <time>2021-08-17T13:09:40Z</time>
      </trkpt>
      <trkpt lat="44.26617" lon="1.78546">
        <ele>292.86</ele>
        <time>2021-08-17T13:09:43Z</time>
      </trkpt>
      <trkpt lat="44.26618" lon="1.78546">
        <ele>292.86</ele>
        <time>2021-08-17T13:09:44Z</time>
      </trkpt>
      <trkpt lat="44.26619" lon="1.78546">
        <ele>292.86</ele>
        <time>2021-08-17T13:09:45Z</time>
      </trkpt>
      <trkpt lat="44.26634" lon="1.78546">
        <ele>294.78</ele>
        <time>2021-08-17T13:09:54Z</time>
      </trkpt>
      <trkpt lat="44.26647" lon="1.78544">
        <ele>296.22</ele>
        <time>2021-08-17T13:10:04Z</time>
      </trkpt>
      <trkpt lat="44.26659" lon="1.78544">
        <ele>298.15</ele>
        <time>2021-08-17T13:10:13Z</time>
      </trkpt>
      <trkpt lat="44.26671" lon="1.78546">
        <ele>299.59</ele>
        <time>2021-08-17T13:10:23Z</time>
      </trkpt>
      <trkpt lat="44.26673" lon="1.78546">
        <ele>299.59</ele>
        <time>2021-08-17T13:10:24Z</time>
      </trkpt>
      <trkpt lat="44.26674" lon="1.78547">
        <ele>299.59</ele>
        <time>2021-08-17T13:10:25Z</time>
      </trkpt>
      <trkpt lat="44.26675" lon="1.78548">
        <ele>299.59</ele>
        <time>2021-08-17T13:10:26Z</time>
      </trkpt>
      <trkpt lat="44.26675" lon="1.78549">
        <ele>300.07</ele>
        <time>2021-08-17T13:10:27Z</time>
      </trkpt>
      <trkpt lat="44.26676" lon="1.7855">
        <ele>300.07</ele>
        <time>2021-08-17T13:10:28Z</time>
      </trkpt>
      <trkpt lat="44.26677" lon="1.78551">
        <ele>300.55</ele>
        <time>2021-08-17T13:10:29Z</time>
      </trkpt>
      <trkpt lat="44.26678" lon="1.78552">
        <ele>300.55</ele>
        <time>2021-08-17T13:10:30Z</time>
      </trkpt>
      <trkpt lat="44.26689" lon="1.78561">
        <ele>301.51</ele>
        <time>2021-08-17T13:10:40Z</time>
      </trkpt>
      <trkpt lat="44.26699" lon="1.78569">
        <ele>302.95</ele>
        <time>2021-08-17T13:10:49Z</time>
      </trkpt>
      <trkpt lat="44.26709" lon="1.78573">
        <ele>304.88</ele>
        <time>2021-08-17T13:10:57Z</time>
      </trkpt>
      <trkpt lat="44.26722" lon="1.78576">
        <ele>306.32</ele>
        <time>2021-08-17T13:11:05Z</time>
      </trkpt>
      <trkpt lat="44.26732" lon="1.78574">
        <ele>307.28</ele>
        <time>2021-08-17T13:11:11Z</time>
      </trkpt>
      <trkpt lat="44.26744" lon="1.78571">
        <ele>308.72</ele>
        <time>2021-08-17T13:11:20Z</time>
      </trkpt>
      <trkpt lat="44.26756" lon="1.78569">
        <ele>310.16</ele>
        <time>2021-08-17T13:11:29Z</time>
      </trkpt>
      <trkpt lat="44.26768" lon="1.78568">
        <ele>311.12</ele>
        <time>2021-08-17T13:11:38Z</time>
      </trkpt>
      <trkpt lat="44.2677" lon="1.78568">
        <ele>311.6</ele>
        <time>2021-08-17T13:11:40Z</time>
      </trkpt>
      <trkpt lat="44.26774" lon="1.78571">
        <ele>312.09</ele>
        <time>2021-08-17T13:11:43Z</time>
      </trkpt>
      <trkpt lat="44.26775" lon="1.78571">
        <ele>312.09</ele>
        <time>2021-08-17T13:11:44Z</time>
      </trkpt>
      <trkpt lat="44.26782" lon="1.7857">
        <ele>313.05</ele>
        <time>2021-08-17T13:11:50Z</time>
      </trkpt>
      <trkpt lat="44.26783" lon="1.78571">
        <ele>313.53</ele>
        <time>2021-08-17T13:11:51Z</time>
      </trkpt>
      <trkpt lat="44.26785" lon="1.78571">
        <ele>313.53</ele>
        <time>2021-08-17T13:11:52Z</time>
      </trkpt>
      <trkpt lat="44.26786" lon="1.78571">
        <ele>313.53</ele>
        <time>2021-08-17T13:11:53Z</time>
      </trkpt>
      <trkpt lat="44.26787" lon="1.78571">
        <ele>314.01</ele>
        <time>2021-08-17T13:11:54Z</time>
      </trkpt>
      <trkpt lat="44.26789" lon="1.78571">
        <ele>314.01</ele>
        <time>2021-08-17T13:11:55Z</time>
      </trkpt>
      <trkpt lat="44.2679" lon="1.78572">
        <ele>314.01</ele>
        <time>2021-08-17T13:11:56Z</time>
      </trkpt>
      <trkpt lat="44.26791" lon="1.78572">
        <ele>314.01</ele>
        <time>2021-08-17T13:11:57Z</time>
      </trkpt>
      <trkpt lat="44.26798" lon="1.78574">
        <ele>315.45</ele>
        <time>2021-08-17T13:12:02Z</time>
      </trkpt>
      <trkpt lat="44.26799" lon="1.78575">
        <ele>315.45</ele>
        <time>2021-08-17T13:12:03Z</time>
      </trkpt>
      <trkpt lat="44.26801" lon="1.78575">
        <ele>315.45</ele>
        <time>2021-08-17T13:12:04Z</time>
      </trkpt>
      <trkpt lat="44.26802" lon="1.78575">
        <ele>315.93</ele>
        <time>2021-08-17T13:12:05Z</time>
      </trkpt>
      <trkpt lat="44.26804" lon="1.78574">
        <ele>315.93</ele>
        <time>2021-08-17T13:12:06Z</time>
      </trkpt>
      <trkpt lat="44.26805" lon="1.78574">
        <ele>315.93</ele>
        <time>2021-08-17T13:12:07Z</time>
      </trkpt>
      <trkpt lat="44.26807" lon="1.78573">
        <ele>315.93</ele>
        <time>2021-08-17T13:12:08Z</time>
      </trkpt>
      <trkpt lat="44.26808" lon="1.78572">
        <ele>316.41</ele>
        <time>2021-08-17T13:12:09Z</time>
      </trkpt>
      <trkpt lat="44.2681" lon="1.78571">
        <ele>316.41</ele>
        <time>2021-08-17T13:12:10Z</time>
      </trkpt>
      <trkpt lat="44.26811" lon="1.78569">
        <ele>316.41</ele>
        <time>2021-08-17T13:12:11Z</time>
      </trkpt>
      <trkpt lat="44.26813" lon="1.78568">
        <ele>316.41</ele>
        <time>2021-08-17T13:12:12Z</time>
      </trkpt>
      <trkpt lat="44.26814" lon="1.78566">
        <ele>316.41</ele>
        <time>2021-08-17T13:12:13Z</time>
      </trkpt>
      <trkpt lat="44.26822" lon="1.78547">
        <ele>316.89</ele>
        <time>2021-08-17T13:12:20Z</time>
      </trkpt>
      <trkpt lat="44.26832" lon="1.78524">
        <ele>317.37</ele>
        <time>2021-08-17T13:12:28Z</time>
      </trkpt>
      <trkpt lat="44.26838" lon="1.7851">
        <ele>318.33</ele>
        <time>2021-08-17T13:12:35Z</time>
      </trkpt>
      <trkpt lat="44.26838" lon="1.78507">
        <ele>318.33</ele>
        <time>2021-08-17T13:12:36Z</time>
      </trkpt>
      <trkpt lat="44.26837" lon="1.78503">
        <ele>318.33</ele>
        <time>2021-08-17T13:12:37Z</time>
      </trkpt>
      <trkpt lat="44.26836" lon="1.785">
        <ele>318.33</ele>
        <time>2021-08-17T13:12:38Z</time>
      </trkpt>
      <trkpt lat="44.26822" lon="1.78485">
        <ele>318.33</ele>
        <time>2021-08-17T13:12:45Z</time>
      </trkpt>
      <trkpt lat="44.26803" lon="1.78463">
        <ele>318.33</ele>
        <time>2021-08-17T13:12:52Z</time>
      </trkpt>
      <trkpt lat="44.2678" lon="1.78434">
        <ele>318.33</ele>
        <time>2021-08-17T13:13:01Z</time>
      </trkpt>
      <trkpt lat="44.2676" lon="1.78405">
        <ele>319.3</ele>
        <time>2021-08-17T13:13:09Z</time>
      </trkpt>
      <trkpt lat="44.26741" lon="1.78385">
        <ele>319.78</ele>
        <time>2021-08-17T13:13:16Z</time>
      </trkpt>
      <trkpt lat="44.26738" lon="1.78385">
        <ele>319.78</ele>
        <time>2021-08-17T13:13:17Z</time>
      </trkpt>
      <trkpt lat="44.26735" lon="1.78387">
        <ele>319.78</ele>
        <time>2021-08-17T13:13:18Z</time>
      </trkpt>
      <trkpt lat="44.26733" lon="1.7839">
        <ele>319.78</ele>
        <time>2021-08-17T13:13:19Z</time>
      </trkpt>
      <trkpt lat="44.26732" lon="1.78393">
        <ele>319.78</ele>
        <time>2021-08-17T13:13:20Z</time>
      </trkpt>
      <trkpt lat="44.2673" lon="1.78397">
        <ele>319.78</ele>
        <time>2021-08-17T13:13:21Z</time>
      </trkpt>
      <trkpt lat="44.26722" lon="1.78429">
        <ele>319.78</ele>
        <time>2021-08-17T13:13:28Z</time>
      </trkpt>
      <trkpt lat="44.26719" lon="1.78441">
        <ele>318.33</ele>
        <time>2021-08-17T13:13:30Z</time>
      </trkpt>
      <trkpt lat="44.26717" lon="1.78448">
        <ele>318.33</ele>
        <time>2021-08-17T13:13:31Z</time>
      </trkpt>
      <trkpt lat="44.26713" lon="1.78461">
        <ele>318.33</ele>
        <time>2021-08-17T13:13:33Z</time>
      </trkpt>
      <trkpt lat="44.2671" lon="1.78468">
        <ele>317.85</ele>
        <time>2021-08-17T13:13:34Z</time>
      </trkpt>
      <trkpt lat="44.26707" lon="1.78473">
        <ele>317.85</ele>
        <time>2021-08-17T13:13:35Z</time>
      </trkpt>
      <trkpt lat="44.26704" lon="1.78477">
        <ele>317.37</ele>
        <time>2021-08-17T13:13:36Z</time>
      </trkpt>
      <trkpt lat="44.267" lon="1.78479">
        <ele>317.37</ele>
        <time>2021-08-17T13:13:37Z</time>
      </trkpt>
      <trkpt lat="44.26695" lon="1.7848">
        <ele>317.37</ele>
        <time>2021-08-17T13:13:38Z</time>
      </trkpt>
      <trkpt lat="44.2669" lon="1.7848">
        <ele>317.37</ele>
        <time>2021-08-17T13:13:39Z</time>
      </trkpt>
      <trkpt lat="44.26685" lon="1.7848">
        <ele>317.37</ele>
        <time>2021-08-17T13:13:40Z</time>
      </trkpt>
      <trkpt lat="44.26681" lon="1.78478">
        <ele>317.37</ele>
        <time>2021-08-17T13:13:41Z</time>
      </trkpt>
      <trkpt lat="44.26677" lon="1.78475">
        <ele>317.37</ele>
        <time>2021-08-17T13:13:42Z</time>
      </trkpt>
      <trkpt lat="44.26674" lon="1.78472">
        <ele>317.37</ele>
        <time>2021-08-17T13:13:43Z</time>
      </trkpt>
      <trkpt lat="44.26672" lon="1.78469">
        <ele>317.37</ele>
        <time>2021-08-17T13:13:44Z</time>
      </trkpt>
      <trkpt lat="44.26671" lon="1.78465">
        <ele>317.37</ele>
        <time>2021-08-17T13:13:45Z</time>
      </trkpt>
      <trkpt lat="44.26669" lon="1.78462">
        <ele>317.37</ele>
        <time>2021-08-17T13:13:46Z</time>
      </trkpt>
      <trkpt lat="44.26664" lon="1.78447">
        <ele>317.37</ele>
        <time>2021-08-17T13:13:51Z</time>
      </trkpt>
      <trkpt lat="44.26664" lon="1.7844">
        <ele>318.81</ele>
        <time>2021-08-17T13:13:54Z</time>
      </trkpt>
      <trkpt lat="44.26664" lon="1.78438">
        <ele>318.81</ele>
        <time>2021-08-17T13:13:56Z</time>
      </trkpt>
      <trkpt lat="44.26664" lon="1.78436">
        <ele>318.81</ele>
        <time>2021-08-17T13:13:57Z</time>
      </trkpt>
      <trkpt lat="44.26662" lon="1.78437">
        <ele>318.33</ele>
        <time>2021-08-17T13:13:58Z</time>
      </trkpt>
      <trkpt lat="44.26661" lon="1.78438">
        <ele>318.33</ele>
        <time>2021-08-17T13:13:59Z</time>
      </trkpt>
      <trkpt lat="44.26658" lon="1.7844">
        <ele>318.33</ele>
        <time>2021-08-17T13:14:00Z</time>
      </trkpt>
      <trkpt lat="44.26656" lon="1.78441">
        <ele>318.33</ele>
        <time>2021-08-17T13:14:01Z</time>
      </trkpt>
      <trkpt lat="44.26642" lon="1.78441">
        <ele>318.81</ele>
        <time>2021-08-17T13:14:07Z</time>
      </trkpt>
      <trkpt lat="44.2661" lon="1.78434">
        <ele>319.3</ele>
        <time>2021-08-17T13:14:17Z</time>
      </trkpt>
      <trkpt lat="44.26596" lon="1.78431">
        <ele>320.26</ele>
        <time>2021-08-17T13:14:24Z</time>
      </trkpt>
      <trkpt lat="44.26579" lon="1.78424">
        <ele>321.7</ele>
        <time>2021-08-17T13:14:33Z</time>
      </trkpt>
      <trkpt lat="44.26564" lon="1.78417">
        <ele>322.66</ele>
        <time>2021-08-17T13:14:41Z</time>
      </trkpt>
      <trkpt lat="44.26545" lon="1.7841">
        <ele>322.66</ele>
        <time>2021-08-17T13:14:48Z</time>
      </trkpt>
      <trkpt lat="44.26521" lon="1.78413">
        <ele>321.22</ele>
        <time>2021-08-17T13:14:54Z</time>
      </trkpt>
      <trkpt lat="44.26495" lon="1.78407">
        <ele>320.74</ele>
        <time>2021-08-17T13:15:01Z</time>
      </trkpt>
      <trkpt lat="44.26486" lon="1.78403">
        <ele>320.26</ele>
        <time>2021-08-17T13:15:03Z</time>
      </trkpt>
      <trkpt lat="44.26459" lon="1.78387">
        <ele>320.26</ele>
        <time>2021-08-17T13:15:10Z</time>
      </trkpt>
      <trkpt lat="44.26443" lon="1.78369">
        <ele>321.7</ele>
        <time>2021-08-17T13:15:16Z</time>
      </trkpt>
      <trkpt lat="44.26434" lon="1.78357">
        <ele>322.18</ele>
        <time>2021-08-17T13:15:19Z</time>
      </trkpt>
      <trkpt lat="44.26427" lon="1.78349">
        <ele>322.18</ele>
        <time>2021-08-17T13:15:21Z</time>
      </trkpt>
      <trkpt lat="44.26396" lon="1.78325">
        <ele>320.26</ele>
        <time>2021-08-17T13:15:28Z</time>
      </trkpt>
      <trkpt lat="44.2637" lon="1.78306">
        <ele>319.3</ele>
        <time>2021-08-17T13:15:33Z</time>
      </trkpt>
      <trkpt lat="44.26346" lon="1.78289">
        <ele>317.37</ele>
        <time>2021-08-17T13:15:38Z</time>
      </trkpt>
      <trkpt lat="44.26342" lon="1.78285">
        <ele>316.89</ele>
        <time>2021-08-17T13:15:41Z</time>
      </trkpt>
      <trkpt lat="44.26342" lon="1.78284">
        <ele>316.89</ele>
        <time>2021-08-17T13:15:42Z</time>
      </trkpt>
      <trkpt lat="44.26345" lon="1.78285">
        <ele>316.89</ele>
        <time>2021-08-17T13:15:46Z</time>
      </trkpt>
      <trkpt lat="44.26352" lon="1.78292">
        <ele>316.89</ele>
        <time>2021-08-17T13:15:52Z</time>
      </trkpt>
      <trkpt lat="44.26359" lon="1.78298">
        <ele>318.33</ele>
        <time>2021-08-17T13:15:56Z</time>
      </trkpt>
      <trkpt lat="44.26364" lon="1.78302">
        <ele>318.33</ele>
        <time>2021-08-17T13:15:59Z</time>
      </trkpt>
      <trkpt lat="44.26363" lon="1.78305">
        <ele>318.81</ele>
        <time>2021-08-17T13:16:00Z</time>
      </trkpt>
      <trkpt lat="44.26362" lon="1.78306">
        <ele>318.81</ele>
        <time>2021-08-17T13:16:01Z</time>
      </trkpt>
      <trkpt lat="44.26359" lon="1.78306">
        <ele>318.81</ele>
        <time>2021-08-17T13:16:02Z</time>
      </trkpt>
      <trkpt lat="44.26357" lon="1.78305">
        <ele>316.89</ele>
        <time>2021-08-17T13:16:03Z</time>
      </trkpt>
      <trkpt lat="44.26354" lon="1.78303">
        <ele>316.89</ele>
        <time>2021-08-17T13:16:04Z</time>
      </trkpt>
      <trkpt lat="44.26337" lon="1.78289">
        <ele>314.97</ele>
        <time>2021-08-17T13:16:10Z</time>
      </trkpt>
      <trkpt lat="44.26323" lon="1.78279">
        <ele>313.05</ele>
        <time>2021-08-17T13:16:16Z</time>
      </trkpt>
      <trkpt lat="44.26324" lon="1.7828">
        <ele>313.05</ele>
        <time>2021-08-17T13:16:24Z</time>
      </trkpt>
      <trkpt lat="44.26323" lon="1.78283">
        <ele>313.05</ele>
        <time>2021-08-17T13:16:45Z</time>
      </trkpt>
      <trkpt lat="44.26322" lon="1.78283">
        <ele>313.05</ele>
        <time>2021-08-17T13:17:06Z</time>
      </trkpt>
      <trkpt lat="44.26322" lon="1.78283">
        <ele>313.05</ele>
        <time>2021-08-17T13:17:28Z</time>
      </trkpt>
      <trkpt lat="44.26321" lon="1.78281">
        <ele>313.05</ele>
        <time>2021-08-17T13:17:49Z</time>
      </trkpt>
      <trkpt lat="44.26321" lon="1.78282">
        <ele>313.05</ele>
        <time>2021-08-17T13:18:04Z</time>
      </trkpt>
      <trkpt lat="44.26321" lon="1.78284">
        <ele>313.05</ele>
        <time>2021-08-17T13:18:17Z</time>
      </trkpt>
      <trkpt lat="44.26319" lon="1.78279">
        <ele>313.05</ele>
        <time>2021-08-17T13:18:37Z</time>
      </trkpt>
      <trkpt lat="44.26317" lon="1.78274">
        <ele>312.57</ele>
        <time>2021-08-17T13:18:42Z</time>
      </trkpt>
      <trkpt lat="44.26311" lon="1.7827">
        <ele>311.6</ele>
        <time>2021-08-17T13:18:48Z</time>
      </trkpt>
      <trkpt lat="44.26296" lon="1.7826">
        <ele>310.16</ele>
        <time>2021-08-17T13:18:53Z</time>
      </trkpt>
      <trkpt lat="44.26296" lon="1.78261">
        <ele>310.16</ele>
        <time>2021-08-17T13:19:00Z</time>
      </trkpt>
      <trkpt lat="44.26293" lon="1.7826">
        <ele>309.68</ele>
        <time>2021-08-17T13:19:01Z</time>
      </trkpt>
      <trkpt lat="44.2629" lon="1.78259">
        <ele>308.72</ele>
        <time>2021-08-17T13:19:02Z</time>
      </trkpt>
      <trkpt lat="44.26287" lon="1.78257">
        <ele>308.72</ele>
        <time>2021-08-17T13:19:03Z</time>
      </trkpt>
      <trkpt lat="44.26262" lon="1.78248">
        <ele>306.32</ele>
        <time>2021-08-17T13:19:09Z</time>
      </trkpt>
      <trkpt lat="44.26239" lon="1.78242">
        <ele>303.43</ele>
        <time>2021-08-17T13:19:15Z</time>
      </trkpt>
      <trkpt lat="44.26223" lon="1.78242">
        <ele>300.07</ele>
        <time>2021-08-17T13:19:19Z</time>
      </trkpt>
      <trkpt lat="44.26203" lon="1.78237">
        <ele>297.67</ele>
        <time>2021-08-17T13:19:24Z</time>
      </trkpt>
      <trkpt lat="44.262" lon="1.78234">
        <ele>297.18</ele>
        <time>2021-08-17T13:19:25Z</time>
      </trkpt>
      <trkpt lat="44.26196" lon="1.7823">
        <ele>296.7</ele>
        <time>2021-08-17T13:19:26Z</time>
      </trkpt>
      <trkpt lat="44.26193" lon="1.78225">
        <ele>296.22</ele>
        <time>2021-08-17T13:19:27Z</time>
      </trkpt>
      <trkpt lat="44.2619" lon="1.7822">
        <ele>295.74</ele>
        <time>2021-08-17T13:19:28Z</time>
      </trkpt>
      <trkpt lat="44.26187" lon="1.78214">
        <ele>295.74</ele>
        <time>2021-08-17T13:19:29Z</time>
      </trkpt>
      <trkpt lat="44.26185" lon="1.78208">
        <ele>294.78</ele>
        <time>2021-08-17T13:19:30Z</time>
      </trkpt>
      <trkpt lat="44.26183" lon="1.78201">
        <ele>293.82</ele>
        <time>2021-08-17T13:19:31Z</time>
      </trkpt>
      <trkpt lat="44.26178" lon="1.78183">
        <ele>291.9</ele>
        <time>2021-08-17T13:19:34Z</time>
      </trkpt>
      <trkpt lat="44.26176" lon="1.78176">
        <ele>291.9</ele>
        <time>2021-08-17T13:19:35Z</time>
      </trkpt>
      <trkpt lat="44.26175" lon="1.78169">
        <ele>291.42</ele>
        <time>2021-08-17T13:19:36Z</time>
      </trkpt>
      <trkpt lat="44.26174" lon="1.78149">
        <ele>289.97</ele>
        <time>2021-08-17T13:19:39Z</time>
      </trkpt>
      <trkpt lat="44.26174" lon="1.78143">
        <ele>289.97</ele>
        <time>2021-08-17T13:19:40Z</time>
      </trkpt>
      <trkpt lat="44.26175" lon="1.78137">
        <ele>289.01</ele>
        <time>2021-08-17T13:19:41Z</time>
      </trkpt>
      <trkpt lat="44.2618" lon="1.78108">
        <ele>286.13</ele>
        <time>2021-08-17T13:19:47Z</time>
      </trkpt>
      <trkpt lat="44.26184" lon="1.7809">
        <ele>282.77</ele>
        <time>2021-08-17T13:19:51Z</time>
      </trkpt>
      <trkpt lat="44.26189" lon="1.78071">
        <ele>279.4</ele>
        <time>2021-08-17T13:19:55Z</time>
      </trkpt>
      <trkpt lat="44.26193" lon="1.78057">
        <ele>277.96</ele>
        <time>2021-08-17T13:19:58Z</time>
      </trkpt>
      <trkpt lat="44.26196" lon="1.78037">
        <ele>274.59</ele>
        <time>2021-08-17T13:20:02Z</time>
      </trkpt>
      <trkpt lat="44.26199" lon="1.78015">
        <ele>272.19</ele>
        <time>2021-08-17T13:20:06Z</time>
      </trkpt>
      <trkpt lat="44.26203" lon="1.77996">
        <ele>269.31</ele>
        <time>2021-08-17T13:20:10Z</time>
      </trkpt>
      <trkpt lat="44.26209" lon="1.77976">
        <ele>265.46</ele>
        <time>2021-08-17T13:20:15Z</time>
      </trkpt>
      <trkpt lat="44.26212" lon="1.77972">
        <ele>265.46</ele>
        <time>2021-08-17T13:20:16Z</time>
      </trkpt>
      <trkpt lat="44.2623" lon="1.77951">
        <ele>263.06</ele>
        <time>2021-08-17T13:20:23Z</time>
      </trkpt>
      <trkpt lat="44.26233" lon="1.77932">
        <ele>259.69</ele>
        <time>2021-08-17T13:20:28Z</time>
      </trkpt>
      <trkpt lat="44.26232" lon="1.77929">
        <ele>259.21</ele>
        <time>2021-08-17T13:20:29Z</time>
      </trkpt>
      <trkpt lat="44.26231" lon="1.77927">
        <ele>259.21</ele>
        <time>2021-08-17T13:20:30Z</time>
      </trkpt>
      <trkpt lat="44.2623" lon="1.77926">
        <ele>258.73</ele>
        <time>2021-08-17T13:20:31Z</time>
      </trkpt>
      <trkpt lat="44.26228" lon="1.77926">
        <ele>258.25</ele>
        <time>2021-08-17T13:20:32Z</time>
      </trkpt>
      <trkpt lat="44.26226" lon="1.77927">
        <ele>257.29</ele>
        <time>2021-08-17T13:20:33Z</time>
      </trkpt>
      <trkpt lat="44.2621" lon="1.77931">
        <ele>254.41</ele>
        <time>2021-08-17T13:20:38Z</time>
      </trkpt>
      <trkpt lat="44.26192" lon="1.77935">
        <ele>251.52</ele>
        <time>2021-08-17T13:20:42Z</time>
      </trkpt>
      <trkpt lat="44.26169" lon="1.77941">
        <ele>249.12</ele>
        <time>2021-08-17T13:20:49Z</time>
      </trkpt>
      <trkpt lat="44.26169" lon="1.77943">
        <ele>249.12</ele>
        <time>2021-08-17T13:20:57Z</time>
      </trkpt>
      <trkpt lat="44.2617" lon="1.77943">
        <ele>248.64</ele>
        <time>2021-08-17T13:21:10Z</time>
      </trkpt>
      <trkpt lat="44.26164" lon="1.77944">
        <ele>247.68</ele>
        <time>2021-08-17T13:21:20Z</time>
      </trkpt>
      <trkpt lat="44.26149" lon="1.77952">
        <ele>246.23</ele>
        <time>2021-08-17T13:21:26Z</time>
      </trkpt>
      <trkpt lat="44.2613" lon="1.77965">
        <ele>243.35</ele>
        <time>2021-08-17T13:21:32Z</time>
      </trkpt>
      <trkpt lat="44.26106" lon="1.77979">
        <ele>239.99</ele>
        <time>2021-08-17T13:21:38Z</time>
      </trkpt>
      <trkpt lat="44.26098" lon="1.77983">
        <ele>239.02</ele>
        <time>2021-08-17T13:21:40Z</time>
      </trkpt>
      <trkpt lat="44.26093" lon="1.77985">
        <ele>238.06</ele>
        <time>2021-08-17T13:21:41Z</time>
      </trkpt>
      <trkpt lat="44.26062" lon="1.77995">
        <ele>235.66</ele>
        <time>2021-08-17T13:21:48Z</time>
      </trkpt>
      <trkpt lat="44.26031" lon="1.77995">
        <ele>234.7</ele>
        <time>2021-08-17T13:21:55Z</time>
      </trkpt>
      <trkpt lat="44.26012" lon="1.77989">
        <ele>236.14</ele>
        <time>2021-08-17T13:22:02Z</time>
      </trkpt>
      <trkpt lat="44.2601" lon="1.77988">
        <ele>236.14</ele>
        <time>2021-08-17T13:22:03Z</time>
      </trkpt>
      <trkpt lat="44.25989" lon="1.77986">
        <ele>236.62</ele>
        <time>2021-08-17T13:22:12Z</time>
      </trkpt>
      <trkpt lat="44.25984" lon="1.77985">
        <ele>236.62</ele>
        <time>2021-08-17T13:22:13Z</time>
      </trkpt>
      <trkpt lat="44.2598" lon="1.77983">
        <ele>236.62</ele>
        <time>2021-08-17T13:22:14Z</time>
      </trkpt>
      <trkpt lat="44.25975" lon="1.7798">
        <ele>234.7</ele>
        <time>2021-08-17T13:22:15Z</time>
      </trkpt>
      <trkpt lat="44.2597" lon="1.77976">
        <ele>234.7</ele>
        <time>2021-08-17T13:22:16Z</time>
      </trkpt>
      <trkpt lat="44.25966" lon="1.77972">
        <ele>234.22</ele>
        <time>2021-08-17T13:22:17Z</time>
      </trkpt>
      <trkpt lat="44.25957" lon="1.77963">
        <ele>234.22</ele>
        <time>2021-08-17T13:22:19Z</time>
      </trkpt>
      <trkpt lat="44.2595" lon="1.77952">
        <ele>234.22</ele>
        <time>2021-08-17T13:22:21Z</time>
      </trkpt>
      <trkpt lat="44.25943" lon="1.77943">
        <ele>234.22</ele>
        <time>2021-08-17T13:22:23Z</time>
      </trkpt>
      <trkpt lat="44.2594" lon="1.77939">
        <ele>233.74</ele>
        <time>2021-08-17T13:22:24Z</time>
      </trkpt>
      <trkpt lat="44.25932" lon="1.7793">
        <ele>233.74</ele>
        <time>2021-08-17T13:22:26Z</time>
      </trkpt>
      <trkpt lat="44.25928" lon="1.77927">
        <ele>233.26</ele>
        <time>2021-08-17T13:22:27Z</time>
      </trkpt>
      <trkpt lat="44.25922" lon="1.77924">
        <ele>233.26</ele>
        <time>2021-08-17T13:22:28Z</time>
      </trkpt>
      <trkpt lat="44.25917" lon="1.77923">
        <ele>232.3</ele>
        <time>2021-08-17T13:22:29Z</time>
      </trkpt>
      <trkpt lat="44.25911" lon="1.77922">
        <ele>231.33</ele>
        <time>2021-08-17T13:22:30Z</time>
      </trkpt>
      <trkpt lat="44.25905" lon="1.77919">
        <ele>230.85</ele>
        <time>2021-08-17T13:22:31Z</time>
      </trkpt>
      <trkpt lat="44.259" lon="1.77916">
        <ele>230.37</ele>
        <time>2021-08-17T13:22:32Z</time>
      </trkpt>
      <trkpt lat="44.25893" lon="1.77909">
        <ele>230.37</ele>
        <time>2021-08-17T13:22:33Z</time>
      </trkpt>
      <trkpt lat="44.2589" lon="1.77905">
        <ele>230.37</ele>
        <time>2021-08-17T13:22:34Z</time>
      </trkpt>
      <trkpt lat="44.25887" lon="1.77898">
        <ele>230.37</ele>
        <time>2021-08-17T13:22:35Z</time>
      </trkpt>
      <trkpt lat="44.25884" lon="1.77893">
        <ele>230.37</ele>
        <time>2021-08-17T13:22:36Z</time>
      </trkpt>
      <trkpt lat="44.25875" lon="1.77871">
        <ele>231.81</ele>
        <time>2021-08-17T13:22:41Z</time>
      </trkpt>
      <trkpt lat="44.25875" lon="1.77866">
        <ele>232.3</ele>
        <time>2021-08-17T13:22:43Z</time>
      </trkpt>
      <trkpt lat="44.25871" lon="1.77858">
        <ele>232.78</ele>
        <time>2021-08-17T13:22:49Z</time>
      </trkpt>
      <trkpt lat="44.25868" lon="1.7785">
        <ele>233.74</ele>
        <time>2021-08-17T13:22:57Z</time>
      </trkpt>
      <trkpt lat="44.25865" lon="1.77837">
        <ele>235.18</ele>
        <time>2021-08-17T13:23:06Z</time>
      </trkpt>
      <trkpt lat="44.25865" lon="1.7783">
        <ele>235.66</ele>
        <time>2021-08-17T13:23:14Z</time>
      </trkpt>
      <trkpt lat="44.25863" lon="1.77823">
        <ele>236.62</ele>
        <time>2021-08-17T13:23:22Z</time>
      </trkpt>
      <trkpt lat="44.25859" lon="1.77812">
        <ele>238.06</ele>
        <time>2021-08-17T13:23:32Z</time>
      </trkpt>
      <trkpt lat="44.25857" lon="1.77805">
        <ele>239.02</ele>
        <time>2021-08-17T13:23:40Z</time>
      </trkpt>
      <trkpt lat="44.25851" lon="1.77797">
        <ele>239.51</ele>
        <time>2021-08-17T13:23:48Z</time>
      </trkpt>
      <trkpt lat="44.25849" lon="1.77791">
        <ele>239.99</ele>
        <time>2021-08-17T13:23:51Z</time>
      </trkpt>
      <trkpt lat="44.25847" lon="1.7779">
        <ele>240.47</ele>
        <time>2021-08-17T13:23:52Z</time>
      </trkpt>
      <trkpt lat="44.25847" lon="1.77786">
        <ele>240.47</ele>
        <time>2021-08-17T13:23:59Z</time>
      </trkpt>
      <trkpt lat="44.25845" lon="1.77783">
        <ele>240.47</ele>
        <time>2021-08-17T13:24:02Z</time>
      </trkpt>
      <trkpt lat="44.25843" lon="1.77781">
        <ele>240.47</ele>
        <time>2021-08-17T13:24:03Z</time>
      </trkpt>
      <trkpt lat="44.25843" lon="1.7778">
        <ele>240.47</ele>
        <time>2021-08-17T13:24:04Z</time>
      </trkpt>
      <trkpt lat="44.25842" lon="1.77778">
        <ele>240.47</ele>
        <time>2021-08-17T13:24:05Z</time>
      </trkpt>
      <trkpt lat="44.25841" lon="1.77776">
        <ele>240.47</ele>
        <time>2021-08-17T13:24:06Z</time>
      </trkpt>
      <trkpt lat="44.25831" lon="1.77762">
        <ele>241.43</ele>
        <time>2021-08-17T13:24:13Z</time>
      </trkpt>
      <trkpt lat="44.25821" lon="1.77747">
        <ele>241.91</ele>
        <time>2021-08-17T13:24:20Z</time>
      </trkpt>
      <trkpt lat="44.25813" lon="1.77735">
        <ele>242.39</ele>
        <time>2021-08-17T13:24:27Z</time>
      </trkpt>
      <trkpt lat="44.25807" lon="1.77726">
        <ele>243.35</ele>
        <time>2021-08-17T13:24:32Z</time>
      </trkpt>
      <trkpt lat="44.25807" lon="1.77725">
        <ele>243.35</ele>
        <time>2021-08-17T13:24:33Z</time>
      </trkpt>
      <trkpt lat="44.25805" lon="1.77723">
        <ele>243.35</ele>
        <time>2021-08-17T13:24:34Z</time>
      </trkpt>
      <trkpt lat="44.25797" lon="1.77712">
        <ele>244.31</ele>
        <time>2021-08-17T13:24:41Z</time>
      </trkpt>
      <trkpt lat="44.25788" lon="1.77703">
        <ele>244.79</ele>
        <time>2021-08-17T13:24:47Z</time>
      </trkpt>
      <trkpt lat="44.25779" lon="1.77688">
        <ele>244.79</ele>
        <time>2021-08-17T13:24:54Z</time>
      </trkpt>
      <trkpt lat="44.25768" lon="1.7767">
        <ele>245.27</ele>
        <time>2021-08-17T13:25:02Z</time>
      </trkpt>
      <trkpt lat="44.25764" lon="1.77663">
        <ele>245.75</ele>
        <time>2021-08-17T13:25:10Z</time>
      </trkpt>
      <trkpt lat="44.25762" lon="1.77654">
        <ele>246.72</ele>
        <time>2021-08-17T13:25:19Z</time>
      </trkpt>
      <trkpt lat="44.25758" lon="1.77648">
        <ele>246.72</ele>
        <time>2021-08-17T13:25:27Z</time>
      </trkpt>
      <trkpt lat="44.25757" lon="1.77645">
        <ele>246.72</ele>
        <time>2021-08-17T13:25:29Z</time>
      </trkpt>
      <trkpt lat="44.25753" lon="1.77638">
        <ele>246.72</ele>
        <time>2021-08-17T13:25:33Z</time>
      </trkpt>
      <trkpt lat="44.25752" lon="1.77637">
        <ele>247.2</ele>
        <time>2021-08-17T13:25:34Z</time>
      </trkpt>
      <trkpt lat="44.2575" lon="1.77635">
        <ele>247.2</ele>
        <time>2021-08-17T13:25:35Z</time>
      </trkpt>
      <trkpt lat="44.25749" lon="1.77634">
        <ele>247.2</ele>
        <time>2021-08-17T13:25:36Z</time>
      </trkpt>
      <trkpt lat="44.25748" lon="1.77632">
        <ele>247.2</ele>
        <time>2021-08-17T13:25:37Z</time>
      </trkpt>
      <trkpt lat="44.2574" lon="1.77621">
        <ele>249.12</ele>
        <time>2021-08-17T13:25:45Z</time>
      </trkpt>
      <trkpt lat="44.25736" lon="1.77611">
        <ele>249.6</ele>
        <time>2021-08-17T13:25:52Z</time>
      </trkpt>
      <trkpt lat="44.25733" lon="1.77603">
        <ele>251.04</ele>
        <time>2021-08-17T13:26:01Z</time>
      </trkpt>
      <trkpt lat="44.25732" lon="1.77597">
        <ele>252</ele>
        <time>2021-08-17T13:26:07Z</time>
      </trkpt>
      <trkpt lat="44.25728" lon="1.77587">
        <ele>253.44</ele>
        <time>2021-08-17T13:26:17Z</time>
      </trkpt>
      <trkpt lat="44.25725" lon="1.77584">
        <ele>254.41</ele>
        <time>2021-08-17T13:26:24Z</time>
      </trkpt>
      <trkpt lat="44.25723" lon="1.7758">
        <ele>255.85</ele>
        <time>2021-08-17T13:26:33Z</time>
      </trkpt>
      <trkpt lat="44.25717" lon="1.77569">
        <ele>256.81</ele>
        <time>2021-08-17T13:26:43Z</time>
      </trkpt>
      <trkpt lat="44.25715" lon="1.77568">
        <ele>256.81</ele>
        <time>2021-08-17T13:26:44Z</time>
      </trkpt>
      <trkpt lat="44.25711" lon="1.77561">
        <ele>257.29</ele>
        <time>2021-08-17T13:26:52Z</time>
      </trkpt>
      <trkpt lat="44.25707" lon="1.77555">
        <ele>257.77</ele>
        <time>2021-08-17T13:26:58Z</time>
      </trkpt>
      <trkpt lat="44.25698" lon="1.77549">
        <ele>258.73</ele>
        <time>2021-08-17T13:27:05Z</time>
      </trkpt>
      <trkpt lat="44.2569" lon="1.7755">
        <ele>260.17</ele>
        <time>2021-08-17T13:27:13Z</time>
      </trkpt>
      <trkpt lat="44.25689" lon="1.7755">
        <ele>260.65</ele>
        <time>2021-08-17T13:27:14Z</time>
      </trkpt>
      <trkpt lat="44.25688" lon="1.77551">
        <ele>260.65</ele>
        <time>2021-08-17T13:27:15Z</time>
      </trkpt>
      <trkpt lat="44.25686" lon="1.77552">
        <ele>260.65</ele>
        <time>2021-08-17T13:27:16Z</time>
      </trkpt>
      <trkpt lat="44.25685" lon="1.77552">
        <ele>260.65</ele>
        <time>2021-08-17T13:27:17Z</time>
      </trkpt>
      <trkpt lat="44.25683" lon="1.77554">
        <ele>260.65</ele>
        <time>2021-08-17T13:27:18Z</time>
      </trkpt>
      <trkpt lat="44.25682" lon="1.77554">
        <ele>260.65</ele>
        <time>2021-08-17T13:27:19Z</time>
      </trkpt>
      <trkpt lat="44.2568" lon="1.77555">
        <ele>260.65</ele>
        <time>2021-08-17T13:27:20Z</time>
      </trkpt>
      <trkpt lat="44.25666" lon="1.77565">
        <ele>261.62</ele>
        <time>2021-08-17T13:27:27Z</time>
      </trkpt>
      <trkpt lat="44.25655" lon="1.77575">
        <ele>263.06</ele>
        <time>2021-08-17T13:27:34Z</time>
      </trkpt>
      <trkpt lat="44.25636" lon="1.77585">
        <ele>263.54</ele>
        <time>2021-08-17T13:27:43Z</time>
      </trkpt>
      <trkpt lat="44.2562" lon="1.77591">
        <ele>264.02</ele>
        <time>2021-08-17T13:27:50Z</time>
      </trkpt>
      <trkpt lat="44.25601" lon="1.77596">
        <ele>264.98</ele>
        <time>2021-08-17T13:27:57Z</time>
      </trkpt>
      <trkpt lat="44.25576" lon="1.77596">
        <ele>264.98</ele>
        <time>2021-08-17T13:28:04Z</time>
      </trkpt>
      <trkpt lat="44.25555" lon="1.77595">
        <ele>265.94</ele>
        <time>2021-08-17T13:28:11Z</time>
      </trkpt>
      <trkpt lat="44.25537" lon="1.77587">
        <ele>265.94</ele>
        <time>2021-08-17T13:28:17Z</time>
      </trkpt>
      <trkpt lat="44.25524" lon="1.77577">
        <ele>263.06</ele>
        <time>2021-08-17T13:28:20Z</time>
      </trkpt>
      <trkpt lat="44.2552" lon="1.77572">
        <ele>262.58</ele>
        <time>2021-08-17T13:28:21Z</time>
      </trkpt>
      <trkpt lat="44.25516" lon="1.77568">
        <ele>262.1</ele>
        <time>2021-08-17T13:28:22Z</time>
      </trkpt>
      <trkpt lat="44.25507" lon="1.77559">
        <ele>262.1</ele>
        <time>2021-08-17T13:28:24Z</time>
      </trkpt>
      <trkpt lat="44.25502" lon="1.77556">
        <ele>262.1</ele>
        <time>2021-08-17T13:28:25Z</time>
      </trkpt>
      <trkpt lat="44.25498" lon="1.77553">
        <ele>262.1</ele>
        <time>2021-08-17T13:28:26Z</time>
      </trkpt>
      <trkpt lat="44.25493" lon="1.77551">
        <ele>262.1</ele>
        <time>2021-08-17T13:28:27Z</time>
      </trkpt>
      <trkpt lat="44.25489" lon="1.7755">
        <ele>262.1</ele>
        <time>2021-08-17T13:28:28Z</time>
      </trkpt>
      <trkpt lat="44.25485" lon="1.77549">
        <ele>262.1</ele>
        <time>2021-08-17T13:28:29Z</time>
      </trkpt>
      <trkpt lat="44.25479" lon="1.77546">
        <ele>263.54</ele>
        <time>2021-08-17T13:28:31Z</time>
      </trkpt>
      <trkpt lat="44.25462" lon="1.77541">
        <ele>264.98</ele>
        <time>2021-08-17T13:28:38Z</time>
      </trkpt>
      <trkpt lat="44.25445" lon="1.77539">
        <ele>265.46</ele>
        <time>2021-08-17T13:28:44Z</time>
      </trkpt>
      <trkpt lat="44.25425" lon="1.77544">
        <ele>265.94</ele>
        <time>2021-08-17T13:28:51Z</time>
      </trkpt>
      <trkpt lat="44.254" lon="1.77544">
        <ele>265.94</ele>
        <time>2021-08-17T13:28:58Z</time>
      </trkpt>
      <trkpt lat="44.25363" lon="1.77542">
        <ele>266.9</ele>
        <time>2021-08-17T13:29:08Z</time>
      </trkpt>
      <trkpt lat="44.25344" lon="1.77536">
        <ele>265.94</ele>
        <time>2021-08-17T13:29:14Z</time>
      </trkpt>
      <trkpt lat="44.25343" lon="1.77532">
        <ele>265.94</ele>
        <time>2021-08-17T13:29:15Z</time>
      </trkpt>
      <trkpt lat="44.25343" lon="1.77528">
        <ele>265.94</ele>
        <time>2021-08-17T13:29:16Z</time>
      </trkpt>
      <trkpt lat="44.25343" lon="1.77524">
        <ele>265.94</ele>
        <time>2021-08-17T13:29:17Z</time>
      </trkpt>
      <trkpt lat="44.25343" lon="1.77521">
        <ele>267.38</ele>
        <time>2021-08-17T13:29:18Z</time>
      </trkpt>
      <trkpt lat="44.25343" lon="1.77518">
        <ele>267.38</ele>
        <time>2021-08-17T13:29:19Z</time>
      </trkpt>
      <trkpt lat="44.2534" lon="1.775">
        <ele>266.9</ele>
        <time>2021-08-17T13:29:25Z</time>
      </trkpt>
      <trkpt lat="44.25336" lon="1.77487">
        <ele>268.35</ele>
        <time>2021-08-17T13:29:30Z</time>
      </trkpt>
      <trkpt lat="44.25333" lon="1.77466">
        <ele>269.79</ele>
        <time>2021-08-17T13:29:38Z</time>
      </trkpt>
      <trkpt lat="44.25334" lon="1.77444">
        <ele>271.23</ele>
        <time>2021-08-17T13:29:46Z</time>
      </trkpt>
      <trkpt lat="44.25339" lon="1.77415">
        <ele>271.71</ele>
        <time>2021-08-17T13:29:54Z</time>
      </trkpt>
      <trkpt lat="44.25344" lon="1.77386">
        <ele>271.71</ele>
        <time>2021-08-17T13:30:01Z</time>
      </trkpt>
      <trkpt lat="44.25338" lon="1.77364">
        <ele>272.19</ele>
        <time>2021-08-17T13:30:07Z</time>
      </trkpt>
      <trkpt lat="44.2532" lon="1.7735">
        <ele>272.19</ele>
        <time>2021-08-17T13:30:14Z</time>
      </trkpt>
      <trkpt lat="44.25296" lon="1.77329">
        <ele>272.19</ele>
        <time>2021-08-17T13:30:22Z</time>
      </trkpt>
      <trkpt lat="44.25268" lon="1.77303">
        <ele>269.31</ele>
        <time>2021-08-17T13:30:28Z</time>
      </trkpt>
      <trkpt lat="44.2525" lon="1.77288">
        <ele>267.86</ele>
        <time>2021-08-17T13:30:31Z</time>
      </trkpt>
      <trkpt lat="44.25207" lon="1.77256">
        <ele>264.5</ele>
        <time>2021-08-17T13:30:37Z</time>
      </trkpt>
      <trkpt lat="44.25182" lon="1.77238">
        <ele>261.62</ele>
        <time>2021-08-17T13:30:40Z</time>
      </trkpt>
      <trkpt lat="44.25133" lon="1.77198">
        <ele>259.21</ele>
        <time>2021-08-17T13:30:46Z</time>
      </trkpt>
      <trkpt lat="44.25125" lon="1.77194">
        <ele>258.73</ele>
        <time>2021-08-17T13:30:47Z</time>
      </trkpt>
      <trkpt lat="44.25116" lon="1.77191">
        <ele>258.73</ele>
        <time>2021-08-17T13:30:48Z</time>
      </trkpt>
      <trkpt lat="44.25107" lon="1.77191">
        <ele>257.29</ele>
        <time>2021-08-17T13:30:49Z</time>
      </trkpt>
      <trkpt lat="44.25098" lon="1.77193">
        <ele>257.29</ele>
        <time>2021-08-17T13:30:50Z</time>
      </trkpt>
      <trkpt lat="44.25089" lon="1.77195">
        <ele>256.33</ele>
        <time>2021-08-17T13:30:51Z</time>
      </trkpt>
      <trkpt lat="44.2508" lon="1.77199">
        <ele>255.37</ele>
        <time>2021-08-17T13:30:52Z</time>
      </trkpt>
      <trkpt lat="44.25062" lon="1.77206">
        <ele>254.41</ele>
        <time>2021-08-17T13:30:54Z</time>
      </trkpt>
      <trkpt lat="44.25007" lon="1.77229">
        <ele>253.93</ele>
        <time>2021-08-17T13:31:01Z</time>
      </trkpt>
      <trkpt lat="44.24971" lon="1.77245">
        <ele>253.93</ele>
        <time>2021-08-17T13:31:07Z</time>
      </trkpt>
      <trkpt lat="44.24966" lon="1.77247">
        <ele>253.93</ele>
        <time>2021-08-17T13:31:08Z</time>
      </trkpt>
      <trkpt lat="44.24961" lon="1.77247">
        <ele>253.93</ele>
        <time>2021-08-17T13:31:09Z</time>
      </trkpt>
      <trkpt lat="44.24958" lon="1.77242">
        <ele>253.93</ele>
        <time>2021-08-17T13:31:10Z</time>
      </trkpt>
      <trkpt lat="44.24958" lon="1.77238">
        <ele>254.89</ele>
        <time>2021-08-17T13:31:11Z</time>
      </trkpt>
      <trkpt lat="44.24959" lon="1.77234">
        <ele>254.89</ele>
        <time>2021-08-17T13:31:12Z</time>
      </trkpt>
      <trkpt lat="44.2496" lon="1.7723">
        <ele>255.37</ele>
        <time>2021-08-17T13:31:13Z</time>
      </trkpt>
      <trkpt lat="44.2497" lon="1.77196">
        <ele>255.37</ele>
        <time>2021-08-17T13:31:20Z</time>
      </trkpt>
      <trkpt lat="44.24973" lon="1.77177">
        <ele>254.41</ele>
        <time>2021-08-17T13:31:23Z</time>
      </trkpt>
      <trkpt lat="44.24976" lon="1.77162">
        <ele>254.41</ele>
        <time>2021-08-17T13:31:25Z</time>
      </trkpt>
      <trkpt lat="44.24976" lon="1.77157">
        <ele>254.41</ele>
        <time>2021-08-17T13:31:26Z</time>
      </trkpt>
      <trkpt lat="44.24976" lon="1.7715">
        <ele>254.41</ele>
        <time>2021-08-17T13:31:27Z</time>
      </trkpt>
      <trkpt lat="44.24975" lon="1.77143">
        <ele>254.41</ele>
        <time>2021-08-17T13:31:28Z</time>
      </trkpt>
      <trkpt lat="44.24974" lon="1.77138">
        <ele>254.41</ele>
        <time>2021-08-17T13:31:29Z</time>
      </trkpt>
      <trkpt lat="44.24972" lon="1.77132">
        <ele>254.41</ele>
        <time>2021-08-17T13:31:30Z</time>
      </trkpt>
      <trkpt lat="44.2497" lon="1.77127">
        <ele>254.41</ele>
        <time>2021-08-17T13:31:31Z</time>
      </trkpt>
      <trkpt lat="44.24967" lon="1.77116">
        <ele>254.41</ele>
        <time>2021-08-17T13:31:33Z</time>
      </trkpt>
      <trkpt lat="44.24965" lon="1.77111">
        <ele>254.41</ele>
        <time>2021-08-17T13:31:34Z</time>
      </trkpt>
      <trkpt lat="44.24963" lon="1.77106">
        <ele>254.41</ele>
        <time>2021-08-17T13:31:35Z</time>
      </trkpt>
      <trkpt lat="44.24961" lon="1.77101">
        <ele>254.41</ele>
        <time>2021-08-17T13:31:36Z</time>
      </trkpt>
      <trkpt lat="44.2496" lon="1.77096">
        <ele>254.41</ele>
        <time>2021-08-17T13:31:37Z</time>
      </trkpt>
      <trkpt lat="44.24959" lon="1.77091">
        <ele>254.41</ele>
        <time>2021-08-17T13:31:38Z</time>
      </trkpt>
      <trkpt lat="44.24958" lon="1.77086">
        <ele>254.41</ele>
        <time>2021-08-17T13:31:39Z</time>
      </trkpt>
      <trkpt lat="44.24957" lon="1.7708">
        <ele>254.41</ele>
        <time>2021-08-17T13:31:40Z</time>
      </trkpt>
      <trkpt lat="44.24956" lon="1.77073">
        <ele>254.41</ele>
        <time>2021-08-17T13:31:41Z</time>
      </trkpt>
      <trkpt lat="44.24954" lon="1.77055">
        <ele>254.41</ele>
        <time>2021-08-17T13:31:44Z</time>
      </trkpt>
      <trkpt lat="44.24955" lon="1.77048">
        <ele>254.41</ele>
        <time>2021-08-17T13:31:45Z</time>
      </trkpt>
      <trkpt lat="44.24957" lon="1.77029">
        <ele>254.41</ele>
        <time>2021-08-17T13:31:48Z</time>
      </trkpt>
      <trkpt lat="44.24958" lon="1.77023">
        <ele>254.41</ele>
        <time>2021-08-17T13:31:49Z</time>
      </trkpt>
      <trkpt lat="44.2496" lon="1.77">
        <ele>254.41</ele>
        <time>2021-08-17T13:31:53Z</time>
      </trkpt>
      <trkpt lat="44.2496" lon="1.76994">
        <ele>254.41</ele>
        <time>2021-08-17T13:31:54Z</time>
      </trkpt>
      <trkpt lat="44.2496" lon="1.76987">
        <ele>254.41</ele>
        <time>2021-08-17T13:31:55Z</time>
      </trkpt>
      <trkpt lat="44.24961" lon="1.76976">
        <ele>254.41</ele>
        <time>2021-08-17T13:31:57Z</time>
      </trkpt>
      <trkpt lat="44.24962" lon="1.7697">
        <ele>254.41</ele>
        <time>2021-08-17T13:31:58Z</time>
      </trkpt>
      <trkpt lat="44.24963" lon="1.76965">
        <ele>254.41</ele>
        <time>2021-08-17T13:31:59Z</time>
      </trkpt>
      <trkpt lat="44.24972" lon="1.76939">
        <ele>253.93</ele>
        <time>2021-08-17T13:32:05Z</time>
      </trkpt>
      <trkpt lat="44.24979" lon="1.769">
        <ele>253.93</ele>
        <time>2021-08-17T13:32:12Z</time>
      </trkpt>
      <trkpt lat="44.24986" lon="1.76859">
        <ele>253.93</ele>
        <time>2021-08-17T13:32:19Z</time>
      </trkpt>
      <trkpt lat="44.24996" lon="1.76819">
        <ele>253.93</ele>
        <time>2021-08-17T13:32:26Z</time>
      </trkpt>
      <trkpt lat="44.25005" lon="1.7679">
        <ele>253.93</ele>
        <time>2021-08-17T13:32:32Z</time>
      </trkpt>
      <trkpt lat="44.25018" lon="1.7675">
        <ele>253.93</ele>
        <time>2021-08-17T13:32:40Z</time>
      </trkpt>
      <trkpt lat="44.25034" lon="1.7672">
        <ele>253.93</ele>
        <time>2021-08-17T13:32:46Z</time>
      </trkpt>
      <trkpt lat="44.2505" lon="1.76714">
        <ele>255.37</ele>
        <time>2021-08-17T13:32:51Z</time>
      </trkpt>
      <trkpt lat="44.25056" lon="1.76718">
        <ele>255.37</ele>
        <time>2021-08-17T13:32:55Z</time>
      </trkpt>
      <trkpt lat="44.25058" lon="1.76719">
        <ele>255.85</ele>
        <time>2021-08-17T13:32:56Z</time>
      </trkpt>
      <trkpt lat="44.2506" lon="1.76719">
        <ele>255.85</ele>
        <time>2021-08-17T13:32:57Z</time>
      </trkpt>
      <trkpt lat="44.25071" lon="1.76716">
        <ele>256.33</ele>
        <time>2021-08-17T13:33:02Z</time>
      </trkpt>
      <trkpt lat="44.25073" lon="1.76713">
        <ele>256.33</ele>
        <time>2021-08-17T13:33:03Z</time>
      </trkpt>
      <trkpt lat="44.25074" lon="1.7671">
        <ele>256.33</ele>
        <time>2021-08-17T13:33:04Z</time>
      </trkpt>
      <trkpt lat="44.25088" lon="1.76681">
        <ele>257.29</ele>
        <time>2021-08-17T13:33:12Z</time>
      </trkpt>
      <trkpt lat="44.25099" lon="1.76652">
        <ele>257.77</ele>
        <time>2021-08-17T13:33:20Z</time>
      </trkpt>
      <trkpt lat="44.2511" lon="1.76621">
        <ele>258.25</ele>
        <time>2021-08-17T13:33:28Z</time>
      </trkpt>
      <trkpt lat="44.25119" lon="1.76593">
        <ele>259.21</ele>
        <time>2021-08-17T13:33:36Z</time>
      </trkpt>
      <trkpt lat="44.25119" lon="1.76589">
        <ele>259.21</ele>
        <time>2021-08-17T13:33:37Z</time>
      </trkpt>
      <trkpt lat="44.25119" lon="1.76585">
        <ele>259.21</ele>
        <time>2021-08-17T13:33:38Z</time>
      </trkpt>
      <trkpt lat="44.25118" lon="1.76582">
        <ele>259.21</ele>
        <time>2021-08-17T13:33:39Z</time>
      </trkpt>
      <trkpt lat="44.25116" lon="1.76579">
        <ele>259.21</ele>
        <time>2021-08-17T13:33:40Z</time>
      </trkpt>
      <trkpt lat="44.25114" lon="1.76577">
        <ele>259.21</ele>
        <time>2021-08-17T13:33:41Z</time>
      </trkpt>
      <trkpt lat="44.25112" lon="1.76575">
        <ele>259.69</ele>
        <time>2021-08-17T13:33:42Z</time>
      </trkpt>
      <trkpt lat="44.25108" lon="1.76573">
        <ele>259.69</ele>
        <time>2021-08-17T13:33:43Z</time>
      </trkpt>
      <trkpt lat="44.25104" lon="1.76571">
        <ele>259.69</ele>
        <time>2021-08-17T13:33:44Z</time>
      </trkpt>
      <trkpt lat="44.25101" lon="1.76569">
        <ele>259.69</ele>
        <time>2021-08-17T13:33:45Z</time>
      </trkpt>
      <trkpt lat="44.25091" lon="1.76571">
        <ele>260.17</ele>
        <time>2021-08-17T13:33:50Z</time>
      </trkpt>
      <trkpt lat="44.25086" lon="1.76574">
        <ele>260.65</ele>
        <time>2021-08-17T13:33:55Z</time>
      </trkpt>
      <trkpt lat="44.25079" lon="1.7658">
        <ele>261.62</ele>
        <time>2021-08-17T13:34:04Z</time>
      </trkpt>
      <trkpt lat="44.25067" lon="1.7659">
        <ele>262.58</ele>
        <time>2021-08-17T13:34:13Z</time>
      </trkpt>
      <trkpt lat="44.25054" lon="1.76602">
        <ele>263.54</ele>
        <time>2021-08-17T13:34:21Z</time>
      </trkpt>
      <trkpt lat="44.25048" lon="1.76607">
        <ele>263.54</ele>
        <time>2021-08-17T13:34:25Z</time>
      </trkpt>
      <trkpt lat="44.25047" lon="1.76608">
        <ele>263.54</ele>
        <time>2021-08-17T13:34:26Z</time>
      </trkpt>
      <trkpt lat="44.25046" lon="1.76609">
        <ele>264.02</ele>
        <time>2021-08-17T13:34:27Z</time>
      </trkpt>
      <trkpt lat="44.25044" lon="1.7661">
        <ele>264.02</ele>
        <time>2021-08-17T13:34:28Z</time>
      </trkpt>
      <trkpt lat="44.25043" lon="1.76611">
        <ele>264.02</ele>
        <time>2021-08-17T13:34:29Z</time>
      </trkpt>
      <trkpt lat="44.25044" lon="1.76612">
        <ele>264.5</ele>
        <time>2021-08-17T13:34:35Z</time>
      </trkpt>
      <trkpt lat="44.25042" lon="1.76613">
        <ele>264.98</ele>
        <time>2021-08-17T13:34:50Z</time>
      </trkpt>
      <trkpt lat="44.25039" lon="1.76616">
        <ele>265.94</ele>
        <time>2021-08-17T13:34:59Z</time>
      </trkpt>
      <trkpt lat="44.25035" lon="1.76619">
        <ele>266.9</ele>
        <time>2021-08-17T13:35:07Z</time>
      </trkpt>
      <trkpt lat="44.25031" lon="1.7662">
        <ele>268.35</ele>
        <time>2021-08-17T13:35:15Z</time>
      </trkpt>
      <trkpt lat="44.25025" lon="1.76624">
        <ele>269.31</ele>
        <time>2021-08-17T13:35:23Z</time>
      </trkpt>
      <trkpt lat="44.25019" lon="1.7663">
        <ele>270.27</ele>
        <time>2021-08-17T13:35:31Z</time>
      </trkpt>
      <trkpt lat="44.25012" lon="1.76635">
        <ele>271.23</ele>
        <time>2021-08-17T13:35:40Z</time>
      </trkpt>
      <trkpt lat="44.25011" lon="1.76638">
        <ele>271.71</ele>
        <time>2021-08-17T13:35:47Z</time>
      </trkpt>
      <trkpt lat="44.25008" lon="1.76641">
        <ele>273.15</ele>
        <time>2021-08-17T13:35:55Z</time>
      </trkpt>
      <trkpt lat="44.25002" lon="1.76643">
        <ele>273.63</ele>
        <time>2021-08-17T13:36:04Z</time>
      </trkpt>
      <trkpt lat="44.24998" lon="1.76646">
        <ele>275.07</ele>
        <time>2021-08-17T13:36:12Z</time>
      </trkpt>
      <trkpt lat="44.24996" lon="1.76649">
        <ele>276.04</ele>
        <time>2021-08-17T13:36:19Z</time>
      </trkpt>
      <trkpt lat="44.24991" lon="1.76652">
        <ele>277.48</ele>
        <time>2021-08-17T13:36:27Z</time>
      </trkpt>
      <trkpt lat="44.24987" lon="1.76656">
        <ele>278.92</ele>
        <time>2021-08-17T13:36:36Z</time>
      </trkpt>
      <trkpt lat="44.24984" lon="1.7666">
        <ele>279.88</ele>
        <time>2021-08-17T13:36:44Z</time>
      </trkpt>
      <trkpt lat="44.24982" lon="1.76664">
        <ele>281.8</ele>
        <time>2021-08-17T13:36:53Z</time>
      </trkpt>
      <trkpt lat="44.24977" lon="1.76668">
        <ele>282.77</ele>
        <time>2021-08-17T13:37:03Z</time>
      </trkpt>
      <trkpt lat="44.24974" lon="1.7667">
        <ele>283.73</ele>
        <time>2021-08-17T13:37:09Z</time>
      </trkpt>
      <trkpt lat="44.2497" lon="1.76674">
        <ele>285.17</ele>
        <time>2021-08-17T13:37:17Z</time>
      </trkpt>
      <trkpt lat="44.24965" lon="1.76677">
        <ele>286.61</ele>
        <time>2021-08-17T13:37:26Z</time>
      </trkpt>
      <trkpt lat="44.24961" lon="1.76681">
        <ele>288.05</ele>
        <time>2021-08-17T13:37:35Z</time>
      </trkpt>
      <trkpt lat="44.24958" lon="1.76685">
        <ele>289.01</ele>
        <time>2021-08-17T13:37:43Z</time>
      </trkpt>
      <trkpt lat="44.24956" lon="1.76688">
        <ele>290.46</ele>
        <time>2021-08-17T13:37:52Z</time>
      </trkpt>
      <trkpt lat="44.24949" lon="1.76691">
        <ele>291.42</ele>
        <time>2021-08-17T13:38:00Z</time>
      </trkpt>
      <trkpt lat="44.24944" lon="1.76694">
        <ele>292.38</ele>
        <time>2021-08-17T13:38:08Z</time>
      </trkpt>
      <trkpt lat="44.24938" lon="1.767">
        <ele>293.82</ele>
        <time>2021-08-17T13:38:16Z</time>
      </trkpt>
      <trkpt lat="44.24932" lon="1.76707">
        <ele>295.26</ele>
        <time>2021-08-17T13:38:26Z</time>
      </trkpt>
      <trkpt lat="44.24929" lon="1.76712">
        <ele>296.7</ele>
        <time>2021-08-17T13:38:34Z</time>
      </trkpt>
      <trkpt lat="44.24924" lon="1.76718">
        <ele>298.15</ele>
        <time>2021-08-17T13:38:43Z</time>
      </trkpt>
      <trkpt lat="44.2492" lon="1.76727">
        <ele>299.59</ele>
        <time>2021-08-17T13:38:54Z</time>
      </trkpt>
      <trkpt lat="44.24916" lon="1.76735">
        <ele>301.03</ele>
        <time>2021-08-17T13:39:04Z</time>
      </trkpt>
      <trkpt lat="44.24912" lon="1.76742">
        <ele>302.47</ele>
        <time>2021-08-17T13:39:12Z</time>
      </trkpt>
      <trkpt lat="44.24908" lon="1.76751">
        <ele>303.91</ele>
        <time>2021-08-17T13:39:22Z</time>
      </trkpt>
      <trkpt lat="44.24904" lon="1.76757">
        <ele>304.88</ele>
        <time>2021-08-17T13:39:29Z</time>
      </trkpt>
      <trkpt lat="44.24897" lon="1.76768">
        <ele>306.32</ele>
        <time>2021-08-17T13:39:39Z</time>
      </trkpt>
      <trkpt lat="44.24891" lon="1.76779">
        <ele>307.76</ele>
        <time>2021-08-17T13:39:50Z</time>
      </trkpt>
      <trkpt lat="44.24884" lon="1.76791">
        <ele>309.2</ele>
        <time>2021-08-17T13:40:00Z</time>
      </trkpt>
      <trkpt lat="44.24883" lon="1.76793">
        <ele>309.2</ele>
        <time>2021-08-17T13:40:08Z</time>
      </trkpt>
      <trkpt lat="44.24882" lon="1.76803">
        <ele>309.2</ele>
        <time>2021-08-17T13:40:16Z</time>
      </trkpt>
      <trkpt lat="44.24878" lon="1.76824">
        <ele>309.2</ele>
        <time>2021-08-17T13:40:23Z</time>
      </trkpt>
      <trkpt lat="44.24877" lon="1.76835">
        <ele>309.2</ele>
        <time>2021-08-17T13:40:27Z</time>
      </trkpt>
      <trkpt lat="44.24876" lon="1.76838">
        <ele>309.2</ele>
        <time>2021-08-17T13:40:28Z</time>
      </trkpt>
      <trkpt lat="44.24876" lon="1.76841">
        <ele>309.68</ele>
        <time>2021-08-17T13:40:29Z</time>
      </trkpt>
      <trkpt lat="44.24869" lon="1.76866">
        <ele>309.68</ele>
        <time>2021-08-17T13:40:37Z</time>
      </trkpt>
      <trkpt lat="44.24854" lon="1.76888">
        <ele>309.68</ele>
        <time>2021-08-17T13:40:44Z</time>
      </trkpt>
      <trkpt lat="44.24836" lon="1.76905">
        <ele>310.16</ele>
        <time>2021-08-17T13:40:52Z</time>
      </trkpt>
      <trkpt lat="44.24815" lon="1.76921">
        <ele>311.12</ele>
        <time>2021-08-17T13:41:00Z</time>
      </trkpt>
      <trkpt lat="44.24793" lon="1.76932">
        <ele>312.09</ele>
        <time>2021-08-17T13:41:09Z</time>
      </trkpt>
      <trkpt lat="44.24777" lon="1.76936">
        <ele>313.05</ele>
        <time>2021-08-17T13:41:17Z</time>
      </trkpt>
      <trkpt lat="44.24761" lon="1.76942">
        <ele>314.49</ele>
        <time>2021-08-17T13:41:25Z</time>
      </trkpt>
      <trkpt lat="44.24742" lon="1.76953">
        <ele>315.45</ele>
        <time>2021-08-17T13:41:35Z</time>
      </trkpt>
      <trkpt lat="44.24724" lon="1.76963">
        <ele>317.37</ele>
        <time>2021-08-17T13:41:45Z</time>
      </trkpt>
      <trkpt lat="44.24702" lon="1.76976">
        <ele>318.33</ele>
        <time>2021-08-17T13:41:56Z</time>
      </trkpt>
      <trkpt lat="44.2468" lon="1.76989">
        <ele>318.33</ele>
        <time>2021-08-17T13:42:04Z</time>
      </trkpt>
      <trkpt lat="44.24654" lon="1.77002">
        <ele>318.33</ele>
        <time>2021-08-17T13:42:12Z</time>
      </trkpt>
      <trkpt lat="44.24619" lon="1.77022">
        <ele>318.33</ele>
        <time>2021-08-17T13:42:21Z</time>
      </trkpt>
      <trkpt lat="44.24597" lon="1.77033">
        <ele>316.41</ele>
        <time>2021-08-17T13:42:26Z</time>
      </trkpt>
      <trkpt lat="44.24592" lon="1.77034">
        <ele>316.41</ele>
        <time>2021-08-17T13:42:27Z</time>
      </trkpt>
      <trkpt lat="44.24539" lon="1.77048">
        <ele>313.53</ele>
        <time>2021-08-17T13:42:36Z</time>
      </trkpt>
      <trkpt lat="44.24483" lon="1.7706">
        <ele>312.57</ele>
        <time>2021-08-17T13:42:45Z</time>
      </trkpt>
      <trkpt lat="44.24472" lon="1.77064">
        <ele>312.57</ele>
        <time>2021-08-17T13:42:47Z</time>
      </trkpt>
      <trkpt lat="44.24467" lon="1.77065">
        <ele>312.57</ele>
        <time>2021-08-17T13:42:48Z</time>
      </trkpt>
      <trkpt lat="44.24463" lon="1.77067">
        <ele>312.57</ele>
        <time>2021-08-17T13:42:49Z</time>
      </trkpt>
      <trkpt lat="44.24451" lon="1.77072">
        <ele>314.01</ele>
        <time>2021-08-17T13:42:53Z</time>
      </trkpt>
      <trkpt lat="44.24438" lon="1.77079">
        <ele>314.97</ele>
        <time>2021-08-17T13:43:00Z</time>
      </trkpt>
      <trkpt lat="44.24422" lon="1.77084">
        <ele>316.41</ele>
        <time>2021-08-17T13:43:08Z</time>
      </trkpt>
      <trkpt lat="44.24405" lon="1.77088">
        <ele>316.89</ele>
        <time>2021-08-17T13:43:15Z</time>
      </trkpt>
      <trkpt lat="44.24378" lon="1.77085">
        <ele>315.93</ele>
        <time>2021-08-17T13:43:23Z</time>
      </trkpt>
      <trkpt lat="44.24368" lon="1.77083">
        <ele>315.45</ele>
        <time>2021-08-17T13:43:25Z</time>
      </trkpt>
      <trkpt lat="44.24362" lon="1.77082">
        <ele>315.45</ele>
        <time>2021-08-17T13:43:26Z</time>
      </trkpt>
      <trkpt lat="44.24332" lon="1.77076">
        <ele>314.97</ele>
        <time>2021-08-17T13:43:33Z</time>
      </trkpt>
      <trkpt lat="44.24308" lon="1.77086">
        <ele>315.93</ele>
        <time>2021-08-17T13:43:40Z</time>
      </trkpt>
      <trkpt lat="44.2429" lon="1.77091">
        <ele>317.37</ele>
        <time>2021-08-17T13:43:48Z</time>
      </trkpt>
      <trkpt lat="44.24273" lon="1.77096">
        <ele>319.78</ele>
        <time>2021-08-17T13:43:57Z</time>
      </trkpt>
      <trkpt lat="44.24256" lon="1.77101">
        <ele>320.26</ele>
        <time>2021-08-17T13:44:05Z</time>
      </trkpt>
      <trkpt lat="44.24241" lon="1.77105">
        <ele>320.74</ele>
        <time>2021-08-17T13:44:11Z</time>
      </trkpt>
      <trkpt lat="44.24219" lon="1.77108">
        <ele>320.74</ele>
        <time>2021-08-17T13:44:19Z</time>
      </trkpt>
      <trkpt lat="44.24193" lon="1.77108">
        <ele>319.78</ele>
        <time>2021-08-17T13:44:27Z</time>
      </trkpt>
      <trkpt lat="44.24169" lon="1.7711">
        <ele>318.81</ele>
        <time>2021-08-17T13:44:32Z</time>
      </trkpt>
      <trkpt lat="44.24145" lon="1.77119">
        <ele>318.81</ele>
        <time>2021-08-17T13:44:37Z</time>
      </trkpt>
      <trkpt lat="44.24122" lon="1.77136">
        <ele>318.81</ele>
        <time>2021-08-17T13:44:42Z</time>
      </trkpt>
      <trkpt lat="44.24071" lon="1.77154">
        <ele>317.37</ele>
        <time>2021-08-17T13:44:51Z</time>
      </trkpt>
      <trkpt lat="44.24034" lon="1.77159">
        <ele>314.49</ele>
        <time>2021-08-17T13:44:56Z</time>
      </trkpt>
      <trkpt lat="44.24026" lon="1.77158">
        <ele>314.01</ele>
        <time>2021-08-17T13:44:57Z</time>
      </trkpt>
      <trkpt lat="44.24002" lon="1.77153">
        <ele>313.05</ele>
        <time>2021-08-17T13:45:00Z</time>
      </trkpt>
      <trkpt lat="44.23972" lon="1.77151">
        <ele>312.57</ele>
        <time>2021-08-17T13:45:04Z</time>
      </trkpt>
      <trkpt lat="44.23944" lon="1.77145">
        <ele>312.09</ele>
        <time>2021-08-17T13:45:08Z</time>
      </trkpt>
      <trkpt lat="44.23938" lon="1.77143">
        <ele>312.09</ele>
        <time>2021-08-17T13:45:09Z</time>
      </trkpt>
      <trkpt lat="44.23896" lon="1.7713">
        <ele>313.53</ele>
        <time>2021-08-17T13:45:17Z</time>
      </trkpt>
      <trkpt lat="44.23892" lon="1.7713">
        <ele>313.53</ele>
        <time>2021-08-17T13:45:18Z</time>
      </trkpt>
      <trkpt lat="44.23876" lon="1.7713">
        <ele>313.53</ele>
        <time>2021-08-17T13:45:21Z</time>
      </trkpt>
      <trkpt lat="44.23864" lon="1.77134">
        <ele>313.53</ele>
        <time>2021-08-17T13:45:23Z</time>
      </trkpt>
      <trkpt lat="44.23854" lon="1.77139">
        <ele>313.53</ele>
        <time>2021-08-17T13:45:25Z</time>
      </trkpt>
      <trkpt lat="44.23848" lon="1.77141">
        <ele>313.53</ele>
        <time>2021-08-17T13:45:26Z</time>
      </trkpt>
      <trkpt lat="44.23832" lon="1.77147">
        <ele>311.6</ele>
        <time>2021-08-17T13:45:29Z</time>
      </trkpt>
      <trkpt lat="44.23827" lon="1.77146">
        <ele>311.12</ele>
        <time>2021-08-17T13:45:30Z</time>
      </trkpt>
      <trkpt lat="44.23823" lon="1.77143">
        <ele>310.64</ele>
        <time>2021-08-17T13:45:31Z</time>
      </trkpt>
      <trkpt lat="44.2382" lon="1.7714">
        <ele>310.64</ele>
        <time>2021-08-17T13:45:32Z</time>
      </trkpt>
      <trkpt lat="44.23817" lon="1.77135">
        <ele>309.68</ele>
        <time>2021-08-17T13:45:33Z</time>
      </trkpt>
      <trkpt lat="44.23812" lon="1.77125">
        <ele>308.72</ele>
        <time>2021-08-17T13:45:35Z</time>
      </trkpt>
      <trkpt lat="44.23809" lon="1.7712">
        <ele>308.24</ele>
        <time>2021-08-17T13:45:36Z</time>
      </trkpt>
      <trkpt lat="44.23799" lon="1.77094">
        <ele>304.88</ele>
        <time>2021-08-17T13:45:42Z</time>
      </trkpt>
      <trkpt lat="44.23792" lon="1.77078">
        <ele>302.47</ele>
        <time>2021-08-17T13:45:47Z</time>
      </trkpt>
      <trkpt lat="44.23784" lon="1.77066">
        <ele>299.11</ele>
        <time>2021-08-17T13:45:51Z</time>
      </trkpt>
      <trkpt lat="44.23776" lon="1.77051">
        <ele>296.22</ele>
        <time>2021-08-17T13:45:56Z</time>
      </trkpt>
      <trkpt lat="44.23765" lon="1.77031">
        <ele>292.38</ele>
        <time>2021-08-17T13:46:02Z</time>
      </trkpt>
      <trkpt lat="44.23761" lon="1.77018">
        <ele>290.46</ele>
        <time>2021-08-17T13:46:06Z</time>
      </trkpt>
      <trkpt lat="44.23755" lon="1.77003">
        <ele>287.57</ele>
        <time>2021-08-17T13:46:11Z</time>
      </trkpt>
      <trkpt lat="44.23752" lon="1.76997">
        <ele>286.13</ele>
        <time>2021-08-17T13:46:13Z</time>
      </trkpt>
      <trkpt lat="44.23752" lon="1.76994">
        <ele>285.65</ele>
        <time>2021-08-17T13:46:14Z</time>
      </trkpt>
      <trkpt lat="44.2375" lon="1.76991">
        <ele>285.17</ele>
        <time>2021-08-17T13:46:15Z</time>
      </trkpt>
      <trkpt lat="44.23746" lon="1.76974">
        <ele>282.77</ele>
        <time>2021-08-17T13:46:19Z</time>
      </trkpt>
      <trkpt lat="44.23747" lon="1.76961">
        <ele>280.36</ele>
        <time>2021-08-17T13:46:24Z</time>
      </trkpt>
      <trkpt lat="44.23746" lon="1.76959">
        <ele>279.88</ele>
        <time>2021-08-17T13:46:25Z</time>
      </trkpt>
      <trkpt lat="44.23745" lon="1.76958">
        <ele>279.4</ele>
        <time>2021-08-17T13:46:26Z</time>
      </trkpt>
      <trkpt lat="44.23744" lon="1.76958">
        <ele>278.92</ele>
        <time>2021-08-17T13:46:27Z</time>
      </trkpt>
      <trkpt lat="44.23742" lon="1.76957">
        <ele>278.92</ele>
        <time>2021-08-17T13:46:28Z</time>
      </trkpt>
      <trkpt lat="44.23741" lon="1.76957">
        <ele>277.96</ele>
        <time>2021-08-17T13:46:29Z</time>
      </trkpt>
      <trkpt lat="44.23739" lon="1.76957">
        <ele>277</ele>
        <time>2021-08-17T13:46:30Z</time>
      </trkpt>
      <trkpt lat="44.23738" lon="1.76957">
        <ele>277</ele>
        <time>2021-08-17T13:46:31Z</time>
      </trkpt>
      <trkpt lat="44.23735" lon="1.76958">
        <ele>276.04</ele>
        <time>2021-08-17T13:46:33Z</time>
      </trkpt>
      <trkpt lat="44.23734" lon="1.76958">
        <ele>275.56</ele>
        <time>2021-08-17T13:46:34Z</time>
      </trkpt>
      <trkpt lat="44.23733" lon="1.76958">
        <ele>276.04</ele>
        <time>2021-08-17T13:46:35Z</time>
      </trkpt>
      <trkpt lat="44.23733" lon="1.76955">
        <ele>275.56</ele>
        <time>2021-08-17T13:46:36Z</time>
      </trkpt>
      <trkpt lat="44.23733" lon="1.76951">
        <ele>275.07</ele>
        <time>2021-08-17T13:46:37Z</time>
      </trkpt>
      <trkpt lat="44.23734" lon="1.76947">
        <ele>274.59</ele>
        <time>2021-08-17T13:46:38Z</time>
      </trkpt>
      <trkpt lat="44.23736" lon="1.76942">
        <ele>274.11</ele>
        <time>2021-08-17T13:46:39Z</time>
      </trkpt>
      <trkpt lat="44.23743" lon="1.76915">
        <ele>270.27</ele>
        <time>2021-08-17T13:46:45Z</time>
      </trkpt>
      <trkpt lat="44.23743" lon="1.76912">
        <ele>270.27</ele>
        <time>2021-08-17T13:46:46Z</time>
      </trkpt>
      <trkpt lat="44.23741" lon="1.76908">
        <ele>269.79</ele>
        <time>2021-08-17T13:46:47Z</time>
      </trkpt>
      <trkpt lat="44.23739" lon="1.76906">
        <ele>268.83</ele>
        <time>2021-08-17T13:46:48Z</time>
      </trkpt>
      <trkpt lat="44.23735" lon="1.76906">
        <ele>267.86</ele>
        <time>2021-08-17T13:46:49Z</time>
      </trkpt>
      <trkpt lat="44.23732" lon="1.76909">
        <ele>266.9</ele>
        <time>2021-08-17T13:46:50Z</time>
      </trkpt>
      <trkpt lat="44.23729" lon="1.76913">
        <ele>266.42</ele>
        <time>2021-08-17T13:46:51Z</time>
      </trkpt>
      <trkpt lat="44.23728" lon="1.76917">
        <ele>265.94</ele>
        <time>2021-08-17T13:46:52Z</time>
      </trkpt>
      <trkpt lat="44.23726" lon="1.76921">
        <ele>265.46</ele>
        <time>2021-08-17T13:46:53Z</time>
      </trkpt>
      <trkpt lat="44.23723" lon="1.76925">
        <ele>264.98</ele>
        <time>2021-08-17T13:46:54Z</time>
      </trkpt>
      <trkpt lat="44.23719" lon="1.76929">
        <ele>264.02</ele>
        <time>2021-08-17T13:46:55Z</time>
      </trkpt>
      <trkpt lat="44.23694" lon="1.76959">
        <ele>261.62</ele>
        <time>2021-08-17T13:47:01Z</time>
      </trkpt>
      <trkpt lat="44.23688" lon="1.76975">
        <ele>260.17</ele>
        <time>2021-08-17T13:47:05Z</time>
      </trkpt>
      <trkpt lat="44.23686" lon="1.76976">
        <ele>260.17</ele>
        <time>2021-08-17T13:47:06Z</time>
      </trkpt>
      <trkpt lat="44.23685" lon="1.76973">
        <ele>259.21</ele>
        <time>2021-08-17T13:47:07Z</time>
      </trkpt>
      <trkpt lat="44.23684" lon="1.76969">
        <ele>258.25</ele>
        <time>2021-08-17T13:47:08Z</time>
      </trkpt>
      <trkpt lat="44.23683" lon="1.76964">
        <ele>257.77</ele>
        <time>2021-08-17T13:47:09Z</time>
      </trkpt>
      <trkpt lat="44.23683" lon="1.76959">
        <ele>257.77</ele>
        <time>2021-08-17T13:47:10Z</time>
      </trkpt>
      <trkpt lat="44.23683" lon="1.76953">
        <ele>256.33</ele>
        <time>2021-08-17T13:47:11Z</time>
      </trkpt>
      <trkpt lat="44.2368" lon="1.76924">
        <ele>253.44</ele>
        <time>2021-08-17T13:47:17Z</time>
      </trkpt>
      <trkpt lat="44.23678" lon="1.76911">
        <ele>252</ele>
        <time>2021-08-17T13:47:20Z</time>
      </trkpt>
      <trkpt lat="44.23671" lon="1.769">
        <ele>251.04</ele>
        <time>2021-08-17T13:47:26Z</time>
      </trkpt>
      <trkpt lat="44.23669" lon="1.769">
        <ele>251.52</ele>
        <time>2021-08-17T13:47:35Z</time>
      </trkpt>
      <trkpt lat="44.23668" lon="1.769">
        <ele>251.52</ele>
        <time>2021-08-17T13:47:36Z</time>
      </trkpt>
      <trkpt lat="44.23667" lon="1.76902">
        <ele>251.52</ele>
        <time>2021-08-17T13:47:37Z</time>
      </trkpt>
      <trkpt lat="44.23666" lon="1.76904">
        <ele>251.52</ele>
        <time>2021-08-17T13:47:38Z</time>
      </trkpt>
      <trkpt lat="44.23666" lon="1.76906">
        <ele>251.52</ele>
        <time>2021-08-17T13:47:39Z</time>
      </trkpt>
      <trkpt lat="44.23665" lon="1.76911">
        <ele>251.04</ele>
        <time>2021-08-17T13:47:40Z</time>
      </trkpt>
      <trkpt lat="44.23664" lon="1.76914">
        <ele>251.04</ele>
        <time>2021-08-17T13:47:41Z</time>
      </trkpt>
      <trkpt lat="44.23658" lon="1.76955">
        <ele>248.16</ele>
        <time>2021-08-17T13:47:49Z</time>
      </trkpt>
      <trkpt lat="44.23655" lon="1.76994">
        <ele>246.23</ele>
        <time>2021-08-17T13:47:56Z</time>
      </trkpt>
      <trkpt lat="44.23654" lon="1.77011">
        <ele>245.27</ele>
        <time>2021-08-17T13:47:59Z</time>
      </trkpt>
      <trkpt lat="44.23656" lon="1.7703">
        <ele>244.79</ele>
        <time>2021-08-17T13:48:04Z</time>
      </trkpt>
      <trkpt lat="44.23654" lon="1.77051">
        <ele>243.83</ele>
        <time>2021-08-17T13:48:11Z</time>
      </trkpt>
      <trkpt lat="44.23655" lon="1.77057">
        <ele>243.35</ele>
        <time>2021-08-17T13:48:13Z</time>
      </trkpt>
      <trkpt lat="44.2366" lon="1.77062">
        <ele>242.87</ele>
        <time>2021-08-17T13:48:18Z</time>
      </trkpt>
      <trkpt lat="44.23661" lon="1.77061">
        <ele>242.87</ele>
        <time>2021-08-17T13:48:24Z</time>
      </trkpt>
      <trkpt lat="44.23659" lon="1.77064">
        <ele>242.87</ele>
        <time>2021-08-17T13:48:32Z</time>
      </trkpt>
      <trkpt lat="44.23659" lon="1.77063">
        <ele>242.87</ele>
        <time>2021-08-17T13:48:36Z</time>
      </trkpt>
      <trkpt lat="44.23659" lon="1.77062">
        <ele>242.87</ele>
        <time>2021-08-17T13:48:42Z</time>
      </trkpt>
      <trkpt lat="44.23658" lon="1.77065">
        <ele>242.87</ele>
        <time>2021-08-17T13:48:47Z</time>
      </trkpt>
      <trkpt lat="44.23658" lon="1.77067">
        <ele>242.87</ele>
        <time>2021-08-17T13:48:54Z</time>
      </trkpt>
      <trkpt lat="44.23659" lon="1.77068">
        <ele>242.87</ele>
        <time>2021-08-17T13:49:03Z</time>
      </trkpt>
      <trkpt lat="44.23659" lon="1.77069">
        <ele>242.87</ele>
        <time>2021-08-17T13:49:18Z</time>
      </trkpt>
      <trkpt lat="44.23658" lon="1.77073">
        <ele>242.87</ele>
        <time>2021-08-17T13:49:31Z</time>
      </trkpt>
      <trkpt lat="44.23657" lon="1.77075">
        <ele>242.87</ele>
        <time>2021-08-17T13:49:44Z</time>
      </trkpt>
      <trkpt lat="44.23657" lon="1.77074">
        <ele>242.87</ele>
        <time>2021-08-17T13:50:00Z</time>
      </trkpt>
      <trkpt lat="44.23658" lon="1.77074">
        <ele>242.87</ele>
        <time>2021-08-17T13:50:12Z</time>
      </trkpt>
      <trkpt lat="44.23658" lon="1.77074">
        <ele>242.87</ele>
        <time>2021-08-17T13:50:23Z</time>
      </trkpt>
      <trkpt lat="44.2366" lon="1.77073">
        <ele>242.87</ele>
        <time>2021-08-17T13:50:37Z</time>
      </trkpt>
      <trkpt lat="44.2366" lon="1.77071">
        <ele>242.87</ele>
        <time>2021-08-17T13:50:48Z</time>
      </trkpt>
      <trkpt lat="44.23661" lon="1.7707">
        <ele>242.87</ele>
        <time>2021-08-17T13:50:55Z</time>
      </trkpt>
      <trkpt lat="44.23661" lon="1.77069">
        <ele>242.39</ele>
        <time>2021-08-17T13:51:07Z</time>
      </trkpt>
      <trkpt lat="44.23661" lon="1.7707">
        <ele>242.39</ele>
        <time>2021-08-17T13:51:20Z</time>
      </trkpt>
      <trkpt lat="44.23661" lon="1.7707">
        <ele>242.39</ele>
        <time>2021-08-17T13:51:35Z</time>
      </trkpt>
      <trkpt lat="44.23662" lon="1.77071">
        <ele>242.39</ele>
        <time>2021-08-17T13:51:47Z</time>
      </trkpt>
      <trkpt lat="44.23662" lon="1.77071">
        <ele>242.39</ele>
        <time>2021-08-17T13:51:58Z</time>
      </trkpt>
      <trkpt lat="44.23662" lon="1.7707">
        <ele>242.39</ele>
        <time>2021-08-17T13:52:11Z</time>
      </trkpt>
      <trkpt lat="44.23661" lon="1.7707">
        <ele>242.39</ele>
        <time>2021-08-17T13:52:26Z</time>
      </trkpt>
      <trkpt lat="44.23659" lon="1.7707">
        <ele>242.39</ele>
        <time>2021-08-17T13:52:38Z</time>
      </trkpt>
      <trkpt lat="44.23659" lon="1.77071">
        <ele>242.39</ele>
        <time>2021-08-17T13:52:51Z</time>
      </trkpt>
      <trkpt lat="44.2366" lon="1.77071">
        <ele>242.39</ele>
        <time>2021-08-17T13:53:04Z</time>
      </trkpt>
      <trkpt lat="44.23661" lon="1.7707">
        <ele>241.91</ele>
        <time>2021-08-17T13:53:12Z</time>
      </trkpt>
      <trkpt lat="44.23662" lon="1.77069">
        <ele>241.91</ele>
        <time>2021-08-17T13:53:22Z</time>
      </trkpt>
      <trkpt lat="44.23661" lon="1.77068">
        <ele>241.91</ele>
        <time>2021-08-17T13:53:33Z</time>
      </trkpt>
      <trkpt lat="44.23658" lon="1.77067">
        <ele>241.91</ele>
        <time>2021-08-17T13:53:34Z</time>
      </trkpt>
      <trkpt lat="44.23655" lon="1.77066">
        <ele>241.91</ele>
        <time>2021-08-17T13:53:35Z</time>
      </trkpt>
      <trkpt lat="44.23654" lon="1.77067">
        <ele>241.91</ele>
        <time>2021-08-17T13:53:39Z</time>
      </trkpt>
      <trkpt lat="44.23653" lon="1.77069">
        <ele>241.91</ele>
        <time>2021-08-17T13:53:40Z</time>
      </trkpt>
      <trkpt lat="44.23655" lon="1.77069">
        <ele>241.91</ele>
        <time>2021-08-17T13:53:45Z</time>
      </trkpt>
      <trkpt lat="44.23664" lon="1.7707">
        <ele>241.91</ele>
        <time>2021-08-17T13:54:01Z</time>
      </trkpt>
      <trkpt lat="44.23666" lon="1.77069">
        <ele>241.91</ele>
        <time>2021-08-17T13:54:10Z</time>
      </trkpt>
      <trkpt lat="44.23668" lon="1.7707">
        <ele>241.43</ele>
        <time>2021-08-17T13:54:22Z</time>
      </trkpt>
      <trkpt lat="44.23669" lon="1.77069">
        <ele>241.43</ele>
        <time>2021-08-17T13:54:34Z</time>
      </trkpt>
      <trkpt lat="44.2367" lon="1.77068">
        <ele>241.43</ele>
        <time>2021-08-17T13:54:44Z</time>
      </trkpt>
      <trkpt lat="44.23671" lon="1.77067">
        <ele>241.43</ele>
        <time>2021-08-17T13:54:54Z</time>
      </trkpt>
      <trkpt lat="44.23673" lon="1.77066">
        <ele>241.43</ele>
        <time>2021-08-17T13:55:09Z</time>
      </trkpt>
      <trkpt lat="44.23672" lon="1.77066">
        <ele>241.43</ele>
        <time>2021-08-17T13:55:17Z</time>
      </trkpt>
      <trkpt lat="44.23673" lon="1.77066">
        <ele>241.43</ele>
        <time>2021-08-17T13:55:25Z</time>
      </trkpt>
      <trkpt lat="44.23671" lon="1.77067">
        <ele>240.95</ele>
        <time>2021-08-17T13:55:43Z</time>
      </trkpt>
      <trkpt lat="44.23669" lon="1.77069">
        <ele>240.95</ele>
        <time>2021-08-17T13:55:56Z</time>
      </trkpt>
      <trkpt lat="44.23666" lon="1.77069">
        <ele>240.95</ele>
        <time>2021-08-17T13:56:07Z</time>
      </trkpt>
      <trkpt lat="44.23664" lon="1.77069">
        <ele>240.95</ele>
        <time>2021-08-17T13:56:19Z</time>
      </trkpt>
      <trkpt lat="44.23662" lon="1.7707">
        <ele>240.95</ele>
        <time>2021-08-17T13:56:34Z</time>
      </trkpt>
      <trkpt lat="44.23662" lon="1.77069">
        <ele>240.95</ele>
        <time>2021-08-17T13:56:42Z</time>
      </trkpt>
      <trkpt lat="44.23661" lon="1.77069">
        <ele>240.47</ele>
        <time>2021-08-17T13:56:50Z</time>
      </trkpt>
      <trkpt lat="44.23659" lon="1.77069">
        <ele>240.47</ele>
        <time>2021-08-17T13:57:03Z</time>
      </trkpt>
      <trkpt lat="44.23657" lon="1.7707">
        <ele>240.47</ele>
        <time>2021-08-17T13:57:12Z</time>
      </trkpt>
      <trkpt lat="44.23659" lon="1.77071">
        <ele>240.47</ele>
        <time>2021-08-17T13:57:18Z</time>
      </trkpt>
      <trkpt lat="44.23655" lon="1.77071">
        <ele>240.47</ele>
        <time>2021-08-17T13:57:27Z</time>
      </trkpt>
      <trkpt lat="44.23649" lon="1.77071">
        <ele>240.47</ele>
        <time>2021-08-17T13:57:38Z</time>
      </trkpt>
      <trkpt lat="44.23647" lon="1.7707">
        <ele>240.47</ele>
        <time>2021-08-17T13:57:45Z</time>
      </trkpt>
      <trkpt lat="44.23644" lon="1.7707">
        <ele>240.47</ele>
        <time>2021-08-17T13:57:54Z</time>
      </trkpt>
      <trkpt lat="44.23643" lon="1.7707">
        <ele>240.47</ele>
        <time>2021-08-17T13:58:01Z</time>
      </trkpt>
      <trkpt lat="44.23639" lon="1.77069">
        <ele>240.47</ele>
        <time>2021-08-17T13:58:10Z</time>
      </trkpt>
      <trkpt lat="44.23639" lon="1.77068">
        <ele>240.47</ele>
        <time>2021-08-17T13:58:19Z</time>
      </trkpt>
      <trkpt lat="44.2364" lon="1.77068">
        <ele>240.47</ele>
        <time>2021-08-17T13:58:32Z</time>
      </trkpt>
      <trkpt lat="44.23641" lon="1.77067">
        <ele>240.47</ele>
        <time>2021-08-17T13:58:40Z</time>
      </trkpt>
      <trkpt lat="44.23643" lon="1.77068">
        <ele>240.47</ele>
        <time>2021-08-17T13:58:49Z</time>
      </trkpt>
      <trkpt lat="44.23645" lon="1.77069">
        <ele>241.43</ele>
        <time>2021-08-17T13:58:57Z</time>
      </trkpt>
      <trkpt lat="44.23645" lon="1.77069">
        <ele>241.43</ele>
        <time>2021-08-17T13:59:05Z</time>
      </trkpt>
      <trkpt lat="44.23649" lon="1.77071">
        <ele>241.43</ele>
        <time>2021-08-17T13:59:17Z</time>
      </trkpt>
      <trkpt lat="44.23649" lon="1.77071">
        <ele>241.43</ele>
        <time>2021-08-17T13:59:27Z</time>
      </trkpt>
      <trkpt lat="44.23648" lon="1.7707">
        <ele>241.43</ele>
        <time>2021-08-17T13:59:37Z</time>
      </trkpt>
      <trkpt lat="44.23646" lon="1.7707">
        <ele>241.43</ele>
        <time>2021-08-17T13:59:45Z</time>
      </trkpt>
      <trkpt lat="44.23643" lon="1.7707">
        <ele>241.43</ele>
        <time>2021-08-17T13:59:55Z</time>
      </trkpt>
      <trkpt lat="44.23644" lon="1.7707">
        <ele>241.43</ele>
        <time>2021-08-17T14:00:04Z</time>
      </trkpt>
      <trkpt lat="44.23644" lon="1.7707">
        <ele>241.43</ele>
        <time>2021-08-17T14:00:12Z</time>
      </trkpt>
      <trkpt lat="44.23646" lon="1.7707">
        <ele>241.43</ele>
        <time>2021-08-17T14:00:20Z</time>
      </trkpt>
      <trkpt lat="44.23648" lon="1.7707">
        <ele>241.43</ele>
        <time>2021-08-17T14:00:26Z</time>
      </trkpt>
      <trkpt lat="44.23651" lon="1.77071">
        <ele>241.43</ele>
        <time>2021-08-17T14:00:41Z</time>
      </trkpt>
      <trkpt lat="44.23654" lon="1.77068">
        <ele>241.43</ele>
        <time>2021-08-17T14:00:58Z</time>
      </trkpt>
      <trkpt lat="44.23653" lon="1.77069">
        <ele>241.43</ele>
        <time>2021-08-17T14:01:08Z</time>
      </trkpt>
      <trkpt lat="44.23654" lon="1.7707">
        <ele>241.43</ele>
        <time>2021-08-17T14:01:17Z</time>
      </trkpt>
      <trkpt lat="44.23655" lon="1.77071">
        <ele>241.43</ele>
        <time>2021-08-17T14:01:25Z</time>
      </trkpt>
      <trkpt lat="44.23654" lon="1.77072">
        <ele>241.43</ele>
        <time>2021-08-17T14:01:32Z</time>
      </trkpt>
      <trkpt lat="44.23653" lon="1.77071">
        <ele>241.43</ele>
        <time>2021-08-17T14:01:39Z</time>
      </trkpt>
      <trkpt lat="44.23652" lon="1.77069">
        <ele>241.43</ele>
        <time>2021-08-17T14:01:48Z</time>
      </trkpt>
      <trkpt lat="44.23652" lon="1.77067">
        <ele>241.43</ele>
        <time>2021-08-17T14:01:59Z</time>
      </trkpt>
      <trkpt lat="44.23649" lon="1.77064">
        <ele>241.43</ele>
        <time>2021-08-17T14:02:13Z</time>
      </trkpt>
      <trkpt lat="44.2365" lon="1.77064">
        <ele>241.43</ele>
        <time>2021-08-17T14:02:24Z</time>
      </trkpt>
      <trkpt lat="44.23651" lon="1.77065">
        <ele>241.43</ele>
        <time>2021-08-17T14:02:31Z</time>
      </trkpt>
      <trkpt lat="44.23649" lon="1.77065">
        <ele>241.43</ele>
        <time>2021-08-17T14:02:39Z</time>
      </trkpt>
      <trkpt lat="44.23649" lon="1.77066">
        <ele>241.43</ele>
        <time>2021-08-17T14:02:44Z</time>
      </trkpt>
      <trkpt lat="44.23649" lon="1.77066">
        <ele>241.43</ele>
        <time>2021-08-17T14:02:53Z</time>
      </trkpt>
      <trkpt lat="44.2365" lon="1.77065">
        <ele>241.43</ele>
        <time>2021-08-17T14:03:01Z</time>
      </trkpt>
      <trkpt lat="44.23651" lon="1.77064">
        <ele>241.43</ele>
        <time>2021-08-17T14:03:13Z</time>
      </trkpt>
      <trkpt lat="44.2365" lon="1.77063">
        <ele>241.43</ele>
        <time>2021-08-17T14:03:23Z</time>
      </trkpt>
      <trkpt lat="44.23647" lon="1.77061">
        <ele>241.91</ele>
        <time>2021-08-17T14:03:33Z</time>
      </trkpt>
      <trkpt lat="44.23647" lon="1.77061">
        <ele>241.91</ele>
        <time>2021-08-17T14:03:42Z</time>
      </trkpt>
      <trkpt lat="44.23652" lon="1.77066">
        <ele>241.91</ele>
        <time>2021-08-17T14:03:58Z</time>
      </trkpt>
      <trkpt lat="44.23655" lon="1.77069">
        <ele>241.91</ele>
        <time>2021-08-17T14:04:11Z</time>
      </trkpt>
      <trkpt lat="44.23655" lon="1.77071">
        <ele>241.91</ele>
        <time>2021-08-17T14:04:27Z</time>
      </trkpt>
      <trkpt lat="44.23656" lon="1.77071">
        <ele>241.91</ele>
        <time>2021-08-17T14:04:43Z</time>
      </trkpt>
      <trkpt lat="44.23657" lon="1.7707">
        <ele>241.91</ele>
        <time>2021-08-17T14:04:53Z</time>
      </trkpt>
      <trkpt lat="44.23655" lon="1.77069">
        <ele>241.91</ele>
        <time>2021-08-17T14:05:03Z</time>
      </trkpt>
      <trkpt lat="44.23654" lon="1.7707">
        <ele>241.91</ele>
        <time>2021-08-17T14:05:14Z</time>
      </trkpt>
      <trkpt lat="44.23652" lon="1.77071">
        <ele>242.39</ele>
        <time>2021-08-17T14:05:27Z</time>
      </trkpt>
      <trkpt lat="44.23651" lon="1.77071">
        <ele>242.39</ele>
        <time>2021-08-17T14:05:42Z</time>
      </trkpt>
      <trkpt lat="44.23651" lon="1.77071">
        <ele>242.39</ele>
        <time>2021-08-17T14:05:52Z</time>
      </trkpt>
      <trkpt lat="44.2365" lon="1.77071">
        <ele>242.39</ele>
        <time>2021-08-17T14:06:03Z</time>
      </trkpt>
      <trkpt lat="44.23652" lon="1.77071">
        <ele>241.43</ele>
        <time>2021-08-17T14:06:13Z</time>
      </trkpt>
      <trkpt lat="44.23653" lon="1.77071">
        <ele>241.43</ele>
        <time>2021-08-17T14:06:22Z</time>
      </trkpt>
      <trkpt lat="44.23652" lon="1.77072">
        <ele>241.43</ele>
        <time>2021-08-17T14:06:35Z</time>
      </trkpt>
      <trkpt lat="44.23651" lon="1.77072">
        <ele>241.43</ele>
        <time>2021-08-17T14:06:49Z</time>
      </trkpt>
      <trkpt lat="44.23648" lon="1.77074">
        <ele>241.43</ele>
        <time>2021-08-17T14:07:05Z</time>
      </trkpt>
      <trkpt lat="44.23647" lon="1.77077">
        <ele>241.43</ele>
        <time>2021-08-17T14:07:20Z</time>
      </trkpt>
      <trkpt lat="44.23646" lon="1.77077">
        <ele>241.43</ele>
        <time>2021-08-17T14:07:35Z</time>
      </trkpt>
      <trkpt lat="44.23645" lon="1.77078">
        <ele>241.43</ele>
        <time>2021-08-17T14:07:46Z</time>
      </trkpt>
      <trkpt lat="44.23648" lon="1.77075">
        <ele>241.91</ele>
        <time>2021-08-17T14:08:05Z</time>
      </trkpt>
      <trkpt lat="44.2365" lon="1.77074">
        <ele>241.91</ele>
        <time>2021-08-17T14:08:18Z</time>
      </trkpt>
      <trkpt lat="44.23654" lon="1.7707">
        <ele>241.91</ele>
        <time>2021-08-17T14:08:35Z</time>
      </trkpt>
      <trkpt lat="44.23655" lon="1.77069">
        <ele>241.91</ele>
        <time>2021-08-17T14:08:52Z</time>
      </trkpt>
      <trkpt lat="44.23655" lon="1.7707">
        <ele>241.91</ele>
        <time>2021-08-17T14:09:14Z</time>
      </trkpt>
      <trkpt lat="44.23654" lon="1.77071">
        <ele>242.87</ele>
        <time>2021-08-17T14:09:33Z</time>
      </trkpt>
      <trkpt lat="44.23652" lon="1.77069">
        <ele>242.87</ele>
        <time>2021-08-17T14:09:47Z</time>
      </trkpt>
      <trkpt lat="44.23652" lon="1.77066">
        <ele>242.87</ele>
        <time>2021-08-17T14:10:01Z</time>
      </trkpt>
      <trkpt lat="44.23652" lon="1.77065">
        <ele>242.87</ele>
        <time>2021-08-17T14:10:02Z</time>
      </trkpt>
      <trkpt lat="44.23656" lon="1.7706">
        <ele>242.87</ele>
        <time>2021-08-17T14:10:10Z</time>
      </trkpt>
      <trkpt lat="44.23652" lon="1.77061">
        <ele>243.35</ele>
        <time>2021-08-17T14:10:14Z</time>
      </trkpt>
      <trkpt lat="44.23645" lon="1.77064">
        <ele>243.35</ele>
        <time>2021-08-17T14:10:22Z</time>
      </trkpt>
      <trkpt lat="44.23644" lon="1.77062">
        <ele>242.39</ele>
        <time>2021-08-17T14:10:24Z</time>
      </trkpt>
      <trkpt lat="44.23647" lon="1.77039">
        <ele>242.39</ele>
        <time>2021-08-17T14:10:36Z</time>
      </trkpt>
      <trkpt lat="44.23648" lon="1.77029">
        <ele>243.35</ele>
        <time>2021-08-17T14:10:41Z</time>
      </trkpt>
      <trkpt lat="44.2365" lon="1.77023">
        <ele>243.35</ele>
        <time>2021-08-17T14:10:45Z</time>
      </trkpt>
      <trkpt lat="44.23651" lon="1.77012">
        <ele>244.31</ele>
        <time>2021-08-17T14:10:53Z</time>
      </trkpt>
      <trkpt lat="44.23649" lon="1.7701">
        <ele>244.79</ele>
        <time>2021-08-17T14:11:05Z</time>
      </trkpt>
      <trkpt lat="44.23646" lon="1.7701">
        <ele>244.79</ele>
        <time>2021-08-17T14:11:26Z</time>
      </trkpt>
      <trkpt lat="44.23647" lon="1.7701">
        <ele>244.79</ele>
        <time>2021-08-17T14:11:50Z</time>
      </trkpt>
      <trkpt lat="44.23646" lon="1.7701">
        <ele>244.79</ele>
        <time>2021-08-17T14:12:17Z</time>
      </trkpt>
      <trkpt lat="44.23646" lon="1.77012">
        <ele>244.31</ele>
        <time>2021-08-17T14:12:41Z</time>
      </trkpt>
      <trkpt lat="44.23648" lon="1.7701">
        <ele>244.31</ele>
        <time>2021-08-17T14:13:01Z</time>
      </trkpt>
      <trkpt lat="44.2365" lon="1.77008">
        <ele>244.31</ele>
        <time>2021-08-17T14:13:25Z</time>
      </trkpt>
      <trkpt lat="44.23648" lon="1.77008">
        <ele>244.31</ele>
        <time>2021-08-17T14:13:44Z</time>
      </trkpt>
      <trkpt lat="44.23647" lon="1.77008">
        <ele>244.31</ele>
        <time>2021-08-17T14:13:59Z</time>
      </trkpt>
      <trkpt lat="44.23645" lon="1.7701">
        <ele>244.31</ele>
        <time>2021-08-17T14:14:22Z</time>
      </trkpt>
      <trkpt lat="44.23645" lon="1.77013">
        <ele>244.31</ele>
        <time>2021-08-17T14:14:46Z</time>
      </trkpt>
      <trkpt lat="44.23646" lon="1.77013">
        <ele>244.31</ele>
        <time>2021-08-17T14:15:06Z</time>
      </trkpt>
      <trkpt lat="44.23647" lon="1.77012">
        <ele>244.31</ele>
        <time>2021-08-17T14:15:23Z</time>
      </trkpt>
      <trkpt lat="44.23646" lon="1.77011">
        <ele>244.31</ele>
        <time>2021-08-17T14:15:42Z</time>
      </trkpt>
      <trkpt lat="44.23646" lon="1.77011">
        <ele>244.31</ele>
        <time>2021-08-17T14:15:55Z</time>
      </trkpt>
      <trkpt lat="44.23647" lon="1.77009">
        <ele>244.31</ele>
        <time>2021-08-17T14:16:01Z</time>
      </trkpt>
      <trkpt lat="44.23647" lon="1.77012">
        <ele>244.31</ele>
        <time>2021-08-17T14:16:26Z</time>
      </trkpt>
      <trkpt lat="44.23648" lon="1.77011">
        <ele>244.31</ele>
        <time>2021-08-17T14:16:35Z</time>
      </trkpt>
      <trkpt lat="44.23649" lon="1.7701">
        <ele>244.31</ele>
        <time>2021-08-17T14:16:57Z</time>
      </trkpt>
      <trkpt lat="44.23647" lon="1.7701">
        <ele>244.31</ele>
        <time>2021-08-17T14:17:13Z</time>
      </trkpt>
      <trkpt lat="44.23647" lon="1.77006">
        <ele>244.31</ele>
        <time>2021-08-17T14:17:28Z</time>
      </trkpt>
      <trkpt lat="44.23653" lon="1.77005">
        <ele>244.31</ele>
        <time>2021-08-17T14:17:41Z</time>
      </trkpt>
      <trkpt lat="44.23652" lon="1.77002">
        <ele>244.31</ele>
        <time>2021-08-17T14:17:47Z</time>
      </trkpt>
      <trkpt lat="44.23651" lon="1.76999">
        <ele>244.31</ele>
        <time>2021-08-17T14:17:49Z</time>
      </trkpt>
      <trkpt lat="44.23652" lon="1.76993">
        <ele>244.31</ele>
        <time>2021-08-17T14:17:52Z</time>
      </trkpt>
      <trkpt lat="44.23653" lon="1.76992">
        <ele>244.31</ele>
        <time>2021-08-17T14:17:53Z</time>
      </trkpt>
      <trkpt lat="44.23654" lon="1.76993">
        <ele>245.27</ele>
        <time>2021-08-17T14:17:54Z</time>
      </trkpt>
      <trkpt lat="44.23655" lon="1.76994">
        <ele>245.27</ele>
        <time>2021-08-17T14:17:55Z</time>
      </trkpt>
      <trkpt lat="44.23656" lon="1.76996">
        <ele>245.27</ele>
        <time>2021-08-17T14:17:56Z</time>
      </trkpt>
      <trkpt lat="44.23657" lon="1.77">
        <ele>245.27</ele>
        <time>2021-08-17T14:17:58Z</time>
      </trkpt>
      <trkpt lat="44.23657" lon="1.77005">
        <ele>245.75</ele>
        <time>2021-08-17T14:17:59Z</time>
      </trkpt>
      <trkpt lat="44.23657" lon="1.77012">
        <ele>245.75</ele>
        <time>2021-08-17T14:18:00Z</time>
      </trkpt>
      <trkpt lat="44.23656" lon="1.77018">
        <ele>245.75</ele>
        <time>2021-08-17T14:18:01Z</time>
      </trkpt>
      <trkpt lat="44.23656" lon="1.77025">
        <ele>245.75</ele>
        <time>2021-08-17T14:18:02Z</time>
      </trkpt>
      <trkpt lat="44.23656" lon="1.77048">
        <ele>244.31</ele>
        <time>2021-08-17T14:18:05Z</time>
      </trkpt>
      <trkpt lat="44.23654" lon="1.77078">
        <ele>242.87</ele>
        <time>2021-08-17T14:18:09Z</time>
      </trkpt>
      <trkpt lat="44.23653" lon="1.77083">
        <ele>242.39</ele>
        <time>2021-08-17T14:18:10Z</time>
      </trkpt>
      <trkpt lat="44.23652" lon="1.77086">
        <ele>242.39</ele>
        <time>2021-08-17T14:18:14Z</time>
      </trkpt>
      <trkpt lat="44.23652" lon="1.77086">
        <ele>242.39</ele>
        <time>2021-08-17T14:18:18Z</time>
      </trkpt>
      <trkpt lat="44.23653" lon="1.77088">
        <ele>242.39</ele>
        <time>2021-08-17T14:18:19Z</time>
      </trkpt>
      <trkpt lat="44.23655" lon="1.77089">
        <ele>242.39</ele>
        <time>2021-08-17T14:18:20Z</time>
      </trkpt>
      <trkpt lat="44.23656" lon="1.77087">
        <ele>242.39</ele>
        <time>2021-08-17T14:18:21Z</time>
      </trkpt>
      <trkpt lat="44.23656" lon="1.77084">
        <ele>241.91</ele>
        <time>2021-08-17T14:18:22Z</time>
      </trkpt>
      <trkpt lat="44.23656" lon="1.77082">
        <ele>241.91</ele>
        <time>2021-08-17T14:18:23Z</time>
      </trkpt>
      <trkpt lat="44.23656" lon="1.7708">
        <ele>241.91</ele>
        <time>2021-08-17T14:18:24Z</time>
      </trkpt>
      <trkpt lat="44.23655" lon="1.77078">
        <ele>241.91</ele>
        <time>2021-08-17T14:18:25Z</time>
      </trkpt>
      <trkpt lat="44.23655" lon="1.77075">
        <ele>241.91</ele>
        <time>2021-08-17T14:18:26Z</time>
      </trkpt>
      <trkpt lat="44.23656" lon="1.77047">
        <ele>243.35</ele>
        <time>2021-08-17T14:18:35Z</time>
      </trkpt>
      <trkpt lat="44.23656" lon="1.7701">
        <ele>245.27</ele>
        <time>2021-08-17T14:18:46Z</time>
      </trkpt>
      <trkpt lat="44.23654" lon="1.76989">
        <ele>246.23</ele>
        <time>2021-08-17T14:18:54Z</time>
      </trkpt>
      <trkpt lat="44.23653" lon="1.76988">
        <ele>246.72</ele>
        <time>2021-08-17T14:18:55Z</time>
      </trkpt>
      <trkpt lat="44.23651" lon="1.76987">
        <ele>246.72</ele>
        <time>2021-08-17T14:18:56Z</time>
      </trkpt>
      <trkpt lat="44.2365" lon="1.76986">
        <ele>246.72</ele>
        <time>2021-08-17T14:18:57Z</time>
      </trkpt>
      <trkpt lat="44.23648" lon="1.76986">
        <ele>246.72</ele>
        <time>2021-08-17T14:18:58Z</time>
      </trkpt>
      <trkpt lat="44.23646" lon="1.76987">
        <ele>245.27</ele>
        <time>2021-08-17T14:18:59Z</time>
      </trkpt>
      <trkpt lat="44.23628" lon="1.76986">
        <ele>243.35</ele>
        <time>2021-08-17T14:19:06Z</time>
      </trkpt>
      <trkpt lat="44.23615" lon="1.76985">
        <ele>240.95</ele>
        <time>2021-08-17T14:19:12Z</time>
      </trkpt>
      <trkpt lat="44.236" lon="1.7699">
        <ele>239.99</ele>
        <time>2021-08-17T14:19:17Z</time>
      </trkpt>
      <trkpt lat="44.23597" lon="1.76992">
        <ele>240.47</ele>
        <time>2021-08-17T14:19:18Z</time>
      </trkpt>
      <trkpt lat="44.23594" lon="1.76994">
        <ele>240.47</ele>
        <time>2021-08-17T14:19:19Z</time>
      </trkpt>
      <trkpt lat="44.23592" lon="1.76995">
        <ele>240.47</ele>
        <time>2021-08-17T14:19:20Z</time>
      </trkpt>
      <trkpt lat="44.2359" lon="1.76996">
        <ele>240.47</ele>
        <time>2021-08-17T14:19:21Z</time>
      </trkpt>
      <trkpt lat="44.23586" lon="1.77001">
        <ele>241.43</ele>
        <time>2021-08-17T14:19:27Z</time>
      </trkpt>
      <trkpt lat="44.23585" lon="1.77004">
        <ele>241.91</ele>
        <time>2021-08-17T14:19:28Z</time>
      </trkpt>
      <trkpt lat="44.23585" lon="1.77007">
        <ele>241.91</ele>
        <time>2021-08-17T14:19:29Z</time>
      </trkpt>
      <trkpt lat="44.23582" lon="1.77023">
        <ele>242.87</ele>
        <time>2021-08-17T14:19:37Z</time>
      </trkpt>
      <trkpt lat="44.2358" lon="1.77042">
        <ele>245.27</ele>
        <time>2021-08-17T14:19:46Z</time>
      </trkpt>
      <trkpt lat="44.23576" lon="1.77049">
        <ele>245.27</ele>
        <time>2021-08-17T14:19:50Z</time>
      </trkpt>
      <trkpt lat="44.23565" lon="1.77056">
        <ele>246.72</ele>
        <time>2021-08-17T14:19:58Z</time>
      </trkpt>
      <trkpt lat="44.23556" lon="1.77062">
        <ele>248.64</ele>
        <time>2021-08-17T14:20:07Z</time>
      </trkpt>
      <trkpt lat="44.23555" lon="1.77057">
        <ele>250.08</ele>
        <time>2021-08-17T14:20:14Z</time>
      </trkpt>
      <trkpt lat="44.23555" lon="1.77057">
        <ele>250.08</ele>
        <time>2021-08-17T14:20:15Z</time>
      </trkpt>
      <trkpt lat="44.23554" lon="1.77055">
        <ele>250.08</ele>
        <time>2021-08-17T14:20:16Z</time>
      </trkpt>
      <trkpt lat="44.23554" lon="1.77053">
        <ele>250.08</ele>
        <time>2021-08-17T14:20:17Z</time>
      </trkpt>
      <trkpt lat="44.23552" lon="1.77044">
        <ele>251.04</ele>
        <time>2021-08-17T14:20:22Z</time>
      </trkpt>
      <trkpt lat="44.23553" lon="1.77039">
        <ele>251.04</ele>
        <time>2021-08-17T14:20:25Z</time>
      </trkpt>
      <trkpt lat="44.23552" lon="1.77036">
        <ele>251.04</ele>
        <time>2021-08-17T14:20:26Z</time>
      </trkpt>
      <trkpt lat="44.23553" lon="1.77011">
        <ele>251.04</ele>
        <time>2021-08-17T14:20:34Z</time>
      </trkpt>
      <trkpt lat="44.23548" lon="1.76982">
        <ele>250.08</ele>
        <time>2021-08-17T14:20:43Z</time>
      </trkpt>
      <trkpt lat="44.23547" lon="1.76979">
        <ele>250.08</ele>
        <time>2021-08-17T14:20:44Z</time>
      </trkpt>
      <trkpt lat="44.23539" lon="1.76969">
        <ele>248.64</ele>
        <time>2021-08-17T14:20:48Z</time>
      </trkpt>
      <trkpt lat="44.23536" lon="1.76969">
        <ele>248.16</ele>
        <time>2021-08-17T14:20:49Z</time>
      </trkpt>
      <trkpt lat="44.23534" lon="1.76971">
        <ele>248.16</ele>
        <time>2021-08-17T14:20:50Z</time>
      </trkpt>
      <trkpt lat="44.23532" lon="1.76973">
        <ele>247.68</ele>
        <time>2021-08-17T14:20:51Z</time>
      </trkpt>
      <trkpt lat="44.23529" lon="1.76974">
        <ele>247.68</ele>
        <time>2021-08-17T14:20:52Z</time>
      </trkpt>
      <trkpt lat="44.23528" lon="1.76976">
        <ele>247.68</ele>
        <time>2021-08-17T14:20:53Z</time>
      </trkpt>
      <trkpt lat="44.23514" lon="1.76997">
        <ele>248.16</ele>
        <time>2021-08-17T14:21:01Z</time>
      </trkpt>
      <trkpt lat="44.23495" lon="1.77028">
        <ele>247.68</ele>
        <time>2021-08-17T14:21:09Z</time>
      </trkpt>
      <trkpt lat="44.23484" lon="1.7703">
        <ele>245.27</ele>
        <time>2021-08-17T14:21:12Z</time>
      </trkpt>
      <trkpt lat="44.2348" lon="1.77034">
        <ele>244.79</ele>
        <time>2021-08-17T14:21:13Z</time>
      </trkpt>
      <trkpt lat="44.23476" lon="1.7704">
        <ele>243.83</ele>
        <time>2021-08-17T14:21:14Z</time>
      </trkpt>
      <trkpt lat="44.23473" lon="1.77048">
        <ele>242.87</ele>
        <time>2021-08-17T14:21:15Z</time>
      </trkpt>
      <trkpt lat="44.2347" lon="1.77054">
        <ele>242.39</ele>
        <time>2021-08-17T14:21:16Z</time>
      </trkpt>
      <trkpt lat="44.23464" lon="1.77076">
        <ele>239.99</ele>
        <time>2021-08-17T14:21:19Z</time>
      </trkpt>
      <trkpt lat="44.23463" lon="1.77084">
        <ele>239.02</ele>
        <time>2021-08-17T14:21:20Z</time>
      </trkpt>
      <trkpt lat="44.23463" lon="1.77093">
        <ele>237.58</ele>
        <time>2021-08-17T14:21:21Z</time>
      </trkpt>
      <trkpt lat="44.23463" lon="1.77101">
        <ele>237.1</ele>
        <time>2021-08-17T14:21:22Z</time>
      </trkpt>
      <trkpt lat="44.23463" lon="1.77111">
        <ele>236.62</ele>
        <time>2021-08-17T14:21:23Z</time>
      </trkpt>
      <trkpt lat="44.23464" lon="1.77146">
        <ele>232.78</ele>
        <time>2021-08-17T14:21:27Z</time>
      </trkpt>
      <trkpt lat="44.23465" lon="1.77177">
        <ele>229.41</ele>
        <time>2021-08-17T14:21:31Z</time>
      </trkpt>
      <trkpt lat="44.23468" lon="1.77196">
        <ele>227.97</ele>
        <time>2021-08-17T14:21:34Z</time>
      </trkpt>
      <trkpt lat="44.2347" lon="1.77204">
        <ele>227.01</ele>
        <time>2021-08-17T14:21:35Z</time>
      </trkpt>
      <trkpt lat="44.23474" lon="1.77233">
        <ele>225.09</ele>
        <time>2021-08-17T14:21:39Z</time>
      </trkpt>
      <trkpt lat="44.23477" lon="1.77245">
        <ele>223.16</ele>
        <time>2021-08-17T14:21:41Z</time>
      </trkpt>
      <trkpt lat="44.23479" lon="1.77258">
        <ele>221.72</ele>
        <time>2021-08-17T14:21:44Z</time>
      </trkpt>
      <trkpt lat="44.23477" lon="1.77261">
        <ele>221.72</ele>
        <time>2021-08-17T14:21:45Z</time>
      </trkpt>
      <trkpt lat="44.23475" lon="1.77261">
        <ele>221.24</ele>
        <time>2021-08-17T14:21:46Z</time>
      </trkpt>
      <trkpt lat="44.23472" lon="1.77259">
        <ele>220.76</ele>
        <time>2021-08-17T14:21:47Z</time>
      </trkpt>
      <trkpt lat="44.2347" lon="1.77257">
        <ele>221.24</ele>
        <time>2021-08-17T14:21:48Z</time>
      </trkpt>
      <trkpt lat="44.23468" lon="1.77253">
        <ele>221.24</ele>
        <time>2021-08-17T14:21:49Z</time>
      </trkpt>
      <trkpt lat="44.23466" lon="1.77248">
        <ele>220.76</ele>
        <time>2021-08-17T14:21:50Z</time>
      </trkpt>
      <trkpt lat="44.23464" lon="1.77243">
        <ele>220.28</ele>
        <time>2021-08-17T14:21:51Z</time>
      </trkpt>
      <trkpt lat="44.23463" lon="1.77239">
        <ele>220.28</ele>
        <time>2021-08-17T14:21:52Z</time>
      </trkpt>
      <trkpt lat="44.23448" lon="1.77194">
        <ele>218.36</ele>
        <time>2021-08-17T14:21:59Z</time>
      </trkpt>
      <trkpt lat="44.2343" lon="1.77151">
        <ele>217.4</ele>
        <time>2021-08-17T14:22:06Z</time>
      </trkpt>
      <trkpt lat="44.23424" lon="1.77141">
        <ele>216.43</ele>
        <time>2021-08-17T14:22:08Z</time>
      </trkpt>
      <trkpt lat="44.2342" lon="1.77138">
        <ele>216.43</ele>
        <time>2021-08-17T14:22:09Z</time>
      </trkpt>
      <trkpt lat="44.23417" lon="1.77134">
        <ele>215.95</ele>
        <time>2021-08-17T14:22:10Z</time>
      </trkpt>
      <trkpt lat="44.23415" lon="1.77131">
        <ele>215.95</ele>
        <time>2021-08-17T14:22:11Z</time>
      </trkpt>
      <trkpt lat="44.23413" lon="1.77129">
        <ele>215.95</ele>
        <time>2021-08-17T14:22:12Z</time>
      </trkpt>
      <trkpt lat="44.23408" lon="1.7712">
        <ele>215.95</ele>
        <time>2021-08-17T14:22:15Z</time>
      </trkpt>
      <trkpt lat="44.23405" lon="1.77106">
        <ele>214.51</ele>
        <time>2021-08-17T14:22:19Z</time>
      </trkpt>
      <trkpt lat="44.23406" lon="1.77103">
        <ele>214.51</ele>
        <time>2021-08-17T14:22:23Z</time>
      </trkpt>
      <trkpt lat="44.23405" lon="1.77102">
        <ele>215.95</ele>
        <time>2021-08-17T14:22:29Z</time>
      </trkpt>
      <trkpt lat="44.23402" lon="1.77099">
        <ele>215.95</ele>
        <time>2021-08-17T14:22:46Z</time>
      </trkpt>
      <trkpt lat="44.23399" lon="1.77098">
        <ele>215.95</ele>
        <time>2021-08-17T14:23:00Z</time>
      </trkpt>
      <trkpt lat="44.23399" lon="1.77098">
        <ele>215.95</ele>
        <time>2021-08-17T14:23:16Z</time>
      </trkpt>
      <trkpt lat="44.23401" lon="1.77098">
        <ele>215.95</ele>
        <time>2021-08-17T14:23:29Z</time>
      </trkpt>
      <trkpt lat="44.23401" lon="1.771">
        <ele>215.95</ele>
        <time>2021-08-17T14:23:39Z</time>
      </trkpt>
      <trkpt lat="44.23401" lon="1.77102">
        <ele>215.95</ele>
        <time>2021-08-17T14:23:40Z</time>
      </trkpt>
      <trkpt lat="44.234" lon="1.77104">
        <ele>215.95</ele>
        <time>2021-08-17T14:23:41Z</time>
      </trkpt>
      <trkpt lat="44.234" lon="1.77106">
        <ele>215.95</ele>
        <time>2021-08-17T14:23:42Z</time>
      </trkpt>
      <trkpt lat="44.234" lon="1.7711">
        <ele>215.95</ele>
        <time>2021-08-17T14:23:47Z</time>
      </trkpt>
      <trkpt lat="44.23399" lon="1.77116">
        <ele>215.95</ele>
        <time>2021-08-17T14:23:51Z</time>
      </trkpt>
      <trkpt lat="44.23397" lon="1.77118">
        <ele>215.95</ele>
        <time>2021-08-17T14:23:53Z</time>
      </trkpt>
      <trkpt lat="44.23396" lon="1.77119">
        <ele>215.95</ele>
        <time>2021-08-17T14:23:54Z</time>
      </trkpt>
      <trkpt lat="44.23395" lon="1.77121">
        <ele>215.95</ele>
        <time>2021-08-17T14:23:55Z</time>
      </trkpt>
      <trkpt lat="44.23393" lon="1.77121">
        <ele>215.95</ele>
        <time>2021-08-17T14:23:56Z</time>
      </trkpt>
      <trkpt lat="44.23391" lon="1.77122">
        <ele>215.95</ele>
        <time>2021-08-17T14:23:57Z</time>
      </trkpt>
      <trkpt lat="44.23369" lon="1.7713">
        <ele>215.95</ele>
        <time>2021-08-17T14:24:04Z</time>
      </trkpt>
      <trkpt lat="44.23359" lon="1.77142">
        <ele>215.95</ele>
        <time>2021-08-17T14:24:07Z</time>
      </trkpt>
      <trkpt lat="44.23353" lon="1.77152">
        <ele>215.95</ele>
        <time>2021-08-17T14:24:09Z</time>
      </trkpt>
      <trkpt lat="44.23351" lon="1.77158">
        <ele>214.51</ele>
        <time>2021-08-17T14:24:10Z</time>
      </trkpt>
      <trkpt lat="44.23349" lon="1.77164">
        <ele>214.51</ele>
        <time>2021-08-17T14:24:11Z</time>
      </trkpt>
      <trkpt lat="44.23347" lon="1.77172">
        <ele>214.51</ele>
        <time>2021-08-17T14:24:12Z</time>
      </trkpt>
      <trkpt lat="44.23345" lon="1.77179">
        <ele>214.03</ele>
        <time>2021-08-17T14:24:13Z</time>
      </trkpt>
      <trkpt lat="44.23344" lon="1.77186">
        <ele>214.03</ele>
        <time>2021-08-17T14:24:14Z</time>
      </trkpt>
      <trkpt lat="44.23343" lon="1.77193">
        <ele>214.03</ele>
        <time>2021-08-17T14:24:15Z</time>
      </trkpt>
      <trkpt lat="44.23343" lon="1.77201">
        <ele>213.55</ele>
        <time>2021-08-17T14:24:16Z</time>
      </trkpt>
      <trkpt lat="44.2334" lon="1.77264">
        <ele>212.11</ele>
        <time>2021-08-17T14:24:23Z</time>
      </trkpt>
      <trkpt lat="44.23334" lon="1.77325">
        <ele>211.63</ele>
        <time>2021-08-17T14:24:30Z</time>
      </trkpt>
      <trkpt lat="44.23325" lon="1.77376">
        <ele>210.67</ele>
        <time>2021-08-17T14:24:36Z</time>
      </trkpt>
      <trkpt lat="44.23322" lon="1.77393">
        <ele>210.19</ele>
        <time>2021-08-17T14:24:38Z</time>
      </trkpt>
      <trkpt lat="44.2332" lon="1.77401">
        <ele>210.19</ele>
        <time>2021-08-17T14:24:39Z</time>
      </trkpt>
      <trkpt lat="44.23314" lon="1.77446">
        <ele>208.26</ele>
        <time>2021-08-17T14:24:44Z</time>
      </trkpt>
      <trkpt lat="44.23311" lon="1.77455">
        <ele>208.26</ele>
        <time>2021-08-17T14:24:45Z</time>
      </trkpt>
      <trkpt lat="44.23309" lon="1.77465">
        <ele>208.26</ele>
        <time>2021-08-17T14:24:46Z</time>
      </trkpt>
      <trkpt lat="44.23297" lon="1.77518">
        <ele>207.3</ele>
        <time>2021-08-17T14:24:52Z</time>
      </trkpt>
      <trkpt lat="44.23295" lon="1.77524">
        <ele>207.3</ele>
        <time>2021-08-17T14:24:53Z</time>
      </trkpt>
      <trkpt lat="44.23293" lon="1.77529">
        <ele>207.3</ele>
        <time>2021-08-17T14:24:54Z</time>
      </trkpt>
      <trkpt lat="44.23288" lon="1.77537">
        <ele>208.74</ele>
        <time>2021-08-17T14:24:58Z</time>
      </trkpt>
      <trkpt lat="44.23284" lon="1.77543">
        <ele>210.19</ele>
        <time>2021-08-17T14:25:05Z</time>
      </trkpt>
      <trkpt lat="44.2328" lon="1.77549">
        <ele>211.63</ele>
        <time>2021-08-17T14:25:14Z</time>
      </trkpt>
      <trkpt lat="44.23275" lon="1.77557">
        <ele>212.59</ele>
        <time>2021-08-17T14:25:23Z</time>
      </trkpt>
      <trkpt lat="44.23268" lon="1.77566">
        <ele>214.51</ele>
        <time>2021-08-17T14:25:33Z</time>
      </trkpt>
      <trkpt lat="44.23261" lon="1.77575">
        <ele>215.95</ele>
        <time>2021-08-17T14:25:43Z</time>
      </trkpt>
      <trkpt lat="44.23257" lon="1.77583">
        <ele>217.4</ele>
        <time>2021-08-17T14:25:51Z</time>
      </trkpt>
      <trkpt lat="44.23254" lon="1.77591">
        <ele>217.88</ele>
        <time>2021-08-17T14:25:58Z</time>
      </trkpt>
      <trkpt lat="44.23249" lon="1.77602">
        <ele>218.84</ele>
        <time>2021-08-17T14:26:06Z</time>
      </trkpt>
      <trkpt lat="44.23243" lon="1.77608">
        <ele>220.76</ele>
        <time>2021-08-17T14:26:16Z</time>
      </trkpt>
      <trkpt lat="44.23234" lon="1.77615">
        <ele>222.2</ele>
        <time>2021-08-17T14:26:25Z</time>
      </trkpt>
      <trkpt lat="44.23227" lon="1.77619">
        <ele>223.16</ele>
        <time>2021-08-17T14:26:34Z</time>
      </trkpt>
      <trkpt lat="44.23218" lon="1.77623">
        <ele>224.12</ele>
        <time>2021-08-17T14:26:44Z</time>
      </trkpt>
      <trkpt lat="44.23212" lon="1.77627">
        <ele>224.61</ele>
        <time>2021-08-17T14:26:50Z</time>
      </trkpt>
      <trkpt lat="44.23207" lon="1.77629">
        <ele>226.05</ele>
        <time>2021-08-17T14:26:58Z</time>
      </trkpt>
      <trkpt lat="44.23203" lon="1.77631">
        <ele>226.05</ele>
        <time>2021-08-17T14:27:06Z</time>
      </trkpt>
      <trkpt lat="44.23203" lon="1.77631">
        <ele>225.57</ele>
        <time>2021-08-17T14:27:16Z</time>
      </trkpt>
      <trkpt lat="44.23202" lon="1.7763">
        <ele>225.57</ele>
        <time>2021-08-17T14:27:25Z</time>
      </trkpt>
      <trkpt lat="44.23202" lon="1.77632">
        <ele>225.57</ele>
        <time>2021-08-17T14:27:40Z</time>
      </trkpt>
      <trkpt lat="44.23195" lon="1.77636">
        <ele>227.01</ele>
        <time>2021-08-17T14:27:47Z</time>
      </trkpt>
      <trkpt lat="44.23187" lon="1.77645">
        <ele>227.49</ele>
        <time>2021-08-17T14:27:55Z</time>
      </trkpt>
      <trkpt lat="44.23182" lon="1.77652">
        <ele>228.45</ele>
        <time>2021-08-17T14:28:02Z</time>
      </trkpt>
      <trkpt lat="44.23179" lon="1.77658">
        <ele>228.93</ele>
        <time>2021-08-17T14:28:10Z</time>
      </trkpt>
      <trkpt lat="44.23172" lon="1.7767">
        <ele>229.41</ele>
        <time>2021-08-17T14:28:16Z</time>
      </trkpt>
      <trkpt lat="44.23165" lon="1.77686">
        <ele>230.85</ele>
        <time>2021-08-17T14:28:24Z</time>
      </trkpt>
      <trkpt lat="44.23156" lon="1.77701">
        <ele>230.85</ele>
        <time>2021-08-17T14:28:31Z</time>
      </trkpt>
      <trkpt lat="44.23146" lon="1.77719">
        <ele>231.33</ele>
        <time>2021-08-17T14:28:39Z</time>
      </trkpt>
      <trkpt lat="44.23135" lon="1.77735">
        <ele>231.33</ele>
        <time>2021-08-17T14:28:46Z</time>
      </trkpt>
      <trkpt lat="44.2312" lon="1.77756">
        <ele>229.89</ele>
        <time>2021-08-17T14:28:53Z</time>
      </trkpt>
      <trkpt lat="44.23111" lon="1.7777">
        <ele>228.45</ele>
        <time>2021-08-17T14:28:56Z</time>
      </trkpt>
      <trkpt lat="44.23092" lon="1.7778">
        <ele>228.45</ele>
        <time>2021-08-17T14:29:01Z</time>
      </trkpt>
      <trkpt lat="44.23085" lon="1.77784">
        <ele>229.89</ele>
        <time>2021-08-17T14:29:04Z</time>
      </trkpt>
      <trkpt lat="44.23072" lon="1.77788">
        <ele>232.3</ele>
        <time>2021-08-17T14:29:12Z</time>
      </trkpt>
      <trkpt lat="44.23068" lon="1.7779">
        <ele>232.3</ele>
        <time>2021-08-17T14:29:15Z</time>
      </trkpt>
      <trkpt lat="44.2305" lon="1.77794">
        <ele>232.3</ele>
        <time>2021-08-17T14:29:24Z</time>
      </trkpt>
      <trkpt lat="44.23032" lon="1.77789">
        <ele>232.3</ele>
        <time>2021-08-17T14:29:31Z</time>
      </trkpt>
      <trkpt lat="44.23015" lon="1.77787">
        <ele>232.3</ele>
        <time>2021-08-17T14:29:36Z</time>
      </trkpt>
      <trkpt lat="44.22989" lon="1.77786">
        <ele>230.37</ele>
        <time>2021-08-17T14:29:43Z</time>
      </trkpt>
      <trkpt lat="44.22975" lon="1.77786">
        <ele>228.93</ele>
        <time>2021-08-17T14:29:46Z</time>
      </trkpt>
      <trkpt lat="44.2297" lon="1.77785">
        <ele>228.93</ele>
        <time>2021-08-17T14:29:47Z</time>
      </trkpt>
      <trkpt lat="44.22964" lon="1.77784">
        <ele>228.93</ele>
        <time>2021-08-17T14:29:48Z</time>
      </trkpt>
      <trkpt lat="44.22949" lon="1.7778">
        <ele>228.45</ele>
        <time>2021-08-17T14:29:51Z</time>
      </trkpt>
      <trkpt lat="44.22944" lon="1.7778">
        <ele>228.45</ele>
        <time>2021-08-17T14:29:52Z</time>
      </trkpt>
      <trkpt lat="44.2294" lon="1.7778">
        <ele>228.45</ele>
        <time>2021-08-17T14:29:53Z</time>
      </trkpt>
      <trkpt lat="44.22936" lon="1.77778">
        <ele>228.45</ele>
        <time>2021-08-17T14:29:54Z</time>
      </trkpt>
      <trkpt lat="44.22932" lon="1.77777">
        <ele>228.45</ele>
        <time>2021-08-17T14:29:55Z</time>
      </trkpt>
      <trkpt lat="44.22911" lon="1.77769">
        <ele>228.45</ele>
        <time>2021-08-17T14:30:01Z</time>
      </trkpt>
      <trkpt lat="44.22894" lon="1.77757">
        <ele>229.89</ele>
        <time>2021-08-17T14:30:07Z</time>
      </trkpt>
      <trkpt lat="44.22873" lon="1.77751">
        <ele>228.45</ele>
        <time>2021-08-17T14:30:13Z</time>
      </trkpt>
      <trkpt lat="44.22871" lon="1.77752">
        <ele>228.45</ele>
        <time>2021-08-17T14:30:14Z</time>
      </trkpt>
      <trkpt lat="44.2286" lon="1.77758">
        <ele>226.05</ele>
        <time>2021-08-17T14:30:21Z</time>
      </trkpt>
      <trkpt lat="44.22848" lon="1.77762">
        <ele>225.57</ele>
        <time>2021-08-17T14:30:26Z</time>
      </trkpt>
      <trkpt lat="44.2284" lon="1.77758">
        <ele>225.09</ele>
        <time>2021-08-17T14:30:29Z</time>
      </trkpt>
      <trkpt lat="44.22838" lon="1.77755">
        <ele>225.09</ele>
        <time>2021-08-17T14:30:30Z</time>
      </trkpt>
      <trkpt lat="44.22836" lon="1.77751">
        <ele>225.57</ele>
        <time>2021-08-17T14:30:31Z</time>
      </trkpt>
      <trkpt lat="44.22834" lon="1.77747">
        <ele>225.57</ele>
        <time>2021-08-17T14:30:32Z</time>
      </trkpt>
      <trkpt lat="44.22832" lon="1.77743">
        <ele>226.53</ele>
        <time>2021-08-17T14:30:33Z</time>
      </trkpt>
      <trkpt lat="44.2283" lon="1.7774">
        <ele>227.01</ele>
        <time>2021-08-17T14:30:34Z</time>
      </trkpt>
      <trkpt lat="44.22827" lon="1.77739">
        <ele>227.01</ele>
        <time>2021-08-17T14:30:35Z</time>
      </trkpt>
      <trkpt lat="44.22825" lon="1.77738">
        <ele>227.97</ele>
        <time>2021-08-17T14:30:36Z</time>
      </trkpt>
      <trkpt lat="44.22816" lon="1.77729">
        <ele>229.41</ele>
        <time>2021-08-17T14:30:44Z</time>
      </trkpt>
      <trkpt lat="44.22811" lon="1.77719">
        <ele>230.85</ele>
        <time>2021-08-17T14:30:54Z</time>
      </trkpt>
      <trkpt lat="44.22804" lon="1.77712">
        <ele>231.81</ele>
        <time>2021-08-17T14:31:02Z</time>
      </trkpt>
      <trkpt lat="44.22798" lon="1.777">
        <ele>233.26</ele>
        <time>2021-08-17T14:31:13Z</time>
      </trkpt>
      <trkpt lat="44.22792" lon="1.77693">
        <ele>234.7</ele>
        <time>2021-08-17T14:31:20Z</time>
      </trkpt>
      <trkpt lat="44.22791" lon="1.77692">
        <ele>234.7</ele>
        <time>2021-08-17T14:31:21Z</time>
      </trkpt>
      <trkpt lat="44.22786" lon="1.77686">
        <ele>235.18</ele>
        <time>2021-08-17T14:31:29Z</time>
      </trkpt>
      <trkpt lat="44.22774" lon="1.77684">
        <ele>235.18</ele>
        <time>2021-08-17T14:31:36Z</time>
      </trkpt>
      <trkpt lat="44.22756" lon="1.77682">
        <ele>233.26</ele>
        <time>2021-08-17T14:31:42Z</time>
      </trkpt>
      <trkpt lat="44.22745" lon="1.77674">
        <ele>232.78</ele>
        <time>2021-08-17T14:31:45Z</time>
      </trkpt>
      <trkpt lat="44.22742" lon="1.7767">
        <ele>232.78</ele>
        <time>2021-08-17T14:31:46Z</time>
      </trkpt>
      <trkpt lat="44.22739" lon="1.77666">
        <ele>232.3</ele>
        <time>2021-08-17T14:31:47Z</time>
      </trkpt>
      <trkpt lat="44.22732" lon="1.77657">
        <ele>232.3</ele>
        <time>2021-08-17T14:31:49Z</time>
      </trkpt>
      <trkpt lat="44.22713" lon="1.77633">
        <ele>232.3</ele>
        <time>2021-08-17T14:31:56Z</time>
      </trkpt>
      <trkpt lat="44.22691" lon="1.77608">
        <ele>233.26</ele>
        <time>2021-08-17T14:32:04Z</time>
      </trkpt>
      <trkpt lat="44.22682" lon="1.77593">
        <ele>235.18</ele>
        <time>2021-08-17T14:32:10Z</time>
      </trkpt>
      <trkpt lat="44.2267" lon="1.77579">
        <ele>236.62</ele>
        <time>2021-08-17T14:32:18Z</time>
      </trkpt>
      <trkpt lat="44.22664" lon="1.77572">
        <ele>237.58</ele>
        <time>2021-08-17T14:32:27Z</time>
      </trkpt>
      <trkpt lat="44.22659" lon="1.77565">
        <ele>239.02</ele>
        <time>2021-08-17T14:32:36Z</time>
      </trkpt>
      <trkpt lat="44.22653" lon="1.77558">
        <ele>239.99</ele>
        <time>2021-08-17T14:32:45Z</time>
      </trkpt>
      <trkpt lat="44.2265" lon="1.77551">
        <ele>241.43</ele>
        <time>2021-08-17T14:32:52Z</time>
      </trkpt>
      <trkpt lat="44.22646" lon="1.77544">
        <ele>242.39</ele>
        <time>2021-08-17T14:33:00Z</time>
      </trkpt>
      <trkpt lat="44.22642" lon="1.77531">
        <ele>244.79</ele>
        <time>2021-08-17T14:33:11Z</time>
      </trkpt>
      <trkpt lat="44.2264" lon="1.77524">
        <ele>245.27</ele>
        <time>2021-08-17T14:33:20Z</time>
      </trkpt>
      <trkpt lat="44.22638" lon="1.7752">
        <ele>245.27</ele>
        <time>2021-08-17T14:33:23Z</time>
      </trkpt>
      <trkpt lat="44.22638" lon="1.77518">
        <ele>245.75</ele>
        <time>2021-08-17T14:33:24Z</time>
      </trkpt>
      <trkpt lat="44.22637" lon="1.77516">
        <ele>246.23</ele>
        <time>2021-08-17T14:33:25Z</time>
      </trkpt>
      <trkpt lat="44.22637" lon="1.77514">
        <ele>246.23</ele>
        <time>2021-08-17T14:33:26Z</time>
      </trkpt>
      <trkpt lat="44.22637" lon="1.77512">
        <ele>246.72</ele>
        <time>2021-08-17T14:33:27Z</time>
      </trkpt>
      <trkpt lat="44.22636" lon="1.775">
        <ele>248.16</ele>
        <time>2021-08-17T14:33:35Z</time>
      </trkpt>
      <trkpt lat="44.22632" lon="1.77488">
        <ele>249.12</ele>
        <time>2021-08-17T14:33:42Z</time>
      </trkpt>
      <trkpt lat="44.22627" lon="1.77475">
        <ele>249.6</ele>
        <time>2021-08-17T14:33:48Z</time>
      </trkpt>
      <trkpt lat="44.22615" lon="1.77455">
        <ele>251.04</ele>
        <time>2021-08-17T14:33:57Z</time>
      </trkpt>
      <trkpt lat="44.22613" lon="1.77447">
        <ele>251.52</ele>
        <time>2021-08-17T14:34:03Z</time>
      </trkpt>
      <trkpt lat="44.22611" lon="1.77441">
        <ele>252.48</ele>
        <time>2021-08-17T14:34:14Z</time>
      </trkpt>
      <trkpt lat="44.2261" lon="1.77435">
        <ele>253.93</ele>
        <time>2021-08-17T14:34:24Z</time>
      </trkpt>
      <trkpt lat="44.2261" lon="1.77428">
        <ele>255.37</ele>
        <time>2021-08-17T14:34:33Z</time>
      </trkpt>
      <trkpt lat="44.2261" lon="1.77419">
        <ele>257.29</ele>
        <time>2021-08-17T14:34:42Z</time>
      </trkpt>
      <trkpt lat="44.22609" lon="1.77412">
        <ele>258.73</ele>
        <time>2021-08-17T14:34:51Z</time>
      </trkpt>
      <trkpt lat="44.22609" lon="1.77404">
        <ele>260.17</ele>
        <time>2021-08-17T14:35:02Z</time>
      </trkpt>
      <trkpt lat="44.22605" lon="1.77393">
        <ele>261.14</ele>
        <time>2021-08-17T14:35:11Z</time>
      </trkpt>
      <trkpt lat="44.22602" lon="1.77383">
        <ele>262.58</ele>
        <time>2021-08-17T14:35:20Z</time>
      </trkpt>
      <trkpt lat="44.22599" lon="1.77375">
        <ele>264.02</ele>
        <time>2021-08-17T14:35:29Z</time>
      </trkpt>
      <trkpt lat="44.22599" lon="1.77365">
        <ele>266.42</ele>
        <time>2021-08-17T14:35:39Z</time>
      </trkpt>
      <trkpt lat="44.22598" lon="1.77357">
        <ele>266.9</ele>
        <time>2021-08-17T14:35:45Z</time>
      </trkpt>
      <trkpt lat="44.22599" lon="1.77355">
        <ele>267.38</ele>
        <time>2021-08-17T14:35:46Z</time>
      </trkpt>
      <trkpt lat="44.22598" lon="1.77349">
        <ele>268.35</ele>
        <time>2021-08-17T14:35:52Z</time>
      </trkpt>
      <trkpt lat="44.22596" lon="1.77343">
        <ele>269.31</ele>
        <time>2021-08-17T14:36:00Z</time>
      </trkpt>
      <trkpt lat="44.22595" lon="1.77339">
        <ele>270.27</ele>
        <time>2021-08-17T14:36:06Z</time>
      </trkpt>
      <trkpt lat="44.22595" lon="1.77333">
        <ele>271.71</ele>
        <time>2021-08-17T14:36:14Z</time>
      </trkpt>
      <trkpt lat="44.22594" lon="1.77329">
        <ele>271.71</ele>
        <time>2021-08-17T14:36:21Z</time>
      </trkpt>
      <trkpt lat="44.22594" lon="1.77328">
        <ele>271.71</ele>
        <time>2021-08-17T14:36:22Z</time>
      </trkpt>
      <trkpt lat="44.22593" lon="1.77326">
        <ele>271.71</ele>
        <time>2021-08-17T14:36:23Z</time>
      </trkpt>
      <trkpt lat="44.22593" lon="1.77324">
        <ele>271.71</ele>
        <time>2021-08-17T14:36:24Z</time>
      </trkpt>
      <trkpt lat="44.22592" lon="1.77322">
        <ele>271.71</ele>
        <time>2021-08-17T14:36:25Z</time>
      </trkpt>
      <trkpt lat="44.22591" lon="1.7732">
        <ele>271.71</ele>
        <time>2021-08-17T14:36:26Z</time>
      </trkpt>
      <trkpt lat="44.22591" lon="1.77318">
        <ele>271.71</ele>
        <time>2021-08-17T14:36:27Z</time>
      </trkpt>
      <trkpt lat="44.22584" lon="1.77301">
        <ele>271.71</ele>
        <time>2021-08-17T14:36:34Z</time>
      </trkpt>
      <trkpt lat="44.22578" lon="1.77279">
        <ele>270.27</ele>
        <time>2021-08-17T14:36:40Z</time>
      </trkpt>
      <trkpt lat="44.22575" lon="1.77257">
        <ele>270.27</ele>
        <time>2021-08-17T14:36:47Z</time>
      </trkpt>
      <trkpt lat="44.2257" lon="1.77225">
        <ele>269.79</ele>
        <time>2021-08-17T14:36:55Z</time>
      </trkpt>
      <trkpt lat="44.22569" lon="1.77197">
        <ele>269.79</ele>
        <time>2021-08-17T14:37:00Z</time>
      </trkpt>
      <trkpt lat="44.22567" lon="1.77162">
        <ele>271.23</ele>
        <time>2021-08-17T14:37:07Z</time>
      </trkpt>
      <trkpt lat="44.22563" lon="1.77136">
        <ele>271.71</ele>
        <time>2021-08-17T14:37:13Z</time>
      </trkpt>
      <trkpt lat="44.22558" lon="1.771">
        <ele>271.71</ele>
        <time>2021-08-17T14:37:20Z</time>
      </trkpt>
      <trkpt lat="44.22558" lon="1.77074">
        <ele>272.19</ele>
        <time>2021-08-17T14:37:27Z</time>
      </trkpt>
      <trkpt lat="44.22559" lon="1.77063">
        <ele>274.11</ele>
        <time>2021-08-17T14:37:33Z</time>
      </trkpt>
      <trkpt lat="44.22558" lon="1.77047">
        <ele>274.59</ele>
        <time>2021-08-17T14:37:41Z</time>
      </trkpt>
      <trkpt lat="44.2256" lon="1.77031">
        <ele>275.56</ele>
        <time>2021-08-17T14:37:49Z</time>
      </trkpt>
      <trkpt lat="44.22562" lon="1.7702">
        <ele>277.48</ele>
        <time>2021-08-17T14:37:56Z</time>
      </trkpt>
      <trkpt lat="44.22562" lon="1.76998">
        <ele>279.4</ele>
        <time>2021-08-17T14:38:05Z</time>
      </trkpt>
      <trkpt lat="44.22565" lon="1.76975">
        <ele>280.36</ele>
        <time>2021-08-17T14:38:14Z</time>
      </trkpt>
      <trkpt lat="44.22567" lon="1.76957">
        <ele>281.8</ele>
        <time>2021-08-17T14:38:23Z</time>
      </trkpt>
      <trkpt lat="44.22569" lon="1.76943">
        <ele>282.28</ele>
        <time>2021-08-17T14:38:28Z</time>
      </trkpt>
      <trkpt lat="44.2257" lon="1.76941">
        <ele>282.28</ele>
        <time>2021-08-17T14:38:29Z</time>
      </trkpt>
      <trkpt lat="44.22569" lon="1.76929">
        <ele>282.28</ele>
        <time>2021-08-17T14:38:32Z</time>
      </trkpt>
      <trkpt lat="44.22567" lon="1.76925">
        <ele>282.28</ele>
        <time>2021-08-17T14:38:33Z</time>
      </trkpt>
      <trkpt lat="44.22565" lon="1.76913">
        <ele>279.4</ele>
        <time>2021-08-17T14:38:35Z</time>
      </trkpt>
      <trkpt lat="44.22564" lon="1.76897">
        <ele>278.92</ele>
        <time>2021-08-17T14:38:37Z</time>
      </trkpt>
      <trkpt lat="44.22565" lon="1.76888">
        <ele>278.44</ele>
        <time>2021-08-17T14:38:38Z</time>
      </trkpt>
      <trkpt lat="44.22566" lon="1.76881">
        <ele>278.44</ele>
        <time>2021-08-17T14:38:39Z</time>
      </trkpt>
      <trkpt lat="44.22567" lon="1.76874">
        <ele>278.44</ele>
        <time>2021-08-17T14:38:40Z</time>
      </trkpt>
      <trkpt lat="44.22569" lon="1.76869">
        <ele>278.44</ele>
        <time>2021-08-17T14:38:41Z</time>
      </trkpt>
      <trkpt lat="44.2257" lon="1.76865">
        <ele>279.4</ele>
        <time>2021-08-17T14:38:42Z</time>
      </trkpt>
      <trkpt lat="44.22571" lon="1.76862">
        <ele>279.4</ele>
        <time>2021-08-17T14:38:43Z</time>
      </trkpt>
      <trkpt lat="44.22574" lon="1.76851">
        <ele>281.32</ele>
        <time>2021-08-17T14:38:49Z</time>
      </trkpt>
      <trkpt lat="44.22574" lon="1.76847">
        <ele>281.32</ele>
        <time>2021-08-17T14:38:51Z</time>
      </trkpt>
      <trkpt lat="44.22575" lon="1.76845">
        <ele>281.8</ele>
        <time>2021-08-17T14:38:52Z</time>
      </trkpt>
      <trkpt lat="44.22575" lon="1.76843">
        <ele>281.8</ele>
        <time>2021-08-17T14:38:53Z</time>
      </trkpt>
      <trkpt lat="44.22576" lon="1.76841">
        <ele>282.28</ele>
        <time>2021-08-17T14:38:54Z</time>
      </trkpt>
      <trkpt lat="44.2258" lon="1.76826">
        <ele>284.21</ele>
        <time>2021-08-17T14:39:02Z</time>
      </trkpt>
      <trkpt lat="44.2258" lon="1.76823">
        <ele>284.21</ele>
        <time>2021-08-17T14:39:03Z</time>
      </trkpt>
      <trkpt lat="44.22579" lon="1.76822">
        <ele>284.21</ele>
        <time>2021-08-17T14:39:04Z</time>
      </trkpt>
      <trkpt lat="44.22574" lon="1.76818">
        <ele>284.69</ele>
        <time>2021-08-17T14:39:08Z</time>
      </trkpt>
      <trkpt lat="44.22573" lon="1.76819">
        <ele>284.69</ele>
        <time>2021-08-17T14:39:09Z</time>
      </trkpt>
      <trkpt lat="44.22572" lon="1.76821">
        <ele>284.21</ele>
        <time>2021-08-17T14:39:10Z</time>
      </trkpt>
      <trkpt lat="44.22562" lon="1.76832">
        <ele>283.25</ele>
        <time>2021-08-17T14:39:14Z</time>
      </trkpt>
      <trkpt lat="44.22547" lon="1.76846">
        <ele>282.77</ele>
        <time>2021-08-17T14:39:20Z</time>
      </trkpt>
      <trkpt lat="44.22544" lon="1.76849">
        <ele>284.21</ele>
        <time>2021-08-17T14:39:22Z</time>
      </trkpt>
      <trkpt lat="44.22537" lon="1.76857">
        <ele>285.17</ele>
        <time>2021-08-17T14:39:27Z</time>
      </trkpt>
      <trkpt lat="44.22535" lon="1.76858">
        <ele>285.17</ele>
        <time>2021-08-17T14:39:28Z</time>
      </trkpt>
      <trkpt lat="44.22534" lon="1.76859">
        <ele>285.65</ele>
        <time>2021-08-17T14:39:29Z</time>
      </trkpt>
      <trkpt lat="44.22532" lon="1.7686">
        <ele>285.65</ele>
        <time>2021-08-17T14:39:30Z</time>
      </trkpt>
      <trkpt lat="44.22531" lon="1.76862">
        <ele>286.13</ele>
        <time>2021-08-17T14:39:31Z</time>
      </trkpt>
      <trkpt lat="44.22526" lon="1.76868">
        <ele>287.09</ele>
        <time>2021-08-17T14:39:37Z</time>
      </trkpt>
      <trkpt lat="44.2252" lon="1.76877">
        <ele>288.53</ele>
        <time>2021-08-17T14:39:45Z</time>
      </trkpt>
      <trkpt lat="44.2251" lon="1.76886">
        <ele>289.97</ele>
        <time>2021-08-17T14:39:53Z</time>
      </trkpt>
      <trkpt lat="44.22502" lon="1.76894">
        <ele>291.42</ele>
        <time>2021-08-17T14:40:00Z</time>
      </trkpt>
      <trkpt lat="44.22496" lon="1.769">
        <ele>291.9</ele>
        <time>2021-08-17T14:40:05Z</time>
      </trkpt>
      <trkpt lat="44.22482" lon="1.76911">
        <ele>292.38</ele>
        <time>2021-08-17T14:40:15Z</time>
      </trkpt>
      <trkpt lat="44.22473" lon="1.76924">
        <ele>293.82</ele>
        <time>2021-08-17T14:40:22Z</time>
      </trkpt>
      <trkpt lat="44.22469" lon="1.76933">
        <ele>294.3</ele>
        <time>2021-08-17T14:40:28Z</time>
      </trkpt>
      <trkpt lat="44.22461" lon="1.76941">
        <ele>295.26</ele>
        <time>2021-08-17T14:40:37Z</time>
      </trkpt>
      <trkpt lat="44.22456" lon="1.76947">
        <ele>296.7</ele>
        <time>2021-08-17T14:40:44Z</time>
      </trkpt>
      <trkpt lat="44.22453" lon="1.76951">
        <ele>297.18</ele>
        <time>2021-08-17T14:40:51Z</time>
      </trkpt>
      <trkpt lat="44.22446" lon="1.76958">
        <ele>299.11</ele>
        <time>2021-08-17T14:41:01Z</time>
      </trkpt>
      <trkpt lat="44.22439" lon="1.76965">
        <ele>300.07</ele>
        <time>2021-08-17T14:41:10Z</time>
      </trkpt>
      <trkpt lat="44.22436" lon="1.76966">
        <ele>300.55</ele>
        <time>2021-08-17T14:41:19Z</time>
      </trkpt>
      <trkpt lat="44.22434" lon="1.76966">
        <ele>300.55</ele>
        <time>2021-08-17T14:41:32Z</time>
      </trkpt>
      <trkpt lat="44.22434" lon="1.76967">
        <ele>300.55</ele>
        <time>2021-08-17T14:41:46Z</time>
      </trkpt>
      <trkpt lat="44.22434" lon="1.76968">
        <ele>300.55</ele>
        <time>2021-08-17T14:42:00Z</time>
      </trkpt>
      <trkpt lat="44.22431" lon="1.7697">
        <ele>300.55</ele>
        <time>2021-08-17T14:42:20Z</time>
      </trkpt>
      <trkpt lat="44.22431" lon="1.7697">
        <ele>300.55</ele>
        <time>2021-08-17T14:42:41Z</time>
      </trkpt>
      <trkpt lat="44.22429" lon="1.76973">
        <ele>300.55</ele>
        <time>2021-08-17T14:42:50Z</time>
      </trkpt>
      <trkpt lat="44.22427" lon="1.76974">
        <ele>301.03</ele>
        <time>2021-08-17T14:42:56Z</time>
      </trkpt>
      <trkpt lat="44.22425" lon="1.76977">
        <ele>301.51</ele>
        <time>2021-08-17T14:43:00Z</time>
      </trkpt>
      <trkpt lat="44.22416" lon="1.76984">
        <ele>303.43</ele>
        <time>2021-08-17T14:43:09Z</time>
      </trkpt>
      <trkpt lat="44.22409" lon="1.7699">
        <ele>304.88</ele>
        <time>2021-08-17T14:43:16Z</time>
      </trkpt>
      <trkpt lat="44.22398" lon="1.76997">
        <ele>305.84</ele>
        <time>2021-08-17T14:43:24Z</time>
      </trkpt>
      <trkpt lat="44.22388" lon="1.77001">
        <ele>306.8</ele>
        <time>2021-08-17T14:43:31Z</time>
      </trkpt>
      <trkpt lat="44.22379" lon="1.77005">
        <ele>307.76</ele>
        <time>2021-08-17T14:43:37Z</time>
      </trkpt>
      <trkpt lat="44.22375" lon="1.77007">
        <ele>307.76</ele>
        <time>2021-08-17T14:43:39Z</time>
      </trkpt>
      <trkpt lat="44.22373" lon="1.77008">
        <ele>307.76</ele>
        <time>2021-08-17T14:43:40Z</time>
      </trkpt>
      <trkpt lat="44.22371" lon="1.77009">
        <ele>307.76</ele>
        <time>2021-08-17T14:43:41Z</time>
      </trkpt>
      <trkpt lat="44.2237" lon="1.77009">
        <ele>308.72</ele>
        <time>2021-08-17T14:43:42Z</time>
      </trkpt>
      <trkpt lat="44.22369" lon="1.7701">
        <ele>308.72</ele>
        <time>2021-08-17T14:43:43Z</time>
      </trkpt>
      <trkpt lat="44.22367" lon="1.77011">
        <ele>308.72</ele>
        <time>2021-08-17T14:43:44Z</time>
      </trkpt>
      <trkpt lat="44.22365" lon="1.77012">
        <ele>308.72</ele>
        <time>2021-08-17T14:43:45Z</time>
      </trkpt>
      <trkpt lat="44.22364" lon="1.77012">
        <ele>308.72</ele>
        <time>2021-08-17T14:43:46Z</time>
      </trkpt>
      <trkpt lat="44.22362" lon="1.77013">
        <ele>308.72</ele>
        <time>2021-08-17T14:43:47Z</time>
      </trkpt>
      <trkpt lat="44.22361" lon="1.77014">
        <ele>309.68</ele>
        <time>2021-08-17T14:43:48Z</time>
      </trkpt>
      <trkpt lat="44.22359" lon="1.77014">
        <ele>309.68</ele>
        <time>2021-08-17T14:43:49Z</time>
      </trkpt>
      <trkpt lat="44.22358" lon="1.77015">
        <ele>309.68</ele>
        <time>2021-08-17T14:43:50Z</time>
      </trkpt>
      <trkpt lat="44.22356" lon="1.77015">
        <ele>310.16</ele>
        <time>2021-08-17T14:43:51Z</time>
      </trkpt>
      <trkpt lat="44.22354" lon="1.77016">
        <ele>310.16</ele>
        <time>2021-08-17T14:43:52Z</time>
      </trkpt>
      <trkpt lat="44.22343" lon="1.7702">
        <ele>311.12</ele>
        <time>2021-08-17T14:44:00Z</time>
      </trkpt>
      <trkpt lat="44.22335" lon="1.77022">
        <ele>312.09</ele>
        <time>2021-08-17T14:44:05Z</time>
      </trkpt>
      <trkpt lat="44.22334" lon="1.77022">
        <ele>312.09</ele>
        <time>2021-08-17T14:44:06Z</time>
      </trkpt>
      <trkpt lat="44.22332" lon="1.77023">
        <ele>312.09</ele>
        <time>2021-08-17T14:44:07Z</time>
      </trkpt>
      <trkpt lat="44.22318" lon="1.77031">
        <ele>313.05</ele>
        <time>2021-08-17T14:44:15Z</time>
      </trkpt>
      <trkpt lat="44.22307" lon="1.77039">
        <ele>313.53</ele>
        <time>2021-08-17T14:44:21Z</time>
      </trkpt>
      <trkpt lat="44.22295" lon="1.77052">
        <ele>314.01</ele>
        <time>2021-08-17T14:44:28Z</time>
      </trkpt>
      <trkpt lat="44.22279" lon="1.7707">
        <ele>314.49</ele>
        <time>2021-08-17T14:44:37Z</time>
      </trkpt>
      <trkpt lat="44.22267" lon="1.77085">
        <ele>314.97</ele>
        <time>2021-08-17T14:44:44Z</time>
      </trkpt>
      <trkpt lat="44.22253" lon="1.77096">
        <ele>315.93</ele>
        <time>2021-08-17T14:44:50Z</time>
      </trkpt>
      <trkpt lat="44.22239" lon="1.7711">
        <ele>316.41</ele>
        <time>2021-08-17T14:44:57Z</time>
      </trkpt>
      <trkpt lat="44.22224" lon="1.77132">
        <ele>316.41</ele>
        <time>2021-08-17T14:45:04Z</time>
      </trkpt>
      <trkpt lat="44.22207" lon="1.77156">
        <ele>316.41</ele>
        <time>2021-08-17T14:45:10Z</time>
      </trkpt>
      <trkpt lat="44.222" lon="1.77165">
        <ele>315.45</ele>
        <time>2021-08-17T14:45:12Z</time>
      </trkpt>
      <trkpt lat="44.22185" lon="1.77186">
        <ele>314.01</ele>
        <time>2021-08-17T14:45:16Z</time>
      </trkpt>
      <trkpt lat="44.22175" lon="1.77204">
        <ele>312.57</ele>
        <time>2021-08-17T14:45:19Z</time>
      </trkpt>
      <trkpt lat="44.22163" lon="1.77222">
        <ele>310.16</ele>
        <time>2021-08-17T14:45:22Z</time>
      </trkpt>
      <trkpt lat="44.22159" lon="1.77226">
        <ele>309.68</ele>
        <time>2021-08-17T14:45:23Z</time>
      </trkpt>
      <trkpt lat="44.22155" lon="1.7723">
        <ele>308.72</ele>
        <time>2021-08-17T14:45:24Z</time>
      </trkpt>
      <trkpt lat="44.22149" lon="1.77234">
        <ele>307.28</ele>
        <time>2021-08-17T14:45:25Z</time>
      </trkpt>
      <trkpt lat="44.22145" lon="1.77238">
        <ele>306.32</ele>
        <time>2021-08-17T14:45:26Z</time>
      </trkpt>
      <trkpt lat="44.22133" lon="1.77246">
        <ele>304.88</ele>
        <time>2021-08-17T14:45:28Z</time>
      </trkpt>
      <trkpt lat="44.22096" lon="1.77263">
        <ele>306.32</ele>
        <time>2021-08-17T14:45:34Z</time>
      </trkpt>
      <trkpt lat="44.22092" lon="1.77264">
        <ele>306.32</ele>
        <time>2021-08-17T14:45:35Z</time>
      </trkpt>
      <trkpt lat="44.22081" lon="1.77269">
        <ele>307.76</ele>
        <time>2021-08-17T14:45:38Z</time>
      </trkpt>
      <trkpt lat="44.22065" lon="1.77264">
        <ele>307.76</ele>
        <time>2021-08-17T14:45:43Z</time>
      </trkpt>
      <trkpt lat="44.2205" lon="1.77254">
        <ele>308.24</ele>
        <time>2021-08-17T14:45:48Z</time>
      </trkpt>
      <trkpt lat="44.22033" lon="1.77256">
        <ele>309.2</ele>
        <time>2021-08-17T14:45:54Z</time>
      </trkpt>
      <trkpt lat="44.22014" lon="1.77259">
        <ele>309.2</ele>
        <time>2021-08-17T14:46:01Z</time>
      </trkpt>
      <trkpt lat="44.22012" lon="1.77258">
        <ele>309.2</ele>
        <time>2021-08-17T14:46:02Z</time>
      </trkpt>
      <trkpt lat="44.2201" lon="1.77255">
        <ele>309.2</ele>
        <time>2021-08-17T14:46:03Z</time>
      </trkpt>
      <trkpt lat="44.22009" lon="1.77249">
        <ele>309.68</ele>
        <time>2021-08-17T14:46:05Z</time>
      </trkpt>
      <trkpt lat="44.22009" lon="1.77246">
        <ele>309.68</ele>
        <time>2021-08-17T14:46:06Z</time>
      </trkpt>
      <trkpt lat="44.22009" lon="1.77243">
        <ele>310.16</ele>
        <time>2021-08-17T14:46:07Z</time>
      </trkpt>
      <trkpt lat="44.22016" lon="1.77225">
        <ele>311.12</ele>
        <time>2021-08-17T14:46:13Z</time>
      </trkpt>
      <trkpt lat="44.22027" lon="1.77201">
        <ele>312.09</ele>
        <time>2021-08-17T14:46:21Z</time>
      </trkpt>
      <trkpt lat="44.22029" lon="1.77192">
        <ele>312.09</ele>
        <time>2021-08-17T14:46:24Z</time>
      </trkpt>
      <trkpt lat="44.22027" lon="1.77188">
        <ele>312.09</ele>
        <time>2021-08-17T14:46:25Z</time>
      </trkpt>
      <trkpt lat="44.22026" lon="1.77185">
        <ele>312.09</ele>
        <time>2021-08-17T14:46:26Z</time>
      </trkpt>
      <trkpt lat="44.22025" lon="1.77181">
        <ele>312.09</ele>
        <time>2021-08-17T14:46:27Z</time>
      </trkpt>
      <trkpt lat="44.22023" lon="1.77178">
        <ele>312.09</ele>
        <time>2021-08-17T14:46:28Z</time>
      </trkpt>
      <trkpt lat="44.22008" lon="1.77153">
        <ele>312.09</ele>
        <time>2021-08-17T14:46:34Z</time>
      </trkpt>
      <trkpt lat="44.22005" lon="1.7715">
        <ele>312.09</ele>
        <time>2021-08-17T14:46:35Z</time>
      </trkpt>
      <trkpt lat="44.22" lon="1.77146">
        <ele>312.09</ele>
        <time>2021-08-17T14:46:36Z</time>
      </trkpt>
      <trkpt lat="44.21996" lon="1.77144">
        <ele>312.09</ele>
        <time>2021-08-17T14:46:37Z</time>
      </trkpt>
      <trkpt lat="44.2199" lon="1.77142">
        <ele>310.64</ele>
        <time>2021-08-17T14:46:38Z</time>
      </trkpt>
      <trkpt lat="44.21985" lon="1.7714">
        <ele>310.16</ele>
        <time>2021-08-17T14:46:39Z</time>
      </trkpt>
      <trkpt lat="44.21958" lon="1.77124">
        <ele>310.16</ele>
        <time>2021-08-17T14:46:44Z</time>
      </trkpt>
      <trkpt lat="44.21954" lon="1.7712">
        <ele>310.16</ele>
        <time>2021-08-17T14:46:45Z</time>
      </trkpt>
      <trkpt lat="44.2195" lon="1.77113">
        <ele>310.16</ele>
        <time>2021-08-17T14:46:46Z</time>
      </trkpt>
      <trkpt lat="44.21925" lon="1.77069">
        <ele>311.6</ele>
        <time>2021-08-17T14:46:54Z</time>
      </trkpt>
      <trkpt lat="44.21909" lon="1.77045">
        <ele>313.53</ele>
        <time>2021-08-17T14:47:01Z</time>
      </trkpt>
      <trkpt lat="44.21897" lon="1.77025">
        <ele>314.49</ele>
        <time>2021-08-17T14:47:08Z</time>
      </trkpt>
      <trkpt lat="44.21883" lon="1.76999">
        <ele>316.89</ele>
        <time>2021-08-17T14:47:16Z</time>
      </trkpt>
      <trkpt lat="44.21869" lon="1.76969">
        <ele>318.33</ele>
        <time>2021-08-17T14:47:27Z</time>
      </trkpt>
      <trkpt lat="44.21861" lon="1.76949">
        <ele>318.81</ele>
        <time>2021-08-17T14:47:36Z</time>
      </trkpt>
      <trkpt lat="44.21847" lon="1.7692">
        <ele>320.74</ele>
        <time>2021-08-17T14:47:47Z</time>
      </trkpt>
      <trkpt lat="44.21835" lon="1.76904">
        <ele>321.7</ele>
        <time>2021-08-17T14:47:57Z</time>
      </trkpt>
      <trkpt lat="44.21835" lon="1.76904">
        <ele>322.18</ele>
        <time>2021-08-17T14:48:05Z</time>
      </trkpt>
      <trkpt lat="44.21833" lon="1.76904">
        <ele>322.18</ele>
        <time>2021-08-17T14:48:07Z</time>
      </trkpt>
      <trkpt lat="44.21831" lon="1.76903">
        <ele>322.18</ele>
        <time>2021-08-17T14:48:08Z</time>
      </trkpt>
      <trkpt lat="44.21811" lon="1.76893">
        <ele>323.62</ele>
        <time>2021-08-17T14:48:18Z</time>
      </trkpt>
      <trkpt lat="44.21796" lon="1.76886">
        <ele>324.58</ele>
        <time>2021-08-17T14:48:26Z</time>
      </trkpt>
      <trkpt lat="44.21778" lon="1.76881">
        <ele>326.5</ele>
        <time>2021-08-17T14:48:34Z</time>
      </trkpt>
      <trkpt lat="44.21754" lon="1.76878">
        <ele>327.95</ele>
        <time>2021-08-17T14:48:44Z</time>
      </trkpt>
      <trkpt lat="44.21733" lon="1.76874">
        <ele>328.43</ele>
        <time>2021-08-17T14:48:51Z</time>
      </trkpt>
      <trkpt lat="44.21709" lon="1.76867">
        <ele>328.43</ele>
        <time>2021-08-17T14:48:58Z</time>
      </trkpt>
      <trkpt lat="44.21696" lon="1.76858">
        <ele>328.43</ele>
        <time>2021-08-17T14:49:04Z</time>
      </trkpt>
      <trkpt lat="44.21679" lon="1.76843">
        <ele>328.43</ele>
        <time>2021-08-17T14:49:11Z</time>
      </trkpt>
      <trkpt lat="44.21661" lon="1.76831">
        <ele>326.5</ele>
        <time>2021-08-17T14:49:17Z</time>
      </trkpt>
      <trkpt lat="44.21646" lon="1.76815">
        <ele>326.5</ele>
        <time>2021-08-17T14:49:22Z</time>
      </trkpt>
      <trkpt lat="44.21616" lon="1.76784">
        <ele>325.06</ele>
        <time>2021-08-17T14:49:29Z</time>
      </trkpt>
      <trkpt lat="44.21597" lon="1.76764">
        <ele>324.1</ele>
        <time>2021-08-17T14:49:33Z</time>
      </trkpt>
      <trkpt lat="44.21593" lon="1.76758">
        <ele>323.62</ele>
        <time>2021-08-17T14:49:34Z</time>
      </trkpt>
      <trkpt lat="44.21561" lon="1.76702">
        <ele>320.74</ele>
        <time>2021-08-17T14:49:42Z</time>
      </trkpt>
      <trkpt lat="44.21532" lon="1.76648">
        <ele>318.33</ele>
        <time>2021-08-17T14:49:49Z</time>
      </trkpt>
      <trkpt lat="44.21507" lon="1.766">
        <ele>316.89</ele>
        <time>2021-08-17T14:49:55Z</time>
      </trkpt>
      <trkpt lat="44.21493" lon="1.76564">
        <ele>314.97</ele>
        <time>2021-08-17T14:49:59Z</time>
      </trkpt>
      <trkpt lat="44.21489" lon="1.76556">
        <ele>314.49</ele>
        <time>2021-08-17T14:50:00Z</time>
      </trkpt>
      <trkpt lat="44.21485" lon="1.76548">
        <ele>314.01</ele>
        <time>2021-08-17T14:50:01Z</time>
      </trkpt>
      <trkpt lat="44.21483" lon="1.7654">
        <ele>314.01</ele>
        <time>2021-08-17T14:50:02Z</time>
      </trkpt>
      <trkpt lat="44.21481" lon="1.76531">
        <ele>313.05</ele>
        <time>2021-08-17T14:50:03Z</time>
      </trkpt>
      <trkpt lat="44.21481" lon="1.76522">
        <ele>313.05</ele>
        <time>2021-08-17T14:50:04Z</time>
      </trkpt>
      <trkpt lat="44.21479" lon="1.76513">
        <ele>312.09</ele>
        <time>2021-08-17T14:50:05Z</time>
      </trkpt>
      <trkpt lat="44.21476" lon="1.76504">
        <ele>311.12</ele>
        <time>2021-08-17T14:50:06Z</time>
      </trkpt>
      <trkpt lat="44.21473" lon="1.76496">
        <ele>311.6</ele>
        <time>2021-08-17T14:50:07Z</time>
      </trkpt>
      <trkpt lat="44.21471" lon="1.76487">
        <ele>311.12</ele>
        <time>2021-08-17T14:50:08Z</time>
      </trkpt>
      <trkpt lat="44.2147" lon="1.76478">
        <ele>311.12</ele>
        <time>2021-08-17T14:50:09Z</time>
      </trkpt>
      <trkpt lat="44.2147" lon="1.7647">
        <ele>311.12</ele>
        <time>2021-08-17T14:50:10Z</time>
      </trkpt>
      <trkpt lat="44.21469" lon="1.76462">
        <ele>311.12</ele>
        <time>2021-08-17T14:50:11Z</time>
      </trkpt>
      <trkpt lat="44.21469" lon="1.76455">
        <ele>311.6</ele>
        <time>2021-08-17T14:50:12Z</time>
      </trkpt>
      <trkpt lat="44.21468" lon="1.76436">
        <ele>314.01</ele>
        <time>2021-08-17T14:50:17Z</time>
      </trkpt>
      <trkpt lat="44.21463" lon="1.76412">
        <ele>314.49</ele>
        <time>2021-08-17T14:50:25Z</time>
      </trkpt>
      <trkpt lat="44.21456" lon="1.7638">
        <ele>315.45</ele>
        <time>2021-08-17T14:50:34Z</time>
      </trkpt>
      <trkpt lat="44.21447" lon="1.76337">
        <ele>315.93</ele>
        <time>2021-08-17T14:50:43Z</time>
      </trkpt>
      <trkpt lat="44.21442" lon="1.76319">
        <ele>315.93</ele>
        <time>2021-08-17T14:50:46Z</time>
      </trkpt>
      <trkpt lat="44.21436" lon="1.76299">
        <ele>314.97</ele>
        <time>2021-08-17T14:50:49Z</time>
      </trkpt>
      <trkpt lat="44.21434" lon="1.76292">
        <ele>314.97</ele>
        <time>2021-08-17T14:50:50Z</time>
      </trkpt>
      <trkpt lat="44.21424" lon="1.76227">
        <ele>314.01</ele>
        <time>2021-08-17T14:50:58Z</time>
      </trkpt>
      <trkpt lat="44.21414" lon="1.76138">
        <ele>311.6</ele>
        <time>2021-08-17T14:51:08Z</time>
      </trkpt>
      <trkpt lat="44.21415" lon="1.76128">
        <ele>311.6</ele>
        <time>2021-08-17T14:51:09Z</time>
      </trkpt>
      <trkpt lat="44.21424" lon="1.76051">
        <ele>309.2</ele>
        <time>2021-08-17T14:51:18Z</time>
      </trkpt>
      <trkpt lat="44.21424" lon="1.76043">
        <ele>309.2</ele>
        <time>2021-08-17T14:51:19Z</time>
      </trkpt>
      <trkpt lat="44.21419" lon="1.75996">
        <ele>306.8</ele>
        <time>2021-08-17T14:51:24Z</time>
      </trkpt>
      <trkpt lat="44.21417" lon="1.75986">
        <ele>305.84</ele>
        <time>2021-08-17T14:51:25Z</time>
      </trkpt>
      <trkpt lat="44.21411" lon="1.75967">
        <ele>304.88</ele>
        <time>2021-08-17T14:51:27Z</time>
      </trkpt>
      <trkpt lat="44.21409" lon="1.75958">
        <ele>303.91</ele>
        <time>2021-08-17T14:51:28Z</time>
      </trkpt>
      <trkpt lat="44.21409" lon="1.75949">
        <ele>303.43</ele>
        <time>2021-08-17T14:51:29Z</time>
      </trkpt>
      <trkpt lat="44.21409" lon="1.75939">
        <ele>303.43</ele>
        <time>2021-08-17T14:51:30Z</time>
      </trkpt>
      <trkpt lat="44.21414" lon="1.75896">
        <ele>301.99</ele>
        <time>2021-08-17T14:51:35Z</time>
      </trkpt>
      <trkpt lat="44.21413" lon="1.75889">
        <ele>301.51</ele>
        <time>2021-08-17T14:51:36Z</time>
      </trkpt>
      <trkpt lat="44.2141" lon="1.75883">
        <ele>301.51</ele>
        <time>2021-08-17T14:51:37Z</time>
      </trkpt>
      <trkpt lat="44.21406" lon="1.7588">
        <ele>301.51</ele>
        <time>2021-08-17T14:51:38Z</time>
      </trkpt>
      <trkpt lat="44.21403" lon="1.75878">
        <ele>301.51</ele>
        <time>2021-08-17T14:51:39Z</time>
      </trkpt>
      <trkpt lat="44.214" lon="1.75877">
        <ele>301.51</ele>
        <time>2021-08-17T14:51:40Z</time>
      </trkpt>
      <trkpt lat="44.21396" lon="1.75875">
        <ele>301.51</ele>
        <time>2021-08-17T14:51:41Z</time>
      </trkpt>
      <trkpt lat="44.21393" lon="1.75873">
        <ele>301.51</ele>
        <time>2021-08-17T14:51:42Z</time>
      </trkpt>
      <trkpt lat="44.21389" lon="1.75871">
        <ele>301.51</ele>
        <time>2021-08-17T14:51:43Z</time>
      </trkpt>
      <trkpt lat="44.21384" lon="1.75869">
        <ele>301.51</ele>
        <time>2021-08-17T14:51:44Z</time>
      </trkpt>
      <trkpt lat="44.21344" lon="1.7586">
        <ele>302.95</ele>
        <time>2021-08-17T14:51:52Z</time>
      </trkpt>
      <trkpt lat="44.21339" lon="1.7586">
        <ele>302.95</ele>
        <time>2021-08-17T14:51:53Z</time>
      </trkpt>
      <trkpt lat="44.21301" lon="1.75857">
        <ele>304.39</ele>
        <time>2021-08-17T14:52:02Z</time>
      </trkpt>
      <trkpt lat="44.21268" lon="1.75859">
        <ele>305.36</ele>
        <time>2021-08-17T14:52:11Z</time>
      </trkpt>
      <trkpt lat="44.21245" lon="1.75863">
        <ele>305.84</ele>
        <time>2021-08-17T14:52:18Z</time>
      </trkpt>
      <trkpt lat="44.21206" lon="1.75869">
        <ele>307.28</ele>
        <time>2021-08-17T14:52:29Z</time>
      </trkpt>
      <trkpt lat="44.21164" lon="1.7587">
        <ele>307.76</ele>
        <time>2021-08-17T14:52:40Z</time>
      </trkpt>
      <trkpt lat="44.21132" lon="1.75856">
        <ele>308.24</ele>
        <time>2021-08-17T14:52:49Z</time>
      </trkpt>
      <trkpt lat="44.21097" lon="1.75837">
        <ele>309.2</ele>
        <time>2021-08-17T14:52:59Z</time>
      </trkpt>
      <trkpt lat="44.21072" lon="1.75817">
        <ele>310.16</ele>
        <time>2021-08-17T14:53:07Z</time>
      </trkpt>
      <trkpt lat="44.2105" lon="1.75782">
        <ele>310.16</ele>
        <time>2021-08-17T14:53:15Z</time>
      </trkpt>
      <trkpt lat="44.21036" lon="1.7576">
        <ele>308.24</ele>
        <time>2021-08-17T14:53:19Z</time>
      </trkpt>
      <trkpt lat="44.20999" lon="1.75729">
        <ele>306.32</ele>
        <time>2021-08-17T14:53:26Z</time>
      </trkpt>
      <trkpt lat="44.20954" lon="1.75695">
        <ele>304.88</ele>
        <time>2021-08-17T14:53:34Z</time>
      </trkpt>
      <trkpt lat="44.20949" lon="1.75691">
        <ele>304.88</ele>
        <time>2021-08-17T14:53:35Z</time>
      </trkpt>
      <trkpt lat="44.20944" lon="1.75687">
        <ele>304.88</ele>
        <time>2021-08-17T14:53:36Z</time>
      </trkpt>
      <trkpt lat="44.2094" lon="1.75683">
        <ele>304.88</ele>
        <time>2021-08-17T14:53:37Z</time>
      </trkpt>
      <trkpt lat="44.20931" lon="1.75676">
        <ele>304.88</ele>
        <time>2021-08-17T14:53:39Z</time>
      </trkpt>
      <trkpt lat="44.20922" lon="1.75671">
        <ele>304.88</ele>
        <time>2021-08-17T14:53:41Z</time>
      </trkpt>
      <trkpt lat="44.20919" lon="1.75668">
        <ele>304.88</ele>
        <time>2021-08-17T14:53:42Z</time>
      </trkpt>
      <trkpt lat="44.20899" lon="1.75655">
        <ele>304.88</ele>
        <time>2021-08-17T14:53:47Z</time>
      </trkpt>
      <trkpt lat="44.20855" lon="1.75629">
        <ele>304.88</ele>
        <time>2021-08-17T14:53:56Z</time>
      </trkpt>
      <trkpt lat="44.20812" lon="1.75625">
        <ele>304.88</ele>
        <time>2021-08-17T14:54:04Z</time>
      </trkpt>
      <trkpt lat="44.20787" lon="1.75631">
        <ele>305.84</ele>
        <time>2021-08-17T14:54:09Z</time>
      </trkpt>
      <trkpt lat="44.20756" lon="1.7563">
        <ele>308.24</ele>
        <time>2021-08-17T14:54:17Z</time>
      </trkpt>
      <trkpt lat="44.20726" lon="1.75629">
        <ele>309.2</ele>
        <time>2021-08-17T14:54:27Z</time>
      </trkpt>
      <trkpt lat="44.20704" lon="1.75619">
        <ele>310.64</ele>
        <time>2021-08-17T14:54:35Z</time>
      </trkpt>
      <trkpt lat="44.20675" lon="1.75607">
        <ele>311.6</ele>
        <time>2021-08-17T14:54:45Z</time>
      </trkpt>
      <trkpt lat="44.20648" lon="1.75598">
        <ele>313.05</ele>
        <time>2021-08-17T14:54:54Z</time>
      </trkpt>
      <trkpt lat="44.20612" lon="1.75583">
        <ele>314.49</ele>
        <time>2021-08-17T14:55:06Z</time>
      </trkpt>
      <trkpt lat="44.20585" lon="1.75573">
        <ele>315.45</ele>
        <time>2021-08-17T14:55:15Z</time>
      </trkpt>
      <trkpt lat="44.20553" lon="1.75561">
        <ele>315.45</ele>
        <time>2021-08-17T14:55:23Z</time>
      </trkpt>
      <trkpt lat="44.20534" lon="1.75549">
        <ele>314.01</ele>
        <time>2021-08-17T14:55:27Z</time>
      </trkpt>
      <trkpt lat="44.2053" lon="1.75546">
        <ele>314.01</ele>
        <time>2021-08-17T14:55:28Z</time>
      </trkpt>
      <trkpt lat="44.20483" lon="1.75507">
        <ele>311.6</ele>
        <time>2021-08-17T14:55:38Z</time>
      </trkpt>
      <trkpt lat="44.20454" lon="1.75487">
        <ele>311.12</ele>
        <time>2021-08-17T14:55:44Z</time>
      </trkpt>
      <trkpt lat="44.20413" lon="1.75457">
        <ele>309.68</ele>
        <time>2021-08-17T14:55:52Z</time>
      </trkpt>
      <trkpt lat="44.20375" lon="1.75439">
        <ele>309.2</ele>
        <time>2021-08-17T14:56:00Z</time>
      </trkpt>
      <trkpt lat="44.20343" lon="1.75422">
        <ele>309.2</ele>
        <time>2021-08-17T14:56:08Z</time>
      </trkpt>
      <trkpt lat="44.20306" lon="1.75404">
        <ele>309.2</ele>
        <time>2021-08-17T14:56:15Z</time>
      </trkpt>
      <trkpt lat="44.20291" lon="1.75396">
        <ele>309.2</ele>
        <time>2021-08-17T14:56:18Z</time>
      </trkpt>
      <trkpt lat="44.20286" lon="1.75394">
        <ele>309.2</ele>
        <time>2021-08-17T14:56:19Z</time>
      </trkpt>
      <trkpt lat="44.20242" lon="1.75369">
        <ele>309.2</ele>
        <time>2021-08-17T14:56:28Z</time>
      </trkpt>
      <trkpt lat="44.20231" lon="1.75364">
        <ele>309.2</ele>
        <time>2021-08-17T14:56:30Z</time>
      </trkpt>
      <trkpt lat="44.20198" lon="1.75347">
        <ele>308.72</ele>
        <time>2021-08-17T14:56:36Z</time>
      </trkpt>
      <trkpt lat="44.20192" lon="1.75345">
        <ele>308.72</ele>
        <time>2021-08-17T14:56:37Z</time>
      </trkpt>
      <trkpt lat="44.20147" lon="1.75328">
        <ele>308.72</ele>
        <time>2021-08-17T14:56:45Z</time>
      </trkpt>
      <trkpt lat="44.2011" lon="1.75312">
        <ele>308.72</ele>
        <time>2021-08-17T14:56:52Z</time>
      </trkpt>
      <trkpt lat="44.20073" lon="1.75293">
        <ele>308.72</ele>
        <time>2021-08-17T14:56:59Z</time>
      </trkpt>
      <trkpt lat="44.20029" lon="1.75274">
        <ele>306.8</ele>
        <time>2021-08-17T14:57:06Z</time>
      </trkpt>
      <trkpt lat="44.19983" lon="1.75261">
        <ele>304.39</ele>
        <time>2021-08-17T14:57:12Z</time>
      </trkpt>
      <trkpt lat="44.19974" lon="1.75258">
        <ele>303.43</ele>
        <time>2021-08-17T14:57:13Z</time>
      </trkpt>
      <trkpt lat="44.19966" lon="1.75255">
        <ele>302.95</ele>
        <time>2021-08-17T14:57:14Z</time>
      </trkpt>
      <trkpt lat="44.19951" lon="1.75248">
        <ele>301.51</ele>
        <time>2021-08-17T14:57:16Z</time>
      </trkpt>
      <trkpt lat="44.19942" lon="1.75246">
        <ele>300.55</ele>
        <time>2021-08-17T14:57:17Z</time>
      </trkpt>
      <trkpt lat="44.19934" lon="1.75246">
        <ele>300.55</ele>
        <time>2021-08-17T14:57:18Z</time>
      </trkpt>
      <trkpt lat="44.19875" lon="1.75254">
        <ele>298.63</ele>
        <time>2021-08-17T14:57:25Z</time>
      </trkpt>
      <trkpt lat="44.19844" lon="1.75257">
        <ele>300.07</ele>
        <time>2021-08-17T14:57:30Z</time>
      </trkpt>
      <trkpt lat="44.19815" lon="1.75259">
        <ele>302.95</ele>
        <time>2021-08-17T14:57:37Z</time>
      </trkpt>
      <trkpt lat="44.19793" lon="1.7526">
        <ele>304.39</ele>
        <time>2021-08-17T14:57:45Z</time>
      </trkpt>
      <trkpt lat="44.19768" lon="1.7526">
        <ele>305.84</ele>
        <time>2021-08-17T14:57:54Z</time>
      </trkpt>
      <trkpt lat="44.19744" lon="1.75259">
        <ele>306.8</ele>
        <time>2021-08-17T14:58:03Z</time>
      </trkpt>
      <trkpt lat="44.19718" lon="1.75261">
        <ele>307.76</ele>
        <time>2021-08-17T14:58:13Z</time>
      </trkpt>
      <trkpt lat="44.19694" lon="1.75262">
        <ele>308.72</ele>
        <time>2021-08-17T14:58:22Z</time>
      </trkpt>
      <trkpt lat="44.19665" lon="1.75264">
        <ele>310.16</ele>
        <time>2021-08-17T14:58:32Z</time>
      </trkpt>
      <trkpt lat="44.19628" lon="1.75265">
        <ele>310.16</ele>
        <time>2021-08-17T14:58:43Z</time>
      </trkpt>
      <trkpt lat="44.19617" lon="1.75261">
        <ele>310.16</ele>
        <time>2021-08-17T14:58:46Z</time>
      </trkpt>
      <trkpt lat="44.19615" lon="1.75258">
        <ele>310.16</ele>
        <time>2021-08-17T14:58:47Z</time>
      </trkpt>
      <trkpt lat="44.19613" lon="1.75254">
        <ele>310.16</ele>
        <time>2021-08-17T14:58:48Z</time>
      </trkpt>
      <trkpt lat="44.19612" lon="1.7525">
        <ele>310.16</ele>
        <time>2021-08-17T14:58:49Z</time>
      </trkpt>
      <trkpt lat="44.19612" lon="1.75246">
        <ele>310.16</ele>
        <time>2021-08-17T14:58:50Z</time>
      </trkpt>
      <trkpt lat="44.19611" lon="1.75242">
        <ele>310.16</ele>
        <time>2021-08-17T14:58:51Z</time>
      </trkpt>
      <trkpt lat="44.19606" lon="1.75223">
        <ele>310.16</ele>
        <time>2021-08-17T14:58:55Z</time>
      </trkpt>
      <trkpt lat="44.19604" lon="1.75218">
        <ele>310.16</ele>
        <time>2021-08-17T14:58:56Z</time>
      </trkpt>
      <trkpt lat="44.19601" lon="1.75213">
        <ele>310.16</ele>
        <time>2021-08-17T14:58:57Z</time>
      </trkpt>
      <trkpt lat="44.19597" lon="1.7521">
        <ele>310.16</ele>
        <time>2021-08-17T14:58:58Z</time>
      </trkpt>
      <trkpt lat="44.19593" lon="1.75207">
        <ele>310.16</ele>
        <time>2021-08-17T14:58:59Z</time>
      </trkpt>
      <trkpt lat="44.19589" lon="1.75204">
        <ele>310.16</ele>
        <time>2021-08-17T14:59:00Z</time>
      </trkpt>
      <trkpt lat="44.19585" lon="1.75201">
        <ele>308.72</ele>
        <time>2021-08-17T14:59:01Z</time>
      </trkpt>
      <trkpt lat="44.19581" lon="1.75198">
        <ele>308.72</ele>
        <time>2021-08-17T14:59:02Z</time>
      </trkpt>
      <trkpt lat="44.19577" lon="1.75194">
        <ele>308.24</ele>
        <time>2021-08-17T14:59:03Z</time>
      </trkpt>
      <trkpt lat="44.1957" lon="1.75184">
        <ele>308.24</ele>
        <time>2021-08-17T14:59:05Z</time>
      </trkpt>
      <trkpt lat="44.19568" lon="1.75179">
        <ele>308.24</ele>
        <time>2021-08-17T14:59:06Z</time>
      </trkpt>
      <trkpt lat="44.19566" lon="1.75173">
        <ele>307.28</ele>
        <time>2021-08-17T14:59:07Z</time>
      </trkpt>
      <trkpt lat="44.19564" lon="1.75167">
        <ele>307.28</ele>
        <time>2021-08-17T14:59:08Z</time>
      </trkpt>
      <trkpt lat="44.19563" lon="1.7516">
        <ele>306.8</ele>
        <time>2021-08-17T14:59:09Z</time>
      </trkpt>
      <trkpt lat="44.19561" lon="1.75138">
        <ele>304.88</ele>
        <time>2021-08-17T14:59:12Z</time>
      </trkpt>
      <trkpt lat="44.19559" lon="1.75132">
        <ele>304.39</ele>
        <time>2021-08-17T14:59:13Z</time>
      </trkpt>
      <trkpt lat="44.19556" lon="1.75126">
        <ele>303.91</ele>
        <time>2021-08-17T14:59:14Z</time>
      </trkpt>
      <trkpt lat="44.19549" lon="1.75114">
        <ele>303.43</ele>
        <time>2021-08-17T14:59:16Z</time>
      </trkpt>
      <trkpt lat="44.19546" lon="1.75108">
        <ele>302.47</ele>
        <time>2021-08-17T14:59:17Z</time>
      </trkpt>
      <trkpt lat="44.19543" lon="1.75101">
        <ele>301.99</ele>
        <time>2021-08-17T14:59:18Z</time>
      </trkpt>
      <trkpt lat="44.19541" lon="1.75093">
        <ele>301.51</ele>
        <time>2021-08-17T14:59:19Z</time>
      </trkpt>
      <trkpt lat="44.1954" lon="1.75085">
        <ele>301.51</ele>
        <time>2021-08-17T14:59:20Z</time>
      </trkpt>
      <trkpt lat="44.19536" lon="1.75061">
        <ele>299.59</ele>
        <time>2021-08-17T14:59:23Z</time>
      </trkpt>
      <trkpt lat="44.19532" lon="1.75035">
        <ele>297.67</ele>
        <time>2021-08-17T14:59:27Z</time>
      </trkpt>
      <trkpt lat="44.19529" lon="1.75025">
        <ele>296.7</ele>
        <time>2021-08-17T14:59:29Z</time>
      </trkpt>
      <trkpt lat="44.19525" lon="1.75003">
        <ele>294.3</ele>
        <time>2021-08-17T14:59:33Z</time>
      </trkpt>
      <trkpt lat="44.19518" lon="1.74983">
        <ele>291.42</ele>
        <time>2021-08-17T14:59:37Z</time>
      </trkpt>
      <trkpt lat="44.19515" lon="1.74979">
        <ele>290.46</ele>
        <time>2021-08-17T14:59:38Z</time>
      </trkpt>
      <trkpt lat="44.19509" lon="1.7497">
        <ele>289.49</ele>
        <time>2021-08-17T14:59:40Z</time>
      </trkpt>
      <trkpt lat="44.19501" lon="1.74949">
        <ele>285.65</ele>
        <time>2021-08-17T14:59:44Z</time>
      </trkpt>
      <trkpt lat="44.19495" lon="1.7493">
        <ele>282.28</ele>
        <time>2021-08-17T14:59:47Z</time>
      </trkpt>
      <trkpt lat="44.19492" lon="1.74915">
        <ele>280.84</ele>
        <time>2021-08-17T14:59:50Z</time>
      </trkpt>
      <trkpt lat="44.19488" lon="1.7489">
        <ele>277.96</ele>
        <time>2021-08-17T14:59:55Z</time>
      </trkpt>
      <trkpt lat="44.19487" lon="1.74884">
        <ele>277.48</ele>
        <time>2021-08-17T14:59:57Z</time>
      </trkpt>
      <trkpt lat="44.19488" lon="1.74881">
        <ele>277</ele>
        <time>2021-08-17T14:59:58Z</time>
      </trkpt>
      <trkpt lat="44.19488" lon="1.74879">
        <ele>276.52</ele>
        <time>2021-08-17T14:59:59Z</time>
      </trkpt>
      <trkpt lat="44.19487" lon="1.74876">
        <ele>276.04</ele>
        <time>2021-08-17T15:00:00Z</time>
      </trkpt>
      <trkpt lat="44.19487" lon="1.74874">
        <ele>275.56</ele>
        <time>2021-08-17T15:00:01Z</time>
      </trkpt>
      <trkpt lat="44.19487" lon="1.74871">
        <ele>275.07</ele>
        <time>2021-08-17T15:00:02Z</time>
      </trkpt>
      <trkpt lat="44.19484" lon="1.74858">
        <ele>272.67</ele>
        <time>2021-08-17T15:00:07Z</time>
      </trkpt>
      <trkpt lat="44.19484" lon="1.74854">
        <ele>272.67</ele>
        <time>2021-08-17T15:00:09Z</time>
      </trkpt>
      <trkpt lat="44.19484" lon="1.74851">
        <ele>272.19</ele>
        <time>2021-08-17T15:00:10Z</time>
      </trkpt>
      <trkpt lat="44.19484" lon="1.74848">
        <ele>271.71</ele>
        <time>2021-08-17T15:00:11Z</time>
      </trkpt>
      <trkpt lat="44.19484" lon="1.74845">
        <ele>271.23</ele>
        <time>2021-08-17T15:00:12Z</time>
      </trkpt>
      <trkpt lat="44.19483" lon="1.74841">
        <ele>270.27</ele>
        <time>2021-08-17T15:00:13Z</time>
      </trkpt>
      <trkpt lat="44.19483" lon="1.74838">
        <ele>270.27</ele>
        <time>2021-08-17T15:00:14Z</time>
      </trkpt>
      <trkpt lat="44.19482" lon="1.74833">
        <ele>268.83</ele>
        <time>2021-08-17T15:00:16Z</time>
      </trkpt>
      <trkpt lat="44.19481" lon="1.74831">
        <ele>268.83</ele>
        <time>2021-08-17T15:00:17Z</time>
      </trkpt>
      <trkpt lat="44.19477" lon="1.74812">
        <ele>265.46</ele>
        <time>2021-08-17T15:00:23Z</time>
      </trkpt>
      <trkpt lat="44.19475" lon="1.74803">
        <ele>264.5</ele>
        <time>2021-08-17T15:00:26Z</time>
      </trkpt>
      <trkpt lat="44.19473" lon="1.74794">
        <ele>263.06</ele>
        <time>2021-08-17T15:00:30Z</time>
      </trkpt>
      <trkpt lat="44.19472" lon="1.74792">
        <ele>262.1</ele>
        <time>2021-08-17T15:00:31Z</time>
      </trkpt>
      <trkpt lat="44.19472" lon="1.7479">
        <ele>262.1</ele>
        <time>2021-08-17T15:00:32Z</time>
      </trkpt>
      <trkpt lat="44.19471" lon="1.74787">
        <ele>261.62</ele>
        <time>2021-08-17T15:00:33Z</time>
      </trkpt>
      <trkpt lat="44.19471" lon="1.74784">
        <ele>261.14</ele>
        <time>2021-08-17T15:00:34Z</time>
      </trkpt>
      <trkpt lat="44.19471" lon="1.74781">
        <ele>260.65</ele>
        <time>2021-08-17T15:00:35Z</time>
      </trkpt>
      <trkpt lat="44.1947" lon="1.74778">
        <ele>259.69</ele>
        <time>2021-08-17T15:00:36Z</time>
      </trkpt>
      <trkpt lat="44.1947" lon="1.74774">
        <ele>259.21</ele>
        <time>2021-08-17T15:00:37Z</time>
      </trkpt>
      <trkpt lat="44.1947" lon="1.74771">
        <ele>259.21</ele>
        <time>2021-08-17T15:00:38Z</time>
      </trkpt>
      <trkpt lat="44.19469" lon="1.74768">
        <ele>258.25</ele>
        <time>2021-08-17T15:00:39Z</time>
      </trkpt>
      <trkpt lat="44.19469" lon="1.74764">
        <ele>258.25</ele>
        <time>2021-08-17T15:00:40Z</time>
      </trkpt>
      <trkpt lat="44.19469" lon="1.74761">
        <ele>257.77</ele>
        <time>2021-08-17T15:00:41Z</time>
      </trkpt>
      <trkpt lat="44.19469" lon="1.74754">
        <ele>257.29</ele>
        <time>2021-08-17T15:00:44Z</time>
      </trkpt>
      <trkpt lat="44.19469" lon="1.74752">
        <ele>256.33</ele>
        <time>2021-08-17T15:00:45Z</time>
      </trkpt>
      <trkpt lat="44.19469" lon="1.74748">
        <ele>255.85</ele>
        <time>2021-08-17T15:00:46Z</time>
      </trkpt>
      <trkpt lat="44.19469" lon="1.74744">
        <ele>255.85</ele>
        <time>2021-08-17T15:00:47Z</time>
      </trkpt>
      <trkpt lat="44.1947" lon="1.7474">
        <ele>254.89</ele>
        <time>2021-08-17T15:00:48Z</time>
      </trkpt>
      <trkpt lat="44.1947" lon="1.74736">
        <ele>254.41</ele>
        <time>2021-08-17T15:00:49Z</time>
      </trkpt>
      <trkpt lat="44.19471" lon="1.74731">
        <ele>253.93</ele>
        <time>2021-08-17T15:00:50Z</time>
      </trkpt>
      <trkpt lat="44.19471" lon="1.74728">
        <ele>253.44</ele>
        <time>2021-08-17T15:00:51Z</time>
      </trkpt>
      <trkpt lat="44.19473" lon="1.7471">
        <ele>252</ele>
        <time>2021-08-17T15:00:54Z</time>
      </trkpt>
      <trkpt lat="44.19473" lon="1.74705">
        <ele>251.04</ele>
        <time>2021-08-17T15:00:55Z</time>
      </trkpt>
      <trkpt lat="44.19476" lon="1.74689">
        <ele>249.6</ele>
        <time>2021-08-17T15:00:59Z</time>
      </trkpt>
      <trkpt lat="44.19484" lon="1.7466">
        <ele>246.72</ele>
        <time>2021-08-17T15:01:05Z</time>
      </trkpt>
      <trkpt lat="44.19488" lon="1.74652">
        <ele>245.27</ele>
        <time>2021-08-17T15:01:07Z</time>
      </trkpt>
      <trkpt lat="44.19495" lon="1.7462">
        <ele>242.39</ele>
        <time>2021-08-17T15:01:12Z</time>
      </trkpt>
      <trkpt lat="44.19498" lon="1.74613">
        <ele>241.91</ele>
        <time>2021-08-17T15:01:13Z</time>
      </trkpt>
      <trkpt lat="44.19501" lon="1.74607">
        <ele>241.91</ele>
        <time>2021-08-17T15:01:14Z</time>
      </trkpt>
      <trkpt lat="44.19504" lon="1.74601">
        <ele>240.95</ele>
        <time>2021-08-17T15:01:15Z</time>
      </trkpt>
      <trkpt lat="44.19507" lon="1.74594">
        <ele>240.47</ele>
        <time>2021-08-17T15:01:16Z</time>
      </trkpt>
      <trkpt lat="44.1951" lon="1.74588">
        <ele>239.99</ele>
        <time>2021-08-17T15:01:17Z</time>
      </trkpt>
      <trkpt lat="44.19524" lon="1.74556">
        <ele>237.1</ele>
        <time>2021-08-17T15:01:22Z</time>
      </trkpt>
      <trkpt lat="44.19532" lon="1.74532">
        <ele>234.7</ele>
        <time>2021-08-17T15:01:27Z</time>
      </trkpt>
      <trkpt lat="44.19544" lon="1.74506">
        <ele>231.81</ele>
        <time>2021-08-17T15:01:33Z</time>
      </trkpt>
      <trkpt lat="44.19545" lon="1.74501">
        <ele>230.85</ele>
        <time>2021-08-17T15:01:34Z</time>
      </trkpt>
      <trkpt lat="44.19546" lon="1.74497">
        <ele>230.37</ele>
        <time>2021-08-17T15:01:35Z</time>
      </trkpt>
      <trkpt lat="44.19548" lon="1.74492">
        <ele>229.89</ele>
        <time>2021-08-17T15:01:36Z</time>
      </trkpt>
      <trkpt lat="44.19551" lon="1.74487">
        <ele>229.41</ele>
        <time>2021-08-17T15:01:37Z</time>
      </trkpt>
      <trkpt lat="44.19553" lon="1.74483">
        <ele>228.93</ele>
        <time>2021-08-17T15:01:38Z</time>
      </trkpt>
      <trkpt lat="44.19556" lon="1.74478">
        <ele>227.97</ele>
        <time>2021-08-17T15:01:39Z</time>
      </trkpt>
      <trkpt lat="44.19563" lon="1.7446">
        <ele>225.57</ele>
        <time>2021-08-17T15:01:44Z</time>
      </trkpt>
      <trkpt lat="44.19571" lon="1.74442">
        <ele>223.16</ele>
        <time>2021-08-17T15:01:50Z</time>
      </trkpt>
      <trkpt lat="44.19577" lon="1.74422">
        <ele>220.76</ele>
        <time>2021-08-17T15:01:55Z</time>
      </trkpt>
      <trkpt lat="44.19584" lon="1.7439">
        <ele>218.84</ele>
        <time>2021-08-17T15:02:01Z</time>
      </trkpt>
      <trkpt lat="44.19586" lon="1.74365">
        <ele>217.88</ele>
        <time>2021-08-17T15:02:05Z</time>
      </trkpt>
      <trkpt lat="44.19586" lon="1.74357">
        <ele>217.4</ele>
        <time>2021-08-17T15:02:06Z</time>
      </trkpt>
      <trkpt lat="44.19586" lon="1.74344">
        <ele>216.43</ele>
        <time>2021-08-17T15:02:08Z</time>
      </trkpt>
      <trkpt lat="44.19585" lon="1.74318">
        <ele>213.55</ele>
        <time>2021-08-17T15:02:13Z</time>
      </trkpt>
      <trkpt lat="44.19583" lon="1.74306">
        <ele>212.11</ele>
        <time>2021-08-17T15:02:15Z</time>
      </trkpt>
      <trkpt lat="44.19582" lon="1.74276">
        <ele>209.22</ele>
        <time>2021-08-17T15:02:21Z</time>
      </trkpt>
      <trkpt lat="44.19577" lon="1.7425">
        <ele>206.34</ele>
        <time>2021-08-17T15:02:26Z</time>
      </trkpt>
      <trkpt lat="44.19574" lon="1.74245">
        <ele>205.86</ele>
        <time>2021-08-17T15:02:27Z</time>
      </trkpt>
      <trkpt lat="44.19568" lon="1.74219">
        <ele>203.46</ele>
        <time>2021-08-17T15:02:33Z</time>
      </trkpt>
      <trkpt lat="44.19566" lon="1.74201">
        <ele>201.05</ele>
        <time>2021-08-17T15:02:38Z</time>
      </trkpt>
      <trkpt lat="44.19565" lon="1.74198">
        <ele>201.05</ele>
        <time>2021-08-17T15:02:39Z</time>
      </trkpt>
      <trkpt lat="44.1956" lon="1.74179">
        <ele>198.17</ele>
        <time>2021-08-17T15:02:45Z</time>
      </trkpt>
      <trkpt lat="44.1956" lon="1.74176">
        <ele>198.17</ele>
        <time>2021-08-17T15:02:46Z</time>
      </trkpt>
      <trkpt lat="44.19561" lon="1.74171">
        <ele>198.17</ele>
        <time>2021-08-17T15:02:47Z</time>
      </trkpt>
      <trkpt lat="44.19561" lon="1.74167">
        <ele>198.17</ele>
        <time>2021-08-17T15:02:48Z</time>
      </trkpt>
      <trkpt lat="44.19562" lon="1.7416">
        <ele>197.21</ele>
        <time>2021-08-17T15:02:49Z</time>
      </trkpt>
      <trkpt lat="44.19561" lon="1.74156">
        <ele>197.69</ele>
        <time>2021-08-17T15:02:50Z</time>
      </trkpt>
      <trkpt lat="44.19554" lon="1.74134">
        <ele>197.21</ele>
        <time>2021-08-17T15:02:54Z</time>
      </trkpt>
      <trkpt lat="44.1955" lon="1.74131">
        <ele>196.25</ele>
        <time>2021-08-17T15:02:55Z</time>
      </trkpt>
      <trkpt lat="44.19547" lon="1.74129">
        <ele>196.25</ele>
        <time>2021-08-17T15:02:56Z</time>
      </trkpt>
      <trkpt lat="44.19543" lon="1.74126">
        <ele>195.77</ele>
        <time>2021-08-17T15:02:57Z</time>
      </trkpt>
      <trkpt lat="44.19539" lon="1.74124">
        <ele>195.77</ele>
        <time>2021-08-17T15:02:58Z</time>
      </trkpt>
      <trkpt lat="44.19535" lon="1.74123">
        <ele>195.28</ele>
        <time>2021-08-17T15:02:59Z</time>
      </trkpt>
      <trkpt lat="44.19519" lon="1.74124">
        <ele>194.32</ele>
        <time>2021-08-17T15:03:03Z</time>
      </trkpt>
      <trkpt lat="44.19502" lon="1.74129">
        <ele>193.36</ele>
        <time>2021-08-17T15:03:07Z</time>
      </trkpt>
      <trkpt lat="44.19497" lon="1.74132">
        <ele>192.88</ele>
        <time>2021-08-17T15:03:08Z</time>
      </trkpt>
      <trkpt lat="44.19482" lon="1.74146">
        <ele>192.88</ele>
        <time>2021-08-17T15:03:13Z</time>
      </trkpt>
      <trkpt lat="44.19478" lon="1.74149">
        <ele>192.4</ele>
        <time>2021-08-17T15:03:15Z</time>
      </trkpt>
      <trkpt lat="44.19476" lon="1.74149">
        <ele>192.4</ele>
        <time>2021-08-17T15:03:16Z</time>
      </trkpt>
      <trkpt lat="44.19471" lon="1.74151">
        <ele>192.4</ele>
        <time>2021-08-17T15:03:20Z</time>
      </trkpt>
      <trkpt lat="44.19469" lon="1.74153">
        <ele>191.92</ele>
        <time>2021-08-17T15:03:21Z</time>
      </trkpt>
      <trkpt lat="44.19468" lon="1.74154">
        <ele>191.92</ele>
        <time>2021-08-17T15:03:22Z</time>
      </trkpt>
      <trkpt lat="44.19466" lon="1.74154">
        <ele>191.92</ele>
        <time>2021-08-17T15:03:23Z</time>
      </trkpt>
      <trkpt lat="44.19465" lon="1.74155">
        <ele>191.92</ele>
        <time>2021-08-17T15:03:24Z</time>
      </trkpt>
      <trkpt lat="44.19462" lon="1.74157">
        <ele>191.92</ele>
        <time>2021-08-17T15:03:26Z</time>
      </trkpt>
      <trkpt lat="44.1946" lon="1.74157">
        <ele>191.92</ele>
        <time>2021-08-17T15:03:27Z</time>
      </trkpt>
      <trkpt lat="44.19458" lon="1.74158">
        <ele>191.92</ele>
        <time>2021-08-17T15:03:28Z</time>
      </trkpt>
      <trkpt lat="44.19456" lon="1.74159">
        <ele>191.92</ele>
        <time>2021-08-17T15:03:29Z</time>
      </trkpt>
      <trkpt lat="44.19453" lon="1.7416">
        <ele>191.92</ele>
        <time>2021-08-17T15:03:30Z</time>
      </trkpt>
      <trkpt lat="44.19451" lon="1.74161">
        <ele>191.92</ele>
        <time>2021-08-17T15:03:31Z</time>
      </trkpt>
      <trkpt lat="44.19432" lon="1.74169">
        <ele>190.96</ele>
        <time>2021-08-17T15:03:39Z</time>
      </trkpt>
      <trkpt lat="44.19419" lon="1.74177">
        <ele>190.48</ele>
        <time>2021-08-17T15:03:46Z</time>
      </trkpt>
      <trkpt lat="44.19407" lon="1.74186">
        <ele>190</ele>
        <time>2021-08-17T15:03:52Z</time>
      </trkpt>
      <trkpt lat="44.19394" lon="1.74197">
        <ele>190</ele>
        <time>2021-08-17T15:03:58Z</time>
      </trkpt>
      <trkpt lat="44.1938" lon="1.74209">
        <ele>189.52</ele>
        <time>2021-08-17T15:04:05Z</time>
      </trkpt>
      <trkpt lat="44.19369" lon="1.74215">
        <ele>189.04</ele>
        <time>2021-08-17T15:04:11Z</time>
      </trkpt>
      <trkpt lat="44.19353" lon="1.74222">
        <ele>188.56</ele>
        <time>2021-08-17T15:04:18Z</time>
      </trkpt>
      <trkpt lat="44.19349" lon="1.74224">
        <ele>188.56</ele>
        <time>2021-08-17T15:04:20Z</time>
      </trkpt>
      <trkpt lat="44.19346" lon="1.74225">
        <ele>188.56</ele>
        <time>2021-08-17T15:04:21Z</time>
      </trkpt>
      <trkpt lat="44.19342" lon="1.74226">
        <ele>188.56</ele>
        <time>2021-08-17T15:04:22Z</time>
      </trkpt>
      <trkpt lat="44.19322" lon="1.74226">
        <ele>188.08</ele>
        <time>2021-08-17T15:04:29Z</time>
      </trkpt>
      <trkpt lat="44.19308" lon="1.74214">
        <ele>187.59</ele>
        <time>2021-08-17T15:04:35Z</time>
      </trkpt>
      <trkpt lat="44.19306" lon="1.74211">
        <ele>187.59</ele>
        <time>2021-08-17T15:04:36Z</time>
      </trkpt>
      <trkpt lat="44.19305" lon="1.74208">
        <ele>187.59</ele>
        <time>2021-08-17T15:04:37Z</time>
      </trkpt>
      <trkpt lat="44.19304" lon="1.74205">
        <ele>187.59</ele>
        <time>2021-08-17T15:04:38Z</time>
      </trkpt>
      <trkpt lat="44.19302" lon="1.74197">
        <ele>187.59</ele>
        <time>2021-08-17T15:04:41Z</time>
      </trkpt>
      <trkpt lat="44.193" lon="1.74193">
        <ele>187.11</ele>
        <time>2021-08-17T15:04:43Z</time>
      </trkpt>
      <trkpt lat="44.19297" lon="1.74177">
        <ele>187.11</ele>
        <time>2021-08-17T15:04:50Z</time>
      </trkpt>
      <trkpt lat="44.19291" lon="1.74153">
        <ele>187.11</ele>
        <time>2021-08-17T15:04:58Z</time>
      </trkpt>
      <trkpt lat="44.1929" lon="1.74149">
        <ele>187.11</ele>
        <time>2021-08-17T15:04:59Z</time>
      </trkpt>
      <trkpt lat="44.1929" lon="1.74146">
        <ele>187.11</ele>
        <time>2021-08-17T15:05:00Z</time>
      </trkpt>
      <trkpt lat="44.19286" lon="1.74125">
        <ele>186.63</ele>
        <time>2021-08-17T15:05:06Z</time>
      </trkpt>
      <trkpt lat="44.1928" lon="1.74095">
        <ele>186.15</ele>
        <time>2021-08-17T15:05:13Z</time>
      </trkpt>
      <trkpt lat="44.19268" lon="1.74068">
        <ele>185.19</ele>
        <time>2021-08-17T15:05:20Z</time>
      </trkpt>
      <trkpt lat="44.19251" lon="1.74036">
        <ele>185.19</ele>
        <time>2021-08-17T15:05:27Z</time>
      </trkpt>
      <trkpt lat="44.19251" lon="1.74031">
        <ele>185.19</ele>
        <time>2021-08-17T15:05:28Z</time>
      </trkpt>
      <trkpt lat="44.19246" lon="1.74009">
        <ele>184.71</ele>
        <time>2021-08-17T15:05:33Z</time>
      </trkpt>
      <trkpt lat="44.19238" lon="1.73981">
        <ele>184.71</ele>
        <time>2021-08-17T15:05:39Z</time>
      </trkpt>
      <trkpt lat="44.19225" lon="1.73961">
        <ele>184.23</ele>
        <time>2021-08-17T15:05:43Z</time>
      </trkpt>
      <trkpt lat="44.19218" lon="1.73954">
        <ele>184.23</ele>
        <time>2021-08-17T15:05:45Z</time>
      </trkpt>
      <trkpt lat="44.19209" lon="1.73947">
        <ele>183.75</ele>
        <time>2021-08-17T15:05:47Z</time>
      </trkpt>
      <trkpt lat="44.19205" lon="1.73943">
        <ele>183.75</ele>
        <time>2021-08-17T15:05:48Z</time>
      </trkpt>
      <trkpt lat="44.19202" lon="1.73938">
        <ele>183.27</ele>
        <time>2021-08-17T15:05:49Z</time>
      </trkpt>
      <trkpt lat="44.19196" lon="1.73927">
        <ele>183.27</ele>
        <time>2021-08-17T15:05:51Z</time>
      </trkpt>
      <trkpt lat="44.19193" lon="1.73923">
        <ele>183.27</ele>
        <time>2021-08-17T15:05:52Z</time>
      </trkpt>
      <trkpt lat="44.1919" lon="1.73919">
        <ele>183.27</ele>
        <time>2021-08-17T15:05:53Z</time>
      </trkpt>
      <trkpt lat="44.19187" lon="1.73917">
        <ele>183.27</ele>
        <time>2021-08-17T15:05:54Z</time>
      </trkpt>
      <trkpt lat="44.19184" lon="1.73917">
        <ele>183.27</ele>
        <time>2021-08-17T15:05:55Z</time>
      </trkpt>
      <trkpt lat="44.19181" lon="1.73917">
        <ele>183.27</ele>
        <time>2021-08-17T15:05:56Z</time>
      </trkpt>
      <trkpt lat="44.19178" lon="1.73917">
        <ele>183.27</ele>
        <time>2021-08-17T15:05:57Z</time>
      </trkpt>
      <trkpt lat="44.19174" lon="1.73917">
        <ele>183.27</ele>
        <time>2021-08-17T15:05:58Z</time>
      </trkpt>
      <trkpt lat="44.19171" lon="1.73917">
        <ele>183.27</ele>
        <time>2021-08-17T15:05:59Z</time>
      </trkpt>
      <trkpt lat="44.19168" lon="1.73917">
        <ele>183.27</ele>
        <time>2021-08-17T15:06:00Z</time>
      </trkpt>
      <trkpt lat="44.19165" lon="1.73918">
        <ele>183.27</ele>
        <time>2021-08-17T15:06:01Z</time>
      </trkpt>
      <trkpt lat="44.19163" lon="1.73919">
        <ele>183.27</ele>
        <time>2021-08-17T15:06:02Z</time>
      </trkpt>
      <trkpt lat="44.1916" lon="1.73921">
        <ele>183.27</ele>
        <time>2021-08-17T15:06:03Z</time>
      </trkpt>
      <trkpt lat="44.19159" lon="1.73923">
        <ele>182.79</ele>
        <time>2021-08-17T15:06:04Z</time>
      </trkpt>
      <trkpt lat="44.19157" lon="1.73924">
        <ele>182.79</ele>
        <time>2021-08-17T15:06:05Z</time>
      </trkpt>
      <trkpt lat="44.19156" lon="1.73924">
        <ele>182.79</ele>
        <time>2021-08-17T15:06:06Z</time>
      </trkpt>
      <trkpt lat="44.19148" lon="1.73924">
        <ele>182.79</ele>
        <time>2021-08-17T15:06:10Z</time>
      </trkpt>
      <trkpt lat="44.19135" lon="1.73929">
        <ele>182.31</ele>
        <time>2021-08-17T15:06:16Z</time>
      </trkpt>
      <trkpt lat="44.19122" lon="1.73933">
        <ele>182.31</ele>
        <time>2021-08-17T15:06:23Z</time>
      </trkpt>
      <trkpt lat="44.19118" lon="1.73934">
        <ele>181.83</ele>
        <time>2021-08-17T15:06:25Z</time>
      </trkpt>
      <trkpt lat="44.19116" lon="1.73935">
        <ele>181.83</ele>
        <time>2021-08-17T15:06:26Z</time>
      </trkpt>
      <trkpt lat="44.19113" lon="1.73935">
        <ele>181.83</ele>
        <time>2021-08-17T15:06:27Z</time>
      </trkpt>
      <trkpt lat="44.19111" lon="1.73936">
        <ele>181.83</ele>
        <time>2021-08-17T15:06:28Z</time>
      </trkpt>
      <trkpt lat="44.19108" lon="1.73936">
        <ele>181.83</ele>
        <time>2021-08-17T15:06:29Z</time>
      </trkpt>
      <trkpt lat="44.19105" lon="1.73936">
        <ele>181.83</ele>
        <time>2021-08-17T15:06:30Z</time>
      </trkpt>
      <trkpt lat="44.19084" lon="1.73936">
        <ele>181.35</ele>
        <time>2021-08-17T15:06:37Z</time>
      </trkpt>
      <trkpt lat="44.19067" lon="1.73937">
        <ele>181.35</ele>
        <time>2021-08-17T15:06:42Z</time>
      </trkpt>
      <trkpt lat="44.19042" lon="1.73936">
        <ele>180.87</ele>
        <time>2021-08-17T15:06:48Z</time>
      </trkpt>
      <trkpt lat="44.19009" lon="1.7393">
        <ele>180.38</ele>
        <time>2021-08-17T15:06:56Z</time>
      </trkpt>
      <trkpt lat="44.18981" lon="1.73918">
        <ele>180.38</ele>
        <time>2021-08-17T15:07:02Z</time>
      </trkpt>
      <trkpt lat="44.18947" lon="1.73913">
        <ele>180.38</ele>
        <time>2021-08-17T15:07:10Z</time>
      </trkpt>
      <trkpt lat="44.18924" lon="1.73916">
        <ele>180.38</ele>
        <time>2021-08-17T15:07:16Z</time>
      </trkpt>
      <trkpt lat="44.18919" lon="1.73917">
        <ele>180.38</ele>
        <time>2021-08-17T15:07:17Z</time>
      </trkpt>
      <trkpt lat="44.18888" lon="1.73913">
        <ele>180.38</ele>
        <time>2021-08-17T15:07:24Z</time>
      </trkpt>
      <trkpt lat="44.18879" lon="1.7391">
        <ele>179.42</ele>
        <time>2021-08-17T15:07:26Z</time>
      </trkpt>
      <trkpt lat="44.18873" lon="1.73907">
        <ele>178.46</ele>
        <time>2021-08-17T15:07:27Z</time>
      </trkpt>
      <trkpt lat="44.18868" lon="1.73905">
        <ele>178.46</ele>
        <time>2021-08-17T15:07:28Z</time>
      </trkpt>
      <trkpt lat="44.18864" lon="1.73905">
        <ele>177.98</ele>
        <time>2021-08-17T15:07:29Z</time>
      </trkpt>
      <trkpt lat="44.18861" lon="1.73904">
        <ele>177.98</ele>
        <time>2021-08-17T15:07:30Z</time>
      </trkpt>
      <trkpt lat="44.18859" lon="1.73905">
        <ele>177.98</ele>
        <time>2021-08-17T15:07:31Z</time>
      </trkpt>
      <trkpt lat="44.18858" lon="1.73905">
        <ele>177.5</ele>
        <time>2021-08-17T15:07:32Z</time>
      </trkpt>
      <trkpt lat="44.18856" lon="1.73906">
        <ele>177.5</ele>
        <time>2021-08-17T15:07:33Z</time>
      </trkpt>
      <trkpt lat="44.18854" lon="1.73908">
        <ele>177.5</ele>
        <time>2021-08-17T15:07:34Z</time>
      </trkpt>
      <trkpt lat="44.18853" lon="1.73909">
        <ele>177.5</ele>
        <time>2021-08-17T15:07:35Z</time>
      </trkpt>
      <trkpt lat="44.18851" lon="1.73911">
        <ele>177.5</ele>
        <time>2021-08-17T15:07:36Z</time>
      </trkpt>
      <trkpt lat="44.18848" lon="1.73913">
        <ele>177.5</ele>
        <time>2021-08-17T15:07:37Z</time>
      </trkpt>
      <trkpt lat="44.18846" lon="1.73915">
        <ele>177.5</ele>
        <time>2021-08-17T15:07:38Z</time>
      </trkpt>
      <trkpt lat="44.18844" lon="1.73918">
        <ele>177.5</ele>
        <time>2021-08-17T15:07:39Z</time>
      </trkpt>
      <trkpt lat="44.18843" lon="1.7392">
        <ele>177.5</ele>
        <time>2021-08-17T15:07:40Z</time>
      </trkpt>
      <trkpt lat="44.18841" lon="1.73923">
        <ele>177.02</ele>
        <time>2021-08-17T15:07:41Z</time>
      </trkpt>
      <trkpt lat="44.18829" lon="1.73944">
        <ele>176.54</ele>
        <time>2021-08-17T15:07:46Z</time>
      </trkpt>
      <trkpt lat="44.18825" lon="1.73949">
        <ele>176.54</ele>
        <time>2021-08-17T15:07:47Z</time>
      </trkpt>
      <trkpt lat="44.18822" lon="1.73955">
        <ele>176.54</ele>
        <time>2021-08-17T15:07:48Z</time>
      </trkpt>
      <trkpt lat="44.18812" lon="1.73969">
        <ele>176.54</ele>
        <time>2021-08-17T15:07:51Z</time>
      </trkpt>
      <trkpt lat="44.18787" lon="1.73981">
        <ele>176.06</ele>
        <time>2021-08-17T15:07:57Z</time>
      </trkpt>
      <trkpt lat="44.18775" lon="1.73982">
        <ele>176.06</ele>
        <time>2021-08-17T15:07:59Z</time>
      </trkpt>
      <trkpt lat="44.18769" lon="1.73983">
        <ele>176.06</ele>
        <time>2021-08-17T15:08:00Z</time>
      </trkpt>
      <trkpt lat="44.18763" lon="1.73983">
        <ele>175.58</ele>
        <time>2021-08-17T15:08:01Z</time>
      </trkpt>
      <trkpt lat="44.18758" lon="1.73985">
        <ele>175.58</ele>
        <time>2021-08-17T15:08:02Z</time>
      </trkpt>
      <trkpt lat="44.18753" lon="1.73985">
        <ele>175.58</ele>
        <time>2021-08-17T15:08:03Z</time>
      </trkpt>
      <trkpt lat="44.18748" lon="1.73986">
        <ele>175.58</ele>
        <time>2021-08-17T15:08:04Z</time>
      </trkpt>
      <trkpt lat="44.18742" lon="1.73987">
        <ele>175.1</ele>
        <time>2021-08-17T15:08:05Z</time>
      </trkpt>
      <trkpt lat="44.18731" lon="1.73987">
        <ele>175.1</ele>
        <time>2021-08-17T15:08:07Z</time>
      </trkpt>
      <trkpt lat="44.18725" lon="1.73988">
        <ele>175.1</ele>
        <time>2021-08-17T15:08:08Z</time>
      </trkpt>
      <trkpt lat="44.18719" lon="1.73989">
        <ele>175.1</ele>
        <time>2021-08-17T15:08:09Z</time>
      </trkpt>
      <trkpt lat="44.18714" lon="1.73991">
        <ele>175.1</ele>
        <time>2021-08-17T15:08:10Z</time>
      </trkpt>
      <trkpt lat="44.18709" lon="1.73993">
        <ele>175.1</ele>
        <time>2021-08-17T15:08:11Z</time>
      </trkpt>
      <trkpt lat="44.18691" lon="1.74004">
        <ele>174.62</ele>
        <time>2021-08-17T15:08:16Z</time>
      </trkpt>
      <trkpt lat="44.18684" lon="1.74013">
        <ele>174.62</ele>
        <time>2021-08-17T15:08:18Z</time>
      </trkpt>
      <trkpt lat="44.1868" lon="1.74016">
        <ele>174.62</ele>
        <time>2021-08-17T15:08:19Z</time>
      </trkpt>
      <trkpt lat="44.18675" lon="1.74019">
        <ele>174.62</ele>
        <time>2021-08-17T15:08:20Z</time>
      </trkpt>
      <trkpt lat="44.18671" lon="1.74022">
        <ele>174.62</ele>
        <time>2021-08-17T15:08:21Z</time>
      </trkpt>
      <trkpt lat="44.18666" lon="1.74024">
        <ele>175.1</ele>
        <time>2021-08-17T15:08:22Z</time>
      </trkpt>
      <trkpt lat="44.18654" lon="1.74028">
        <ele>176.06</ele>
        <time>2021-08-17T15:08:25Z</time>
      </trkpt>
      <trkpt lat="44.18633" lon="1.74035">
        <ele>176.54</ele>
        <time>2021-08-17T15:08:32Z</time>
      </trkpt>
      <trkpt lat="44.18617" lon="1.74038">
        <ele>177.98</ele>
        <time>2021-08-17T15:08:39Z</time>
      </trkpt>
      <trkpt lat="44.18599" lon="1.74038">
        <ele>178.46</ele>
        <time>2021-08-17T15:08:46Z</time>
      </trkpt>
      <trkpt lat="44.18579" lon="1.74038">
        <ele>178.46</ele>
        <time>2021-08-17T15:08:52Z</time>
      </trkpt>
      <trkpt lat="44.18556" lon="1.74036">
        <ele>178.46</ele>
        <time>2021-08-17T15:08:58Z</time>
      </trkpt>
      <trkpt lat="44.18521" lon="1.74027">
        <ele>176.06</ele>
        <time>2021-08-17T15:09:05Z</time>
      </trkpt>
      <trkpt lat="44.18511" lon="1.74026">
        <ele>174.62</ele>
        <time>2021-08-17T15:09:07Z</time>
      </trkpt>
      <trkpt lat="44.18492" lon="1.74026">
        <ele>174.14</ele>
        <time>2021-08-17T15:09:11Z</time>
      </trkpt>
      <trkpt lat="44.18485" lon="1.74025">
        <ele>174.14</ele>
        <time>2021-08-17T15:09:12Z</time>
      </trkpt>
      <trkpt lat="44.18443" lon="1.74031">
        <ele>173.66</ele>
        <time>2021-08-17T15:09:17Z</time>
      </trkpt>
      <trkpt lat="44.18394" lon="1.74054">
        <ele>173.17</ele>
        <time>2021-08-17T15:09:23Z</time>
      </trkpt>
      <trkpt lat="44.18338" lon="1.74073">
        <ele>173.66</ele>
        <time>2021-08-17T15:09:30Z</time>
      </trkpt>
      <trkpt lat="44.18313" lon="1.74079">
        <ele>173.66</ele>
        <time>2021-08-17T15:09:34Z</time>
      </trkpt>
      <trkpt lat="44.18292" lon="1.74087">
        <ele>173.66</ele>
        <time>2021-08-17T15:09:38Z</time>
      </trkpt>
      <trkpt lat="44.18289" lon="1.74092">
        <ele>173.66</ele>
        <time>2021-08-17T15:09:39Z</time>
      </trkpt>
      <trkpt lat="44.18287" lon="1.74098">
        <ele>173.66</ele>
        <time>2021-08-17T15:09:40Z</time>
      </trkpt>
      <trkpt lat="44.18287" lon="1.74105">
        <ele>173.66</ele>
        <time>2021-08-17T15:09:41Z</time>
      </trkpt>
      <trkpt lat="44.18287" lon="1.74112">
        <ele>173.66</ele>
        <time>2021-08-17T15:09:42Z</time>
      </trkpt>
      <trkpt lat="44.18288" lon="1.74128">
        <ele>173.66</ele>
        <time>2021-08-17T15:09:44Z</time>
      </trkpt>
      <trkpt lat="44.18287" lon="1.74135">
        <ele>172.69</ele>
        <time>2021-08-17T15:09:45Z</time>
      </trkpt>
      <trkpt lat="44.18286" lon="1.74143">
        <ele>172.69</ele>
        <time>2021-08-17T15:09:46Z</time>
      </trkpt>
      <trkpt lat="44.18283" lon="1.7415">
        <ele>172.69</ele>
        <time>2021-08-17T15:09:47Z</time>
      </trkpt>
      <trkpt lat="44.18279" lon="1.74157">
        <ele>172.69</ele>
        <time>2021-08-17T15:09:48Z</time>
      </trkpt>
      <trkpt lat="44.18274" lon="1.74165">
        <ele>172.69</ele>
        <time>2021-08-17T15:09:49Z</time>
      </trkpt>
      <trkpt lat="44.1827" lon="1.74171">
        <ele>172.69</ele>
        <time>2021-08-17T15:09:50Z</time>
      </trkpt>
      <trkpt lat="44.18265" lon="1.74177">
        <ele>172.69</ele>
        <time>2021-08-17T15:09:51Z</time>
      </trkpt>
      <trkpt lat="44.18244" lon="1.74224">
        <ele>172.21</ele>
        <time>2021-08-17T15:09:57Z</time>
      </trkpt>
      <trkpt lat="44.18228" lon="1.74285">
        <ele>172.21</ele>
        <time>2021-08-17T15:10:04Z</time>
      </trkpt>
      <trkpt lat="44.18216" lon="1.74331">
        <ele>172.69</ele>
        <time>2021-08-17T15:10:10Z</time>
      </trkpt>
      <trkpt lat="44.18213" lon="1.74338">
        <ele>172.21</ele>
        <time>2021-08-17T15:10:11Z</time>
      </trkpt>
      <trkpt lat="44.18205" lon="1.7436">
        <ele>172.21</ele>
        <time>2021-08-17T15:10:14Z</time>
      </trkpt>
      <trkpt lat="44.182" lon="1.74374">
        <ele>172.21</ele>
        <time>2021-08-17T15:10:16Z</time>
      </trkpt>
      <trkpt lat="44.18173" lon="1.74435">
        <ele>172.21</ele>
        <time>2021-08-17T15:10:24Z</time>
      </trkpt>
      <trkpt lat="44.18162" lon="1.74456">
        <ele>172.21</ele>
        <time>2021-08-17T15:10:27Z</time>
      </trkpt>
      <trkpt lat="44.18147" lon="1.74487">
        <ele>173.66</ele>
        <time>2021-08-17T15:10:32Z</time>
      </trkpt>
      <trkpt lat="44.18145" lon="1.74493">
        <ele>173.66</ele>
        <time>2021-08-17T15:10:33Z</time>
      </trkpt>
      <trkpt lat="44.18143" lon="1.745">
        <ele>173.66</ele>
        <time>2021-08-17T15:10:34Z</time>
      </trkpt>
      <trkpt lat="44.18139" lon="1.74507">
        <ele>173.66</ele>
        <time>2021-08-17T15:10:35Z</time>
      </trkpt>
      <trkpt lat="44.18128" lon="1.74526">
        <ele>173.66</ele>
        <time>2021-08-17T15:10:38Z</time>
      </trkpt>
      <trkpt lat="44.1812" lon="1.74539">
        <ele>173.66</ele>
        <time>2021-08-17T15:10:40Z</time>
      </trkpt>
      <trkpt lat="44.18085" lon="1.74586">
        <ele>173.66</ele>
        <time>2021-08-17T15:10:48Z</time>
      </trkpt>
      <trkpt lat="44.1808" lon="1.7459">
        <ele>173.66</ele>
        <time>2021-08-17T15:10:49Z</time>
      </trkpt>
      <trkpt lat="44.18075" lon="1.74594">
        <ele>173.66</ele>
        <time>2021-08-17T15:10:50Z</time>
      </trkpt>
      <trkpt lat="44.18034" lon="1.74619">
        <ele>173.66</ele>
        <time>2021-08-17T15:10:58Z</time>
      </trkpt>
      <trkpt lat="44.18006" lon="1.74636">
        <ele>172.69</ele>
        <time>2021-08-17T15:11:03Z</time>
      </trkpt>
      <trkpt lat="44.17989" lon="1.74647">
        <ele>172.21</ele>
        <time>2021-08-17T15:11:06Z</time>
      </trkpt>
      <trkpt lat="44.17984" lon="1.74652">
        <ele>172.21</ele>
        <time>2021-08-17T15:11:07Z</time>
      </trkpt>
      <trkpt lat="44.17979" lon="1.74658">
        <ele>171.73</ele>
        <time>2021-08-17T15:11:08Z</time>
      </trkpt>
      <trkpt lat="44.17975" lon="1.74666">
        <ele>171.25</ele>
        <time>2021-08-17T15:11:09Z</time>
      </trkpt>
      <trkpt lat="44.17971" lon="1.74675">
        <ele>170.29</ele>
        <time>2021-08-17T15:11:10Z</time>
      </trkpt>
      <trkpt lat="44.17966" lon="1.74685">
        <ele>169.81</ele>
        <time>2021-08-17T15:11:11Z</time>
      </trkpt>
      <trkpt lat="44.17957" lon="1.74703">
        <ele>168.85</ele>
        <time>2021-08-17T15:11:13Z</time>
      </trkpt>
      <trkpt lat="44.17926" lon="1.74747">
        <ele>168.85</ele>
        <time>2021-08-17T15:11:19Z</time>
      </trkpt>
      <trkpt lat="44.17897" lon="1.74786">
        <ele>168.85</ele>
        <time>2021-08-17T15:11:25Z</time>
      </trkpt>
      <trkpt lat="44.17863" lon="1.74841">
        <ele>168.85</ele>
        <time>2021-08-17T15:11:33Z</time>
      </trkpt>
      <trkpt lat="44.1782" lon="1.74907">
        <ele>167.89</ele>
        <time>2021-08-17T15:11:43Z</time>
      </trkpt>
      <trkpt lat="44.17795" lon="1.74937">
        <ele>166.93</ele>
        <time>2021-08-17T15:11:48Z</time>
      </trkpt>
      <trkpt lat="44.17789" lon="1.74941">
        <ele>166.93</ele>
        <time>2021-08-17T15:11:49Z</time>
      </trkpt>
      <trkpt lat="44.17766" lon="1.74959">
        <ele>165</ele>
        <time>2021-08-17T15:11:53Z</time>
      </trkpt>
      <trkpt lat="44.17761" lon="1.74965">
        <ele>165</ele>
        <time>2021-08-17T15:11:54Z</time>
      </trkpt>
      <trkpt lat="44.17756" lon="1.74971">
        <ele>164.52</ele>
        <time>2021-08-17T15:11:55Z</time>
      </trkpt>
      <trkpt lat="44.17752" lon="1.74978">
        <ele>164.04</ele>
        <time>2021-08-17T15:11:56Z</time>
      </trkpt>
      <trkpt lat="44.17748" lon="1.74985">
        <ele>163.56</ele>
        <time>2021-08-17T15:11:57Z</time>
      </trkpt>
      <trkpt lat="44.17744" lon="1.74991">
        <ele>163.56</ele>
        <time>2021-08-17T15:11:58Z</time>
      </trkpt>
      <trkpt lat="44.17732" lon="1.75011">
        <ele>161.64</ele>
        <time>2021-08-17T15:12:03Z</time>
      </trkpt>
      <trkpt lat="44.17731" lon="1.75013">
        <ele>161.64</ele>
        <time>2021-08-17T15:12:04Z</time>
      </trkpt>
      <trkpt lat="44.17732" lon="1.75016">
        <ele>161.16</ele>
        <time>2021-08-17T15:12:05Z</time>
      </trkpt>
      <trkpt lat="44.17734" lon="1.75018">
        <ele>161.16</ele>
        <time>2021-08-17T15:12:06Z</time>
      </trkpt>
      <trkpt lat="44.17735" lon="1.7502">
        <ele>161.16</ele>
        <time>2021-08-17T15:12:07Z</time>
      </trkpt>
      <trkpt lat="44.17738" lon="1.75022">
        <ele>161.16</ele>
        <time>2021-08-17T15:12:08Z</time>
      </trkpt>
      <trkpt lat="44.17756" lon="1.75036">
        <ele>161.16</ele>
        <time>2021-08-17T15:12:14Z</time>
      </trkpt>
      <trkpt lat="44.17791" lon="1.75061">
        <ele>161.16</ele>
        <time>2021-08-17T15:12:23Z</time>
      </trkpt>
      <trkpt lat="44.17794" lon="1.75064">
        <ele>161.16</ele>
        <time>2021-08-17T15:12:24Z</time>
      </trkpt>
      <trkpt lat="44.17823" lon="1.75082">
        <ele>162.6</ele>
        <time>2021-08-17T15:12:32Z</time>
      </trkpt>
      <trkpt lat="44.17853" lon="1.75098">
        <ele>163.56</ele>
        <time>2021-08-17T15:12:41Z</time>
      </trkpt>
      <trkpt lat="44.17876" lon="1.751">
        <ele>164.52</ele>
        <time>2021-08-17T15:12:48Z</time>
      </trkpt>
      <trkpt lat="44.17899" lon="1.75105">
        <ele>165</ele>
        <time>2021-08-17T15:12:56Z</time>
      </trkpt>
      <trkpt lat="44.17908" lon="1.75107">
        <ele>165</ele>
        <time>2021-08-17T15:12:58Z</time>
      </trkpt>
      <trkpt lat="44.17912" lon="1.75107">
        <ele>163.08</ele>
        <time>2021-08-17T15:12:59Z</time>
      </trkpt>
      <trkpt lat="44.17918" lon="1.75109">
        <ele>163.08</ele>
        <time>2021-08-17T15:13:00Z</time>
      </trkpt>
      <trkpt lat="44.17922" lon="1.75112">
        <ele>162.6</ele>
        <time>2021-08-17T15:13:01Z</time>
      </trkpt>
      <trkpt lat="44.17926" lon="1.75117">
        <ele>162.12</ele>
        <time>2021-08-17T15:13:02Z</time>
      </trkpt>
      <trkpt lat="44.17929" lon="1.75124">
        <ele>161.64</ele>
        <time>2021-08-17T15:13:03Z</time>
      </trkpt>
      <trkpt lat="44.17933" lon="1.75133">
        <ele>159.72</ele>
        <time>2021-08-17T15:13:04Z</time>
      </trkpt>
      <trkpt lat="44.17937" lon="1.75141">
        <ele>159.24</ele>
        <time>2021-08-17T15:13:05Z</time>
      </trkpt>
      <trkpt lat="44.17946" lon="1.75163">
        <ele>156.35</ele>
        <time>2021-08-17T15:13:07Z</time>
      </trkpt>
      <trkpt lat="44.17963" lon="1.75209">
        <ele>152.99</ele>
        <time>2021-08-17T15:13:11Z</time>
      </trkpt>
      <trkpt lat="44.17968" lon="1.7522">
        <ele>152.99</ele>
        <time>2021-08-17T15:13:12Z</time>
      </trkpt>
      <trkpt lat="44.17984" lon="1.75262">
        <ele>152.99</ele>
        <time>2021-08-17T15:13:16Z</time>
      </trkpt>
      <trkpt lat="44.17985" lon="1.75271">
        <ele>152.99</ele>
        <time>2021-08-17T15:13:17Z</time>
      </trkpt>
      <trkpt lat="44.17986" lon="1.75281">
        <ele>152.99</ele>
        <time>2021-08-17T15:13:18Z</time>
      </trkpt>
      <trkpt lat="44.17987" lon="1.75289">
        <ele>152.99</ele>
        <time>2021-08-17T15:13:19Z</time>
      </trkpt>
      <trkpt lat="44.17989" lon="1.75298">
        <ele>152.99</ele>
        <time>2021-08-17T15:13:20Z</time>
      </trkpt>
      <trkpt lat="44.1799" lon="1.75306">
        <ele>152.99</ele>
        <time>2021-08-17T15:13:21Z</time>
      </trkpt>
      <trkpt lat="44.17995" lon="1.7533">
        <ele>154.43</ele>
        <time>2021-08-17T15:13:24Z</time>
      </trkpt>
      <trkpt lat="44.18002" lon="1.75373">
        <ele>154.91</ele>
        <time>2021-08-17T15:13:30Z</time>
      </trkpt>
      <trkpt lat="44.18019" lon="1.75439">
        <ele>155.87</ele>
        <time>2021-08-17T15:13:40Z</time>
      </trkpt>
      <trkpt lat="44.18019" lon="1.75445">
        <ele>155.87</ele>
        <time>2021-08-17T15:13:41Z</time>
      </trkpt>
      <trkpt lat="44.1802" lon="1.75458">
        <ele>155.87</ele>
        <time>2021-08-17T15:13:43Z</time>
      </trkpt>
      <trkpt lat="44.18015" lon="1.75506">
        <ele>157.31</ele>
        <time>2021-08-17T15:13:52Z</time>
      </trkpt>
      <trkpt lat="44.18008" lon="1.75545">
        <ele>158.27</ele>
        <time>2021-08-17T15:14:01Z</time>
      </trkpt>
      <trkpt lat="44.18002" lon="1.75582">
        <ele>159.72</ele>
        <time>2021-08-17T15:14:10Z</time>
      </trkpt>
      <trkpt lat="44.17998" lon="1.75587">
        <ele>159.72</ele>
        <time>2021-08-17T15:14:12Z</time>
      </trkpt>
      <trkpt lat="44.17995" lon="1.75588">
        <ele>159.72</ele>
        <time>2021-08-17T15:14:13Z</time>
      </trkpt>
      <trkpt lat="44.17992" lon="1.75588">
        <ele>159.72</ele>
        <time>2021-08-17T15:14:14Z</time>
      </trkpt>
      <trkpt lat="44.17989" lon="1.75588">
        <ele>159.72</ele>
        <time>2021-08-17T15:14:15Z</time>
      </trkpt>
      <trkpt lat="44.17987" lon="1.75587">
        <ele>159.72</ele>
        <time>2021-08-17T15:14:16Z</time>
      </trkpt>
      <trkpt lat="44.17984" lon="1.75586">
        <ele>159.72</ele>
        <time>2021-08-17T15:14:17Z</time>
      </trkpt>
      <trkpt lat="44.17982" lon="1.75584">
        <ele>160.68</ele>
        <time>2021-08-17T15:14:18Z</time>
      </trkpt>
      <trkpt lat="44.17979" lon="1.75582">
        <ele>160.68</ele>
        <time>2021-08-17T15:14:19Z</time>
      </trkpt>
      <trkpt lat="44.17977" lon="1.7558">
        <ele>160.68</ele>
        <time>2021-08-17T15:14:20Z</time>
      </trkpt>
      <trkpt lat="44.17975" lon="1.75578">
        <ele>160.68</ele>
        <time>2021-08-17T15:14:21Z</time>
      </trkpt>
      <trkpt lat="44.17962" lon="1.75566">
        <ele>161.64</ele>
        <time>2021-08-17T15:14:29Z</time>
      </trkpt>
      <trkpt lat="44.1795" lon="1.75555">
        <ele>163.56</ele>
        <time>2021-08-17T15:14:38Z</time>
      </trkpt>
      <trkpt lat="44.17942" lon="1.75546">
        <ele>165.48</ele>
        <time>2021-08-17T15:14:47Z</time>
      </trkpt>
      <trkpt lat="44.17941" lon="1.75544">
        <ele>165.96</ele>
        <time>2021-08-17T15:14:49Z</time>
      </trkpt>
      <trkpt lat="44.1794" lon="1.75543">
        <ele>165.96</ele>
        <time>2021-08-17T15:14:50Z</time>
      </trkpt>
      <trkpt lat="44.17938" lon="1.75541">
        <ele>166.45</ele>
        <time>2021-08-17T15:14:52Z</time>
      </trkpt>
      <trkpt lat="44.17937" lon="1.7554">
        <ele>166.45</ele>
        <time>2021-08-17T15:14:53Z</time>
      </trkpt>
      <trkpt lat="44.17936" lon="1.75539">
        <ele>166.93</ele>
        <time>2021-08-17T15:14:54Z</time>
      </trkpt>
      <trkpt lat="44.17935" lon="1.75539">
        <ele>166.93</ele>
        <time>2021-08-17T15:14:55Z</time>
      </trkpt>
      <trkpt lat="44.17934" lon="1.75538">
        <ele>167.41</ele>
        <time>2021-08-17T15:14:56Z</time>
      </trkpt>
      <trkpt lat="44.17933" lon="1.75537">
        <ele>167.41</ele>
        <time>2021-08-17T15:14:57Z</time>
      </trkpt>
      <trkpt lat="44.17931" lon="1.75536">
        <ele>167.41</ele>
        <time>2021-08-17T15:14:58Z</time>
      </trkpt>
      <trkpt lat="44.1793" lon="1.75535">
        <ele>167.89</ele>
        <time>2021-08-17T15:14:59Z</time>
      </trkpt>
      <trkpt lat="44.17929" lon="1.75533">
        <ele>167.89</ele>
        <time>2021-08-17T15:15:00Z</time>
      </trkpt>
      <trkpt lat="44.17928" lon="1.75532">
        <ele>167.89</ele>
        <time>2021-08-17T15:15:01Z</time>
      </trkpt>
      <trkpt lat="44.17927" lon="1.75531">
        <ele>167.89</ele>
        <time>2021-08-17T15:15:02Z</time>
      </trkpt>
      <trkpt lat="44.17926" lon="1.7553">
        <ele>167.89</ele>
        <time>2021-08-17T15:15:03Z</time>
      </trkpt>
      <trkpt lat="44.17924" lon="1.75528">
        <ele>167.89</ele>
        <time>2021-08-17T15:15:04Z</time>
      </trkpt>
      <trkpt lat="44.17923" lon="1.75525">
        <ele>167.89</ele>
        <time>2021-08-17T15:15:05Z</time>
      </trkpt>
      <trkpt lat="44.17921" lon="1.75523">
        <ele>167.89</ele>
        <time>2021-08-17T15:15:06Z</time>
      </trkpt>
      <trkpt lat="44.17919" lon="1.75521">
        <ele>167.89</ele>
        <time>2021-08-17T15:15:07Z</time>
      </trkpt>
      <trkpt lat="44.17906" lon="1.75507">
        <ele>167.89</ele>
        <time>2021-08-17T15:15:13Z</time>
      </trkpt>
      <trkpt lat="44.17893" lon="1.75494">
        <ele>167.89</ele>
        <time>2021-08-17T15:15:20Z</time>
      </trkpt>
      <trkpt lat="44.17874" lon="1.75468">
        <ele>167.89</ele>
        <time>2021-08-17T15:15:27Z</time>
      </trkpt>
      <trkpt lat="44.17856" lon="1.75431">
        <ele>167.89</ele>
        <time>2021-08-17T15:15:35Z</time>
      </trkpt>
      <trkpt lat="44.17838" lon="1.75398">
        <ele>168.85</ele>
        <time>2021-08-17T15:15:43Z</time>
      </trkpt>
      <trkpt lat="44.17831" lon="1.7539">
        <ele>168.85</ele>
        <time>2021-08-17T15:15:45Z</time>
      </trkpt>
      <trkpt lat="44.17799" lon="1.75352">
        <ele>168.85</ele>
        <time>2021-08-17T15:15:56Z</time>
      </trkpt>
      <trkpt lat="44.17766" lon="1.75316">
        <ele>169.33</ele>
        <time>2021-08-17T15:16:06Z</time>
      </trkpt>
      <trkpt lat="44.17763" lon="1.75311">
        <ele>169.81</ele>
        <time>2021-08-17T15:16:07Z</time>
      </trkpt>
      <trkpt lat="44.17741" lon="1.75271">
        <ele>169.81</ele>
        <time>2021-08-17T15:16:15Z</time>
      </trkpt>
      <trkpt lat="44.17724" lon="1.75246">
        <ele>170.29</ele>
        <time>2021-08-17T15:16:22Z</time>
      </trkpt>
      <trkpt lat="44.17702" lon="1.75229">
        <ele>171.25</ele>
        <time>2021-08-17T15:16:29Z</time>
      </trkpt>
      <trkpt lat="44.17671" lon="1.75212">
        <ele>171.73</ele>
        <time>2021-08-17T15:16:38Z</time>
      </trkpt>
      <trkpt lat="44.17642" lon="1.752">
        <ele>172.21</ele>
        <time>2021-08-17T15:16:46Z</time>
      </trkpt>
      <trkpt lat="44.17609" lon="1.75191">
        <ele>172.21</ele>
        <time>2021-08-17T15:16:55Z</time>
      </trkpt>
      <trkpt lat="44.1759" lon="1.75187">
        <ele>172.69</ele>
        <time>2021-08-17T15:17:00Z</time>
      </trkpt>
      <trkpt lat="44.17573" lon="1.7518">
        <ele>172.69</ele>
        <time>2021-08-17T15:17:04Z</time>
      </trkpt>
      <trkpt lat="44.17531" lon="1.75174">
        <ele>172.69</ele>
        <time>2021-08-17T15:17:12Z</time>
      </trkpt>
      <trkpt lat="44.17525" lon="1.75174">
        <ele>172.69</ele>
        <time>2021-08-17T15:17:13Z</time>
      </trkpt>
      <trkpt lat="44.1752" lon="1.75175">
        <ele>172.69</ele>
        <time>2021-08-17T15:17:14Z</time>
      </trkpt>
      <trkpt lat="44.17472" lon="1.75182">
        <ele>170.77</ele>
        <time>2021-08-17T15:17:22Z</time>
      </trkpt>
      <trkpt lat="44.1746" lon="1.75181">
        <ele>170.77</ele>
        <time>2021-08-17T15:17:24Z</time>
      </trkpt>
      <trkpt lat="44.17454" lon="1.75179">
        <ele>170.29</ele>
        <time>2021-08-17T15:17:25Z</time>
      </trkpt>
      <trkpt lat="44.17405" lon="1.75157">
        <ele>169.81</ele>
        <time>2021-08-17T15:17:33Z</time>
      </trkpt>
      <trkpt lat="44.17321" lon="1.75129">
        <ele>167.89</ele>
        <time>2021-08-17T15:17:46Z</time>
      </trkpt>
      <trkpt lat="44.17272" lon="1.75107">
        <ele>166.45</ele>
        <time>2021-08-17T15:17:54Z</time>
      </trkpt>
      <trkpt lat="44.17259" lon="1.75103">
        <ele>166.45</ele>
        <time>2021-08-17T15:17:56Z</time>
      </trkpt>
      <trkpt lat="44.17253" lon="1.75102">
        <ele>166.45</ele>
        <time>2021-08-17T15:17:57Z</time>
      </trkpt>
      <trkpt lat="44.17247" lon="1.75103">
        <ele>166.45</ele>
        <time>2021-08-17T15:17:58Z</time>
      </trkpt>
      <trkpt lat="44.17188" lon="1.75112">
        <ele>165.48</ele>
        <time>2021-08-17T15:18:08Z</time>
      </trkpt>
      <trkpt lat="44.17166" lon="1.75116">
        <ele>165.48</ele>
        <time>2021-08-17T15:18:12Z</time>
      </trkpt>
      <trkpt lat="44.1716" lon="1.75115">
        <ele>165.48</ele>
        <time>2021-08-17T15:18:13Z</time>
      </trkpt>
      <trkpt lat="44.17125" lon="1.75113">
        <ele>165.96</ele>
        <time>2021-08-17T15:18:20Z</time>
      </trkpt>
      <trkpt lat="44.17101" lon="1.7511">
        <ele>167.89</ele>
        <time>2021-08-17T15:18:27Z</time>
      </trkpt>
      <trkpt lat="44.17079" lon="1.75109">
        <ele>168.37</ele>
        <time>2021-08-17T15:18:34Z</time>
      </trkpt>
      <trkpt lat="44.1705" lon="1.75105">
        <ele>168.85</ele>
        <time>2021-08-17T15:18:42Z</time>
      </trkpt>
      <trkpt lat="44.17022" lon="1.75095">
        <ele>167.41</ele>
        <time>2021-08-17T15:18:48Z</time>
      </trkpt>
      <trkpt lat="44.16977" lon="1.75078">
        <ele>165.96</ele>
        <time>2021-08-17T15:18:56Z</time>
      </trkpt>
      <trkpt lat="44.16927" lon="1.7507">
        <ele>165</ele>
        <time>2021-08-17T15:19:04Z</time>
      </trkpt>
      <trkpt lat="44.16896" lon="1.75069">
        <ele>162.6</ele>
        <time>2021-08-17T15:19:09Z</time>
      </trkpt>
      <trkpt lat="44.16855" lon="1.75078">
        <ele>161.16</ele>
        <time>2021-08-17T15:19:15Z</time>
      </trkpt>
      <trkpt lat="44.16809" lon="1.75094">
        <ele>157.79</ele>
        <time>2021-08-17T15:19:21Z</time>
      </trkpt>
      <trkpt lat="44.16802" lon="1.75096">
        <ele>157.31</ele>
        <time>2021-08-17T15:19:22Z</time>
      </trkpt>
      <trkpt lat="44.1678" lon="1.75105">
        <ele>155.39</ele>
        <time>2021-08-17T15:19:27Z</time>
      </trkpt>
      <trkpt lat="44.16769" lon="1.7511">
        <ele>154.91</ele>
        <time>2021-08-17T15:19:30Z</time>
      </trkpt>
      <trkpt lat="44.16766" lon="1.75114">
        <ele>154.43</ele>
        <time>2021-08-17T15:19:31Z</time>
      </trkpt>
      <trkpt lat="44.16764" lon="1.75119">
        <ele>154.43</ele>
        <time>2021-08-17T15:19:32Z</time>
      </trkpt>
      <trkpt lat="44.16762" lon="1.75124">
        <ele>154.43</ele>
        <time>2021-08-17T15:19:33Z</time>
      </trkpt>
      <trkpt lat="44.16761" lon="1.75127">
        <ele>154.43</ele>
        <time>2021-08-17T15:19:34Z</time>
      </trkpt>
      <trkpt lat="44.16761" lon="1.7513">
        <ele>154.43</ele>
        <time>2021-08-17T15:19:35Z</time>
      </trkpt>
      <trkpt lat="44.16761" lon="1.75131">
        <ele>155.39</ele>
        <time>2021-08-17T15:19:36Z</time>
      </trkpt>
      <trkpt lat="44.1676" lon="1.75132">
        <ele>155.39</ele>
        <time>2021-08-17T15:19:37Z</time>
      </trkpt>
      <trkpt lat="44.16758" lon="1.75138">
        <ele>156.83</ele>
        <time>2021-08-17T15:19:41Z</time>
      </trkpt>
      <trkpt lat="44.16755" lon="1.75149">
        <ele>158.27</ele>
        <time>2021-08-17T15:19:49Z</time>
      </trkpt>
      <trkpt lat="44.16755" lon="1.75157">
        <ele>158.75</ele>
        <time>2021-08-17T15:19:55Z</time>
      </trkpt>
      <trkpt lat="44.16755" lon="1.75158">
        <ele>159.24</ele>
        <time>2021-08-17T15:19:56Z</time>
      </trkpt>
      <trkpt lat="44.16752" lon="1.75169">
        <ele>160.68</ele>
        <time>2021-08-17T15:20:03Z</time>
      </trkpt>
      <trkpt lat="44.16744" lon="1.75181">
        <ele>160.68</ele>
        <time>2021-08-17T15:20:12Z</time>
      </trkpt>
      <trkpt lat="44.16736" lon="1.75191">
        <ele>161.64</ele>
        <time>2021-08-17T15:20:19Z</time>
      </trkpt>
      <trkpt lat="44.16729" lon="1.75199">
        <ele>162.6</ele>
        <time>2021-08-17T15:20:26Z</time>
      </trkpt>
      <trkpt lat="44.16727" lon="1.75201">
        <ele>163.08</ele>
        <time>2021-08-17T15:20:31Z</time>
      </trkpt>
      <trkpt lat="44.16722" lon="1.75206">
        <ele>163.56</ele>
        <time>2021-08-17T15:20:37Z</time>
      </trkpt>
      <trkpt lat="44.16716" lon="1.75211">
        <ele>165.48</ele>
        <time>2021-08-17T15:20:46Z</time>
      </trkpt>
      <trkpt lat="44.16712" lon="1.75214">
        <ele>166.45</ele>
        <time>2021-08-17T15:20:55Z</time>
      </trkpt>
      <trkpt lat="44.16707" lon="1.75219">
        <ele>167.89</ele>
        <time>2021-08-17T15:21:03Z</time>
      </trkpt>
      <trkpt lat="44.16703" lon="1.75224">
        <ele>169.33</ele>
        <time>2021-08-17T15:21:12Z</time>
      </trkpt>
      <trkpt lat="44.16699" lon="1.75228">
        <ele>169.81</ele>
        <time>2021-08-17T15:21:22Z</time>
      </trkpt>
      <trkpt lat="44.16693" lon="1.75233">
        <ele>171.25</ele>
        <time>2021-08-17T15:21:31Z</time>
      </trkpt>
      <trkpt lat="44.16686" lon="1.75238">
        <ele>172.21</ele>
        <time>2021-08-17T15:21:40Z</time>
      </trkpt>
      <trkpt lat="44.16684" lon="1.75239">
        <ele>172.21</ele>
        <time>2021-08-17T15:21:44Z</time>
      </trkpt>
      <trkpt lat="44.16683" lon="1.7524">
        <ele>172.21</ele>
        <time>2021-08-17T15:21:45Z</time>
      </trkpt>
      <trkpt lat="44.16682" lon="1.75242">
        <ele>172.21</ele>
        <time>2021-08-17T15:21:46Z</time>
      </trkpt>
      <trkpt lat="44.16672" lon="1.75254">
        <ele>173.66</ele>
        <time>2021-08-17T15:21:54Z</time>
      </trkpt>
      <trkpt lat="44.16663" lon="1.75267">
        <ele>174.62</ele>
        <time>2021-08-17T15:22:02Z</time>
      </trkpt>
      <trkpt lat="44.16652" lon="1.75285">
        <ele>174.62</ele>
        <time>2021-08-17T15:22:09Z</time>
      </trkpt>
      <trkpt lat="44.16644" lon="1.75304">
        <ele>175.58</ele>
        <time>2021-08-17T15:22:16Z</time>
      </trkpt>
      <trkpt lat="44.16631" lon="1.75319">
        <ele>175.58</ele>
        <time>2021-08-17T15:22:23Z</time>
      </trkpt>
      <trkpt lat="44.16625" lon="1.75325">
        <ele>174.14</ele>
        <time>2021-08-17T15:22:25Z</time>
      </trkpt>
      <trkpt lat="44.16623" lon="1.75331">
        <ele>173.66</ele>
        <time>2021-08-17T15:22:26Z</time>
      </trkpt>
      <trkpt lat="44.16618" lon="1.75343">
        <ele>173.17</ele>
        <time>2021-08-17T15:22:28Z</time>
      </trkpt>
      <trkpt lat="44.16615" lon="1.75347">
        <ele>173.66</ele>
        <time>2021-08-17T15:22:29Z</time>
      </trkpt>
      <trkpt lat="44.16613" lon="1.75351">
        <ele>173.66</ele>
        <time>2021-08-17T15:22:30Z</time>
      </trkpt>
      <trkpt lat="44.16611" lon="1.75354">
        <ele>173.66</ele>
        <time>2021-08-17T15:22:31Z</time>
      </trkpt>
      <trkpt lat="44.1661" lon="1.75356">
        <ele>173.66</ele>
        <time>2021-08-17T15:22:32Z</time>
      </trkpt>
      <trkpt lat="44.16604" lon="1.75362">
        <ele>174.62</ele>
        <time>2021-08-17T15:22:35Z</time>
      </trkpt>
      <trkpt lat="44.16582" lon="1.75373">
        <ele>174.62</ele>
        <time>2021-08-17T15:22:41Z</time>
      </trkpt>
      <trkpt lat="44.16569" lon="1.75379">
        <ele>174.62</ele>
        <time>2021-08-17T15:22:44Z</time>
      </trkpt>
      <trkpt lat="44.16566" lon="1.75382">
        <ele>174.62</ele>
        <time>2021-08-17T15:22:45Z</time>
      </trkpt>
      <trkpt lat="44.16553" lon="1.75391">
        <ele>177.02</ele>
        <time>2021-08-17T15:22:50Z</time>
      </trkpt>
      <trkpt lat="44.16532" lon="1.75401">
        <ele>177.02</ele>
        <time>2021-08-17T15:22:56Z</time>
      </trkpt>
      <trkpt lat="44.1653" lon="1.75401">
        <ele>177.02</ele>
        <time>2021-08-17T15:22:57Z</time>
      </trkpt>
      <trkpt lat="44.16527" lon="1.754">
        <ele>177.02</ele>
        <time>2021-08-17T15:22:58Z</time>
      </trkpt>
      <trkpt lat="44.16523" lon="1.75401">
        <ele>177.02</ele>
        <time>2021-08-17T15:22:59Z</time>
      </trkpt>
      <trkpt lat="44.16519" lon="1.75402">
        <ele>175.58</ele>
        <time>2021-08-17T15:23:00Z</time>
      </trkpt>
      <trkpt lat="44.16516" lon="1.75403">
        <ele>175.58</ele>
        <time>2021-08-17T15:23:01Z</time>
      </trkpt>
      <trkpt lat="44.16514" lon="1.75405">
        <ele>176.54</ele>
        <time>2021-08-17T15:23:05Z</time>
      </trkpt>
      <trkpt lat="44.16511" lon="1.75405">
        <ele>177.02</ele>
        <time>2021-08-17T15:23:14Z</time>
      </trkpt>
      <trkpt lat="44.1651" lon="1.75405">
        <ele>177.02</ele>
        <time>2021-08-17T15:23:15Z</time>
      </trkpt>
      <trkpt lat="44.165" lon="1.75404">
        <ele>177.5</ele>
        <time>2021-08-17T15:23:20Z</time>
      </trkpt>
      <trkpt lat="44.16497" lon="1.75403">
        <ele>177.5</ele>
        <time>2021-08-17T15:23:21Z</time>
      </trkpt>
      <trkpt lat="44.16482" lon="1.75405">
        <ele>178.94</ele>
        <time>2021-08-17T15:23:28Z</time>
      </trkpt>
      <trkpt lat="44.16463" lon="1.75411">
        <ele>179.42</ele>
        <time>2021-08-17T15:23:36Z</time>
      </trkpt>
      <trkpt lat="44.16462" lon="1.75413">
        <ele>179.9</ele>
        <time>2021-08-17T15:23:41Z</time>
      </trkpt>
      <trkpt lat="44.16456" lon="1.75416">
        <ele>179.9</ele>
        <time>2021-08-17T15:23:48Z</time>
      </trkpt>
      <trkpt lat="44.16444" lon="1.7543">
        <ele>178.94</ele>
        <time>2021-08-17T15:23:54Z</time>
      </trkpt>
      <trkpt lat="44.16435" lon="1.75443">
        <ele>178.94</ele>
        <time>2021-08-17T15:23:59Z</time>
      </trkpt>
      <trkpt lat="44.16421" lon="1.75459">
        <ele>178.94</ele>
        <time>2021-08-17T15:24:05Z</time>
      </trkpt>
      <trkpt lat="44.16402" lon="1.75481">
        <ele>178.46</ele>
        <time>2021-08-17T15:24:12Z</time>
      </trkpt>
      <trkpt lat="44.16387" lon="1.755">
        <ele>178.46</ele>
        <time>2021-08-17T15:24:18Z</time>
      </trkpt>
      <trkpt lat="44.16374" lon="1.7551">
        <ele>178.46</ele>
        <time>2021-08-17T15:24:23Z</time>
      </trkpt>
      <trkpt lat="44.16356" lon="1.75536">
        <ele>177.98</ele>
        <time>2021-08-17T15:24:29Z</time>
      </trkpt>
      <trkpt lat="44.16349" lon="1.75552">
        <ele>177.98</ele>
        <time>2021-08-17T15:24:34Z</time>
      </trkpt>
      <trkpt lat="44.16342" lon="1.75573">
        <ele>176.54</ele>
        <time>2021-08-17T15:24:39Z</time>
      </trkpt>
      <trkpt lat="44.16341" lon="1.75579">
        <ele>176.54</ele>
        <time>2021-08-17T15:24:40Z</time>
      </trkpt>
      <trkpt lat="44.16339" lon="1.75585">
        <ele>176.54</ele>
        <time>2021-08-17T15:24:41Z</time>
      </trkpt>
      <trkpt lat="44.16337" lon="1.7559">
        <ele>176.54</ele>
        <time>2021-08-17T15:24:42Z</time>
      </trkpt>
      <trkpt lat="44.16336" lon="1.75596">
        <ele>176.54</ele>
        <time>2021-08-17T15:24:43Z</time>
      </trkpt>
      <trkpt lat="44.16334" lon="1.75601">
        <ele>176.54</ele>
        <time>2021-08-17T15:24:44Z</time>
      </trkpt>
      <trkpt lat="44.16331" lon="1.75607">
        <ele>175.58</ele>
        <time>2021-08-17T15:24:45Z</time>
      </trkpt>
      <trkpt lat="44.16325" lon="1.75624">
        <ele>173.66</ele>
        <time>2021-08-17T15:24:48Z</time>
      </trkpt>
      <trkpt lat="44.16315" lon="1.7564">
        <ele>170.29</ele>
        <time>2021-08-17T15:24:52Z</time>
      </trkpt>
      <trkpt lat="44.16313" lon="1.75642">
        <ele>169.33</ele>
        <time>2021-08-17T15:24:53Z</time>
      </trkpt>
      <trkpt lat="44.1631" lon="1.75643">
        <ele>168.85</ele>
        <time>2021-08-17T15:24:54Z</time>
      </trkpt>
      <trkpt lat="44.16308" lon="1.75642">
        <ele>167.89</ele>
        <time>2021-08-17T15:24:55Z</time>
      </trkpt>
      <trkpt lat="44.16307" lon="1.7564">
        <ele>167.41</ele>
        <time>2021-08-17T15:24:56Z</time>
      </trkpt>
      <trkpt lat="44.16306" lon="1.75639">
        <ele>166.93</ele>
        <time>2021-08-17T15:24:57Z</time>
      </trkpt>
      <trkpt lat="44.16304" lon="1.75639">
        <ele>165.96</ele>
        <time>2021-08-17T15:24:58Z</time>
      </trkpt>
      <trkpt lat="44.16301" lon="1.75639">
        <ele>165.96</ele>
        <time>2021-08-17T15:24:59Z</time>
      </trkpt>
      <trkpt lat="44.16298" lon="1.75638">
        <ele>165.48</ele>
        <time>2021-08-17T15:25:00Z</time>
      </trkpt>
      <trkpt lat="44.16294" lon="1.75638">
        <ele>164.52</ele>
        <time>2021-08-17T15:25:01Z</time>
      </trkpt>
      <trkpt lat="44.1629" lon="1.75638">
        <ele>164.04</ele>
        <time>2021-08-17T15:25:02Z</time>
      </trkpt>
      <trkpt lat="44.16287" lon="1.75639">
        <ele>163.56</ele>
        <time>2021-08-17T15:25:03Z</time>
      </trkpt>
      <trkpt lat="44.16268" lon="1.75648">
        <ele>161.16</ele>
        <time>2021-08-17T15:25:09Z</time>
      </trkpt>
      <trkpt lat="44.16255" lon="1.75654">
        <ele>158.75</ele>
        <time>2021-08-17T15:25:14Z</time>
      </trkpt>
      <trkpt lat="44.16238" lon="1.75662">
        <ele>156.83</ele>
        <time>2021-08-17T15:25:21Z</time>
      </trkpt>
      <trkpt lat="44.16235" lon="1.75664">
        <ele>156.83</ele>
        <time>2021-08-17T15:25:22Z</time>
      </trkpt>
      <trkpt lat="44.1622" lon="1.75683">
        <ele>155.87</ele>
        <time>2021-08-17T15:25:28Z</time>
      </trkpt>
      <trkpt lat="44.16217" lon="1.75688">
        <ele>155.87</ele>
        <time>2021-08-17T15:25:29Z</time>
      </trkpt>
      <trkpt lat="44.16202" lon="1.75718">
        <ele>157.31</ele>
        <time>2021-08-17T15:25:35Z</time>
      </trkpt>
      <trkpt lat="44.16188" lon="1.75737">
        <ele>155.39</ele>
        <time>2021-08-17T15:25:40Z</time>
      </trkpt>
      <trkpt lat="44.16183" lon="1.75741">
        <ele>155.39</ele>
        <time>2021-08-17T15:25:41Z</time>
      </trkpt>
      <trkpt lat="44.16171" lon="1.75756">
        <ele>153.95</ele>
        <time>2021-08-17T15:25:44Z</time>
      </trkpt>
      <trkpt lat="44.16166" lon="1.75761">
        <ele>153.47</ele>
        <time>2021-08-17T15:25:45Z</time>
      </trkpt>
      <trkpt lat="44.16161" lon="1.75766">
        <ele>153.47</ele>
        <time>2021-08-17T15:25:46Z</time>
      </trkpt>
      <trkpt lat="44.16157" lon="1.75772">
        <ele>153.47</ele>
        <time>2021-08-17T15:25:47Z</time>
      </trkpt>
      <trkpt lat="44.16153" lon="1.75777">
        <ele>153.47</ele>
        <time>2021-08-17T15:25:48Z</time>
      </trkpt>
      <trkpt lat="44.16149" lon="1.75782">
        <ele>153.47</ele>
        <time>2021-08-17T15:25:49Z</time>
      </trkpt>
      <trkpt lat="44.16146" lon="1.75786">
        <ele>153.47</ele>
        <time>2021-08-17T15:25:50Z</time>
      </trkpt>
      <trkpt lat="44.16141" lon="1.7579">
        <ele>153.47</ele>
        <time>2021-08-17T15:25:51Z</time>
      </trkpt>
      <trkpt lat="44.16124" lon="1.75808">
        <ele>152.51</ele>
        <time>2021-08-17T15:25:55Z</time>
      </trkpt>
      <trkpt lat="44.1612" lon="1.75815">
        <ele>152.51</ele>
        <time>2021-08-17T15:25:56Z</time>
      </trkpt>
      <trkpt lat="44.16117" lon="1.75821">
        <ele>151.54</ele>
        <time>2021-08-17T15:25:57Z</time>
      </trkpt>
      <trkpt lat="44.1611" lon="1.75835">
        <ele>151.06</ele>
        <time>2021-08-17T15:25:59Z</time>
      </trkpt>
      <trkpt lat="44.16097" lon="1.75854">
        <ele>150.58</ele>
        <time>2021-08-17T15:26:02Z</time>
      </trkpt>
      <trkpt lat="44.16093" lon="1.75858">
        <ele>150.58</ele>
        <time>2021-08-17T15:26:03Z</time>
      </trkpt>
      <trkpt lat="44.16083" lon="1.75867">
        <ele>149.14</ele>
        <time>2021-08-17T15:26:05Z</time>
      </trkpt>
      <trkpt lat="44.16078" lon="1.75875">
        <ele>148.66</ele>
        <time>2021-08-17T15:26:06Z</time>
      </trkpt>
      <trkpt lat="44.16069" lon="1.7589">
        <ele>148.18</ele>
        <time>2021-08-17T15:26:08Z</time>
      </trkpt>
      <trkpt lat="44.16064" lon="1.75896">
        <ele>148.18</ele>
        <time>2021-08-17T15:26:09Z</time>
      </trkpt>
      <trkpt lat="44.16058" lon="1.75899">
        <ele>148.18</ele>
        <time>2021-08-17T15:26:10Z</time>
      </trkpt>
      <trkpt lat="44.16052" lon="1.759">
        <ele>148.18</ele>
        <time>2021-08-17T15:26:11Z</time>
      </trkpt>
      <trkpt lat="44.16046" lon="1.75901">
        <ele>148.18</ele>
        <time>2021-08-17T15:26:12Z</time>
      </trkpt>
      <trkpt lat="44.1604" lon="1.75902">
        <ele>148.18</ele>
        <time>2021-08-17T15:26:13Z</time>
      </trkpt>
      <trkpt lat="44.16035" lon="1.75902">
        <ele>148.18</ele>
        <time>2021-08-17T15:26:14Z</time>
      </trkpt>
      <trkpt lat="44.16031" lon="1.75902">
        <ele>148.18</ele>
        <time>2021-08-17T15:26:15Z</time>
      </trkpt>
      <trkpt lat="44.16026" lon="1.75901">
        <ele>149.62</ele>
        <time>2021-08-17T15:26:16Z</time>
      </trkpt>
      <trkpt lat="44.16022" lon="1.759">
        <ele>149.62</ele>
        <time>2021-08-17T15:26:17Z</time>
      </trkpt>
      <trkpt lat="44.15991" lon="1.75893">
        <ele>151.54</ele>
        <time>2021-08-17T15:26:26Z</time>
      </trkpt>
      <trkpt lat="44.15964" lon="1.75888">
        <ele>151.54</ele>
        <time>2021-08-17T15:26:34Z</time>
      </trkpt>
      <trkpt lat="44.15944" lon="1.75881">
        <ele>152.51</ele>
        <time>2021-08-17T15:26:40Z</time>
      </trkpt>
      <trkpt lat="44.15911" lon="1.7587">
        <ele>152.51</ele>
        <time>2021-08-17T15:26:49Z</time>
      </trkpt>
      <trkpt lat="44.1587" lon="1.75855">
        <ele>151.06</ele>
        <time>2021-08-17T15:26:57Z</time>
      </trkpt>
      <trkpt lat="44.15855" lon="1.75854">
        <ele>151.06</ele>
        <time>2021-08-17T15:27:00Z</time>
      </trkpt>
      <trkpt lat="44.15851" lon="1.75854">
        <ele>151.06</ele>
        <time>2021-08-17T15:27:01Z</time>
      </trkpt>
      <trkpt lat="44.15847" lon="1.75855">
        <ele>151.06</ele>
        <time>2021-08-17T15:27:02Z</time>
      </trkpt>
      <trkpt lat="44.15803" lon="1.75864">
        <ele>150.58</ele>
        <time>2021-08-17T15:27:12Z</time>
      </trkpt>
      <trkpt lat="44.15798" lon="1.75865">
        <ele>150.58</ele>
        <time>2021-08-17T15:27:13Z</time>
      </trkpt>
      <trkpt lat="44.15771" lon="1.75869">
        <ele>149.62</ele>
        <time>2021-08-17T15:27:18Z</time>
      </trkpt>
      <trkpt lat="44.15766" lon="1.75869">
        <ele>149.62</ele>
        <time>2021-08-17T15:27:19Z</time>
      </trkpt>
      <trkpt lat="44.15761" lon="1.75869">
        <ele>149.62</ele>
        <time>2021-08-17T15:27:20Z</time>
      </trkpt>
      <trkpt lat="44.15739" lon="1.75873">
        <ele>149.62</ele>
        <time>2021-08-17T15:27:27Z</time>
      </trkpt>
      <trkpt lat="44.15712" lon="1.75881">
        <ele>149.14</ele>
        <time>2021-08-17T15:27:33Z</time>
      </trkpt>
      <trkpt lat="44.15698" lon="1.75886">
        <ele>148.18</ele>
        <time>2021-08-17T15:27:36Z</time>
      </trkpt>
      <trkpt lat="44.15693" lon="1.75885">
        <ele>148.18</ele>
        <time>2021-08-17T15:27:37Z</time>
      </trkpt>
      <trkpt lat="44.15688" lon="1.75882">
        <ele>147.7</ele>
        <time>2021-08-17T15:27:38Z</time>
      </trkpt>
      <trkpt lat="44.15641" lon="1.75845">
        <ele>145.3</ele>
        <time>2021-08-17T15:27:47Z</time>
      </trkpt>
      <trkpt lat="44.15629" lon="1.75835">
        <ele>144.82</ele>
        <time>2021-08-17T15:27:49Z</time>
      </trkpt>
      <trkpt lat="44.15589" lon="1.75814">
        <ele>143.37</ele>
        <time>2021-08-17T15:27:55Z</time>
      </trkpt>
      <trkpt lat="44.15533" lon="1.75798">
        <ele>141.93</ele>
        <time>2021-08-17T15:28:03Z</time>
      </trkpt>
      <trkpt lat="44.15475" lon="1.75776">
        <ele>140.97</ele>
        <time>2021-08-17T15:28:12Z</time>
      </trkpt>
      <trkpt lat="44.15454" lon="1.75765">
        <ele>140.49</ele>
        <time>2021-08-17T15:28:16Z</time>
      </trkpt>
      <trkpt lat="44.15449" lon="1.75762">
        <ele>140.49</ele>
        <time>2021-08-17T15:28:17Z</time>
      </trkpt>
      <trkpt lat="44.15422" lon="1.75749">
        <ele>140.01</ele>
        <time>2021-08-17T15:28:22Z</time>
      </trkpt>
      <trkpt lat="44.15415" lon="1.75747">
        <ele>139.53</ele>
        <time>2021-08-17T15:28:23Z</time>
      </trkpt>
      <trkpt lat="44.15366" lon="1.75723">
        <ele>139.53</ele>
        <time>2021-08-17T15:28:32Z</time>
      </trkpt>
      <trkpt lat="44.15356" lon="1.75717">
        <ele>139.53</ele>
        <time>2021-08-17T15:28:34Z</time>
      </trkpt>
      <trkpt lat="44.15323" lon="1.75703">
        <ele>139.53</ele>
        <time>2021-08-17T15:28:42Z</time>
      </trkpt>
      <trkpt lat="44.15308" lon="1.75698">
        <ele>141.45</ele>
        <time>2021-08-17T15:28:48Z</time>
      </trkpt>
      <trkpt lat="44.15293" lon="1.75703">
        <ele>141.45</ele>
        <time>2021-08-17T15:28:54Z</time>
      </trkpt>
      <trkpt lat="44.15291" lon="1.75707">
        <ele>141.45</ele>
        <time>2021-08-17T15:28:55Z</time>
      </trkpt>
      <trkpt lat="44.1528" lon="1.75727">
        <ele>142.89</ele>
        <time>2021-08-17T15:29:02Z</time>
      </trkpt>
      <trkpt lat="44.15269" lon="1.75742">
        <ele>143.85</ele>
        <time>2021-08-17T15:29:09Z</time>
      </trkpt>
      <trkpt lat="44.15268" lon="1.75742">
        <ele>143.85</ele>
        <time>2021-08-17T15:29:10Z</time>
      </trkpt>
      <trkpt lat="44.15276" lon="1.75731">
        <ele>143.85</ele>
        <time>2021-08-17T15:29:17Z</time>
      </trkpt>
      <trkpt lat="44.1528" lon="1.75728">
        <ele>143.85</ele>
        <time>2021-08-17T15:29:25Z</time>
      </trkpt>
      <trkpt lat="44.15285" lon="1.75725">
        <ele>143.85</ele>
        <time>2021-08-17T15:29:29Z</time>
      </trkpt>
      <trkpt lat="44.15286" lon="1.75724">
        <ele>142.41</ele>
        <time>2021-08-17T15:29:31Z</time>
      </trkpt>
      <trkpt lat="44.15287" lon="1.75723">
        <ele>142.41</ele>
        <time>2021-08-17T15:29:33Z</time>
      </trkpt>
      <trkpt lat="44.15288" lon="1.75722">
        <ele>142.41</ele>
        <time>2021-08-17T15:29:34Z</time>
      </trkpt>
      <trkpt lat="44.15289" lon="1.75721">
        <ele>142.41</ele>
        <time>2021-08-17T15:29:35Z</time>
      </trkpt>
      <trkpt lat="44.15291" lon="1.75718">
        <ele>142.41</ele>
        <time>2021-08-17T15:29:36Z</time>
      </trkpt>
      <trkpt lat="44.15293" lon="1.75715">
        <ele>142.41</ele>
        <time>2021-08-17T15:29:37Z</time>
      </trkpt>
      <trkpt lat="44.15295" lon="1.75711">
        <ele>141.93</ele>
        <time>2021-08-17T15:29:38Z</time>
      </trkpt>
      <trkpt lat="44.15296" lon="1.75706">
        <ele>141.93</ele>
        <time>2021-08-17T15:29:39Z</time>
      </trkpt>
      <trkpt lat="44.15295" lon="1.75701">
        <ele>141.45</ele>
        <time>2021-08-17T15:29:40Z</time>
      </trkpt>
      <trkpt lat="44.15294" lon="1.75697">
        <ele>141.45</ele>
        <time>2021-08-17T15:29:41Z</time>
      </trkpt>
      <trkpt lat="44.15293" lon="1.75694">
        <ele>141.45</ele>
        <time>2021-08-17T15:29:42Z</time>
      </trkpt>
      <trkpt lat="44.15292" lon="1.75691">
        <ele>140.97</ele>
        <time>2021-08-17T15:29:43Z</time>
      </trkpt>
      <trkpt lat="44.15285" lon="1.75683">
        <ele>140.97</ele>
        <time>2021-08-17T15:29:49Z</time>
      </trkpt>
      <trkpt lat="44.15267" lon="1.75677">
        <ele>140.97</ele>
        <time>2021-08-17T15:29:57Z</time>
      </trkpt>
      <trkpt lat="44.15246" lon="1.75669">
        <ele>140.49</ele>
        <time>2021-08-17T15:30:05Z</time>
      </trkpt>
      <trkpt lat="44.15236" lon="1.75665">
        <ele>140.01</ele>
        <time>2021-08-17T15:30:14Z</time>
      </trkpt>
      <trkpt lat="44.15219" lon="1.75661">
        <ele>140.01</ele>
        <time>2021-08-17T15:30:24Z</time>
      </trkpt>
      <trkpt lat="44.15214" lon="1.75658">
        <ele>140.01</ele>
        <time>2021-08-17T15:30:28Z</time>
      </trkpt>
      <trkpt lat="44.15212" lon="1.75658">
        <ele>140.01</ele>
        <time>2021-08-17T15:30:29Z</time>
      </trkpt>
      <trkpt lat="44.15209" lon="1.75658">
        <ele>140.01</ele>
        <time>2021-08-17T15:30:30Z</time>
      </trkpt>
      <trkpt lat="44.15207" lon="1.75659">
        <ele>140.01</ele>
        <time>2021-08-17T15:30:31Z</time>
      </trkpt>
      <trkpt lat="44.15205" lon="1.75659">
        <ele>140.01</ele>
        <time>2021-08-17T15:30:32Z</time>
      </trkpt>
      <trkpt lat="44.15189" lon="1.75661">
        <ele>140.49</ele>
        <time>2021-08-17T15:30:41Z</time>
      </trkpt>
      <trkpt lat="44.15183" lon="1.75665">
        <ele>141.45</ele>
        <time>2021-08-17T15:30:48Z</time>
      </trkpt>
      <trkpt lat="44.15178" lon="1.7567">
        <ele>141.93</ele>
        <time>2021-08-17T15:30:56Z</time>
      </trkpt>
      <trkpt lat="44.15175" lon="1.75672">
        <ele>142.41</ele>
        <time>2021-08-17T15:31:06Z</time>
      </trkpt>
      <trkpt lat="44.15171" lon="1.75676">
        <ele>143.37</ele>
        <time>2021-08-17T15:31:14Z</time>
      </trkpt>
      <trkpt lat="44.15163" lon="1.75678">
        <ele>143.37</ele>
        <time>2021-08-17T15:31:20Z</time>
      </trkpt>
      <trkpt lat="44.15148" lon="1.75676">
        <ele>143.37</ele>
        <time>2021-08-17T15:31:27Z</time>
      </trkpt>
      <trkpt lat="44.15132" lon="1.75675">
        <ele>143.37</ele>
        <time>2021-08-17T15:31:34Z</time>
      </trkpt>
      <trkpt lat="44.15122" lon="1.7567">
        <ele>143.37</ele>
        <time>2021-08-17T15:31:38Z</time>
      </trkpt>
      <trkpt lat="44.15121" lon="1.7567">
        <ele>143.37</ele>
        <time>2021-08-17T15:31:44Z</time>
      </trkpt>
      <trkpt lat="44.15123" lon="1.75669">
        <ele>143.37</ele>
        <time>2021-08-17T15:31:46Z</time>
      </trkpt>
      <trkpt lat="44.15123" lon="1.75668">
        <ele>143.37</ele>
        <time>2021-08-17T15:31:47Z</time>
      </trkpt>
      <trkpt lat="44.15123" lon="1.75665">
        <ele>143.37</ele>
        <time>2021-08-17T15:31:48Z</time>
      </trkpt>
      <trkpt lat="44.15125" lon="1.75654">
        <ele>141.93</ele>
        <time>2021-08-17T15:31:51Z</time>
      </trkpt>
      <trkpt lat="44.15126" lon="1.7565">
        <ele>141.45</ele>
        <time>2021-08-17T15:31:53Z</time>
      </trkpt>
      <trkpt lat="44.15126" lon="1.75648">
        <ele>141.45</ele>
        <time>2021-08-17T15:31:54Z</time>
      </trkpt>
      <trkpt lat="44.15127" lon="1.75646">
        <ele>140.49</ele>
        <time>2021-08-17T15:31:55Z</time>
      </trkpt>
      <trkpt lat="44.15135" lon="1.75618">
        <ele>138.57</ele>
        <time>2021-08-17T15:32:02Z</time>
      </trkpt>
      <trkpt lat="44.15141" lon="1.75594">
        <ele>137.13</ele>
        <time>2021-08-17T15:32:06Z</time>
      </trkpt>
      <trkpt lat="44.15144" lon="1.75588">
        <ele>136.16</ele>
        <time>2021-08-17T15:32:07Z</time>
      </trkpt>
      <trkpt lat="44.15145" lon="1.75582">
        <ele>136.16</ele>
        <time>2021-08-17T15:32:08Z</time>
      </trkpt>
      <trkpt lat="44.15145" lon="1.75577">
        <ele>136.16</ele>
        <time>2021-08-17T15:32:09Z</time>
      </trkpt>
      <trkpt lat="44.15144" lon="1.7557">
        <ele>135.68</ele>
        <time>2021-08-17T15:32:10Z</time>
      </trkpt>
      <trkpt lat="44.15143" lon="1.75545">
        <ele>135.68</ele>
        <time>2021-08-17T15:32:14Z</time>
      </trkpt>
      <trkpt lat="44.15142" lon="1.75539">
        <ele>135.68</ele>
        <time>2021-08-17T15:32:15Z</time>
      </trkpt>
      <trkpt lat="44.15121" lon="1.7552">
        <ele>135.68</ele>
        <time>2021-08-17T15:32:22Z</time>
      </trkpt>
      <trkpt lat="44.15109" lon="1.75493">
        <ele>135.2</ele>
        <time>2021-08-17T15:32:29Z</time>
      </trkpt>
      <trkpt lat="44.15099" lon="1.75485">
        <ele>135.2</ele>
        <time>2021-08-17T15:32:33Z</time>
      </trkpt>
      <trkpt lat="44.15097" lon="1.75485">
        <ele>135.2</ele>
        <time>2021-08-17T15:32:34Z</time>
      </trkpt>
      <trkpt lat="44.15094" lon="1.75485">
        <ele>135.2</ele>
        <time>2021-08-17T15:32:35Z</time>
      </trkpt>
      <trkpt lat="44.15091" lon="1.75484">
        <ele>135.2</ele>
        <time>2021-08-17T15:32:36Z</time>
      </trkpt>
      <trkpt lat="44.15088" lon="1.75484">
        <ele>135.2</ele>
        <time>2021-08-17T15:32:37Z</time>
      </trkpt>
      <trkpt lat="44.15084" lon="1.75485">
        <ele>134.72</ele>
        <time>2021-08-17T15:32:38Z</time>
      </trkpt>
      <trkpt lat="44.15081" lon="1.75485">
        <ele>134.72</ele>
        <time>2021-08-17T15:32:39Z</time>
      </trkpt>
      <trkpt lat="44.15066" lon="1.75487">
        <ele>136.16</ele>
        <time>2021-08-17T15:32:44Z</time>
      </trkpt>
      <trkpt lat="44.15063" lon="1.75487">
        <ele>136.16</ele>
        <time>2021-08-17T15:32:50Z</time>
      </trkpt>
      <trkpt lat="44.15062" lon="1.75489">
        <ele>136.16</ele>
        <time>2021-08-17T15:32:51Z</time>
      </trkpt>
      <trkpt lat="44.15061" lon="1.75492">
        <ele>136.16</ele>
        <time>2021-08-17T15:32:52Z</time>
      </trkpt>
      <trkpt lat="44.1506" lon="1.75496">
        <ele>136.64</ele>
        <time>2021-08-17T15:32:53Z</time>
      </trkpt>
      <trkpt lat="44.15059" lon="1.75498">
        <ele>136.64</ele>
        <time>2021-08-17T15:32:54Z</time>
      </trkpt>
      <trkpt lat="44.15048" lon="1.75519">
        <ele>137.13</ele>
        <time>2021-08-17T15:33:01Z</time>
      </trkpt>
      <trkpt lat="44.15034" lon="1.75527">
        <ele>137.61</ele>
        <time>2021-08-17T15:33:06Z</time>
      </trkpt>
      <trkpt lat="44.15006" lon="1.75515">
        <ele>138.57</ele>
        <time>2021-08-17T15:33:14Z</time>
      </trkpt>
      <trkpt lat="44.1496" lon="1.75494">
        <ele>139.53</ele>
        <time>2021-08-17T15:33:28Z</time>
      </trkpt>
      <trkpt lat="44.14953" lon="1.75495">
        <ele>139.53</ele>
        <time>2021-08-17T15:33:30Z</time>
      </trkpt>
      <trkpt lat="44.14951" lon="1.75498">
        <ele>139.53</ele>
        <time>2021-08-17T15:33:31Z</time>
      </trkpt>
      <trkpt lat="44.14951" lon="1.75504">
        <ele>139.53</ele>
        <time>2021-08-17T15:33:32Z</time>
      </trkpt>
      <trkpt lat="44.1495" lon="1.75517">
        <ele>138.57</ele>
        <time>2021-08-17T15:33:35Z</time>
      </trkpt>
      <trkpt lat="44.14947" lon="1.75552">
        <ele>136.64</ele>
        <time>2021-08-17T15:33:42Z</time>
      </trkpt>
      <trkpt lat="44.14947" lon="1.75565">
        <ele>136.16</ele>
        <time>2021-08-17T15:33:44Z</time>
      </trkpt>
      <trkpt lat="44.14946" lon="1.75572">
        <ele>135.68</ele>
        <time>2021-08-17T15:33:45Z</time>
      </trkpt>
      <trkpt lat="44.14944" lon="1.75579">
        <ele>135.2</ele>
        <time>2021-08-17T15:33:46Z</time>
      </trkpt>
      <trkpt lat="44.14942" lon="1.75587">
        <ele>135.2</ele>
        <time>2021-08-17T15:33:47Z</time>
      </trkpt>
      <trkpt lat="44.14939" lon="1.75596">
        <ele>135.2</ele>
        <time>2021-08-17T15:33:48Z</time>
      </trkpt>
      <trkpt lat="44.14936" lon="1.75604">
        <ele>134.72</ele>
        <time>2021-08-17T15:33:49Z</time>
      </trkpt>
      <trkpt lat="44.14908" lon="1.75664">
        <ele>134.72</ele>
        <time>2021-08-17T15:33:57Z</time>
      </trkpt>
      <trkpt lat="44.14877" lon="1.75731">
        <ele>134.72</ele>
        <time>2021-08-17T15:34:06Z</time>
      </trkpt>
      <trkpt lat="44.14864" lon="1.75761">
        <ele>134.72</ele>
        <time>2021-08-17T15:34:10Z</time>
      </trkpt>
      <trkpt lat="44.1486" lon="1.75777">
        <ele>134.72</ele>
        <time>2021-08-17T15:34:12Z</time>
      </trkpt>
      <trkpt lat="44.14835" lon="1.75828">
        <ele>134.72</ele>
        <time>2021-08-17T15:34:19Z</time>
      </trkpt>
      <trkpt lat="44.14824" lon="1.75852">
        <ele>134.72</ele>
        <time>2021-08-17T15:34:23Z</time>
      </trkpt>
      <trkpt lat="44.14821" lon="1.75858">
        <ele>134.72</ele>
        <time>2021-08-17T15:34:24Z</time>
      </trkpt>
      <trkpt lat="44.14819" lon="1.75864">
        <ele>134.72</ele>
        <time>2021-08-17T15:34:25Z</time>
      </trkpt>
      <trkpt lat="44.14808" lon="1.75886">
        <ele>136.64</ele>
        <time>2021-08-17T15:34:29Z</time>
      </trkpt>
      <trkpt lat="44.14794" lon="1.75919">
        <ele>137.61</ele>
        <time>2021-08-17T15:34:36Z</time>
      </trkpt>
      <trkpt lat="44.14787" lon="1.7597">
        <ele>137.61</ele>
        <time>2021-08-17T15:34:44Z</time>
      </trkpt>
      <trkpt lat="44.14784" lon="1.76025">
        <ele>137.61</ele>
        <time>2021-08-17T15:34:52Z</time>
      </trkpt>
      <trkpt lat="44.14781" lon="1.76063">
        <ele>137.61</ele>
        <time>2021-08-17T15:34:57Z</time>
      </trkpt>
      <trkpt lat="44.14779" lon="1.7607">
        <ele>137.61</ele>
        <time>2021-08-17T15:34:58Z</time>
      </trkpt>
      <trkpt lat="44.14772" lon="1.76121">
        <ele>136.64</ele>
        <time>2021-08-17T15:35:05Z</time>
      </trkpt>
      <trkpt lat="44.14768" lon="1.76176">
        <ele>135.68</ele>
        <time>2021-08-17T15:35:12Z</time>
      </trkpt>
      <trkpt lat="44.14765" lon="1.76234">
        <ele>135.68</ele>
        <time>2021-08-17T15:35:20Z</time>
      </trkpt>
      <trkpt lat="44.14766" lon="1.76267">
        <ele>135.68</ele>
        <time>2021-08-17T15:35:24Z</time>
      </trkpt>
      <trkpt lat="44.14767" lon="1.76278">
        <ele>135.2</ele>
        <time>2021-08-17T15:35:25Z</time>
      </trkpt>
      <trkpt lat="44.14776" lon="1.76321">
        <ele>135.2</ele>
        <time>2021-08-17T15:35:29Z</time>
      </trkpt>
      <trkpt lat="44.1478" lon="1.7633">
        <ele>135.2</ele>
        <time>2021-08-17T15:35:30Z</time>
      </trkpt>
      <trkpt lat="44.14783" lon="1.76339">
        <ele>135.2</ele>
        <time>2021-08-17T15:35:31Z</time>
      </trkpt>
      <trkpt lat="44.14822" lon="1.76411">
        <ele>134.72</ele>
        <time>2021-08-17T15:35:40Z</time>
      </trkpt>
      <trkpt lat="44.14858" lon="1.76467">
        <ele>134.24</ele>
        <time>2021-08-17T15:35:48Z</time>
      </trkpt>
      <trkpt lat="44.14895" lon="1.76528">
        <ele>134.24</ele>
        <time>2021-08-17T15:35:57Z</time>
      </trkpt>
      <trkpt lat="44.14935" lon="1.766">
        <ele>134.24</ele>
        <time>2021-08-17T15:36:08Z</time>
      </trkpt>
      <trkpt lat="44.14949" lon="1.76631">
        <ele>135.68</ele>
        <time>2021-08-17T15:36:13Z</time>
      </trkpt>
      <trkpt lat="44.14974" lon="1.76694">
        <ele>135.68</ele>
        <time>2021-08-17T15:36:23Z</time>
      </trkpt>
      <trkpt lat="44.14993" lon="1.76743">
        <ele>136.64</ele>
        <time>2021-08-17T15:36:31Z</time>
      </trkpt>
      <trkpt lat="44.14995" lon="1.76749">
        <ele>136.64</ele>
        <time>2021-08-17T15:36:32Z</time>
      </trkpt>
      <trkpt lat="44.14999" lon="1.76761">
        <ele>136.64</ele>
        <time>2021-08-17T15:36:34Z</time>
      </trkpt>
      <trkpt lat="44.15016" lon="1.76807">
        <ele>137.13</ele>
        <time>2021-08-17T15:36:42Z</time>
      </trkpt>
      <trkpt lat="44.15024" lon="1.76829">
        <ele>137.13</ele>
        <time>2021-08-17T15:36:46Z</time>
      </trkpt>
      <trkpt lat="44.15026" lon="1.76834">
        <ele>137.13</ele>
        <time>2021-08-17T15:36:47Z</time>
      </trkpt>
      <trkpt lat="44.15047" lon="1.7688">
        <ele>137.61</ele>
        <time>2021-08-17T15:36:55Z</time>
      </trkpt>
      <trkpt lat="44.15076" lon="1.76936">
        <ele>137.61</ele>
        <time>2021-08-17T15:37:05Z</time>
      </trkpt>
      <trkpt lat="44.15097" lon="1.76977">
        <ele>137.61</ele>
        <time>2021-08-17T15:37:12Z</time>
      </trkpt>
      <trkpt lat="44.15108" lon="1.77009">
        <ele>137.61</ele>
        <time>2021-08-17T15:37:17Z</time>
      </trkpt>
      <trkpt lat="44.15109" lon="1.77017">
        <ele>137.61</ele>
        <time>2021-08-17T15:37:18Z</time>
      </trkpt>
      <trkpt lat="44.15125" lon="1.77094">
        <ele>138.09</ele>
        <time>2021-08-17T15:37:29Z</time>
      </trkpt>
      <trkpt lat="44.15135" lon="1.77151">
        <ele>139.05</ele>
        <time>2021-08-17T15:37:38Z</time>
      </trkpt>
      <trkpt lat="44.15134" lon="1.77156">
        <ele>139.05</ele>
        <time>2021-08-17T15:37:39Z</time>
      </trkpt>
      <trkpt lat="44.15132" lon="1.77161">
        <ele>139.05</ele>
        <time>2021-08-17T15:37:40Z</time>
      </trkpt>
      <trkpt lat="44.15129" lon="1.77164">
        <ele>139.05</ele>
        <time>2021-08-17T15:37:41Z</time>
      </trkpt>
      <trkpt lat="44.15126" lon="1.77166">
        <ele>139.05</ele>
        <time>2021-08-17T15:37:42Z</time>
      </trkpt>
      <trkpt lat="44.15124" lon="1.77167">
        <ele>139.53</ele>
        <time>2021-08-17T15:37:43Z</time>
      </trkpt>
      <trkpt lat="44.15122" lon="1.77169">
        <ele>140.49</ele>
        <time>2021-08-17T15:37:44Z</time>
      </trkpt>
      <trkpt lat="44.1512" lon="1.7717">
        <ele>140.97</ele>
        <time>2021-08-17T15:37:45Z</time>
      </trkpt>
      <trkpt lat="44.15118" lon="1.7717">
        <ele>140.97</ele>
        <time>2021-08-17T15:37:46Z</time>
      </trkpt>
      <trkpt lat="44.15116" lon="1.77171">
        <ele>140.97</ele>
        <time>2021-08-17T15:37:47Z</time>
      </trkpt>
      <trkpt lat="44.15114" lon="1.77171">
        <ele>141.45</ele>
        <time>2021-08-17T15:37:48Z</time>
      </trkpt>
      <trkpt lat="44.15112" lon="1.77171">
        <ele>141.45</ele>
        <time>2021-08-17T15:37:49Z</time>
      </trkpt>
      <trkpt lat="44.1511" lon="1.77169">
        <ele>141.45</ele>
        <time>2021-08-17T15:37:50Z</time>
      </trkpt>
      <trkpt lat="44.15108" lon="1.77166">
        <ele>141.45</ele>
        <time>2021-08-17T15:37:51Z</time>
      </trkpt>
      <trkpt lat="44.15106" lon="1.77163">
        <ele>141.45</ele>
        <time>2021-08-17T15:37:52Z</time>
      </trkpt>
      <trkpt lat="44.15104" lon="1.77159">
        <ele>141.45</ele>
        <time>2021-08-17T15:37:53Z</time>
      </trkpt>
      <trkpt lat="44.15085" lon="1.77121">
        <ele>140.01</ele>
        <time>2021-08-17T15:38:01Z</time>
      </trkpt>
      <trkpt lat="44.1506" lon="1.77073">
        <ele>140.01</ele>
        <time>2021-08-17T15:38:11Z</time>
      </trkpt>
      <trkpt lat="44.15036" lon="1.77026">
        <ele>140.01</ele>
        <time>2021-08-17T15:38:20Z</time>
      </trkpt>
      <trkpt lat="44.15005" lon="1.76965">
        <ele>140.01</ele>
        <time>2021-08-17T15:38:31Z</time>
      </trkpt>
      <trkpt lat="44.14981" lon="1.76918">
        <ele>140.01</ele>
        <time>2021-08-17T15:38:40Z</time>
      </trkpt>
      <trkpt lat="44.14979" lon="1.76913">
        <ele>140.01</ele>
        <time>2021-08-17T15:38:41Z</time>
      </trkpt>
      <trkpt lat="44.14976" lon="1.76908">
        <ele>140.01</ele>
        <time>2021-08-17T15:38:42Z</time>
      </trkpt>
      <trkpt lat="44.14972" lon="1.76906">
        <ele>140.01</ele>
        <time>2021-08-17T15:38:43Z</time>
      </trkpt>
      <trkpt lat="44.14967" lon="1.76913">
        <ele>140.01</ele>
        <time>2021-08-17T15:38:45Z</time>
      </trkpt>
      <trkpt lat="44.14967" lon="1.76918">
        <ele>140.01</ele>
        <time>2021-08-17T15:38:46Z</time>
      </trkpt>
      <trkpt lat="44.14969" lon="1.76924">
        <ele>140.01</ele>
        <time>2021-08-17T15:38:47Z</time>
      </trkpt>
      <trkpt lat="44.14971" lon="1.7693">
        <ele>140.01</ele>
        <time>2021-08-17T15:38:48Z</time>
      </trkpt>
      <trkpt lat="44.14972" lon="1.76936">
        <ele>140.01</ele>
        <time>2021-08-17T15:38:49Z</time>
      </trkpt>
      <trkpt lat="44.1498" lon="1.76982">
        <ele>140.01</ele>
        <time>2021-08-17T15:38:57Z</time>
      </trkpt>
      <trkpt lat="44.1498" lon="1.76994">
        <ele>140.01</ele>
        <time>2021-08-17T15:38:59Z</time>
      </trkpt>
      <trkpt lat="44.1498" lon="1.77028">
        <ele>141.45</ele>
        <time>2021-08-17T15:39:06Z</time>
      </trkpt>
      <trkpt lat="44.1498" lon="1.77058">
        <ele>143.37</ele>
        <time>2021-08-17T15:39:16Z</time>
      </trkpt>
      <trkpt lat="44.14969" lon="1.77075">
        <ele>144.82</ele>
        <time>2021-08-17T15:39:25Z</time>
      </trkpt>
      <trkpt lat="44.14959" lon="1.77093">
        <ele>146.26</ele>
        <time>2021-08-17T15:39:34Z</time>
      </trkpt>
      <trkpt lat="44.14949" lon="1.77111">
        <ele>147.22</ele>
        <time>2021-08-17T15:39:43Z</time>
      </trkpt>
      <trkpt lat="44.14946" lon="1.77117">
        <ele>147.7</ele>
        <time>2021-08-17T15:39:46Z</time>
      </trkpt>
      <trkpt lat="44.14944" lon="1.77119">
        <ele>147.7</ele>
        <time>2021-08-17T15:39:47Z</time>
      </trkpt>
      <trkpt lat="44.14931" lon="1.77141">
        <ele>148.66</ele>
        <time>2021-08-17T15:39:57Z</time>
      </trkpt>
      <trkpt lat="44.14921" lon="1.77158">
        <ele>150.58</ele>
        <time>2021-08-17T15:40:06Z</time>
      </trkpt>
      <trkpt lat="44.14908" lon="1.77177">
        <ele>151.06</ele>
        <time>2021-08-17T15:40:16Z</time>
      </trkpt>
      <trkpt lat="44.14896" lon="1.7719">
        <ele>152.03</ele>
        <time>2021-08-17T15:40:24Z</time>
      </trkpt>
      <trkpt lat="44.14884" lon="1.77202">
        <ele>153.95</ele>
        <time>2021-08-17T15:40:33Z</time>
      </trkpt>
      <trkpt lat="44.14873" lon="1.77215">
        <ele>154.43</ele>
        <time>2021-08-17T15:40:42Z</time>
      </trkpt>
      <trkpt lat="44.14865" lon="1.77228">
        <ele>155.39</ele>
        <time>2021-08-17T15:40:50Z</time>
      </trkpt>
      <trkpt lat="44.14857" lon="1.77245">
        <ele>156.83</ele>
        <time>2021-08-17T15:41:00Z</time>
      </trkpt>
      <trkpt lat="44.14851" lon="1.77261">
        <ele>157.79</ele>
        <time>2021-08-17T15:41:09Z</time>
      </trkpt>
      <trkpt lat="44.14848" lon="1.77271">
        <ele>158.75</ele>
        <time>2021-08-17T15:41:17Z</time>
      </trkpt>
      <trkpt lat="44.14846" lon="1.77271">
        <ele>159.24</ele>
        <time>2021-08-17T15:41:34Z</time>
      </trkpt>
      <trkpt lat="44.14846" lon="1.77276">
        <ele>159.24</ele>
        <time>2021-08-17T15:41:41Z</time>
      </trkpt>
      <trkpt lat="44.14845" lon="1.77278">
        <ele>159.72</ele>
        <time>2021-08-17T15:41:42Z</time>
      </trkpt>
      <trkpt lat="44.14845" lon="1.7728">
        <ele>159.72</ele>
        <time>2021-08-17T15:41:43Z</time>
      </trkpt>
      <trkpt lat="44.14845" lon="1.77282">
        <ele>159.72</ele>
        <time>2021-08-17T15:41:44Z</time>
      </trkpt>
      <trkpt lat="44.14844" lon="1.77284">
        <ele>159.72</ele>
        <time>2021-08-17T15:41:45Z</time>
      </trkpt>
      <trkpt lat="44.14844" lon="1.77285">
        <ele>160.2</ele>
        <time>2021-08-17T15:41:46Z</time>
      </trkpt>
      <trkpt lat="44.14844" lon="1.77287">
        <ele>160.2</ele>
        <time>2021-08-17T15:41:47Z</time>
      </trkpt>
      <trkpt lat="44.14843" lon="1.77289">
        <ele>160.2</ele>
        <time>2021-08-17T15:41:48Z</time>
      </trkpt>
      <trkpt lat="44.14843" lon="1.77291">
        <ele>160.68</ele>
        <time>2021-08-17T15:41:49Z</time>
      </trkpt>
      <trkpt lat="44.14843" lon="1.77292">
        <ele>160.68</ele>
        <time>2021-08-17T15:41:50Z</time>
      </trkpt>
      <trkpt lat="44.14843" lon="1.77294">
        <ele>160.68</ele>
        <time>2021-08-17T15:41:51Z</time>
      </trkpt>
      <trkpt lat="44.14843" lon="1.77296">
        <ele>161.16</ele>
        <time>2021-08-17T15:41:52Z</time>
      </trkpt>
      <trkpt lat="44.14841" lon="1.77309">
        <ele>162.12</ele>
        <time>2021-08-17T15:41:59Z</time>
      </trkpt>
      <trkpt lat="44.14841" lon="1.7731">
        <ele>162.12</ele>
        <time>2021-08-17T15:42:00Z</time>
      </trkpt>
      <trkpt lat="44.14841" lon="1.77312">
        <ele>162.6</ele>
        <time>2021-08-17T15:42:01Z</time>
      </trkpt>
      <trkpt lat="44.1484" lon="1.77314">
        <ele>162.6</ele>
        <time>2021-08-17T15:42:02Z</time>
      </trkpt>
      <trkpt lat="44.1484" lon="1.77315">
        <ele>162.6</ele>
        <time>2021-08-17T15:42:03Z</time>
      </trkpt>
      <trkpt lat="44.1484" lon="1.77316">
        <ele>163.08</ele>
        <time>2021-08-17T15:42:04Z</time>
      </trkpt>
      <trkpt lat="44.14839" lon="1.77318">
        <ele>163.08</ele>
        <time>2021-08-17T15:42:05Z</time>
      </trkpt>
      <trkpt lat="44.14839" lon="1.7732">
        <ele>163.08</ele>
        <time>2021-08-17T15:42:06Z</time>
      </trkpt>
      <trkpt lat="44.14839" lon="1.77322">
        <ele>163.56</ele>
        <time>2021-08-17T15:42:07Z</time>
      </trkpt>
      <trkpt lat="44.14835" lon="1.77334">
        <ele>164.52</ele>
        <time>2021-08-17T15:42:16Z</time>
      </trkpt>
      <trkpt lat="44.14832" lon="1.77339">
        <ele>165</ele>
        <time>2021-08-17T15:42:20Z</time>
      </trkpt>
      <trkpt lat="44.14831" lon="1.7734">
        <ele>165</ele>
        <time>2021-08-17T15:42:21Z</time>
      </trkpt>
      <trkpt lat="44.14831" lon="1.77342">
        <ele>165.48</ele>
        <time>2021-08-17T15:42:22Z</time>
      </trkpt>
      <trkpt lat="44.14828" lon="1.7735">
        <ele>166.45</ele>
        <time>2021-08-17T15:42:28Z</time>
      </trkpt>
      <trkpt lat="44.14825" lon="1.77359">
        <ele>167.41</ele>
        <time>2021-08-17T15:42:34Z</time>
      </trkpt>
      <trkpt lat="44.14822" lon="1.77368">
        <ele>168.37</ele>
        <time>2021-08-17T15:42:41Z</time>
      </trkpt>
      <trkpt lat="44.14821" lon="1.77369">
        <ele>168.37</ele>
        <time>2021-08-17T15:42:42Z</time>
      </trkpt>
      <trkpt lat="44.14819" lon="1.7737">
        <ele>168.37</ele>
        <time>2021-08-17T15:42:43Z</time>
      </trkpt>
      <trkpt lat="44.1481" lon="1.77381">
        <ele>169.33</ele>
        <time>2021-08-17T15:42:51Z</time>
      </trkpt>
      <trkpt lat="44.14809" lon="1.77381">
        <ele>169.81</ele>
        <time>2021-08-17T15:42:52Z</time>
      </trkpt>
      <trkpt lat="44.14799" lon="1.77386">
        <ele>171.25</ele>
        <time>2021-08-17T15:43:00Z</time>
      </trkpt>
      <trkpt lat="44.14799" lon="1.77386">
        <ele>171.25</ele>
        <time>2021-08-17T15:43:07Z</time>
      </trkpt>
      <trkpt lat="44.14802" lon="1.77386">
        <ele>171.25</ele>
        <time>2021-08-17T15:43:15Z</time>
      </trkpt>
      <trkpt lat="44.14802" lon="1.77391">
        <ele>169.81</ele>
        <time>2021-08-17T15:43:22Z</time>
      </trkpt>
      <trkpt lat="44.14801" lon="1.77394">
        <ele>169.81</ele>
        <time>2021-08-17T15:43:24Z</time>
      </trkpt>
      <trkpt lat="44.148" lon="1.77396">
        <ele>169.81</ele>
        <time>2021-08-17T15:43:25Z</time>
      </trkpt>
      <trkpt lat="44.14799" lon="1.77398">
        <ele>169.81</ele>
        <time>2021-08-17T15:43:26Z</time>
      </trkpt>
      <trkpt lat="44.14798" lon="1.774">
        <ele>169.33</ele>
        <time>2021-08-17T15:43:27Z</time>
      </trkpt>
      <trkpt lat="44.14798" lon="1.77402">
        <ele>169.33</ele>
        <time>2021-08-17T15:43:28Z</time>
      </trkpt>
      <trkpt lat="44.14796" lon="1.77408">
        <ele>169.33</ele>
        <time>2021-08-17T15:43:32Z</time>
      </trkpt>
      <trkpt lat="44.14795" lon="1.77409">
        <ele>169.33</ele>
        <time>2021-08-17T15:43:33Z</time>
      </trkpt>
      <trkpt lat="44.14794" lon="1.77409">
        <ele>169.33</ele>
        <time>2021-08-17T15:43:34Z</time>
      </trkpt>
      <trkpt lat="44.14792" lon="1.7741">
        <ele>169.33</ele>
        <time>2021-08-17T15:43:35Z</time>
      </trkpt>
      <trkpt lat="44.14791" lon="1.77411">
        <ele>169.33</ele>
        <time>2021-08-17T15:43:36Z</time>
      </trkpt>
      <trkpt lat="44.14783" lon="1.77417">
        <ele>169.33</ele>
        <time>2021-08-17T15:43:44Z</time>
      </trkpt>
      <trkpt lat="44.1478" lon="1.77422">
        <ele>170.77</ele>
        <time>2021-08-17T15:43:48Z</time>
      </trkpt>
      <trkpt lat="44.14776" lon="1.77434">
        <ele>170.77</ele>
        <time>2021-08-17T15:43:54Z</time>
      </trkpt>
      <trkpt lat="44.14776" lon="1.77452">
        <ele>170.77</ele>
        <time>2021-08-17T15:44:02Z</time>
      </trkpt>
      <trkpt lat="44.14777" lon="1.77457">
        <ele>169.33</ele>
        <time>2021-08-17T15:44:04Z</time>
      </trkpt>
      <trkpt lat="44.14781" lon="1.77473">
        <ele>169.33</ele>
        <time>2021-08-17T15:44:09Z</time>
      </trkpt>
      <trkpt lat="44.14787" lon="1.77489">
        <ele>169.33</ele>
        <time>2021-08-17T15:44:16Z</time>
      </trkpt>
      <trkpt lat="44.14793" lon="1.77502">
        <ele>169.81</ele>
        <time>2021-08-17T15:44:24Z</time>
      </trkpt>
      <trkpt lat="44.14799" lon="1.77515">
        <ele>171.25</ele>
        <time>2021-08-17T15:44:33Z</time>
      </trkpt>
      <trkpt lat="44.14803" lon="1.77525">
        <ele>172.69</ele>
        <time>2021-08-17T15:44:40Z</time>
      </trkpt>
      <trkpt lat="44.14804" lon="1.77536">
        <ele>174.14</ele>
        <time>2021-08-17T15:44:45Z</time>
      </trkpt>
      <trkpt lat="44.14802" lon="1.77547">
        <ele>175.58</ele>
        <time>2021-08-17T15:44:53Z</time>
      </trkpt>
      <trkpt lat="44.14795" lon="1.77558">
        <ele>176.54</ele>
        <time>2021-08-17T15:45:01Z</time>
      </trkpt>
      <trkpt lat="44.14786" lon="1.7757">
        <ele>177.98</ele>
        <time>2021-08-17T15:45:10Z</time>
      </trkpt>
      <trkpt lat="44.14785" lon="1.77575">
        <ele>178.46</ele>
        <time>2021-08-17T15:45:13Z</time>
      </trkpt>
      <trkpt lat="44.14784" lon="1.77577">
        <ele>178.46</ele>
        <time>2021-08-17T15:45:14Z</time>
      </trkpt>
      <trkpt lat="44.14784" lon="1.77589">
        <ele>178.94</ele>
        <time>2021-08-17T15:45:21Z</time>
      </trkpt>
      <trkpt lat="44.14782" lon="1.77611">
        <ele>179.42</ele>
        <time>2021-08-17T15:45:30Z</time>
      </trkpt>
      <trkpt lat="44.1478" lon="1.77614">
        <ele>179.42</ele>
        <time>2021-08-17T15:45:32Z</time>
      </trkpt>
      <trkpt lat="44.1477" lon="1.77622">
        <ele>181.35</ele>
        <time>2021-08-17T15:45:41Z</time>
      </trkpt>
      <trkpt lat="44.14764" lon="1.77627">
        <ele>182.31</ele>
        <time>2021-08-17T15:45:47Z</time>
      </trkpt>
      <trkpt lat="44.1476" lon="1.77631">
        <ele>182.79</ele>
        <time>2021-08-17T15:45:53Z</time>
      </trkpt>
      <trkpt lat="44.14757" lon="1.77632">
        <ele>182.79</ele>
        <time>2021-08-17T15:46:03Z</time>
      </trkpt>
      <trkpt lat="44.1475" lon="1.77638">
        <ele>184.23</ele>
        <time>2021-08-17T15:46:12Z</time>
      </trkpt>
      <trkpt lat="44.14744" lon="1.77647">
        <ele>186.15</ele>
        <time>2021-08-17T15:46:22Z</time>
      </trkpt>
      <trkpt lat="44.1474" lon="1.77654">
        <ele>187.59</ele>
        <time>2021-08-17T15:46:30Z</time>
      </trkpt>
      <trkpt lat="44.14739" lon="1.77662">
        <ele>189.04</ele>
        <time>2021-08-17T15:46:39Z</time>
      </trkpt>
      <trkpt lat="44.14737" lon="1.7767">
        <ele>189.52</ele>
        <time>2021-08-17T15:46:48Z</time>
      </trkpt>
      <trkpt lat="44.14736" lon="1.77677">
        <ele>190.96</ele>
        <time>2021-08-17T15:46:56Z</time>
      </trkpt>
      <trkpt lat="44.14735" lon="1.77678">
        <ele>190.96</ele>
        <time>2021-08-17T15:46:58Z</time>
      </trkpt>
      <trkpt lat="44.14734" lon="1.77677">
        <ele>190.96</ele>
        <time>2021-08-17T15:46:59Z</time>
      </trkpt>
      <trkpt lat="44.14734" lon="1.77676">
        <ele>190.96</ele>
        <time>2021-08-17T15:47:00Z</time>
      </trkpt>
      <trkpt lat="44.14733" lon="1.77675">
        <ele>190.96</ele>
        <time>2021-08-17T15:47:01Z</time>
      </trkpt>
      <trkpt lat="44.14729" lon="1.77675">
        <ele>191.44</ele>
        <time>2021-08-17T15:47:05Z</time>
      </trkpt>
      <trkpt lat="44.14724" lon="1.7768">
        <ele>192.88</ele>
        <time>2021-08-17T15:47:13Z</time>
      </trkpt>
      <trkpt lat="44.14721" lon="1.77682">
        <ele>194.32</ele>
        <time>2021-08-17T15:47:20Z</time>
      </trkpt>
      <trkpt lat="44.14717" lon="1.77685">
        <ele>195.28</ele>
        <time>2021-08-17T15:47:29Z</time>
      </trkpt>
      <trkpt lat="44.14712" lon="1.7769">
        <ele>196.73</ele>
        <time>2021-08-17T15:47:37Z</time>
      </trkpt>
      <trkpt lat="44.14706" lon="1.77692">
        <ele>198.17</ele>
        <time>2021-08-17T15:47:45Z</time>
      </trkpt>
      <trkpt lat="44.14702" lon="1.77696">
        <ele>199.13</ele>
        <time>2021-08-17T15:47:54Z</time>
      </trkpt>
      <trkpt lat="44.14697" lon="1.77696">
        <ele>200.57</ele>
        <time>2021-08-17T15:48:03Z</time>
      </trkpt>
      <trkpt lat="44.14693" lon="1.777">
        <ele>202.01</ele>
        <time>2021-08-17T15:48:12Z</time>
      </trkpt>
      <trkpt lat="44.14689" lon="1.77703">
        <ele>203.94</ele>
        <time>2021-08-17T15:48:22Z</time>
      </trkpt>
      <trkpt lat="44.14686" lon="1.77705">
        <ele>204.9</ele>
        <time>2021-08-17T15:48:30Z</time>
      </trkpt>
      <trkpt lat="44.14683" lon="1.7771">
        <ele>206.82</ele>
        <time>2021-08-17T15:48:40Z</time>
      </trkpt>
      <trkpt lat="44.14682" lon="1.77713">
        <ele>208.74</ele>
        <time>2021-08-17T15:48:49Z</time>
      </trkpt>
      <trkpt lat="44.1468" lon="1.77716">
        <ele>210.67</ele>
        <time>2021-08-17T15:49:00Z</time>
      </trkpt>
      <trkpt lat="44.14681" lon="1.77722">
        <ele>211.63</ele>
        <time>2021-08-17T15:49:08Z</time>
      </trkpt>
      <trkpt lat="44.14684" lon="1.77729">
        <ele>212.59</ele>
        <time>2021-08-17T15:49:17Z</time>
      </trkpt>
      <trkpt lat="44.14689" lon="1.77735">
        <ele>214.03</ele>
        <time>2021-08-17T15:49:26Z</time>
      </trkpt>
      <trkpt lat="44.14694" lon="1.77744">
        <ele>215.47</ele>
        <time>2021-08-17T15:49:35Z</time>
      </trkpt>
      <trkpt lat="44.14698" lon="1.77755">
        <ele>216.43</ele>
        <time>2021-08-17T15:49:44Z</time>
      </trkpt>
      <trkpt lat="44.14702" lon="1.77767">
        <ele>217.88</ele>
        <time>2021-08-17T15:49:53Z</time>
      </trkpt>
      <trkpt lat="44.14703" lon="1.77775">
        <ele>219.8</ele>
        <time>2021-08-17T15:50:01Z</time>
      </trkpt>
      <trkpt lat="44.14704" lon="1.77783">
        <ele>220.76</ele>
        <time>2021-08-17T15:50:09Z</time>
      </trkpt>
      <trkpt lat="44.14704" lon="1.77784">
        <ele>220.76</ele>
        <time>2021-08-17T15:50:10Z</time>
      </trkpt>
      <trkpt lat="44.14704" lon="1.77786">
        <ele>221.72</ele>
        <time>2021-08-17T15:50:16Z</time>
      </trkpt>
      <trkpt lat="44.14702" lon="1.77793">
        <ele>222.68</ele>
        <time>2021-08-17T15:50:22Z</time>
      </trkpt>
      <trkpt lat="44.14701" lon="1.77804">
        <ele>225.09</ele>
        <time>2021-08-17T15:50:32Z</time>
      </trkpt>
      <trkpt lat="44.147" lon="1.7781">
        <ele>226.53</ele>
        <time>2021-08-17T15:50:42Z</time>
      </trkpt>
      <trkpt lat="44.14699" lon="1.77811">
        <ele>227.49</ele>
        <time>2021-08-17T15:50:50Z</time>
      </trkpt>
      <trkpt lat="44.147" lon="1.77816">
        <ele>228.45</ele>
        <time>2021-08-17T15:50:58Z</time>
      </trkpt>
      <trkpt lat="44.14701" lon="1.77825">
        <ele>229.89</ele>
        <time>2021-08-17T15:51:07Z</time>
      </trkpt>
      <trkpt lat="44.14701" lon="1.77836">
        <ele>231.33</ele>
        <time>2021-08-17T15:51:16Z</time>
      </trkpt>
      <trkpt lat="44.14702" lon="1.77849">
        <ele>232.78</ele>
        <time>2021-08-17T15:51:25Z</time>
      </trkpt>
      <trkpt lat="44.14702" lon="1.77858">
        <ele>233.74</ele>
        <time>2021-08-17T15:51:32Z</time>
      </trkpt>
      <trkpt lat="44.14701" lon="1.77867">
        <ele>235.18</ele>
        <time>2021-08-17T15:51:41Z</time>
      </trkpt>
      <trkpt lat="44.147" lon="1.77877">
        <ele>237.1</ele>
        <time>2021-08-17T15:51:50Z</time>
      </trkpt>
      <trkpt lat="44.14699" lon="1.77885">
        <ele>238.54</ele>
        <time>2021-08-17T15:52:00Z</time>
      </trkpt>
      <trkpt lat="44.14699" lon="1.77895">
        <ele>239.99</ele>
        <time>2021-08-17T15:52:08Z</time>
      </trkpt>
      <trkpt lat="44.14697" lon="1.77907">
        <ele>241.43</ele>
        <time>2021-08-17T15:52:17Z</time>
      </trkpt>
      <trkpt lat="44.14695" lon="1.77916">
        <ele>242.39</ele>
        <time>2021-08-17T15:52:25Z</time>
      </trkpt>
      <trkpt lat="44.14693" lon="1.77922">
        <ele>243.83</ele>
        <time>2021-08-17T15:52:32Z</time>
      </trkpt>
      <trkpt lat="44.1469" lon="1.7793">
        <ele>245.27</ele>
        <time>2021-08-17T15:52:40Z</time>
      </trkpt>
      <trkpt lat="44.14688" lon="1.77939">
        <ele>246.23</ele>
        <time>2021-08-17T15:52:49Z</time>
      </trkpt>
      <trkpt lat="44.14685" lon="1.77948">
        <ele>247.68</ele>
        <time>2021-08-17T15:52:57Z</time>
      </trkpt>
      <trkpt lat="44.14685" lon="1.77959">
        <ele>249.12</ele>
        <time>2021-08-17T15:53:05Z</time>
      </trkpt>
      <trkpt lat="44.14684" lon="1.77968">
        <ele>250.56</ele>
        <time>2021-08-17T15:53:13Z</time>
      </trkpt>
      <trkpt lat="44.14682" lon="1.77977">
        <ele>251.52</ele>
        <time>2021-08-17T15:53:21Z</time>
      </trkpt>
      <trkpt lat="44.14681" lon="1.77986">
        <ele>252.96</ele>
        <time>2021-08-17T15:53:29Z</time>
      </trkpt>
      <trkpt lat="44.14681" lon="1.77988">
        <ele>252.96</ele>
        <time>2021-08-17T15:53:30Z</time>
      </trkpt>
      <trkpt lat="44.14679" lon="1.77995">
        <ele>253.93</ele>
        <time>2021-08-17T15:53:37Z</time>
      </trkpt>
      <trkpt lat="44.14677" lon="1.78004">
        <ele>255.37</ele>
        <time>2021-08-17T15:53:45Z</time>
      </trkpt>
      <trkpt lat="44.14677" lon="1.78014">
        <ele>255.85</ele>
        <time>2021-08-17T15:53:54Z</time>
      </trkpt>
      <trkpt lat="44.14674" lon="1.78025">
        <ele>256.33</ele>
        <time>2021-08-17T15:54:01Z</time>
      </trkpt>
      <trkpt lat="44.14673" lon="1.78044">
        <ele>256.81</ele>
        <time>2021-08-17T15:54:09Z</time>
      </trkpt>
      <trkpt lat="44.14672" lon="1.78049">
        <ele>256.81</ele>
        <time>2021-08-17T15:54:11Z</time>
      </trkpt>
      <trkpt lat="44.14672" lon="1.78051">
        <ele>256.81</ele>
        <time>2021-08-17T15:54:12Z</time>
      </trkpt>
      <trkpt lat="44.14672" lon="1.78054">
        <ele>257.29</ele>
        <time>2021-08-17T15:54:13Z</time>
      </trkpt>
      <trkpt lat="44.14672" lon="1.78061">
        <ele>257.77</ele>
        <time>2021-08-17T15:54:16Z</time>
      </trkpt>
      <trkpt lat="44.14671" lon="1.78062">
        <ele>258.25</ele>
        <time>2021-08-17T15:54:17Z</time>
      </trkpt>
      <trkpt lat="44.14671" lon="1.78064">
        <ele>258.25</ele>
        <time>2021-08-17T15:54:18Z</time>
      </trkpt>
      <trkpt lat="44.14671" lon="1.78066">
        <ele>258.25</ele>
        <time>2021-08-17T15:54:19Z</time>
      </trkpt>
      <trkpt lat="44.14669" lon="1.78076">
        <ele>258.25</ele>
        <time>2021-08-17T15:54:25Z</time>
      </trkpt>
      <trkpt lat="44.14668" lon="1.78079">
        <ele>258.73</ele>
        <time>2021-08-17T15:54:26Z</time>
      </trkpt>
      <trkpt lat="44.14664" lon="1.78095">
        <ele>258.73</ele>
        <time>2021-08-17T15:54:32Z</time>
      </trkpt>
      <trkpt lat="44.14661" lon="1.78102">
        <ele>257.29</ele>
        <time>2021-08-17T15:54:34Z</time>
      </trkpt>
      <trkpt lat="44.1465" lon="1.78122">
        <ele>256.81</ele>
        <time>2021-08-17T15:54:41Z</time>
      </trkpt>
      <trkpt lat="44.14643" lon="1.78127">
        <ele>256.81</ele>
        <time>2021-08-17T15:54:47Z</time>
      </trkpt>
      <trkpt lat="44.14633" lon="1.78135">
        <ele>258.25</ele>
        <time>2021-08-17T15:54:54Z</time>
      </trkpt>
      <trkpt lat="44.1463" lon="1.78139">
        <ele>258.25</ele>
        <time>2021-08-17T15:55:10Z</time>
      </trkpt>
      <trkpt lat="44.14629" lon="1.78141">
        <ele>258.25</ele>
        <time>2021-08-17T15:55:28Z</time>
      </trkpt>
      <trkpt lat="44.14626" lon="1.78141">
        <ele>258.25</ele>
        <time>2021-08-17T15:55:37Z</time>
      </trkpt>
      <trkpt lat="44.14625" lon="1.78143">
        <ele>258.73</ele>
        <time>2021-08-17T15:55:49Z</time>
      </trkpt>
      <trkpt lat="44.14622" lon="1.78148">
        <ele>259.69</ele>
        <time>2021-08-17T15:55:56Z</time>
      </trkpt>
      <trkpt lat="44.14618" lon="1.78152">
        <ele>259.69</ele>
        <time>2021-08-17T15:56:04Z</time>
      </trkpt>
      <trkpt lat="44.14615" lon="1.78154">
        <ele>259.69</ele>
        <time>2021-08-17T15:56:06Z</time>
      </trkpt>
      <trkpt lat="44.14614" lon="1.78155">
        <ele>259.69</ele>
        <time>2021-08-17T15:56:07Z</time>
      </trkpt>
      <trkpt lat="44.14602" lon="1.78166">
        <ele>260.17</ele>
        <time>2021-08-17T15:56:15Z</time>
      </trkpt>
      <trkpt lat="44.14595" lon="1.78175">
        <ele>260.65</ele>
        <time>2021-08-17T15:56:22Z</time>
      </trkpt>
      <trkpt lat="44.1459" lon="1.78181">
        <ele>261.14</ele>
        <time>2021-08-17T15:56:26Z</time>
      </trkpt>
      <trkpt lat="44.14589" lon="1.78187">
        <ele>259.69</ele>
        <time>2021-08-17T15:56:29Z</time>
      </trkpt>
      <trkpt lat="44.14577" lon="1.78201">
        <ele>259.21</ele>
        <time>2021-08-17T15:56:34Z</time>
      </trkpt>
      <trkpt lat="44.14558" lon="1.7822">
        <ele>258.73</ele>
        <time>2021-08-17T15:56:41Z</time>
      </trkpt>
      <trkpt lat="44.14547" lon="1.78231">
        <ele>258.25</ele>
        <time>2021-08-17T15:56:46Z</time>
      </trkpt>
      <trkpt lat="44.14531" lon="1.7825">
        <ele>257.77</ele>
        <time>2021-08-17T15:56:52Z</time>
      </trkpt>
      <trkpt lat="44.14511" lon="1.78269">
        <ele>257.29</ele>
        <time>2021-08-17T15:56:58Z</time>
      </trkpt>
      <trkpt lat="44.14503" lon="1.78275">
        <ele>257.29</ele>
        <time>2021-08-17T15:57:01Z</time>
      </trkpt>
      <trkpt lat="44.14501" lon="1.78277">
        <ele>257.29</ele>
        <time>2021-08-17T15:57:02Z</time>
      </trkpt>
      <trkpt lat="44.145" lon="1.78279">
        <ele>257.29</ele>
        <time>2021-08-17T15:57:03Z</time>
      </trkpt>
      <trkpt lat="44.14496" lon="1.78286">
        <ele>257.29</ele>
        <time>2021-08-17T15:57:07Z</time>
      </trkpt>
      <trkpt lat="44.14492" lon="1.78298">
        <ele>258.25</ele>
        <time>2021-08-17T15:57:11Z</time>
      </trkpt>
      <trkpt lat="44.1449" lon="1.78299">
        <ele>258.25</ele>
        <time>2021-08-17T15:57:12Z</time>
      </trkpt>
      <trkpt lat="44.14478" lon="1.78309">
        <ele>258.73</ele>
        <time>2021-08-17T15:57:15Z</time>
      </trkpt>
      <trkpt lat="44.14462" lon="1.78328">
        <ele>258.73</ele>
        <time>2021-08-17T15:57:22Z</time>
      </trkpt>
      <trkpt lat="44.14442" lon="1.7834">
        <ele>259.21</ele>
        <time>2021-08-17T15:57:28Z</time>
      </trkpt>
      <trkpt lat="44.14439" lon="1.78343">
        <ele>259.21</ele>
        <time>2021-08-17T15:57:29Z</time>
      </trkpt>
      <trkpt lat="44.14425" lon="1.78359">
        <ele>259.21</ele>
        <time>2021-08-17T15:57:36Z</time>
      </trkpt>
      <trkpt lat="44.14415" lon="1.78371">
        <ele>259.21</ele>
        <time>2021-08-17T15:57:41Z</time>
      </trkpt>
      <trkpt lat="44.14408" lon="1.78378">
        <ele>260.17</ele>
        <time>2021-08-17T15:57:45Z</time>
      </trkpt>
      <trkpt lat="44.14407" lon="1.7838">
        <ele>260.17</ele>
        <time>2021-08-17T15:57:46Z</time>
      </trkpt>
      <trkpt lat="44.144" lon="1.78392">
        <ele>262.1</ele>
        <time>2021-08-17T15:57:52Z</time>
      </trkpt>
      <trkpt lat="44.14395" lon="1.78398">
        <ele>263.54</ele>
        <time>2021-08-17T15:57:55Z</time>
      </trkpt>
      <trkpt lat="44.14386" lon="1.7841">
        <ele>264.5</ele>
        <time>2021-08-17T15:58:00Z</time>
      </trkpt>
      <trkpt lat="44.14373" lon="1.78421">
        <ele>264.98</ele>
        <time>2021-08-17T15:58:05Z</time>
      </trkpt>
      <trkpt lat="44.14372" lon="1.78424">
        <ele>264.98</ele>
        <time>2021-08-17T15:58:06Z</time>
      </trkpt>
      <trkpt lat="44.1437" lon="1.78426">
        <ele>264.98</ele>
        <time>2021-08-17T15:58:07Z</time>
      </trkpt>
      <trkpt lat="44.14366" lon="1.78431">
        <ele>265.46</ele>
        <time>2021-08-17T15:58:10Z</time>
      </trkpt>
      <trkpt lat="44.14363" lon="1.7844">
        <ele>264.02</ele>
        <time>2021-08-17T15:58:13Z</time>
      </trkpt>
      <trkpt lat="44.14362" lon="1.78443">
        <ele>264.02</ele>
        <time>2021-08-17T15:58:14Z</time>
      </trkpt>
      <trkpt lat="44.14354" lon="1.78454">
        <ele>264.02</ele>
        <time>2021-08-17T15:58:20Z</time>
      </trkpt>
      <trkpt lat="44.14342" lon="1.78469">
        <ele>265.46</ele>
        <time>2021-08-17T15:58:27Z</time>
      </trkpt>
      <trkpt lat="44.14329" lon="1.78488">
        <ele>266.42</ele>
        <time>2021-08-17T15:58:36Z</time>
      </trkpt>
      <trkpt lat="44.14328" lon="1.7849">
        <ele>266.9</ele>
        <time>2021-08-17T15:58:37Z</time>
      </trkpt>
      <trkpt lat="44.14327" lon="1.78493">
        <ele>266.9</ele>
        <time>2021-08-17T15:58:39Z</time>
      </trkpt>
      <trkpt lat="44.14319" lon="1.78506">
        <ele>267.38</ele>
        <time>2021-08-17T15:58:47Z</time>
      </trkpt>
      <trkpt lat="44.14315" lon="1.78511">
        <ele>267.38</ele>
        <time>2021-08-17T15:58:48Z</time>
      </trkpt>
      <trkpt lat="44.14311" lon="1.78515">
        <ele>267.86</ele>
        <time>2021-08-17T15:58:49Z</time>
      </trkpt>
      <trkpt lat="44.14309" lon="1.78518">
        <ele>268.35</ele>
        <time>2021-08-17T15:58:50Z</time>
      </trkpt>
      <trkpt lat="44.14295" lon="1.78536">
        <ele>269.79</ele>
        <time>2021-08-17T15:58:58Z</time>
      </trkpt>
      <trkpt lat="44.14294" lon="1.78538">
        <ele>269.79</ele>
        <time>2021-08-17T15:58:59Z</time>
      </trkpt>
      <trkpt lat="44.14292" lon="1.78539">
        <ele>269.79</ele>
        <time>2021-08-17T15:59:00Z</time>
      </trkpt>
      <trkpt lat="44.14291" lon="1.78541">
        <ele>269.79</ele>
        <time>2021-08-17T15:59:01Z</time>
      </trkpt>
      <trkpt lat="44.1429" lon="1.78543">
        <ele>270.27</ele>
        <time>2021-08-17T15:59:02Z</time>
      </trkpt>
      <trkpt lat="44.14289" lon="1.78545">
        <ele>270.27</ele>
        <time>2021-08-17T15:59:03Z</time>
      </trkpt>
      <trkpt lat="44.14289" lon="1.78546">
        <ele>270.27</ele>
        <time>2021-08-17T15:59:04Z</time>
      </trkpt>
      <trkpt lat="44.14279" lon="1.7856">
        <ele>271.71</ele>
        <time>2021-08-17T15:59:11Z</time>
      </trkpt>
      <trkpt lat="44.14274" lon="1.78568">
        <ele>272.19</ele>
        <time>2021-08-17T15:59:15Z</time>
      </trkpt>
      <trkpt lat="44.14272" lon="1.7857">
        <ele>272.19</ele>
        <time>2021-08-17T15:59:16Z</time>
      </trkpt>
      <trkpt lat="44.1427" lon="1.78573">
        <ele>272.19</ele>
        <time>2021-08-17T15:59:17Z</time>
      </trkpt>
      <trkpt lat="44.14269" lon="1.78576">
        <ele>272.19</ele>
        <time>2021-08-17T15:59:18Z</time>
      </trkpt>
      <trkpt lat="44.14267" lon="1.78579">
        <ele>272.19</ele>
        <time>2021-08-17T15:59:19Z</time>
      </trkpt>
      <trkpt lat="44.14266" lon="1.78582">
        <ele>272.19</ele>
        <time>2021-08-17T15:59:20Z</time>
      </trkpt>
      <trkpt lat="44.14265" lon="1.78584">
        <ele>272.19</ele>
        <time>2021-08-17T15:59:21Z</time>
      </trkpt>
      <trkpt lat="44.14263" lon="1.78586">
        <ele>272.19</ele>
        <time>2021-08-17T15:59:22Z</time>
      </trkpt>
      <trkpt lat="44.14262" lon="1.78588">
        <ele>272.67</ele>
        <time>2021-08-17T15:59:23Z</time>
      </trkpt>
      <trkpt lat="44.1426" lon="1.7859">
        <ele>273.15</ele>
        <time>2021-08-17T15:59:24Z</time>
      </trkpt>
      <trkpt lat="44.14259" lon="1.78593">
        <ele>273.15</ele>
        <time>2021-08-17T15:59:25Z</time>
      </trkpt>
      <trkpt lat="44.14257" lon="1.78596">
        <ele>273.15</ele>
        <time>2021-08-17T15:59:26Z</time>
      </trkpt>
      <trkpt lat="44.14249" lon="1.78611">
        <ele>273.63</ele>
        <time>2021-08-17T15:59:32Z</time>
      </trkpt>
      <trkpt lat="44.14238" lon="1.78629">
        <ele>274.59</ele>
        <time>2021-08-17T15:59:39Z</time>
      </trkpt>
      <trkpt lat="44.14229" lon="1.78643">
        <ele>275.07</ele>
        <time>2021-08-17T15:59:46Z</time>
      </trkpt>
      <trkpt lat="44.14226" lon="1.78652">
        <ele>275.07</ele>
        <time>2021-08-17T15:59:51Z</time>
      </trkpt>
      <trkpt lat="44.14216" lon="1.78666">
        <ele>273.63</ele>
        <time>2021-08-17T16:00:00Z</time>
      </trkpt>
      <trkpt lat="44.14216" lon="1.78668">
        <ele>272.67</ele>
        <time>2021-08-17T16:00:01Z</time>
      </trkpt>
      <trkpt lat="44.14214" lon="1.78672">
        <ele>272.67</ele>
        <time>2021-08-17T16:00:07Z</time>
      </trkpt>
      <trkpt lat="44.14214" lon="1.78674">
        <ele>272.67</ele>
        <time>2021-08-17T16:00:09Z</time>
      </trkpt>
      <trkpt lat="44.14214" lon="1.78676">
        <ele>272.19</ele>
        <time>2021-08-17T16:00:10Z</time>
      </trkpt>
      <trkpt lat="44.14214" lon="1.78678">
        <ele>271.71</ele>
        <time>2021-08-17T16:00:11Z</time>
      </trkpt>
      <trkpt lat="44.14213" lon="1.7868">
        <ele>271.71</ele>
        <time>2021-08-17T16:00:12Z</time>
      </trkpt>
      <trkpt lat="44.14212" lon="1.78682">
        <ele>272.19</ele>
        <time>2021-08-17T16:00:13Z</time>
      </trkpt>
      <trkpt lat="44.1421" lon="1.78686">
        <ele>272.19</ele>
        <time>2021-08-17T16:00:15Z</time>
      </trkpt>
      <trkpt lat="44.14208" lon="1.78689">
        <ele>272.19</ele>
        <time>2021-08-17T16:00:16Z</time>
      </trkpt>
      <trkpt lat="44.14205" lon="1.78691">
        <ele>272.19</ele>
        <time>2021-08-17T16:00:17Z</time>
      </trkpt>
      <trkpt lat="44.14203" lon="1.78693">
        <ele>272.19</ele>
        <time>2021-08-17T16:00:18Z</time>
      </trkpt>
      <trkpt lat="44.142" lon="1.78696">
        <ele>272.19</ele>
        <time>2021-08-17T16:00:19Z</time>
      </trkpt>
      <trkpt lat="44.14198" lon="1.787">
        <ele>272.19</ele>
        <time>2021-08-17T16:00:20Z</time>
      </trkpt>
      <trkpt lat="44.14196" lon="1.78703">
        <ele>273.15</ele>
        <time>2021-08-17T16:00:21Z</time>
      </trkpt>
      <trkpt lat="44.14194" lon="1.78705">
        <ele>273.15</ele>
        <time>2021-08-17T16:00:22Z</time>
      </trkpt>
      <trkpt lat="44.14183" lon="1.78721">
        <ele>273.63</ele>
        <time>2021-08-17T16:00:28Z</time>
      </trkpt>
      <trkpt lat="44.14171" lon="1.78738">
        <ele>274.11</ele>
        <time>2021-08-17T16:00:36Z</time>
      </trkpt>
      <trkpt lat="44.14164" lon="1.78753">
        <ele>275.07</ele>
        <time>2021-08-17T16:00:45Z</time>
      </trkpt>
      <trkpt lat="44.14151" lon="1.78769">
        <ele>276.04</ele>
        <time>2021-08-17T16:00:52Z</time>
      </trkpt>
      <trkpt lat="44.14141" lon="1.78781">
        <ele>277</ele>
        <time>2021-08-17T16:01:00Z</time>
      </trkpt>
      <trkpt lat="44.14138" lon="1.78785">
        <ele>277.96</ele>
        <time>2021-08-17T16:01:05Z</time>
      </trkpt>
      <trkpt lat="44.14128" lon="1.788">
        <ele>278.44</ele>
        <time>2021-08-17T16:01:13Z</time>
      </trkpt>
      <trkpt lat="44.14126" lon="1.78804">
        <ele>278.92</ele>
        <time>2021-08-17T16:01:14Z</time>
      </trkpt>
      <trkpt lat="44.14115" lon="1.7882">
        <ele>279.88</ele>
        <time>2021-08-17T16:01:21Z</time>
      </trkpt>
      <trkpt lat="44.14112" lon="1.78825">
        <ele>280.36</ele>
        <time>2021-08-17T16:01:23Z</time>
      </trkpt>
      <trkpt lat="44.14091" lon="1.78848">
        <ele>280.84</ele>
        <time>2021-08-17T16:01:31Z</time>
      </trkpt>
      <trkpt lat="44.14079" lon="1.78863">
        <ele>281.8</ele>
        <time>2021-08-17T16:01:38Z</time>
      </trkpt>
      <trkpt lat="44.14078" lon="1.78864">
        <ele>282.28</ele>
        <time>2021-08-17T16:01:39Z</time>
      </trkpt>
      <trkpt lat="44.14077" lon="1.78866">
        <ele>282.28</ele>
        <time>2021-08-17T16:01:40Z</time>
      </trkpt>
      <trkpt lat="44.14071" lon="1.78873">
        <ele>283.25</ele>
        <time>2021-08-17T16:01:46Z</time>
      </trkpt>
      <trkpt lat="44.14065" lon="1.78882">
        <ele>284.69</ele>
        <time>2021-08-17T16:01:54Z</time>
      </trkpt>
      <trkpt lat="44.14059" lon="1.78891">
        <ele>285.65</ele>
        <time>2021-08-17T16:02:02Z</time>
      </trkpt>
      <trkpt lat="44.1406" lon="1.78895">
        <ele>286.13</ele>
        <time>2021-08-17T16:02:14Z</time>
      </trkpt>
      <trkpt lat="44.14055" lon="1.789">
        <ele>286.61</ele>
        <time>2021-08-17T16:02:28Z</time>
      </trkpt>
      <trkpt lat="44.1405" lon="1.78903">
        <ele>287.57</ele>
        <time>2021-08-17T16:02:34Z</time>
      </trkpt>
      <trkpt lat="44.14045" lon="1.78911">
        <ele>289.01</ele>
        <time>2021-08-17T16:02:43Z</time>
      </trkpt>
      <trkpt lat="44.14043" lon="1.78915">
        <ele>290.46</ele>
        <time>2021-08-17T16:02:51Z</time>
      </trkpt>
      <trkpt lat="44.1404" lon="1.7892">
        <ele>290.46</ele>
        <time>2021-08-17T16:02:57Z</time>
      </trkpt>
      <trkpt lat="44.14035" lon="1.78928">
        <ele>290.94</ele>
        <time>2021-08-17T16:03:03Z</time>
      </trkpt>
      <trkpt lat="44.14034" lon="1.7893">
        <ele>290.94</ele>
        <time>2021-08-17T16:03:04Z</time>
      </trkpt>
      <trkpt lat="44.14025" lon="1.78942">
        <ele>291.9</ele>
        <time>2021-08-17T16:03:11Z</time>
      </trkpt>
      <trkpt lat="44.14022" lon="1.78954">
        <ele>291.9</ele>
        <time>2021-08-17T16:03:18Z</time>
      </trkpt>
      <trkpt lat="44.1402" lon="1.78959">
        <ele>292.38</ele>
        <time>2021-08-17T16:03:22Z</time>
      </trkpt>
      <trkpt lat="44.14018" lon="1.78964">
        <ele>293.34</ele>
        <time>2021-08-17T16:03:25Z</time>
      </trkpt>
      <trkpt lat="44.14017" lon="1.78965">
        <ele>293.34</ele>
        <time>2021-08-17T16:03:26Z</time>
      </trkpt>
      <trkpt lat="44.14016" lon="1.78967">
        <ele>293.34</ele>
        <time>2021-08-17T16:03:27Z</time>
      </trkpt>
      <trkpt lat="44.14016" lon="1.78969">
        <ele>293.34</ele>
        <time>2021-08-17T16:03:28Z</time>
      </trkpt>
      <trkpt lat="44.14012" lon="1.78974">
        <ele>294.3</ele>
        <time>2021-08-17T16:03:32Z</time>
      </trkpt>
      <trkpt lat="44.14008" lon="1.7898">
        <ele>295.26</ele>
        <time>2021-08-17T16:03:38Z</time>
      </trkpt>
      <trkpt lat="44.14007" lon="1.78981">
        <ele>295.74</ele>
        <time>2021-08-17T16:03:39Z</time>
      </trkpt>
      <trkpt lat="44.13998" lon="1.78991">
        <ele>296.7</ele>
        <time>2021-08-17T16:03:46Z</time>
      </trkpt>
      <trkpt lat="44.13991" lon="1.78998">
        <ele>297.67</ele>
        <time>2021-08-17T16:03:52Z</time>
      </trkpt>
      <trkpt lat="44.13988" lon="1.79004">
        <ele>299.11</ele>
        <time>2021-08-17T16:03:56Z</time>
      </trkpt>
      <trkpt lat="44.13987" lon="1.79007">
        <ele>299.11</ele>
        <time>2021-08-17T16:03:58Z</time>
      </trkpt>
      <trkpt lat="44.13986" lon="1.7901">
        <ele>299.11</ele>
        <time>2021-08-17T16:03:59Z</time>
      </trkpt>
      <trkpt lat="44.13985" lon="1.79013">
        <ele>299.11</ele>
        <time>2021-08-17T16:04:00Z</time>
      </trkpt>
      <trkpt lat="44.13979" lon="1.7903">
        <ele>299.11</ele>
        <time>2021-08-17T16:04:06Z</time>
      </trkpt>
      <trkpt lat="44.13977" lon="1.79032">
        <ele>299.11</ele>
        <time>2021-08-17T16:04:07Z</time>
      </trkpt>
      <trkpt lat="44.13976" lon="1.79034">
        <ele>299.11</ele>
        <time>2021-08-17T16:04:08Z</time>
      </trkpt>
      <trkpt lat="44.13974" lon="1.79037">
        <ele>299.11</ele>
        <time>2021-08-17T16:04:09Z</time>
      </trkpt>
      <trkpt lat="44.13964" lon="1.79049">
        <ele>300.07</ele>
        <time>2021-08-17T16:04:16Z</time>
      </trkpt>
      <trkpt lat="44.13957" lon="1.79055">
        <ele>301.99</ele>
        <time>2021-08-17T16:04:22Z</time>
      </trkpt>
      <trkpt lat="44.1395" lon="1.79061">
        <ele>303.43</ele>
        <time>2021-08-17T16:04:29Z</time>
      </trkpt>
      <trkpt lat="44.13937" lon="1.7907">
        <ele>305.36</ele>
        <time>2021-08-17T16:04:37Z</time>
      </trkpt>
      <trkpt lat="44.13933" lon="1.7907">
        <ele>305.36</ele>
        <time>2021-08-17T16:04:39Z</time>
      </trkpt>
      <trkpt lat="44.13931" lon="1.7907">
        <ele>305.36</ele>
        <time>2021-08-17T16:04:40Z</time>
      </trkpt>
      <trkpt lat="44.13929" lon="1.79069">
        <ele>305.36</ele>
        <time>2021-08-17T16:04:41Z</time>
      </trkpt>
      <trkpt lat="44.13927" lon="1.79068">
        <ele>305.36</ele>
        <time>2021-08-17T16:04:42Z</time>
      </trkpt>
      <trkpt lat="44.13924" lon="1.79067">
        <ele>305.36</ele>
        <time>2021-08-17T16:04:43Z</time>
      </trkpt>
      <trkpt lat="44.13922" lon="1.79066">
        <ele>305.36</ele>
        <time>2021-08-17T16:04:44Z</time>
      </trkpt>
      <trkpt lat="44.13907" lon="1.79069">
        <ele>304.88</ele>
        <time>2021-08-17T16:04:50Z</time>
      </trkpt>
      <trkpt lat="44.13898" lon="1.79076">
        <ele>304.88</ele>
        <time>2021-08-17T16:04:56Z</time>
      </trkpt>
      <trkpt lat="44.13885" lon="1.79087">
        <ele>306.8</ele>
        <time>2021-08-17T16:05:02Z</time>
      </trkpt>
      <trkpt lat="44.13871" lon="1.79101">
        <ele>307.76</ele>
        <time>2021-08-17T16:05:09Z</time>
      </trkpt>
      <trkpt lat="44.13868" lon="1.79105">
        <ele>307.76</ele>
        <time>2021-08-17T16:05:11Z</time>
      </trkpt>
      <trkpt lat="44.13866" lon="1.79107">
        <ele>307.76</ele>
        <time>2021-08-17T16:05:12Z</time>
      </trkpt>
      <trkpt lat="44.13864" lon="1.7911">
        <ele>307.76</ele>
        <time>2021-08-17T16:05:13Z</time>
      </trkpt>
      <trkpt lat="44.13852" lon="1.79122">
        <ele>307.76</ele>
        <time>2021-08-17T16:05:17Z</time>
      </trkpt>
      <trkpt lat="44.1384" lon="1.79136">
        <ele>307.76</ele>
        <time>2021-08-17T16:05:24Z</time>
      </trkpt>
      <trkpt lat="44.13823" lon="1.7915">
        <ele>309.68</ele>
        <time>2021-08-17T16:05:31Z</time>
      </trkpt>
      <trkpt lat="44.13799" lon="1.79166">
        <ele>311.6</ele>
        <time>2021-08-17T16:05:40Z</time>
      </trkpt>
      <trkpt lat="44.13779" lon="1.7918">
        <ele>313.53</ele>
        <time>2021-08-17T16:05:50Z</time>
      </trkpt>
      <trkpt lat="44.13769" lon="1.79184">
        <ele>314.49</ele>
        <time>2021-08-17T16:05:57Z</time>
      </trkpt>
      <trkpt lat="44.1376" lon="1.79191">
        <ele>316.41</ele>
        <time>2021-08-17T16:06:05Z</time>
      </trkpt>
      <trkpt lat="44.13752" lon="1.79198">
        <ele>317.37</ele>
        <time>2021-08-17T16:06:13Z</time>
      </trkpt>
      <trkpt lat="44.13746" lon="1.79204">
        <ele>317.85</ele>
        <time>2021-08-17T16:06:20Z</time>
      </trkpt>
      <trkpt lat="44.13743" lon="1.79207">
        <ele>317.85</ele>
        <time>2021-08-17T16:06:30Z</time>
      </trkpt>
      <trkpt lat="44.13737" lon="1.79211">
        <ele>318.81</ele>
        <time>2021-08-17T16:06:36Z</time>
      </trkpt>
      <trkpt lat="44.13724" lon="1.7922">
        <ele>319.78</ele>
        <time>2021-08-17T16:06:44Z</time>
      </trkpt>
      <trkpt lat="44.13712" lon="1.79227">
        <ele>321.22</ele>
        <time>2021-08-17T16:06:52Z</time>
      </trkpt>
      <trkpt lat="44.13695" lon="1.79228">
        <ele>322.66</ele>
        <time>2021-08-17T16:07:01Z</time>
      </trkpt>
      <trkpt lat="44.13693" lon="1.79227">
        <ele>323.14</ele>
        <time>2021-08-17T16:07:02Z</time>
      </trkpt>
      <trkpt lat="44.13682" lon="1.79223">
        <ele>324.1</ele>
        <time>2021-08-17T16:07:09Z</time>
      </trkpt>
      <trkpt lat="44.13677" lon="1.79222">
        <ele>324.1</ele>
        <time>2021-08-17T16:07:11Z</time>
      </trkpt>
      <trkpt lat="44.13662" lon="1.7922">
        <ele>325.06</ele>
        <time>2021-08-17T16:07:17Z</time>
      </trkpt>
      <trkpt lat="44.1365" lon="1.79218">
        <ele>326.02</ele>
        <time>2021-08-17T16:07:23Z</time>
      </trkpt>
      <trkpt lat="44.13635" lon="1.79215">
        <ele>326.99</ele>
        <time>2021-08-17T16:07:31Z</time>
      </trkpt>
      <trkpt lat="44.13633" lon="1.79214">
        <ele>326.99</ele>
        <time>2021-08-17T16:07:32Z</time>
      </trkpt>
      <trkpt lat="44.13625" lon="1.79216">
        <ele>327.95</ele>
        <time>2021-08-17T16:07:36Z</time>
      </trkpt>
      <trkpt lat="44.13622" lon="1.79219">
        <ele>327.95</ele>
        <time>2021-08-17T16:07:38Z</time>
      </trkpt>
      <trkpt lat="44.13612" lon="1.79233">
        <ele>328.91</ele>
        <time>2021-08-17T16:07:45Z</time>
      </trkpt>
      <trkpt lat="44.13601" lon="1.79253">
        <ele>329.87</ele>
        <time>2021-08-17T16:07:53Z</time>
      </trkpt>
      <trkpt lat="44.13593" lon="1.79277">
        <ele>329.87</ele>
        <time>2021-08-17T16:08:00Z</time>
      </trkpt>
      <trkpt lat="44.13584" lon="1.79303">
        <ele>330.35</ele>
        <time>2021-08-17T16:08:08Z</time>
      </trkpt>
      <trkpt lat="44.13574" lon="1.79324">
        <ele>331.31</ele>
        <time>2021-08-17T16:08:15Z</time>
      </trkpt>
      <trkpt lat="44.13565" lon="1.79341">
        <ele>332.75</ele>
        <time>2021-08-17T16:08:23Z</time>
      </trkpt>
      <trkpt lat="44.13564" lon="1.79343">
        <ele>332.75</ele>
        <time>2021-08-17T16:08:24Z</time>
      </trkpt>
      <trkpt lat="44.13564" lon="1.79345">
        <ele>332.75</ele>
        <time>2021-08-17T16:08:25Z</time>
      </trkpt>
      <trkpt lat="44.13563" lon="1.79347">
        <ele>332.75</ele>
        <time>2021-08-17T16:08:26Z</time>
      </trkpt>
      <trkpt lat="44.13562" lon="1.7935">
        <ele>332.75</ele>
        <time>2021-08-17T16:08:27Z</time>
      </trkpt>
      <trkpt lat="44.13553" lon="1.79365">
        <ele>333.23</ele>
        <time>2021-08-17T16:08:33Z</time>
      </trkpt>
      <trkpt lat="44.1354" lon="1.79385">
        <ele>334.68</ele>
        <time>2021-08-17T16:08:41Z</time>
      </trkpt>
      <trkpt lat="44.13538" lon="1.79386">
        <ele>334.68</ele>
        <time>2021-08-17T16:08:42Z</time>
      </trkpt>
      <trkpt lat="44.13536" lon="1.79385">
        <ele>334.68</ele>
        <time>2021-08-17T16:08:43Z</time>
      </trkpt>
      <trkpt lat="44.13534" lon="1.79383">
        <ele>334.68</ele>
        <time>2021-08-17T16:08:44Z</time>
      </trkpt>
      <trkpt lat="44.13533" lon="1.7938">
        <ele>335.16</ele>
        <time>2021-08-17T16:08:45Z</time>
      </trkpt>
      <trkpt lat="44.13532" lon="1.79377">
        <ele>335.16</ele>
        <time>2021-08-17T16:08:46Z</time>
      </trkpt>
      <trkpt lat="44.13527" lon="1.79358">
        <ele>335.64</ele>
        <time>2021-08-17T16:08:52Z</time>
      </trkpt>
      <trkpt lat="44.13518" lon="1.79326">
        <ele>336.12</ele>
        <time>2021-08-17T16:09:00Z</time>
      </trkpt>
      <trkpt lat="44.13506" lon="1.79298">
        <ele>336.6</ele>
        <time>2021-08-17T16:09:07Z</time>
      </trkpt>
      <trkpt lat="44.13506" lon="1.79294">
        <ele>337.08</ele>
        <time>2021-08-17T16:09:08Z</time>
      </trkpt>
      <trkpt lat="44.13508" lon="1.79289">
        <ele>337.08</ele>
        <time>2021-08-17T16:09:09Z</time>
      </trkpt>
      <trkpt lat="44.13525" lon="1.79258">
        <ele>337.08</ele>
        <time>2021-08-17T16:09:16Z</time>
      </trkpt>
      <trkpt lat="44.13532" lon="1.79241">
        <ele>335.64</ele>
        <time>2021-08-17T16:09:19Z</time>
      </trkpt>
      <trkpt lat="44.13551" lon="1.79197">
        <ele>335.64</ele>
        <time>2021-08-17T16:09:27Z</time>
      </trkpt>
      <trkpt lat="44.13576" lon="1.79143">
        <ele>335.64</ele>
        <time>2021-08-17T16:09:37Z</time>
      </trkpt>
      <trkpt lat="44.1359" lon="1.79107">
        <ele>337.08</ele>
        <time>2021-08-17T16:09:44Z</time>
      </trkpt>
      <trkpt lat="44.13606" lon="1.79072">
        <ele>338.52</ele>
        <time>2021-08-17T16:09:52Z</time>
      </trkpt>
      <trkpt lat="44.13617" lon="1.79048">
        <ele>339.96</ele>
        <time>2021-08-17T16:10:00Z</time>
      </trkpt>
      <trkpt lat="44.13625" lon="1.79025">
        <ele>341.89</ele>
        <time>2021-08-17T16:10:08Z</time>
      </trkpt>
      <trkpt lat="44.13636" lon="1.79">
        <ele>343.33</ele>
        <time>2021-08-17T16:10:18Z</time>
      </trkpt>
      <trkpt lat="44.13646" lon="1.78977">
        <ele>344.29</ele>
        <time>2021-08-17T16:10:27Z</time>
      </trkpt>
      <trkpt lat="44.13658" lon="1.78952">
        <ele>345.73</ele>
        <time>2021-08-17T16:10:37Z</time>
      </trkpt>
      <trkpt lat="44.13673" lon="1.7892">
        <ele>347.17</ele>
        <time>2021-08-17T16:10:49Z</time>
      </trkpt>
      <trkpt lat="44.13687" lon="1.78896">
        <ele>348.62</ele>
        <time>2021-08-17T16:10:59Z</time>
      </trkpt>
      <trkpt lat="44.13696" lon="1.7888">
        <ele>350.06</ele>
        <time>2021-08-17T16:11:06Z</time>
      </trkpt>
      <trkpt lat="44.13709" lon="1.7886">
        <ele>351.5</ele>
        <time>2021-08-17T16:11:14Z</time>
      </trkpt>
      <trkpt lat="44.13725" lon="1.78837">
        <ele>351.98</ele>
        <time>2021-08-17T16:11:23Z</time>
      </trkpt>
      <trkpt lat="44.13736" lon="1.78812">
        <ele>352.94</ele>
        <time>2021-08-17T16:11:31Z</time>
      </trkpt>
      <trkpt lat="44.1373" lon="1.78796">
        <ele>353.9</ele>
        <time>2021-08-17T16:11:36Z</time>
      </trkpt>
      <trkpt lat="44.13719" lon="1.78785">
        <ele>354.86</ele>
        <time>2021-08-17T16:11:42Z</time>
      </trkpt>
      <trkpt lat="44.13702" lon="1.78788">
        <ele>354.86</ele>
        <time>2021-08-17T16:11:48Z</time>
      </trkpt>
      <trkpt lat="44.13676" lon="1.78802">
        <ele>354.86</ele>
        <time>2021-08-17T16:11:55Z</time>
      </trkpt>
      <trkpt lat="44.13657" lon="1.78814">
        <ele>354.86</ele>
        <time>2021-08-17T16:12:01Z</time>
      </trkpt>
      <trkpt lat="44.1364" lon="1.78824">
        <ele>354.86</ele>
        <time>2021-08-17T16:12:06Z</time>
      </trkpt>
      <trkpt lat="44.13637" lon="1.78825">
        <ele>354.86</ele>
        <time>2021-08-17T16:12:07Z</time>
      </trkpt>
      <trkpt lat="44.13635" lon="1.78826">
        <ele>354.86</ele>
        <time>2021-08-17T16:12:08Z</time>
      </trkpt>
      <trkpt lat="44.13631" lon="1.78828">
        <ele>354.86</ele>
        <time>2021-08-17T16:12:09Z</time>
      </trkpt>
      <trkpt lat="44.13627" lon="1.78829">
        <ele>354.86</ele>
        <time>2021-08-17T16:12:10Z</time>
      </trkpt>
      <trkpt lat="44.13623" lon="1.78831">
        <ele>354.86</ele>
        <time>2021-08-17T16:12:11Z</time>
      </trkpt>
      <trkpt lat="44.13619" lon="1.78832">
        <ele>354.86</ele>
        <time>2021-08-17T16:12:12Z</time>
      </trkpt>
      <trkpt lat="44.1361" lon="1.78835">
        <ele>354.86</ele>
        <time>2021-08-17T16:12:14Z</time>
      </trkpt>
      <trkpt lat="44.13606" lon="1.78837">
        <ele>354.86</ele>
        <time>2021-08-17T16:12:15Z</time>
      </trkpt>
      <trkpt lat="44.13581" lon="1.78846">
        <ele>353.9</ele>
        <time>2021-08-17T16:12:21Z</time>
      </trkpt>
      <trkpt lat="44.13577" lon="1.78849">
        <ele>353.9</ele>
        <time>2021-08-17T16:12:23Z</time>
      </trkpt>
      <trkpt lat="44.13575" lon="1.78849">
        <ele>353.9</ele>
        <time>2021-08-17T16:12:24Z</time>
      </trkpt>
      <trkpt lat="44.13572" lon="1.78851">
        <ele>353.9</ele>
        <time>2021-08-17T16:12:31Z</time>
      </trkpt>
      <trkpt lat="44.13567" lon="1.78854">
        <ele>353.9</ele>
        <time>2021-08-17T16:12:38Z</time>
      </trkpt>
      <trkpt lat="44.13563" lon="1.78856">
        <ele>353.42</ele>
        <time>2021-08-17T16:12:40Z</time>
      </trkpt>
      <trkpt lat="44.13561" lon="1.78857">
        <ele>352.94</ele>
        <time>2021-08-17T16:12:41Z</time>
      </trkpt>
      <trkpt lat="44.13558" lon="1.78857">
        <ele>352.94</ele>
        <time>2021-08-17T16:12:42Z</time>
      </trkpt>
      <trkpt lat="44.13532" lon="1.78868">
        <ele>351.5</ele>
        <time>2021-08-17T16:12:49Z</time>
      </trkpt>
      <trkpt lat="44.1351" lon="1.78876">
        <ele>350.54</ele>
        <time>2021-08-17T16:12:54Z</time>
      </trkpt>
      <trkpt lat="44.13506" lon="1.78877">
        <ele>350.54</ele>
        <time>2021-08-17T16:12:55Z</time>
      </trkpt>
      <trkpt lat="44.13502" lon="1.78878">
        <ele>350.06</ele>
        <time>2021-08-17T16:12:56Z</time>
      </trkpt>
      <trkpt lat="44.13488" lon="1.78882">
        <ele>349.58</ele>
        <time>2021-08-17T16:12:59Z</time>
      </trkpt>
      <trkpt lat="44.13466" lon="1.78892">
        <ele>349.1</ele>
        <time>2021-08-17T16:13:04Z</time>
      </trkpt>
      <trkpt lat="44.13433" lon="1.78914">
        <ele>347.17</ele>
        <time>2021-08-17T16:13:11Z</time>
      </trkpt>
      <trkpt lat="44.13428" lon="1.78918">
        <ele>347.17</ele>
        <time>2021-08-17T16:13:12Z</time>
      </trkpt>
      <trkpt lat="44.13423" lon="1.78921">
        <ele>346.21</ele>
        <time>2021-08-17T16:13:13Z</time>
      </trkpt>
      <trkpt lat="44.13418" lon="1.78924">
        <ele>346.21</ele>
        <time>2021-08-17T16:13:14Z</time>
      </trkpt>
      <trkpt lat="44.13403" lon="1.78939">
        <ele>345.73</ele>
        <time>2021-08-17T16:13:17Z</time>
      </trkpt>
      <trkpt lat="44.134" lon="1.78944">
        <ele>345.73</ele>
        <time>2021-08-17T16:13:18Z</time>
      </trkpt>
      <trkpt lat="44.13397" lon="1.78949">
        <ele>344.77</ele>
        <time>2021-08-17T16:13:19Z</time>
      </trkpt>
      <trkpt lat="44.13393" lon="1.78953">
        <ele>344.29</ele>
        <time>2021-08-17T16:13:20Z</time>
      </trkpt>
      <trkpt lat="44.13388" lon="1.78956">
        <ele>343.81</ele>
        <time>2021-08-17T16:13:21Z</time>
      </trkpt>
      <trkpt lat="44.13362" lon="1.78976">
        <ele>341.41</ele>
        <time>2021-08-17T16:13:26Z</time>
      </trkpt>
      <trkpt lat="44.13357" lon="1.78981">
        <ele>341.41</ele>
        <time>2021-08-17T16:13:27Z</time>
      </trkpt>
      <trkpt lat="44.13351" lon="1.78986">
        <ele>341.41</ele>
        <time>2021-08-17T16:13:28Z</time>
      </trkpt>
      <trkpt lat="44.1332" lon="1.79012">
        <ele>339.48</ele>
        <time>2021-08-17T16:13:34Z</time>
      </trkpt>
      <trkpt lat="44.13313" lon="1.79021">
        <ele>339.48</ele>
        <time>2021-08-17T16:13:36Z</time>
      </trkpt>
      <trkpt lat="44.13309" lon="1.79021">
        <ele>339.48</ele>
        <time>2021-08-17T16:13:37Z</time>
      </trkpt>
      <trkpt lat="44.13305" lon="1.7902">
        <ele>339.48</ele>
        <time>2021-08-17T16:13:38Z</time>
      </trkpt>
      <trkpt lat="44.13301" lon="1.7902">
        <ele>339.48</ele>
        <time>2021-08-17T16:13:39Z</time>
      </trkpt>
      <trkpt lat="44.13297" lon="1.79022">
        <ele>339.48</ele>
        <time>2021-08-17T16:13:40Z</time>
      </trkpt>
      <trkpt lat="44.13292" lon="1.79025">
        <ele>339.48</ele>
        <time>2021-08-17T16:13:41Z</time>
      </trkpt>
      <trkpt lat="44.13287" lon="1.79029">
        <ele>339</ele>
        <time>2021-08-17T16:13:42Z</time>
      </trkpt>
      <trkpt lat="44.13278" lon="1.79036">
        <ele>338.04</ele>
        <time>2021-08-17T16:13:44Z</time>
      </trkpt>
      <trkpt lat="44.13273" lon="1.7904">
        <ele>338.04</ele>
        <time>2021-08-17T16:13:45Z</time>
      </trkpt>
      <trkpt lat="44.13268" lon="1.79044">
        <ele>337.56</ele>
        <time>2021-08-17T16:13:46Z</time>
      </trkpt>
      <trkpt lat="44.13233" lon="1.79077">
        <ele>337.08</ele>
        <time>2021-08-17T16:13:54Z</time>
      </trkpt>
      <trkpt lat="44.13197" lon="1.79114">
        <ele>335.64</ele>
        <time>2021-08-17T16:14:03Z</time>
      </trkpt>
      <trkpt lat="44.13169" lon="1.79143">
        <ele>334.68</ele>
        <time>2021-08-17T16:14:09Z</time>
      </trkpt>
      <trkpt lat="44.13166" lon="1.79147">
        <ele>334.68</ele>
        <time>2021-08-17T16:14:10Z</time>
      </trkpt>
      <trkpt lat="44.13164" lon="1.79149">
        <ele>334.68</ele>
        <time>2021-08-17T16:14:11Z</time>
      </trkpt>
      <trkpt lat="44.1316" lon="1.79155">
        <ele>334.68</ele>
        <time>2021-08-17T16:14:17Z</time>
      </trkpt>
      <trkpt lat="44.13156" lon="1.79157">
        <ele>334.68</ele>
        <time>2021-08-17T16:14:20Z</time>
      </trkpt>
      <trkpt lat="44.13154" lon="1.79158">
        <ele>334.2</ele>
        <time>2021-08-17T16:14:21Z</time>
      </trkpt>
      <trkpt lat="44.13151" lon="1.79158">
        <ele>334.2</ele>
        <time>2021-08-17T16:14:22Z</time>
      </trkpt>
      <trkpt lat="44.13148" lon="1.79156">
        <ele>334.2</ele>
        <time>2021-08-17T16:14:23Z</time>
      </trkpt>
      <trkpt lat="44.13145" lon="1.79153">
        <ele>334.2</ele>
        <time>2021-08-17T16:14:24Z</time>
      </trkpt>
      <trkpt lat="44.13142" lon="1.7915">
        <ele>333.71</ele>
        <time>2021-08-17T16:14:25Z</time>
      </trkpt>
      <trkpt lat="44.13138" lon="1.79146">
        <ele>333.23</ele>
        <time>2021-08-17T16:14:26Z</time>
      </trkpt>
      <trkpt lat="44.13104" lon="1.79102">
        <ele>331.79</ele>
        <time>2021-08-17T16:14:34Z</time>
      </trkpt>
      <trkpt lat="44.13072" lon="1.79054">
        <ele>330.35</ele>
        <time>2021-08-17T16:14:41Z</time>
      </trkpt>
      <trkpt lat="44.13039" lon="1.79003">
        <ele>330.35</ele>
        <time>2021-08-17T16:14:49Z</time>
      </trkpt>
      <trkpt lat="44.13009" lon="1.78955">
        <ele>330.35</ele>
        <time>2021-08-17T16:14:57Z</time>
      </trkpt>
      <trkpt lat="44.13005" lon="1.7895">
        <ele>330.35</ele>
        <time>2021-08-17T16:14:58Z</time>
      </trkpt>
      <trkpt lat="44.13001" lon="1.78945">
        <ele>330.35</ele>
        <time>2021-08-17T16:14:59Z</time>
      </trkpt>
      <trkpt lat="44.1299" lon="1.7893">
        <ele>330.35</ele>
        <time>2021-08-17T16:15:02Z</time>
      </trkpt>
      <trkpt lat="44.12986" lon="1.78925">
        <ele>330.35</ele>
        <time>2021-08-17T16:15:03Z</time>
      </trkpt>
      <trkpt lat="44.12982" lon="1.78919">
        <ele>330.35</ele>
        <time>2021-08-17T16:15:04Z</time>
      </trkpt>
      <trkpt lat="44.12955" lon="1.78863">
        <ele>330.35</ele>
        <time>2021-08-17T16:15:13Z</time>
      </trkpt>
      <trkpt lat="44.12952" lon="1.78857">
        <ele>330.35</ele>
        <time>2021-08-17T16:15:14Z</time>
      </trkpt>
      <trkpt lat="44.1295" lon="1.7885">
        <ele>330.35</ele>
        <time>2021-08-17T16:15:15Z</time>
      </trkpt>
      <trkpt lat="44.12947" lon="1.78837">
        <ele>331.31</ele>
        <time>2021-08-17T16:15:17Z</time>
      </trkpt>
      <trkpt lat="44.12946" lon="1.7883">
        <ele>331.31</ele>
        <time>2021-08-17T16:15:18Z</time>
      </trkpt>
      <trkpt lat="44.12942" lon="1.78785">
        <ele>332.27</ele>
        <time>2021-08-17T16:15:26Z</time>
      </trkpt>
      <trkpt lat="44.12936" lon="1.7873">
        <ele>332.75</ele>
        <time>2021-08-17T16:15:36Z</time>
      </trkpt>
      <trkpt lat="44.12925" lon="1.78674">
        <ele>333.23</ele>
        <time>2021-08-17T16:15:46Z</time>
      </trkpt>
      <trkpt lat="44.12915" lon="1.78645">
        <ele>333.23</ele>
        <time>2021-08-17T16:15:53Z</time>
      </trkpt>
      <trkpt lat="44.12904" lon="1.78641">
        <ele>333.23</ele>
        <time>2021-08-17T16:15:56Z</time>
      </trkpt>
      <trkpt lat="44.12899" lon="1.7864">
        <ele>333.23</ele>
        <time>2021-08-17T16:15:57Z</time>
      </trkpt>
      <trkpt lat="44.12865" lon="1.7864">
        <ele>331.79</ele>
        <time>2021-08-17T16:16:03Z</time>
      </trkpt>
      <trkpt lat="44.12804" lon="1.78639">
        <ele>330.83</ele>
        <time>2021-08-17T16:16:12Z</time>
      </trkpt>
      <trkpt lat="44.12742" lon="1.78639">
        <ele>329.87</ele>
        <time>2021-08-17T16:16:21Z</time>
      </trkpt>
      <trkpt lat="44.1269" lon="1.7864">
        <ele>331.31</ele>
        <time>2021-08-17T16:16:30Z</time>
      </trkpt>
      <trkpt lat="44.12653" lon="1.78639">
        <ele>332.27</ele>
        <time>2021-08-17T16:16:38Z</time>
      </trkpt>
      <trkpt lat="44.12618" lon="1.78638">
        <ele>333.71</ele>
        <time>2021-08-17T16:16:47Z</time>
      </trkpt>
      <trkpt lat="44.12579" lon="1.78639">
        <ele>334.68</ele>
        <time>2021-08-17T16:16:57Z</time>
      </trkpt>
      <trkpt lat="44.12546" lon="1.78639">
        <ele>334.68</ele>
        <time>2021-08-17T16:17:05Z</time>
      </trkpt>
      <trkpt lat="44.125" lon="1.78639">
        <ele>336.12</ele>
        <time>2021-08-17T16:17:16Z</time>
      </trkpt>
      <trkpt lat="44.12466" lon="1.78639">
        <ele>336.6</ele>
        <time>2021-08-17T16:17:25Z</time>
      </trkpt>
      <trkpt lat="44.12443" lon="1.78634">
        <ele>337.08</ele>
        <time>2021-08-17T16:17:32Z</time>
      </trkpt>
      <trkpt lat="44.12442" lon="1.7863">
        <ele>337.08</ele>
        <time>2021-08-17T16:17:33Z</time>
      </trkpt>
      <trkpt lat="44.12442" lon="1.78626">
        <ele>337.08</ele>
        <time>2021-08-17T16:17:34Z</time>
      </trkpt>
      <trkpt lat="44.12442" lon="1.78623">
        <ele>337.08</ele>
        <time>2021-08-17T16:17:35Z</time>
      </trkpt>
      <trkpt lat="44.12442" lon="1.78618">
        <ele>337.56</ele>
        <time>2021-08-17T16:17:36Z</time>
      </trkpt>
      <trkpt lat="44.12443" lon="1.78613">
        <ele>337.56</ele>
        <time>2021-08-17T16:17:37Z</time>
      </trkpt>
      <trkpt lat="44.12447" lon="1.78579">
        <ele>338.04</ele>
        <time>2021-08-17T16:17:44Z</time>
      </trkpt>
      <trkpt lat="44.12456" lon="1.78542">
        <ele>338.52</ele>
        <time>2021-08-17T16:17:52Z</time>
      </trkpt>
      <trkpt lat="44.12465" lon="1.78502">
        <ele>338.52</ele>
        <time>2021-08-17T16:18:00Z</time>
      </trkpt>
      <trkpt lat="44.12469" lon="1.78453">
        <ele>339.48</ele>
        <time>2021-08-17T16:18:10Z</time>
      </trkpt>
      <trkpt lat="44.12466" lon="1.78435">
        <ele>339.48</ele>
        <time>2021-08-17T16:18:14Z</time>
      </trkpt>
      <trkpt lat="44.12464" lon="1.78432">
        <ele>339.48</ele>
        <time>2021-08-17T16:18:15Z</time>
      </trkpt>
      <trkpt lat="44.12461" lon="1.78429">
        <ele>339.48</ele>
        <time>2021-08-17T16:18:16Z</time>
      </trkpt>
      <trkpt lat="44.12444" lon="1.78414">
        <ele>338.04</ele>
        <time>2021-08-17T16:18:21Z</time>
      </trkpt>
      <trkpt lat="44.12413" lon="1.78381">
        <ele>337.08</ele>
        <time>2021-08-17T16:18:30Z</time>
      </trkpt>
      <trkpt lat="44.12387" lon="1.78352">
        <ele>336.12</ele>
        <time>2021-08-17T16:18:37Z</time>
      </trkpt>
      <trkpt lat="44.12362" lon="1.7832">
        <ele>335.16</ele>
        <time>2021-08-17T16:18:43Z</time>
      </trkpt>
      <trkpt lat="44.12351" lon="1.78304">
        <ele>334.68</ele>
        <time>2021-08-17T16:18:46Z</time>
      </trkpt>
      <trkpt lat="44.12341" lon="1.78286">
        <ele>334.68</ele>
        <time>2021-08-17T16:18:49Z</time>
      </trkpt>
      <trkpt lat="44.12337" lon="1.78281">
        <ele>334.68</ele>
        <time>2021-08-17T16:18:50Z</time>
      </trkpt>
      <trkpt lat="44.12333" lon="1.78277">
        <ele>334.68</ele>
        <time>2021-08-17T16:18:51Z</time>
      </trkpt>
      <trkpt lat="44.12328" lon="1.78274">
        <ele>334.68</ele>
        <time>2021-08-17T16:18:52Z</time>
      </trkpt>
      <trkpt lat="44.12324" lon="1.78271">
        <ele>334.68</ele>
        <time>2021-08-17T16:18:53Z</time>
      </trkpt>
      <trkpt lat="44.1232" lon="1.78267">
        <ele>334.68</ele>
        <time>2021-08-17T16:18:54Z</time>
      </trkpt>
      <trkpt lat="44.12316" lon="1.78263">
        <ele>334.68</ele>
        <time>2021-08-17T16:18:55Z</time>
      </trkpt>
      <trkpt lat="44.1229" lon="1.78234">
        <ele>334.2</ele>
        <time>2021-08-17T16:19:02Z</time>
      </trkpt>
      <trkpt lat="44.12268" lon="1.78216">
        <ele>333.71</ele>
        <time>2021-08-17T16:19:07Z</time>
      </trkpt>
      <trkpt lat="44.12244" lon="1.78204">
        <ele>333.71</ele>
        <time>2021-08-17T16:19:12Z</time>
      </trkpt>
      <trkpt lat="44.12239" lon="1.78203">
        <ele>333.71</ele>
        <time>2021-08-17T16:19:13Z</time>
      </trkpt>
      <trkpt lat="44.12234" lon="1.78202">
        <ele>333.71</ele>
        <time>2021-08-17T16:19:14Z</time>
      </trkpt>
      <trkpt lat="44.1221" lon="1.78197">
        <ele>334.68</ele>
        <time>2021-08-17T16:19:20Z</time>
      </trkpt>
      <trkpt lat="44.12192" lon="1.78192">
        <ele>336.12</ele>
        <time>2021-08-17T16:19:26Z</time>
      </trkpt>
      <trkpt lat="44.12178" lon="1.78184">
        <ele>337.08</ele>
        <time>2021-08-17T16:19:33Z</time>
      </trkpt>
      <trkpt lat="44.12163" lon="1.78175">
        <ele>338.04</ele>
        <time>2021-08-17T16:19:40Z</time>
      </trkpt>
      <trkpt lat="44.12144" lon="1.78163">
        <ele>339</ele>
        <time>2021-08-17T16:19:48Z</time>
      </trkpt>
      <trkpt lat="44.12124" lon="1.7815">
        <ele>339.48</ele>
        <time>2021-08-17T16:19:55Z</time>
      </trkpt>
      <trkpt lat="44.1211" lon="1.78138">
        <ele>339.48</ele>
        <time>2021-08-17T16:20:00Z</time>
      </trkpt>
      <trkpt lat="44.12091" lon="1.78124">
        <ele>339.48</ele>
        <time>2021-08-17T16:20:05Z</time>
      </trkpt>
      <trkpt lat="44.12087" lon="1.78121">
        <ele>338.04</ele>
        <time>2021-08-17T16:20:06Z</time>
      </trkpt>
      <trkpt lat="44.12083" lon="1.78117">
        <ele>338.04</ele>
        <time>2021-08-17T16:20:07Z</time>
      </trkpt>
      <trkpt lat="44.12079" lon="1.78113">
        <ele>338.04</ele>
        <time>2021-08-17T16:20:08Z</time>
      </trkpt>
      <trkpt lat="44.12075" lon="1.78109">
        <ele>337.56</ele>
        <time>2021-08-17T16:20:09Z</time>
      </trkpt>
      <trkpt lat="44.12044" lon="1.78075">
        <ele>335.16</ele>
        <time>2021-08-17T16:20:17Z</time>
      </trkpt>
      <trkpt lat="44.12014" lon="1.78033">
        <ele>334.68</ele>
        <time>2021-08-17T16:20:25Z</time>
      </trkpt>
      <trkpt lat="44.11978" lon="1.77979">
        <ele>332.27</ele>
        <time>2021-08-17T16:20:33Z</time>
      </trkpt>
      <trkpt lat="44.11944" lon="1.77935">
        <ele>331.31</ele>
        <time>2021-08-17T16:20:39Z</time>
      </trkpt>
      <trkpt lat="44.11938" lon="1.77929">
        <ele>331.31</ele>
        <time>2021-08-17T16:20:40Z</time>
      </trkpt>
      <trkpt lat="44.11932" lon="1.77922">
        <ele>331.31</ele>
        <time>2021-08-17T16:20:41Z</time>
      </trkpt>
      <trkpt lat="44.11928" lon="1.77915">
        <ele>331.31</ele>
        <time>2021-08-17T16:20:42Z</time>
      </trkpt>
      <trkpt lat="44.11923" lon="1.77908">
        <ele>331.31</ele>
        <time>2021-08-17T16:20:43Z</time>
      </trkpt>
      <trkpt lat="44.11918" lon="1.77901">
        <ele>331.31</ele>
        <time>2021-08-17T16:20:44Z</time>
      </trkpt>
      <trkpt lat="44.11903" lon="1.77885">
        <ele>331.31</ele>
        <time>2021-08-17T16:20:47Z</time>
      </trkpt>
      <trkpt lat="44.11892" lon="1.77876">
        <ele>331.31</ele>
        <time>2021-08-17T16:20:49Z</time>
      </trkpt>
      <trkpt lat="44.11887" lon="1.77871">
        <ele>331.31</ele>
        <time>2021-08-17T16:20:50Z</time>
      </trkpt>
      <trkpt lat="44.11862" lon="1.77851">
        <ele>331.31</ele>
        <time>2021-08-17T16:20:55Z</time>
      </trkpt>
      <trkpt lat="44.11856" lon="1.77849">
        <ele>331.31</ele>
        <time>2021-08-17T16:20:56Z</time>
      </trkpt>
      <trkpt lat="44.11851" lon="1.77847">
        <ele>331.31</ele>
        <time>2021-08-17T16:20:57Z</time>
      </trkpt>
      <trkpt lat="44.11808" lon="1.77829">
        <ele>331.31</ele>
        <time>2021-08-17T16:21:05Z</time>
      </trkpt>
      <trkpt lat="44.11772" lon="1.77804">
        <ele>333.23</ele>
        <time>2021-08-17T16:21:13Z</time>
      </trkpt>
      <trkpt lat="44.1175" lon="1.77791">
        <ele>333.23</ele>
        <time>2021-08-17T16:21:18Z</time>
      </trkpt>
      <trkpt lat="44.11747" lon="1.77787">
        <ele>333.23</ele>
        <time>2021-08-17T16:21:19Z</time>
      </trkpt>
      <trkpt lat="44.11746" lon="1.77783">
        <ele>333.23</ele>
        <time>2021-08-17T16:21:20Z</time>
      </trkpt>
      <trkpt lat="44.11745" lon="1.77777">
        <ele>332.75</ele>
        <time>2021-08-17T16:21:21Z</time>
      </trkpt>
      <trkpt lat="44.11743" lon="1.77773">
        <ele>333.23</ele>
        <time>2021-08-17T16:21:22Z</time>
      </trkpt>
      <trkpt lat="44.11741" lon="1.77771">
        <ele>333.23</ele>
        <time>2021-08-17T16:21:23Z</time>
      </trkpt>
      <trkpt lat="44.11738" lon="1.77768">
        <ele>333.23</ele>
        <time>2021-08-17T16:21:24Z</time>
      </trkpt>
      <trkpt lat="44.11736" lon="1.77767">
        <ele>332.75</ele>
        <time>2021-08-17T16:21:25Z</time>
      </trkpt>
      <trkpt lat="44.11726" lon="1.77761">
        <ele>332.75</ele>
        <time>2021-08-17T16:21:31Z</time>
      </trkpt>
      <trkpt lat="44.11725" lon="1.7776">
        <ele>332.75</ele>
        <time>2021-08-17T16:21:44Z</time>
      </trkpt>
      <trkpt lat="44.11725" lon="1.7776">
        <ele>332.75</ele>
        <time>2021-08-17T16:22:08Z</time>
      </trkpt>
      <trkpt lat="44.11724" lon="1.7776">
        <ele>332.75</ele>
        <time>2021-08-17T16:22:24Z</time>
      </trkpt>
      <trkpt lat="44.11719" lon="1.77757">
        <ele>332.75</ele>
        <time>2021-08-17T16:22:34Z</time>
      </trkpt>
      <trkpt lat="44.11703" lon="1.77752">
        <ele>333.71</ele>
        <time>2021-08-17T16:22:41Z</time>
      </trkpt>
      <trkpt lat="44.11684" lon="1.77743">
        <ele>334.68</ele>
        <time>2021-08-17T16:22:48Z</time>
      </trkpt>
      <trkpt lat="44.11662" lon="1.77732">
        <ele>335.64</ele>
        <time>2021-08-17T16:22:56Z</time>
      </trkpt>
      <trkpt lat="44.11648" lon="1.77721">
        <ele>335.64</ele>
        <time>2021-08-17T16:23:01Z</time>
      </trkpt>
      <trkpt lat="44.11639" lon="1.77711">
        <ele>334.2</ele>
        <time>2021-08-17T16:23:04Z</time>
      </trkpt>
      <trkpt lat="44.11625" lon="1.77686">
        <ele>333.23</ele>
        <time>2021-08-17T16:23:10Z</time>
      </trkpt>
      <trkpt lat="44.11621" lon="1.77677">
        <ele>333.23</ele>
        <time>2021-08-17T16:23:12Z</time>
      </trkpt>
      <trkpt lat="44.11617" lon="1.77665">
        <ele>332.27</ele>
        <time>2021-08-17T16:23:14Z</time>
      </trkpt>
      <trkpt lat="44.11614" lon="1.7766">
        <ele>331.79</ele>
        <time>2021-08-17T16:23:15Z</time>
      </trkpt>
      <trkpt lat="44.11611" lon="1.77654">
        <ele>331.31</ele>
        <time>2021-08-17T16:23:16Z</time>
      </trkpt>
      <trkpt lat="44.11609" lon="1.77648">
        <ele>331.31</ele>
        <time>2021-08-17T16:23:17Z</time>
      </trkpt>
      <trkpt lat="44.11608" lon="1.77641">
        <ele>330.83</ele>
        <time>2021-08-17T16:23:18Z</time>
      </trkpt>
      <trkpt lat="44.11607" lon="1.77633">
        <ele>329.87</ele>
        <time>2021-08-17T16:23:19Z</time>
      </trkpt>
      <trkpt lat="44.11606" lon="1.77626">
        <ele>329.87</ele>
        <time>2021-08-17T16:23:20Z</time>
      </trkpt>
      <trkpt lat="44.11605" lon="1.77618">
        <ele>329.39</ele>
        <time>2021-08-17T16:23:21Z</time>
      </trkpt>
      <trkpt lat="44.11605" lon="1.7761">
        <ele>328.91</ele>
        <time>2021-08-17T16:23:22Z</time>
      </trkpt>
      <trkpt lat="44.11605" lon="1.77585">
        <ele>327.47</ele>
        <time>2021-08-17T16:23:25Z</time>
      </trkpt>
      <trkpt lat="44.11602" lon="1.77554">
        <ele>326.5</ele>
        <time>2021-08-17T16:23:29Z</time>
      </trkpt>
      <trkpt lat="44.11602" lon="1.77546">
        <ele>326.02</ele>
        <time>2021-08-17T16:23:30Z</time>
      </trkpt>
      <trkpt lat="44.11603" lon="1.7754">
        <ele>326.02</ele>
        <time>2021-08-17T16:23:31Z</time>
      </trkpt>
      <trkpt lat="44.11606" lon="1.77534">
        <ele>326.02</ele>
        <time>2021-08-17T16:23:32Z</time>
      </trkpt>
      <trkpt lat="44.11608" lon="1.77528">
        <ele>326.02</ele>
        <time>2021-08-17T16:23:33Z</time>
      </trkpt>
      <trkpt lat="44.11609" lon="1.77522">
        <ele>326.02</ele>
        <time>2021-08-17T16:23:34Z</time>
      </trkpt>
      <trkpt lat="44.1161" lon="1.77516">
        <ele>326.02</ele>
        <time>2021-08-17T16:23:35Z</time>
      </trkpt>
      <trkpt lat="44.1161" lon="1.7751">
        <ele>325.06</ele>
        <time>2021-08-17T16:23:36Z</time>
      </trkpt>
      <trkpt lat="44.1161" lon="1.77504">
        <ele>325.06</ele>
        <time>2021-08-17T16:23:37Z</time>
      </trkpt>
      <trkpt lat="44.1161" lon="1.77499">
        <ele>325.06</ele>
        <time>2021-08-17T16:23:38Z</time>
      </trkpt>
      <trkpt lat="44.11604" lon="1.77475">
        <ele>325.06</ele>
        <time>2021-08-17T16:23:43Z</time>
      </trkpt>
      <trkpt lat="44.11603" lon="1.77469">
        <ele>325.06</ele>
        <time>2021-08-17T16:23:44Z</time>
      </trkpt>
      <trkpt lat="44.11602" lon="1.77456">
        <ele>325.06</ele>
        <time>2021-08-17T16:23:46Z</time>
      </trkpt>
      <trkpt lat="44.116" lon="1.7745">
        <ele>325.06</ele>
        <time>2021-08-17T16:23:47Z</time>
      </trkpt>
      <trkpt lat="44.11597" lon="1.77445">
        <ele>325.06</ele>
        <time>2021-08-17T16:23:48Z</time>
      </trkpt>
      <trkpt lat="44.11587" lon="1.77428">
        <ele>324.58</ele>
        <time>2021-08-17T16:23:51Z</time>
      </trkpt>
      <trkpt lat="44.11584" lon="1.77422">
        <ele>324.58</ele>
        <time>2021-08-17T16:23:52Z</time>
      </trkpt>
      <trkpt lat="44.11582" lon="1.77415">
        <ele>324.58</ele>
        <time>2021-08-17T16:23:53Z</time>
      </trkpt>
      <trkpt lat="44.11579" lon="1.77409">
        <ele>324.58</ele>
        <time>2021-08-17T16:23:54Z</time>
      </trkpt>
      <trkpt lat="44.11577" lon="1.77403">
        <ele>324.58</ele>
        <time>2021-08-17T16:23:55Z</time>
      </trkpt>
      <trkpt lat="44.11573" lon="1.77391">
        <ele>324.58</ele>
        <time>2021-08-17T16:23:57Z</time>
      </trkpt>
      <trkpt lat="44.11572" lon="1.77385">
        <ele>324.58</ele>
        <time>2021-08-17T16:23:58Z</time>
      </trkpt>
      <trkpt lat="44.11576" lon="1.77371">
        <ele>326.02</ele>
        <time>2021-08-17T16:24:01Z</time>
      </trkpt>
      <trkpt lat="44.11575" lon="1.77368">
        <ele>326.5</ele>
        <time>2021-08-17T16:24:02Z</time>
      </trkpt>
      <trkpt lat="44.11574" lon="1.77366">
        <ele>326.5</ele>
        <time>2021-08-17T16:24:03Z</time>
      </trkpt>
      <trkpt lat="44.11573" lon="1.77364">
        <ele>326.5</ele>
        <time>2021-08-17T16:24:04Z</time>
      </trkpt>
      <trkpt lat="44.11572" lon="1.77362">
        <ele>326.5</ele>
        <time>2021-08-17T16:24:05Z</time>
      </trkpt>
      <trkpt lat="44.11571" lon="1.77359">
        <ele>326.5</ele>
        <time>2021-08-17T16:24:06Z</time>
      </trkpt>
      <trkpt lat="44.11569" lon="1.77356">
        <ele>326.5</ele>
        <time>2021-08-17T16:24:07Z</time>
      </trkpt>
      <trkpt lat="44.11566" lon="1.77353">
        <ele>326.5</ele>
        <time>2021-08-17T16:24:08Z</time>
      </trkpt>
      <trkpt lat="44.11548" lon="1.77336">
        <ele>326.5</ele>
        <time>2021-08-17T16:24:15Z</time>
      </trkpt>
      <trkpt lat="44.11534" lon="1.77329">
        <ele>325.06</ele>
        <time>2021-08-17T16:24:20Z</time>
      </trkpt>
      <trkpt lat="44.1153" lon="1.77328">
        <ele>325.06</ele>
        <time>2021-08-17T16:24:21Z</time>
      </trkpt>
      <trkpt lat="44.1151" lon="1.77322">
        <ele>324.1</ele>
        <time>2021-08-17T16:24:27Z</time>
      </trkpt>
      <trkpt lat="44.11506" lon="1.7732">
        <ele>323.62</ele>
        <time>2021-08-17T16:24:28Z</time>
      </trkpt>
      <trkpt lat="44.11492" lon="1.77318">
        <ele>322.66</ele>
        <time>2021-08-17T16:24:31Z</time>
      </trkpt>
      <trkpt lat="44.11488" lon="1.77317">
        <ele>322.66</ele>
        <time>2021-08-17T16:24:32Z</time>
      </trkpt>
      <trkpt lat="44.11483" lon="1.77315">
        <ele>322.18</ele>
        <time>2021-08-17T16:24:33Z</time>
      </trkpt>
      <trkpt lat="44.11475" lon="1.77313">
        <ele>322.18</ele>
        <time>2021-08-17T16:24:35Z</time>
      </trkpt>
      <trkpt lat="44.11462" lon="1.77307">
        <ele>321.22</ele>
        <time>2021-08-17T16:24:38Z</time>
      </trkpt>
      <trkpt lat="44.11458" lon="1.77305">
        <ele>321.7</ele>
        <time>2021-08-17T16:24:39Z</time>
      </trkpt>
      <trkpt lat="44.11454" lon="1.77303">
        <ele>321.7</ele>
        <time>2021-08-17T16:24:40Z</time>
      </trkpt>
      <trkpt lat="44.1145" lon="1.77302">
        <ele>321.7</ele>
        <time>2021-08-17T16:24:41Z</time>
      </trkpt>
      <trkpt lat="44.11447" lon="1.773">
        <ele>321.22</ele>
        <time>2021-08-17T16:24:42Z</time>
      </trkpt>
      <trkpt lat="44.11443" lon="1.77299">
        <ele>321.22</ele>
        <time>2021-08-17T16:24:43Z</time>
      </trkpt>
      <trkpt lat="44.1144" lon="1.77298">
        <ele>321.22</ele>
        <time>2021-08-17T16:24:44Z</time>
      </trkpt>
      <trkpt lat="44.11438" lon="1.77296">
        <ele>321.22</ele>
        <time>2021-08-17T16:24:45Z</time>
      </trkpt>
      <trkpt lat="44.11423" lon="1.77289">
        <ele>321.22</ele>
        <time>2021-08-17T16:24:50Z</time>
      </trkpt>
      <trkpt lat="44.114" lon="1.77278">
        <ele>321.22</ele>
        <time>2021-08-17T16:24:57Z</time>
      </trkpt>
      <trkpt lat="44.11377" lon="1.77268">
        <ele>322.18</ele>
        <time>2021-08-17T16:25:04Z</time>
      </trkpt>
      <trkpt lat="44.11374" lon="1.77266">
        <ele>322.18</ele>
        <time>2021-08-17T16:25:05Z</time>
      </trkpt>
      <trkpt lat="44.1137" lon="1.77263">
        <ele>322.18</ele>
        <time>2021-08-17T16:25:06Z</time>
      </trkpt>
      <trkpt lat="44.11365" lon="1.77262">
        <ele>322.18</ele>
        <time>2021-08-17T16:25:07Z</time>
      </trkpt>
      <trkpt lat="44.11356" lon="1.7726">
        <ele>322.18</ele>
        <time>2021-08-17T16:25:09Z</time>
      </trkpt>
      <trkpt lat="44.11352" lon="1.77258">
        <ele>322.18</ele>
        <time>2021-08-17T16:25:10Z</time>
      </trkpt>
      <trkpt lat="44.11348" lon="1.77256">
        <ele>322.18</ele>
        <time>2021-08-17T16:25:11Z</time>
      </trkpt>
      <trkpt lat="44.11344" lon="1.77254">
        <ele>322.18</ele>
        <time>2021-08-17T16:25:12Z</time>
      </trkpt>
      <trkpt lat="44.1134" lon="1.77253">
        <ele>322.18</ele>
        <time>2021-08-17T16:25:13Z</time>
      </trkpt>
      <trkpt lat="44.11336" lon="1.77251">
        <ele>322.18</ele>
        <time>2021-08-17T16:25:14Z</time>
      </trkpt>
      <trkpt lat="44.11332" lon="1.7725">
        <ele>321.22</ele>
        <time>2021-08-17T16:25:15Z</time>
      </trkpt>
      <trkpt lat="44.11327" lon="1.77248">
        <ele>321.22</ele>
        <time>2021-08-17T16:25:16Z</time>
      </trkpt>
      <trkpt lat="44.11307" lon="1.77243">
        <ele>319.3</ele>
        <time>2021-08-17T16:25:21Z</time>
      </trkpt>
      <trkpt lat="44.11305" lon="1.77242">
        <ele>319.3</ele>
        <time>2021-08-17T16:25:22Z</time>
      </trkpt>
      <trkpt lat="44.11305" lon="1.77241">
        <ele>319.3</ele>
        <time>2021-08-17T16:25:27Z</time>
      </trkpt>
      <trkpt lat="44.11306" lon="1.77242">
        <ele>319.3</ele>
        <time>2021-08-17T16:25:33Z</time>
      </trkpt>
      <trkpt lat="44.11306" lon="1.77237">
        <ele>319.3</ele>
        <time>2021-08-17T16:25:39Z</time>
      </trkpt>
      <trkpt lat="44.11305" lon="1.77239">
        <ele>319.3</ele>
        <time>2021-08-17T16:25:47Z</time>
      </trkpt>
      <trkpt lat="44.11305" lon="1.77237">
        <ele>319.3</ele>
        <time>2021-08-17T16:25:50Z</time>
      </trkpt>
      <trkpt lat="44.11305" lon="1.77236">
        <ele>319.3</ele>
        <time>2021-08-17T16:25:51Z</time>
      </trkpt>
      <trkpt lat="44.11306" lon="1.77234">
        <ele>319.3</ele>
        <time>2021-08-17T16:25:52Z</time>
      </trkpt>
      <trkpt lat="44.11306" lon="1.77233">
        <ele>319.3</ele>
        <time>2021-08-17T16:25:53Z</time>
      </trkpt>
      <trkpt lat="44.11306" lon="1.77231">
        <ele>319.3</ele>
        <time>2021-08-17T16:25:54Z</time>
      </trkpt>
      <trkpt lat="44.11305" lon="1.77228">
        <ele>319.3</ele>
        <time>2021-08-17T16:25:55Z</time>
      </trkpt>
      <trkpt lat="44.11305" lon="1.77225">
        <ele>319.3</ele>
        <time>2021-08-17T16:25:56Z</time>
      </trkpt>
      <trkpt lat="44.11304" lon="1.7722">
        <ele>319.3</ele>
        <time>2021-08-17T16:25:57Z</time>
      </trkpt>
      <trkpt lat="44.11304" lon="1.77216">
        <ele>319.3</ele>
        <time>2021-08-17T16:25:58Z</time>
      </trkpt>
      <trkpt lat="44.11298" lon="1.77185">
        <ele>318.33</ele>
        <time>2021-08-17T16:26:05Z</time>
      </trkpt>
      <trkpt lat="44.11292" lon="1.77151">
        <ele>317.37</ele>
        <time>2021-08-17T16:26:11Z</time>
      </trkpt>
      <trkpt lat="44.11275" lon="1.77098">
        <ele>314.97</ele>
        <time>2021-08-17T16:26:18Z</time>
      </trkpt>
      <trkpt lat="44.11257" lon="1.77055">
        <ele>313.05</ele>
        <time>2021-08-17T16:26:23Z</time>
      </trkpt>
      <trkpt lat="44.11247" lon="1.77026">
        <ele>312.57</ele>
        <time>2021-08-17T16:26:26Z</time>
      </trkpt>
      <trkpt lat="44.1124" lon="1.77008">
        <ele>312.57</ele>
        <time>2021-08-17T16:26:28Z</time>
      </trkpt>
      <trkpt lat="44.11238" lon="1.76999">
        <ele>312.57</ele>
        <time>2021-08-17T16:26:29Z</time>
      </trkpt>
      <trkpt lat="44.11237" lon="1.76989">
        <ele>312.57</ele>
        <time>2021-08-17T16:26:30Z</time>
      </trkpt>
      <trkpt lat="44.11238" lon="1.76981">
        <ele>312.57</ele>
        <time>2021-08-17T16:26:31Z</time>
      </trkpt>
      <trkpt lat="44.11239" lon="1.76973">
        <ele>312.09</ele>
        <time>2021-08-17T16:26:32Z</time>
      </trkpt>
      <trkpt lat="44.1124" lon="1.76966">
        <ele>312.57</ele>
        <time>2021-08-17T16:26:33Z</time>
      </trkpt>
      <trkpt lat="44.11241" lon="1.76959">
        <ele>312.57</ele>
        <time>2021-08-17T16:26:34Z</time>
      </trkpt>
      <trkpt lat="44.11241" lon="1.76947">
        <ele>313.53</ele>
        <time>2021-08-17T16:26:36Z</time>
      </trkpt>
      <trkpt lat="44.1124" lon="1.7694">
        <ele>314.01</ele>
        <time>2021-08-17T16:26:37Z</time>
      </trkpt>
      <trkpt lat="44.11237" lon="1.76936">
        <ele>314.01</ele>
        <time>2021-08-17T16:26:38Z</time>
      </trkpt>
      <trkpt lat="44.11219" lon="1.76912">
        <ele>314.97</ele>
        <time>2021-08-17T16:26:44Z</time>
      </trkpt>
      <trkpt lat="44.11212" lon="1.76897">
        <ele>315.45</ele>
        <time>2021-08-17T16:26:47Z</time>
      </trkpt>
      <trkpt lat="44.11211" lon="1.76891">
        <ele>315.45</ele>
        <time>2021-08-17T16:26:48Z</time>
      </trkpt>
      <trkpt lat="44.11203" lon="1.76854">
        <ele>314.97</ele>
        <time>2021-08-17T16:26:55Z</time>
      </trkpt>
      <trkpt lat="44.11186" lon="1.76816">
        <ele>314.97</ele>
        <time>2021-08-17T16:27:03Z</time>
      </trkpt>
      <trkpt lat="44.1118" lon="1.76804">
        <ele>313.53</ele>
        <time>2021-08-17T16:27:05Z</time>
      </trkpt>
      <trkpt lat="44.11151" lon="1.76739">
        <ele>310.16</ele>
        <time>2021-08-17T16:27:14Z</time>
      </trkpt>
      <trkpt lat="44.11141" lon="1.76714">
        <ele>309.68</ele>
        <time>2021-08-17T16:27:17Z</time>
      </trkpt>
      <trkpt lat="44.11137" lon="1.76707">
        <ele>309.68</ele>
        <time>2021-08-17T16:27:18Z</time>
      </trkpt>
      <trkpt lat="44.11132" lon="1.767">
        <ele>308.72</ele>
        <time>2021-08-17T16:27:19Z</time>
      </trkpt>
      <trkpt lat="44.11126" lon="1.76694">
        <ele>307.76</ele>
        <time>2021-08-17T16:27:20Z</time>
      </trkpt>
      <trkpt lat="44.1112" lon="1.76688">
        <ele>306.8</ele>
        <time>2021-08-17T16:27:21Z</time>
      </trkpt>
      <trkpt lat="44.11115" lon="1.76685">
        <ele>306.8</ele>
        <time>2021-08-17T16:27:22Z</time>
      </trkpt>
      <trkpt lat="44.11111" lon="1.76685">
        <ele>306.8</ele>
        <time>2021-08-17T16:27:23Z</time>
      </trkpt>
      <trkpt lat="44.11107" lon="1.76687">
        <ele>306.8</ele>
        <time>2021-08-17T16:27:24Z</time>
      </trkpt>
      <trkpt lat="44.11104" lon="1.76689">
        <ele>306.8</ele>
        <time>2021-08-17T16:27:25Z</time>
      </trkpt>
      <trkpt lat="44.11102" lon="1.7669">
        <ele>306.8</ele>
        <time>2021-08-17T16:27:26Z</time>
      </trkpt>
      <trkpt lat="44.11101" lon="1.7669">
        <ele>305.84</ele>
        <time>2021-08-17T16:27:31Z</time>
      </trkpt>
      <trkpt lat="44.111" lon="1.76688">
        <ele>306.32</ele>
        <time>2021-08-17T16:27:37Z</time>
      </trkpt>
      <trkpt lat="44.11099" lon="1.76688">
        <ele>306.32</ele>
        <time>2021-08-17T16:27:41Z</time>
      </trkpt>
      <trkpt lat="44.11097" lon="1.76687">
        <ele>306.32</ele>
        <time>2021-08-17T16:27:42Z</time>
      </trkpt>
      <trkpt lat="44.11095" lon="1.76686">
        <ele>305.84</ele>
        <time>2021-08-17T16:27:43Z</time>
      </trkpt>
      <trkpt lat="44.11093" lon="1.76686">
        <ele>305.84</ele>
        <time>2021-08-17T16:27:44Z</time>
      </trkpt>
      <trkpt lat="44.1109" lon="1.76688">
        <ele>305.36</ele>
        <time>2021-08-17T16:27:45Z</time>
      </trkpt>
      <trkpt lat="44.11088" lon="1.76691">
        <ele>305.36</ele>
        <time>2021-08-17T16:27:46Z</time>
      </trkpt>
      <trkpt lat="44.11067" lon="1.7671">
        <ele>304.88</ele>
        <time>2021-08-17T16:27:52Z</time>
      </trkpt>
      <trkpt lat="44.11062" lon="1.76713">
        <ele>304.39</ele>
        <time>2021-08-17T16:27:53Z</time>
      </trkpt>
      <trkpt lat="44.11057" lon="1.76716">
        <ele>304.39</ele>
        <time>2021-08-17T16:27:54Z</time>
      </trkpt>
      <trkpt lat="44.11015" lon="1.76732">
        <ele>304.39</ele>
        <time>2021-08-17T16:28:03Z</time>
      </trkpt>
      <trkpt lat="44.10998" lon="1.76739">
        <ele>305.84</ele>
        <time>2021-08-17T16:28:07Z</time>
      </trkpt>
      <trkpt lat="44.10966" lon="1.7675">
        <ele>306.32</ele>
        <time>2021-08-17T16:28:15Z</time>
      </trkpt>
      <trkpt lat="44.10929" lon="1.76762">
        <ele>306.32</ele>
        <time>2021-08-17T16:28:23Z</time>
      </trkpt>
      <trkpt lat="44.10893" lon="1.76775">
        <ele>306.8</ele>
        <time>2021-08-17T16:28:32Z</time>
      </trkpt>
      <trkpt lat="44.10868" lon="1.76788">
        <ele>307.76</ele>
        <time>2021-08-17T16:28:39Z</time>
      </trkpt>
      <trkpt lat="44.10843" lon="1.76801">
        <ele>308.72</ele>
        <time>2021-08-17T16:28:47Z</time>
      </trkpt>
      <trkpt lat="44.10814" lon="1.76816">
        <ele>310.16</ele>
        <time>2021-08-17T16:28:57Z</time>
      </trkpt>
      <trkpt lat="44.10785" lon="1.76826">
        <ele>311.12</ele>
        <time>2021-08-17T16:29:06Z</time>
      </trkpt>
      <trkpt lat="44.10761" lon="1.76836">
        <ele>312.09</ele>
        <time>2021-08-17T16:29:14Z</time>
      </trkpt>
      <trkpt lat="44.10734" lon="1.76849">
        <ele>312.57</ele>
        <time>2021-08-17T16:29:24Z</time>
      </trkpt>
      <trkpt lat="44.10707" lon="1.76866">
        <ele>314.01</ele>
        <time>2021-08-17T16:29:35Z</time>
      </trkpt>
      <trkpt lat="44.10693" lon="1.76877">
        <ele>314.97</ele>
        <time>2021-08-17T16:29:42Z</time>
      </trkpt>
      <trkpt lat="44.10677" lon="1.76893">
        <ele>316.41</ele>
        <time>2021-08-17T16:29:50Z</time>
      </trkpt>
      <trkpt lat="44.10661" lon="1.76914">
        <ele>317.37</ele>
        <time>2021-08-17T16:29:58Z</time>
      </trkpt>
      <trkpt lat="44.10647" lon="1.7693">
        <ele>317.85</ele>
        <time>2021-08-17T16:30:04Z</time>
      </trkpt>
      <trkpt lat="44.10625" lon="1.76946">
        <ele>318.33</ele>
        <time>2021-08-17T16:30:12Z</time>
      </trkpt>
      <trkpt lat="44.10603" lon="1.76962">
        <ele>319.3</ele>
        <time>2021-08-17T16:30:20Z</time>
      </trkpt>
      <trkpt lat="44.10582" lon="1.7698">
        <ele>319.3</ele>
        <time>2021-08-17T16:30:27Z</time>
      </trkpt>
      <trkpt lat="44.10561" lon="1.76997">
        <ele>320.26</ele>
        <time>2021-08-17T16:30:35Z</time>
      </trkpt>
      <trkpt lat="44.10547" lon="1.77009">
        <ele>320.74</ele>
        <time>2021-08-17T16:30:40Z</time>
      </trkpt>
      <trkpt lat="44.10529" lon="1.7702">
        <ele>322.18</ele>
        <time>2021-08-17T16:30:47Z</time>
      </trkpt>
      <trkpt lat="44.10505" lon="1.7703">
        <ele>322.66</ele>
        <time>2021-08-17T16:30:54Z</time>
      </trkpt>
      <trkpt lat="44.1049" lon="1.77043">
        <ele>322.66</ele>
        <time>2021-08-17T16:30:59Z</time>
      </trkpt>
      <trkpt lat="44.10469" lon="1.77061">
        <ele>323.14</ele>
        <time>2021-08-17T16:31:06Z</time>
      </trkpt>
      <trkpt lat="44.10449" lon="1.77079">
        <ele>323.62</ele>
        <time>2021-08-17T16:31:13Z</time>
      </trkpt>
      <trkpt lat="44.10429" lon="1.77103">
        <ele>323.62</ele>
        <time>2021-08-17T16:31:20Z</time>
      </trkpt>
      <trkpt lat="44.10402" lon="1.77141">
        <ele>324.1</ele>
        <time>2021-08-17T16:31:30Z</time>
      </trkpt>
      <trkpt lat="44.10382" lon="1.77177">
        <ele>324.58</ele>
        <time>2021-08-17T16:31:39Z</time>
      </trkpt>
      <trkpt lat="44.10366" lon="1.77205">
        <ele>325.06</ele>
        <time>2021-08-17T16:31:46Z</time>
      </trkpt>
      <trkpt lat="44.10354" lon="1.77228">
        <ele>325.54</ele>
        <time>2021-08-17T16:31:53Z</time>
      </trkpt>
      <trkpt lat="44.10341" lon="1.7725">
        <ele>326.02</ele>
        <time>2021-08-17T16:31:59Z</time>
      </trkpt>
      <trkpt lat="44.10333" lon="1.77278">
        <ele>326.02</ele>
        <time>2021-08-17T16:32:04Z</time>
      </trkpt>
      <trkpt lat="44.10332" lon="1.77321">
        <ele>326.02</ele>
        <time>2021-08-17T16:32:10Z</time>
      </trkpt>
      <trkpt lat="44.10344" lon="1.77362">
        <ele>326.99</ele>
        <time>2021-08-17T16:32:18Z</time>
      </trkpt>
      <trkpt lat="44.10353" lon="1.77385">
        <ele>327.95</ele>
        <time>2021-08-17T16:32:25Z</time>
      </trkpt>
      <trkpt lat="44.10365" lon="1.77405">
        <ele>329.39</ele>
        <time>2021-08-17T16:32:33Z</time>
      </trkpt>
      <trkpt lat="44.10373" lon="1.77421">
        <ele>329.87</ele>
        <time>2021-08-17T16:32:39Z</time>
      </trkpt>
      <trkpt lat="44.10385" lon="1.77447">
        <ele>330.83</ele>
        <time>2021-08-17T16:32:47Z</time>
      </trkpt>
      <trkpt lat="44.10393" lon="1.77472">
        <ele>332.27</ele>
        <time>2021-08-17T16:32:55Z</time>
      </trkpt>
      <trkpt lat="44.10395" lon="1.77495">
        <ele>333.71</ele>
        <time>2021-08-17T16:33:03Z</time>
      </trkpt>
      <trkpt lat="44.10396" lon="1.77525">
        <ele>334.68</ele>
        <time>2021-08-17T16:33:13Z</time>
      </trkpt>
      <trkpt lat="44.10394" lon="1.77552">
        <ele>336.12</ele>
        <time>2021-08-17T16:33:21Z</time>
      </trkpt>
      <trkpt lat="44.10387" lon="1.77575">
        <ele>336.6</ele>
        <time>2021-08-17T16:33:28Z</time>
      </trkpt>
      <trkpt lat="44.10374" lon="1.77599">
        <ele>337.08</ele>
        <time>2021-08-17T16:33:35Z</time>
      </trkpt>
      <trkpt lat="44.10361" lon="1.77624">
        <ele>338.04</ele>
        <time>2021-08-17T16:33:41Z</time>
      </trkpt>
      <trkpt lat="44.10341" lon="1.77659">
        <ele>336.6</ele>
        <time>2021-08-17T16:33:49Z</time>
      </trkpt>
      <trkpt lat="44.10336" lon="1.7767">
        <ele>336.12</ele>
        <time>2021-08-17T16:33:51Z</time>
      </trkpt>
      <trkpt lat="44.10324" lon="1.7771">
        <ele>335.64</ele>
        <time>2021-08-17T16:33:58Z</time>
      </trkpt>
      <trkpt lat="44.10318" lon="1.77758">
        <ele>335.64</ele>
        <time>2021-08-17T16:34:06Z</time>
      </trkpt>
      <trkpt lat="44.10316" lon="1.7778">
        <ele>337.08</ele>
        <time>2021-08-17T16:34:10Z</time>
      </trkpt>
      <trkpt lat="44.10312" lon="1.77815">
        <ele>338.04</ele>
        <time>2021-08-17T16:34:17Z</time>
      </trkpt>
      <trkpt lat="44.10309" lon="1.77844">
        <ele>339</ele>
        <time>2021-08-17T16:34:24Z</time>
      </trkpt>
      <trkpt lat="44.10307" lon="1.77873">
        <ele>340.44</ele>
        <time>2021-08-17T16:34:31Z</time>
      </trkpt>
      <trkpt lat="44.10303" lon="1.77911">
        <ele>341.41</ele>
        <time>2021-08-17T16:34:40Z</time>
      </trkpt>
      <trkpt lat="44.10298" lon="1.7794">
        <ele>342.37</ele>
        <time>2021-08-17T16:34:47Z</time>
      </trkpt>
      <trkpt lat="44.10289" lon="1.77969">
        <ele>343.33</ele>
        <time>2021-08-17T16:34:54Z</time>
      </trkpt>
      <trkpt lat="44.1028" lon="1.77997">
        <ele>342.85</ele>
        <time>2021-08-17T16:35:00Z</time>
      </trkpt>
      <trkpt lat="44.10272" lon="1.78013">
        <ele>342.85</ele>
        <time>2021-08-17T16:35:03Z</time>
      </trkpt>
      <trkpt lat="44.10269" lon="1.78017">
        <ele>342.85</ele>
        <time>2021-08-17T16:35:04Z</time>
      </trkpt>
      <trkpt lat="44.10251" lon="1.78044">
        <ele>341.41</ele>
        <time>2021-08-17T16:35:09Z</time>
      </trkpt>
      <trkpt lat="44.10248" lon="1.78051">
        <ele>340.92</ele>
        <time>2021-08-17T16:35:10Z</time>
      </trkpt>
      <trkpt lat="44.10246" lon="1.78058">
        <ele>340.92</ele>
        <time>2021-08-17T16:35:11Z</time>
      </trkpt>
      <trkpt lat="44.10244" lon="1.7807">
        <ele>339.48</ele>
        <time>2021-08-17T16:35:13Z</time>
      </trkpt>
      <trkpt lat="44.10243" lon="1.78081">
        <ele>339</ele>
        <time>2021-08-17T16:35:15Z</time>
      </trkpt>
      <trkpt lat="44.10241" lon="1.78084">
        <ele>338.04</ele>
        <time>2021-08-17T16:35:16Z</time>
      </trkpt>
      <trkpt lat="44.10238" lon="1.78087">
        <ele>338.04</ele>
        <time>2021-08-17T16:35:17Z</time>
      </trkpt>
      <trkpt lat="44.10236" lon="1.78087">
        <ele>337.56</ele>
        <time>2021-08-17T16:35:18Z</time>
      </trkpt>
      <trkpt lat="44.10233" lon="1.78085">
        <ele>337.56</ele>
        <time>2021-08-17T16:35:19Z</time>
      </trkpt>
      <trkpt lat="44.10231" lon="1.78083">
        <ele>337.56</ele>
        <time>2021-08-17T16:35:20Z</time>
      </trkpt>
      <trkpt lat="44.1023" lon="1.78081">
        <ele>337.56</ele>
        <time>2021-08-17T16:35:21Z</time>
      </trkpt>
      <trkpt lat="44.10212" lon="1.78055">
        <ele>337.08</ele>
        <time>2021-08-17T16:35:28Z</time>
      </trkpt>
      <trkpt lat="44.10183" lon="1.78018">
        <ele>336.12</ele>
        <time>2021-08-17T16:35:35Z</time>
      </trkpt>
      <trkpt lat="44.10153" lon="1.77967">
        <ele>335.16</ele>
        <time>2021-08-17T16:35:42Z</time>
      </trkpt>
      <trkpt lat="44.10118" lon="1.77903">
        <ele>332.75</ele>
        <time>2021-08-17T16:35:50Z</time>
      </trkpt>
      <trkpt lat="44.10076" lon="1.77833">
        <ele>332.27</ele>
        <time>2021-08-17T16:35:59Z</time>
      </trkpt>
      <trkpt lat="44.10043" lon="1.77762">
        <ele>330.83</ele>
        <time>2021-08-17T16:36:07Z</time>
      </trkpt>
      <trkpt lat="44.10007" lon="1.77707">
        <ele>329.39</ele>
        <time>2021-08-17T16:36:14Z</time>
      </trkpt>
      <trkpt lat="44.09989" lon="1.77674">
        <ele>328.43</ele>
        <time>2021-08-17T16:36:18Z</time>
      </trkpt>
      <trkpt lat="44.09962" lon="1.77607">
        <ele>326.99</ele>
        <time>2021-08-17T16:36:26Z</time>
      </trkpt>
      <trkpt lat="44.09953" lon="1.77584">
        <ele>326.99</ele>
        <time>2021-08-17T16:36:29Z</time>
      </trkpt>
      <trkpt lat="44.09941" lon="1.7753">
        <ele>326.99</ele>
        <time>2021-08-17T16:36:36Z</time>
      </trkpt>
      <trkpt lat="44.09925" lon="1.7746">
        <ele>325.06</ele>
        <time>2021-08-17T16:36:44Z</time>
      </trkpt>
      <trkpt lat="44.09915" lon="1.77417">
        <ele>323.62</ele>
        <time>2021-08-17T16:36:48Z</time>
      </trkpt>
      <trkpt lat="44.09911" lon="1.77407">
        <ele>323.62</ele>
        <time>2021-08-17T16:36:49Z</time>
      </trkpt>
      <trkpt lat="44.09907" lon="1.77398">
        <ele>323.14</ele>
        <time>2021-08-17T16:36:50Z</time>
      </trkpt>
      <trkpt lat="44.09902" lon="1.7739">
        <ele>323.14</ele>
        <time>2021-08-17T16:36:51Z</time>
      </trkpt>
      <trkpt lat="44.09896" lon="1.77383">
        <ele>323.14</ele>
        <time>2021-08-17T16:36:52Z</time>
      </trkpt>
      <trkpt lat="44.09891" lon="1.77376">
        <ele>323.14</ele>
        <time>2021-08-17T16:36:53Z</time>
      </trkpt>
      <trkpt lat="44.09885" lon="1.7737">
        <ele>323.14</ele>
        <time>2021-08-17T16:36:54Z</time>
      </trkpt>
      <trkpt lat="44.09843" lon="1.77332">
        <ele>323.14</ele>
        <time>2021-08-17T16:37:01Z</time>
      </trkpt>
      <trkpt lat="44.09828" lon="1.7732">
        <ele>324.58</ele>
        <time>2021-08-17T16:37:04Z</time>
      </trkpt>
      <trkpt lat="44.09814" lon="1.7731">
        <ele>324.58</ele>
        <time>2021-08-17T16:37:07Z</time>
      </trkpt>
      <trkpt lat="44.0981" lon="1.77305">
        <ele>324.58</ele>
        <time>2021-08-17T16:37:08Z</time>
      </trkpt>
      <trkpt lat="44.09783" lon="1.77266">
        <ele>324.58</ele>
        <time>2021-08-17T16:37:15Z</time>
      </trkpt>
      <trkpt lat="44.09774" lon="1.77246">
        <ele>323.14</ele>
        <time>2021-08-17T16:37:18Z</time>
      </trkpt>
      <trkpt lat="44.0975" lon="1.77193">
        <ele>323.14</ele>
        <time>2021-08-17T16:37:26Z</time>
      </trkpt>
      <trkpt lat="44.09746" lon="1.7719">
        <ele>323.14</ele>
        <time>2021-08-17T16:37:27Z</time>
      </trkpt>
      <trkpt lat="44.09741" lon="1.7719">
        <ele>323.14</ele>
        <time>2021-08-17T16:37:28Z</time>
      </trkpt>
      <trkpt lat="44.09736" lon="1.77193">
        <ele>321.7</ele>
        <time>2021-08-17T16:37:29Z</time>
      </trkpt>
      <trkpt lat="44.09732" lon="1.77198">
        <ele>321.22</ele>
        <time>2021-08-17T16:37:30Z</time>
      </trkpt>
      <trkpt lat="44.09727" lon="1.77203">
        <ele>320.74</ele>
        <time>2021-08-17T16:37:31Z</time>
      </trkpt>
      <trkpt lat="44.09711" lon="1.77219">
        <ele>317.85</ele>
        <time>2021-08-17T16:37:34Z</time>
      </trkpt>
      <trkpt lat="44.09704" lon="1.77223">
        <ele>317.37</ele>
        <time>2021-08-17T16:37:35Z</time>
      </trkpt>
      <trkpt lat="44.09698" lon="1.77225">
        <ele>316.41</ele>
        <time>2021-08-17T16:37:36Z</time>
      </trkpt>
      <trkpt lat="44.09694" lon="1.77227">
        <ele>315.93</ele>
        <time>2021-08-17T16:37:37Z</time>
      </trkpt>
      <trkpt lat="44.0969" lon="1.7723">
        <ele>315.45</ele>
        <time>2021-08-17T16:37:38Z</time>
      </trkpt>
      <trkpt lat="44.09689" lon="1.77234">
        <ele>314.97</ele>
        <time>2021-08-17T16:37:39Z</time>
      </trkpt>
      <trkpt lat="44.09691" lon="1.77238">
        <ele>314.01</ele>
        <time>2021-08-17T16:37:40Z</time>
      </trkpt>
      <trkpt lat="44.09696" lon="1.77242">
        <ele>313.53</ele>
        <time>2021-08-17T16:37:41Z</time>
      </trkpt>
      <trkpt lat="44.09701" lon="1.77245">
        <ele>312.57</ele>
        <time>2021-08-17T16:37:42Z</time>
      </trkpt>
      <trkpt lat="44.09706" lon="1.77249">
        <ele>312.57</ele>
        <time>2021-08-17T16:37:43Z</time>
      </trkpt>
      <trkpt lat="44.09712" lon="1.77255">
        <ele>311.12</ele>
        <time>2021-08-17T16:37:44Z</time>
      </trkpt>
      <trkpt lat="44.09717" lon="1.77263">
        <ele>310.64</ele>
        <time>2021-08-17T16:37:45Z</time>
      </trkpt>
      <trkpt lat="44.09722" lon="1.77272">
        <ele>309.68</ele>
        <time>2021-08-17T16:37:46Z</time>
      </trkpt>
      <trkpt lat="44.09726" lon="1.77281">
        <ele>308.72</ele>
        <time>2021-08-17T16:37:47Z</time>
      </trkpt>
      <trkpt lat="44.0973" lon="1.77291">
        <ele>308.24</ele>
        <time>2021-08-17T16:37:48Z</time>
      </trkpt>
      <trkpt lat="44.09733" lon="1.77302">
        <ele>307.28</ele>
        <time>2021-08-17T16:37:49Z</time>
      </trkpt>
      <trkpt lat="44.09735" lon="1.77314">
        <ele>305.84</ele>
        <time>2021-08-17T16:37:50Z</time>
      </trkpt>
      <trkpt lat="44.09737" lon="1.77325">
        <ele>304.88</ele>
        <time>2021-08-17T16:37:51Z</time>
      </trkpt>
      <trkpt lat="44.09738" lon="1.77336">
        <ele>303.91</ele>
        <time>2021-08-17T16:37:52Z</time>
      </trkpt>
      <trkpt lat="44.09744" lon="1.77368">
        <ele>300.55</ele>
        <time>2021-08-17T16:37:55Z</time>
      </trkpt>
      <trkpt lat="44.09748" lon="1.77378">
        <ele>299.11</ele>
        <time>2021-08-17T16:37:56Z</time>
      </trkpt>
      <trkpt lat="44.09753" lon="1.77388">
        <ele>298.15</ele>
        <time>2021-08-17T16:37:57Z</time>
      </trkpt>
      <trkpt lat="44.09759" lon="1.77397">
        <ele>296.7</ele>
        <time>2021-08-17T16:37:58Z</time>
      </trkpt>
      <trkpt lat="44.09766" lon="1.77406">
        <ele>295.26</ele>
        <time>2021-08-17T16:37:59Z</time>
      </trkpt>
      <trkpt lat="44.09775" lon="1.77415">
        <ele>293.82</ele>
        <time>2021-08-17T16:38:00Z</time>
      </trkpt>
      <trkpt lat="44.09783" lon="1.77422">
        <ele>292.86</ele>
        <time>2021-08-17T16:38:01Z</time>
      </trkpt>
      <trkpt lat="44.0979" lon="1.77428">
        <ele>292.86</ele>
        <time>2021-08-17T16:38:02Z</time>
      </trkpt>
      <trkpt lat="44.09797" lon="1.77435">
        <ele>291.9</ele>
        <time>2021-08-17T16:38:03Z</time>
      </trkpt>
      <trkpt lat="44.09803" lon="1.77443">
        <ele>290.94</ele>
        <time>2021-08-17T16:38:04Z</time>
      </trkpt>
      <trkpt lat="44.09806" lon="1.77452">
        <ele>290.46</ele>
        <time>2021-08-17T16:38:05Z</time>
      </trkpt>
      <trkpt lat="44.09808" lon="1.77461">
        <ele>289.49</ele>
        <time>2021-08-17T16:38:06Z</time>
      </trkpt>
      <trkpt lat="44.09808" lon="1.77472">
        <ele>288.05</ele>
        <time>2021-08-17T16:38:07Z</time>
      </trkpt>
      <trkpt lat="44.09806" lon="1.77483">
        <ele>286.61</ele>
        <time>2021-08-17T16:38:08Z</time>
      </trkpt>
      <trkpt lat="44.09803" lon="1.77495">
        <ele>284.69</ele>
        <time>2021-08-17T16:38:09Z</time>
      </trkpt>
      <trkpt lat="44.09791" lon="1.77536">
        <ele>280.36</ele>
        <time>2021-08-17T16:38:12Z</time>
      </trkpt>
      <trkpt lat="44.09781" lon="1.77565">
        <ele>277</ele>
        <time>2021-08-17T16:38:14Z</time>
      </trkpt>
      <trkpt lat="44.09765" lon="1.776">
        <ele>273.63</ele>
        <time>2021-08-17T16:38:17Z</time>
      </trkpt>
      <trkpt lat="44.0976" lon="1.77609">
        <ele>272.67</ele>
        <time>2021-08-17T16:38:18Z</time>
      </trkpt>
      <trkpt lat="44.09755" lon="1.77614">
        <ele>271.71</ele>
        <time>2021-08-17T16:38:19Z</time>
      </trkpt>
      <trkpt lat="44.09748" lon="1.77617">
        <ele>270.27</ele>
        <time>2021-08-17T16:38:20Z</time>
      </trkpt>
      <trkpt lat="44.09741" lon="1.77615">
        <ele>269.31</ele>
        <time>2021-08-17T16:38:21Z</time>
      </trkpt>
      <trkpt lat="44.09735" lon="1.77609">
        <ele>268.35</ele>
        <time>2021-08-17T16:38:22Z</time>
      </trkpt>
      <trkpt lat="44.09727" lon="1.77602">
        <ele>266.9</ele>
        <time>2021-08-17T16:38:23Z</time>
      </trkpt>
      <trkpt lat="44.0972" lon="1.77594">
        <ele>265.94</ele>
        <time>2021-08-17T16:38:24Z</time>
      </trkpt>
      <trkpt lat="44.09703" lon="1.77576">
        <ele>262.58</ele>
        <time>2021-08-17T16:38:26Z</time>
      </trkpt>
      <trkpt lat="44.09676" lon="1.77546">
        <ele>257.77</ele>
        <time>2021-08-17T16:38:29Z</time>
      </trkpt>
      <trkpt lat="44.09646" lon="1.77515">
        <ele>254.41</ele>
        <time>2021-08-17T16:38:32Z</time>
      </trkpt>
      <trkpt lat="44.09616" lon="1.7748">
        <ele>252.48</ele>
        <time>2021-08-17T16:38:35Z</time>
      </trkpt>
      <trkpt lat="44.09588" lon="1.7743">
        <ele>251.52</ele>
        <time>2021-08-17T16:38:39Z</time>
      </trkpt>
      <trkpt lat="44.09567" lon="1.77371">
        <ele>254.89</ele>
        <time>2021-08-17T16:38:44Z</time>
      </trkpt>
      <trkpt lat="44.09552" lon="1.7733">
        <ele>256.33</ele>
        <time>2021-08-17T16:38:49Z</time>
      </trkpt>
      <trkpt lat="44.09543" lon="1.77317">
        <ele>256.33</ele>
        <time>2021-08-17T16:38:51Z</time>
      </trkpt>
      <trkpt lat="44.09538" lon="1.77313">
        <ele>254.89</ele>
        <time>2021-08-17T16:38:52Z</time>
      </trkpt>
      <trkpt lat="44.0953" lon="1.7731">
        <ele>253.93</ele>
        <time>2021-08-17T16:38:53Z</time>
      </trkpt>
      <trkpt lat="44.09523" lon="1.7731">
        <ele>253.44</ele>
        <time>2021-08-17T16:38:54Z</time>
      </trkpt>
      <trkpt lat="44.09516" lon="1.77313">
        <ele>252.48</ele>
        <time>2021-08-17T16:38:55Z</time>
      </trkpt>
      <trkpt lat="44.09509" lon="1.77319">
        <ele>251.52</ele>
        <time>2021-08-17T16:38:56Z</time>
      </trkpt>
      <trkpt lat="44.09503" lon="1.77328">
        <ele>249.6</ele>
        <time>2021-08-17T16:38:57Z</time>
      </trkpt>
      <trkpt lat="44.09498" lon="1.77338">
        <ele>248.16</ele>
        <time>2021-08-17T16:38:58Z</time>
      </trkpt>
      <trkpt lat="44.09494" lon="1.7735">
        <ele>246.72</ele>
        <time>2021-08-17T16:38:59Z</time>
      </trkpt>
      <trkpt lat="44.09489" lon="1.77364">
        <ele>245.27</ele>
        <time>2021-08-17T16:39:00Z</time>
      </trkpt>
      <trkpt lat="44.09479" lon="1.77393">
        <ele>241.43</ele>
        <time>2021-08-17T16:39:02Z</time>
      </trkpt>
      <trkpt lat="44.09468" lon="1.7742">
        <ele>239.02</ele>
        <time>2021-08-17T16:39:04Z</time>
      </trkpt>
      <trkpt lat="44.09461" lon="1.77432">
        <ele>239.02</ele>
        <time>2021-08-17T16:39:05Z</time>
      </trkpt>
      <trkpt lat="44.09455" lon="1.7744">
        <ele>239.02</ele>
        <time>2021-08-17T16:39:06Z</time>
      </trkpt>
      <trkpt lat="44.09449" lon="1.77443">
        <ele>240.95</ele>
        <time>2021-08-17T16:39:07Z</time>
      </trkpt>
      <trkpt lat="44.09444" lon="1.77443">
        <ele>241.91</ele>
        <time>2021-08-17T16:39:08Z</time>
      </trkpt>
      <trkpt lat="44.0944" lon="1.77439">
        <ele>241.43</ele>
        <time>2021-08-17T16:39:09Z</time>
      </trkpt>
      <trkpt lat="44.09438" lon="1.77434">
        <ele>241.43</ele>
        <time>2021-08-17T16:39:10Z</time>
      </trkpt>
      <trkpt lat="44.09437" lon="1.7743">
        <ele>242.39</ele>
        <time>2021-08-17T16:39:11Z</time>
      </trkpt>
      <trkpt lat="44.09433" lon="1.77414">
        <ele>242.39</ele>
        <time>2021-08-17T16:39:14Z</time>
      </trkpt>
      <trkpt lat="44.09432" lon="1.77408">
        <ele>242.39</ele>
        <time>2021-08-17T16:39:15Z</time>
      </trkpt>
      <trkpt lat="44.0943" lon="1.77402">
        <ele>242.39</ele>
        <time>2021-08-17T16:39:16Z</time>
      </trkpt>
      <trkpt lat="44.09429" lon="1.77395">
        <ele>242.39</ele>
        <time>2021-08-17T16:39:17Z</time>
      </trkpt>
      <trkpt lat="44.09428" lon="1.77389">
        <ele>242.39</ele>
        <time>2021-08-17T16:39:18Z</time>
      </trkpt>
      <trkpt lat="44.09423" lon="1.77335">
        <ele>240.95</ele>
        <time>2021-08-17T16:39:25Z</time>
      </trkpt>
      <trkpt lat="44.0942" lon="1.77306">
        <ele>239.99</ele>
        <time>2021-08-17T16:39:28Z</time>
      </trkpt>
      <trkpt lat="44.09416" lon="1.77264">
        <ele>239.51</ele>
        <time>2021-08-17T16:39:33Z</time>
      </trkpt>
      <trkpt lat="44.09414" lon="1.77242">
        <ele>239.51</ele>
        <time>2021-08-17T16:39:36Z</time>
      </trkpt>
      <trkpt lat="44.09402" lon="1.77193">
        <ele>240.95</ele>
        <time>2021-08-17T16:39:44Z</time>
      </trkpt>
      <trkpt lat="44.09377" lon="1.77136">
        <ele>240.95</ele>
        <time>2021-08-17T16:39:53Z</time>
      </trkpt>
      <trkpt lat="44.09374" lon="1.77128">
        <ele>240.95</ele>
        <time>2021-08-17T16:39:54Z</time>
      </trkpt>
      <trkpt lat="44.09369" lon="1.77114">
        <ele>240.95</ele>
        <time>2021-08-17T16:39:56Z</time>
      </trkpt>
      <trkpt lat="44.09358" lon="1.77073">
        <ele>239.51</ele>
        <time>2021-08-17T16:40:01Z</time>
      </trkpt>
      <trkpt lat="44.09333" lon="1.77011">
        <ele>238.06</ele>
        <time>2021-08-17T16:40:08Z</time>
      </trkpt>
      <trkpt lat="44.09329" lon="1.77002">
        <ele>238.06</ele>
        <time>2021-08-17T16:40:09Z</time>
      </trkpt>
      <trkpt lat="44.09324" lon="1.76995">
        <ele>238.06</ele>
        <time>2021-08-17T16:40:10Z</time>
      </trkpt>
      <trkpt lat="44.09318" lon="1.76988">
        <ele>238.06</ele>
        <time>2021-08-17T16:40:11Z</time>
      </trkpt>
      <trkpt lat="44.09312" lon="1.76982">
        <ele>237.1</ele>
        <time>2021-08-17T16:40:12Z</time>
      </trkpt>
      <trkpt lat="44.09305" lon="1.76978">
        <ele>237.1</ele>
        <time>2021-08-17T16:40:13Z</time>
      </trkpt>
      <trkpt lat="44.09298" lon="1.76975">
        <ele>236.62</ele>
        <time>2021-08-17T16:40:14Z</time>
      </trkpt>
      <trkpt lat="44.0929" lon="1.76972">
        <ele>236.62</ele>
        <time>2021-08-17T16:40:15Z</time>
      </trkpt>
      <trkpt lat="44.09252" lon="1.76953">
        <ele>235.66</ele>
        <time>2021-08-17T16:40:20Z</time>
      </trkpt>
      <trkpt lat="44.09246" lon="1.76947">
        <ele>235.66</ele>
        <time>2021-08-17T16:40:21Z</time>
      </trkpt>
      <trkpt lat="44.0924" lon="1.76939">
        <ele>235.66</ele>
        <time>2021-08-17T16:40:22Z</time>
      </trkpt>
      <trkpt lat="44.09212" lon="1.76896">
        <ele>234.22</ele>
        <time>2021-08-17T16:40:27Z</time>
      </trkpt>
      <trkpt lat="44.0917" lon="1.76843">
        <ele>232.78</ele>
        <time>2021-08-17T16:40:34Z</time>
      </trkpt>
      <trkpt lat="44.09129" lon="1.76806">
        <ele>232.3</ele>
        <time>2021-08-17T16:40:40Z</time>
      </trkpt>
      <trkpt lat="44.09073" lon="1.76758">
        <ele>230.85</ele>
        <time>2021-08-17T16:40:48Z</time>
      </trkpt>
      <trkpt lat="44.09066" lon="1.76751">
        <ele>230.37</ele>
        <time>2021-08-17T16:40:49Z</time>
      </trkpt>
      <trkpt lat="44.09061" lon="1.76742">
        <ele>230.37</ele>
        <time>2021-08-17T16:40:50Z</time>
      </trkpt>
      <trkpt lat="44.09056" lon="1.76733">
        <ele>229.89</ele>
        <time>2021-08-17T16:40:51Z</time>
      </trkpt>
      <trkpt lat="44.09053" lon="1.76722">
        <ele>229.89</ele>
        <time>2021-08-17T16:40:52Z</time>
      </trkpt>
      <trkpt lat="44.0905" lon="1.76712">
        <ele>229.41</ele>
        <time>2021-08-17T16:40:53Z</time>
      </trkpt>
      <trkpt lat="44.09045" lon="1.7669">
        <ele>229.41</ele>
        <time>2021-08-17T16:40:55Z</time>
      </trkpt>
      <trkpt lat="44.0904" lon="1.76679">
        <ele>228.45</ele>
        <time>2021-08-17T16:40:56Z</time>
      </trkpt>
      <trkpt lat="44.09036" lon="1.7667">
        <ele>228.45</ele>
        <time>2021-08-17T16:40:57Z</time>
      </trkpt>
      <trkpt lat="44.09031" lon="1.76661">
        <ele>228.45</ele>
        <time>2021-08-17T16:40:58Z</time>
      </trkpt>
      <trkpt lat="44.09025" lon="1.76652">
        <ele>227.49</ele>
        <time>2021-08-17T16:40:59Z</time>
      </trkpt>
      <trkpt lat="44.08983" lon="1.7657">
        <ele>225.09</ele>
        <time>2021-08-17T16:41:07Z</time>
      </trkpt>
      <trkpt lat="44.08978" lon="1.76561">
        <ele>225.09</ele>
        <time>2021-08-17T16:41:08Z</time>
      </trkpt>
      <trkpt lat="44.08971" lon="1.76552">
        <ele>224.61</ele>
        <time>2021-08-17T16:41:09Z</time>
      </trkpt>
      <trkpt lat="44.08958" lon="1.76536">
        <ele>223.64</ele>
        <time>2021-08-17T16:41:11Z</time>
      </trkpt>
      <trkpt lat="44.08913" lon="1.76473">
        <ele>221.24</ele>
        <time>2021-08-17T16:41:18Z</time>
      </trkpt>
      <trkpt lat="44.08878" lon="1.76399">
        <ele>219.32</ele>
        <time>2021-08-17T16:41:25Z</time>
      </trkpt>
      <trkpt lat="44.08823" lon="1.763">
        <ele>216.43</ele>
        <time>2021-08-17T16:41:35Z</time>
      </trkpt>
      <trkpt lat="44.0878" lon="1.76236">
        <ele>214.51</ele>
        <time>2021-08-17T16:41:42Z</time>
      </trkpt>
      <trkpt lat="44.08742" lon="1.76191">
        <ele>213.55</ele>
        <time>2021-08-17T16:41:48Z</time>
      </trkpt>
      <trkpt lat="44.08699" lon="1.7613">
        <ele>210.67</ele>
        <time>2021-08-17T16:41:55Z</time>
      </trkpt>
      <trkpt lat="44.08662" lon="1.76068">
        <ele>207.3</ele>
        <time>2021-08-17T16:42:01Z</time>
      </trkpt>
      <trkpt lat="44.08645" lon="1.76031">
        <ele>205.38</ele>
        <time>2021-08-17T16:42:04Z</time>
      </trkpt>
      <trkpt lat="44.08625" lon="1.75978">
        <ele>203.46</ele>
        <time>2021-08-17T16:42:08Z</time>
      </trkpt>
      <trkpt lat="44.08608" lon="1.75941">
        <ele>202.01</ele>
        <time>2021-08-17T16:42:11Z</time>
      </trkpt>
      <trkpt lat="44.08603" lon="1.75928">
        <ele>200.57</ele>
        <time>2021-08-17T16:42:12Z</time>
      </trkpt>
      <trkpt lat="44.086" lon="1.75914">
        <ele>200.09</ele>
        <time>2021-08-17T16:42:13Z</time>
      </trkpt>
      <trkpt lat="44.08599" lon="1.75898">
        <ele>199.13</ele>
        <time>2021-08-17T16:42:14Z</time>
      </trkpt>
      <trkpt lat="44.08597" lon="1.75884">
        <ele>198.65</ele>
        <time>2021-08-17T16:42:15Z</time>
      </trkpt>
      <trkpt lat="44.08591" lon="1.75842">
        <ele>196.73</ele>
        <time>2021-08-17T16:42:18Z</time>
      </trkpt>
      <trkpt lat="44.08579" lon="1.75801">
        <ele>195.28</ele>
        <time>2021-08-17T16:42:21Z</time>
      </trkpt>
      <trkpt lat="44.08567" lon="1.75761">
        <ele>192.4</ele>
        <time>2021-08-17T16:42:24Z</time>
      </trkpt>
      <trkpt lat="44.08563" lon="1.75748">
        <ele>192.4</ele>
        <time>2021-08-17T16:42:25Z</time>
      </trkpt>
      <trkpt lat="44.08546" lon="1.75694">
        <ele>190.48</ele>
        <time>2021-08-17T16:42:29Z</time>
      </trkpt>
      <trkpt lat="44.08536" lon="1.75653">
        <ele>188.56</ele>
        <time>2021-08-17T16:42:32Z</time>
      </trkpt>
      <trkpt lat="44.08534" lon="1.75639">
        <ele>188.08</ele>
        <time>2021-08-17T16:42:33Z</time>
      </trkpt>
      <trkpt lat="44.08533" lon="1.75624">
        <ele>187.59</ele>
        <time>2021-08-17T16:42:34Z</time>
      </trkpt>
      <trkpt lat="44.08534" lon="1.75609">
        <ele>187.11</ele>
        <time>2021-08-17T16:42:35Z</time>
      </trkpt>
      <trkpt lat="44.08536" lon="1.75596">
        <ele>186.15</ele>
        <time>2021-08-17T16:42:36Z</time>
      </trkpt>
      <trkpt lat="44.08538" lon="1.75582">
        <ele>186.15</ele>
        <time>2021-08-17T16:42:37Z</time>
      </trkpt>
      <trkpt lat="44.08553" lon="1.7548">
        <ele>183.27</ele>
        <time>2021-08-17T16:42:45Z</time>
      </trkpt>
      <trkpt lat="44.08558" lon="1.7543">
        <ele>181.83</ele>
        <time>2021-08-17T16:42:49Z</time>
      </trkpt>
      <trkpt lat="44.08557" lon="1.75417">
        <ele>181.35</ele>
        <time>2021-08-17T16:42:50Z</time>
      </trkpt>
      <trkpt lat="44.08554" lon="1.75392">
        <ele>180.87</ele>
        <time>2021-08-17T16:42:52Z</time>
      </trkpt>
      <trkpt lat="44.08553" lon="1.75366">
        <ele>179.42</ele>
        <time>2021-08-17T16:42:54Z</time>
      </trkpt>
      <trkpt lat="44.08553" lon="1.75354">
        <ele>178.94</ele>
        <time>2021-08-17T16:42:55Z</time>
      </trkpt>
      <trkpt lat="44.08555" lon="1.75341">
        <ele>177.98</ele>
        <time>2021-08-17T16:42:56Z</time>
      </trkpt>
      <trkpt lat="44.08558" lon="1.75328">
        <ele>177.98</ele>
        <time>2021-08-17T16:42:57Z</time>
      </trkpt>
      <trkpt lat="44.08561" lon="1.75316">
        <ele>176.54</ele>
        <time>2021-08-17T16:42:58Z</time>
      </trkpt>
      <trkpt lat="44.08576" lon="1.75268">
        <ele>175.58</ele>
        <time>2021-08-17T16:43:02Z</time>
      </trkpt>
      <trkpt lat="44.08609" lon="1.75163">
        <ele>173.17</ele>
        <time>2021-08-17T16:43:11Z</time>
      </trkpt>
      <trkpt lat="44.08613" lon="1.75152">
        <ele>172.69</ele>
        <time>2021-08-17T16:43:12Z</time>
      </trkpt>
      <trkpt lat="44.08619" lon="1.75143">
        <ele>172.21</ele>
        <time>2021-08-17T16:43:13Z</time>
      </trkpt>
      <trkpt lat="44.08626" lon="1.75134">
        <ele>171.25</ele>
        <time>2021-08-17T16:43:14Z</time>
      </trkpt>
      <trkpt lat="44.08633" lon="1.75125">
        <ele>170.29</ele>
        <time>2021-08-17T16:43:15Z</time>
      </trkpt>
      <trkpt lat="44.0864" lon="1.75117">
        <ele>170.29</ele>
        <time>2021-08-17T16:43:16Z</time>
      </trkpt>
      <trkpt lat="44.08646" lon="1.75106">
        <ele>169.33</ele>
        <time>2021-08-17T16:43:17Z</time>
      </trkpt>
      <trkpt lat="44.08651" lon="1.75094">
        <ele>168.37</ele>
        <time>2021-08-17T16:43:18Z</time>
      </trkpt>
      <trkpt lat="44.08654" lon="1.75079">
        <ele>167.89</ele>
        <time>2021-08-17T16:43:19Z</time>
      </trkpt>
      <trkpt lat="44.08656" lon="1.75065">
        <ele>166.45</ele>
        <time>2021-08-17T16:43:20Z</time>
      </trkpt>
      <trkpt lat="44.08667" lon="1.75006">
        <ele>163.56</ele>
        <time>2021-08-17T16:43:24Z</time>
      </trkpt>
      <trkpt lat="44.08671" lon="1.74979">
        <ele>162.6</ele>
        <time>2021-08-17T16:43:26Z</time>
      </trkpt>
      <trkpt lat="44.08673" lon="1.74944">
        <ele>160.68</ele>
        <time>2021-08-17T16:43:29Z</time>
      </trkpt>
      <trkpt lat="44.08674" lon="1.74935">
        <ele>160.68</ele>
        <time>2021-08-17T16:43:30Z</time>
      </trkpt>
      <trkpt lat="44.08675" lon="1.7493">
        <ele>160.68</ele>
        <time>2021-08-17T16:43:31Z</time>
      </trkpt>
      <trkpt lat="44.08675" lon="1.74927">
        <ele>160.68</ele>
        <time>2021-08-17T16:43:32Z</time>
      </trkpt>
      <trkpt lat="44.08674" lon="1.74925">
        <ele>160.68</ele>
        <time>2021-08-17T16:43:34Z</time>
      </trkpt>
      <trkpt lat="44.08673" lon="1.74935">
        <ele>161.16</ele>
        <time>2021-08-17T16:43:39Z</time>
      </trkpt>
      <trkpt lat="44.08673" lon="1.74937">
        <ele>161.16</ele>
        <time>2021-08-17T16:43:40Z</time>
      </trkpt>
      <trkpt lat="44.08673" lon="1.74956">
        <ele>161.16</ele>
        <time>2021-08-17T16:43:47Z</time>
      </trkpt>
      <trkpt lat="44.08672" lon="1.74958">
        <ele>161.16</ele>
        <time>2021-08-17T16:43:48Z</time>
      </trkpt>
      <trkpt lat="44.08671" lon="1.7496">
        <ele>161.16</ele>
        <time>2021-08-17T16:43:49Z</time>
      </trkpt>
      <trkpt lat="44.08669" lon="1.74962">
        <ele>161.16</ele>
        <time>2021-08-17T16:43:50Z</time>
      </trkpt>
      <trkpt lat="44.08668" lon="1.74963">
        <ele>161.16</ele>
        <time>2021-08-17T16:43:51Z</time>
      </trkpt>
      <trkpt lat="44.0866" lon="1.74975">
        <ele>159.24</ele>
        <time>2021-08-17T16:43:55Z</time>
      </trkpt>
      <trkpt lat="44.08658" lon="1.74974">
        <ele>158.75</ele>
        <time>2021-08-17T16:43:56Z</time>
      </trkpt>
      <trkpt lat="44.08657" lon="1.74973">
        <ele>158.27</ele>
        <time>2021-08-17T16:43:57Z</time>
      </trkpt>
      <trkpt lat="44.08653" lon="1.74962">
        <ele>156.35</ele>
        <time>2021-08-17T16:44:00Z</time>
      </trkpt>
      <trkpt lat="44.08653" lon="1.74957">
        <ele>155.39</ele>
        <time>2021-08-17T16:44:01Z</time>
      </trkpt>
      <trkpt lat="44.08653" lon="1.74952">
        <ele>154.91</ele>
        <time>2021-08-17T16:44:02Z</time>
      </trkpt>
      <trkpt lat="44.08651" lon="1.7494">
        <ele>152.99</ele>
        <time>2021-08-17T16:44:05Z</time>
      </trkpt>
      <trkpt lat="44.08647" lon="1.74937">
        <ele>152.03</ele>
        <time>2021-08-17T16:44:06Z</time>
      </trkpt>
      <trkpt lat="44.08644" lon="1.74935">
        <ele>151.54</ele>
        <time>2021-08-17T16:44:07Z</time>
      </trkpt>
      <trkpt lat="44.0864" lon="1.74934">
        <ele>151.54</ele>
        <time>2021-08-17T16:44:08Z</time>
      </trkpt>
      <trkpt lat="44.08636" lon="1.74933">
        <ele>151.54</ele>
        <time>2021-08-17T16:44:09Z</time>
      </trkpt>
      <trkpt lat="44.08627" lon="1.74929">
        <ele>153.47</ele>
        <time>2021-08-17T16:44:14Z</time>
      </trkpt>
      <trkpt lat="44.08622" lon="1.74928">
        <ele>154.91</ele>
        <time>2021-08-17T16:44:20Z</time>
      </trkpt>
      <trkpt lat="44.08617" lon="1.74927">
        <ele>156.35</ele>
        <time>2021-08-17T16:44:27Z</time>
      </trkpt>
      <trkpt lat="44.08612" lon="1.74926">
        <ele>157.31</ele>
        <time>2021-08-17T16:44:36Z</time>
      </trkpt>
      <trkpt lat="44.08603" lon="1.74925">
        <ele>158.27</ele>
        <time>2021-08-17T16:44:45Z</time>
      </trkpt>
      <trkpt lat="44.08596" lon="1.74922">
        <ele>159.24</ele>
        <time>2021-08-17T16:44:52Z</time>
      </trkpt>
      <trkpt lat="44.08592" lon="1.7492">
        <ele>160.68</ele>
        <time>2021-08-17T16:45:00Z</time>
      </trkpt>
      <trkpt lat="44.08594" lon="1.7492">
        <ele>161.16</ele>
        <time>2021-08-17T16:45:15Z</time>
      </trkpt>
      <trkpt lat="44.08594" lon="1.74915">
        <ele>160.68</ele>
        <time>2021-08-17T16:45:29Z</time>
      </trkpt>
      <trkpt lat="44.08589" lon="1.74917">
        <ele>161.64</ele>
        <time>2021-08-17T16:45:38Z</time>
      </trkpt>
      <trkpt lat="44.08584" lon="1.74916">
        <ele>163.08</ele>
        <time>2021-08-17T16:45:47Z</time>
      </trkpt>
      <trkpt lat="44.08577" lon="1.74916">
        <ele>164.52</ele>
        <time>2021-08-17T16:45:56Z</time>
      </trkpt>
      <trkpt lat="44.0857" lon="1.74912">
        <ele>165</ele>
        <time>2021-08-17T16:46:03Z</time>
      </trkpt>
      <trkpt lat="44.08567" lon="1.74904">
        <ele>166.45</ele>
        <time>2021-08-17T16:46:10Z</time>
      </trkpt>
      <trkpt lat="44.08565" lon="1.74897">
        <ele>166.45</ele>
        <time>2021-08-17T16:46:17Z</time>
      </trkpt>
      <trkpt lat="44.08564" lon="1.74889">
        <ele>166.93</ele>
        <time>2021-08-17T16:46:21Z</time>
      </trkpt>
      <trkpt lat="44.08564" lon="1.74886">
        <ele>166.93</ele>
        <time>2021-08-17T16:46:22Z</time>
      </trkpt>
      <trkpt lat="44.08563" lon="1.74872">
        <ele>167.89</ele>
        <time>2021-08-17T16:46:28Z</time>
      </trkpt>
      <trkpt lat="44.08559" lon="1.74852">
        <ele>167.89</ele>
        <time>2021-08-17T16:46:34Z</time>
      </trkpt>
      <trkpt lat="44.08557" lon="1.74841">
        <ele>168.85</ele>
        <time>2021-08-17T16:46:40Z</time>
      </trkpt>
      <trkpt lat="44.08554" lon="1.74827">
        <ele>170.29</ele>
        <time>2021-08-17T16:46:48Z</time>
      </trkpt>
      <trkpt lat="44.08552" lon="1.74819">
        <ele>170.77</ele>
        <time>2021-08-17T16:46:54Z</time>
      </trkpt>
      <trkpt lat="44.08548" lon="1.74813">
        <ele>171.73</ele>
        <time>2021-08-17T16:47:01Z</time>
      </trkpt>
      <trkpt lat="44.08545" lon="1.74806">
        <ele>173.17</ele>
        <time>2021-08-17T16:47:09Z</time>
      </trkpt>
      <trkpt lat="44.08541" lon="1.74799">
        <ele>173.66</ele>
        <time>2021-08-17T16:47:17Z</time>
      </trkpt>
      <trkpt lat="44.08538" lon="1.74793">
        <ele>175.58</ele>
        <time>2021-08-17T16:47:24Z</time>
      </trkpt>
      <trkpt lat="44.08535" lon="1.74786">
        <ele>177.02</ele>
        <time>2021-08-17T16:47:32Z</time>
      </trkpt>
      <trkpt lat="44.08531" lon="1.74779">
        <ele>178.46</ele>
        <time>2021-08-17T16:47:40Z</time>
      </trkpt>
      <trkpt lat="44.08528" lon="1.74777">
        <ele>178.94</ele>
        <time>2021-08-17T16:47:48Z</time>
      </trkpt>
      <trkpt lat="44.08525" lon="1.74772">
        <ele>180.87</ele>
        <time>2021-08-17T16:47:56Z</time>
      </trkpt>
      <trkpt lat="44.08521" lon="1.74765">
        <ele>182.31</ele>
        <time>2021-08-17T16:48:06Z</time>
      </trkpt>
      <trkpt lat="44.08518" lon="1.74756">
        <ele>184.23</ele>
        <time>2021-08-17T16:48:15Z</time>
      </trkpt>
      <trkpt lat="44.08515" lon="1.74745">
        <ele>186.63</ele>
        <time>2021-08-17T16:48:26Z</time>
      </trkpt>
      <trkpt lat="44.08511" lon="1.74741">
        <ele>188.08</ele>
        <time>2021-08-17T16:48:34Z</time>
      </trkpt>
      <trkpt lat="44.08507" lon="1.74733">
        <ele>189.04</ele>
        <time>2021-08-17T16:48:42Z</time>
      </trkpt>
      <trkpt lat="44.08504" lon="1.74717">
        <ele>190.48</ele>
        <time>2021-08-17T16:48:52Z</time>
      </trkpt>
      <trkpt lat="44.08503" lon="1.74705">
        <ele>191.44</ele>
        <time>2021-08-17T16:49:00Z</time>
      </trkpt>
      <trkpt lat="44.08503" lon="1.74698">
        <ele>191.92</ele>
        <time>2021-08-17T16:49:07Z</time>
      </trkpt>
      <trkpt lat="44.08503" lon="1.74697">
        <ele>191.92</ele>
        <time>2021-08-17T16:49:08Z</time>
      </trkpt>
      <trkpt lat="44.08503" lon="1.74695">
        <ele>191.92</ele>
        <time>2021-08-17T16:49:09Z</time>
      </trkpt>
      <trkpt lat="44.08504" lon="1.7469">
        <ele>191.92</ele>
        <time>2021-08-17T16:49:12Z</time>
      </trkpt>
      <trkpt lat="44.08504" lon="1.74689">
        <ele>192.88</ele>
        <time>2021-08-17T16:49:13Z</time>
      </trkpt>
      <trkpt lat="44.08505" lon="1.74687">
        <ele>192.88</ele>
        <time>2021-08-17T16:49:14Z</time>
      </trkpt>
      <trkpt lat="44.08505" lon="1.74685">
        <ele>193.36</ele>
        <time>2021-08-17T16:49:15Z</time>
      </trkpt>
      <trkpt lat="44.08505" lon="1.74683">
        <ele>193.36</ele>
        <time>2021-08-17T16:49:16Z</time>
      </trkpt>
      <trkpt lat="44.08506" lon="1.74681">
        <ele>193.36</ele>
        <time>2021-08-17T16:49:17Z</time>
      </trkpt>
      <trkpt lat="44.08506" lon="1.74679">
        <ele>193.36</ele>
        <time>2021-08-17T16:49:18Z</time>
      </trkpt>
      <trkpt lat="44.08507" lon="1.74676">
        <ele>193.36</ele>
        <time>2021-08-17T16:49:19Z</time>
      </trkpt>
      <trkpt lat="44.08507" lon="1.74674">
        <ele>193.36</ele>
        <time>2021-08-17T16:49:20Z</time>
      </trkpt>
      <trkpt lat="44.08507" lon="1.74672">
        <ele>193.36</ele>
        <time>2021-08-17T16:49:21Z</time>
      </trkpt>
      <trkpt lat="44.08508" lon="1.7467">
        <ele>193.36</ele>
        <time>2021-08-17T16:49:22Z</time>
      </trkpt>
      <trkpt lat="44.08506" lon="1.74654">
        <ele>194.8</ele>
        <time>2021-08-17T16:49:29Z</time>
      </trkpt>
      <trkpt lat="44.08503" lon="1.74634">
        <ele>195.77</ele>
        <time>2021-08-17T16:49:38Z</time>
      </trkpt>
      <trkpt lat="44.08497" lon="1.74618">
        <ele>196.73</ele>
        <time>2021-08-17T16:49:45Z</time>
      </trkpt>
      <trkpt lat="44.08487" lon="1.74598">
        <ele>197.21</ele>
        <time>2021-08-17T16:49:51Z</time>
      </trkpt>
      <trkpt lat="44.08476" lon="1.74582">
        <ele>198.17</ele>
        <time>2021-08-17T16:49:58Z</time>
      </trkpt>
      <trkpt lat="44.08476" lon="1.74579">
        <ele>198.17</ele>
        <time>2021-08-17T16:49:59Z</time>
      </trkpt>
      <trkpt lat="44.08477" lon="1.74577">
        <ele>198.65</ele>
        <time>2021-08-17T16:50:00Z</time>
      </trkpt>
      <trkpt lat="44.08481" lon="1.74556">
        <ele>200.09</ele>
        <time>2021-08-17T16:50:07Z</time>
      </trkpt>
      <trkpt lat="44.0848" lon="1.74546">
        <ele>201.05</ele>
        <time>2021-08-17T16:50:12Z</time>
      </trkpt>
      <trkpt lat="44.0847" lon="1.74532">
        <ele>201.05</ele>
        <time>2021-08-17T16:50:20Z</time>
      </trkpt>
      <trkpt lat="44.08459" lon="1.74526">
        <ele>197.69</ele>
        <time>2021-08-17T16:50:26Z</time>
      </trkpt>
      <trkpt lat="44.08456" lon="1.74526">
        <ele>197.69</ele>
        <time>2021-08-17T16:50:27Z</time>
      </trkpt>
      <trkpt lat="44.08448" lon="1.74517">
        <ele>200.57</ele>
        <time>2021-08-17T16:50:31Z</time>
      </trkpt>
      <trkpt lat="44.08436" lon="1.74489">
        <ele>198.65</ele>
        <time>2021-08-17T16:50:37Z</time>
      </trkpt>
      <trkpt lat="44.08433" lon="1.74483">
        <ele>197.69</ele>
        <time>2021-08-17T16:50:38Z</time>
      </trkpt>
      <trkpt lat="44.0843" lon="1.74479">
        <ele>197.69</ele>
        <time>2021-08-17T16:50:39Z</time>
      </trkpt>
      <trkpt lat="44.08426" lon="1.74474">
        <ele>197.21</ele>
        <time>2021-08-17T16:50:40Z</time>
      </trkpt>
      <trkpt lat="44.08418" lon="1.74468">
        <ele>196.25</ele>
        <time>2021-08-17T16:50:42Z</time>
      </trkpt>
      <trkpt lat="44.08414" lon="1.74465">
        <ele>195.77</ele>
        <time>2021-08-17T16:50:43Z</time>
      </trkpt>
      <trkpt lat="44.0841" lon="1.74461">
        <ele>195.77</ele>
        <time>2021-08-17T16:50:44Z</time>
      </trkpt>
      <trkpt lat="44.0839" lon="1.74435">
        <ele>193.84</ele>
        <time>2021-08-17T16:50:51Z</time>
      </trkpt>
      <trkpt lat="44.0838" lon="1.74423">
        <ele>192.4</ele>
        <time>2021-08-17T16:50:54Z</time>
      </trkpt>
      <trkpt lat="44.08372" lon="1.74415">
        <ele>190.48</ele>
        <time>2021-08-17T16:50:56Z</time>
      </trkpt>
      <trkpt lat="44.08367" lon="1.74412">
        <ele>190</ele>
        <time>2021-08-17T16:50:57Z</time>
      </trkpt>
      <trkpt lat="44.08362" lon="1.74411">
        <ele>190</ele>
        <time>2021-08-17T16:50:58Z</time>
      </trkpt>
      <trkpt lat="44.0833" lon="1.74406">
        <ele>187.11</ele>
        <time>2021-08-17T16:51:03Z</time>
      </trkpt>
      <trkpt lat="44.08284" lon="1.74405">
        <ele>186.15</ele>
        <time>2021-08-17T16:51:10Z</time>
      </trkpt>
      <trkpt lat="44.08259" lon="1.74405">
        <ele>188.08</ele>
        <time>2021-08-17T16:51:16Z</time>
      </trkpt>
      <trkpt lat="44.08244" lon="1.74406">
        <ele>189.52</ele>
        <time>2021-08-17T16:51:23Z</time>
      </trkpt>
      <trkpt lat="44.08223" lon="1.74408">
        <ele>190.48</ele>
        <time>2021-08-17T16:51:31Z</time>
      </trkpt>
      <trkpt lat="44.08203" lon="1.74409">
        <ele>191.44</ele>
        <time>2021-08-17T16:51:40Z</time>
      </trkpt>
      <trkpt lat="44.08185" lon="1.7441">
        <ele>192.88</ele>
        <time>2021-08-17T16:51:48Z</time>
      </trkpt>
      <trkpt lat="44.08166" lon="1.74409">
        <ele>194.8</ele>
        <time>2021-08-17T16:51:57Z</time>
      </trkpt>
      <trkpt lat="44.08148" lon="1.74405">
        <ele>196.73</ele>
        <time>2021-08-17T16:52:05Z</time>
      </trkpt>
      <trkpt lat="44.08128" lon="1.74399">
        <ele>198.65</ele>
        <time>2021-08-17T16:52:15Z</time>
      </trkpt>
      <trkpt lat="44.08107" lon="1.74392">
        <ele>199.61</ele>
        <time>2021-08-17T16:52:25Z</time>
      </trkpt>
      <trkpt lat="44.08094" lon="1.74389">
        <ele>200.57</ele>
        <time>2021-08-17T16:52:32Z</time>
      </trkpt>
      <trkpt lat="44.08076" lon="1.74385">
        <ele>201.53</ele>
        <time>2021-08-17T16:52:41Z</time>
      </trkpt>
      <trkpt lat="44.08055" lon="1.74384">
        <ele>202.49</ele>
        <time>2021-08-17T16:52:51Z</time>
      </trkpt>
      <trkpt lat="44.08032" lon="1.74387">
        <ele>204.9</ele>
        <time>2021-08-17T16:53:02Z</time>
      </trkpt>
      <trkpt lat="44.08005" lon="1.74391">
        <ele>205.86</ele>
        <time>2021-08-17T16:53:15Z</time>
      </trkpt>
      <trkpt lat="44.07982" lon="1.74394">
        <ele>207.78</ele>
        <time>2021-08-17T16:53:26Z</time>
      </trkpt>
      <trkpt lat="44.07958" lon="1.74395">
        <ele>208.74</ele>
        <time>2021-08-17T16:53:37Z</time>
      </trkpt>
      <trkpt lat="44.07942" lon="1.74397">
        <ele>209.7</ele>
        <time>2021-08-17T16:53:44Z</time>
      </trkpt>
      <trkpt lat="44.07923" lon="1.74399">
        <ele>209.7</ele>
        <time>2021-08-17T16:53:51Z</time>
      </trkpt>
      <trkpt lat="44.07894" lon="1.74403">
        <ele>209.7</ele>
        <time>2021-08-17T16:53:59Z</time>
      </trkpt>
      <trkpt lat="44.07867" lon="1.74415">
        <ele>210.19</ele>
        <time>2021-08-17T16:54:07Z</time>
      </trkpt>
      <trkpt lat="44.07848" lon="1.7443">
        <ele>211.63</ele>
        <time>2021-08-17T16:54:14Z</time>
      </trkpt>
      <trkpt lat="44.07834" lon="1.74448">
        <ele>212.11</ele>
        <time>2021-08-17T16:54:22Z</time>
      </trkpt>
      <trkpt lat="44.07816" lon="1.74465">
        <ele>213.07</ele>
        <time>2021-08-17T16:54:30Z</time>
      </trkpt>
      <trkpt lat="44.07798" lon="1.74473">
        <ele>214.03</ele>
        <time>2021-08-17T16:54:38Z</time>
      </trkpt>
      <trkpt lat="44.07779" lon="1.7448">
        <ele>214.99</ele>
        <time>2021-08-17T16:54:46Z</time>
      </trkpt>
      <trkpt lat="44.07755" lon="1.74489">
        <ele>215.95</ele>
        <time>2021-08-17T16:54:55Z</time>
      </trkpt>
      <trkpt lat="44.07734" lon="1.74496">
        <ele>217.4</ele>
        <time>2021-08-17T16:55:03Z</time>
      </trkpt>
      <trkpt lat="44.07714" lon="1.74498">
        <ele>218.36</ele>
        <time>2021-08-17T16:55:09Z</time>
      </trkpt>
      <trkpt lat="44.07693" lon="1.74498">
        <ele>218.84</ele>
        <time>2021-08-17T16:55:16Z</time>
      </trkpt>
      <trkpt lat="44.07663" lon="1.74505">
        <ele>218.84</ele>
        <time>2021-08-17T16:55:26Z</time>
      </trkpt>
      <trkpt lat="44.07659" lon="1.74506">
        <ele>218.84</ele>
        <time>2021-08-17T16:55:28Z</time>
      </trkpt>
      <trkpt lat="44.07657" lon="1.74504">
        <ele>218.84</ele>
        <time>2021-08-17T16:55:30Z</time>
      </trkpt>
      <trkpt lat="44.07657" lon="1.74502">
        <ele>218.84</ele>
        <time>2021-08-17T16:55:31Z</time>
      </trkpt>
      <trkpt lat="44.07658" lon="1.74496">
        <ele>216.43</ele>
        <time>2021-08-17T16:55:33Z</time>
      </trkpt>
      <trkpt lat="44.07659" lon="1.74493">
        <ele>216.43</ele>
        <time>2021-08-17T16:55:34Z</time>
      </trkpt>
      <trkpt lat="44.07659" lon="1.7449">
        <ele>215.95</ele>
        <time>2021-08-17T16:55:35Z</time>
      </trkpt>
      <trkpt lat="44.07659" lon="1.74487">
        <ele>215.47</ele>
        <time>2021-08-17T16:55:36Z</time>
      </trkpt>
      <trkpt lat="44.07658" lon="1.74485">
        <ele>215.47</ele>
        <time>2021-08-17T16:55:37Z</time>
      </trkpt>
      <trkpt lat="44.07658" lon="1.74482">
        <ele>215.47</ele>
        <time>2021-08-17T16:55:38Z</time>
      </trkpt>
      <trkpt lat="44.07655" lon="1.74475">
        <ele>214.99</ele>
        <time>2021-08-17T16:55:44Z</time>
      </trkpt>
      <trkpt lat="44.07656" lon="1.74478">
        <ele>214.99</ele>
        <time>2021-08-17T16:55:47Z</time>
      </trkpt>
      <trkpt lat="44.07656" lon="1.74484">
        <ele>216.43</ele>
        <time>2021-08-17T16:55:54Z</time>
      </trkpt>
      <trkpt lat="44.07654" lon="1.74491">
        <ele>216.91</ele>
        <time>2021-08-17T16:56:01Z</time>
      </trkpt>
      <trkpt lat="44.07652" lon="1.74491">
        <ele>217.4</ele>
        <time>2021-08-17T16:56:02Z</time>
      </trkpt>
      <trkpt lat="44.0765" lon="1.7449">
        <ele>215.47</ele>
        <time>2021-08-17T16:56:03Z</time>
      </trkpt>
      <trkpt lat="44.07647" lon="1.7449">
        <ele>214.99</ele>
        <time>2021-08-17T16:56:04Z</time>
      </trkpt>
      <trkpt lat="44.07644" lon="1.74491">
        <ele>214.51</ele>
        <time>2021-08-17T16:56:05Z</time>
      </trkpt>
      <trkpt lat="44.0764" lon="1.74493">
        <ele>213.55</ele>
        <time>2021-08-17T16:56:06Z</time>
      </trkpt>
      <trkpt lat="44.07636" lon="1.74494">
        <ele>212.59</ele>
        <time>2021-08-17T16:56:07Z</time>
      </trkpt>
      <trkpt lat="44.07632" lon="1.74496">
        <ele>212.59</ele>
        <time>2021-08-17T16:56:08Z</time>
      </trkpt>
      <trkpt lat="44.07622" lon="1.74505">
        <ele>210.67</ele>
        <time>2021-08-17T16:56:11Z</time>
      </trkpt>
      <trkpt lat="44.07618" lon="1.74509">
        <ele>209.7</ele>
        <time>2021-08-17T16:56:12Z</time>
      </trkpt>
      <trkpt lat="44.0761" lon="1.74519">
        <ele>207.78</ele>
        <time>2021-08-17T16:56:14Z</time>
      </trkpt>
      <trkpt lat="44.07607" lon="1.74524">
        <ele>206.82</ele>
        <time>2021-08-17T16:56:15Z</time>
      </trkpt>
      <trkpt lat="44.07605" lon="1.74528">
        <ele>206.82</ele>
        <time>2021-08-17T16:56:16Z</time>
      </trkpt>
      <trkpt lat="44.07589" lon="1.74549">
        <ele>204.42</ele>
        <time>2021-08-17T16:56:22Z</time>
      </trkpt>
      <trkpt lat="44.07578" lon="1.7457">
        <ele>202.01</ele>
        <time>2021-08-17T16:56:29Z</time>
      </trkpt>
      <trkpt lat="44.0757" lon="1.74592">
        <ele>199.13</ele>
        <time>2021-08-17T16:56:37Z</time>
      </trkpt>
      <trkpt lat="44.07563" lon="1.74612">
        <ele>196.73</ele>
        <time>2021-08-17T16:56:43Z</time>
      </trkpt>
      <trkpt lat="44.07555" lon="1.74634">
        <ele>194.32</ele>
        <time>2021-08-17T16:56:49Z</time>
      </trkpt>
      <trkpt lat="44.07544" lon="1.74655">
        <ele>191.92</ele>
        <time>2021-08-17T16:56:54Z</time>
      </trkpt>
      <trkpt lat="44.07542" lon="1.7466">
        <ele>191.44</ele>
        <time>2021-08-17T16:56:55Z</time>
      </trkpt>
      <trkpt lat="44.0754" lon="1.74666">
        <ele>190.96</ele>
        <time>2021-08-17T16:56:56Z</time>
      </trkpt>
      <trkpt lat="44.07524" lon="1.74693">
        <ele>188.56</ele>
        <time>2021-08-17T16:57:02Z</time>
      </trkpt>
      <trkpt lat="44.07504" lon="1.74707">
        <ele>184.71</ele>
        <time>2021-08-17T16:57:07Z</time>
      </trkpt>
      <trkpt lat="44.07499" lon="1.74711">
        <ele>183.75</ele>
        <time>2021-08-17T16:57:08Z</time>
      </trkpt>
      <trkpt lat="44.07482" lon="1.74723">
        <ele>180.38</ele>
        <time>2021-08-17T16:57:11Z</time>
      </trkpt>
      <trkpt lat="44.07471" lon="1.74728">
        <ele>179.42</ele>
        <time>2021-08-17T16:57:13Z</time>
      </trkpt>
      <trkpt lat="44.07466" lon="1.74728">
        <ele>178.94</ele>
        <time>2021-08-17T16:57:14Z</time>
      </trkpt>
      <trkpt lat="44.07449" lon="1.74731">
        <ele>177.98</ele>
        <time>2021-08-17T16:57:18Z</time>
      </trkpt>
      <trkpt lat="44.07448" lon="1.74727">
        <ele>177.02</ele>
        <time>2021-08-17T16:57:19Z</time>
      </trkpt>
      <trkpt lat="44.07448" lon="1.74723">
        <ele>177.02</ele>
        <time>2021-08-17T16:57:20Z</time>
      </trkpt>
      <trkpt lat="44.07448" lon="1.74719">
        <ele>177.02</ele>
        <time>2021-08-17T16:57:21Z</time>
      </trkpt>
      <trkpt lat="44.07448" lon="1.74713">
        <ele>177.02</ele>
        <time>2021-08-17T16:57:22Z</time>
      </trkpt>
      <trkpt lat="44.07449" lon="1.74708">
        <ele>177.02</ele>
        <time>2021-08-17T16:57:23Z</time>
      </trkpt>
      <trkpt lat="44.07449" lon="1.74701">
        <ele>176.54</ele>
        <time>2021-08-17T16:57:24Z</time>
      </trkpt>
      <trkpt lat="44.07455" lon="1.74669">
        <ele>174.62</ele>
        <time>2021-08-17T16:57:28Z</time>
      </trkpt>
      <trkpt lat="44.07472" lon="1.74623">
        <ele>171.73</ele>
        <time>2021-08-17T16:57:33Z</time>
      </trkpt>
      <trkpt lat="44.07494" lon="1.74584">
        <ele>168.37</ele>
        <time>2021-08-17T16:57:37Z</time>
      </trkpt>
      <trkpt lat="44.07519" lon="1.74524">
        <ele>165</ele>
        <time>2021-08-17T16:57:42Z</time>
      </trkpt>
      <trkpt lat="44.07532" lon="1.74465">
        <ele>161.16</ele>
        <time>2021-08-17T16:57:46Z</time>
      </trkpt>
      <trkpt lat="44.07545" lon="1.74406">
        <ele>156.83</ele>
        <time>2021-08-17T16:57:50Z</time>
      </trkpt>
      <trkpt lat="44.0755" lon="1.74375">
        <ele>155.87</ele>
        <time>2021-08-17T16:57:52Z</time>
      </trkpt>
      <trkpt lat="44.07559" lon="1.74298">
        <ele>153.47</ele>
        <time>2021-08-17T16:57:58Z</time>
      </trkpt>
      <trkpt lat="44.07561" lon="1.74269">
        <ele>152.51</ele>
        <time>2021-08-17T16:58:01Z</time>
      </trkpt>
      <trkpt lat="44.07559" lon="1.74261">
        <ele>151.54</ele>
        <time>2021-08-17T16:58:02Z</time>
      </trkpt>
      <trkpt lat="44.07553" lon="1.74255">
        <ele>151.06</ele>
        <time>2021-08-17T16:58:03Z</time>
      </trkpt>
      <trkpt lat="44.07548" lon="1.74251">
        <ele>151.06</ele>
        <time>2021-08-17T16:58:04Z</time>
      </trkpt>
      <trkpt lat="44.07542" lon="1.74248">
        <ele>151.06</ele>
        <time>2021-08-17T16:58:05Z</time>
      </trkpt>
      <trkpt lat="44.07535" lon="1.74246">
        <ele>151.06</ele>
        <time>2021-08-17T16:58:06Z</time>
      </trkpt>
      <trkpt lat="44.07513" lon="1.74237">
        <ele>152.51</ele>
        <time>2021-08-17T16:58:10Z</time>
      </trkpt>
      <trkpt lat="44.07496" lon="1.74229">
        <ele>153.95</ele>
        <time>2021-08-17T16:58:15Z</time>
      </trkpt>
      <trkpt lat="44.07483" lon="1.74225">
        <ele>154.91</ele>
        <time>2021-08-17T16:58:22Z</time>
      </trkpt>
      <trkpt lat="44.07468" lon="1.74218">
        <ele>155.39</ele>
        <time>2021-08-17T16:58:31Z</time>
      </trkpt>
      <trkpt lat="44.07459" lon="1.74214">
        <ele>156.35</ele>
        <time>2021-08-17T16:58:37Z</time>
      </trkpt>
      <trkpt lat="44.07458" lon="1.74212">
        <ele>156.35</ele>
        <time>2021-08-17T16:58:38Z</time>
      </trkpt>
      <trkpt lat="44.07457" lon="1.74212">
        <ele>156.35</ele>
        <time>2021-08-17T16:58:39Z</time>
      </trkpt>
      <trkpt lat="44.07456" lon="1.74211">
        <ele>156.83</ele>
        <time>2021-08-17T16:58:40Z</time>
      </trkpt>
      <trkpt lat="44.07455" lon="1.7421">
        <ele>156.83</ele>
        <time>2021-08-17T16:58:41Z</time>
      </trkpt>
      <trkpt lat="44.07453" lon="1.74209">
        <ele>156.83</ele>
        <time>2021-08-17T16:58:42Z</time>
      </trkpt>
      <trkpt lat="44.07452" lon="1.74208">
        <ele>156.83</ele>
        <time>2021-08-17T16:58:43Z</time>
      </trkpt>
      <trkpt lat="44.0745" lon="1.74208">
        <ele>157.79</ele>
        <time>2021-08-17T16:58:44Z</time>
      </trkpt>
      <trkpt lat="44.07449" lon="1.74207">
        <ele>157.79</ele>
        <time>2021-08-17T16:58:45Z</time>
      </trkpt>
      <trkpt lat="44.07435" lon="1.74201">
        <ele>158.75</ele>
        <time>2021-08-17T16:58:53Z</time>
      </trkpt>
      <trkpt lat="44.07422" lon="1.74199">
        <ele>159.24</ele>
        <time>2021-08-17T16:59:01Z</time>
      </trkpt>
      <trkpt lat="44.07402" lon="1.74204">
        <ele>160.68</ele>
        <time>2021-08-17T16:59:12Z</time>
      </trkpt>
      <trkpt lat="44.0739" lon="1.7421">
        <ele>161.16</ele>
        <time>2021-08-17T16:59:18Z</time>
      </trkpt>
      <trkpt lat="44.07373" lon="1.74221">
        <ele>162.6</ele>
        <time>2021-08-17T16:59:27Z</time>
      </trkpt>
      <trkpt lat="44.0736" lon="1.74228">
        <ele>163.56</ele>
        <time>2021-08-17T16:59:34Z</time>
      </trkpt>
      <trkpt lat="44.07342" lon="1.74234">
        <ele>164.52</ele>
        <time>2021-08-17T16:59:43Z</time>
      </trkpt>
      <trkpt lat="44.07327" lon="1.74225">
        <ele>165.48</ele>
        <time>2021-08-17T16:59:51Z</time>
      </trkpt>
      <trkpt lat="44.07326" lon="1.74224">
        <ele>165.96</ele>
        <time>2021-08-17T16:59:52Z</time>
      </trkpt>
      <trkpt lat="44.07325" lon="1.74221">
        <ele>166.45</ele>
        <time>2021-08-17T16:59:53Z</time>
      </trkpt>
      <trkpt lat="44.07324" lon="1.74218">
        <ele>166.45</ele>
        <time>2021-08-17T16:59:54Z</time>
      </trkpt>
      <trkpt lat="44.07322" lon="1.74194">
        <ele>167.41</ele>
        <time>2021-08-17T17:00:02Z</time>
      </trkpt>
      <trkpt lat="44.07331" lon="1.7418">
        <ele>168.37</ele>
        <time>2021-08-17T17:00:09Z</time>
      </trkpt>
      <trkpt lat="44.07353" lon="1.74165">
        <ele>169.81</ele>
        <time>2021-08-17T17:00:20Z</time>
      </trkpt>
      <trkpt lat="44.07367" lon="1.74154">
        <ele>170.77</ele>
        <time>2021-08-17T17:00:27Z</time>
      </trkpt>
      <trkpt lat="44.07369" lon="1.74151">
        <ele>170.77</ele>
        <time>2021-08-17T17:00:28Z</time>
      </trkpt>
      <trkpt lat="44.0737" lon="1.74149">
        <ele>171.25</ele>
        <time>2021-08-17T17:00:29Z</time>
      </trkpt>
      <trkpt lat="44.07372" lon="1.74148">
        <ele>171.25</ele>
        <time>2021-08-17T17:00:30Z</time>
      </trkpt>
      <trkpt lat="44.07374" lon="1.74147">
        <ele>171.25</ele>
        <time>2021-08-17T17:00:31Z</time>
      </trkpt>
      <trkpt lat="44.07376" lon="1.74145">
        <ele>171.73</ele>
        <time>2021-08-17T17:00:32Z</time>
      </trkpt>
      <trkpt lat="44.07394" lon="1.74132">
        <ele>172.21</ele>
        <time>2021-08-17T17:00:41Z</time>
      </trkpt>
      <trkpt lat="44.07412" lon="1.74119">
        <ele>173.66</ele>
        <time>2021-08-17T17:00:50Z</time>
      </trkpt>
      <trkpt lat="44.07431" lon="1.74115">
        <ele>174.62</ele>
        <time>2021-08-17T17:00:59Z</time>
      </trkpt>
      <trkpt lat="44.0745" lon="1.74115">
        <ele>176.06</ele>
        <time>2021-08-17T17:01:08Z</time>
      </trkpt>
      <trkpt lat="44.07475" lon="1.7411">
        <ele>177.5</ele>
        <time>2021-08-17T17:01:17Z</time>
      </trkpt>
      <trkpt lat="44.07494" lon="1.74089">
        <ele>178.94</ele>
        <time>2021-08-17T17:01:27Z</time>
      </trkpt>
      <trkpt lat="44.07503" lon="1.74066">
        <ele>180.38</ele>
        <time>2021-08-17T17:01:35Z</time>
      </trkpt>
      <trkpt lat="44.07504" lon="1.7404">
        <ele>181.35</ele>
        <time>2021-08-17T17:01:43Z</time>
      </trkpt>
      <trkpt lat="44.07502" lon="1.74011">
        <ele>182.79</ele>
        <time>2021-08-17T17:01:52Z</time>
      </trkpt>
      <trkpt lat="44.07507" lon="1.73981">
        <ele>183.75</ele>
        <time>2021-08-17T17:02:01Z</time>
      </trkpt>
      <trkpt lat="44.07522" lon="1.73959">
        <ele>185.19</ele>
        <time>2021-08-17T17:02:10Z</time>
      </trkpt>
      <trkpt lat="44.07539" lon="1.73943">
        <ele>186.15</ele>
        <time>2021-08-17T17:02:18Z</time>
      </trkpt>
      <trkpt lat="44.07552" lon="1.73924">
        <ele>187.11</ele>
        <time>2021-08-17T17:02:25Z</time>
      </trkpt>
      <trkpt lat="44.07557" lon="1.73898">
        <ele>188.56</ele>
        <time>2021-08-17T17:02:33Z</time>
      </trkpt>
      <trkpt lat="44.07557" lon="1.73893">
        <ele>189.04</ele>
        <time>2021-08-17T17:02:35Z</time>
      </trkpt>
      <trkpt lat="44.07557" lon="1.7389">
        <ele>189.04</ele>
        <time>2021-08-17T17:02:36Z</time>
      </trkpt>
      <trkpt lat="44.07553" lon="1.7387">
        <ele>190.48</ele>
        <time>2021-08-17T17:02:44Z</time>
      </trkpt>
      <trkpt lat="44.07544" lon="1.73851">
        <ele>192.4</ele>
        <time>2021-08-17T17:02:52Z</time>
      </trkpt>
      <trkpt lat="44.07536" lon="1.7384">
        <ele>193.36</ele>
        <time>2021-08-17T17:03:00Z</time>
      </trkpt>
      <trkpt lat="44.07526" lon="1.73826">
        <ele>193.84</ele>
        <time>2021-08-17T17:03:09Z</time>
      </trkpt>
      <trkpt lat="44.07513" lon="1.73811">
        <ele>194.8</ele>
        <time>2021-08-17T17:03:19Z</time>
      </trkpt>
      <trkpt lat="44.07497" lon="1.73792">
        <ele>197.21</ele>
        <time>2021-08-17T17:03:31Z</time>
      </trkpt>
      <trkpt lat="44.07482" lon="1.73773">
        <ele>198.17</ele>
        <time>2021-08-17T17:03:41Z</time>
      </trkpt>
      <trkpt lat="44.07465" lon="1.73747">
        <ele>198.65</ele>
        <time>2021-08-17T17:03:50Z</time>
      </trkpt>
      <trkpt lat="44.0746" lon="1.73718">
        <ele>198.65</ele>
        <time>2021-08-17T17:03:57Z</time>
      </trkpt>
      <trkpt lat="44.07463" lon="1.73672">
        <ele>198.65</ele>
        <time>2021-08-17T17:04:07Z</time>
      </trkpt>
      <trkpt lat="44.07466" lon="1.73637">
        <ele>200.09</ele>
        <time>2021-08-17T17:04:14Z</time>
      </trkpt>
      <trkpt lat="44.07469" lon="1.7359">
        <ele>200.57</ele>
        <time>2021-08-17T17:04:24Z</time>
      </trkpt>
      <trkpt lat="44.07472" lon="1.73538">
        <ele>201.53</ele>
        <time>2021-08-17T17:04:35Z</time>
      </trkpt>
      <trkpt lat="44.07474" lon="1.73518">
        <ele>199.61</ele>
        <time>2021-08-17T17:04:39Z</time>
      </trkpt>
      <trkpt lat="44.07476" lon="1.73507">
        <ele>198.65</ele>
        <time>2021-08-17T17:04:41Z</time>
      </trkpt>
      <trkpt lat="44.07478" lon="1.73501">
        <ele>198.65</ele>
        <time>2021-08-17T17:04:42Z</time>
      </trkpt>
      <trkpt lat="44.0748" lon="1.73495">
        <ele>198.65</ele>
        <time>2021-08-17T17:04:43Z</time>
      </trkpt>
      <trkpt lat="44.07482" lon="1.73489">
        <ele>197.69</ele>
        <time>2021-08-17T17:04:44Z</time>
      </trkpt>
      <trkpt lat="44.07486" lon="1.73483">
        <ele>197.21</ele>
        <time>2021-08-17T17:04:45Z</time>
      </trkpt>
      <trkpt lat="44.0749" lon="1.73476">
        <ele>196.25</ele>
        <time>2021-08-17T17:04:46Z</time>
      </trkpt>
      <trkpt lat="44.07494" lon="1.7347">
        <ele>196.25</ele>
        <time>2021-08-17T17:04:47Z</time>
      </trkpt>
      <trkpt lat="44.07517" lon="1.73441">
        <ele>193.36</ele>
        <time>2021-08-17T17:04:52Z</time>
      </trkpt>
      <trkpt lat="44.07525" lon="1.73432">
        <ele>192.4</ele>
        <time>2021-08-17T17:04:54Z</time>
      </trkpt>
      <trkpt lat="44.07528" lon="1.73427">
        <ele>191.92</ele>
        <time>2021-08-17T17:04:55Z</time>
      </trkpt>
      <trkpt lat="44.07532" lon="1.73422">
        <ele>191.92</ele>
        <time>2021-08-17T17:04:56Z</time>
      </trkpt>
      <trkpt lat="44.07538" lon="1.73413">
        <ele>190.48</ele>
        <time>2021-08-17T17:04:58Z</time>
      </trkpt>
      <trkpt lat="44.07562" lon="1.73371">
        <ele>187.11</ele>
        <time>2021-08-17T17:05:07Z</time>
      </trkpt>
      <trkpt lat="44.07568" lon="1.73351">
        <ele>185.67</ele>
        <time>2021-08-17T17:05:13Z</time>
      </trkpt>
      <trkpt lat="44.07568" lon="1.73349">
        <ele>185.19</ele>
        <time>2021-08-17T17:05:14Z</time>
      </trkpt>
      <trkpt lat="44.07562" lon="1.73344">
        <ele>185.19</ele>
        <time>2021-08-17T17:05:18Z</time>
      </trkpt>
      <trkpt lat="44.07557" lon="1.73341">
        <ele>185.19</ele>
        <time>2021-08-17T17:05:21Z</time>
      </trkpt>
      <trkpt lat="44.07556" lon="1.73336">
        <ele>185.19</ele>
        <time>2021-08-17T17:05:27Z</time>
      </trkpt>
      <trkpt lat="44.07558" lon="1.73339">
        <ele>185.19</ele>
        <time>2021-08-17T17:05:35Z</time>
      </trkpt>
      <trkpt lat="44.07559" lon="1.7334">
        <ele>185.19</ele>
        <time>2021-08-17T17:05:36Z</time>
      </trkpt>
      <trkpt lat="44.07564" lon="1.73343">
        <ele>185.19</ele>
        <time>2021-08-17T17:05:40Z</time>
      </trkpt>
      <trkpt lat="44.07566" lon="1.73342">
        <ele>185.19</ele>
        <time>2021-08-17T17:05:41Z</time>
      </trkpt>
      <trkpt lat="44.07568" lon="1.73339">
        <ele>185.19</ele>
        <time>2021-08-17T17:05:42Z</time>
      </trkpt>
      <trkpt lat="44.07569" lon="1.73335">
        <ele>184.23</ele>
        <time>2021-08-17T17:05:43Z</time>
      </trkpt>
      <trkpt lat="44.0757" lon="1.73331">
        <ele>183.27</ele>
        <time>2021-08-17T17:05:44Z</time>
      </trkpt>
      <trkpt lat="44.07571" lon="1.73326">
        <ele>183.27</ele>
        <time>2021-08-17T17:05:45Z</time>
      </trkpt>
      <trkpt lat="44.07574" lon="1.7331">
        <ele>183.27</ele>
        <time>2021-08-17T17:05:50Z</time>
      </trkpt>
      <trkpt lat="44.07575" lon="1.73308">
        <ele>183.27</ele>
        <time>2021-08-17T17:05:51Z</time>
      </trkpt>
      <trkpt lat="44.07576" lon="1.73307">
        <ele>182.79</ele>
        <time>2021-08-17T17:05:52Z</time>
      </trkpt>
      <trkpt lat="44.07578" lon="1.73307">
        <ele>182.79</ele>
        <time>2021-08-17T17:05:53Z</time>
      </trkpt>
      <trkpt lat="44.0758" lon="1.73307">
        <ele>182.79</ele>
        <time>2021-08-17T17:05:54Z</time>
      </trkpt>
      <trkpt lat="44.0759" lon="1.73302">
        <ele>181.35</ele>
        <time>2021-08-17T17:05:59Z</time>
      </trkpt>
      <trkpt lat="44.0759" lon="1.73296">
        <ele>180.87</ele>
        <time>2021-08-17T17:06:01Z</time>
      </trkpt>
      <trkpt lat="44.07588" lon="1.73294">
        <ele>180.87</ele>
        <time>2021-08-17T17:06:02Z</time>
      </trkpt>
      <trkpt lat="44.07586" lon="1.73294">
        <ele>180.87</ele>
        <time>2021-08-17T17:06:03Z</time>
      </trkpt>
      <trkpt lat="44.07568" lon="1.73298">
        <ele>179.9</ele>
        <time>2021-08-17T17:06:09Z</time>
      </trkpt>
      <trkpt lat="44.07565" lon="1.73299">
        <ele>179.9</ele>
        <time>2021-08-17T17:06:11Z</time>
      </trkpt>
      <trkpt lat="44.07563" lon="1.73299">
        <ele>179.9</ele>
        <time>2021-08-17T17:06:12Z</time>
      </trkpt>
      <trkpt lat="44.07562" lon="1.733">
        <ele>179.9</ele>
        <time>2021-08-17T17:06:13Z</time>
      </trkpt>
      <trkpt lat="44.07563" lon="1.73302">
        <ele>179.9</ele>
        <time>2021-08-17T17:06:15Z</time>
      </trkpt>
      <trkpt lat="44.07565" lon="1.73302">
        <ele>179.9</ele>
        <time>2021-08-17T17:06:16Z</time>
      </trkpt>
      <trkpt lat="44.07566" lon="1.73302">
        <ele>179.9</ele>
        <time>2021-08-17T17:06:17Z</time>
      </trkpt>
      <trkpt lat="44.07567" lon="1.73301">
        <ele>179.9</ele>
        <time>2021-08-17T17:06:18Z</time>
      </trkpt>
      <trkpt lat="44.07569" lon="1.73299">
        <ele>179.9</ele>
        <time>2021-08-17T17:06:19Z</time>
      </trkpt>
      <trkpt lat="44.0757" lon="1.73297">
        <ele>179.9</ele>
        <time>2021-08-17T17:06:20Z</time>
      </trkpt>
      <trkpt lat="44.07571" lon="1.73294">
        <ele>179.9</ele>
        <time>2021-08-17T17:06:21Z</time>
      </trkpt>
      <trkpt lat="44.07572" lon="1.73291">
        <ele>179.9</ele>
        <time>2021-08-17T17:06:22Z</time>
      </trkpt>
      <trkpt lat="44.07574" lon="1.73286">
        <ele>179.9</ele>
        <time>2021-08-17T17:06:27Z</time>
      </trkpt>
      <trkpt lat="44.07575" lon="1.73285">
        <ele>179.9</ele>
        <time>2021-08-17T17:06:36Z</time>
      </trkpt>
      <trkpt lat="44.07574" lon="1.73281">
        <ele>179.9</ele>
        <time>2021-08-17T17:06:51Z</time>
      </trkpt>
      <trkpt lat="44.07574" lon="1.73283">
        <ele>179.9</ele>
        <time>2021-08-17T17:07:10Z</time>
      </trkpt>
      <trkpt lat="44.07575" lon="1.73282">
        <ele>179.9</ele>
        <time>2021-08-17T17:07:31Z</time>
      </trkpt>
      <trkpt lat="44.07575" lon="1.7328">
        <ele>180.87</ele>
        <time>2021-08-17T17:07:42Z</time>
      </trkpt>
      <trkpt lat="44.07576" lon="1.73283">
        <ele>180.87</ele>
        <time>2021-08-17T17:08:04Z</time>
      </trkpt>
      <trkpt lat="44.07576" lon="1.73283">
        <ele>179.42</ele>
        <time>2021-08-17T17:08:24Z</time>
      </trkpt>
      <trkpt lat="44.07578" lon="1.73283">
        <ele>179.42</ele>
        <time>2021-08-17T17:08:44Z</time>
      </trkpt>
      <trkpt lat="44.0758" lon="1.73282">
        <ele>179.42</ele>
        <time>2021-08-17T17:09:00Z</time>
      </trkpt>
      <trkpt lat="44.07578" lon="1.73285">
        <ele>179.42</ele>
        <time>2021-08-17T17:09:19Z</time>
      </trkpt>
      <trkpt lat="44.07579" lon="1.73286">
        <ele>179.42</ele>
        <time>2021-08-17T17:09:38Z</time>
      </trkpt>
      <trkpt lat="44.07578" lon="1.73283">
        <ele>179.42</ele>
        <time>2021-08-17T17:09:46Z</time>
      </trkpt>
      <trkpt lat="44.07577" lon="1.73282">
        <ele>179.42</ele>
        <time>2021-08-17T17:09:50Z</time>
      </trkpt>
      <trkpt lat="44.07577" lon="1.73282">
        <ele>179.42</ele>
        <time>2021-08-17T17:09:55Z</time>
      </trkpt>
      <trkpt lat="44.07575" lon="1.73288">
        <ele>179.42</ele>
        <time>2021-08-17T17:10:15Z</time>
      </trkpt>
      <trkpt lat="44.07576" lon="1.73284">
        <ele>178.94</ele>
        <time>2021-08-17T17:10:39Z</time>
      </trkpt>
      <trkpt lat="44.07579" lon="1.73285">
        <ele>178.94</ele>
        <time>2021-08-17T17:10:56Z</time>
      </trkpt>
      <trkpt lat="44.07578" lon="1.73282">
        <ele>178.94</ele>
        <time>2021-08-17T17:11:15Z</time>
      </trkpt>
      <trkpt lat="44.07574" lon="1.73282">
        <ele>178.94</ele>
        <time>2021-08-17T17:11:44Z</time>
      </trkpt>
      <trkpt lat="44.07574" lon="1.73285">
        <ele>178.94</ele>
        <time>2021-08-17T17:12:04Z</time>
      </trkpt>
      <trkpt lat="44.07575" lon="1.73283">
        <ele>178.94</ele>
        <time>2021-08-17T17:12:24Z</time>
      </trkpt>
      <trkpt lat="44.07575" lon="1.73285">
        <ele>179.9</ele>
        <time>2021-08-17T17:12:43Z</time>
      </trkpt>
      <trkpt lat="44.07576" lon="1.73286">
        <ele>179.9</ele>
        <time>2021-08-17T17:13:05Z</time>
      </trkpt>
      <trkpt lat="44.07575" lon="1.73285">
        <ele>179.9</ele>
        <time>2021-08-17T17:13:27Z</time>
      </trkpt>
      <trkpt lat="44.07574" lon="1.73284">
        <ele>179.9</ele>
        <time>2021-08-17T17:13:52Z</time>
      </trkpt>
      <trkpt lat="44.07575" lon="1.73284">
        <ele>179.9</ele>
        <time>2021-08-17T17:14:12Z</time>
      </trkpt>
      <trkpt lat="44.07575" lon="1.73287">
        <ele>179.9</ele>
        <time>2021-08-17T17:14:34Z</time>
      </trkpt>
      <trkpt lat="44.07576" lon="1.73286">
        <ele>179.42</ele>
        <time>2021-08-17T17:14:46Z</time>
      </trkpt>
      <trkpt lat="44.07578" lon="1.73286">
        <ele>179.42</ele>
        <time>2021-08-17T17:14:49Z</time>
      </trkpt>
      <trkpt lat="44.07576" lon="1.73286">
        <ele>179.42</ele>
        <time>2021-08-17T17:14:54Z</time>
      </trkpt>
      <trkpt lat="44.07577" lon="1.73283">
        <ele>179.42</ele>
        <time>2021-08-17T17:15:21Z</time>
      </trkpt>
      <trkpt lat="44.07577" lon="1.73286">
        <ele>179.42</ele>
        <time>2021-08-17T17:15:39Z</time>
      </trkpt>
      <trkpt lat="44.07576" lon="1.73284">
        <ele>179.42</ele>
        <time>2021-08-17T17:16:01Z</time>
      </trkpt>
      <trkpt lat="44.07574" lon="1.73287">
        <ele>179.42</ele>
        <time>2021-08-17T17:16:25Z</time>
      </trkpt>
      <trkpt lat="44.07575" lon="1.7329">
        <ele>179.42</ele>
        <time>2021-08-17T17:16:40Z</time>
      </trkpt>
      <trkpt lat="44.07574" lon="1.73287">
        <ele>179.42</ele>
        <time>2021-08-17T17:16:59Z</time>
      </trkpt>
      <trkpt lat="44.07577" lon="1.73286">
        <ele>179.42</ele>
        <time>2021-08-17T17:17:19Z</time>
      </trkpt>
      <trkpt lat="44.07577" lon="1.73284">
        <ele>179.42</ele>
        <time>2021-08-17T17:17:39Z</time>
      </trkpt>
      <trkpt lat="44.07576" lon="1.7329">
        <ele>179.42</ele>
        <time>2021-08-17T17:18:00Z</time>
      </trkpt>
      <trkpt lat="44.07577" lon="1.73287">
        <ele>179.42</ele>
        <time>2021-08-17T17:18:17Z</time>
      </trkpt>
      <trkpt lat="44.07578" lon="1.73286">
        <ele>179.42</ele>
        <time>2021-08-17T17:18:35Z</time>
      </trkpt>
      <trkpt lat="44.07577" lon="1.73283">
        <ele>179.42</ele>
        <time>2021-08-17T17:18:59Z</time>
      </trkpt>
      <trkpt lat="44.07576" lon="1.73286">
        <ele>179.42</ele>
        <time>2021-08-17T17:19:20Z</time>
      </trkpt>
      <trkpt lat="44.07576" lon="1.73287">
        <ele>179.42</ele>
        <time>2021-08-17T17:19:42Z</time>
      </trkpt>
      <trkpt lat="44.07575" lon="1.73287">
        <ele>179.42</ele>
        <time>2021-08-17T17:19:47Z</time>
      </trkpt>
      <trkpt lat="44.07575" lon="1.73284">
        <ele>179.42</ele>
        <time>2021-08-17T17:19:53Z</time>
      </trkpt>
      <trkpt lat="44.07575" lon="1.73283">
        <ele>179.42</ele>
        <time>2021-08-17T17:20:16Z</time>
      </trkpt>
      <trkpt lat="44.07574" lon="1.73283">
        <ele>179.42</ele>
        <time>2021-08-17T17:20:37Z</time>
      </trkpt>
      <trkpt lat="44.07575" lon="1.73284">
        <ele>179.42</ele>
        <time>2021-08-17T17:20:56Z</time>
      </trkpt>
      <trkpt lat="44.07573" lon="1.73284">
        <ele>179.42</ele>
        <time>2021-08-17T17:21:15Z</time>
      </trkpt>
      <trkpt lat="44.07577" lon="1.73282">
        <ele>179.42</ele>
        <time>2021-08-17T17:21:33Z</time>
      </trkpt>
      <trkpt lat="44.07579" lon="1.73287">
        <ele>179.42</ele>
        <time>2021-08-17T17:21:52Z</time>
      </trkpt>
      <trkpt lat="44.07578" lon="1.73286">
        <ele>179.42</ele>
        <time>2021-08-17T17:22:17Z</time>
      </trkpt>
      <trkpt lat="44.07577" lon="1.73289">
        <ele>179.42</ele>
        <time>2021-08-17T17:22:41Z</time>
      </trkpt>
      <trkpt lat="44.07578" lon="1.73288">
        <ele>179.42</ele>
        <time>2021-08-17T17:22:58Z</time>
      </trkpt>
      <trkpt lat="44.07574" lon="1.73288">
        <ele>179.42</ele>
        <time>2021-08-17T17:23:21Z</time>
      </trkpt>
      <trkpt lat="44.07574" lon="1.73286">
        <ele>179.42</ele>
        <time>2021-08-17T17:23:45Z</time>
      </trkpt>
      <trkpt lat="44.07575" lon="1.73288">
        <ele>179.42</ele>
        <time>2021-08-17T17:24:08Z</time>
      </trkpt>
      <trkpt lat="44.07576" lon="1.73287">
        <ele>179.42</ele>
        <time>2021-08-17T17:24:30Z</time>
      </trkpt>
      <trkpt lat="44.07576" lon="1.73287">
        <ele>178.94</ele>
        <time>2021-08-17T17:24:58Z</time>
      </trkpt>
      <trkpt lat="44.07576" lon="1.73281">
        <ele>178.94</ele>
        <time>2021-08-17T17:25:19Z</time>
      </trkpt>
      <trkpt lat="44.07575" lon="1.73281">
        <ele>178.94</ele>
        <time>2021-08-17T17:25:43Z</time>
      </trkpt>
      <trkpt lat="44.07577" lon="1.73284">
        <ele>178.94</ele>
        <time>2021-08-17T17:26:06Z</time>
      </trkpt>
      <trkpt lat="44.07575" lon="1.73286">
        <ele>178.94</ele>
        <time>2021-08-17T17:26:32Z</time>
      </trkpt>
      <trkpt lat="44.07577" lon="1.73284">
        <ele>178.94</ele>
        <time>2021-08-17T17:26:57Z</time>
      </trkpt>
      <trkpt lat="44.07576" lon="1.73286">
        <ele>178.94</ele>
        <time>2021-08-17T17:27:21Z</time>
      </trkpt>
      <trkpt lat="44.07572" lon="1.73288">
        <ele>178.94</ele>
        <time>2021-08-17T17:27:42Z</time>
      </trkpt>
      <trkpt lat="44.07575" lon="1.73283">
        <ele>178.94</ele>
        <time>2021-08-17T17:28:05Z</time>
      </trkpt>
      <trkpt lat="44.07579" lon="1.73283">
        <ele>178.94</ele>
        <time>2021-08-17T17:28:23Z</time>
      </trkpt>
      <trkpt lat="44.0758" lon="1.73283">
        <ele>178.94</ele>
        <time>2021-08-17T17:28:42Z</time>
      </trkpt>
      <trkpt lat="44.07576" lon="1.73284">
        <ele>178.94</ele>
        <time>2021-08-17T17:29:05Z</time>
      </trkpt>
      <trkpt lat="44.07576" lon="1.73288">
        <ele>178.94</ele>
        <time>2021-08-17T17:29:29Z</time>
      </trkpt>
      <trkpt lat="44.07575" lon="1.73288">
        <ele>178.94</ele>
        <time>2021-08-17T17:29:46Z</time>
      </trkpt>
      <trkpt lat="44.07575" lon="1.73282">
        <ele>178.94</ele>
        <time>2021-08-17T17:30:09Z</time>
      </trkpt>
      <trkpt lat="44.07576" lon="1.73283">
        <ele>178.46</ele>
        <time>2021-08-17T17:30:31Z</time>
      </trkpt>
      <trkpt lat="44.07575" lon="1.73285">
        <ele>178.46</ele>
        <time>2021-08-17T17:30:58Z</time>
      </trkpt>
      <trkpt lat="44.07574" lon="1.73285">
        <ele>178.94</ele>
        <time>2021-08-17T17:31:21Z</time>
      </trkpt>
      <trkpt lat="44.07576" lon="1.73285">
        <ele>178.94</ele>
        <time>2021-08-17T17:31:40Z</time>
      </trkpt>
      <trkpt lat="44.07578" lon="1.73281">
        <ele>178.94</ele>
        <time>2021-08-17T17:32:05Z</time>
      </trkpt>
      <trkpt lat="44.07576" lon="1.73286">
        <ele>177.98</ele>
        <time>2021-08-17T17:32:34Z</time>
      </trkpt>
      <trkpt lat="44.07575" lon="1.73286">
        <ele>177.98</ele>
        <time>2021-08-17T17:32:53Z</time>
      </trkpt>
      <trkpt lat="44.07575" lon="1.73285">
        <ele>177.5</ele>
        <time>2021-08-17T17:33:17Z</time>
      </trkpt>
      <trkpt lat="44.07577" lon="1.73283">
        <ele>177.5</ele>
        <time>2021-08-17T17:33:38Z</time>
      </trkpt>
      <trkpt lat="44.07577" lon="1.73284">
        <ele>177.5</ele>
        <time>2021-08-17T17:34:02Z</time>
      </trkpt>
      <trkpt lat="44.07578" lon="1.73285">
        <ele>177.5</ele>
        <time>2021-08-17T17:34:24Z</time>
      </trkpt>
      <trkpt lat="44.07575" lon="1.73284">
        <ele>177.5</ele>
        <time>2021-08-17T17:34:49Z</time>
      </trkpt>
      <trkpt lat="44.07575" lon="1.73286">
        <ele>177.5</ele>
        <time>2021-08-17T17:35:13Z</time>
      </trkpt>
      <trkpt lat="44.07574" lon="1.73285">
        <ele>177.5</ele>
        <time>2021-08-17T17:35:39Z</time>
      </trkpt>
      <trkpt lat="44.07576" lon="1.73287">
        <ele>177.02</ele>
        <time>2021-08-17T17:36:05Z</time>
      </trkpt>
      <trkpt lat="44.07575" lon="1.73283">
        <ele>177.02</ele>
        <time>2021-08-17T17:36:28Z</time>
      </trkpt>
      <trkpt lat="44.07576" lon="1.73287">
        <ele>177.02</ele>
        <time>2021-08-17T17:37:01Z</time>
      </trkpt>
      <trkpt lat="44.07575" lon="1.73285">
        <ele>176.54</ele>
        <time>2021-08-17T17:37:31Z</time>
      </trkpt>
      <trkpt lat="44.07576" lon="1.73287">
        <ele>176.54</ele>
        <time>2021-08-17T17:37:52Z</time>
      </trkpt>
      <trkpt lat="44.07574" lon="1.73284">
        <ele>176.54</ele>
        <time>2021-08-17T17:38:18Z</time>
      </trkpt>
      <trkpt lat="44.07575" lon="1.73283">
        <ele>176.54</ele>
        <time>2021-08-17T17:38:40Z</time>
      </trkpt>
      <trkpt lat="44.07577" lon="1.73283">
        <ele>176.54</ele>
        <time>2021-08-17T17:39:06Z</time>
      </trkpt>
      <trkpt lat="44.07577" lon="1.73284">
        <ele>176.54</ele>
        <time>2021-08-17T17:39:22Z</time>
      </trkpt>
      <trkpt lat="44.07575" lon="1.73283">
        <ele>176.54</ele>
        <time>2021-08-17T17:39:48Z</time>
      </trkpt>
      <trkpt lat="44.07573" lon="1.73283">
        <ele>176.54</ele>
        <time>2021-08-17T17:40:08Z</time>
      </trkpt>
      <trkpt lat="44.07577" lon="1.73284">
        <ele>176.54</ele>
        <time>2021-08-17T17:40:27Z</time>
      </trkpt>
      <trkpt lat="44.0758" lon="1.73285">
        <ele>176.54</ele>
        <time>2021-08-17T17:40:49Z</time>
      </trkpt>
      <trkpt lat="44.0758" lon="1.73286">
        <ele>176.54</ele>
        <time>2021-08-17T17:41:11Z</time>
      </trkpt>
      <trkpt lat="44.07578" lon="1.73285">
        <ele>176.54</ele>
        <time>2021-08-17T17:41:33Z</time>
      </trkpt>
      <trkpt lat="44.07575" lon="1.73286">
        <ele>176.54</ele>
        <time>2021-08-17T17:41:56Z</time>
      </trkpt>
      <trkpt lat="44.07575" lon="1.73285">
        <ele>176.54</ele>
        <time>2021-08-17T17:42:11Z</time>
      </trkpt>
      <trkpt lat="44.07575" lon="1.73284">
        <ele>176.54</ele>
        <time>2021-08-17T17:42:20Z</time>
      </trkpt>
      <trkpt lat="44.07576" lon="1.73284">
        <ele>176.54</ele>
        <time>2021-08-17T17:42:28Z</time>
      </trkpt>
      <trkpt lat="44.07577" lon="1.73283">
        <ele>176.54</ele>
        <time>2021-08-17T17:42:45Z</time>
      </trkpt>
      <trkpt lat="44.07578" lon="1.73283">
        <ele>176.54</ele>
        <time>2021-08-17T17:43:11Z</time>
      </trkpt>
      <trkpt lat="44.07577" lon="1.73284">
        <ele>176.54</ele>
        <time>2021-08-17T17:43:30Z</time>
      </trkpt>
      <trkpt lat="44.07576" lon="1.73286">
        <ele>176.54</ele>
        <time>2021-08-17T17:43:52Z</time>
      </trkpt>
      <trkpt lat="44.07576" lon="1.73287">
        <ele>176.54</ele>
        <time>2021-08-17T17:44:08Z</time>
      </trkpt>
      <trkpt lat="44.07577" lon="1.73287">
        <ele>176.54</ele>
        <time>2021-08-17T17:44:26Z</time>
      </trkpt>
      <trkpt lat="44.07575" lon="1.73288">
        <ele>176.54</ele>
        <time>2021-08-17T17:44:32Z</time>
      </trkpt>
      <trkpt lat="44.07569" lon="1.73297">
        <ele>176.54</ele>
        <time>2021-08-17T17:44:40Z</time>
      </trkpt>
      <trkpt lat="44.07561" lon="1.73307">
        <ele>176.54</ele>
        <time>2021-08-17T17:44:49Z</time>
      </trkpt>
      <trkpt lat="44.07559" lon="1.7331">
        <ele>176.54</ele>
        <time>2021-08-17T17:44:56Z</time>
      </trkpt>
      <trkpt lat="44.07553" lon="1.73318">
        <ele>177.5</ele>
        <time>2021-08-17T17:45:02Z</time>
      </trkpt>
      <trkpt lat="44.07552" lon="1.73319">
        <ele>177.5</ele>
        <time>2021-08-17T17:45:03Z</time>
      </trkpt>
      <trkpt lat="44.07552" lon="1.7332">
        <ele>177.98</ele>
        <time>2021-08-17T17:45:04Z</time>
      </trkpt>
      <trkpt lat="44.07551" lon="1.73322">
        <ele>177.98</ele>
        <time>2021-08-17T17:45:05Z</time>
      </trkpt>
      <trkpt lat="44.0755" lon="1.73323">
        <ele>177.98</ele>
        <time>2021-08-17T17:45:06Z</time>
      </trkpt>
      <trkpt lat="44.07549" lon="1.73325">
        <ele>178.46</ele>
        <time>2021-08-17T17:45:07Z</time>
      </trkpt>
      <trkpt lat="44.07548" lon="1.73326">
        <ele>178.46</ele>
        <time>2021-08-17T17:45:08Z</time>
      </trkpt>
      <trkpt lat="44.07548" lon="1.73329">
        <ele>178.46</ele>
        <time>2021-08-17T17:45:10Z</time>
      </trkpt>
      <trkpt lat="44.07548" lon="1.73331">
        <ele>178.94</ele>
        <time>2021-08-17T17:45:14Z</time>
      </trkpt>
      <trkpt lat="44.07545" lon="1.73331">
        <ele>178.94</ele>
        <time>2021-08-17T17:45:27Z</time>
      </trkpt>
      <trkpt lat="44.0754" lon="1.73331">
        <ele>178.94</ele>
        <time>2021-08-17T17:45:46Z</time>
      </trkpt>
      <trkpt lat="44.07537" lon="1.73328">
        <ele>178.94</ele>
        <time>2021-08-17T17:46:05Z</time>
      </trkpt>
      <trkpt lat="44.07536" lon="1.73323">
        <ele>178.94</ele>
        <time>2021-08-17T17:46:21Z</time>
      </trkpt>
      <trkpt lat="44.07535" lon="1.7332">
        <ele>178.94</ele>
        <time>2021-08-17T17:46:39Z</time>
      </trkpt>
      <trkpt lat="44.07536" lon="1.73321">
        <ele>178.94</ele>
        <time>2021-08-17T17:46:58Z</time>
      </trkpt>
      <trkpt lat="44.07536" lon="1.73322">
        <ele>178.94</ele>
        <time>2021-08-17T17:47:17Z</time>
      </trkpt>
      <trkpt lat="44.07535" lon="1.73322">
        <ele>178.94</ele>
        <time>2021-08-17T17:47:29Z</time>
      </trkpt>
      <trkpt lat="44.07536" lon="1.73322">
        <ele>178.94</ele>
        <time>2021-08-17T17:47:46Z</time>
      </trkpt>
      <trkpt lat="44.0754" lon="1.73324">
        <ele>178.94</ele>
        <time>2021-08-17T17:48:17Z</time>
      </trkpt>
      <trkpt lat="44.0754" lon="1.73319">
        <ele>178.94</ele>
        <time>2021-08-17T17:48:35Z</time>
      </trkpt>
      <trkpt lat="44.07539" lon="1.73321">
        <ele>178.94</ele>
        <time>2021-08-17T17:48:57Z</time>
      </trkpt>
      <trkpt lat="44.07538" lon="1.73326">
        <ele>178.94</ele>
        <time>2021-08-17T17:49:17Z</time>
      </trkpt>
      <trkpt lat="44.07537" lon="1.73326">
        <ele>178.94</ele>
        <time>2021-08-17T17:49:32Z</time>
      </trkpt>
      <trkpt lat="44.07538" lon="1.73327">
        <ele>178.94</ele>
        <time>2021-08-17T17:49:51Z</time>
      </trkpt>
      <trkpt lat="44.07539" lon="1.73322">
        <ele>178.94</ele>
        <time>2021-08-17T17:50:09Z</time>
      </trkpt>
      <trkpt lat="44.0754" lon="1.73324">
        <ele>178.94</ele>
        <time>2021-08-17T17:50:29Z</time>
      </trkpt>
      <trkpt lat="44.07538" lon="1.73329">
        <ele>178.94</ele>
        <time>2021-08-17T17:50:50Z</time>
      </trkpt>
      <trkpt lat="44.07538" lon="1.73323">
        <ele>178.94</ele>
        <time>2021-08-17T17:51:08Z</time>
      </trkpt>
      <trkpt lat="44.07539" lon="1.73323">
        <ele>178.94</ele>
        <time>2021-08-17T17:51:25Z</time>
      </trkpt>
      <trkpt lat="44.07537" lon="1.73328">
        <ele>178.94</ele>
        <time>2021-08-17T17:51:42Z</time>
      </trkpt>
      <trkpt lat="44.07536" lon="1.73329">
        <ele>178.94</ele>
        <time>2021-08-17T17:51:58Z</time>
      </trkpt>
      <trkpt lat="44.07536" lon="1.73329">
        <ele>178.94</ele>
        <time>2021-08-17T17:52:14Z</time>
      </trkpt>
      <trkpt lat="44.07535" lon="1.7333">
        <ele>178.94</ele>
        <time>2021-08-17T17:52:27Z</time>
      </trkpt>
      <trkpt lat="44.07535" lon="1.73328">
        <ele>178.46</ele>
        <time>2021-08-17T17:52:42Z</time>
      </trkpt>
      <trkpt lat="44.07533" lon="1.73327">
        <ele>178.46</ele>
        <time>2021-08-17T17:53:03Z</time>
      </trkpt>
      <trkpt lat="44.07536" lon="1.73331">
        <ele>178.46</ele>
        <time>2021-08-17T17:53:23Z</time>
      </trkpt>
      <trkpt lat="44.07536" lon="1.7333">
        <ele>178.46</ele>
        <time>2021-08-17T17:53:43Z</time>
      </trkpt>
      <trkpt lat="44.07536" lon="1.73327">
        <ele>178.46</ele>
        <time>2021-08-17T17:54:00Z</time>
      </trkpt>
      <trkpt lat="44.07536" lon="1.73326">
        <ele>178.46</ele>
        <time>2021-08-17T17:54:18Z</time>
      </trkpt>
      <trkpt lat="44.07534" lon="1.73324">
        <ele>178.46</ele>
        <time>2021-08-17T17:54:33Z</time>
      </trkpt>
      <trkpt lat="44.07534" lon="1.73324">
        <ele>178.46</ele>
        <time>2021-08-17T17:54:47Z</time>
      </trkpt>
      <trkpt lat="44.07536" lon="1.73323">
        <ele>178.46</ele>
        <time>2021-08-17T17:55:04Z</time>
      </trkpt>
      <trkpt lat="44.07535" lon="1.73323">
        <ele>178.94</ele>
        <time>2021-08-17T17:55:14Z</time>
      </trkpt>
      <trkpt lat="44.07533" lon="1.73323">
        <ele>178.94</ele>
        <time>2021-08-17T17:55:32Z</time>
      </trkpt>
      <trkpt lat="44.07531" lon="1.7332">
        <ele>178.94</ele>
        <time>2021-08-17T17:55:43Z</time>
      </trkpt>
      <trkpt lat="44.0753" lon="1.73322">
        <ele>178.94</ele>
        <time>2021-08-17T17:56:00Z</time>
      </trkpt>
      <trkpt lat="44.07533" lon="1.73322">
        <ele>178.94</ele>
        <time>2021-08-17T17:56:16Z</time>
      </trkpt>
      <trkpt lat="44.07534" lon="1.73319">
        <ele>178.94</ele>
        <time>2021-08-17T17:56:35Z</time>
      </trkpt>
      <trkpt lat="44.07534" lon="1.73315">
        <ele>178.94</ele>
        <time>2021-08-17T17:56:47Z</time>
      </trkpt>
      <trkpt lat="44.07537" lon="1.73321">
        <ele>178.94</ele>
        <time>2021-08-17T17:57:01Z</time>
      </trkpt>
      <trkpt lat="44.07533" lon="1.7332">
        <ele>178.94</ele>
        <time>2021-08-17T17:57:22Z</time>
      </trkpt>
      <trkpt lat="44.07534" lon="1.73319">
        <ele>178.94</ele>
        <time>2021-08-17T17:57:36Z</time>
      </trkpt>
      <trkpt lat="44.07534" lon="1.73319">
        <ele>178.94</ele>
        <time>2021-08-17T17:57:57Z</time>
      </trkpt>
      <trkpt lat="44.07533" lon="1.73315">
        <ele>178.94</ele>
        <time>2021-08-17T17:58:15Z</time>
      </trkpt>
      <trkpt lat="44.07532" lon="1.73318">
        <ele>178.94</ele>
        <time>2021-08-17T17:58:32Z</time>
      </trkpt>
      <trkpt lat="44.07531" lon="1.73318">
        <ele>178.94</ele>
        <time>2021-08-17T17:58:50Z</time>
      </trkpt>
      <trkpt lat="44.07531" lon="1.73318">
        <ele>178.94</ele>
        <time>2021-08-17T17:59:09Z</time>
      </trkpt>
      <trkpt lat="44.07537" lon="1.73325">
        <ele>178.94</ele>
        <time>2021-08-17T17:59:24Z</time>
      </trkpt>
      <trkpt lat="44.07533" lon="1.73322">
        <ele>178.94</ele>
        <time>2021-08-17T17:59:47Z</time>
      </trkpt>
      <trkpt lat="44.07532" lon="1.73325">
        <ele>178.94</ele>
        <time>2021-08-17T18:00:08Z</time>
      </trkpt>
      <trkpt lat="44.07532" lon="1.73322">
        <ele>178.94</ele>
        <time>2021-08-17T18:00:32Z</time>
      </trkpt>
      <trkpt lat="44.07537" lon="1.73321">
        <ele>178.94</ele>
        <time>2021-08-17T18:00:43Z</time>
      </trkpt>
      <trkpt lat="44.07539" lon="1.73321">
        <ele>178.94</ele>
        <time>2021-08-17T18:00:45Z</time>
      </trkpt>
      <trkpt lat="44.0754" lon="1.73321">
        <ele>178.94</ele>
        <time>2021-08-17T18:00:46Z</time>
      </trkpt>
      <trkpt lat="44.0754" lon="1.73324">
        <ele>178.94</ele>
        <time>2021-08-17T18:00:51Z</time>
      </trkpt>
      <trkpt lat="44.07544" lon="1.73324">
        <ele>177.98</ele>
        <time>2021-08-17T18:00:57Z</time>
      </trkpt>
      <trkpt lat="44.07545" lon="1.73322">
        <ele>177.98</ele>
        <time>2021-08-17T18:00:58Z</time>
      </trkpt>
      <trkpt lat="44.07555" lon="1.73304">
        <ele>175.58</ele>
        <time>2021-08-17T18:01:04Z</time>
      </trkpt>
      <trkpt lat="44.07558" lon="1.73301">
        <ele>175.58</ele>
        <time>2021-08-17T18:01:05Z</time>
      </trkpt>
      <trkpt lat="44.07561" lon="1.73299">
        <ele>175.58</ele>
        <time>2021-08-17T18:01:06Z</time>
      </trkpt>
      <trkpt lat="44.07564" lon="1.73298">
        <ele>175.58</ele>
        <time>2021-08-17T18:01:07Z</time>
      </trkpt>
      <trkpt lat="44.07567" lon="1.73298">
        <ele>175.58</ele>
        <time>2021-08-17T18:01:08Z</time>
      </trkpt>
      <trkpt lat="44.07583" lon="1.73295">
        <ele>176.06</ele>
        <time>2021-08-17T18:01:14Z</time>
      </trkpt>
      <trkpt lat="44.07586" lon="1.73295">
        <ele>176.06</ele>
        <time>2021-08-17T18:01:15Z</time>
      </trkpt>
      <trkpt lat="44.07588" lon="1.73294">
        <ele>176.06</ele>
        <time>2021-08-17T18:01:16Z</time>
      </trkpt>
      <trkpt lat="44.07591" lon="1.73293">
        <ele>176.06</ele>
        <time>2021-08-17T18:01:17Z</time>
      </trkpt>
      <trkpt lat="44.07593" lon="1.73291">
        <ele>176.06</ele>
        <time>2021-08-17T18:01:18Z</time>
      </trkpt>
      <trkpt lat="44.07595" lon="1.73288">
        <ele>176.06</ele>
        <time>2021-08-17T18:01:19Z</time>
      </trkpt>
      <trkpt lat="44.07598" lon="1.73284">
        <ele>176.06</ele>
        <time>2021-08-17T18:01:20Z</time>
      </trkpt>
      <trkpt lat="44.07619" lon="1.73238">
        <ele>174.14</ele>
        <time>2021-08-17T18:01:28Z</time>
      </trkpt>
      <trkpt lat="44.07634" lon="1.73209">
        <ele>172.21</ele>
        <time>2021-08-17T18:01:33Z</time>
      </trkpt>
      <trkpt lat="44.07638" lon="1.73204">
        <ele>172.21</ele>
        <time>2021-08-17T18:01:34Z</time>
      </trkpt>
      <trkpt lat="44.07642" lon="1.732">
        <ele>171.25</ele>
        <time>2021-08-17T18:01:35Z</time>
      </trkpt>
      <trkpt lat="44.07657" lon="1.73186">
        <ele>169.81</ele>
        <time>2021-08-17T18:01:39Z</time>
      </trkpt>
      <trkpt lat="44.07676" lon="1.73162">
        <ele>167.41</ele>
        <time>2021-08-17T18:01:46Z</time>
      </trkpt>
      <trkpt lat="44.07677" lon="1.73157">
        <ele>167.41</ele>
        <time>2021-08-17T18:01:47Z</time>
      </trkpt>
      <trkpt lat="44.07679" lon="1.73152">
        <ele>166.93</ele>
        <time>2021-08-17T18:01:48Z</time>
      </trkpt>
      <trkpt lat="44.07679" lon="1.73146">
        <ele>166.93</ele>
        <time>2021-08-17T18:01:49Z</time>
      </trkpt>
      <trkpt lat="44.0768" lon="1.7314">
        <ele>165.96</ele>
        <time>2021-08-17T18:01:50Z</time>
      </trkpt>
      <trkpt lat="44.0768" lon="1.73134">
        <ele>165.96</ele>
        <time>2021-08-17T18:01:51Z</time>
      </trkpt>
      <trkpt lat="44.0768" lon="1.73128">
        <ele>165.48</ele>
        <time>2021-08-17T18:01:52Z</time>
      </trkpt>
      <trkpt lat="44.07681" lon="1.73097">
        <ele>163.56</ele>
        <time>2021-08-17T18:01:58Z</time>
      </trkpt>
      <trkpt lat="44.07687" lon="1.73086">
        <ele>163.08</ele>
        <time>2021-08-17T18:02:03Z</time>
      </trkpt>
      <trkpt lat="44.07689" lon="1.73087">
        <ele>163.08</ele>
        <time>2021-08-17T18:02:04Z</time>
      </trkpt>
      <trkpt lat="44.07691" lon="1.73087">
        <ele>162.6</ele>
        <time>2021-08-17T18:02:05Z</time>
      </trkpt>
      <trkpt lat="44.07693" lon="1.73088">
        <ele>162.6</ele>
        <time>2021-08-17T18:02:06Z</time>
      </trkpt>
      <trkpt lat="44.07694" lon="1.73089">
        <ele>162.12</ele>
        <time>2021-08-17T18:02:07Z</time>
      </trkpt>
      <trkpt lat="44.07696" lon="1.73087">
        <ele>162.12</ele>
        <time>2021-08-17T18:02:08Z</time>
      </trkpt>
      <trkpt lat="44.07697" lon="1.73084">
        <ele>162.12</ele>
        <time>2021-08-17T18:02:09Z</time>
      </trkpt>
      <trkpt lat="44.07699" lon="1.73081">
        <ele>162.12</ele>
        <time>2021-08-17T18:02:10Z</time>
      </trkpt>
      <trkpt lat="44.077" lon="1.73078">
        <ele>162.12</ele>
        <time>2021-08-17T18:02:11Z</time>
      </trkpt>
      <trkpt lat="44.077" lon="1.73075">
        <ele>162.12</ele>
        <time>2021-08-17T18:02:12Z</time>
      </trkpt>
      <trkpt lat="44.07701" lon="1.73073">
        <ele>162.12</ele>
        <time>2021-08-17T18:02:13Z</time>
      </trkpt>
      <trkpt lat="44.07702" lon="1.7307">
        <ele>162.12</ele>
        <time>2021-08-17T18:02:14Z</time>
      </trkpt>
      <trkpt lat="44.07703" lon="1.73066">
        <ele>162.12</ele>
        <time>2021-08-17T18:02:15Z</time>
      </trkpt>
      <trkpt lat="44.07704" lon="1.73062">
        <ele>162.12</ele>
        <time>2021-08-17T18:02:16Z</time>
      </trkpt>
      <trkpt lat="44.07704" lon="1.73058">
        <ele>162.12</ele>
        <time>2021-08-17T18:02:17Z</time>
      </trkpt>
      <trkpt lat="44.07704" lon="1.73054">
        <ele>162.12</ele>
        <time>2021-08-17T18:02:18Z</time>
      </trkpt>
      <trkpt lat="44.07704" lon="1.73052">
        <ele>163.56</ele>
        <time>2021-08-17T18:02:19Z</time>
      </trkpt>
      <trkpt lat="44.07702" lon="1.73037">
        <ele>165</ele>
        <time>2021-08-17T18:02:26Z</time>
      </trkpt>
      <trkpt lat="44.07705" lon="1.73008">
        <ele>166.45</ele>
        <time>2021-08-17T18:02:37Z</time>
      </trkpt>
      <trkpt lat="44.07712" lon="1.72988">
        <ele>163.08</ele>
        <time>2021-08-17T18:02:43Z</time>
      </trkpt>
      <trkpt lat="44.07722" lon="1.7297">
        <ele>162.12</ele>
        <time>2021-08-17T18:02:48Z</time>
      </trkpt>
      <trkpt lat="44.07727" lon="1.72962">
        <ele>162.12</ele>
        <time>2021-08-17T18:02:53Z</time>
      </trkpt>
      <trkpt lat="44.07728" lon="1.72959">
        <ele>162.12</ele>
        <time>2021-08-17T18:02:55Z</time>
      </trkpt>
      <trkpt lat="44.07737" lon="1.72947">
        <ele>164.04</ele>
        <time>2021-08-17T18:03:04Z</time>
      </trkpt>
      <trkpt lat="44.07739" lon="1.72942">
        <ele>164.52</ele>
        <time>2021-08-17T18:03:07Z</time>
      </trkpt>
      <trkpt lat="44.0774" lon="1.72941">
        <ele>164.52</ele>
        <time>2021-08-17T18:03:08Z</time>
      </trkpt>
      <trkpt lat="44.07741" lon="1.72939">
        <ele>165</ele>
        <time>2021-08-17T18:03:09Z</time>
      </trkpt>
      <trkpt lat="44.07741" lon="1.72937">
        <ele>165</ele>
        <time>2021-08-17T18:03:10Z</time>
      </trkpt>
      <trkpt lat="44.07742" lon="1.72936">
        <ele>165</ele>
        <time>2021-08-17T18:03:11Z</time>
      </trkpt>
      <trkpt lat="44.07743" lon="1.72934">
        <ele>165.96</ele>
        <time>2021-08-17T18:03:12Z</time>
      </trkpt>
      <trkpt lat="44.07744" lon="1.72933">
        <ele>165.96</ele>
        <time>2021-08-17T18:03:13Z</time>
      </trkpt>
      <trkpt lat="44.07745" lon="1.72932">
        <ele>165.96</ele>
        <time>2021-08-17T18:03:14Z</time>
      </trkpt>
      <trkpt lat="44.0775" lon="1.72924">
        <ele>167.41</ele>
        <time>2021-08-17T18:03:22Z</time>
      </trkpt>
      <trkpt lat="44.07751" lon="1.72923">
        <ele>167.89</ele>
        <time>2021-08-17T18:03:24Z</time>
      </trkpt>
      <trkpt lat="44.07752" lon="1.72919">
        <ele>169.33</ele>
        <time>2021-08-17T18:03:31Z</time>
      </trkpt>
      <trkpt lat="44.07757" lon="1.72916">
        <ele>170.29</ele>
        <time>2021-08-17T18:03:38Z</time>
      </trkpt>
      <trkpt lat="44.07762" lon="1.72899">
        <ele>172.21</ele>
        <time>2021-08-17T18:03:47Z</time>
      </trkpt>
      <trkpt lat="44.0776" lon="1.72893">
        <ele>173.17</ele>
        <time>2021-08-17T18:03:51Z</time>
      </trkpt>
      <trkpt lat="44.0776" lon="1.72888">
        <ele>173.66</ele>
        <time>2021-08-17T18:03:54Z</time>
      </trkpt>
      <trkpt lat="44.0776" lon="1.72887">
        <ele>173.66</ele>
        <time>2021-08-17T18:03:55Z</time>
      </trkpt>
      <trkpt lat="44.0776" lon="1.72885">
        <ele>174.14</ele>
        <time>2021-08-17T18:03:56Z</time>
      </trkpt>
      <trkpt lat="44.07761" lon="1.72884">
        <ele>174.14</ele>
        <time>2021-08-17T18:03:57Z</time>
      </trkpt>
      <trkpt lat="44.07761" lon="1.72883">
        <ele>174.14</ele>
        <time>2021-08-17T18:03:58Z</time>
      </trkpt>
      <trkpt lat="44.07763" lon="1.72873">
        <ele>175.58</ele>
        <time>2021-08-17T18:04:05Z</time>
      </trkpt>
      <trkpt lat="44.07768" lon="1.72855">
        <ele>176.54</ele>
        <time>2021-08-17T18:04:15Z</time>
      </trkpt>
      <trkpt lat="44.07769" lon="1.7285">
        <ele>177.02</ele>
        <time>2021-08-17T18:04:24Z</time>
      </trkpt>
      <trkpt lat="44.0777" lon="1.72845">
        <ele>177.02</ele>
        <time>2021-08-17T18:04:27Z</time>
      </trkpt>
      <trkpt lat="44.0777" lon="1.7283">
        <ele>177.02</ele>
        <time>2021-08-17T18:04:33Z</time>
      </trkpt>
      <trkpt lat="44.07778" lon="1.72803">
        <ele>175.58</ele>
        <time>2021-08-17T18:04:41Z</time>
      </trkpt>
      <trkpt lat="44.07786" lon="1.72786">
        <ele>172.69</ele>
        <time>2021-08-17T18:04:46Z</time>
      </trkpt>
      <trkpt lat="44.07784" lon="1.72765">
        <ele>169.33</ele>
        <time>2021-08-17T18:04:51Z</time>
      </trkpt>
      <trkpt lat="44.07788" lon="1.72746">
        <ele>166.93</ele>
        <time>2021-08-17T18:04:56Z</time>
      </trkpt>
      <trkpt lat="44.0779" lon="1.72721">
        <ele>163.56</ele>
        <time>2021-08-17T18:05:01Z</time>
      </trkpt>
      <trkpt lat="44.07791" lon="1.72707">
        <ele>161.64</ele>
        <time>2021-08-17T18:05:03Z</time>
      </trkpt>
      <trkpt lat="44.07792" lon="1.72701">
        <ele>161.16</ele>
        <time>2021-08-17T18:05:04Z</time>
      </trkpt>
      <trkpt lat="44.07794" lon="1.72688">
        <ele>159.72</ele>
        <time>2021-08-17T18:05:07Z</time>
      </trkpt>
      <trkpt lat="44.07794" lon="1.72684">
        <ele>158.75</ele>
        <time>2021-08-17T18:05:08Z</time>
      </trkpt>
      <trkpt lat="44.07794" lon="1.72679">
        <ele>158.27</ele>
        <time>2021-08-17T18:05:09Z</time>
      </trkpt>
      <trkpt lat="44.07794" lon="1.72674">
        <ele>157.31</ele>
        <time>2021-08-17T18:05:10Z</time>
      </trkpt>
      <trkpt lat="44.07796" lon="1.72669">
        <ele>157.79</ele>
        <time>2021-08-17T18:05:11Z</time>
      </trkpt>
      <trkpt lat="44.07799" lon="1.72664">
        <ele>156.83</ele>
        <time>2021-08-17T18:05:12Z</time>
      </trkpt>
      <trkpt lat="44.07801" lon="1.7266">
        <ele>156.83</ele>
        <time>2021-08-17T18:05:13Z</time>
      </trkpt>
      <trkpt lat="44.07804" lon="1.72658">
        <ele>156.35</ele>
        <time>2021-08-17T18:05:14Z</time>
      </trkpt>
      <trkpt lat="44.07807" lon="1.72656">
        <ele>155.87</ele>
        <time>2021-08-17T18:05:15Z</time>
      </trkpt>
      <trkpt lat="44.07815" lon="1.72641">
        <ele>154.43</ele>
        <time>2021-08-17T18:05:19Z</time>
      </trkpt>
      <trkpt lat="44.07817" lon="1.72639">
        <ele>153.95</ele>
        <time>2021-08-17T18:05:20Z</time>
      </trkpt>
      <trkpt lat="44.0782" lon="1.72635">
        <ele>153.47</ele>
        <time>2021-08-17T18:05:21Z</time>
      </trkpt>
      <trkpt lat="44.07826" lon="1.72626">
        <ele>152.51</ele>
        <time>2021-08-17T18:05:23Z</time>
      </trkpt>
      <trkpt lat="44.07834" lon="1.72606">
        <ele>148.66</ele>
        <time>2021-08-17T18:05:27Z</time>
      </trkpt>
      <trkpt lat="44.07835" lon="1.72601">
        <ele>148.66</ele>
        <time>2021-08-17T18:05:28Z</time>
      </trkpt>
      <trkpt lat="44.07847" lon="1.72585">
        <ele>147.7</ele>
        <time>2021-08-17T18:05:33Z</time>
      </trkpt>
      <trkpt lat="44.07859" lon="1.72573">
        <ele>150.58</ele>
        <time>2021-08-17T18:05:41Z</time>
      </trkpt>
      <trkpt lat="44.07871" lon="1.72556">
        <ele>150.58</ele>
        <time>2021-08-17T18:05:48Z</time>
      </trkpt>
      <trkpt lat="44.07881" lon="1.72543">
        <ele>147.7</ele>
        <time>2021-08-17T18:05:52Z</time>
      </trkpt>
      <trkpt lat="44.07896" lon="1.72525">
        <ele>143.85</ele>
        <time>2021-08-17T18:05:58Z</time>
      </trkpt>
      <trkpt lat="44.07912" lon="1.72507">
        <ele>141.45</ele>
        <time>2021-08-17T18:06:05Z</time>
      </trkpt>
      <trkpt lat="44.07924" lon="1.72499">
        <ele>141.45</ele>
        <time>2021-08-17T18:06:10Z</time>
      </trkpt>
      <trkpt lat="44.07921" lon="1.72501">
        <ele>141.45</ele>
        <time>2021-08-17T18:06:17Z</time>
      </trkpt>
      <trkpt lat="44.0792" lon="1.72501">
        <ele>141.45</ele>
        <time>2021-08-17T18:06:19Z</time>
      </trkpt>
      <trkpt lat="44.07917" lon="1.72504">
        <ele>141.45</ele>
        <time>2021-08-17T18:06:25Z</time>
      </trkpt>
      <trkpt lat="44.07913" lon="1.72509">
        <ele>141.45</ele>
        <time>2021-08-17T18:06:32Z</time>
      </trkpt>
      <trkpt lat="44.0791" lon="1.72509">
        <ele>141.45</ele>
        <time>2021-08-17T18:06:38Z</time>
      </trkpt>
      <trkpt lat="44.07903" lon="1.72504">
        <ele>140.01</ele>
        <time>2021-08-17T18:06:46Z</time>
      </trkpt>
      <trkpt lat="44.07901" lon="1.72505">
        <ele>140.01</ele>
        <time>2021-08-17T18:06:48Z</time>
      </trkpt>
      <trkpt lat="44.07892" lon="1.72511">
        <ele>139.05</ele>
        <time>2021-08-17T18:06:54Z</time>
      </trkpt>
      <trkpt lat="44.07892" lon="1.72505">
        <ele>139.05</ele>
        <time>2021-08-17T18:06:56Z</time>
      </trkpt>
      <trkpt lat="44.07895" lon="1.72502">
        <ele>138.57</ele>
        <time>2021-08-17T18:06:57Z</time>
      </trkpt>
      <trkpt lat="44.07897" lon="1.72499">
        <ele>138.09</ele>
        <time>2021-08-17T18:06:58Z</time>
      </trkpt>
      <trkpt lat="44.07901" lon="1.72494">
        <ele>138.09</ele>
        <time>2021-08-17T18:06:59Z</time>
      </trkpt>
      <trkpt lat="44.07904" lon="1.7249">
        <ele>137.61</ele>
        <time>2021-08-17T18:07:00Z</time>
      </trkpt>
      <trkpt lat="44.07908" lon="1.72487">
        <ele>136.64</ele>
        <time>2021-08-17T18:07:01Z</time>
      </trkpt>
      <trkpt lat="44.07912" lon="1.72484">
        <ele>136.16</ele>
        <time>2021-08-17T18:07:02Z</time>
      </trkpt>
      <trkpt lat="44.07917" lon="1.72482">
        <ele>135.68</ele>
        <time>2021-08-17T18:07:03Z</time>
      </trkpt>
      <trkpt lat="44.07926" lon="1.72477">
        <ele>134.72</ele>
        <time>2021-08-17T18:07:05Z</time>
      </trkpt>
      <trkpt lat="44.07931" lon="1.72476">
        <ele>134.24</ele>
        <time>2021-08-17T18:07:06Z</time>
      </trkpt>
      <trkpt lat="44.07936" lon="1.72476">
        <ele>133.76</ele>
        <time>2021-08-17T18:07:07Z</time>
      </trkpt>
      <trkpt lat="44.07941" lon="1.72478">
        <ele>133.28</ele>
        <time>2021-08-17T18:07:08Z</time>
      </trkpt>
      <trkpt lat="44.07946" lon="1.72481">
        <ele>132.32</ele>
        <time>2021-08-17T18:07:09Z</time>
      </trkpt>
      <trkpt lat="44.07951" lon="1.72486">
        <ele>131.84</ele>
        <time>2021-08-17T18:07:10Z</time>
      </trkpt>
      <trkpt lat="44.07955" lon="1.72493">
        <ele>131.36</ele>
        <time>2021-08-17T18:07:11Z</time>
      </trkpt>
      <trkpt lat="44.07957" lon="1.725">
        <ele>130.4</ele>
        <time>2021-08-17T18:07:12Z</time>
      </trkpt>
      <trkpt lat="44.07959" lon="1.72508">
        <ele>129.92</ele>
        <time>2021-08-17T18:07:13Z</time>
      </trkpt>
      <trkpt lat="44.07961" lon="1.72516">
        <ele>129.43</ele>
        <time>2021-08-17T18:07:14Z</time>
      </trkpt>
      <trkpt lat="44.07962" lon="1.72525">
        <ele>128.95</ele>
        <time>2021-08-17T18:07:15Z</time>
      </trkpt>
      <trkpt lat="44.07963" lon="1.72533">
        <ele>128.47</ele>
        <time>2021-08-17T18:07:16Z</time>
      </trkpt>
      <trkpt lat="44.07964" lon="1.7255">
        <ele>127.51</ele>
        <time>2021-08-17T18:07:18Z</time>
      </trkpt>
      <trkpt lat="44.07965" lon="1.72558">
        <ele>126.55</ele>
        <time>2021-08-17T18:07:19Z</time>
      </trkpt>
      <trkpt lat="44.07963" lon="1.72584">
        <ele>124.63</ele>
        <time>2021-08-17T18:07:22Z</time>
      </trkpt>
      <trkpt lat="44.07962" lon="1.72598">
        <ele>124.15</ele>
        <time>2021-08-17T18:07:24Z</time>
      </trkpt>
      <trkpt lat="44.07954" lon="1.72638">
        <ele>121.26</ele>
        <time>2021-08-17T18:07:30Z</time>
      </trkpt>
      <trkpt lat="44.07954" lon="1.72644">
        <ele>121.26</ele>
        <time>2021-08-17T18:07:31Z</time>
      </trkpt>
      <trkpt lat="44.07955" lon="1.72649">
        <ele>120.78</ele>
        <time>2021-08-17T18:07:32Z</time>
      </trkpt>
      <trkpt lat="44.07955" lon="1.72654">
        <ele>120.3</ele>
        <time>2021-08-17T18:07:33Z</time>
      </trkpt>
      <trkpt lat="44.07956" lon="1.72659">
        <ele>120.3</ele>
        <time>2021-08-17T18:07:34Z</time>
      </trkpt>
      <trkpt lat="44.07958" lon="1.72663">
        <ele>119.34</ele>
        <time>2021-08-17T18:07:35Z</time>
      </trkpt>
      <trkpt lat="44.07959" lon="1.72666">
        <ele>119.34</ele>
        <time>2021-08-17T18:07:36Z</time>
      </trkpt>
      <trkpt lat="44.07961" lon="1.72669">
        <ele>118.86</ele>
        <time>2021-08-17T18:07:37Z</time>
      </trkpt>
      <trkpt lat="44.07983" lon="1.72682">
        <ele>118.86</ele>
        <time>2021-08-17T18:07:44Z</time>
      </trkpt>
      <trkpt lat="44.08006" lon="1.72695">
        <ele>118.86</ele>
        <time>2021-08-17T18:07:50Z</time>
      </trkpt>
      <trkpt lat="44.0801" lon="1.72698">
        <ele>118.86</ele>
        <time>2021-08-17T18:07:51Z</time>
      </trkpt>
      <trkpt lat="44.08056" lon="1.72727">
        <ele>118.38</ele>
        <time>2021-08-17T18:08:02Z</time>
      </trkpt>
      <trkpt lat="44.08088" lon="1.72747">
        <ele>118.38</ele>
        <time>2021-08-17T18:08:11Z</time>
      </trkpt>
      <trkpt lat="44.08101" lon="1.72756">
        <ele>119.82</ele>
        <time>2021-08-17T18:08:15Z</time>
      </trkpt>
      <trkpt lat="44.08125" lon="1.7277">
        <ele>121.26</ele>
        <time>2021-08-17T18:08:24Z</time>
      </trkpt>
      <trkpt lat="44.08146" lon="1.72783">
        <ele>122.71</ele>
        <time>2021-08-17T18:08:34Z</time>
      </trkpt>
      <trkpt lat="44.08162" lon="1.72792">
        <ele>123.67</ele>
        <time>2021-08-17T18:08:43Z</time>
      </trkpt>
      <trkpt lat="44.08178" lon="1.72803">
        <ele>125.11</ele>
        <time>2021-08-17T18:08:52Z</time>
      </trkpt>
      <trkpt lat="44.08193" lon="1.72813">
        <ele>126.07</ele>
        <time>2021-08-17T18:09:01Z</time>
      </trkpt>
      <trkpt lat="44.08209" lon="1.72829">
        <ele>127.03</ele>
        <time>2021-08-17T18:09:11Z</time>
      </trkpt>
      <trkpt lat="44.08224" lon="1.72852">
        <ele>128.47</ele>
        <time>2021-08-17T18:09:23Z</time>
      </trkpt>
      <trkpt lat="44.08239" lon="1.72878">
        <ele>130.88</ele>
        <time>2021-08-17T18:09:36Z</time>
      </trkpt>
      <trkpt lat="44.08251" lon="1.72896">
        <ele>131.36</ele>
        <time>2021-08-17T18:09:45Z</time>
      </trkpt>
      <trkpt lat="44.0826" lon="1.72913">
        <ele>132.8</ele>
        <time>2021-08-17T18:09:54Z</time>
      </trkpt>
      <trkpt lat="44.08266" lon="1.72926">
        <ele>133.28</ele>
        <time>2021-08-17T18:10:00Z</time>
      </trkpt>
      <trkpt lat="44.08268" lon="1.72933">
        <ele>134.24</ele>
        <time>2021-08-17T18:10:03Z</time>
      </trkpt>
      <trkpt lat="44.0827" lon="1.72935">
        <ele>134.24</ele>
        <time>2021-08-17T18:10:04Z</time>
      </trkpt>
      <trkpt lat="44.08271" lon="1.72937">
        <ele>134.24</ele>
        <time>2021-08-17T18:10:05Z</time>
      </trkpt>
      <trkpt lat="44.08273" lon="1.72939">
        <ele>134.24</ele>
        <time>2021-08-17T18:10:06Z</time>
      </trkpt>
      <trkpt lat="44.08275" lon="1.72939">
        <ele>134.24</ele>
        <time>2021-08-17T18:10:07Z</time>
      </trkpt>
      <trkpt lat="44.08283" lon="1.72951">
        <ele>135.2</ele>
        <time>2021-08-17T18:10:13Z</time>
      </trkpt>
      <trkpt lat="44.08293" lon="1.72969">
        <ele>136.16</ele>
        <time>2021-08-17T18:10:22Z</time>
      </trkpt>
      <trkpt lat="44.08306" lon="1.7299">
        <ele>137.13</ele>
        <time>2021-08-17T18:10:32Z</time>
      </trkpt>
      <trkpt lat="44.08316" lon="1.73008">
        <ele>138.57</ele>
        <time>2021-08-17T18:10:41Z</time>
      </trkpt>
      <trkpt lat="44.08325" lon="1.73024">
        <ele>140.01</ele>
        <time>2021-08-17T18:10:49Z</time>
      </trkpt>
      <trkpt lat="44.08337" lon="1.73042">
        <ele>140.49</ele>
        <time>2021-08-17T18:10:59Z</time>
      </trkpt>
      <trkpt lat="44.08339" lon="1.73047">
        <ele>140.49</ele>
        <time>2021-08-17T18:11:02Z</time>
      </trkpt>
      <trkpt lat="44.08341" lon="1.73048">
        <ele>140.49</ele>
        <time>2021-08-17T18:11:03Z</time>
      </trkpt>
      <trkpt lat="44.08342" lon="1.7305">
        <ele>140.97</ele>
        <time>2021-08-17T18:11:04Z</time>
      </trkpt>
      <trkpt lat="44.08352" lon="1.73072">
        <ele>141.45</ele>
        <time>2021-08-17T18:11:13Z</time>
      </trkpt>
      <trkpt lat="44.08363" lon="1.73093">
        <ele>142.89</ele>
        <time>2021-08-17T18:11:22Z</time>
      </trkpt>
      <trkpt lat="44.0837" lon="1.73108">
        <ele>143.37</ele>
        <time>2021-08-17T18:11:29Z</time>
      </trkpt>
      <trkpt lat="44.08379" lon="1.7313">
        <ele>143.85</ele>
        <time>2021-08-17T18:11:38Z</time>
      </trkpt>
      <trkpt lat="44.08388" lon="1.73152">
        <ele>144.82</ele>
        <time>2021-08-17T18:11:47Z</time>
      </trkpt>
      <trkpt lat="44.08397" lon="1.73177">
        <ele>145.78</ele>
        <time>2021-08-17T18:11:57Z</time>
      </trkpt>
      <trkpt lat="44.08411" lon="1.73196">
        <ele>147.22</ele>
        <time>2021-08-17T18:12:07Z</time>
      </trkpt>
      <trkpt lat="44.08416" lon="1.73201">
        <ele>147.22</ele>
        <time>2021-08-17T18:12:10Z</time>
      </trkpt>
      <trkpt lat="44.08425" lon="1.73216">
        <ele>148.66</ele>
        <time>2021-08-17T18:12:18Z</time>
      </trkpt>
      <trkpt lat="44.08437" lon="1.73233">
        <ele>149.62</ele>
        <time>2021-08-17T18:12:27Z</time>
      </trkpt>
      <trkpt lat="44.08446" lon="1.73248">
        <ele>150.58</ele>
        <time>2021-08-17T18:12:35Z</time>
      </trkpt>
      <trkpt lat="44.08453" lon="1.73264">
        <ele>151.54</ele>
        <time>2021-08-17T18:12:43Z</time>
      </trkpt>
      <trkpt lat="44.08461" lon="1.73281">
        <ele>152.51</ele>
        <time>2021-08-17T18:12:52Z</time>
      </trkpt>
      <trkpt lat="44.08471" lon="1.73293">
        <ele>153.47</ele>
        <time>2021-08-17T18:13:00Z</time>
      </trkpt>
      <trkpt lat="44.08479" lon="1.733">
        <ele>153.95</ele>
        <time>2021-08-17T18:13:06Z</time>
      </trkpt>
      <trkpt lat="44.0848" lon="1.73301">
        <ele>154.91</ele>
        <time>2021-08-17T18:13:07Z</time>
      </trkpt>
      <trkpt lat="44.08482" lon="1.73302">
        <ele>154.91</ele>
        <time>2021-08-17T18:13:08Z</time>
      </trkpt>
      <trkpt lat="44.08483" lon="1.73302">
        <ele>154.91</ele>
        <time>2021-08-17T18:13:09Z</time>
      </trkpt>
      <trkpt lat="44.08484" lon="1.73303">
        <ele>154.91</ele>
        <time>2021-08-17T18:13:10Z</time>
      </trkpt>
      <trkpt lat="44.08486" lon="1.73303">
        <ele>154.91</ele>
        <time>2021-08-17T18:13:11Z</time>
      </trkpt>
      <trkpt lat="44.08487" lon="1.73304">
        <ele>155.39</ele>
        <time>2021-08-17T18:13:12Z</time>
      </trkpt>
      <trkpt lat="44.085" lon="1.73307">
        <ele>157.31</ele>
        <time>2021-08-17T18:13:22Z</time>
      </trkpt>
      <trkpt lat="44.08501" lon="1.73306">
        <ele>157.31</ele>
        <time>2021-08-17T18:13:29Z</time>
      </trkpt>
      <trkpt lat="44.085" lon="1.73306">
        <ele>157.31</ele>
        <time>2021-08-17T18:13:35Z</time>
      </trkpt>
      <trkpt lat="44.08499" lon="1.73307">
        <ele>157.31</ele>
        <time>2021-08-17T18:13:36Z</time>
      </trkpt>
      <trkpt lat="44.08499" lon="1.73307">
        <ele>157.31</ele>
        <time>2021-08-17T18:13:39Z</time>
      </trkpt>
      <trkpt lat="44.08499" lon="1.73309">
        <ele>157.31</ele>
        <time>2021-08-17T18:13:50Z</time>
      </trkpt>
      <trkpt lat="44.08499" lon="1.73309">
        <ele>157.31</ele>
        <time>2021-08-17T18:13:57Z</time>
      </trkpt>
      <trkpt lat="44.08499" lon="1.73309">
        <ele>157.31</ele>
        <time>2021-08-17T18:14:04Z</time>
      </trkpt>
      <trkpt lat="44.08498" lon="1.73308">
        <ele>157.31</ele>
        <time>2021-08-17T18:14:26Z</time>
      </trkpt>
      <trkpt lat="44.08498" lon="1.73307">
        <ele>157.31</ele>
        <time>2021-08-17T18:14:51Z</time>
      </trkpt>
      <trkpt lat="44.085" lon="1.73307">
        <ele>156.35</ele>
        <time>2021-08-17T18:15:05Z</time>
      </trkpt>
      <trkpt lat="44.08501" lon="1.73308">
        <ele>156.35</ele>
        <time>2021-08-17T18:15:12Z</time>
      </trkpt>
      <trkpt lat="44.08502" lon="1.73308">
        <ele>156.35</ele>
        <time>2021-08-17T18:15:27Z</time>
      </trkpt>
      <trkpt lat="44.085" lon="1.73303">
        <ele>156.35</ele>
        <time>2021-08-17T18:15:41Z</time>
      </trkpt>
      <trkpt lat="44.08498" lon="1.73302">
        <ele>156.35</ele>
        <time>2021-08-17T18:16:06Z</time>
      </trkpt>
      <trkpt lat="44.085" lon="1.73304">
        <ele>156.35</ele>
        <time>2021-08-17T18:16:23Z</time>
      </trkpt>
      <trkpt lat="44.085" lon="1.73305">
        <ele>156.35</ele>
        <time>2021-08-17T18:16:37Z</time>
      </trkpt>
      <trkpt lat="44.08502" lon="1.73306">
        <ele>156.35</ele>
        <time>2021-08-17T18:16:58Z</time>
      </trkpt>
      <trkpt lat="44.08501" lon="1.73312">
        <ele>157.31</ele>
        <time>2021-08-17T18:17:19Z</time>
      </trkpt>
      <trkpt lat="44.08498" lon="1.7331">
        <ele>157.31</ele>
        <time>2021-08-17T18:17:37Z</time>
      </trkpt>
      <trkpt lat="44.08502" lon="1.73308">
        <ele>157.31</ele>
        <time>2021-08-17T18:17:51Z</time>
      </trkpt>
      <trkpt lat="44.08505" lon="1.73307">
        <ele>157.79</ele>
        <time>2021-08-17T18:17:59Z</time>
      </trkpt>
      <trkpt lat="44.08505" lon="1.73307">
        <ele>157.79</ele>
        <time>2021-08-17T18:18:00Z</time>
      </trkpt>
      <trkpt lat="44.08517" lon="1.73303">
        <ele>159.24</ele>
        <time>2021-08-17T18:18:09Z</time>
      </trkpt>
      <trkpt lat="44.08528" lon="1.733">
        <ele>160.68</ele>
        <time>2021-08-17T18:18:17Z</time>
      </trkpt>
      <trkpt lat="44.08538" lon="1.7329">
        <ele>162.6</ele>
        <time>2021-08-17T18:18:26Z</time>
      </trkpt>
      <trkpt lat="44.08545" lon="1.73283">
        <ele>163.08</ele>
        <time>2021-08-17T18:18:31Z</time>
      </trkpt>
      <trkpt lat="44.08556" lon="1.73269">
        <ele>164.52</ele>
        <time>2021-08-17T18:18:40Z</time>
      </trkpt>
      <trkpt lat="44.08558" lon="1.73268">
        <ele>164.52</ele>
        <time>2021-08-17T18:18:41Z</time>
      </trkpt>
      <trkpt lat="44.08571" lon="1.73249">
        <ele>165.96</ele>
        <time>2021-08-17T18:18:52Z</time>
      </trkpt>
      <trkpt lat="44.08582" lon="1.73232">
        <ele>166.93</ele>
        <time>2021-08-17T18:19:02Z</time>
      </trkpt>
      <trkpt lat="44.08596" lon="1.73209">
        <ele>168.37</ele>
        <time>2021-08-17T18:19:15Z</time>
      </trkpt>
      <trkpt lat="44.08608" lon="1.73189">
        <ele>169.81</ele>
        <time>2021-08-17T18:19:26Z</time>
      </trkpt>
      <trkpt lat="44.08615" lon="1.73168">
        <ele>172.21</ele>
        <time>2021-08-17T18:19:37Z</time>
      </trkpt>
      <trkpt lat="44.08618" lon="1.7315">
        <ele>173.66</ele>
        <time>2021-08-17T18:19:46Z</time>
      </trkpt>
      <trkpt lat="44.08617" lon="1.73133">
        <ele>175.58</ele>
        <time>2021-08-17T18:19:56Z</time>
      </trkpt>
      <trkpt lat="44.08616" lon="1.7312">
        <ele>176.54</ele>
        <time>2021-08-17T18:20:04Z</time>
      </trkpt>
      <trkpt lat="44.08613" lon="1.73108">
        <ele>178.46</ele>
        <time>2021-08-17T18:20:14Z</time>
      </trkpt>
      <trkpt lat="44.08611" lon="1.73101">
        <ele>179.42</ele>
        <time>2021-08-17T18:20:21Z</time>
      </trkpt>
      <trkpt lat="44.08607" lon="1.73092">
        <ele>180.87</ele>
        <time>2021-08-17T18:20:30Z</time>
      </trkpt>
      <trkpt lat="44.08603" lon="1.73083">
        <ele>182.31</ele>
        <time>2021-08-17T18:20:38Z</time>
      </trkpt>
      <trkpt lat="44.08599" lon="1.73074">
        <ele>183.75</ele>
        <time>2021-08-17T18:20:46Z</time>
      </trkpt>
      <trkpt lat="44.08593" lon="1.73063">
        <ele>185.67</ele>
        <time>2021-08-17T18:20:56Z</time>
      </trkpt>
      <trkpt lat="44.08589" lon="1.73052">
        <ele>186.63</ele>
        <time>2021-08-17T18:21:05Z</time>
      </trkpt>
      <trkpt lat="44.08584" lon="1.73042">
        <ele>188.08</ele>
        <time>2021-08-17T18:21:13Z</time>
      </trkpt>
      <trkpt lat="44.08579" lon="1.73031">
        <ele>190</ele>
        <time>2021-08-17T18:21:22Z</time>
      </trkpt>
      <trkpt lat="44.08573" lon="1.73021">
        <ele>190.48</ele>
        <time>2021-08-17T18:21:31Z</time>
      </trkpt>
      <trkpt lat="44.08568" lon="1.7301">
        <ele>191.92</ele>
        <time>2021-08-17T18:21:40Z</time>
      </trkpt>
      <trkpt lat="44.08565" lon="1.72999">
        <ele>193.36</ele>
        <time>2021-08-17T18:21:48Z</time>
      </trkpt>
      <trkpt lat="44.08564" lon="1.72993">
        <ele>193.84</ele>
        <time>2021-08-17T18:21:52Z</time>
      </trkpt>
      <trkpt lat="44.08556" lon="1.72978">
        <ele>196.25</ele>
        <time>2021-08-17T18:22:04Z</time>
      </trkpt>
      <trkpt lat="44.08551" lon="1.72968">
        <ele>197.69</ele>
        <time>2021-08-17T18:22:13Z</time>
      </trkpt>
      <trkpt lat="44.08544" lon="1.72953">
        <ele>199.61</ele>
        <time>2021-08-17T18:22:26Z</time>
      </trkpt>
      <trkpt lat="44.0854" lon="1.72943">
        <ele>200.57</ele>
        <time>2021-08-17T18:22:35Z</time>
      </trkpt>
      <trkpt lat="44.08538" lon="1.72939">
        <ele>201.05</ele>
        <time>2021-08-17T18:22:39Z</time>
      </trkpt>
      <trkpt lat="44.08529" lon="1.72922">
        <ele>202.98</ele>
        <time>2021-08-17T18:22:51Z</time>
      </trkpt>
      <trkpt lat="44.08526" lon="1.72918">
        <ele>203.46</ele>
        <time>2021-08-17T18:22:58Z</time>
      </trkpt>
      <trkpt lat="44.08519" lon="1.729">
        <ele>204.9</ele>
        <time>2021-08-17T18:23:08Z</time>
      </trkpt>
      <trkpt lat="44.08514" lon="1.72883">
        <ele>205.86</ele>
        <time>2021-08-17T18:23:17Z</time>
      </trkpt>
      <trkpt lat="44.0851" lon="1.72867">
        <ele>207.78</ele>
        <time>2021-08-17T18:23:25Z</time>
      </trkpt>
      <trkpt lat="44.08501" lon="1.72846">
        <ele>209.7</ele>
        <time>2021-08-17T18:23:36Z</time>
      </trkpt>
      <trkpt lat="44.08496" lon="1.72826">
        <ele>211.15</ele>
        <time>2021-08-17T18:23:46Z</time>
      </trkpt>
      <trkpt lat="44.0849" lon="1.72804">
        <ele>213.07</ele>
        <time>2021-08-17T18:23:57Z</time>
      </trkpt>
      <trkpt lat="44.08481" lon="1.72786">
        <ele>214.99</ele>
        <time>2021-08-17T18:24:07Z</time>
      </trkpt>
      <trkpt lat="44.08471" lon="1.7277">
        <ele>216.43</ele>
        <time>2021-08-17T18:24:17Z</time>
      </trkpt>
      <trkpt lat="44.08458" lon="1.72753">
        <ele>218.84</ele>
        <time>2021-08-17T18:24:28Z</time>
      </trkpt>
      <trkpt lat="44.08448" lon="1.72739">
        <ele>220.28</ele>
        <time>2021-08-17T18:24:37Z</time>
      </trkpt>
      <trkpt lat="44.08435" lon="1.72723">
        <ele>221.72</ele>
        <time>2021-08-17T18:24:47Z</time>
      </trkpt>
      <trkpt lat="44.08432" lon="1.72712">
        <ele>222.2</ele>
        <time>2021-08-17T18:24:52Z</time>
      </trkpt>
      <trkpt lat="44.08438" lon="1.727">
        <ele>223.16</ele>
        <time>2021-08-17T18:25:00Z</time>
      </trkpt>
      <trkpt lat="44.08439" lon="1.727">
        <ele>223.64</ele>
        <time>2021-08-17T18:25:01Z</time>
      </trkpt>
      <trkpt lat="44.08443" lon="1.72701">
        <ele>223.64</ele>
        <time>2021-08-17T18:25:03Z</time>
      </trkpt>
      <trkpt lat="44.08459" lon="1.72722">
        <ele>225.57</ele>
        <time>2021-08-17T18:25:15Z</time>
      </trkpt>
      <trkpt lat="44.08474" lon="1.72734">
        <ele>226.53</ele>
        <time>2021-08-17T18:25:24Z</time>
      </trkpt>
      <trkpt lat="44.08495" lon="1.72739">
        <ele>228.45</ele>
        <time>2021-08-17T18:25:35Z</time>
      </trkpt>
      <trkpt lat="44.08514" lon="1.72744">
        <ele>229.89</ele>
        <time>2021-08-17T18:25:46Z</time>
      </trkpt>
      <trkpt lat="44.08528" lon="1.72754">
        <ele>231.33</ele>
        <time>2021-08-17T18:25:54Z</time>
      </trkpt>
      <trkpt lat="44.08539" lon="1.72771">
        <ele>232.78</ele>
        <time>2021-08-17T18:26:02Z</time>
      </trkpt>
      <trkpt lat="44.08551" lon="1.72788">
        <ele>234.22</ele>
        <time>2021-08-17T18:26:11Z</time>
      </trkpt>
      <trkpt lat="44.08567" lon="1.72795">
        <ele>235.18</ele>
        <time>2021-08-17T18:26:19Z</time>
      </trkpt>
      <trkpt lat="44.08569" lon="1.72794">
        <ele>235.18</ele>
        <time>2021-08-17T18:26:20Z</time>
      </trkpt>
      <trkpt lat="44.0857" lon="1.72792">
        <ele>235.66</ele>
        <time>2021-08-17T18:26:21Z</time>
      </trkpt>
      <trkpt lat="44.08571" lon="1.7279">
        <ele>235.66</ele>
        <time>2021-08-17T18:26:22Z</time>
      </trkpt>
      <trkpt lat="44.08572" lon="1.72787">
        <ele>235.66</ele>
        <time>2021-08-17T18:26:23Z</time>
      </trkpt>
      <trkpt lat="44.08572" lon="1.72784">
        <ele>236.14</ele>
        <time>2021-08-17T18:26:24Z</time>
      </trkpt>
      <trkpt lat="44.08572" lon="1.72782">
        <ele>236.14</ele>
        <time>2021-08-17T18:26:25Z</time>
      </trkpt>
      <trkpt lat="44.08572" lon="1.72779">
        <ele>236.62</ele>
        <time>2021-08-17T18:26:26Z</time>
      </trkpt>
      <trkpt lat="44.08571" lon="1.72777">
        <ele>236.62</ele>
        <time>2021-08-17T18:26:27Z</time>
      </trkpt>
      <trkpt lat="44.0857" lon="1.72774">
        <ele>237.1</ele>
        <time>2021-08-17T18:26:28Z</time>
      </trkpt>
      <trkpt lat="44.08569" lon="1.72772">
        <ele>237.1</ele>
        <time>2021-08-17T18:26:29Z</time>
      </trkpt>
      <trkpt lat="44.08568" lon="1.7277">
        <ele>237.1</ele>
        <time>2021-08-17T18:26:30Z</time>
      </trkpt>
      <trkpt lat="44.08553" lon="1.72744">
        <ele>239.51</ele>
        <time>2021-08-17T18:26:42Z</time>
      </trkpt>
      <trkpt lat="44.08544" lon="1.72722">
        <ele>240.95</ele>
        <time>2021-08-17T18:26:52Z</time>
      </trkpt>
      <trkpt lat="44.08536" lon="1.72701">
        <ele>242.39</ele>
        <time>2021-08-17T18:27:02Z</time>
      </trkpt>
      <trkpt lat="44.08529" lon="1.72688">
        <ele>243.35</ele>
        <time>2021-08-17T18:27:10Z</time>
      </trkpt>
      <trkpt lat="44.08521" lon="1.72678">
        <ele>244.79</ele>
        <time>2021-08-17T18:27:17Z</time>
      </trkpt>
      <trkpt lat="44.0852" lon="1.72677">
        <ele>245.27</ele>
        <time>2021-08-17T18:27:18Z</time>
      </trkpt>
      <trkpt lat="44.08519" lon="1.72676">
        <ele>245.27</ele>
        <time>2021-08-17T18:27:19Z</time>
      </trkpt>
      <trkpt lat="44.08517" lon="1.72675">
        <ele>245.27</ele>
        <time>2021-08-17T18:27:20Z</time>
      </trkpt>
      <trkpt lat="44.08516" lon="1.72673">
        <ele>245.27</ele>
        <time>2021-08-17T18:27:21Z</time>
      </trkpt>
      <trkpt lat="44.08515" lon="1.72672">
        <ele>245.75</ele>
        <time>2021-08-17T18:27:22Z</time>
      </trkpt>
      <trkpt lat="44.08504" lon="1.72656">
        <ele>247.68</ele>
        <time>2021-08-17T18:27:32Z</time>
      </trkpt>
      <trkpt lat="44.08493" lon="1.72639">
        <ele>248.64</ele>
        <time>2021-08-17T18:27:42Z</time>
      </trkpt>
      <trkpt lat="44.08482" lon="1.72616">
        <ele>251.04</ele>
        <time>2021-08-17T18:27:52Z</time>
      </trkpt>
      <trkpt lat="44.08476" lon="1.72596">
        <ele>252.96</ele>
        <time>2021-08-17T18:28:00Z</time>
      </trkpt>
      <trkpt lat="44.08472" lon="1.72578">
        <ele>253.93</ele>
        <time>2021-08-17T18:28:08Z</time>
      </trkpt>
      <trkpt lat="44.08467" lon="1.72553">
        <ele>255.85</ele>
        <time>2021-08-17T18:28:20Z</time>
      </trkpt>
      <trkpt lat="44.08463" lon="1.72532">
        <ele>257.29</ele>
        <time>2021-08-17T18:28:30Z</time>
      </trkpt>
      <trkpt lat="44.08459" lon="1.72509">
        <ele>259.21</ele>
        <time>2021-08-17T18:28:41Z</time>
      </trkpt>
      <trkpt lat="44.08453" lon="1.72489">
        <ele>260.65</ele>
        <time>2021-08-17T18:28:51Z</time>
      </trkpt>
      <trkpt lat="44.08448" lon="1.72469">
        <ele>262.58</ele>
        <time>2021-08-17T18:29:01Z</time>
      </trkpt>
      <trkpt lat="44.08445" lon="1.72452">
        <ele>263.54</ele>
        <time>2021-08-17T18:29:09Z</time>
      </trkpt>
      <trkpt lat="44.08444" lon="1.72427">
        <ele>264.5</ele>
        <time>2021-08-17T18:29:20Z</time>
      </trkpt>
      <trkpt lat="44.08443" lon="1.72402">
        <ele>266.42</ele>
        <time>2021-08-17T18:29:30Z</time>
      </trkpt>
      <trkpt lat="44.08445" lon="1.72371">
        <ele>267.86</ele>
        <time>2021-08-17T18:29:42Z</time>
      </trkpt>
      <trkpt lat="44.08449" lon="1.72348">
        <ele>269.79</ele>
        <time>2021-08-17T18:29:52Z</time>
      </trkpt>
      <trkpt lat="44.08455" lon="1.7233">
        <ele>270.75</ele>
        <time>2021-08-17T18:30:00Z</time>
      </trkpt>
      <trkpt lat="44.08458" lon="1.72318">
        <ele>271.71</ele>
        <time>2021-08-17T18:30:05Z</time>
      </trkpt>
      <trkpt lat="44.08461" lon="1.72293">
        <ele>273.15</ele>
        <time>2021-08-17T18:30:15Z</time>
      </trkpt>
      <trkpt lat="44.08456" lon="1.72273">
        <ele>273.63</ele>
        <time>2021-08-17T18:30:23Z</time>
      </trkpt>
      <trkpt lat="44.08448" lon="1.72249">
        <ele>273.63</ele>
        <time>2021-08-17T18:30:30Z</time>
      </trkpt>
      <trkpt lat="44.08434" lon="1.72219">
        <ele>274.11</ele>
        <time>2021-08-17T18:30:38Z</time>
      </trkpt>
      <trkpt lat="44.0842" lon="1.72186">
        <ele>275.56</ele>
        <time>2021-08-17T18:30:47Z</time>
      </trkpt>
      <trkpt lat="44.08413" lon="1.72168">
        <ele>277</ele>
        <time>2021-08-17T18:30:54Z</time>
      </trkpt>
      <trkpt lat="44.08412" lon="1.72165">
        <ele>277</ele>
        <time>2021-08-17T18:30:56Z</time>
      </trkpt>
      <trkpt lat="44.08411" lon="1.72164">
        <ele>277.48</ele>
        <time>2021-08-17T18:30:57Z</time>
      </trkpt>
      <trkpt lat="44.08404" lon="1.72152">
        <ele>278.44</ele>
        <time>2021-08-17T18:31:04Z</time>
      </trkpt>
      <trkpt lat="44.08395" lon="1.72143">
        <ele>279.4</ele>
        <time>2021-08-17T18:31:11Z</time>
      </trkpt>
      <trkpt lat="44.08385" lon="1.72134">
        <ele>280.36</ele>
        <time>2021-08-17T18:31:18Z</time>
      </trkpt>
      <trkpt lat="44.08381" lon="1.72129">
        <ele>280.84</ele>
        <time>2021-08-17T18:31:22Z</time>
      </trkpt>
      <trkpt lat="44.08381" lon="1.72128">
        <ele>280.84</ele>
        <time>2021-08-17T18:31:23Z</time>
      </trkpt>
      <trkpt lat="44.0838" lon="1.72127">
        <ele>281.32</ele>
        <time>2021-08-17T18:31:24Z</time>
      </trkpt>
      <trkpt lat="44.08379" lon="1.72125">
        <ele>281.32</ele>
        <time>2021-08-17T18:31:25Z</time>
      </trkpt>
      <trkpt lat="44.08378" lon="1.72124">
        <ele>281.32</ele>
        <time>2021-08-17T18:31:26Z</time>
      </trkpt>
      <trkpt lat="44.08377" lon="1.72122">
        <ele>281.8</ele>
        <time>2021-08-17T18:31:27Z</time>
      </trkpt>
      <trkpt lat="44.08376" lon="1.72121">
        <ele>281.8</ele>
        <time>2021-08-17T18:31:28Z</time>
      </trkpt>
      <trkpt lat="44.08375" lon="1.72119">
        <ele>281.8</ele>
        <time>2021-08-17T18:31:29Z</time>
      </trkpt>
      <trkpt lat="44.08374" lon="1.72118">
        <ele>282.28</ele>
        <time>2021-08-17T18:31:30Z</time>
      </trkpt>
      <trkpt lat="44.08373" lon="1.72116">
        <ele>282.28</ele>
        <time>2021-08-17T18:31:31Z</time>
      </trkpt>
      <trkpt lat="44.08372" lon="1.72115">
        <ele>282.28</ele>
        <time>2021-08-17T18:31:32Z</time>
      </trkpt>
      <trkpt lat="44.08371" lon="1.72113">
        <ele>282.77</ele>
        <time>2021-08-17T18:31:33Z</time>
      </trkpt>
      <trkpt lat="44.0837" lon="1.72111">
        <ele>282.77</ele>
        <time>2021-08-17T18:31:34Z</time>
      </trkpt>
      <trkpt lat="44.08369" lon="1.72109">
        <ele>282.77</ele>
        <time>2021-08-17T18:31:35Z</time>
      </trkpt>
      <trkpt lat="44.08369" lon="1.72107">
        <ele>283.25</ele>
        <time>2021-08-17T18:31:36Z</time>
      </trkpt>
      <trkpt lat="44.08368" lon="1.72105">
        <ele>283.25</ele>
        <time>2021-08-17T18:31:37Z</time>
      </trkpt>
      <trkpt lat="44.08367" lon="1.72103">
        <ele>283.25</ele>
        <time>2021-08-17T18:31:38Z</time>
      </trkpt>
      <trkpt lat="44.08366" lon="1.72101">
        <ele>283.73</ele>
        <time>2021-08-17T18:31:39Z</time>
      </trkpt>
      <trkpt lat="44.08365" lon="1.72099">
        <ele>283.73</ele>
        <time>2021-08-17T18:31:40Z</time>
      </trkpt>
      <trkpt lat="44.08364" lon="1.72097">
        <ele>283.73</ele>
        <time>2021-08-17T18:31:41Z</time>
      </trkpt>
      <trkpt lat="44.08364" lon="1.72095">
        <ele>283.73</ele>
        <time>2021-08-17T18:31:42Z</time>
      </trkpt>
      <trkpt lat="44.08363" lon="1.72093">
        <ele>283.73</ele>
        <time>2021-08-17T18:31:43Z</time>
      </trkpt>
      <trkpt lat="44.08356" lon="1.72075">
        <ele>285.17</ele>
        <time>2021-08-17T18:31:51Z</time>
      </trkpt>
      <trkpt lat="44.08346" lon="1.72045">
        <ele>285.17</ele>
        <time>2021-08-17T18:32:00Z</time>
      </trkpt>
      <trkpt lat="44.08341" lon="1.72024">
        <ele>285.17</ele>
        <time>2021-08-17T18:32:07Z</time>
      </trkpt>
      <trkpt lat="44.08337" lon="1.72008">
        <ele>285.17</ele>
        <time>2021-08-17T18:32:12Z</time>
      </trkpt>
      <trkpt lat="44.08337" lon="1.72005">
        <ele>285.17</ele>
        <time>2021-08-17T18:32:13Z</time>
      </trkpt>
      <trkpt lat="44.08336" lon="1.72001">
        <ele>285.17</ele>
        <time>2021-08-17T18:32:14Z</time>
      </trkpt>
      <trkpt lat="44.08336" lon="1.71998">
        <ele>285.17</ele>
        <time>2021-08-17T18:32:15Z</time>
      </trkpt>
      <trkpt lat="44.08336" lon="1.71994">
        <ele>285.17</ele>
        <time>2021-08-17T18:32:16Z</time>
      </trkpt>
      <trkpt lat="44.08334" lon="1.71965">
        <ele>283.73</ele>
        <time>2021-08-17T18:32:23Z</time>
      </trkpt>
      <trkpt lat="44.08325" lon="1.71914">
        <ele>281.32</ele>
        <time>2021-08-17T18:32:32Z</time>
      </trkpt>
      <trkpt lat="44.08318" lon="1.71849">
        <ele>279.4</ele>
        <time>2021-08-17T18:32:41Z</time>
      </trkpt>
      <trkpt lat="44.08313" lon="1.71823">
        <ele>278.92</ele>
        <time>2021-08-17T18:32:46Z</time>
      </trkpt>
      <trkpt lat="44.0829" lon="1.71791">
        <ele>276.04</ele>
        <time>2021-08-17T18:32:52Z</time>
      </trkpt>
      <trkpt lat="44.08259" lon="1.71743">
        <ele>274.11</ele>
        <time>2021-08-17T18:32:59Z</time>
      </trkpt>
      <trkpt lat="44.08256" lon="1.71737">
        <ele>274.11</ele>
        <time>2021-08-17T18:33:00Z</time>
      </trkpt>
      <trkpt lat="44.08241" lon="1.71701">
        <ele>275.56</ele>
        <time>2021-08-17T18:33:07Z</time>
      </trkpt>
      <trkpt lat="44.08223" lon="1.71674">
        <ele>276.04</ele>
        <time>2021-08-17T18:33:15Z</time>
      </trkpt>
      <trkpt lat="44.08217" lon="1.71667">
        <ele>276.52</ele>
        <time>2021-08-17T18:33:18Z</time>
      </trkpt>
      <trkpt lat="44.08216" lon="1.71665">
        <ele>276.52</ele>
        <time>2021-08-17T18:33:19Z</time>
      </trkpt>
      <trkpt lat="44.08214" lon="1.71663">
        <ele>277</ele>
        <time>2021-08-17T18:33:20Z</time>
      </trkpt>
      <trkpt lat="44.08212" lon="1.71661">
        <ele>277</ele>
        <time>2021-08-17T18:33:21Z</time>
      </trkpt>
      <trkpt lat="44.0821" lon="1.71659">
        <ele>277</ele>
        <time>2021-08-17T18:33:22Z</time>
      </trkpt>
      <trkpt lat="44.08208" lon="1.71656">
        <ele>277</ele>
        <time>2021-08-17T18:33:23Z</time>
      </trkpt>
      <trkpt lat="44.08197" lon="1.71631">
        <ele>277.96</ele>
        <time>2021-08-17T18:33:30Z</time>
      </trkpt>
      <trkpt lat="44.0819" lon="1.716">
        <ele>278.92</ele>
        <time>2021-08-17T18:33:38Z</time>
      </trkpt>
      <trkpt lat="44.08186" lon="1.71579">
        <ele>279.4</ele>
        <time>2021-08-17T18:33:44Z</time>
      </trkpt>
      <trkpt lat="44.08187" lon="1.71557">
        <ele>279.4</ele>
        <time>2021-08-17T18:33:49Z</time>
      </trkpt>
      <trkpt lat="44.08189" lon="1.71521">
        <ele>279.4</ele>
        <time>2021-08-17T18:33:55Z</time>
      </trkpt>
      <trkpt lat="44.08194" lon="1.71475">
        <ele>279.88</ele>
        <time>2021-08-17T18:34:03Z</time>
      </trkpt>
      <trkpt lat="44.08199" lon="1.71444">
        <ele>279.88</ele>
        <time>2021-08-17T18:34:10Z</time>
      </trkpt>
      <trkpt lat="44.08202" lon="1.7142">
        <ele>280.36</ele>
        <time>2021-08-17T18:34:16Z</time>
      </trkpt>
      <trkpt lat="44.08204" lon="1.71399">
        <ele>280.36</ele>
        <time>2021-08-17T18:34:22Z</time>
      </trkpt>
      <trkpt lat="44.08206" lon="1.71388">
        <ele>280.36</ele>
        <time>2021-08-17T18:34:25Z</time>
      </trkpt>
      <trkpt lat="44.08207" lon="1.71385">
        <ele>280.36</ele>
        <time>2021-08-17T18:34:26Z</time>
      </trkpt>
      <trkpt lat="44.08207" lon="1.71382">
        <ele>280.36</ele>
        <time>2021-08-17T18:34:27Z</time>
      </trkpt>
      <trkpt lat="44.08216" lon="1.71347">
        <ele>280.36</ele>
        <time>2021-08-17T18:34:35Z</time>
      </trkpt>
      <trkpt lat="44.08223" lon="1.71324">
        <ele>280.84</ele>
        <time>2021-08-17T18:34:41Z</time>
      </trkpt>
      <trkpt lat="44.08224" lon="1.71316">
        <ele>280.84</ele>
        <time>2021-08-17T18:34:43Z</time>
      </trkpt>
      <trkpt lat="44.08224" lon="1.71313">
        <ele>280.36</ele>
        <time>2021-08-17T18:34:44Z</time>
      </trkpt>
      <trkpt lat="44.08225" lon="1.71282">
        <ele>280.84</ele>
        <time>2021-08-17T18:34:51Z</time>
      </trkpt>
      <trkpt lat="44.0823" lon="1.71249">
        <ele>281.32</ele>
        <time>2021-08-17T18:34:59Z</time>
      </trkpt>
      <trkpt lat="44.0823" lon="1.71247">
        <ele>281.32</ele>
        <time>2021-08-17T18:35:05Z</time>
      </trkpt>
      <trkpt lat="44.08232" lon="1.71234">
        <ele>281.32</ele>
        <time>2021-08-17T18:35:13Z</time>
      </trkpt>
      <trkpt lat="44.08233" lon="1.71233">
        <ele>281.32</ele>
        <time>2021-08-17T18:35:14Z</time>
      </trkpt>
      <trkpt lat="44.08237" lon="1.71218">
        <ele>281.32</ele>
        <time>2021-08-17T18:35:24Z</time>
      </trkpt>
      <trkpt lat="44.08238" lon="1.71217">
        <ele>281.32</ele>
        <time>2021-08-17T18:35:25Z</time>
      </trkpt>
      <trkpt lat="44.08238" lon="1.71215">
        <ele>281.32</ele>
        <time>2021-08-17T18:35:26Z</time>
      </trkpt>
      <trkpt lat="44.08238" lon="1.71214">
        <ele>281.32</ele>
        <time>2021-08-17T18:35:27Z</time>
      </trkpt>
      <trkpt lat="44.08239" lon="1.71206">
        <ele>281.32</ele>
        <time>2021-08-17T18:35:32Z</time>
      </trkpt>
      <trkpt lat="44.0824" lon="1.71204">
        <ele>281.32</ele>
        <time>2021-08-17T18:35:33Z</time>
      </trkpt>
      <trkpt lat="44.08241" lon="1.71203">
        <ele>282.77</ele>
        <time>2021-08-17T18:35:34Z</time>
      </trkpt>
      <trkpt lat="44.08242" lon="1.71198">
        <ele>282.77</ele>
        <time>2021-08-17T18:35:37Z</time>
      </trkpt>
      <trkpt lat="44.08243" lon="1.71193">
        <ele>282.77</ele>
        <time>2021-08-17T18:35:40Z</time>
      </trkpt>
      <trkpt lat="44.08246" lon="1.71181">
        <ele>283.25</ele>
        <time>2021-08-17T18:35:47Z</time>
      </trkpt>
      <trkpt lat="44.0825" lon="1.71167">
        <ele>283.73</ele>
        <time>2021-08-17T18:35:55Z</time>
      </trkpt>
      <trkpt lat="44.08254" lon="1.7115">
        <ele>284.21</ele>
        <time>2021-08-17T18:36:05Z</time>
      </trkpt>
      <trkpt lat="44.08255" lon="1.71144">
        <ele>286.13</ele>
        <time>2021-08-17T18:36:09Z</time>
      </trkpt>
      <trkpt lat="44.08256" lon="1.71131">
        <ele>285.17</ele>
        <time>2021-08-17T18:36:17Z</time>
      </trkpt>
      <trkpt lat="44.0826" lon="1.71125">
        <ele>285.17</ele>
        <time>2021-08-17T18:36:25Z</time>
      </trkpt>
      <trkpt lat="44.0826" lon="1.71122">
        <ele>285.17</ele>
        <time>2021-08-17T18:36:27Z</time>
      </trkpt>
      <trkpt lat="44.08264" lon="1.71108">
        <ele>285.17</ele>
        <time>2021-08-17T18:36:33Z</time>
      </trkpt>
      <trkpt lat="44.08265" lon="1.71105">
        <ele>286.13</ele>
        <time>2021-08-17T18:36:34Z</time>
      </trkpt>
      <trkpt lat="44.08265" lon="1.71103">
        <ele>286.13</ele>
        <time>2021-08-17T18:36:35Z</time>
      </trkpt>
      <trkpt lat="44.08272" lon="1.71079">
        <ele>287.57</ele>
        <time>2021-08-17T18:36:44Z</time>
      </trkpt>
      <trkpt lat="44.08277" lon="1.71061">
        <ele>289.01</ele>
        <time>2021-08-17T18:36:52Z</time>
      </trkpt>
      <trkpt lat="44.08281" lon="1.71042">
        <ele>290.46</ele>
        <time>2021-08-17T18:37:01Z</time>
      </trkpt>
      <trkpt lat="44.08283" lon="1.71037">
        <ele>290.94</ele>
        <time>2021-08-17T18:37:04Z</time>
      </trkpt>
      <trkpt lat="44.08284" lon="1.71035">
        <ele>290.94</ele>
        <time>2021-08-17T18:37:05Z</time>
      </trkpt>
      <trkpt lat="44.08284" lon="1.71033">
        <ele>290.94</ele>
        <time>2021-08-17T18:37:06Z</time>
      </trkpt>
      <trkpt lat="44.08285" lon="1.71031">
        <ele>290.94</ele>
        <time>2021-08-17T18:37:07Z</time>
      </trkpt>
      <trkpt lat="44.08286" lon="1.71029">
        <ele>291.42</ele>
        <time>2021-08-17T18:37:08Z</time>
      </trkpt>
      <trkpt lat="44.08286" lon="1.71027">
        <ele>291.42</ele>
        <time>2021-08-17T18:37:09Z</time>
      </trkpt>
      <trkpt lat="44.08286" lon="1.71025">
        <ele>291.42</ele>
        <time>2021-08-17T18:37:10Z</time>
      </trkpt>
      <trkpt lat="44.08286" lon="1.71023">
        <ele>291.42</ele>
        <time>2021-08-17T18:37:11Z</time>
      </trkpt>
      <trkpt lat="44.08287" lon="1.71021">
        <ele>291.9</ele>
        <time>2021-08-17T18:37:12Z</time>
      </trkpt>
      <trkpt lat="44.08289" lon="1.71009">
        <ele>292.86</ele>
        <time>2021-08-17T18:37:18Z</time>
      </trkpt>
      <trkpt lat="44.08292" lon="1.70998">
        <ele>294.3</ele>
        <time>2021-08-17T18:37:24Z</time>
      </trkpt>
      <trkpt lat="44.08297" lon="1.70986">
        <ele>294.78</ele>
        <time>2021-08-17T18:37:30Z</time>
      </trkpt>
      <trkpt lat="44.08298" lon="1.70979">
        <ele>295.26</ele>
        <time>2021-08-17T18:37:33Z</time>
      </trkpt>
      <trkpt lat="44.08303" lon="1.70961">
        <ele>296.7</ele>
        <time>2021-08-17T18:37:43Z</time>
      </trkpt>
      <trkpt lat="44.08309" lon="1.70944">
        <ele>298.15</ele>
        <time>2021-08-17T18:37:53Z</time>
      </trkpt>
      <trkpt lat="44.08312" lon="1.70926">
        <ele>299.59</ele>
        <time>2021-08-17T18:38:02Z</time>
      </trkpt>
      <trkpt lat="44.08315" lon="1.70909">
        <ele>300.07</ele>
        <time>2021-08-17T18:38:10Z</time>
      </trkpt>
      <trkpt lat="44.08316" lon="1.70892">
        <ele>301.03</ele>
        <time>2021-08-17T18:38:17Z</time>
      </trkpt>
      <trkpt lat="44.08322" lon="1.7087">
        <ele>301.03</ele>
        <time>2021-08-17T18:38:25Z</time>
      </trkpt>
      <trkpt lat="44.0833" lon="1.70848">
        <ele>301.03</ele>
        <time>2021-08-17T18:38:31Z</time>
      </trkpt>
      <trkpt lat="44.08344" lon="1.70823">
        <ele>301.51</ele>
        <time>2021-08-17T18:38:38Z</time>
      </trkpt>
      <trkpt lat="44.08359" lon="1.70796">
        <ele>301.51</ele>
        <time>2021-08-17T18:38:45Z</time>
      </trkpt>
      <trkpt lat="44.08372" lon="1.70762">
        <ele>301.51</ele>
        <time>2021-08-17T18:38:52Z</time>
      </trkpt>
      <trkpt lat="44.08381" lon="1.70722">
        <ele>301.99</ele>
        <time>2021-08-17T18:38:59Z</time>
      </trkpt>
      <trkpt lat="44.0838" lon="1.7071">
        <ele>301.99</ele>
        <time>2021-08-17T18:39:01Z</time>
      </trkpt>
      <trkpt lat="44.08379" lon="1.70684">
        <ele>301.99</ele>
        <time>2021-08-17T18:39:05Z</time>
      </trkpt>
      <trkpt lat="44.08379" lon="1.70678">
        <ele>301.99</ele>
        <time>2021-08-17T18:39:06Z</time>
      </trkpt>
      <trkpt lat="44.08378" lon="1.70672">
        <ele>301.99</ele>
        <time>2021-08-17T18:39:07Z</time>
      </trkpt>
      <trkpt lat="44.08373" lon="1.70648">
        <ele>301.99</ele>
        <time>2021-08-17T18:39:11Z</time>
      </trkpt>
      <trkpt lat="44.08372" lon="1.70616">
        <ele>302.47</ele>
        <time>2021-08-17T18:39:17Z</time>
      </trkpt>
      <trkpt lat="44.08373" lon="1.70583">
        <ele>302.95</ele>
        <time>2021-08-17T18:39:23Z</time>
      </trkpt>
      <trkpt lat="44.08372" lon="1.70577">
        <ele>302.95</ele>
        <time>2021-08-17T18:39:24Z</time>
      </trkpt>
      <trkpt lat="44.08372" lon="1.70571">
        <ele>302.95</ele>
        <time>2021-08-17T18:39:25Z</time>
      </trkpt>
      <trkpt lat="44.08372" lon="1.70565">
        <ele>302.95</ele>
        <time>2021-08-17T18:39:26Z</time>
      </trkpt>
      <trkpt lat="44.08373" lon="1.70558">
        <ele>302.95</ele>
        <time>2021-08-17T18:39:27Z</time>
      </trkpt>
      <trkpt lat="44.08373" lon="1.70552">
        <ele>302.95</ele>
        <time>2021-08-17T18:39:28Z</time>
      </trkpt>
      <trkpt lat="44.08373" lon="1.70546">
        <ele>302.95</ele>
        <time>2021-08-17T18:39:29Z</time>
      </trkpt>
      <trkpt lat="44.08373" lon="1.70541">
        <ele>302.95</ele>
        <time>2021-08-17T18:39:30Z</time>
      </trkpt>
      <trkpt lat="44.08373" lon="1.70535">
        <ele>302.95</ele>
        <time>2021-08-17T18:39:31Z</time>
      </trkpt>
      <trkpt lat="44.08372" lon="1.70529">
        <ele>302.95</ele>
        <time>2021-08-17T18:39:32Z</time>
      </trkpt>
      <trkpt lat="44.08373" lon="1.70508">
        <ele>301.51</ele>
        <time>2021-08-17T18:39:35Z</time>
      </trkpt>
      <trkpt lat="44.08374" lon="1.70501">
        <ele>301.51</ele>
        <time>2021-08-17T18:39:36Z</time>
      </trkpt>
      <trkpt lat="44.08376" lon="1.70494">
        <ele>301.03</ele>
        <time>2021-08-17T18:39:37Z</time>
      </trkpt>
      <trkpt lat="44.08376" lon="1.70487">
        <ele>300.55</ele>
        <time>2021-08-17T18:39:38Z</time>
      </trkpt>
      <trkpt lat="44.08377" lon="1.70479">
        <ele>300.55</ele>
        <time>2021-08-17T18:39:39Z</time>
      </trkpt>
      <trkpt lat="44.08377" lon="1.70471">
        <ele>300.55</ele>
        <time>2021-08-17T18:39:40Z</time>
      </trkpt>
      <trkpt lat="44.08377" lon="1.70464">
        <ele>300.55</ele>
        <time>2021-08-17T18:39:41Z</time>
      </trkpt>
      <trkpt lat="44.08377" lon="1.70457">
        <ele>300.07</ele>
        <time>2021-08-17T18:39:42Z</time>
      </trkpt>
      <trkpt lat="44.08379" lon="1.70417">
        <ele>298.63</ele>
        <time>2021-08-17T18:39:47Z</time>
      </trkpt>
      <trkpt lat="44.08379" lon="1.70386">
        <ele>296.7</ele>
        <time>2021-08-17T18:39:51Z</time>
      </trkpt>
      <trkpt lat="44.08379" lon="1.70361">
        <ele>295.26</ele>
        <time>2021-08-17T18:39:54Z</time>
      </trkpt>
      <trkpt lat="44.08377" lon="1.70337">
        <ele>293.34</ele>
        <time>2021-08-17T18:39:57Z</time>
      </trkpt>
      <trkpt lat="44.08378" lon="1.70327">
        <ele>292.86</ele>
        <time>2021-08-17T18:39:58Z</time>
      </trkpt>
      <trkpt lat="44.08379" lon="1.70311">
        <ele>291.42</ele>
        <time>2021-08-17T18:40:00Z</time>
      </trkpt>
      <trkpt lat="44.08383" lon="1.70264">
        <ele>288.05</ele>
        <time>2021-08-17T18:40:05Z</time>
      </trkpt>
      <trkpt lat="44.08383" lon="1.70255">
        <ele>288.05</ele>
        <time>2021-08-17T18:40:06Z</time>
      </trkpt>
      <trkpt lat="44.08384" lon="1.70248">
        <ele>287.09</ele>
        <time>2021-08-17T18:40:07Z</time>
      </trkpt>
      <trkpt lat="44.08385" lon="1.70241">
        <ele>287.09</ele>
        <time>2021-08-17T18:40:08Z</time>
      </trkpt>
      <trkpt lat="44.08386" lon="1.70233">
        <ele>286.61</ele>
        <time>2021-08-17T18:40:09Z</time>
      </trkpt>
      <trkpt lat="44.08386" lon="1.70226">
        <ele>285.17</ele>
        <time>2021-08-17T18:40:10Z</time>
      </trkpt>
      <trkpt lat="44.08387" lon="1.70218">
        <ele>285.17</ele>
        <time>2021-08-17T18:40:11Z</time>
      </trkpt>
      <trkpt lat="44.08387" lon="1.70197">
        <ele>283.25</ele>
        <time>2021-08-17T18:40:14Z</time>
      </trkpt>
      <trkpt lat="44.08386" lon="1.70185">
        <ele>281.8</ele>
        <time>2021-08-17T18:40:16Z</time>
      </trkpt>
      <trkpt lat="44.08386" lon="1.70173">
        <ele>280.36</ele>
        <time>2021-08-17T18:40:18Z</time>
      </trkpt>
      <trkpt lat="44.08385" lon="1.70166">
        <ele>279.4</ele>
        <time>2021-08-17T18:40:19Z</time>
      </trkpt>
      <trkpt lat="44.08384" lon="1.70154">
        <ele>277.96</ele>
        <time>2021-08-17T18:40:21Z</time>
      </trkpt>
      <trkpt lat="44.08383" lon="1.70147">
        <ele>277.48</ele>
        <time>2021-08-17T18:40:22Z</time>
      </trkpt>
      <trkpt lat="44.08381" lon="1.70141">
        <ele>276.52</ele>
        <time>2021-08-17T18:40:23Z</time>
      </trkpt>
      <trkpt lat="44.08379" lon="1.70133">
        <ele>275.07</ele>
        <time>2021-08-17T18:40:24Z</time>
      </trkpt>
      <trkpt lat="44.08378" lon="1.70126">
        <ele>274.11</ele>
        <time>2021-08-17T18:40:25Z</time>
      </trkpt>
      <trkpt lat="44.08377" lon="1.70119">
        <ele>273.63</ele>
        <time>2021-08-17T18:40:26Z</time>
      </trkpt>
      <trkpt lat="44.08375" lon="1.70113">
        <ele>273.15</ele>
        <time>2021-08-17T18:40:27Z</time>
      </trkpt>
      <trkpt lat="44.08372" lon="1.70096">
        <ele>272.19</ele>
        <time>2021-08-17T18:40:30Z</time>
      </trkpt>
      <trkpt lat="44.08372" lon="1.7009">
        <ele>270.75</ele>
        <time>2021-08-17T18:40:31Z</time>
      </trkpt>
      <trkpt lat="44.08366" lon="1.70057">
        <ele>268.35</ele>
        <time>2021-08-17T18:40:37Z</time>
      </trkpt>
      <trkpt lat="44.08364" lon="1.70051">
        <ele>267.86</ele>
        <time>2021-08-17T18:40:38Z</time>
      </trkpt>
      <trkpt lat="44.08362" lon="1.70045">
        <ele>266.9</ele>
        <time>2021-08-17T18:40:39Z</time>
      </trkpt>
      <trkpt lat="44.08354" lon="1.7002">
        <ele>264.5</ele>
        <time>2021-08-17T18:40:43Z</time>
      </trkpt>
      <trkpt lat="44.08351" lon="1.70015">
        <ele>263.54</ele>
        <time>2021-08-17T18:40:44Z</time>
      </trkpt>
      <trkpt lat="44.08344" lon="1.70004">
        <ele>262.1</ele>
        <time>2021-08-17T18:40:46Z</time>
      </trkpt>
      <trkpt lat="44.08342" lon="1.69997">
        <ele>262.1</ele>
        <time>2021-08-17T18:40:47Z</time>
      </trkpt>
      <trkpt lat="44.08341" lon="1.69991">
        <ele>261.62</ele>
        <time>2021-08-17T18:40:48Z</time>
      </trkpt>
      <trkpt lat="44.0834" lon="1.69984">
        <ele>260.65</ele>
        <time>2021-08-17T18:40:49Z</time>
      </trkpt>
      <trkpt lat="44.08339" lon="1.69977">
        <ele>260.17</ele>
        <time>2021-08-17T18:40:50Z</time>
      </trkpt>
      <trkpt lat="44.08338" lon="1.6997">
        <ele>259.69</ele>
        <time>2021-08-17T18:40:51Z</time>
      </trkpt>
      <trkpt lat="44.08338" lon="1.69963">
        <ele>259.21</ele>
        <time>2021-08-17T18:40:52Z</time>
      </trkpt>
      <trkpt lat="44.08335" lon="1.69938">
        <ele>256.81</ele>
        <time>2021-08-17T18:40:57Z</time>
      </trkpt>
      <trkpt lat="44.08335" lon="1.69932">
        <ele>256.33</ele>
        <time>2021-08-17T18:40:58Z</time>
      </trkpt>
      <trkpt lat="44.08335" lon="1.69926">
        <ele>255.85</ele>
        <time>2021-08-17T18:40:59Z</time>
      </trkpt>
      <trkpt lat="44.08334" lon="1.6992">
        <ele>254.89</ele>
        <time>2021-08-17T18:41:00Z</time>
      </trkpt>
      <trkpt lat="44.08332" lon="1.69915">
        <ele>254.89</ele>
        <time>2021-08-17T18:41:01Z</time>
      </trkpt>
      <trkpt lat="44.08332" lon="1.69909">
        <ele>253.93</ele>
        <time>2021-08-17T18:41:02Z</time>
      </trkpt>
      <trkpt lat="44.08332" lon="1.69902">
        <ele>252.96</ele>
        <time>2021-08-17T18:41:03Z</time>
      </trkpt>
      <trkpt lat="44.08333" lon="1.69895">
        <ele>252.48</ele>
        <time>2021-08-17T18:41:04Z</time>
      </trkpt>
      <trkpt lat="44.08335" lon="1.69889">
        <ele>252</ele>
        <time>2021-08-17T18:41:05Z</time>
      </trkpt>
      <trkpt lat="44.08337" lon="1.69881">
        <ele>251.52</ele>
        <time>2021-08-17T18:41:06Z</time>
      </trkpt>
      <trkpt lat="44.08338" lon="1.69874">
        <ele>251.52</ele>
        <time>2021-08-17T18:41:07Z</time>
      </trkpt>
      <trkpt lat="44.08339" lon="1.69866">
        <ele>252</ele>
        <time>2021-08-17T18:41:08Z</time>
      </trkpt>
      <trkpt lat="44.08342" lon="1.69826">
        <ele>252.96</ele>
        <time>2021-08-17T18:41:14Z</time>
      </trkpt>
      <trkpt lat="44.08341" lon="1.69822">
        <ele>252.96</ele>
        <time>2021-08-17T18:41:15Z</time>
      </trkpt>
      <trkpt lat="44.08339" lon="1.69819">
        <ele>253.44</ele>
        <time>2021-08-17T18:41:16Z</time>
      </trkpt>
      <trkpt lat="44.08338" lon="1.69816">
        <ele>253.44</ele>
        <time>2021-08-17T18:41:17Z</time>
      </trkpt>
      <trkpt lat="44.08338" lon="1.69814">
        <ele>253.93</ele>
        <time>2021-08-17T18:41:18Z</time>
      </trkpt>
      <trkpt lat="44.08338" lon="1.69811">
        <ele>253.93</ele>
        <time>2021-08-17T18:41:19Z</time>
      </trkpt>
      <trkpt lat="44.08337" lon="1.69809">
        <ele>254.41</ele>
        <time>2021-08-17T18:41:20Z</time>
      </trkpt>
      <trkpt lat="44.08337" lon="1.69807">
        <ele>254.41</ele>
        <time>2021-08-17T18:41:21Z</time>
      </trkpt>
      <trkpt lat="44.08336" lon="1.69805">
        <ele>254.89</ele>
        <time>2021-08-17T18:41:22Z</time>
      </trkpt>
      <trkpt lat="44.08335" lon="1.69802">
        <ele>254.89</ele>
        <time>2021-08-17T18:41:23Z</time>
      </trkpt>
      <trkpt lat="44.08334" lon="1.698">
        <ele>255.37</ele>
        <time>2021-08-17T18:41:24Z</time>
      </trkpt>
      <trkpt lat="44.08334" lon="1.69783">
        <ele>255.85</ele>
        <time>2021-08-17T18:41:30Z</time>
      </trkpt>
      <trkpt lat="44.0834" lon="1.69757">
        <ele>257.29</ele>
        <time>2021-08-17T18:41:39Z</time>
      </trkpt>
      <trkpt lat="44.08346" lon="1.69731">
        <ele>258.25</ele>
        <time>2021-08-17T18:41:48Z</time>
      </trkpt>
      <trkpt lat="44.08362" lon="1.69699">
        <ele>259.69</ele>
        <time>2021-08-17T18:42:00Z</time>
      </trkpt>
      <trkpt lat="44.08376" lon="1.69675">
        <ele>260.65</ele>
        <time>2021-08-17T18:42:07Z</time>
      </trkpt>
      <trkpt lat="44.08393" lon="1.69634">
        <ele>261.14</ele>
        <time>2021-08-17T18:42:18Z</time>
      </trkpt>
      <trkpt lat="44.08407" lon="1.69603">
        <ele>261.62</ele>
        <time>2021-08-17T18:42:26Z</time>
      </trkpt>
      <trkpt lat="44.08421" lon="1.69584">
        <ele>263.06</ele>
        <time>2021-08-17T18:42:34Z</time>
      </trkpt>
      <trkpt lat="44.0843" lon="1.6957">
        <ele>264.02</ele>
        <time>2021-08-17T18:42:43Z</time>
      </trkpt>
      <trkpt lat="44.08443" lon="1.69556">
        <ele>265.94</ele>
        <time>2021-08-17T18:42:53Z</time>
      </trkpt>
      <trkpt lat="44.08453" lon="1.69543">
        <ele>267.38</ele>
        <time>2021-08-17T18:43:02Z</time>
      </trkpt>
      <trkpt lat="44.08454" lon="1.69533">
        <ele>268.35</ele>
        <time>2021-08-17T18:43:06Z</time>
      </trkpt>
      <trkpt lat="44.08453" lon="1.69531">
        <ele>268.35</ele>
        <time>2021-08-17T18:43:07Z</time>
      </trkpt>
      <trkpt lat="44.08452" lon="1.69528">
        <ele>268.35</ele>
        <time>2021-08-17T18:43:08Z</time>
      </trkpt>
      <trkpt lat="44.0844" lon="1.69509">
        <ele>268.35</ele>
        <time>2021-08-17T18:43:15Z</time>
      </trkpt>
      <trkpt lat="44.08422" lon="1.6948">
        <ele>269.31</ele>
        <time>2021-08-17T18:43:25Z</time>
      </trkpt>
      <trkpt lat="44.08412" lon="1.69451">
        <ele>271.23</ele>
        <time>2021-08-17T18:43:35Z</time>
      </trkpt>
      <trkpt lat="44.084" lon="1.69423">
        <ele>273.15</ele>
        <time>2021-08-17T18:43:45Z</time>
      </trkpt>
      <trkpt lat="44.08387" lon="1.69398">
        <ele>274.59</ele>
        <time>2021-08-17T18:43:54Z</time>
      </trkpt>
      <trkpt lat="44.08372" lon="1.69376">
        <ele>275.56</ele>
        <time>2021-08-17T18:44:03Z</time>
      </trkpt>
      <trkpt lat="44.08368" lon="1.69354">
        <ele>276.52</ele>
        <time>2021-08-17T18:44:10Z</time>
      </trkpt>
      <trkpt lat="44.08372" lon="1.69317">
        <ele>276.52</ele>
        <time>2021-08-17T18:44:19Z</time>
      </trkpt>
      <trkpt lat="44.08378" lon="1.69272">
        <ele>276.52</ele>
        <time>2021-08-17T18:44:28Z</time>
      </trkpt>
      <trkpt lat="44.08385" lon="1.69226">
        <ele>275.07</ele>
        <time>2021-08-17T18:44:36Z</time>
      </trkpt>
      <trkpt lat="44.08387" lon="1.69214">
        <ele>274.59</ele>
        <time>2021-08-17T18:44:38Z</time>
      </trkpt>
      <trkpt lat="44.08396" lon="1.69172">
        <ele>273.63</ele>
        <time>2021-08-17T18:44:44Z</time>
      </trkpt>
      <trkpt lat="44.08398" lon="1.69141">
        <ele>272.67</ele>
        <time>2021-08-17T18:44:48Z</time>
      </trkpt>
      <trkpt lat="44.08396" lon="1.69098">
        <ele>271.23</ele>
        <time>2021-08-17T18:44:53Z</time>
      </trkpt>
      <trkpt lat="44.08398" lon="1.6907">
        <ele>270.27</ele>
        <time>2021-08-17T18:44:56Z</time>
      </trkpt>
      <trkpt lat="44.08401" lon="1.69062">
        <ele>270.27</ele>
        <time>2021-08-17T18:44:57Z</time>
      </trkpt>
      <trkpt lat="44.08404" lon="1.69054">
        <ele>270.27</ele>
        <time>2021-08-17T18:44:58Z</time>
      </trkpt>
      <trkpt lat="44.08414" lon="1.69014">
        <ele>270.27</ele>
        <time>2021-08-17T18:45:04Z</time>
      </trkpt>
      <trkpt lat="44.08416" lon="1.69005">
        <ele>271.71</ele>
        <time>2021-08-17T18:45:06Z</time>
      </trkpt>
      <trkpt lat="44.08419" lon="1.68986">
        <ele>272.19</ele>
        <time>2021-08-17T18:45:10Z</time>
      </trkpt>
      <trkpt lat="44.08417" lon="1.68983">
        <ele>272.19</ele>
        <time>2021-08-17T18:45:11Z</time>
      </trkpt>
      <trkpt lat="44.08415" lon="1.68981">
        <ele>272.19</ele>
        <time>2021-08-17T18:45:12Z</time>
      </trkpt>
      <trkpt lat="44.08412" lon="1.6898">
        <ele>272.19</ele>
        <time>2021-08-17T18:45:13Z</time>
      </trkpt>
      <trkpt lat="44.08409" lon="1.68977">
        <ele>272.19</ele>
        <time>2021-08-17T18:45:14Z</time>
      </trkpt>
      <trkpt lat="44.08407" lon="1.68975">
        <ele>272.19</ele>
        <time>2021-08-17T18:45:15Z</time>
      </trkpt>
      <trkpt lat="44.08404" lon="1.68972">
        <ele>272.19</ele>
        <time>2021-08-17T18:45:16Z</time>
      </trkpt>
      <trkpt lat="44.08382" lon="1.68954">
        <ele>270.27</ele>
        <time>2021-08-17T18:45:23Z</time>
      </trkpt>
      <trkpt lat="44.08371" lon="1.68946">
        <ele>270.27</ele>
        <time>2021-08-17T18:45:26Z</time>
      </trkpt>
      <trkpt lat="44.08344" lon="1.68933">
        <ele>269.79</ele>
        <time>2021-08-17T18:45:33Z</time>
      </trkpt>
      <trkpt lat="44.0834" lon="1.6893">
        <ele>269.31</ele>
        <time>2021-08-17T18:45:34Z</time>
      </trkpt>
      <trkpt lat="44.08336" lon="1.68928">
        <ele>269.31</ele>
        <time>2021-08-17T18:45:35Z</time>
      </trkpt>
      <trkpt lat="44.08313" lon="1.68916">
        <ele>268.83</ele>
        <time>2021-08-17T18:45:41Z</time>
      </trkpt>
      <trkpt lat="44.08294" lon="1.68903">
        <ele>268.83</ele>
        <time>2021-08-17T18:45:46Z</time>
      </trkpt>
      <trkpt lat="44.08289" lon="1.68902">
        <ele>268.83</ele>
        <time>2021-08-17T18:45:47Z</time>
      </trkpt>
      <trkpt lat="44.0828" lon="1.68898">
        <ele>268.83</ele>
        <time>2021-08-17T18:45:49Z</time>
      </trkpt>
      <trkpt lat="44.08275" lon="1.68896">
        <ele>268.83</ele>
        <time>2021-08-17T18:45:50Z</time>
      </trkpt>
      <trkpt lat="44.08245" lon="1.68873">
        <ele>268.35</ele>
        <time>2021-08-17T18:45:57Z</time>
      </trkpt>
      <trkpt lat="44.08221" lon="1.68861">
        <ele>268.35</ele>
        <time>2021-08-17T18:46:02Z</time>
      </trkpt>
      <trkpt lat="44.08209" lon="1.68853">
        <ele>268.35</ele>
        <time>2021-08-17T18:46:05Z</time>
      </trkpt>
      <trkpt lat="44.08205" lon="1.6885">
        <ele>269.79</ele>
        <time>2021-08-17T18:46:06Z</time>
      </trkpt>
      <trkpt lat="44.08202" lon="1.68847">
        <ele>270.27</ele>
        <time>2021-08-17T18:46:07Z</time>
      </trkpt>
      <trkpt lat="44.08186" lon="1.68839">
        <ele>271.23</ele>
        <time>2021-08-17T18:46:12Z</time>
      </trkpt>
      <trkpt lat="44.08158" lon="1.68825">
        <ele>271.23</ele>
        <time>2021-08-17T18:46:20Z</time>
      </trkpt>
      <trkpt lat="44.08154" lon="1.68823">
        <ele>271.23</ele>
        <time>2021-08-17T18:46:21Z</time>
      </trkpt>
      <trkpt lat="44.08131" lon="1.68812">
        <ele>271.23</ele>
        <time>2021-08-17T18:46:26Z</time>
      </trkpt>
      <trkpt lat="44.08096" lon="1.68797">
        <ele>271.23</ele>
        <time>2021-08-17T18:46:34Z</time>
      </trkpt>
      <trkpt lat="44.0807" lon="1.68793">
        <ele>269.79</ele>
        <time>2021-08-17T18:46:41Z</time>
      </trkpt>
      <trkpt lat="44.08046" lon="1.68786">
        <ele>269.31</ele>
        <time>2021-08-17T18:46:47Z</time>
      </trkpt>
      <trkpt lat="44.08018" lon="1.68772">
        <ele>268.35</ele>
        <time>2021-08-17T18:46:54Z</time>
      </trkpt>
      <trkpt lat="44.0801" lon="1.68768">
        <ele>267.86</ele>
        <time>2021-08-17T18:46:56Z</time>
      </trkpt>
      <trkpt lat="44.07996" lon="1.68759">
        <ele>266.42</ele>
        <time>2021-08-17T18:46:59Z</time>
      </trkpt>
      <trkpt lat="44.07959" lon="1.68736">
        <ele>266.42</ele>
        <time>2021-08-17T18:47:07Z</time>
      </trkpt>
      <trkpt lat="44.07939" lon="1.68725">
        <ele>266.42</ele>
        <time>2021-08-17T18:47:11Z</time>
      </trkpt>
      <trkpt lat="44.07935" lon="1.68721">
        <ele>266.42</ele>
        <time>2021-08-17T18:47:12Z</time>
      </trkpt>
      <trkpt lat="44.07909" lon="1.68694">
        <ele>264.98</ele>
        <time>2021-08-17T18:47:18Z</time>
      </trkpt>
      <trkpt lat="44.07874" lon="1.68656">
        <ele>264.02</ele>
        <time>2021-08-17T18:47:26Z</time>
      </trkpt>
      <trkpt lat="44.07869" lon="1.68651">
        <ele>263.54</ele>
        <time>2021-08-17T18:47:27Z</time>
      </trkpt>
      <trkpt lat="44.07864" lon="1.68646">
        <ele>263.54</ele>
        <time>2021-08-17T18:47:28Z</time>
      </trkpt>
      <trkpt lat="44.0786" lon="1.68641">
        <ele>263.06</ele>
        <time>2021-08-17T18:47:29Z</time>
      </trkpt>
      <trkpt lat="44.07825" lon="1.68618">
        <ele>262.1</ele>
        <time>2021-08-17T18:47:36Z</time>
      </trkpt>
      <trkpt lat="44.07793" lon="1.68604">
        <ele>261.62</ele>
        <time>2021-08-17T18:47:42Z</time>
      </trkpt>
      <trkpt lat="44.07782" lon="1.68598">
        <ele>260.65</ele>
        <time>2021-08-17T18:47:44Z</time>
      </trkpt>
      <trkpt lat="44.07776" lon="1.68595">
        <ele>260.65</ele>
        <time>2021-08-17T18:47:45Z</time>
      </trkpt>
      <trkpt lat="44.07771" lon="1.68592">
        <ele>260.65</ele>
        <time>2021-08-17T18:47:46Z</time>
      </trkpt>
      <trkpt lat="44.07754" lon="1.68582">
        <ele>259.21</ele>
        <time>2021-08-17T18:47:49Z</time>
      </trkpt>
      <trkpt lat="44.07748" lon="1.68577">
        <ele>259.21</ele>
        <time>2021-08-17T18:47:50Z</time>
      </trkpt>
      <trkpt lat="44.07744" lon="1.68573">
        <ele>258.25</ele>
        <time>2021-08-17T18:47:51Z</time>
      </trkpt>
      <trkpt lat="44.07703" lon="1.68528">
        <ele>256.81</ele>
        <time>2021-08-17T18:48:00Z</time>
      </trkpt>
      <trkpt lat="44.07698" lon="1.68525">
        <ele>256.33</ele>
        <time>2021-08-17T18:48:01Z</time>
      </trkpt>
      <trkpt lat="44.07692" lon="1.68522">
        <ele>256.33</ele>
        <time>2021-08-17T18:48:02Z</time>
      </trkpt>
      <trkpt lat="44.07686" lon="1.68518">
        <ele>255.85</ele>
        <time>2021-08-17T18:48:03Z</time>
      </trkpt>
      <trkpt lat="44.0768" lon="1.68512">
        <ele>254.89</ele>
        <time>2021-08-17T18:48:04Z</time>
      </trkpt>
      <trkpt lat="44.07675" lon="1.68508">
        <ele>254.89</ele>
        <time>2021-08-17T18:48:05Z</time>
      </trkpt>
      <trkpt lat="44.07639" lon="1.68481">
        <ele>254.89</ele>
        <time>2021-08-17T18:48:12Z</time>
      </trkpt>
      <trkpt lat="44.07612" lon="1.68458">
        <ele>254.41</ele>
        <time>2021-08-17T18:48:18Z</time>
      </trkpt>
      <trkpt lat="44.07574" lon="1.68416">
        <ele>253.44</ele>
        <time>2021-08-17T18:48:26Z</time>
      </trkpt>
      <trkpt lat="44.07545" lon="1.6839">
        <ele>252</ele>
        <time>2021-08-17T18:48:31Z</time>
      </trkpt>
      <trkpt lat="44.07511" lon="1.68354">
        <ele>249.12</ele>
        <time>2021-08-17T18:48:37Z</time>
      </trkpt>
      <trkpt lat="44.07505" lon="1.68348">
        <ele>249.12</ele>
        <time>2021-08-17T18:48:38Z</time>
      </trkpt>
      <trkpt lat="44.07487" lon="1.68326">
        <ele>247.68</ele>
        <time>2021-08-17T18:48:41Z</time>
      </trkpt>
      <trkpt lat="44.07447" lon="1.68258">
        <ele>246.23</ele>
        <time>2021-08-17T18:48:49Z</time>
      </trkpt>
      <trkpt lat="44.07421" lon="1.68213">
        <ele>245.75</ele>
        <time>2021-08-17T18:48:55Z</time>
      </trkpt>
      <trkpt lat="44.07408" lon="1.68188">
        <ele>245.75</ele>
        <time>2021-08-17T18:48:59Z</time>
      </trkpt>
      <trkpt lat="44.07404" lon="1.68183">
        <ele>245.75</ele>
        <time>2021-08-17T18:49:00Z</time>
      </trkpt>
      <trkpt lat="44.07401" lon="1.68178">
        <ele>245.75</ele>
        <time>2021-08-17T18:49:01Z</time>
      </trkpt>
      <trkpt lat="44.07398" lon="1.68173">
        <ele>245.75</ele>
        <time>2021-08-17T18:49:02Z</time>
      </trkpt>
      <trkpt lat="44.07394" lon="1.68168">
        <ele>245.75</ele>
        <time>2021-08-17T18:49:03Z</time>
      </trkpt>
      <trkpt lat="44.07378" lon="1.68143">
        <ele>245.75</ele>
        <time>2021-08-17T18:49:08Z</time>
      </trkpt>
      <trkpt lat="44.07375" lon="1.68138">
        <ele>245.75</ele>
        <time>2021-08-17T18:49:09Z</time>
      </trkpt>
      <trkpt lat="44.07372" lon="1.68132">
        <ele>245.75</ele>
        <time>2021-08-17T18:49:10Z</time>
      </trkpt>
      <trkpt lat="44.0737" lon="1.68125">
        <ele>245.75</ele>
        <time>2021-08-17T18:49:11Z</time>
      </trkpt>
      <trkpt lat="44.07368" lon="1.68119">
        <ele>247.2</ele>
        <time>2021-08-17T18:49:12Z</time>
      </trkpt>
      <trkpt lat="44.07365" lon="1.68115">
        <ele>247.2</ele>
        <time>2021-08-17T18:49:13Z</time>
      </trkpt>
      <trkpt lat="44.07362" lon="1.68112">
        <ele>247.2</ele>
        <time>2021-08-17T18:49:14Z</time>
      </trkpt>
      <trkpt lat="44.07359" lon="1.6811">
        <ele>247.2</ele>
        <time>2021-08-17T18:49:15Z</time>
      </trkpt>
      <trkpt lat="44.07355" lon="1.68107">
        <ele>247.2</ele>
        <time>2021-08-17T18:49:16Z</time>
      </trkpt>
      <trkpt lat="44.07352" lon="1.68103">
        <ele>247.2</ele>
        <time>2021-08-17T18:49:17Z</time>
      </trkpt>
      <trkpt lat="44.07348" lon="1.68098">
        <ele>247.2</ele>
        <time>2021-08-17T18:49:18Z</time>
      </trkpt>
      <trkpt lat="44.07345" lon="1.68094">
        <ele>247.2</ele>
        <time>2021-08-17T18:49:19Z</time>
      </trkpt>
      <trkpt lat="44.07341" lon="1.6809">
        <ele>247.2</ele>
        <time>2021-08-17T18:49:20Z</time>
      </trkpt>
      <trkpt lat="44.07319" lon="1.68066">
        <ele>246.72</ele>
        <time>2021-08-17T18:49:26Z</time>
      </trkpt>
      <trkpt lat="44.07315" lon="1.68064">
        <ele>246.72</ele>
        <time>2021-08-17T18:49:27Z</time>
      </trkpt>
      <trkpt lat="44.07312" lon="1.68063">
        <ele>246.72</ele>
        <time>2021-08-17T18:49:28Z</time>
      </trkpt>
      <trkpt lat="44.07303" lon="1.68061">
        <ele>244.79</ele>
        <time>2021-08-17T18:49:30Z</time>
      </trkpt>
      <trkpt lat="44.07298" lon="1.68057">
        <ele>244.79</ele>
        <time>2021-08-17T18:49:31Z</time>
      </trkpt>
      <trkpt lat="44.07295" lon="1.68053">
        <ele>244.79</ele>
        <time>2021-08-17T18:49:32Z</time>
      </trkpt>
      <trkpt lat="44.07292" lon="1.68049">
        <ele>244.79</ele>
        <time>2021-08-17T18:49:33Z</time>
      </trkpt>
      <trkpt lat="44.07289" lon="1.68045">
        <ele>244.79</ele>
        <time>2021-08-17T18:49:34Z</time>
      </trkpt>
      <trkpt lat="44.07287" lon="1.68041">
        <ele>244.79</ele>
        <time>2021-08-17T18:49:35Z</time>
      </trkpt>
      <trkpt lat="44.07268" lon="1.68017">
        <ele>244.79</ele>
        <time>2021-08-17T18:49:41Z</time>
      </trkpt>
      <trkpt lat="44.07264" lon="1.68013">
        <ele>244.79</ele>
        <time>2021-08-17T18:49:42Z</time>
      </trkpt>
      <trkpt lat="44.07262" lon="1.68008">
        <ele>244.79</ele>
        <time>2021-08-17T18:49:43Z</time>
      </trkpt>
      <trkpt lat="44.07259" lon="1.68003">
        <ele>244.79</ele>
        <time>2021-08-17T18:49:44Z</time>
      </trkpt>
      <trkpt lat="44.07257" lon="1.67998">
        <ele>244.79</ele>
        <time>2021-08-17T18:49:45Z</time>
      </trkpt>
      <trkpt lat="44.07254" lon="1.67994">
        <ele>246.23</ele>
        <time>2021-08-17T18:49:46Z</time>
      </trkpt>
      <trkpt lat="44.07251" lon="1.6799">
        <ele>246.23</ele>
        <time>2021-08-17T18:49:47Z</time>
      </trkpt>
      <trkpt lat="44.07249" lon="1.67986">
        <ele>246.23</ele>
        <time>2021-08-17T18:49:48Z</time>
      </trkpt>
      <trkpt lat="44.07245" lon="1.67983">
        <ele>246.23</ele>
        <time>2021-08-17T18:49:49Z</time>
      </trkpt>
      <trkpt lat="44.07242" lon="1.67979">
        <ele>246.23</ele>
        <time>2021-08-17T18:49:50Z</time>
      </trkpt>
      <trkpt lat="44.07239" lon="1.67977">
        <ele>246.23</ele>
        <time>2021-08-17T18:49:51Z</time>
      </trkpt>
      <trkpt lat="44.07236" lon="1.67974">
        <ele>246.23</ele>
        <time>2021-08-17T18:49:52Z</time>
      </trkpt>
      <trkpt lat="44.07232" lon="1.67971">
        <ele>246.23</ele>
        <time>2021-08-17T18:49:53Z</time>
      </trkpt>
      <trkpt lat="44.07228" lon="1.67968">
        <ele>244.79</ele>
        <time>2021-08-17T18:49:54Z</time>
      </trkpt>
      <trkpt lat="44.07224" lon="1.67965">
        <ele>244.31</ele>
        <time>2021-08-17T18:49:55Z</time>
      </trkpt>
      <trkpt lat="44.0722" lon="1.6796">
        <ele>244.31</ele>
        <time>2021-08-17T18:49:56Z</time>
      </trkpt>
      <trkpt lat="44.07217" lon="1.67956">
        <ele>244.31</ele>
        <time>2021-08-17T18:49:57Z</time>
      </trkpt>
      <trkpt lat="44.07194" lon="1.67927">
        <ele>244.31</ele>
        <time>2021-08-17T18:50:04Z</time>
      </trkpt>
      <trkpt lat="44.07165" lon="1.67909">
        <ele>243.35</ele>
        <time>2021-08-17T18:50:10Z</time>
      </trkpt>
      <trkpt lat="44.07143" lon="1.67893">
        <ele>242.39</ele>
        <time>2021-08-17T18:50:14Z</time>
      </trkpt>
      <trkpt lat="44.07139" lon="1.67888">
        <ele>242.39</ele>
        <time>2021-08-17T18:50:15Z</time>
      </trkpt>
      <trkpt lat="44.07138" lon="1.67881">
        <ele>242.39</ele>
        <time>2021-08-17T18:50:16Z</time>
      </trkpt>
      <trkpt lat="44.07138" lon="1.67877">
        <ele>242.39</ele>
        <time>2021-08-17T18:50:17Z</time>
      </trkpt>
      <trkpt lat="44.07139" lon="1.67874">
        <ele>243.83</ele>
        <time>2021-08-17T18:50:18Z</time>
      </trkpt>
      <trkpt lat="44.07139" lon="1.67871">
        <ele>243.83</ele>
        <time>2021-08-17T18:50:19Z</time>
      </trkpt>
      <trkpt lat="44.07139" lon="1.67867">
        <ele>243.83</ele>
        <time>2021-08-17T18:50:20Z</time>
      </trkpt>
      <trkpt lat="44.07139" lon="1.67863">
        <ele>243.83</ele>
        <time>2021-08-17T18:50:21Z</time>
      </trkpt>
      <trkpt lat="44.07137" lon="1.67859">
        <ele>243.83</ele>
        <time>2021-08-17T18:50:22Z</time>
      </trkpt>
      <trkpt lat="44.07135" lon="1.67854">
        <ele>243.83</ele>
        <time>2021-08-17T18:50:23Z</time>
      </trkpt>
      <trkpt lat="44.07129" lon="1.67845">
        <ele>243.83</ele>
        <time>2021-08-17T18:50:25Z</time>
      </trkpt>
      <trkpt lat="44.07126" lon="1.67841">
        <ele>243.83</ele>
        <time>2021-08-17T18:50:26Z</time>
      </trkpt>
      <trkpt lat="44.07118" lon="1.67833">
        <ele>243.83</ele>
        <time>2021-08-17T18:50:28Z</time>
      </trkpt>
      <trkpt lat="44.07108" lon="1.67821">
        <ele>242.39</ele>
        <time>2021-08-17T18:50:31Z</time>
      </trkpt>
      <trkpt lat="44.07105" lon="1.67816">
        <ele>242.39</ele>
        <time>2021-08-17T18:50:32Z</time>
      </trkpt>
      <trkpt lat="44.071" lon="1.67807">
        <ele>242.39</ele>
        <time>2021-08-17T18:50:34Z</time>
      </trkpt>
      <trkpt lat="44.07091" lon="1.6779">
        <ele>241.91</ele>
        <time>2021-08-17T18:50:37Z</time>
      </trkpt>
      <trkpt lat="44.07088" lon="1.67785">
        <ele>240.95</ele>
        <time>2021-08-17T18:50:38Z</time>
      </trkpt>
      <trkpt lat="44.0708" lon="1.67775">
        <ele>240.47</ele>
        <time>2021-08-17T18:50:40Z</time>
      </trkpt>
      <trkpt lat="44.07076" lon="1.67768">
        <ele>239.51</ele>
        <time>2021-08-17T18:50:41Z</time>
      </trkpt>
      <trkpt lat="44.07074" lon="1.6776">
        <ele>239.51</ele>
        <time>2021-08-17T18:50:42Z</time>
      </trkpt>
      <trkpt lat="44.07057" lon="1.67707">
        <ele>238.06</ele>
        <time>2021-08-17T18:50:49Z</time>
      </trkpt>
      <trkpt lat="44.07048" lon="1.67683">
        <ele>236.62</ele>
        <time>2021-08-17T18:50:52Z</time>
      </trkpt>
      <trkpt lat="44.07045" lon="1.67674">
        <ele>236.14</ele>
        <time>2021-08-17T18:50:53Z</time>
      </trkpt>
      <trkpt lat="44.07033" lon="1.67639">
        <ele>233.74</ele>
        <time>2021-08-17T18:50:57Z</time>
      </trkpt>
      <trkpt lat="44.0703" lon="1.67629">
        <ele>233.26</ele>
        <time>2021-08-17T18:50:58Z</time>
      </trkpt>
      <trkpt lat="44.07018" lon="1.67589">
        <ele>231.81</ele>
        <time>2021-08-17T18:51:02Z</time>
      </trkpt>
      <trkpt lat="44.07016" lon="1.67579">
        <ele>231.33</ele>
        <time>2021-08-17T18:51:03Z</time>
      </trkpt>
      <trkpt lat="44.07013" lon="1.6757">
        <ele>231.33</ele>
        <time>2021-08-17T18:51:04Z</time>
      </trkpt>
      <trkpt lat="44.07006" lon="1.67553">
        <ele>230.85</ele>
        <time>2021-08-17T18:51:06Z</time>
      </trkpt>
      <trkpt lat="44.06982" lon="1.675">
        <ele>227.49</ele>
        <time>2021-08-17T18:51:12Z</time>
      </trkpt>
      <trkpt lat="44.06979" lon="1.67492">
        <ele>227.49</ele>
        <time>2021-08-17T18:51:13Z</time>
      </trkpt>
      <trkpt lat="44.06976" lon="1.67484">
        <ele>227.49</ele>
        <time>2021-08-17T18:51:14Z</time>
      </trkpt>
      <trkpt lat="44.06966" lon="1.67464">
        <ele>226.05</ele>
        <time>2021-08-17T18:51:17Z</time>
      </trkpt>
      <trkpt lat="44.06962" lon="1.67458">
        <ele>225.09</ele>
        <time>2021-08-17T18:51:18Z</time>
      </trkpt>
      <trkpt lat="44.06951" lon="1.67444">
        <ele>224.12</ele>
        <time>2021-08-17T18:51:22Z</time>
      </trkpt>
      <trkpt lat="44.06945" lon="1.67431">
        <ele>221.72</ele>
        <time>2021-08-17T18:51:25Z</time>
      </trkpt>
      <trkpt lat="44.06944" lon="1.67425">
        <ele>221.24</ele>
        <time>2021-08-17T18:51:26Z</time>
      </trkpt>
      <trkpt lat="44.06944" lon="1.67419">
        <ele>221.24</ele>
        <time>2021-08-17T18:51:27Z</time>
      </trkpt>
      <trkpt lat="44.06943" lon="1.67414">
        <ele>221.24</ele>
        <time>2021-08-17T18:51:28Z</time>
      </trkpt>
      <trkpt lat="44.06941" lon="1.67408">
        <ele>221.24</ele>
        <time>2021-08-17T18:51:29Z</time>
      </trkpt>
      <trkpt lat="44.06939" lon="1.67403">
        <ele>220.76</ele>
        <time>2021-08-17T18:51:30Z</time>
      </trkpt>
      <trkpt lat="44.06925" lon="1.67365">
        <ele>220.76</ele>
        <time>2021-08-17T18:51:37Z</time>
      </trkpt>
      <trkpt lat="44.06921" lon="1.67354">
        <ele>222.2</ele>
        <time>2021-08-17T18:51:40Z</time>
      </trkpt>
      <trkpt lat="44.06907" lon="1.67325">
        <ele>223.16</ele>
        <time>2021-08-17T18:51:48Z</time>
      </trkpt>
      <trkpt lat="44.0689" lon="1.67288">
        <ele>221.72</ele>
        <time>2021-08-17T18:51:55Z</time>
      </trkpt>
      <trkpt lat="44.06879" lon="1.67267">
        <ele>221.72</ele>
        <time>2021-08-17T18:51:59Z</time>
      </trkpt>
      <trkpt lat="44.06864" lon="1.67251">
        <ele>221.72</ele>
        <time>2021-08-17T18:52:04Z</time>
      </trkpt>
      <trkpt lat="44.06857" lon="1.67246">
        <ele>221.24</ele>
        <time>2021-08-17T18:52:06Z</time>
      </trkpt>
      <trkpt lat="44.06832" lon="1.67219">
        <ele>220.76</ele>
        <time>2021-08-17T18:52:12Z</time>
      </trkpt>
      <trkpt lat="44.06792" lon="1.67183">
        <ele>217.88</ele>
        <time>2021-08-17T18:52:21Z</time>
      </trkpt>
      <trkpt lat="44.06785" lon="1.67179">
        <ele>217.4</ele>
        <time>2021-08-17T18:52:22Z</time>
      </trkpt>
      <trkpt lat="44.0678" lon="1.67175">
        <ele>216.43</ele>
        <time>2021-08-17T18:52:23Z</time>
      </trkpt>
      <trkpt lat="44.06773" lon="1.67171">
        <ele>215.95</ele>
        <time>2021-08-17T18:52:24Z</time>
      </trkpt>
      <trkpt lat="44.06766" lon="1.67168">
        <ele>215.47</ele>
        <time>2021-08-17T18:52:25Z</time>
      </trkpt>
      <trkpt lat="44.0676" lon="1.67165">
        <ele>215.47</ele>
        <time>2021-08-17T18:52:26Z</time>
      </trkpt>
      <trkpt lat="44.06719" lon="1.67149">
        <ele>213.55</ele>
        <time>2021-08-17T18:52:33Z</time>
      </trkpt>
      <trkpt lat="44.06715" lon="1.67148">
        <ele>212.59</ele>
        <time>2021-08-17T18:52:34Z</time>
      </trkpt>
      <trkpt lat="44.06696" lon="1.67128">
        <ele>212.59</ele>
        <time>2021-08-17T18:52:40Z</time>
      </trkpt>
      <trkpt lat="44.06688" lon="1.67117">
        <ele>210.67</ele>
        <time>2021-08-17T18:52:43Z</time>
      </trkpt>
      <trkpt lat="44.06685" lon="1.67114">
        <ele>210.67</ele>
        <time>2021-08-17T18:52:44Z</time>
      </trkpt>
      <trkpt lat="44.0668" lon="1.67111">
        <ele>210.67</ele>
        <time>2021-08-17T18:52:45Z</time>
      </trkpt>
      <trkpt lat="44.06676" lon="1.67109">
        <ele>209.7</ele>
        <time>2021-08-17T18:52:46Z</time>
      </trkpt>
      <trkpt lat="44.06673" lon="1.67106">
        <ele>209.7</ele>
        <time>2021-08-17T18:52:47Z</time>
      </trkpt>
      <trkpt lat="44.0666" lon="1.67101">
        <ele>207.78</ele>
        <time>2021-08-17T18:52:50Z</time>
      </trkpt>
      <trkpt lat="44.0664" lon="1.67092">
        <ele>204.42</ele>
        <time>2021-08-17T18:52:55Z</time>
      </trkpt>
      <trkpt lat="44.06623" lon="1.67084">
        <ele>200.57</ele>
        <time>2021-08-17T18:52:59Z</time>
      </trkpt>
      <trkpt lat="44.06619" lon="1.67081">
        <ele>200.09</ele>
        <time>2021-08-17T18:53:00Z</time>
      </trkpt>
      <trkpt lat="44.06616" lon="1.67076">
        <ele>199.13</ele>
        <time>2021-08-17T18:53:01Z</time>
      </trkpt>
      <trkpt lat="44.06606" lon="1.67062">
        <ele>196.73</ele>
        <time>2021-08-17T18:53:04Z</time>
      </trkpt>
      <trkpt lat="44.06592" lon="1.67048">
        <ele>193.36</ele>
        <time>2021-08-17T18:53:07Z</time>
      </trkpt>
      <trkpt lat="44.06569" lon="1.67024">
        <ele>190</ele>
        <time>2021-08-17T18:53:11Z</time>
      </trkpt>
      <trkpt lat="44.0656" lon="1.67013">
        <ele>189.04</ele>
        <time>2021-08-17T18:53:13Z</time>
      </trkpt>
      <trkpt lat="44.06555" lon="1.67009">
        <ele>188.08</ele>
        <time>2021-08-17T18:53:14Z</time>
      </trkpt>
      <trkpt lat="44.06545" lon="1.67003">
        <ele>187.59</ele>
        <time>2021-08-17T18:53:16Z</time>
      </trkpt>
      <trkpt lat="44.06525" lon="1.66991">
        <ele>184.71</ele>
        <time>2021-08-17T18:53:22Z</time>
      </trkpt>
      <trkpt lat="44.06502" lon="1.66983">
        <ele>181.35</ele>
        <time>2021-08-17T18:53:28Z</time>
      </trkpt>
      <trkpt lat="44.06495" lon="1.66981">
        <ele>180.87</ele>
        <time>2021-08-17T18:53:30Z</time>
      </trkpt>
      <trkpt lat="44.06477" lon="1.66976">
        <ele>177.98</ele>
        <time>2021-08-17T18:53:35Z</time>
      </trkpt>
      <trkpt lat="44.06468" lon="1.66969">
        <ele>175.58</ele>
        <time>2021-08-17T18:53:39Z</time>
      </trkpt>
      <trkpt lat="44.06465" lon="1.66968">
        <ele>175.58</ele>
        <time>2021-08-17T18:53:40Z</time>
      </trkpt>
      <trkpt lat="44.06445" lon="1.66959">
        <ele>172.21</ele>
        <time>2021-08-17T18:53:47Z</time>
      </trkpt>
      <trkpt lat="44.0644" lon="1.66959">
        <ele>171.73</ele>
        <time>2021-08-17T18:53:48Z</time>
      </trkpt>
      <trkpt lat="44.06404" lon="1.66965">
        <ele>170.29</ele>
        <time>2021-08-17T18:53:55Z</time>
      </trkpt>
      <trkpt lat="44.06382" lon="1.66971">
        <ele>166.93</ele>
        <time>2021-08-17T18:53:59Z</time>
      </trkpt>
      <trkpt lat="44.06348" lon="1.66983">
        <ele>163.08</ele>
        <time>2021-08-17T18:54:04Z</time>
      </trkpt>
      <trkpt lat="44.06341" lon="1.66985">
        <ele>162.6</ele>
        <time>2021-08-17T18:54:05Z</time>
      </trkpt>
      <trkpt lat="44.06335" lon="1.66987">
        <ele>162.12</ele>
        <time>2021-08-17T18:54:06Z</time>
      </trkpt>
      <trkpt lat="44.06329" lon="1.66989">
        <ele>162.12</ele>
        <time>2021-08-17T18:54:07Z</time>
      </trkpt>
      <trkpt lat="44.0632" lon="1.6699">
        <ele>161.64</ele>
        <time>2021-08-17T18:54:09Z</time>
      </trkpt>
      <trkpt lat="44.06316" lon="1.66989">
        <ele>161.16</ele>
        <time>2021-08-17T18:54:10Z</time>
      </trkpt>
      <trkpt lat="44.06312" lon="1.66985">
        <ele>160.68</ele>
        <time>2021-08-17T18:54:11Z</time>
      </trkpt>
      <trkpt lat="44.06308" lon="1.66982">
        <ele>160.2</ele>
        <time>2021-08-17T18:54:12Z</time>
      </trkpt>
      <trkpt lat="44.06303" lon="1.6698">
        <ele>159.72</ele>
        <time>2021-08-17T18:54:13Z</time>
      </trkpt>
      <trkpt lat="44.06298" lon="1.66979">
        <ele>159.72</ele>
        <time>2021-08-17T18:54:14Z</time>
      </trkpt>
      <trkpt lat="44.06292" lon="1.66978">
        <ele>159.24</ele>
        <time>2021-08-17T18:54:15Z</time>
      </trkpt>
      <trkpt lat="44.06261" lon="1.66976">
        <ele>159.72</ele>
        <time>2021-08-17T18:54:22Z</time>
      </trkpt>
      <trkpt lat="44.06251" lon="1.66971">
        <ele>160.68</ele>
        <time>2021-08-17T18:54:25Z</time>
      </trkpt>
      <trkpt lat="44.06244" lon="1.66966">
        <ele>162.12</ele>
        <time>2021-08-17T18:54:31Z</time>
      </trkpt>
      <trkpt lat="44.06239" lon="1.66961">
        <ele>163.08</ele>
        <time>2021-08-17T18:54:39Z</time>
      </trkpt>
      <trkpt lat="44.06234" lon="1.66955">
        <ele>164.04</ele>
        <time>2021-08-17T18:54:46Z</time>
      </trkpt>
      <trkpt lat="44.06225" lon="1.66947">
        <ele>165.48</ele>
        <time>2021-08-17T18:54:56Z</time>
      </trkpt>
      <trkpt lat="44.06221" lon="1.66945">
        <ele>165.96</ele>
        <time>2021-08-17T18:55:03Z</time>
      </trkpt>
      <trkpt lat="44.06217" lon="1.66942">
        <ele>165.96</ele>
        <time>2021-08-17T18:55:15Z</time>
      </trkpt>
      <trkpt lat="44.06204" lon="1.66936">
        <ele>166.93</ele>
        <time>2021-08-17T18:55:22Z</time>
      </trkpt>
      <trkpt lat="44.06186" lon="1.66932">
        <ele>167.89</ele>
        <time>2021-08-17T18:55:30Z</time>
      </trkpt>
      <trkpt lat="44.06173" lon="1.66933">
        <ele>169.33</ele>
        <time>2021-08-17T18:55:38Z</time>
      </trkpt>
      <trkpt lat="44.06161" lon="1.66937">
        <ele>170.29</ele>
        <time>2021-08-17T18:55:45Z</time>
      </trkpt>
      <trkpt lat="44.06146" lon="1.66943">
        <ele>170.77</ele>
        <time>2021-08-17T18:55:53Z</time>
      </trkpt>
      <trkpt lat="44.06143" lon="1.66945">
        <ele>170.77</ele>
        <time>2021-08-17T18:55:55Z</time>
      </trkpt>
      <trkpt lat="44.06141" lon="1.66946">
        <ele>171.25</ele>
        <time>2021-08-17T18:55:56Z</time>
      </trkpt>
      <trkpt lat="44.06139" lon="1.66947">
        <ele>171.25</ele>
        <time>2021-08-17T18:55:57Z</time>
      </trkpt>
      <trkpt lat="44.06136" lon="1.66948">
        <ele>171.25</ele>
        <time>2021-08-17T18:55:58Z</time>
      </trkpt>
      <trkpt lat="44.06134" lon="1.6695">
        <ele>171.25</ele>
        <time>2021-08-17T18:55:59Z</time>
      </trkpt>
      <trkpt lat="44.06131" lon="1.66951">
        <ele>171.25</ele>
        <time>2021-08-17T18:56:00Z</time>
      </trkpt>
      <trkpt lat="44.06129" lon="1.66952">
        <ele>171.25</ele>
        <time>2021-08-17T18:56:01Z</time>
      </trkpt>
      <trkpt lat="44.06126" lon="1.66953">
        <ele>169.81</ele>
        <time>2021-08-17T18:56:02Z</time>
      </trkpt>
      <trkpt lat="44.06123" lon="1.66953">
        <ele>169.81</ele>
        <time>2021-08-17T18:56:03Z</time>
      </trkpt>
      <trkpt lat="44.06113" lon="1.66954">
        <ele>168.37</ele>
        <time>2021-08-17T18:56:06Z</time>
      </trkpt>
      <trkpt lat="44.06087" lon="1.66945">
        <ele>167.41</ele>
        <time>2021-08-17T18:56:13Z</time>
      </trkpt>
      <trkpt lat="44.06077" lon="1.66928">
        <ele>166.45</ele>
        <time>2021-08-17T18:56:19Z</time>
      </trkpt>
      <trkpt lat="44.06069" lon="1.66918">
        <ele>163.08</ele>
        <time>2021-08-17T18:56:24Z</time>
      </trkpt>
      <trkpt lat="44.06066" lon="1.66917">
        <ele>163.08</ele>
        <time>2021-08-17T18:56:25Z</time>
      </trkpt>
      <trkpt lat="44.06064" lon="1.66917">
        <ele>162.6</ele>
        <time>2021-08-17T18:56:26Z</time>
      </trkpt>
      <trkpt lat="44.06047" lon="1.66919">
        <ele>160.68</ele>
        <time>2021-08-17T18:56:32Z</time>
      </trkpt>
      <trkpt lat="44.06035" lon="1.66922">
        <ele>158.75</ele>
        <time>2021-08-17T18:56:38Z</time>
      </trkpt>
      <trkpt lat="44.06028" lon="1.66923">
        <ele>157.79</ele>
        <time>2021-08-17T18:56:43Z</time>
      </trkpt>
      <trkpt lat="44.06016" lon="1.66926">
        <ele>155.87</ele>
        <time>2021-08-17T18:56:49Z</time>
      </trkpt>
      <trkpt lat="44.06001" lon="1.66927">
        <ele>153.47</ele>
        <time>2021-08-17T18:56:55Z</time>
      </trkpt>
      <trkpt lat="44.05987" lon="1.66931">
        <ele>151.06</ele>
        <time>2021-08-17T18:57:01Z</time>
      </trkpt>
      <trkpt lat="44.05984" lon="1.66932">
        <ele>151.06</ele>
        <time>2021-08-17T18:57:02Z</time>
      </trkpt>
      <trkpt lat="44.05976" lon="1.66939">
        <ele>149.62</ele>
        <time>2021-08-17T18:57:05Z</time>
      </trkpt>
      <trkpt lat="44.05964" lon="1.66944">
        <ele>147.7</ele>
        <time>2021-08-17T18:57:11Z</time>
      </trkpt>
      <trkpt lat="44.05953" lon="1.66944">
        <ele>145.78</ele>
        <time>2021-08-17T18:57:18Z</time>
      </trkpt>
      <trkpt lat="44.05944" lon="1.66938">
        <ele>141.93</ele>
        <time>2021-08-17T18:57:23Z</time>
      </trkpt>
      <trkpt lat="44.05939" lon="1.66937">
        <ele>141.45</ele>
        <time>2021-08-17T18:57:25Z</time>
      </trkpt>
      <trkpt lat="44.05926" lon="1.66933">
        <ele>138.09</ele>
        <time>2021-08-17T18:57:31Z</time>
      </trkpt>
      <trkpt lat="44.05911" lon="1.66928">
        <ele>135.2</ele>
        <time>2021-08-17T18:57:36Z</time>
      </trkpt>
      <trkpt lat="44.05887" lon="1.66924">
        <ele>131.36</ele>
        <time>2021-08-17T18:57:42Z</time>
      </trkpt>
      <trkpt lat="44.05868" lon="1.66919">
        <ele>128.95</ele>
        <time>2021-08-17T18:57:47Z</time>
      </trkpt>
      <trkpt lat="44.05843" lon="1.66913">
        <ele>126.07</ele>
        <time>2021-08-17T18:57:52Z</time>
      </trkpt>
      <trkpt lat="44.0582" lon="1.66912">
        <ele>123.67</ele>
        <time>2021-08-17T18:57:57Z</time>
      </trkpt>
      <trkpt lat="44.05796" lon="1.66913">
        <ele>121.74</ele>
        <time>2021-08-17T18:58:02Z</time>
      </trkpt>
      <trkpt lat="44.05793" lon="1.66912">
        <ele>121.74</ele>
        <time>2021-08-17T18:58:03Z</time>
      </trkpt>
      <trkpt lat="44.05775" lon="1.66909">
        <ele>118.38</ele>
        <time>2021-08-17T18:58:09Z</time>
      </trkpt>
      <trkpt lat="44.05766" lon="1.66907">
        <ele>116.94</ele>
        <time>2021-08-17T18:58:12Z</time>
      </trkpt>
      <trkpt lat="44.05756" lon="1.66905">
        <ele>115.5</ele>
        <time>2021-08-17T18:58:16Z</time>
      </trkpt>
      <trkpt lat="44.05755" lon="1.66906">
        <ele>115.5</ele>
        <time>2021-08-17T18:58:17Z</time>
      </trkpt>
      <trkpt lat="44.05755" lon="1.66908">
        <ele>115.5</ele>
        <time>2021-08-17T18:58:18Z</time>
      </trkpt>
      <trkpt lat="44.05754" lon="1.6691">
        <ele>115.5</ele>
        <time>2021-08-17T18:58:19Z</time>
      </trkpt>
      <trkpt lat="44.05753" lon="1.66912">
        <ele>115.5</ele>
        <time>2021-08-17T18:58:20Z</time>
      </trkpt>
      <trkpt lat="44.05752" lon="1.66915">
        <ele>115.5</ele>
        <time>2021-08-17T18:58:21Z</time>
      </trkpt>
      <trkpt lat="44.05751" lon="1.66917">
        <ele>115.5</ele>
        <time>2021-08-17T18:58:22Z</time>
      </trkpt>
      <trkpt lat="44.05749" lon="1.6692">
        <ele>114.53</ele>
        <time>2021-08-17T18:58:23Z</time>
      </trkpt>
      <trkpt lat="44.05747" lon="1.66923">
        <ele>115.01</ele>
        <time>2021-08-17T18:58:24Z</time>
      </trkpt>
      <trkpt lat="44.05728" lon="1.66947">
        <ele>112.61</ele>
        <time>2021-08-17T18:58:30Z</time>
      </trkpt>
      <trkpt lat="44.05723" lon="1.66951">
        <ele>112.61</ele>
        <time>2021-08-17T18:58:31Z</time>
      </trkpt>
      <trkpt lat="44.05718" lon="1.66953">
        <ele>112.13</ele>
        <time>2021-08-17T18:58:32Z</time>
      </trkpt>
      <trkpt lat="44.05706" lon="1.66957">
        <ele>112.13</ele>
        <time>2021-08-17T18:58:34Z</time>
      </trkpt>
      <trkpt lat="44.057" lon="1.66958">
        <ele>111.65</ele>
        <time>2021-08-17T18:58:35Z</time>
      </trkpt>
      <trkpt lat="44.05694" lon="1.66958">
        <ele>111.65</ele>
        <time>2021-08-17T18:58:36Z</time>
      </trkpt>
      <trkpt lat="44.05664" lon="1.6696">
        <ele>111.65</ele>
        <time>2021-08-17T18:58:43Z</time>
      </trkpt>
      <trkpt lat="44.0565" lon="1.66959">
        <ele>112.61</ele>
        <time>2021-08-17T18:58:47Z</time>
      </trkpt>
      <trkpt lat="44.05635" lon="1.66954">
        <ele>113.09</ele>
        <time>2021-08-17T18:58:54Z</time>
      </trkpt>
      <trkpt lat="44.05635" lon="1.66955">
        <ele>113.09</ele>
        <time>2021-08-17T18:59:04Z</time>
      </trkpt>
      <trkpt lat="44.05633" lon="1.66955">
        <ele>113.09</ele>
        <time>2021-08-17T18:59:12Z</time>
      </trkpt>
      <trkpt lat="44.05633" lon="1.66956">
        <ele>113.09</ele>
        <time>2021-08-17T18:59:13Z</time>
      </trkpt>
      <trkpt lat="44.05632" lon="1.66958">
        <ele>113.09</ele>
        <time>2021-08-17T18:59:14Z</time>
      </trkpt>
      <trkpt lat="44.05629" lon="1.66981">
        <ele>113.09</ele>
        <time>2021-08-17T18:59:21Z</time>
      </trkpt>
      <trkpt lat="44.05632" lon="1.67031">
        <ele>112.61</ele>
        <time>2021-08-17T18:59:32Z</time>
      </trkpt>
      <trkpt lat="44.05628" lon="1.67057">
        <ele>112.61</ele>
        <time>2021-08-17T18:59:37Z</time>
      </trkpt>
      <trkpt lat="44.05626" lon="1.67062">
        <ele>112.61</ele>
        <time>2021-08-17T18:59:38Z</time>
      </trkpt>
      <trkpt lat="44.05623" lon="1.67066">
        <ele>112.61</ele>
        <time>2021-08-17T18:59:39Z</time>
      </trkpt>
      <trkpt lat="44.0562" lon="1.6707">
        <ele>112.61</ele>
        <time>2021-08-17T18:59:40Z</time>
      </trkpt>
      <trkpt lat="44.05616" lon="1.67074">
        <ele>112.61</ele>
        <time>2021-08-17T18:59:41Z</time>
      </trkpt>
      <trkpt lat="44.05612" lon="1.67077">
        <ele>112.61</ele>
        <time>2021-08-17T18:59:42Z</time>
      </trkpt>
      <trkpt lat="44.05608" lon="1.67079">
        <ele>112.61</ele>
        <time>2021-08-17T18:59:43Z</time>
      </trkpt>
      <trkpt lat="44.05588" lon="1.67094">
        <ele>111.65</ele>
        <time>2021-08-17T18:59:47Z</time>
      </trkpt>
      <trkpt lat="44.0554" lon="1.67125">
        <ele>110.21</ele>
        <time>2021-08-17T18:59:56Z</time>
      </trkpt>
      <trkpt lat="44.05493" lon="1.6716">
        <ele>110.69</ele>
        <time>2021-08-17T19:00:05Z</time>
      </trkpt>
      <trkpt lat="44.05444" lon="1.67185">
        <ele>110.21</ele>
        <time>2021-08-17T19:00:14Z</time>
      </trkpt>
      <trkpt lat="44.05428" lon="1.67192">
        <ele>110.21</ele>
        <time>2021-08-17T19:00:17Z</time>
      </trkpt>
      <trkpt lat="44.05396" lon="1.67198">
        <ele>110.21</ele>
        <time>2021-08-17T19:00:23Z</time>
      </trkpt>
      <trkpt lat="44.05391" lon="1.67198">
        <ele>110.21</ele>
        <time>2021-08-17T19:00:24Z</time>
      </trkpt>
      <trkpt lat="44.05386" lon="1.67199">
        <ele>110.69</ele>
        <time>2021-08-17T19:00:25Z</time>
      </trkpt>
      <trkpt lat="44.05375" lon="1.67202">
        <ele>111.65</ele>
        <time>2021-08-17T19:00:27Z</time>
      </trkpt>
      <trkpt lat="44.05342" lon="1.67212">
        <ele>112.61</ele>
        <time>2021-08-17T19:00:34Z</time>
      </trkpt>
      <trkpt lat="44.05308" lon="1.6722">
        <ele>112.61</ele>
        <time>2021-08-17T19:00:42Z</time>
      </trkpt>
      <trkpt lat="44.05268" lon="1.6723">
        <ele>113.57</ele>
        <time>2021-08-17T19:00:51Z</time>
      </trkpt>
      <trkpt lat="44.05236" lon="1.67236">
        <ele>114.05</ele>
        <time>2021-08-17T19:00:58Z</time>
      </trkpt>
      <trkpt lat="44.05193" lon="1.67246">
        <ele>114.05</ele>
        <time>2021-08-17T19:01:08Z</time>
      </trkpt>
      <trkpt lat="44.05188" lon="1.67247">
        <ele>114.05</ele>
        <time>2021-08-17T19:01:09Z</time>
      </trkpt>
      <trkpt lat="44.05179" lon="1.67249">
        <ele>114.53</ele>
        <time>2021-08-17T19:01:11Z</time>
      </trkpt>
      <trkpt lat="44.05157" lon="1.67255">
        <ele>114.53</ele>
        <time>2021-08-17T19:01:16Z</time>
      </trkpt>
      <trkpt lat="44.05153" lon="1.67254">
        <ele>115.01</ele>
        <time>2021-08-17T19:01:17Z</time>
      </trkpt>
      <trkpt lat="44.05144" lon="1.67252">
        <ele>115.01</ele>
        <time>2021-08-17T19:01:19Z</time>
      </trkpt>
      <trkpt lat="44.05139" lon="1.67249">
        <ele>115.01</ele>
        <time>2021-08-17T19:01:20Z</time>
      </trkpt>
      <trkpt lat="44.05136" lon="1.67247">
        <ele>115.01</ele>
        <time>2021-08-17T19:01:21Z</time>
      </trkpt>
      <trkpt lat="44.05132" lon="1.67244">
        <ele>115.01</ele>
        <time>2021-08-17T19:01:22Z</time>
      </trkpt>
      <trkpt lat="44.05128" lon="1.67241">
        <ele>115.01</ele>
        <time>2021-08-17T19:01:23Z</time>
      </trkpt>
      <trkpt lat="44.05124" lon="1.67237">
        <ele>115.01</ele>
        <time>2021-08-17T19:01:24Z</time>
      </trkpt>
      <trkpt lat="44.0512" lon="1.67233">
        <ele>115.01</ele>
        <time>2021-08-17T19:01:25Z</time>
      </trkpt>
      <trkpt lat="44.05117" lon="1.67228">
        <ele>115.01</ele>
        <time>2021-08-17T19:01:26Z</time>
      </trkpt>
      <trkpt lat="44.05092" lon="1.67188">
        <ele>115.01</ele>
        <time>2021-08-17T19:01:34Z</time>
      </trkpt>
      <trkpt lat="44.05089" lon="1.67184">
        <ele>115.01</ele>
        <time>2021-08-17T19:01:35Z</time>
      </trkpt>
      <trkpt lat="44.05073" lon="1.67153">
        <ele>115.01</ele>
        <time>2021-08-17T19:01:42Z</time>
      </trkpt>
      <trkpt lat="44.0507" lon="1.67151">
        <ele>115.5</ele>
        <time>2021-08-17T19:01:43Z</time>
      </trkpt>
      <trkpt lat="44.05067" lon="1.67151">
        <ele>115.5</ele>
        <time>2021-08-17T19:01:44Z</time>
      </trkpt>
      <trkpt lat="44.05064" lon="1.67153">
        <ele>115.5</ele>
        <time>2021-08-17T19:01:45Z</time>
      </trkpt>
      <trkpt lat="44.05062" lon="1.67156">
        <ele>115.5</ele>
        <time>2021-08-17T19:01:46Z</time>
      </trkpt>
      <trkpt lat="44.05059" lon="1.6716">
        <ele>113.57</ele>
        <time>2021-08-17T19:01:47Z</time>
      </trkpt>
      <trkpt lat="44.05037" lon="1.67195">
        <ele>111.17</ele>
        <time>2021-08-17T19:01:52Z</time>
      </trkpt>
      <trkpt lat="44.05007" lon="1.67246">
        <ele>111.17</ele>
        <time>2021-08-17T19:02:00Z</time>
      </trkpt>
      <trkpt lat="44.04999" lon="1.67256">
        <ele>111.17</ele>
        <time>2021-08-17T19:02:02Z</time>
      </trkpt>
      <trkpt lat="44.04995" lon="1.6726">
        <ele>111.17</ele>
        <time>2021-08-17T19:02:03Z</time>
      </trkpt>
      <trkpt lat="44.04992" lon="1.67265">
        <ele>111.17</ele>
        <time>2021-08-17T19:02:04Z</time>
      </trkpt>
      <trkpt lat="44.04979" lon="1.67281">
        <ele>111.17</ele>
        <time>2021-08-17T19:02:07Z</time>
      </trkpt>
      <trkpt lat="44.0497" lon="1.67291">
        <ele>110.69</ele>
        <time>2021-08-17T19:02:09Z</time>
      </trkpt>
      <trkpt lat="44.04965" lon="1.67297">
        <ele>110.21</ele>
        <time>2021-08-17T19:02:10Z</time>
      </trkpt>
      <trkpt lat="44.04939" lon="1.6733">
        <ele>108.77</ele>
        <time>2021-08-17T19:02:15Z</time>
      </trkpt>
      <trkpt lat="44.04933" lon="1.67335">
        <ele>108.77</ele>
        <time>2021-08-17T19:02:16Z</time>
      </trkpt>
      <trkpt lat="44.04893" lon="1.67361">
        <ele>108.29</ele>
        <time>2021-08-17T19:02:23Z</time>
      </trkpt>
      <trkpt lat="44.04868" lon="1.67374">
        <ele>108.29</ele>
        <time>2021-08-17T19:02:28Z</time>
      </trkpt>
      <trkpt lat="44.04863" lon="1.67375">
        <ele>108.29</ele>
        <time>2021-08-17T19:02:29Z</time>
      </trkpt>
      <trkpt lat="44.04857" lon="1.67376">
        <ele>108.29</ele>
        <time>2021-08-17T19:02:30Z</time>
      </trkpt>
      <trkpt lat="44.04851" lon="1.67376">
        <ele>108.29</ele>
        <time>2021-08-17T19:02:31Z</time>
      </trkpt>
      <trkpt lat="44.04846" lon="1.67375">
        <ele>108.29</ele>
        <time>2021-08-17T19:02:32Z</time>
      </trkpt>
      <trkpt lat="44.04841" lon="1.67374">
        <ele>108.29</ele>
        <time>2021-08-17T19:02:33Z</time>
      </trkpt>
      <trkpt lat="44.04836" lon="1.67371">
        <ele>108.29</ele>
        <time>2021-08-17T19:02:34Z</time>
      </trkpt>
      <trkpt lat="44.04831" lon="1.67369">
        <ele>108.29</ele>
        <time>2021-08-17T19:02:35Z</time>
      </trkpt>
      <trkpt lat="44.04808" lon="1.67356">
        <ele>108.29</ele>
        <time>2021-08-17T19:02:40Z</time>
      </trkpt>
      <trkpt lat="44.04804" lon="1.67354">
        <ele>108.29</ele>
        <time>2021-08-17T19:02:41Z</time>
      </trkpt>
      <trkpt lat="44.04799" lon="1.67352">
        <ele>108.29</ele>
        <time>2021-08-17T19:02:42Z</time>
      </trkpt>
      <trkpt lat="44.04795" lon="1.6735">
        <ele>109.73</ele>
        <time>2021-08-17T19:02:43Z</time>
      </trkpt>
      <trkpt lat="44.04791" lon="1.67347">
        <ele>109.73</ele>
        <time>2021-08-17T19:02:44Z</time>
      </trkpt>
      <trkpt lat="44.04775" lon="1.67338">
        <ele>110.21</ele>
        <time>2021-08-17T19:02:48Z</time>
      </trkpt>
      <trkpt lat="44.04763" lon="1.6733">
        <ele>110.21</ele>
        <time>2021-08-17T19:02:51Z</time>
      </trkpt>
      <trkpt lat="44.0476" lon="1.67326">
        <ele>110.21</ele>
        <time>2021-08-17T19:02:52Z</time>
      </trkpt>
      <trkpt lat="44.04757" lon="1.67322">
        <ele>110.21</ele>
        <time>2021-08-17T19:02:53Z</time>
      </trkpt>
      <trkpt lat="44.04754" lon="1.67317">
        <ele>110.21</ele>
        <time>2021-08-17T19:02:54Z</time>
      </trkpt>
      <trkpt lat="44.04751" lon="1.67312">
        <ele>110.21</ele>
        <time>2021-08-17T19:02:55Z</time>
      </trkpt>
      <trkpt lat="44.04727" lon="1.67272">
        <ele>110.69</ele>
        <time>2021-08-17T19:03:03Z</time>
      </trkpt>
      <trkpt lat="44.04704" lon="1.67236">
        <ele>110.69</ele>
        <time>2021-08-17T19:03:11Z</time>
      </trkpt>
      <trkpt lat="44.0468" lon="1.67194">
        <ele>110.69</ele>
        <time>2021-08-17T19:03:19Z</time>
      </trkpt>
      <trkpt lat="44.04661" lon="1.67159">
        <ele>110.69</ele>
        <time>2021-08-17T19:03:26Z</time>
      </trkpt>
      <trkpt lat="44.04659" lon="1.67155">
        <ele>110.69</ele>
        <time>2021-08-17T19:03:27Z</time>
      </trkpt>
      <trkpt lat="44.04654" lon="1.67144">
        <ele>110.69</ele>
        <time>2021-08-17T19:03:29Z</time>
      </trkpt>
      <trkpt lat="44.04638" lon="1.67112">
        <ele>111.65</ele>
        <time>2021-08-17T19:03:36Z</time>
      </trkpt>
      <trkpt lat="44.04613" lon="1.67077">
        <ele>111.65</ele>
        <time>2021-08-17T19:03:44Z</time>
      </trkpt>
      <trkpt lat="44.0461" lon="1.67072">
        <ele>111.65</ele>
        <time>2021-08-17T19:03:45Z</time>
      </trkpt>
      <trkpt lat="44.04604" lon="1.67061">
        <ele>111.65</ele>
        <time>2021-08-17T19:03:47Z</time>
      </trkpt>
      <trkpt lat="44.04601" lon="1.67056">
        <ele>111.65</ele>
        <time>2021-08-17T19:03:48Z</time>
      </trkpt>
      <trkpt lat="44.04585" lon="1.67038">
        <ele>110.69</ele>
        <time>2021-08-17T19:03:52Z</time>
      </trkpt>
      <trkpt lat="44.04577" lon="1.6703">
        <ele>110.69</ele>
        <time>2021-08-17T19:03:54Z</time>
      </trkpt>
      <trkpt lat="44.04551" lon="1.67003">
        <ele>110.21</ele>
        <time>2021-08-17T19:04:01Z</time>
      </trkpt>
      <trkpt lat="44.04527" lon="1.66969">
        <ele>110.21</ele>
        <time>2021-08-17T19:04:08Z</time>
      </trkpt>
      <trkpt lat="44.04513" lon="1.66949">
        <ele>110.21</ele>
        <time>2021-08-17T19:04:12Z</time>
      </trkpt>
      <trkpt lat="44.04492" lon="1.66928">
        <ele>110.21</ele>
        <time>2021-08-17T19:04:18Z</time>
      </trkpt>
      <trkpt lat="44.04472" lon="1.66913">
        <ele>111.17</ele>
        <time>2021-08-17T19:04:23Z</time>
      </trkpt>
      <trkpt lat="44.04468" lon="1.6691">
        <ele>111.17</ele>
        <time>2021-08-17T19:04:24Z</time>
      </trkpt>
      <trkpt lat="44.04465" lon="1.66906">
        <ele>111.17</ele>
        <time>2021-08-17T19:04:25Z</time>
      </trkpt>
      <trkpt lat="44.04461" lon="1.66902">
        <ele>111.17</ele>
        <time>2021-08-17T19:04:26Z</time>
      </trkpt>
      <trkpt lat="44.04459" lon="1.66898">
        <ele>111.17</ele>
        <time>2021-08-17T19:04:27Z</time>
      </trkpt>
      <trkpt lat="44.04446" lon="1.66871">
        <ele>111.65</ele>
        <time>2021-08-17T19:04:33Z</time>
      </trkpt>
      <trkpt lat="44.04438" lon="1.66847">
        <ele>112.13</ele>
        <time>2021-08-17T19:04:38Z</time>
      </trkpt>
      <trkpt lat="44.04427" lon="1.66825">
        <ele>113.09</ele>
        <time>2021-08-17T19:04:43Z</time>
      </trkpt>
      <trkpt lat="44.04399" lon="1.66807">
        <ele>113.09</ele>
        <time>2021-08-17T19:04:50Z</time>
      </trkpt>
      <trkpt lat="44.04371" lon="1.66793">
        <ele>113.57</ele>
        <time>2021-08-17T19:04:57Z</time>
      </trkpt>
      <trkpt lat="44.04347" lon="1.66792">
        <ele>114.05</ele>
        <time>2021-08-17T19:05:03Z</time>
      </trkpt>
      <trkpt lat="44.04323" lon="1.668">
        <ele>115.5</ele>
        <time>2021-08-17T19:05:10Z</time>
      </trkpt>
      <trkpt lat="44.04313" lon="1.66804">
        <ele>117.42</ele>
        <time>2021-08-17T19:05:17Z</time>
      </trkpt>
      <trkpt lat="44.04298" lon="1.66803">
        <ele>117.9</ele>
        <time>2021-08-17T19:05:24Z</time>
      </trkpt>
      <trkpt lat="44.04277" lon="1.66793">
        <ele>118.38</ele>
        <time>2021-08-17T19:05:32Z</time>
      </trkpt>
      <trkpt lat="44.04252" lon="1.66787">
        <ele>116.46</ele>
        <time>2021-08-17T19:05:38Z</time>
      </trkpt>
      <trkpt lat="44.04242" lon="1.66787">
        <ele>115.98</ele>
        <time>2021-08-17T19:05:40Z</time>
      </trkpt>
      <trkpt lat="44.04205" lon="1.66795">
        <ele>115.98</ele>
        <time>2021-08-17T19:05:47Z</time>
      </trkpt>
      <trkpt lat="44.04188" lon="1.66799">
        <ele>117.9</ele>
        <time>2021-08-17T19:05:52Z</time>
      </trkpt>
      <trkpt lat="44.04168" lon="1.66812">
        <ele>118.86</ele>
        <time>2021-08-17T19:06:00Z</time>
      </trkpt>
      <trkpt lat="44.04156" lon="1.66841">
        <ele>118.86</ele>
        <time>2021-08-17T19:06:07Z</time>
      </trkpt>
      <trkpt lat="44.04139" lon="1.66875">
        <ele>118.86</ele>
        <time>2021-08-17T19:06:15Z</time>
      </trkpt>
      <trkpt lat="44.04117" lon="1.66897">
        <ele>118.86</ele>
        <time>2021-08-17T19:06:23Z</time>
      </trkpt>
      <trkpt lat="44.04099" lon="1.66913">
        <ele>120.3</ele>
        <time>2021-08-17T19:06:31Z</time>
      </trkpt>
      <trkpt lat="44.04084" lon="1.66922">
        <ele>121.74</ele>
        <time>2021-08-17T19:06:39Z</time>
      </trkpt>
      <trkpt lat="44.04068" lon="1.66931">
        <ele>123.19</ele>
        <time>2021-08-17T19:06:48Z</time>
      </trkpt>
      <trkpt lat="44.04055" lon="1.66939">
        <ele>123.67</ele>
        <time>2021-08-17T19:06:55Z</time>
      </trkpt>
      <trkpt lat="44.04043" lon="1.66942">
        <ele>124.63</ele>
        <time>2021-08-17T19:07:02Z</time>
      </trkpt>
      <trkpt lat="44.04027" lon="1.66943">
        <ele>126.07</ele>
        <time>2021-08-17T19:07:11Z</time>
      </trkpt>
      <trkpt lat="44.04012" lon="1.66942">
        <ele>127.03</ele>
        <time>2021-08-17T19:07:19Z</time>
      </trkpt>
      <trkpt lat="44.03992" lon="1.66942">
        <ele>127.99</ele>
        <time>2021-08-17T19:07:27Z</time>
      </trkpt>
      <trkpt lat="44.03973" lon="1.66942">
        <ele>127.99</ele>
        <time>2021-08-17T19:07:34Z</time>
      </trkpt>
      <trkpt lat="44.03957" lon="1.66929">
        <ele>127.99</ele>
        <time>2021-08-17T19:07:40Z</time>
      </trkpt>
      <trkpt lat="44.0395" lon="1.66914">
        <ele>127.99</ele>
        <time>2021-08-17T19:07:45Z</time>
      </trkpt>
      <trkpt lat="44.0395" lon="1.66918">
        <ele>128.47</ele>
        <time>2021-08-17T19:07:49Z</time>
      </trkpt>
      <trkpt lat="44.03951" lon="1.6692">
        <ele>128.47</ele>
        <time>2021-08-17T19:07:50Z</time>
      </trkpt>
      <trkpt lat="44.03952" lon="1.66922">
        <ele>128.47</ele>
        <time>2021-08-17T19:07:51Z</time>
      </trkpt>
      <trkpt lat="44.03954" lon="1.66925">
        <ele>128.47</ele>
        <time>2021-08-17T19:07:52Z</time>
      </trkpt>
      <trkpt lat="44.03956" lon="1.66927">
        <ele>128.47</ele>
        <time>2021-08-17T19:07:53Z</time>
      </trkpt>
      <trkpt lat="44.03963" lon="1.66943">
        <ele>128.47</ele>
        <time>2021-08-17T19:07:59Z</time>
      </trkpt>
      <trkpt lat="44.03963" lon="1.66945">
        <ele>128.47</ele>
        <time>2021-08-17T19:08:00Z</time>
      </trkpt>
      <trkpt lat="44.03962" lon="1.66948">
        <ele>127.51</ele>
        <time>2021-08-17T19:08:01Z</time>
      </trkpt>
      <trkpt lat="44.03961" lon="1.6695">
        <ele>126.55</ele>
        <time>2021-08-17T19:08:02Z</time>
      </trkpt>
      <trkpt lat="44.03959" lon="1.66953">
        <ele>126.07</ele>
        <time>2021-08-17T19:08:03Z</time>
      </trkpt>
      <trkpt lat="44.03957" lon="1.66956">
        <ele>125.59</ele>
        <time>2021-08-17T19:08:04Z</time>
      </trkpt>
      <trkpt lat="44.03954" lon="1.66957">
        <ele>125.11</ele>
        <time>2021-08-17T19:08:05Z</time>
      </trkpt>
      <trkpt lat="44.03951" lon="1.66958">
        <ele>124.63</ele>
        <time>2021-08-17T19:08:06Z</time>
      </trkpt>
      <trkpt lat="44.03949" lon="1.66958">
        <ele>123.67</ele>
        <time>2021-08-17T19:08:07Z</time>
      </trkpt>
      <trkpt lat="44.03947" lon="1.66957">
        <ele>123.19</ele>
        <time>2021-08-17T19:08:08Z</time>
      </trkpt>
      <trkpt lat="44.03944" lon="1.66955">
        <ele>122.22</ele>
        <time>2021-08-17T19:08:09Z</time>
      </trkpt>
      <trkpt lat="44.03941" lon="1.66952">
        <ele>121.74</ele>
        <time>2021-08-17T19:08:10Z</time>
      </trkpt>
      <trkpt lat="44.03938" lon="1.66949">
        <ele>121.26</ele>
        <time>2021-08-17T19:08:11Z</time>
      </trkpt>
      <trkpt lat="44.03934" lon="1.66946">
        <ele>120.3</ele>
        <time>2021-08-17T19:08:12Z</time>
      </trkpt>
      <trkpt lat="44.0393" lon="1.66943">
        <ele>119.82</ele>
        <time>2021-08-17T19:08:13Z</time>
      </trkpt>
      <trkpt lat="44.03925" lon="1.6694">
        <ele>119.34</ele>
        <time>2021-08-17T19:08:14Z</time>
      </trkpt>
      <trkpt lat="44.03896" lon="1.66919">
        <ele>116.94</ele>
        <time>2021-08-17T19:08:20Z</time>
      </trkpt>
      <trkpt lat="44.03884" lon="1.66906">
        <ele>115.98</ele>
        <time>2021-08-17T19:08:23Z</time>
      </trkpt>
      <trkpt lat="44.03879" lon="1.66903">
        <ele>115.98</ele>
        <time>2021-08-17T19:08:24Z</time>
      </trkpt>
      <trkpt lat="44.03874" lon="1.66901">
        <ele>115.98</ele>
        <time>2021-08-17T19:08:25Z</time>
      </trkpt>
      <trkpt lat="44.03853" lon="1.66886">
        <ele>115.98</ele>
        <time>2021-08-17T19:08:31Z</time>
      </trkpt>
      <trkpt lat="44.03833" lon="1.66878">
        <ele>115.98</ele>
        <time>2021-08-17T19:08:38Z</time>
      </trkpt>
      <trkpt lat="44.03828" lon="1.66878">
        <ele>115.98</ele>
        <time>2021-08-17T19:08:39Z</time>
      </trkpt>
      <trkpt lat="44.03822" lon="1.66878">
        <ele>115.5</ele>
        <time>2021-08-17T19:08:40Z</time>
      </trkpt>
      <trkpt lat="44.03817" lon="1.66879">
        <ele>115.01</ele>
        <time>2021-08-17T19:08:41Z</time>
      </trkpt>
      <trkpt lat="44.03797" lon="1.66885">
        <ele>114.53</ele>
        <time>2021-08-17T19:08:45Z</time>
      </trkpt>
      <trkpt lat="44.03792" lon="1.66887">
        <ele>114.53</ele>
        <time>2021-08-17T19:08:46Z</time>
      </trkpt>
      <trkpt lat="44.03787" lon="1.66888">
        <ele>114.53</ele>
        <time>2021-08-17T19:08:47Z</time>
      </trkpt>
      <trkpt lat="44.03783" lon="1.66889">
        <ele>114.53</ele>
        <time>2021-08-17T19:08:48Z</time>
      </trkpt>
      <trkpt lat="44.03779" lon="1.66889">
        <ele>114.53</ele>
        <time>2021-08-17T19:08:49Z</time>
      </trkpt>
      <trkpt lat="44.03775" lon="1.66888">
        <ele>114.53</ele>
        <time>2021-08-17T19:08:50Z</time>
      </trkpt>
      <trkpt lat="44.03771" lon="1.66888">
        <ele>114.53</ele>
        <time>2021-08-17T19:08:51Z</time>
      </trkpt>
      <trkpt lat="44.03751" lon="1.66883">
        <ele>114.53</ele>
        <time>2021-08-17T19:08:57Z</time>
      </trkpt>
      <trkpt lat="44.03738" lon="1.66879">
        <ele>114.53</ele>
        <time>2021-08-17T19:09:02Z</time>
      </trkpt>
      <trkpt lat="44.03719" lon="1.66873">
        <ele>114.53</ele>
        <time>2021-08-17T19:09:08Z</time>
      </trkpt>
      <trkpt lat="44.03703" lon="1.66866">
        <ele>114.53</ele>
        <time>2021-08-17T19:09:13Z</time>
      </trkpt>
      <trkpt lat="44.03675" lon="1.66859">
        <ele>114.53</ele>
        <time>2021-08-17T19:09:21Z</time>
      </trkpt>
      <trkpt lat="44.03652" lon="1.66856">
        <ele>115.01</ele>
        <time>2021-08-17T19:09:27Z</time>
      </trkpt>
      <trkpt lat="44.0364" lon="1.66853">
        <ele>116.46</ele>
        <time>2021-08-17T19:09:31Z</time>
      </trkpt>
      <trkpt lat="44.03626" lon="1.66849">
        <ele>117.42</ele>
        <time>2021-08-17T19:09:38Z</time>
      </trkpt>
      <trkpt lat="44.03609" lon="1.66852">
        <ele>117.9</ele>
        <time>2021-08-17T19:09:45Z</time>
      </trkpt>
      <trkpt lat="44.03588" lon="1.66855">
        <ele>116.46</ele>
        <time>2021-08-17T19:09:51Z</time>
      </trkpt>
      <trkpt lat="44.03584" lon="1.66855">
        <ele>116.46</ele>
        <time>2021-08-17T19:09:52Z</time>
      </trkpt>
      <trkpt lat="44.03557" lon="1.66856">
        <ele>115.98</ele>
        <time>2021-08-17T19:09:59Z</time>
      </trkpt>
      <trkpt lat="44.03552" lon="1.66857">
        <ele>115.98</ele>
        <time>2021-08-17T19:10:04Z</time>
      </trkpt>
      <trkpt lat="44.03553" lon="1.66862">
        <ele>115.5</ele>
        <time>2021-08-17T19:10:10Z</time>
      </trkpt>
      <trkpt lat="44.0355" lon="1.66871">
        <ele>115.5</ele>
        <time>2021-08-17T19:10:17Z</time>
      </trkpt>
      <trkpt lat="44.03549" lon="1.66875">
        <ele>115.01</ele>
        <time>2021-08-17T19:10:22Z</time>
      </trkpt>
      <trkpt lat="44.03549" lon="1.66881">
        <ele>114.53</ele>
        <time>2021-08-17T19:10:29Z</time>
      </trkpt>
      <trkpt lat="44.03553" lon="1.66884">
        <ele>114.53</ele>
        <time>2021-08-17T19:10:36Z</time>
      </trkpt>
      <trkpt lat="44.03568" lon="1.66885">
        <ele>114.53</ele>
        <time>2021-08-17T19:10:42Z</time>
      </trkpt>
      <trkpt lat="44.03588" lon="1.66887">
        <ele>114.53</ele>
        <time>2021-08-17T19:10:50Z</time>
      </trkpt>
      <trkpt lat="44.03605" lon="1.66892">
        <ele>114.53</ele>
        <time>2021-08-17T19:10:58Z</time>
      </trkpt>
      <trkpt lat="44.03608" lon="1.66896">
        <ele>115.98</ele>
        <time>2021-08-17T19:11:01Z</time>
      </trkpt>
      <trkpt lat="44.03614" lon="1.66904">
        <ele>116.94</ele>
        <time>2021-08-17T19:11:09Z</time>
      </trkpt>
      <trkpt lat="44.0362" lon="1.66912">
        <ele>118.86</ele>
        <time>2021-08-17T19:11:18Z</time>
      </trkpt>
      <trkpt lat="44.03623" lon="1.66919">
        <ele>120.3</ele>
        <time>2021-08-17T19:11:26Z</time>
      </trkpt>
      <trkpt lat="44.03625" lon="1.66926">
        <ele>120.78</ele>
        <time>2021-08-17T19:11:33Z</time>
      </trkpt>
      <trkpt lat="44.03625" lon="1.66928">
        <ele>120.78</ele>
        <time>2021-08-17T19:11:34Z</time>
      </trkpt>
      <trkpt lat="44.03624" lon="1.66931">
        <ele>120.3</ele>
        <time>2021-08-17T19:11:42Z</time>
      </trkpt>
      <trkpt lat="44.03623" lon="1.6693">
        <ele>120.78</ele>
        <time>2021-08-17T19:11:56Z</time>
      </trkpt>
      <trkpt lat="44.03623" lon="1.66932">
        <ele>120.78</ele>
        <time>2021-08-17T19:12:11Z</time>
      </trkpt>
      <trkpt lat="44.03624" lon="1.66932">
        <ele>120.78</ele>
        <time>2021-08-17T19:12:27Z</time>
      </trkpt>
      <trkpt lat="44.03622" lon="1.66932">
        <ele>120.78</ele>
        <time>2021-08-17T19:12:46Z</time>
      </trkpt>
      <trkpt lat="44.03623" lon="1.66938">
        <ele>121.26</ele>
        <time>2021-08-17T19:12:55Z</time>
      </trkpt>
      <trkpt lat="44.03624" lon="1.66946">
        <ele>122.22</ele>
        <time>2021-08-17T19:13:03Z</time>
      </trkpt>
      <trkpt lat="44.03624" lon="1.66949">
        <ele>122.71</ele>
        <time>2021-08-17T19:13:11Z</time>
      </trkpt>
      <trkpt lat="44.03626" lon="1.6696">
        <ele>124.63</ele>
        <time>2021-08-17T19:13:20Z</time>
      </trkpt>
      <trkpt lat="44.03625" lon="1.66971">
        <ele>125.59</ele>
        <time>2021-08-17T19:13:29Z</time>
      </trkpt>
      <trkpt lat="44.03619" lon="1.66982">
        <ele>127.03</ele>
        <time>2021-08-17T19:13:39Z</time>
      </trkpt>
      <trkpt lat="44.03615" lon="1.66987">
        <ele>127.99</ele>
        <time>2021-08-17T19:13:47Z</time>
      </trkpt>
      <trkpt lat="44.03612" lon="1.66988">
        <ele>128.47</ele>
        <time>2021-08-17T19:13:55Z</time>
      </trkpt>
      <trkpt lat="44.03609" lon="1.66987">
        <ele>128.47</ele>
        <time>2021-08-17T19:13:57Z</time>
      </trkpt>
      <trkpt lat="44.03608" lon="1.66986">
        <ele>128.47</ele>
        <time>2021-08-17T19:13:58Z</time>
      </trkpt>
      <trkpt lat="44.03607" lon="1.66985">
        <ele>128.95</ele>
        <time>2021-08-17T19:13:59Z</time>
      </trkpt>
      <trkpt lat="44.03606" lon="1.66985">
        <ele>128.95</ele>
        <time>2021-08-17T19:14:00Z</time>
      </trkpt>
      <trkpt lat="44.03604" lon="1.66984">
        <ele>128.95</ele>
        <time>2021-08-17T19:14:01Z</time>
      </trkpt>
      <trkpt lat="44.03603" lon="1.66984">
        <ele>128.95</ele>
        <time>2021-08-17T19:14:02Z</time>
      </trkpt>
      <trkpt lat="44.03602" lon="1.66983">
        <ele>129.43</ele>
        <time>2021-08-17T19:14:03Z</time>
      </trkpt>
      <trkpt lat="44.036" lon="1.66982">
        <ele>129.43</ele>
        <time>2021-08-17T19:14:04Z</time>
      </trkpt>
      <trkpt lat="44.03599" lon="1.66982">
        <ele>129.43</ele>
        <time>2021-08-17T19:14:05Z</time>
      </trkpt>
      <trkpt lat="44.03598" lon="1.66982">
        <ele>129.92</ele>
        <time>2021-08-17T19:14:06Z</time>
      </trkpt>
      <trkpt lat="44.03597" lon="1.66981">
        <ele>129.92</ele>
        <time>2021-08-17T19:14:07Z</time>
      </trkpt>
      <trkpt lat="44.03595" lon="1.66981">
        <ele>129.92</ele>
        <time>2021-08-17T19:14:08Z</time>
      </trkpt>
      <trkpt lat="44.03594" lon="1.6698">
        <ele>130.4</ele>
        <time>2021-08-17T19:14:09Z</time>
      </trkpt>
      <trkpt lat="44.03588" lon="1.66978">
        <ele>130.88</ele>
        <time>2021-08-17T19:14:13Z</time>
      </trkpt>
      <trkpt lat="44.03583" lon="1.66977">
        <ele>131.36</ele>
        <time>2021-08-17T19:14:16Z</time>
      </trkpt>
      <trkpt lat="44.03582" lon="1.66976">
        <ele>131.36</ele>
        <time>2021-08-17T19:14:17Z</time>
      </trkpt>
      <trkpt lat="44.03565" lon="1.66974">
        <ele>131.84</ele>
        <time>2021-08-17T19:14:25Z</time>
      </trkpt>
      <trkpt lat="44.03555" lon="1.66974">
        <ele>132.32</ele>
        <time>2021-08-17T19:14:31Z</time>
      </trkpt>
      <trkpt lat="44.03554" lon="1.66973">
        <ele>132.32</ele>
        <time>2021-08-17T19:14:32Z</time>
      </trkpt>
      <trkpt lat="44.03536" lon="1.6697">
        <ele>132.8</ele>
        <time>2021-08-17T19:14:41Z</time>
      </trkpt>
      <trkpt lat="44.03517" lon="1.66968">
        <ele>133.28</ele>
        <time>2021-08-17T19:14:50Z</time>
      </trkpt>
      <trkpt lat="44.03501" lon="1.66964">
        <ele>133.76</ele>
        <time>2021-08-17T19:14:57Z</time>
      </trkpt>
      <trkpt lat="44.03483" lon="1.66959">
        <ele>134.72</ele>
        <time>2021-08-17T19:15:05Z</time>
      </trkpt>
      <trkpt lat="44.03467" lon="1.66956">
        <ele>136.16</ele>
        <time>2021-08-17T19:15:14Z</time>
      </trkpt>
      <trkpt lat="44.03449" lon="1.66955">
        <ele>136.16</ele>
        <time>2021-08-17T19:15:22Z</time>
      </trkpt>
      <trkpt lat="44.03426" lon="1.66958">
        <ele>136.16</ele>
        <time>2021-08-17T19:15:30Z</time>
      </trkpt>
      <trkpt lat="44.03403" lon="1.66967">
        <ele>136.16</ele>
        <time>2021-08-17T19:15:38Z</time>
      </trkpt>
      <trkpt lat="44.03385" lon="1.66981">
        <ele>135.2</ele>
        <time>2021-08-17T19:15:45Z</time>
      </trkpt>
      <trkpt lat="44.03382" lon="1.66984">
        <ele>135.2</ele>
        <time>2021-08-17T19:15:46Z</time>
      </trkpt>
      <trkpt lat="44.03371" lon="1.66999">
        <ele>134.72</ele>
        <time>2021-08-17T19:15:52Z</time>
      </trkpt>
      <trkpt lat="44.03372" lon="1.66998">
        <ele>134.72</ele>
        <time>2021-08-17T19:15:54Z</time>
      </trkpt>
      <trkpt lat="44.03373" lon="1.66997">
        <ele>134.72</ele>
        <time>2021-08-17T19:15:59Z</time>
      </trkpt>
      <trkpt lat="44.03373" lon="1.66996">
        <ele>134.72</ele>
        <time>2021-08-17T19:16:02Z</time>
      </trkpt>
      <trkpt lat="44.03374" lon="1.66994">
        <ele>134.72</ele>
        <time>2021-08-17T19:16:03Z</time>
      </trkpt>
      <trkpt lat="44.03385" lon="1.66981">
        <ele>134.72</ele>
        <time>2021-08-17T19:16:10Z</time>
      </trkpt>
      <trkpt lat="44.03397" lon="1.6697">
        <ele>134.72</ele>
        <time>2021-08-17T19:16:17Z</time>
      </trkpt>
      <trkpt lat="44.03399" lon="1.66968">
        <ele>134.72</ele>
        <time>2021-08-17T19:16:19Z</time>
      </trkpt>
      <trkpt lat="44.03399" lon="1.66966">
        <ele>134.72</ele>
        <time>2021-08-17T19:16:20Z</time>
      </trkpt>
      <trkpt lat="44.03398" lon="1.66964">
        <ele>136.16</ele>
        <time>2021-08-17T19:16:22Z</time>
      </trkpt>
      <trkpt lat="44.03397" lon="1.66965">
        <ele>136.16</ele>
        <time>2021-08-17T19:16:23Z</time>
      </trkpt>
      <trkpt lat="44.03383" lon="1.66968">
        <ele>137.61</ele>
        <time>2021-08-17T19:16:32Z</time>
      </trkpt>
      <trkpt lat="44.03376" lon="1.66969">
        <ele>138.57</ele>
        <time>2021-08-17T19:16:39Z</time>
      </trkpt>
      <trkpt lat="44.03366" lon="1.66972">
        <ele>140.01</ele>
        <time>2021-08-17T19:16:50Z</time>
      </trkpt>
      <trkpt lat="44.03354" lon="1.6698">
        <ele>140.97</ele>
        <time>2021-08-17T19:17:01Z</time>
      </trkpt>
      <trkpt lat="44.0335" lon="1.66983">
        <ele>141.45</ele>
        <time>2021-08-17T19:17:09Z</time>
      </trkpt>
      <trkpt lat="44.03346" lon="1.66987">
        <ele>142.41</ele>
        <time>2021-08-17T19:17:19Z</time>
      </trkpt>
      <trkpt lat="44.03339" lon="1.66995">
        <ele>144.34</ele>
        <time>2021-08-17T19:17:29Z</time>
      </trkpt>
      <trkpt lat="44.03333" lon="1.67005">
        <ele>145.3</ele>
        <time>2021-08-17T19:17:39Z</time>
      </trkpt>
      <trkpt lat="44.03326" lon="1.67019">
        <ele>147.22</ele>
        <time>2021-08-17T19:17:51Z</time>
      </trkpt>
      <trkpt lat="44.03318" lon="1.67028">
        <ele>148.18</ele>
        <time>2021-08-17T19:18:01Z</time>
      </trkpt>
      <trkpt lat="44.03311" lon="1.67035">
        <ele>149.14</ele>
        <time>2021-08-17T19:18:10Z</time>
      </trkpt>
      <trkpt lat="44.03302" lon="1.67046">
        <ele>150.58</ele>
        <time>2021-08-17T19:18:20Z</time>
      </trkpt>
      <trkpt lat="44.03295" lon="1.67057">
        <ele>152.03</ele>
        <time>2021-08-17T19:18:31Z</time>
      </trkpt>
      <trkpt lat="44.03293" lon="1.67061">
        <ele>152.51</ele>
        <time>2021-08-17T19:18:37Z</time>
      </trkpt>
      <trkpt lat="44.03288" lon="1.67066">
        <ele>152.99</ele>
        <time>2021-08-17T19:18:43Z</time>
      </trkpt>
      <trkpt lat="44.0328" lon="1.67075">
        <ele>154.43</ele>
        <time>2021-08-17T19:18:54Z</time>
      </trkpt>
      <trkpt lat="44.03273" lon="1.67081">
        <ele>155.39</ele>
        <time>2021-08-17T19:19:03Z</time>
      </trkpt>
      <trkpt lat="44.0327" lon="1.67083">
        <ele>155.39</ele>
        <time>2021-08-17T19:19:12Z</time>
      </trkpt>
      <trkpt lat="44.03259" lon="1.67089">
        <ele>156.35</ele>
        <time>2021-08-17T19:19:19Z</time>
      </trkpt>
      <trkpt lat="44.03247" lon="1.671">
        <ele>158.27</ele>
        <time>2021-08-17T19:19:29Z</time>
      </trkpt>
      <trkpt lat="44.03246" lon="1.67102">
        <ele>158.27</ele>
        <time>2021-08-17T19:19:35Z</time>
      </trkpt>
      <trkpt lat="44.03247" lon="1.67111">
        <ele>158.75</ele>
        <time>2021-08-17T19:19:39Z</time>
      </trkpt>
      <trkpt lat="44.03244" lon="1.67113">
        <ele>159.24</ele>
        <time>2021-08-17T19:19:43Z</time>
      </trkpt>
      <trkpt lat="44.03244" lon="1.67114">
        <ele>159.24</ele>
        <time>2021-08-17T19:19:44Z</time>
      </trkpt>
      <trkpt lat="44.03238" lon="1.6712">
        <ele>160.68</ele>
        <time>2021-08-17T19:19:52Z</time>
      </trkpt>
      <trkpt lat="44.03232" lon="1.67126">
        <ele>162.12</ele>
        <time>2021-08-17T19:20:02Z</time>
      </trkpt>
      <trkpt lat="44.03228" lon="1.67132">
        <ele>163.56</ele>
        <time>2021-08-17T19:20:11Z</time>
      </trkpt>
      <trkpt lat="44.03224" lon="1.6714">
        <ele>164.52</ele>
        <time>2021-08-17T19:20:20Z</time>
      </trkpt>
      <trkpt lat="44.03219" lon="1.67147">
        <ele>165.48</ele>
        <time>2021-08-17T19:20:28Z</time>
      </trkpt>
      <trkpt lat="44.03217" lon="1.67149">
        <ele>165.96</ele>
        <time>2021-08-17T19:20:31Z</time>
      </trkpt>
      <trkpt lat="44.03211" lon="1.67158">
        <ele>167.41</ele>
        <time>2021-08-17T19:20:40Z</time>
      </trkpt>
      <trkpt lat="44.03202" lon="1.67165">
        <ele>168.85</ele>
        <time>2021-08-17T19:20:50Z</time>
      </trkpt>
      <trkpt lat="44.03193" lon="1.67169">
        <ele>169.81</ele>
        <time>2021-08-17T19:20:59Z</time>
      </trkpt>
      <trkpt lat="44.03184" lon="1.67177">
        <ele>170.77</ele>
        <time>2021-08-17T19:21:09Z</time>
      </trkpt>
      <trkpt lat="44.03177" lon="1.67184">
        <ele>171.73</ele>
        <time>2021-08-17T19:21:18Z</time>
      </trkpt>
      <trkpt lat="44.0317" lon="1.67191">
        <ele>172.69</ele>
        <time>2021-08-17T19:21:28Z</time>
      </trkpt>
      <trkpt lat="44.03164" lon="1.67195">
        <ele>173.17</ele>
        <time>2021-08-17T19:21:36Z</time>
      </trkpt>
      <trkpt lat="44.03159" lon="1.67198">
        <ele>173.17</ele>
        <time>2021-08-17T19:21:43Z</time>
      </trkpt>
      <trkpt lat="44.03144" lon="1.67206">
        <ele>173.66</ele>
        <time>2021-08-17T19:21:51Z</time>
      </trkpt>
      <trkpt lat="44.03129" lon="1.67212">
        <ele>174.14</ele>
        <time>2021-08-17T19:21:59Z</time>
      </trkpt>
      <trkpt lat="44.03112" lon="1.67221">
        <ele>174.62</ele>
        <time>2021-08-17T19:22:07Z</time>
      </trkpt>
      <trkpt lat="44.03093" lon="1.67229">
        <ele>175.58</ele>
        <time>2021-08-17T19:22:15Z</time>
      </trkpt>
      <trkpt lat="44.03091" lon="1.6723">
        <ele>175.58</ele>
        <time>2021-08-17T19:22:16Z</time>
      </trkpt>
      <trkpt lat="44.03089" lon="1.67231">
        <ele>176.06</ele>
        <time>2021-08-17T19:22:17Z</time>
      </trkpt>
      <trkpt lat="44.03075" lon="1.67239">
        <ele>176.54</ele>
        <time>2021-08-17T19:22:25Z</time>
      </trkpt>
      <trkpt lat="44.03064" lon="1.67244">
        <ele>177.5</ele>
        <time>2021-08-17T19:22:32Z</time>
      </trkpt>
      <trkpt lat="44.0306" lon="1.67245">
        <ele>177.98</ele>
        <time>2021-08-17T19:22:35Z</time>
      </trkpt>
      <trkpt lat="44.03059" lon="1.67246">
        <ele>177.98</ele>
        <time>2021-08-17T19:22:36Z</time>
      </trkpt>
      <trkpt lat="44.03057" lon="1.67246">
        <ele>178.94</ele>
        <time>2021-08-17T19:22:37Z</time>
      </trkpt>
      <trkpt lat="44.03056" lon="1.67247">
        <ele>178.94</ele>
        <time>2021-08-17T19:22:38Z</time>
      </trkpt>
      <trkpt lat="44.03055" lon="1.67247">
        <ele>178.94</ele>
        <time>2021-08-17T19:22:39Z</time>
      </trkpt>
      <trkpt lat="44.03045" lon="1.67252">
        <ele>180.38</ele>
        <time>2021-08-17T19:22:47Z</time>
      </trkpt>
      <trkpt lat="44.03041" lon="1.67255">
        <ele>180.87</ele>
        <time>2021-08-17T19:22:53Z</time>
      </trkpt>
      <trkpt lat="44.03034" lon="1.6726">
        <ele>181.83</ele>
        <time>2021-08-17T19:23:02Z</time>
      </trkpt>
      <trkpt lat="44.0303" lon="1.67264">
        <ele>182.31</ele>
        <time>2021-08-17T19:23:10Z</time>
      </trkpt>
      <trkpt lat="44.03027" lon="1.67265">
        <ele>182.79</ele>
        <time>2021-08-17T19:23:24Z</time>
      </trkpt>
      <trkpt lat="44.0302" lon="1.67274">
        <ele>183.75</ele>
        <time>2021-08-17T19:23:34Z</time>
      </trkpt>
      <trkpt lat="44.03015" lon="1.67279">
        <ele>185.19</ele>
        <time>2021-08-17T19:23:42Z</time>
      </trkpt>
      <trkpt lat="44.03009" lon="1.67287">
        <ele>186.15</ele>
        <time>2021-08-17T19:23:52Z</time>
      </trkpt>
      <trkpt lat="44.03002" lon="1.67295">
        <ele>188.08</ele>
        <time>2021-08-17T19:24:02Z</time>
      </trkpt>
      <trkpt lat="44.02994" lon="1.67305">
        <ele>189.52</ele>
        <time>2021-08-17T19:24:15Z</time>
      </trkpt>
      <trkpt lat="44.02988" lon="1.67312">
        <ele>191.44</ele>
        <time>2021-08-17T19:24:26Z</time>
      </trkpt>
      <trkpt lat="44.02984" lon="1.67319">
        <ele>192.88</ele>
        <time>2021-08-17T19:24:35Z</time>
      </trkpt>
      <trkpt lat="44.0298" lon="1.67325">
        <ele>193.84</ele>
        <time>2021-08-17T19:24:43Z</time>
      </trkpt>
      <trkpt lat="44.02978" lon="1.67332">
        <ele>194.8</ele>
        <time>2021-08-17T19:24:50Z</time>
      </trkpt>
      <trkpt lat="44.02973" lon="1.67341">
        <ele>196.25</ele>
        <time>2021-08-17T19:25:01Z</time>
      </trkpt>
      <trkpt lat="44.02972" lon="1.67341">
        <ele>196.73</ele>
        <time>2021-08-17T19:25:17Z</time>
      </trkpt>
      <trkpt lat="44.02966" lon="1.67347">
        <ele>198.17</ele>
        <time>2021-08-17T19:25:25Z</time>
      </trkpt>
      <trkpt lat="44.02961" lon="1.6735">
        <ele>199.61</ele>
        <time>2021-08-17T19:25:32Z</time>
      </trkpt>
      <trkpt lat="44.02957" lon="1.67353">
        <ele>200.57</ele>
        <time>2021-08-17T19:25:40Z</time>
      </trkpt>
      <trkpt lat="44.02951" lon="1.67359">
        <ele>202.49</ele>
        <time>2021-08-17T19:25:49Z</time>
      </trkpt>
      <trkpt lat="44.02947" lon="1.67367">
        <ele>202.98</ele>
        <time>2021-08-17T19:25:58Z</time>
      </trkpt>
      <trkpt lat="44.02942" lon="1.67375">
        <ele>204.42</ele>
        <time>2021-08-17T19:26:08Z</time>
      </trkpt>
      <trkpt lat="44.02936" lon="1.67382">
        <ele>205.86</ele>
        <time>2021-08-17T19:26:18Z</time>
      </trkpt>
      <trkpt lat="44.02931" lon="1.67389">
        <ele>207.3</ele>
        <time>2021-08-17T19:26:26Z</time>
      </trkpt>
      <trkpt lat="44.02925" lon="1.67399">
        <ele>208.74</ele>
        <time>2021-08-17T19:26:36Z</time>
      </trkpt>
      <trkpt lat="44.02924" lon="1.674">
        <ele>208.74</ele>
        <time>2021-08-17T19:26:37Z</time>
      </trkpt>
      <trkpt lat="44.02923" lon="1.67401">
        <ele>208.74</ele>
        <time>2021-08-17T19:26:38Z</time>
      </trkpt>
      <trkpt lat="44.02915" lon="1.67413">
        <ele>210.67</ele>
        <time>2021-08-17T19:26:50Z</time>
      </trkpt>
      <trkpt lat="44.02908" lon="1.67423">
        <ele>211.63</ele>
        <time>2021-08-17T19:26:59Z</time>
      </trkpt>
      <trkpt lat="44.02901" lon="1.67433">
        <ele>212.59</ele>
        <time>2021-08-17T19:27:09Z</time>
      </trkpt>
      <trkpt lat="44.02893" lon="1.67443">
        <ele>213.55</ele>
        <time>2021-08-17T19:27:18Z</time>
      </trkpt>
      <trkpt lat="44.02885" lon="1.67453">
        <ele>215.47</ele>
        <time>2021-08-17T19:27:28Z</time>
      </trkpt>
      <trkpt lat="44.0288" lon="1.67465">
        <ele>216.43</ele>
        <time>2021-08-17T19:27:37Z</time>
      </trkpt>
      <trkpt lat="44.02874" lon="1.67475">
        <ele>217.4</ele>
        <time>2021-08-17T19:27:46Z</time>
      </trkpt>
      <trkpt lat="44.02868" lon="1.67486">
        <ele>219.32</ele>
        <time>2021-08-17T19:27:57Z</time>
      </trkpt>
      <trkpt lat="44.02862" lon="1.67496">
        <ele>220.76</ele>
        <time>2021-08-17T19:28:07Z</time>
      </trkpt>
      <trkpt lat="44.02857" lon="1.67505">
        <ele>222.2</ele>
        <time>2021-08-17T19:28:16Z</time>
      </trkpt>
      <trkpt lat="44.02851" lon="1.67516">
        <ele>223.64</ele>
        <time>2021-08-17T19:28:28Z</time>
      </trkpt>
      <trkpt lat="44.02847" lon="1.67526">
        <ele>224.61</ele>
        <time>2021-08-17T19:28:37Z</time>
      </trkpt>
      <trkpt lat="44.02844" lon="1.6754">
        <ele>226.53</ele>
        <time>2021-08-17T19:28:48Z</time>
      </trkpt>
      <trkpt lat="44.02842" lon="1.67549">
        <ele>227.97</ele>
        <time>2021-08-17T19:28:57Z</time>
      </trkpt>
      <trkpt lat="44.0284" lon="1.67557">
        <ele>228.93</ele>
        <time>2021-08-17T19:29:05Z</time>
      </trkpt>
      <trkpt lat="44.02836" lon="1.67566">
        <ele>230.37</ele>
        <time>2021-08-17T19:29:15Z</time>
      </trkpt>
      <trkpt lat="44.02832" lon="1.67574">
        <ele>231.33</ele>
        <time>2021-08-17T19:29:24Z</time>
      </trkpt>
      <trkpt lat="44.02829" lon="1.67584">
        <ele>233.26</ele>
        <time>2021-08-17T19:29:34Z</time>
      </trkpt>
      <trkpt lat="44.02828" lon="1.67584">
        <ele>233.26</ele>
        <time>2021-08-17T19:29:39Z</time>
      </trkpt>
      <trkpt lat="44.02829" lon="1.67585">
        <ele>233.26</ele>
        <time>2021-08-17T19:29:48Z</time>
      </trkpt>
      <trkpt lat="44.02828" lon="1.67591">
        <ele>233.74</ele>
        <time>2021-08-17T19:30:01Z</time>
      </trkpt>
      <trkpt lat="44.02826" lon="1.67601">
        <ele>235.66</ele>
        <time>2021-08-17T19:30:11Z</time>
      </trkpt>
      <trkpt lat="44.02822" lon="1.67607">
        <ele>236.62</ele>
        <time>2021-08-17T19:30:18Z</time>
      </trkpt>
      <trkpt lat="44.02818" lon="1.67616">
        <ele>238.54</ele>
        <time>2021-08-17T19:30:30Z</time>
      </trkpt>
      <trkpt lat="44.02816" lon="1.67625">
        <ele>239.99</ele>
        <time>2021-08-17T19:30:38Z</time>
      </trkpt>
      <trkpt lat="44.02814" lon="1.67634">
        <ele>241.43</ele>
        <time>2021-08-17T19:30:47Z</time>
      </trkpt>
      <trkpt lat="44.02812" lon="1.67642">
        <ele>242.87</ele>
        <time>2021-08-17T19:30:56Z</time>
      </trkpt>
      <trkpt lat="44.0281" lon="1.67649">
        <ele>244.31</ele>
        <time>2021-08-17T19:31:05Z</time>
      </trkpt>
      <trkpt lat="44.02808" lon="1.67657">
        <ele>245.75</ele>
        <time>2021-08-17T19:31:14Z</time>
      </trkpt>
      <trkpt lat="44.02804" lon="1.67666">
        <ele>246.72</ele>
        <time>2021-08-17T19:31:24Z</time>
      </trkpt>
      <trkpt lat="44.02802" lon="1.67672">
        <ele>247.68</ele>
        <time>2021-08-17T19:31:31Z</time>
      </trkpt>
      <trkpt lat="44.02799" lon="1.67679">
        <ele>249.6</ele>
        <time>2021-08-17T19:31:40Z</time>
      </trkpt>
      <trkpt lat="44.02798" lon="1.67684">
        <ele>250.56</ele>
        <time>2021-08-17T19:31:47Z</time>
      </trkpt>
      <trkpt lat="44.02797" lon="1.67686">
        <ele>251.04</ele>
        <time>2021-08-17T19:31:54Z</time>
      </trkpt>
      <trkpt lat="44.02795" lon="1.67694">
        <ele>252</ele>
        <time>2021-08-17T19:32:03Z</time>
      </trkpt>
      <trkpt lat="44.02792" lon="1.67704">
        <ele>253.44</ele>
        <time>2021-08-17T19:32:13Z</time>
      </trkpt>
      <trkpt lat="44.02786" lon="1.6771">
        <ele>254.41</ele>
        <time>2021-08-17T19:32:22Z</time>
      </trkpt>
      <trkpt lat="44.02782" lon="1.67716">
        <ele>255.37</ele>
        <time>2021-08-17T19:32:30Z</time>
      </trkpt>
      <trkpt lat="44.02778" lon="1.67723">
        <ele>257.29</ele>
        <time>2021-08-17T19:32:39Z</time>
      </trkpt>
      <trkpt lat="44.02775" lon="1.67731">
        <ele>258.73</ele>
        <time>2021-08-17T19:32:48Z</time>
      </trkpt>
      <trkpt lat="44.02774" lon="1.67735">
        <ele>259.21</ele>
        <time>2021-08-17T19:32:56Z</time>
      </trkpt>
      <trkpt lat="44.02774" lon="1.6774">
        <ele>260.17</ele>
        <time>2021-08-17T19:33:04Z</time>
      </trkpt>
      <trkpt lat="44.02773" lon="1.67746">
        <ele>261.62</ele>
        <time>2021-08-17T19:33:11Z</time>
      </trkpt>
      <trkpt lat="44.02772" lon="1.67753">
        <ele>262.58</ele>
        <time>2021-08-17T19:33:19Z</time>
      </trkpt>
      <trkpt lat="44.02771" lon="1.6776">
        <ele>264.5</ele>
        <time>2021-08-17T19:33:27Z</time>
      </trkpt>
      <trkpt lat="44.0277" lon="1.67767">
        <ele>265.46</ele>
        <time>2021-08-17T19:33:35Z</time>
      </trkpt>
      <trkpt lat="44.02767" lon="1.67774">
        <ele>266.9</ele>
        <time>2021-08-17T19:33:43Z</time>
      </trkpt>
      <trkpt lat="44.02765" lon="1.67781">
        <ele>267.86</ele>
        <time>2021-08-17T19:33:52Z</time>
      </trkpt>
      <trkpt lat="44.02766" lon="1.67788">
        <ele>268.83</ele>
        <time>2021-08-17T19:34:01Z</time>
      </trkpt>
      <trkpt lat="44.02768" lon="1.67796">
        <ele>270.27</ele>
        <time>2021-08-17T19:34:10Z</time>
      </trkpt>
      <trkpt lat="44.02768" lon="1.67804">
        <ele>271.71</ele>
        <time>2021-08-17T19:34:19Z</time>
      </trkpt>
      <trkpt lat="44.02768" lon="1.67809">
        <ele>272.67</ele>
        <time>2021-08-17T19:34:26Z</time>
      </trkpt>
      <trkpt lat="44.02767" lon="1.67817">
        <ele>274.11</ele>
        <time>2021-08-17T19:34:35Z</time>
      </trkpt>
      <trkpt lat="44.02766" lon="1.67823">
        <ele>274.59</ele>
        <time>2021-08-17T19:34:42Z</time>
      </trkpt>
      <trkpt lat="44.02765" lon="1.67831">
        <ele>276.04</ele>
        <time>2021-08-17T19:34:51Z</time>
      </trkpt>
      <trkpt lat="44.02765" lon="1.67839">
        <ele>277.48</ele>
        <time>2021-08-17T19:35:01Z</time>
      </trkpt>
      <trkpt lat="44.02766" lon="1.67849">
        <ele>278.92</ele>
        <time>2021-08-17T19:35:12Z</time>
      </trkpt>
      <trkpt lat="44.02767" lon="1.67856">
        <ele>279.88</ele>
        <time>2021-08-17T19:35:19Z</time>
      </trkpt>
      <trkpt lat="44.02767" lon="1.67856">
        <ele>280.36</ele>
        <time>2021-08-17T19:35:26Z</time>
      </trkpt>
      <trkpt lat="44.02768" lon="1.67857">
        <ele>280.36</ele>
        <time>2021-08-17T19:35:40Z</time>
      </trkpt>
      <trkpt lat="44.02768" lon="1.67867">
        <ele>281.8</ele>
        <time>2021-08-17T19:35:50Z</time>
      </trkpt>
      <trkpt lat="44.02768" lon="1.67876">
        <ele>283.73</ele>
        <time>2021-08-17T19:36:00Z</time>
      </trkpt>
      <trkpt lat="44.0277" lon="1.67884">
        <ele>284.69</ele>
        <time>2021-08-17T19:36:10Z</time>
      </trkpt>
      <trkpt lat="44.02774" lon="1.67892">
        <ele>286.61</ele>
        <time>2021-08-17T19:36:19Z</time>
      </trkpt>
      <trkpt lat="44.02777" lon="1.679">
        <ele>288.05</ele>
        <time>2021-08-17T19:36:28Z</time>
      </trkpt>
      <trkpt lat="44.02779" lon="1.6791">
        <ele>289.49</ele>
        <time>2021-08-17T19:36:40Z</time>
      </trkpt>
      <trkpt lat="44.02781" lon="1.67917">
        <ele>290.46</ele>
        <time>2021-08-17T19:36:48Z</time>
      </trkpt>
      <trkpt lat="44.02785" lon="1.67924">
        <ele>292.38</ele>
        <time>2021-08-17T19:36:57Z</time>
      </trkpt>
      <trkpt lat="44.02788" lon="1.67932">
        <ele>293.82</ele>
        <time>2021-08-17T19:37:06Z</time>
      </trkpt>
      <trkpt lat="44.02792" lon="1.67941">
        <ele>294.78</ele>
        <time>2021-08-17T19:37:15Z</time>
      </trkpt>
      <trkpt lat="44.02794" lon="1.6795">
        <ele>295.74</ele>
        <time>2021-08-17T19:37:23Z</time>
      </trkpt>
      <trkpt lat="44.02797" lon="1.67957">
        <ele>296.7</ele>
        <time>2021-08-17T19:37:29Z</time>
      </trkpt>
      <trkpt lat="44.02797" lon="1.67961">
        <ele>297.18</ele>
        <time>2021-08-17T19:37:33Z</time>
      </trkpt>
      <trkpt lat="44.02799" lon="1.67971">
        <ele>298.15</ele>
        <time>2021-08-17T19:37:40Z</time>
      </trkpt>
      <trkpt lat="44.028" lon="1.67979">
        <ele>299.11</ele>
        <time>2021-08-17T19:37:47Z</time>
      </trkpt>
      <trkpt lat="44.028" lon="1.67985">
        <ele>300.07</ele>
        <time>2021-08-17T19:37:55Z</time>
      </trkpt>
      <trkpt lat="44.028" lon="1.67987">
        <ele>300.07</ele>
        <time>2021-08-17T19:38:01Z</time>
      </trkpt>
      <trkpt lat="44.02802" lon="1.67995">
        <ele>301.03</ele>
        <time>2021-08-17T19:38:09Z</time>
      </trkpt>
      <trkpt lat="44.02804" lon="1.68005">
        <ele>302.95</ele>
        <time>2021-08-17T19:38:20Z</time>
      </trkpt>
      <trkpt lat="44.02805" lon="1.68013">
        <ele>304.39</ele>
        <time>2021-08-17T19:38:29Z</time>
      </trkpt>
      <trkpt lat="44.02805" lon="1.68019">
        <ele>305.36</ele>
        <time>2021-08-17T19:38:37Z</time>
      </trkpt>
      <trkpt lat="44.02806" lon="1.68027">
        <ele>306.32</ele>
        <time>2021-08-17T19:38:47Z</time>
      </trkpt>
      <trkpt lat="44.02805" lon="1.68034">
        <ele>308.72</ele>
        <time>2021-08-17T19:38:56Z</time>
      </trkpt>
      <trkpt lat="44.02802" lon="1.6804">
        <ele>309.68</ele>
        <time>2021-08-17T19:39:05Z</time>
      </trkpt>
      <trkpt lat="44.02798" lon="1.68045">
        <ele>310.64</ele>
        <time>2021-08-17T19:39:12Z</time>
      </trkpt>
      <trkpt lat="44.02793" lon="1.68051">
        <ele>312.09</ele>
        <time>2021-08-17T19:39:21Z</time>
      </trkpt>
      <trkpt lat="44.02792" lon="1.68057">
        <ele>313.53</ele>
        <time>2021-08-17T19:39:30Z</time>
      </trkpt>
      <trkpt lat="44.02789" lon="1.68062">
        <ele>314.49</ele>
        <time>2021-08-17T19:39:38Z</time>
      </trkpt>
      <trkpt lat="44.02785" lon="1.68068">
        <ele>314.97</ele>
        <time>2021-08-17T19:39:49Z</time>
      </trkpt>
      <trkpt lat="44.02784" lon="1.68077">
        <ele>316.41</ele>
        <time>2021-08-17T19:39:57Z</time>
      </trkpt>
      <trkpt lat="44.02786" lon="1.68081">
        <ele>316.89</ele>
        <time>2021-08-17T19:40:02Z</time>
      </trkpt>
      <trkpt lat="44.02792" lon="1.68086">
        <ele>317.85</ele>
        <time>2021-08-17T19:40:11Z</time>
      </trkpt>
      <trkpt lat="44.028" lon="1.68093">
        <ele>319.3</ele>
        <time>2021-08-17T19:40:21Z</time>
      </trkpt>
      <trkpt lat="44.02806" lon="1.68098">
        <ele>321.22</ele>
        <time>2021-08-17T19:40:31Z</time>
      </trkpt>
      <trkpt lat="44.02811" lon="1.68101">
        <ele>322.18</ele>
        <time>2021-08-17T19:40:39Z</time>
      </trkpt>
      <trkpt lat="44.02817" lon="1.68105">
        <ele>323.62</ele>
        <time>2021-08-17T19:40:50Z</time>
      </trkpt>
      <trkpt lat="44.02822" lon="1.68108">
        <ele>324.58</ele>
        <time>2021-08-17T19:40:58Z</time>
      </trkpt>
      <trkpt lat="44.02832" lon="1.68114">
        <ele>326.02</ele>
        <time>2021-08-17T19:41:11Z</time>
      </trkpt>
      <trkpt lat="44.02837" lon="1.68117">
        <ele>327.47</ele>
        <time>2021-08-17T19:41:20Z</time>
      </trkpt>
      <trkpt lat="44.02838" lon="1.68118">
        <ele>327.95</ele>
        <time>2021-08-17T19:41:35Z</time>
      </trkpt>
      <trkpt lat="44.0284" lon="1.68124">
        <ele>329.39</ele>
        <time>2021-08-17T19:41:44Z</time>
      </trkpt>
      <trkpt lat="44.02838" lon="1.68133">
        <ele>330.83</ele>
        <time>2021-08-17T19:41:54Z</time>
      </trkpt>
      <trkpt lat="44.02835" lon="1.68139">
        <ele>331.79</ele>
        <time>2021-08-17T19:42:03Z</time>
      </trkpt>
      <trkpt lat="44.02832" lon="1.68146">
        <ele>333.23</ele>
        <time>2021-08-17T19:42:13Z</time>
      </trkpt>
      <trkpt lat="44.02826" lon="1.68153">
        <ele>334.68</ele>
        <time>2021-08-17T19:42:23Z</time>
      </trkpt>
      <trkpt lat="44.02823" lon="1.68158">
        <ele>335.64</ele>
        <time>2021-08-17T19:42:32Z</time>
      </trkpt>
      <trkpt lat="44.0282" lon="1.68166">
        <ele>337.08</ele>
        <time>2021-08-17T19:42:43Z</time>
      </trkpt>
      <trkpt lat="44.02817" lon="1.68172">
        <ele>338.04</ele>
        <time>2021-08-17T19:42:51Z</time>
      </trkpt>
      <trkpt lat="44.02814" lon="1.68179">
        <ele>339.48</ele>
        <time>2021-08-17T19:43:00Z</time>
      </trkpt>
      <trkpt lat="44.02809" lon="1.68187">
        <ele>340.92</ele>
        <time>2021-08-17T19:43:10Z</time>
      </trkpt>
      <trkpt lat="44.02807" lon="1.68196">
        <ele>341.89</ele>
        <time>2021-08-17T19:43:20Z</time>
      </trkpt>
      <trkpt lat="44.02804" lon="1.68203">
        <ele>343.81</ele>
        <time>2021-08-17T19:43:29Z</time>
      </trkpt>
      <trkpt lat="44.02803" lon="1.68211">
        <ele>345.25</ele>
        <time>2021-08-17T19:43:38Z</time>
      </trkpt>
      <trkpt lat="44.02801" lon="1.68217">
        <ele>346.21</ele>
        <time>2021-08-17T19:43:46Z</time>
      </trkpt>
      <trkpt lat="44.02799" lon="1.68226">
        <ele>348.13</ele>
        <time>2021-08-17T19:43:55Z</time>
      </trkpt>
      <trkpt lat="44.02797" lon="1.68236">
        <ele>349.1</ele>
        <time>2021-08-17T19:44:05Z</time>
      </trkpt>
      <trkpt lat="44.02796" lon="1.68239">
        <ele>349.1</ele>
        <time>2021-08-17T19:44:07Z</time>
      </trkpt>
      <trkpt lat="44.02791" lon="1.68251">
        <ele>350.54</ele>
        <time>2021-08-17T19:44:17Z</time>
      </trkpt>
      <trkpt lat="44.02788" lon="1.68259">
        <ele>351.02</ele>
        <time>2021-08-17T19:44:24Z</time>
      </trkpt>
      <trkpt lat="44.02787" lon="1.68268">
        <ele>351.98</ele>
        <time>2021-08-17T19:44:31Z</time>
      </trkpt>
      <trkpt lat="44.02788" lon="1.68272">
        <ele>352.94</ele>
        <time>2021-08-17T19:44:35Z</time>
      </trkpt>
      <trkpt lat="44.02788" lon="1.68274">
        <ele>352.94</ele>
        <time>2021-08-17T19:44:36Z</time>
      </trkpt>
      <trkpt lat="44.02788" lon="1.68282">
        <ele>353.9</ele>
        <time>2021-08-17T19:44:44Z</time>
      </trkpt>
      <trkpt lat="44.02786" lon="1.68292">
        <ele>355.34</ele>
        <time>2021-08-17T19:44:53Z</time>
      </trkpt>
      <trkpt lat="44.02786" lon="1.68294">
        <ele>355.34</ele>
        <time>2021-08-17T19:44:54Z</time>
      </trkpt>
      <trkpt lat="44.02785" lon="1.68304">
        <ele>356.31</ele>
        <time>2021-08-17T19:45:02Z</time>
      </trkpt>
      <trkpt lat="44.02783" lon="1.68318">
        <ele>357.27</ele>
        <time>2021-08-17T19:45:12Z</time>
      </trkpt>
      <trkpt lat="44.02784" lon="1.6833">
        <ele>358.71</ele>
        <time>2021-08-17T19:45:21Z</time>
      </trkpt>
      <trkpt lat="44.02784" lon="1.68331">
        <ele>358.71</ele>
        <time>2021-08-17T19:45:22Z</time>
      </trkpt>
      <trkpt lat="44.02783" lon="1.68337">
        <ele>359.19</ele>
        <time>2021-08-17T19:45:26Z</time>
      </trkpt>
      <trkpt lat="44.02782" lon="1.68347">
        <ele>359.19</ele>
        <time>2021-08-17T19:45:35Z</time>
      </trkpt>
      <trkpt lat="44.02781" lon="1.68348">
        <ele>359.19</ele>
        <time>2021-08-17T19:45:49Z</time>
      </trkpt>
      <trkpt lat="44.0278" lon="1.68346">
        <ele>359.19</ele>
        <time>2021-08-17T19:46:04Z</time>
      </trkpt>
      <trkpt lat="44.02781" lon="1.68346">
        <ele>359.67</ele>
        <time>2021-08-17T19:46:22Z</time>
      </trkpt>
      <trkpt lat="44.02781" lon="1.68346">
        <ele>359.67</ele>
        <time>2021-08-17T19:46:46Z</time>
      </trkpt>
      <trkpt lat="44.02783" lon="1.68348">
        <ele>359.67</ele>
        <time>2021-08-17T19:47:01Z</time>
      </trkpt>
      <trkpt lat="44.02783" lon="1.68348">
        <ele>359.67</ele>
        <time>2021-08-17T19:47:15Z</time>
      </trkpt>
      <trkpt lat="44.02784" lon="1.68349">
        <ele>359.67</ele>
        <time>2021-08-17T19:47:34Z</time>
      </trkpt>
      <trkpt lat="44.02782" lon="1.68348">
        <ele>359.67</ele>
        <time>2021-08-17T19:47:47Z</time>
      </trkpt>
      <trkpt lat="44.02781" lon="1.68348">
        <ele>359.67</ele>
        <time>2021-08-17T19:48:00Z</time>
      </trkpt>
      <trkpt lat="44.02782" lon="1.68348">
        <ele>359.67</ele>
        <time>2021-08-17T19:48:08Z</time>
      </trkpt>
      <trkpt lat="44.02782" lon="1.68348">
        <ele>359.67</ele>
        <time>2021-08-17T19:48:20Z</time>
      </trkpt>
      <trkpt lat="44.0278" lon="1.68347">
        <ele>359.67</ele>
        <time>2021-08-17T19:48:35Z</time>
      </trkpt>
      <trkpt lat="44.0278" lon="1.68347">
        <ele>359.67</ele>
        <time>2021-08-17T19:48:47Z</time>
      </trkpt>
      <trkpt lat="44.0278" lon="1.68347">
        <ele>359.67</ele>
        <time>2021-08-17T19:49:06Z</time>
      </trkpt>
      <trkpt lat="44.02779" lon="1.68347">
        <ele>359.67</ele>
        <time>2021-08-17T19:49:21Z</time>
      </trkpt>
      <trkpt lat="44.02781" lon="1.68346">
        <ele>359.67</ele>
        <time>2021-08-17T19:49:30Z</time>
      </trkpt>
      <trkpt lat="44.0278" lon="1.68346">
        <ele>359.67</ele>
        <time>2021-08-17T19:49:36Z</time>
      </trkpt>
      <trkpt lat="44.0278" lon="1.68351">
        <ele>359.67</ele>
        <time>2021-08-17T19:49:50Z</time>
      </trkpt>
      <trkpt lat="44.0278" lon="1.68355">
        <ele>359.67</ele>
        <time>2021-08-17T19:49:56Z</time>
      </trkpt>
      <trkpt lat="44.02781" lon="1.68354">
        <ele>359.67</ele>
        <time>2021-08-17T19:50:12Z</time>
      </trkpt>
      <trkpt lat="44.0278" lon="1.68358">
        <ele>359.67</ele>
        <time>2021-08-17T19:50:19Z</time>
      </trkpt>
      <trkpt lat="44.0278" lon="1.68361">
        <ele>359.67</ele>
        <time>2021-08-17T19:50:21Z</time>
      </trkpt>
      <trkpt lat="44.0278" lon="1.68363">
        <ele>359.67</ele>
        <time>2021-08-17T19:50:22Z</time>
      </trkpt>
      <trkpt lat="44.02779" lon="1.68366">
        <ele>359.67</ele>
        <time>2021-08-17T19:50:23Z</time>
      </trkpt>
      <trkpt lat="44.02779" lon="1.68368">
        <ele>359.67</ele>
        <time>2021-08-17T19:50:24Z</time>
      </trkpt>
      <trkpt lat="44.02779" lon="1.68371">
        <ele>360.15</ele>
        <time>2021-08-17T19:50:25Z</time>
      </trkpt>
      <trkpt lat="44.02779" lon="1.68391">
        <ele>360.63</ele>
        <time>2021-08-17T19:50:33Z</time>
      </trkpt>
      <trkpt lat="44.02779" lon="1.68394">
        <ele>360.63</ele>
        <time>2021-08-17T19:50:34Z</time>
      </trkpt>
      <trkpt lat="44.02779" lon="1.68397">
        <ele>360.63</ele>
        <time>2021-08-17T19:50:35Z</time>
      </trkpt>
      <trkpt lat="44.02779" lon="1.68399">
        <ele>361.11</ele>
        <time>2021-08-17T19:50:36Z</time>
      </trkpt>
      <trkpt lat="44.0278" lon="1.68402">
        <ele>361.11</ele>
        <time>2021-08-17T19:50:37Z</time>
      </trkpt>
      <trkpt lat="44.0278" lon="1.68404">
        <ele>361.11</ele>
        <time>2021-08-17T19:50:38Z</time>
      </trkpt>
      <trkpt lat="44.0278" lon="1.68406">
        <ele>361.11</ele>
        <time>2021-08-17T19:50:39Z</time>
      </trkpt>
      <trkpt lat="44.0278" lon="1.68408">
        <ele>361.11</ele>
        <time>2021-08-17T19:50:40Z</time>
      </trkpt>
      <trkpt lat="44.02781" lon="1.6841">
        <ele>361.59</ele>
        <time>2021-08-17T19:50:41Z</time>
      </trkpt>
      <trkpt lat="44.02781" lon="1.6842">
        <ele>361.59</ele>
        <time>2021-08-17T19:50:46Z</time>
      </trkpt>
      <trkpt lat="44.02781" lon="1.68423">
        <ele>362.07</ele>
        <time>2021-08-17T19:50:47Z</time>
      </trkpt>
      <trkpt lat="44.02782" lon="1.68426">
        <ele>362.07</ele>
        <time>2021-08-17T19:50:49Z</time>
      </trkpt>
      <trkpt lat="44.02782" lon="1.68428">
        <ele>362.07</ele>
        <time>2021-08-17T19:50:50Z</time>
      </trkpt>
      <trkpt lat="44.02782" lon="1.68436">
        <ele>362.55</ele>
        <time>2021-08-17T19:50:55Z</time>
      </trkpt>
      <trkpt lat="44.02782" lon="1.68438">
        <ele>362.55</ele>
        <time>2021-08-17T19:50:56Z</time>
      </trkpt>
      <trkpt lat="44.02782" lon="1.6844">
        <ele>362.55</ele>
        <time>2021-08-17T19:50:57Z</time>
      </trkpt>
      <trkpt lat="44.02781" lon="1.68442">
        <ele>362.55</ele>
        <time>2021-08-17T19:50:58Z</time>
      </trkpt>
      <trkpt lat="44.02781" lon="1.68445">
        <ele>362.55</ele>
        <time>2021-08-17T19:50:59Z</time>
      </trkpt>
      <trkpt lat="44.02777" lon="1.68458">
        <ele>361.11</ele>
        <time>2021-08-17T19:51:04Z</time>
      </trkpt>
      <trkpt lat="44.02773" lon="1.68479">
        <ele>359.19</ele>
        <time>2021-08-17T19:51:10Z</time>
      </trkpt>
      <trkpt lat="44.02771" lon="1.68503">
        <ele>358.23</ele>
        <time>2021-08-17T19:51:15Z</time>
      </trkpt>
      <trkpt lat="44.02765" lon="1.68535">
        <ele>355.83</ele>
        <time>2021-08-17T19:51:21Z</time>
      </trkpt>
      <trkpt lat="44.02758" lon="1.68575">
        <ele>352.94</ele>
        <time>2021-08-17T19:51:29Z</time>
      </trkpt>
      <trkpt lat="44.02747" lon="1.68607">
        <ele>351.02</ele>
        <time>2021-08-17T19:51:36Z</time>
      </trkpt>
      <trkpt lat="44.02749" lon="1.68631">
        <ele>349.58</ele>
        <time>2021-08-17T19:51:41Z</time>
      </trkpt>
      <trkpt lat="44.02741" lon="1.68654">
        <ele>348.62</ele>
        <time>2021-08-17T19:51:46Z</time>
      </trkpt>
      <trkpt lat="44.02727" lon="1.68692">
        <ele>347.65</ele>
        <time>2021-08-17T19:51:54Z</time>
      </trkpt>
      <trkpt lat="44.02725" lon="1.68699">
        <ele>347.65</ele>
        <time>2021-08-17T19:51:58Z</time>
      </trkpt>
      <trkpt lat="44.02724" lon="1.68701">
        <ele>347.65</ele>
        <time>2021-08-17T19:52:03Z</time>
      </trkpt>
      <trkpt lat="44.02723" lon="1.68704">
        <ele>347.65</ele>
        <time>2021-08-17T19:52:10Z</time>
      </trkpt>
      <trkpt lat="44.0272" lon="1.68715">
        <ele>347.65</ele>
        <time>2021-08-17T19:52:16Z</time>
      </trkpt>
      <trkpt lat="44.02712" lon="1.6874">
        <ele>347.65</ele>
        <time>2021-08-17T19:52:23Z</time>
      </trkpt>
      <trkpt lat="44.02704" lon="1.68773">
        <ele>349.1</ele>
        <time>2021-08-17T19:52:31Z</time>
      </trkpt>
      <trkpt lat="44.02697" lon="1.68795">
        <ele>349.58</ele>
        <time>2021-08-17T19:52:38Z</time>
      </trkpt>
      <trkpt lat="44.02684" lon="1.68824">
        <ele>350.06</ele>
        <time>2021-08-17T19:52:46Z</time>
      </trkpt>
      <trkpt lat="44.02671" lon="1.68852">
        <ele>350.54</ele>
        <time>2021-08-17T19:52:54Z</time>
      </trkpt>
      <trkpt lat="44.02661" lon="1.68873">
        <ele>351.5</ele>
        <time>2021-08-17T19:53:01Z</time>
      </trkpt>
      <trkpt lat="44.02652" lon="1.68898">
        <ele>352.46</ele>
        <time>2021-08-17T19:53:09Z</time>
      </trkpt>
      <trkpt lat="44.02649" lon="1.68907">
        <ele>352.94</ele>
        <time>2021-08-17T19:53:12Z</time>
      </trkpt>
      <trkpt lat="44.02645" lon="1.68923">
        <ele>354.38</ele>
        <time>2021-08-17T19:53:18Z</time>
      </trkpt>
      <trkpt lat="44.02643" lon="1.68926">
        <ele>354.38</ele>
        <time>2021-08-17T19:53:19Z</time>
      </trkpt>
      <trkpt lat="44.02642" lon="1.68928">
        <ele>354.38</ele>
        <time>2021-08-17T19:53:20Z</time>
      </trkpt>
      <trkpt lat="44.02641" lon="1.68931">
        <ele>354.38</ele>
        <time>2021-08-17T19:53:21Z</time>
      </trkpt>
      <trkpt lat="44.0264" lon="1.68933">
        <ele>354.86</ele>
        <time>2021-08-17T19:53:22Z</time>
      </trkpt>
      <trkpt lat="44.02638" lon="1.68935">
        <ele>354.86</ele>
        <time>2021-08-17T19:53:23Z</time>
      </trkpt>
      <trkpt lat="44.02637" lon="1.68937">
        <ele>354.86</ele>
        <time>2021-08-17T19:53:24Z</time>
      </trkpt>
      <trkpt lat="44.02635" lon="1.68939">
        <ele>355.34</ele>
        <time>2021-08-17T19:53:25Z</time>
      </trkpt>
      <trkpt lat="44.02626" lon="1.68957">
        <ele>355.34</ele>
        <time>2021-08-17T19:53:32Z</time>
      </trkpt>
      <trkpt lat="44.02615" lon="1.68974">
        <ele>355.83</ele>
        <time>2021-08-17T19:53:39Z</time>
      </trkpt>
      <trkpt lat="44.02603" lon="1.68996">
        <ele>355.83</ele>
        <time>2021-08-17T19:53:47Z</time>
      </trkpt>
      <trkpt lat="44.02593" lon="1.69022">
        <ele>355.83</ele>
        <time>2021-08-17T19:53:54Z</time>
      </trkpt>
      <trkpt lat="44.02586" lon="1.69061">
        <ele>354.86</ele>
        <time>2021-08-17T19:54:01Z</time>
      </trkpt>
      <trkpt lat="44.02585" lon="1.69067">
        <ele>354.86</ele>
        <time>2021-08-17T19:54:02Z</time>
      </trkpt>
      <trkpt lat="44.02584" lon="1.69073">
        <ele>354.86</ele>
        <time>2021-08-17T19:54:03Z</time>
      </trkpt>
      <trkpt lat="44.02584" lon="1.69077">
        <ele>354.86</ele>
        <time>2021-08-17T19:54:04Z</time>
      </trkpt>
      <trkpt lat="44.02584" lon="1.69109">
        <ele>354.86</ele>
        <time>2021-08-17T19:54:11Z</time>
      </trkpt>
      <trkpt lat="44.02588" lon="1.6914">
        <ele>355.83</ele>
        <time>2021-08-17T19:54:19Z</time>
      </trkpt>
      <trkpt lat="44.02591" lon="1.69158">
        <ele>356.79</ele>
        <time>2021-08-17T19:54:25Z</time>
      </trkpt>
      <trkpt lat="44.02591" lon="1.69164">
        <ele>357.27</ele>
        <time>2021-08-17T19:54:27Z</time>
      </trkpt>
      <trkpt lat="44.02591" lon="1.69167">
        <ele>357.27</ele>
        <time>2021-08-17T19:54:28Z</time>
      </trkpt>
      <trkpt lat="44.02592" lon="1.6917">
        <ele>357.27</ele>
        <time>2021-08-17T19:54:29Z</time>
      </trkpt>
      <trkpt lat="44.02593" lon="1.69173">
        <ele>357.75</ele>
        <time>2021-08-17T19:54:30Z</time>
      </trkpt>
      <trkpt lat="44.02593" lon="1.69176">
        <ele>358.23</ele>
        <time>2021-08-17T19:54:31Z</time>
      </trkpt>
      <trkpt lat="44.02594" lon="1.69183">
        <ele>358.71</ele>
        <time>2021-08-17T19:54:37Z</time>
      </trkpt>
      <trkpt lat="44.02595" lon="1.6919">
        <ele>360.15</ele>
        <time>2021-08-17T19:54:46Z</time>
      </trkpt>
      <trkpt lat="44.02598" lon="1.69202">
        <ele>361.59</ele>
        <time>2021-08-17T19:54:55Z</time>
      </trkpt>
      <trkpt lat="44.02601" lon="1.69212">
        <ele>363.04</ele>
        <time>2021-08-17T19:55:06Z</time>
      </trkpt>
      <trkpt lat="44.02603" lon="1.69219">
        <ele>364.48</ele>
        <time>2021-08-17T19:55:13Z</time>
      </trkpt>
      <trkpt lat="44.02606" lon="1.69225">
        <ele>364.96</ele>
        <time>2021-08-17T19:55:20Z</time>
      </trkpt>
      <trkpt lat="44.02607" lon="1.69227">
        <ele>364.96</ele>
        <time>2021-08-17T19:55:21Z</time>
      </trkpt>
      <trkpt lat="44.02611" lon="1.69236">
        <ele>366.4</ele>
        <time>2021-08-17T19:55:29Z</time>
      </trkpt>
      <trkpt lat="44.02617" lon="1.69246">
        <ele>367.84</ele>
        <time>2021-08-17T19:55:39Z</time>
      </trkpt>
      <trkpt lat="44.02624" lon="1.69255">
        <ele>369.28</ele>
        <time>2021-08-17T19:55:47Z</time>
      </trkpt>
      <trkpt lat="44.02625" lon="1.69256">
        <ele>369.28</ele>
        <time>2021-08-17T19:55:48Z</time>
      </trkpt>
      <trkpt lat="44.02627" lon="1.69259">
        <ele>369.76</ele>
        <time>2021-08-17T19:55:55Z</time>
      </trkpt>
      <trkpt lat="44.02628" lon="1.69259">
        <ele>369.76</ele>
        <time>2021-08-17T19:55:56Z</time>
      </trkpt>
      <trkpt lat="44.02629" lon="1.69259">
        <ele>369.76</ele>
        <time>2021-08-17T19:55:57Z</time>
      </trkpt>
      <trkpt lat="44.02631" lon="1.69259">
        <ele>369.76</ele>
        <time>2021-08-17T19:55:58Z</time>
      </trkpt>
      <trkpt lat="44.02633" lon="1.6926">
        <ele>369.76</ele>
        <time>2021-08-17T19:55:59Z</time>
      </trkpt>
      <trkpt lat="44.02635" lon="1.6926">
        <ele>369.76</ele>
        <time>2021-08-17T19:56:00Z</time>
      </trkpt>
      <trkpt lat="44.02637" lon="1.69261">
        <ele>369.76</ele>
        <time>2021-08-17T19:56:01Z</time>
      </trkpt>
      <trkpt lat="44.02658" lon="1.69266">
        <ele>370.24</ele>
        <time>2021-08-17T19:56:09Z</time>
      </trkpt>
      <trkpt lat="44.02681" lon="1.69271">
        <ele>368.32</ele>
        <time>2021-08-17T19:56:15Z</time>
      </trkpt>
      <trkpt lat="44.02709" lon="1.69276">
        <ele>367.84</ele>
        <time>2021-08-17T19:56:21Z</time>
      </trkpt>
      <trkpt lat="44.02723" lon="1.6928">
        <ele>367.36</ele>
        <time>2021-08-17T19:56:24Z</time>
      </trkpt>
      <trkpt lat="44.0275" lon="1.69285">
        <ele>367.36</ele>
        <time>2021-08-17T19:56:31Z</time>
      </trkpt>
      <trkpt lat="44.0278" lon="1.6929">
        <ele>367.36</ele>
        <time>2021-08-17T19:56:39Z</time>
      </trkpt>
      <trkpt lat="44.02806" lon="1.69293">
        <ele>365.44</ele>
        <time>2021-08-17T19:56:46Z</time>
      </trkpt>
      <trkpt lat="44.02818" lon="1.69293">
        <ele>364.48</ele>
        <time>2021-08-17T19:56:49Z</time>
      </trkpt>
      <trkpt lat="44.02842" lon="1.69293">
        <ele>362.55</ele>
        <time>2021-08-17T19:56:55Z</time>
      </trkpt>
      <trkpt lat="44.02876" lon="1.69296">
        <ele>359.19</ele>
        <time>2021-08-17T19:57:03Z</time>
      </trkpt>
      <trkpt lat="44.02901" lon="1.69295">
        <ele>357.27</ele>
        <time>2021-08-17T19:57:10Z</time>
      </trkpt>
      <trkpt lat="44.0291" lon="1.69295">
        <ele>355.83</ele>
        <time>2021-08-17T19:57:12Z</time>
      </trkpt>
      <trkpt lat="44.02914" lon="1.69296">
        <ele>355.83</ele>
        <time>2021-08-17T19:57:13Z</time>
      </trkpt>
      <trkpt lat="44.02919" lon="1.69298">
        <ele>355.34</ele>
        <time>2021-08-17T19:57:14Z</time>
      </trkpt>
      <trkpt lat="44.02929" lon="1.69304">
        <ele>354.38</ele>
        <time>2021-08-17T19:57:16Z</time>
      </trkpt>
      <trkpt lat="44.02955" lon="1.69319">
        <ele>353.9</ele>
        <time>2021-08-17T19:57:22Z</time>
      </trkpt>
      <trkpt lat="44.02963" lon="1.69323">
        <ele>356.79</ele>
        <time>2021-08-17T19:57:28Z</time>
      </trkpt>
      <trkpt lat="44.02969" lon="1.69323">
        <ele>357.75</ele>
        <time>2021-08-17T19:57:32Z</time>
      </trkpt>
      <trkpt lat="44.02971" lon="1.69323">
        <ele>357.75</ele>
        <time>2021-08-17T19:57:33Z</time>
      </trkpt>
      <trkpt lat="44.02973" lon="1.69323">
        <ele>357.75</ele>
        <time>2021-08-17T19:57:34Z</time>
      </trkpt>
      <trkpt lat="44.02986" lon="1.69325">
        <ele>357.75</ele>
        <time>2021-08-17T19:57:40Z</time>
      </trkpt>
      <trkpt lat="44.0301" lon="1.69329">
        <ele>357.75</ele>
        <time>2021-08-17T19:57:47Z</time>
      </trkpt>
      <trkpt lat="44.03019" lon="1.69332">
        <ele>356.79</ele>
        <time>2021-08-17T19:57:49Z</time>
      </trkpt>
      <trkpt lat="44.03023" lon="1.69334">
        <ele>356.79</ele>
        <time>2021-08-17T19:57:50Z</time>
      </trkpt>
      <trkpt lat="44.03058" lon="1.69355">
        <ele>353.9</ele>
        <time>2021-08-17T19:57:57Z</time>
      </trkpt>
      <trkpt lat="44.03102" lon="1.69383">
        <ele>351.5</ele>
        <time>2021-08-17T19:58:05Z</time>
      </trkpt>
      <trkpt lat="44.03149" lon="1.6941">
        <ele>350.54</ele>
        <time>2021-08-17T19:58:15Z</time>
      </trkpt>
      <trkpt lat="44.03169" lon="1.69423">
        <ele>350.54</ele>
        <time>2021-08-17T19:58:22Z</time>
      </trkpt>
      <trkpt lat="44.03196" lon="1.6944">
        <ele>350.54</ele>
        <time>2021-08-17T19:58:30Z</time>
      </trkpt>
      <trkpt lat="44.03215" lon="1.69439">
        <ele>350.54</ele>
        <time>2021-08-17T19:58:36Z</time>
      </trkpt>
      <trkpt lat="44.03219" lon="1.69432">
        <ele>350.54</ele>
        <time>2021-08-17T19:58:38Z</time>
      </trkpt>
      <trkpt lat="44.0322" lon="1.69427">
        <ele>350.54</ele>
        <time>2021-08-17T19:58:39Z</time>
      </trkpt>
      <trkpt lat="44.0322" lon="1.69423">
        <ele>350.54</ele>
        <time>2021-08-17T19:58:40Z</time>
      </trkpt>
      <trkpt lat="44.03221" lon="1.69404">
        <ele>351.98</ele>
        <time>2021-08-17T19:58:45Z</time>
      </trkpt>
      <trkpt lat="44.03225" lon="1.69393">
        <ele>353.9</ele>
        <time>2021-08-17T19:58:52Z</time>
      </trkpt>
      <trkpt lat="44.03226" lon="1.69388">
        <ele>353.9</ele>
        <time>2021-08-17T19:58:56Z</time>
      </trkpt>
      <trkpt lat="44.03226" lon="1.69386">
        <ele>353.9</ele>
        <time>2021-08-17T19:58:57Z</time>
      </trkpt>
      <trkpt lat="44.03227" lon="1.69385">
        <ele>353.9</ele>
        <time>2021-08-17T19:58:58Z</time>
      </trkpt>
      <trkpt lat="44.03227" lon="1.69383">
        <ele>354.38</ele>
        <time>2021-08-17T19:58:59Z</time>
      </trkpt>
      <trkpt lat="44.03229" lon="1.69376">
        <ele>354.86</ele>
        <time>2021-08-17T19:59:06Z</time>
      </trkpt>
      <trkpt lat="44.03234" lon="1.69365">
        <ele>355.34</ele>
        <time>2021-08-17T19:59:11Z</time>
      </trkpt>
      <trkpt lat="44.03239" lon="1.69348">
        <ele>355.83</ele>
        <time>2021-08-17T19:59:17Z</time>
      </trkpt>
      <trkpt lat="44.03245" lon="1.69322">
        <ele>356.79</ele>
        <time>2021-08-17T19:59:25Z</time>
      </trkpt>
      <trkpt lat="44.03252" lon="1.69297">
        <ele>357.27</ele>
        <time>2021-08-17T19:59:32Z</time>
      </trkpt>
      <trkpt lat="44.0326" lon="1.69267">
        <ele>358.71</ele>
        <time>2021-08-17T19:59:40Z</time>
      </trkpt>
      <trkpt lat="44.03267" lon="1.69235">
        <ele>359.19</ele>
        <time>2021-08-17T19:59:48Z</time>
      </trkpt>
      <trkpt lat="44.03277" lon="1.69201">
        <ele>359.67</ele>
        <time>2021-08-17T19:59:56Z</time>
      </trkpt>
      <trkpt lat="44.0329" lon="1.69181">
        <ele>359.67</ele>
        <time>2021-08-17T20:00:02Z</time>
      </trkpt>
      <trkpt lat="44.03305" lon="1.69181">
        <ele>360.63</ele>
        <time>2021-08-17T20:00:08Z</time>
      </trkpt>
      <trkpt lat="44.03316" lon="1.69184">
        <ele>361.11</ele>
        <time>2021-08-17T20:00:12Z</time>
      </trkpt>
      <trkpt lat="44.03333" lon="1.69191">
        <ele>361.59</ele>
        <time>2021-08-17T20:00:19Z</time>
      </trkpt>
      <trkpt lat="44.03361" lon="1.69202">
        <ele>361.59</ele>
        <time>2021-08-17T20:00:27Z</time>
      </trkpt>
      <trkpt lat="44.03393" lon="1.69216">
        <ele>361.59</ele>
        <time>2021-08-17T20:00:36Z</time>
      </trkpt>
      <trkpt lat="44.03432" lon="1.6923">
        <ele>361.59</ele>
        <time>2021-08-17T20:00:45Z</time>
      </trkpt>
      <trkpt lat="44.03441" lon="1.69234">
        <ele>361.59</ele>
        <time>2021-08-17T20:00:47Z</time>
      </trkpt>
      <trkpt lat="44.03444" lon="1.69236">
        <ele>362.07</ele>
        <time>2021-08-17T20:00:48Z</time>
      </trkpt>
      <trkpt lat="44.03466" lon="1.69237">
        <ele>362.55</ele>
        <time>2021-08-17T20:00:54Z</time>
      </trkpt>
      <trkpt lat="44.03486" lon="1.69225">
        <ele>363.04</ele>
        <time>2021-08-17T20:01:00Z</time>
      </trkpt>
      <trkpt lat="44.03513" lon="1.69207">
        <ele>360.63</ele>
        <time>2021-08-17T20:01:07Z</time>
      </trkpt>
      <trkpt lat="44.03518" lon="1.69204">
        <ele>360.63</ele>
        <time>2021-08-17T20:01:08Z</time>
      </trkpt>
      <trkpt lat="44.03523" lon="1.69203">
        <ele>360.63</ele>
        <time>2021-08-17T20:01:09Z</time>
      </trkpt>
      <trkpt lat="44.03545" lon="1.69204">
        <ele>359.67</ele>
        <time>2021-08-17T20:01:14Z</time>
      </trkpt>
      <trkpt lat="44.03583" lon="1.69209">
        <ele>357.27</ele>
        <time>2021-08-17T20:01:21Z</time>
      </trkpt>
      <trkpt lat="44.03622" lon="1.69213">
        <ele>353.42</ele>
        <time>2021-08-17T20:01:27Z</time>
      </trkpt>
      <trkpt lat="44.03628" lon="1.69214">
        <ele>353.42</ele>
        <time>2021-08-17T20:01:28Z</time>
      </trkpt>
      <trkpt lat="44.0366" lon="1.69217">
        <ele>353.42</ele>
        <time>2021-08-17T20:01:33Z</time>
      </trkpt>
      <trkpt lat="44.03669" lon="1.69219">
        <ele>353.42</ele>
        <time>2021-08-17T20:01:35Z</time>
      </trkpt>
      <trkpt lat="44.03693" lon="1.69234">
        <ele>353.42</ele>
        <time>2021-08-17T20:01:42Z</time>
      </trkpt>
      <trkpt lat="44.03694" lon="1.69238">
        <ele>353.42</ele>
        <time>2021-08-17T20:01:43Z</time>
      </trkpt>
      <trkpt lat="44.03694" lon="1.69242">
        <ele>353.42</ele>
        <time>2021-08-17T20:01:44Z</time>
      </trkpt>
      <trkpt lat="44.03693" lon="1.69245">
        <ele>354.86</ele>
        <time>2021-08-17T20:01:45Z</time>
      </trkpt>
      <trkpt lat="44.03692" lon="1.69247">
        <ele>354.86</ele>
        <time>2021-08-17T20:01:46Z</time>
      </trkpt>
      <trkpt lat="44.03682" lon="1.69261">
        <ele>355.83</ele>
        <time>2021-08-17T20:01:52Z</time>
      </trkpt>
      <trkpt lat="44.03674" lon="1.69273">
        <ele>357.75</ele>
        <time>2021-08-17T20:01:59Z</time>
      </trkpt>
      <trkpt lat="44.03667" lon="1.69284">
        <ele>358.71</ele>
        <time>2021-08-17T20:02:06Z</time>
      </trkpt>
      <trkpt lat="44.03662" lon="1.69294">
        <ele>359.67</ele>
        <time>2021-08-17T20:02:12Z</time>
      </trkpt>
      <trkpt lat="44.03657" lon="1.69301">
        <ele>360.15</ele>
        <time>2021-08-17T20:02:17Z</time>
      </trkpt>
      <trkpt lat="44.03655" lon="1.69303">
        <ele>360.63</ele>
        <time>2021-08-17T20:02:18Z</time>
      </trkpt>
      <trkpt lat="44.03654" lon="1.69305">
        <ele>361.11</ele>
        <time>2021-08-17T20:02:19Z</time>
      </trkpt>
      <trkpt lat="44.03643" lon="1.69321">
        <ele>362.07</ele>
        <time>2021-08-17T20:02:29Z</time>
      </trkpt>
      <trkpt lat="44.03641" lon="1.69325">
        <ele>362.55</ele>
        <time>2021-08-17T20:02:31Z</time>
      </trkpt>
      <trkpt lat="44.0364" lon="1.69327">
        <ele>362.55</ele>
        <time>2021-08-17T20:02:32Z</time>
      </trkpt>
      <trkpt lat="44.03639" lon="1.69329">
        <ele>362.55</ele>
        <time>2021-08-17T20:02:33Z</time>
      </trkpt>
      <trkpt lat="44.03628" lon="1.69349">
        <ele>364.48</ele>
        <time>2021-08-17T20:02:43Z</time>
      </trkpt>
      <trkpt lat="44.03616" lon="1.69371">
        <ele>365.44</ele>
        <time>2021-08-17T20:02:54Z</time>
      </trkpt>
      <trkpt lat="44.03603" lon="1.69392">
        <ele>366.88</ele>
        <time>2021-08-17T20:03:04Z</time>
      </trkpt>
      <trkpt lat="44.03591" lon="1.69414">
        <ele>368.32</ele>
        <time>2021-08-17T20:03:14Z</time>
      </trkpt>
      <trkpt lat="44.03581" lon="1.69436">
        <ele>370.24</ele>
        <time>2021-08-17T20:03:24Z</time>
      </trkpt>
      <trkpt lat="44.03572" lon="1.69456">
        <ele>371.69</ele>
        <time>2021-08-17T20:03:33Z</time>
      </trkpt>
      <trkpt lat="44.03566" lon="1.69475">
        <ele>372.65</ele>
        <time>2021-08-17T20:03:41Z</time>
      </trkpt>
      <trkpt lat="44.03561" lon="1.69493">
        <ele>373.61</ele>
        <time>2021-08-17T20:03:48Z</time>
      </trkpt>
      <trkpt lat="44.03554" lon="1.69517">
        <ele>375.53</ele>
        <time>2021-08-17T20:03:57Z</time>
      </trkpt>
      <trkpt lat="44.03547" lon="1.69546">
        <ele>376.49</ele>
        <time>2021-08-17T20:04:06Z</time>
      </trkpt>
      <trkpt lat="44.03542" lon="1.69574">
        <ele>377.45</ele>
        <time>2021-08-17T20:04:15Z</time>
      </trkpt>
      <trkpt lat="44.03541" lon="1.69607">
        <ele>378.9</ele>
        <time>2021-08-17T20:04:24Z</time>
      </trkpt>
      <trkpt lat="44.0354" lon="1.69635">
        <ele>379.86</ele>
        <time>2021-08-17T20:04:33Z</time>
      </trkpt>
      <trkpt lat="44.03545" lon="1.69663">
        <ele>381.3</ele>
        <time>2021-08-17T20:04:41Z</time>
      </trkpt>
      <trkpt lat="44.0355" lon="1.69683">
        <ele>382.26</ele>
        <time>2021-08-17T20:04:48Z</time>
      </trkpt>
      <trkpt lat="44.03556" lon="1.69703">
        <ele>383.7</ele>
        <time>2021-08-17T20:04:55Z</time>
      </trkpt>
      <trkpt lat="44.03562" lon="1.69724">
        <ele>384.66</ele>
        <time>2021-08-17T20:05:03Z</time>
      </trkpt>
      <trkpt lat="44.03567" lon="1.69745">
        <ele>386.11</ele>
        <time>2021-08-17T20:05:11Z</time>
      </trkpt>
      <trkpt lat="44.03569" lon="1.69748">
        <ele>386.11</ele>
        <time>2021-08-17T20:05:13Z</time>
      </trkpt>
      <trkpt lat="44.0357" lon="1.69749">
        <ele>386.59</ele>
        <time>2021-08-17T20:05:14Z</time>
      </trkpt>
      <trkpt lat="44.03571" lon="1.69751">
        <ele>386.59</ele>
        <time>2021-08-17T20:05:15Z</time>
      </trkpt>
      <trkpt lat="44.03572" lon="1.69753">
        <ele>386.59</ele>
        <time>2021-08-17T20:05:16Z</time>
      </trkpt>
      <trkpt lat="44.03572" lon="1.69755">
        <ele>387.07</ele>
        <time>2021-08-17T20:05:17Z</time>
      </trkpt>
      <trkpt lat="44.03573" lon="1.69757">
        <ele>387.07</ele>
        <time>2021-08-17T20:05:18Z</time>
      </trkpt>
      <trkpt lat="44.03579" lon="1.69777">
        <ele>388.03</ele>
        <time>2021-08-17T20:05:27Z</time>
      </trkpt>
      <trkpt lat="44.03586" lon="1.698">
        <ele>389.95</ele>
        <time>2021-08-17T20:05:38Z</time>
      </trkpt>
      <trkpt lat="44.03591" lon="1.69818">
        <ele>390.91</ele>
        <time>2021-08-17T20:05:46Z</time>
      </trkpt>
      <trkpt lat="44.03599" lon="1.69843">
        <ele>392.84</ele>
        <time>2021-08-17T20:05:58Z</time>
      </trkpt>
      <trkpt lat="44.03604" lon="1.69863">
        <ele>394.76</ele>
        <time>2021-08-17T20:06:07Z</time>
      </trkpt>
      <trkpt lat="44.03606" lon="1.6989">
        <ele>395.72</ele>
        <time>2021-08-17T20:06:17Z</time>
      </trkpt>
      <trkpt lat="44.03606" lon="1.69922">
        <ele>396.68</ele>
        <time>2021-08-17T20:06:26Z</time>
      </trkpt>
      <trkpt lat="44.0361" lon="1.69957">
        <ele>397.64</ele>
        <time>2021-08-17T20:06:35Z</time>
      </trkpt>
      <trkpt lat="44.03616" lon="1.6999">
        <ele>398.6</ele>
        <time>2021-08-17T20:06:43Z</time>
      </trkpt>
      <trkpt lat="44.03627" lon="1.70038">
        <ele>399.08</ele>
        <time>2021-08-17T20:06:53Z</time>
      </trkpt>
      <trkpt lat="44.03637" lon="1.70091">
        <ele>399.08</ele>
        <time>2021-08-17T20:07:03Z</time>
      </trkpt>
      <trkpt lat="44.03643" lon="1.70125">
        <ele>399.08</ele>
        <time>2021-08-17T20:07:09Z</time>
      </trkpt>
      <trkpt lat="44.03652" lon="1.70169">
        <ele>399.57</ele>
        <time>2021-08-17T20:07:17Z</time>
      </trkpt>
      <trkpt lat="44.03663" lon="1.70204">
        <ele>401.01</ele>
        <time>2021-08-17T20:07:25Z</time>
      </trkpt>
      <trkpt lat="44.03677" lon="1.7024">
        <ele>402.45</ele>
        <time>2021-08-17T20:07:34Z</time>
      </trkpt>
      <trkpt lat="44.03695" lon="1.70289">
        <ele>402.45</ele>
        <time>2021-08-17T20:07:43Z</time>
      </trkpt>
      <trkpt lat="44.03713" lon="1.70333">
        <ele>402.45</ele>
        <time>2021-08-17T20:07:52Z</time>
      </trkpt>
      <trkpt lat="44.03729" lon="1.70372">
        <ele>402.93</ele>
        <time>2021-08-17T20:08:01Z</time>
      </trkpt>
      <trkpt lat="44.03744" lon="1.70405">
        <ele>404.85</ele>
        <time>2021-08-17T20:08:10Z</time>
      </trkpt>
      <trkpt lat="44.03753" lon="1.70428">
        <ele>405.81</ele>
        <time>2021-08-17T20:08:18Z</time>
      </trkpt>
      <trkpt lat="44.03758" lon="1.7045">
        <ele>407.74</ele>
        <time>2021-08-17T20:08:26Z</time>
      </trkpt>
      <trkpt lat="44.03759" lon="1.70466">
        <ele>409.18</ele>
        <time>2021-08-17T20:08:33Z</time>
      </trkpt>
      <trkpt lat="44.03758" lon="1.7049">
        <ele>410.62</ele>
        <time>2021-08-17T20:08:42Z</time>
      </trkpt>
      <trkpt lat="44.03757" lon="1.70515">
        <ele>412.06</ele>
        <time>2021-08-17T20:08:51Z</time>
      </trkpt>
      <trkpt lat="44.0376" lon="1.70547">
        <ele>412.54</ele>
        <time>2021-08-17T20:08:59Z</time>
      </trkpt>
      <trkpt lat="44.03771" lon="1.70587">
        <ele>413.02</ele>
        <time>2021-08-17T20:09:08Z</time>
      </trkpt>
      <trkpt lat="44.03785" lon="1.70621">
        <ele>413.98</ele>
        <time>2021-08-17T20:09:17Z</time>
      </trkpt>
      <trkpt lat="44.03793" lon="1.70632">
        <ele>413.98</ele>
        <time>2021-08-17T20:09:20Z</time>
      </trkpt>
      <trkpt lat="44.03796" lon="1.70638">
        <ele>413.98</ele>
        <time>2021-08-17T20:09:21Z</time>
      </trkpt>
      <trkpt lat="44.03798" lon="1.70644">
        <ele>412.06</ele>
        <time>2021-08-17T20:09:22Z</time>
      </trkpt>
      <trkpt lat="44.03799" lon="1.7065">
        <ele>412.06</ele>
        <time>2021-08-17T20:09:23Z</time>
      </trkpt>
      <trkpt lat="44.03801" lon="1.70657">
        <ele>411.58</ele>
        <time>2021-08-17T20:09:24Z</time>
      </trkpt>
      <trkpt lat="44.03801" lon="1.70665">
        <ele>411.1</ele>
        <time>2021-08-17T20:09:25Z</time>
      </trkpt>
      <trkpt lat="44.03802" lon="1.70674">
        <ele>410.62</ele>
        <time>2021-08-17T20:09:26Z</time>
      </trkpt>
      <trkpt lat="44.03802" lon="1.70683">
        <ele>410.14</ele>
        <time>2021-08-17T20:09:27Z</time>
      </trkpt>
      <trkpt lat="44.03801" lon="1.70692">
        <ele>409.66</ele>
        <time>2021-08-17T20:09:28Z</time>
      </trkpt>
      <trkpt lat="44.038" lon="1.70702">
        <ele>409.18</ele>
        <time>2021-08-17T20:09:29Z</time>
      </trkpt>
      <trkpt lat="44.03799" lon="1.70743">
        <ele>407.26</ele>
        <time>2021-08-17T20:09:33Z</time>
      </trkpt>
      <trkpt lat="44.03805" lon="1.70809">
        <ele>406.77</ele>
        <time>2021-08-17T20:09:40Z</time>
      </trkpt>
      <trkpt lat="44.03805" lon="1.70847">
        <ele>408.22</ele>
        <time>2021-08-17T20:09:45Z</time>
      </trkpt>
      <trkpt lat="44.03803" lon="1.70859">
        <ele>408.7</ele>
        <time>2021-08-17T20:09:47Z</time>
      </trkpt>
      <trkpt lat="44.03792" lon="1.70903">
        <ele>410.62</ele>
        <time>2021-08-17T20:09:55Z</time>
      </trkpt>
      <trkpt lat="44.03776" lon="1.70934">
        <ele>412.06</ele>
        <time>2021-08-17T20:10:02Z</time>
      </trkpt>
      <trkpt lat="44.03769" lon="1.70948">
        <ele>412.54</ele>
        <time>2021-08-17T20:10:05Z</time>
      </trkpt>
      <trkpt lat="44.03756" lon="1.7099">
        <ele>413.02</ele>
        <time>2021-08-17T20:10:13Z</time>
      </trkpt>
      <trkpt lat="44.03749" lon="1.71041">
        <ele>414.47</ele>
        <time>2021-08-17T20:10:23Z</time>
      </trkpt>
      <trkpt lat="44.03745" lon="1.7107">
        <ele>415.91</ele>
        <time>2021-08-17T20:10:31Z</time>
      </trkpt>
      <trkpt lat="44.03741" lon="1.71101">
        <ele>416.87</ele>
        <time>2021-08-17T20:10:41Z</time>
      </trkpt>
      <trkpt lat="44.03737" lon="1.71128">
        <ele>418.79</ele>
        <time>2021-08-17T20:10:49Z</time>
      </trkpt>
      <trkpt lat="44.03735" lon="1.71156">
        <ele>419.75</ele>
        <time>2021-08-17T20:10:58Z</time>
      </trkpt>
      <trkpt lat="44.03731" lon="1.71189">
        <ele>421.19</ele>
        <time>2021-08-17T20:11:06Z</time>
      </trkpt>
      <trkpt lat="44.03727" lon="1.7123">
        <ele>422.64</ele>
        <time>2021-08-17T20:11:16Z</time>
      </trkpt>
      <trkpt lat="44.03721" lon="1.71256">
        <ele>422.64</ele>
        <time>2021-08-17T20:11:22Z</time>
      </trkpt>
      <trkpt lat="44.03714" lon="1.71279">
        <ele>422.16</ele>
        <time>2021-08-17T20:11:27Z</time>
      </trkpt>
      <trkpt lat="44.03713" lon="1.71285">
        <ele>422.16</ele>
        <time>2021-08-17T20:11:28Z</time>
      </trkpt>
      <trkpt lat="44.03711" lon="1.7129">
        <ele>422.16</ele>
        <time>2021-08-17T20:11:29Z</time>
      </trkpt>
      <trkpt lat="44.03703" lon="1.71313">
        <ele>420.71</ele>
        <time>2021-08-17T20:11:34Z</time>
      </trkpt>
      <trkpt lat="44.03701" lon="1.71358">
        <ele>418.31</ele>
        <time>2021-08-17T20:11:39Z</time>
      </trkpt>
      <trkpt lat="44.03703" lon="1.71421">
        <ele>418.31</ele>
        <time>2021-08-17T20:11:46Z</time>
      </trkpt>
      <trkpt lat="44.03704" lon="1.71442">
        <ele>419.27</ele>
        <time>2021-08-17T20:11:49Z</time>
      </trkpt>
      <trkpt lat="44.03706" lon="1.7146">
        <ele>420.23</ele>
        <time>2021-08-17T20:11:52Z</time>
      </trkpt>
      <trkpt lat="44.03707" lon="1.71466">
        <ele>420.23</ele>
        <time>2021-08-17T20:11:53Z</time>
      </trkpt>
      <trkpt lat="44.0372" lon="1.71502">
        <ele>421.68</ele>
        <time>2021-08-17T20:12:01Z</time>
      </trkpt>
      <trkpt lat="44.0373" lon="1.71531">
        <ele>423.12</ele>
        <time>2021-08-17T20:12:09Z</time>
      </trkpt>
      <trkpt lat="44.03742" lon="1.71555">
        <ele>424.56</ele>
        <time>2021-08-17T20:12:18Z</time>
      </trkpt>
      <trkpt lat="44.03754" lon="1.71576">
        <ele>426</ele>
        <time>2021-08-17T20:12:27Z</time>
      </trkpt>
      <trkpt lat="44.03769" lon="1.71601">
        <ele>427.44</ele>
        <time>2021-08-17T20:12:38Z</time>
      </trkpt>
      <trkpt lat="44.03783" lon="1.71625">
        <ele>429.37</ele>
        <time>2021-08-17T20:12:48Z</time>
      </trkpt>
      <trkpt lat="44.03798" lon="1.71651">
        <ele>430.33</ele>
        <time>2021-08-17T20:12:57Z</time>
      </trkpt>
      <trkpt lat="44.0381" lon="1.71675">
        <ele>431.29</ele>
        <time>2021-08-17T20:13:05Z</time>
      </trkpt>
      <trkpt lat="44.03832" lon="1.71713">
        <ele>432.73</ele>
        <time>2021-08-17T20:13:17Z</time>
      </trkpt>
      <trkpt lat="44.03851" lon="1.71744">
        <ele>434.17</ele>
        <time>2021-08-17T20:13:27Z</time>
      </trkpt>
      <trkpt lat="44.03866" lon="1.7176">
        <ele>435.13</ele>
        <time>2021-08-17T20:13:35Z</time>
      </trkpt>
      <trkpt lat="44.0388" lon="1.71772">
        <ele>436.58</ele>
        <time>2021-08-17T20:13:42Z</time>
      </trkpt>
      <trkpt lat="44.03895" lon="1.71789">
        <ele>438.02</ele>
        <time>2021-08-17T20:13:50Z</time>
      </trkpt>
      <trkpt lat="44.03912" lon="1.71813">
        <ele>439.46</ele>
        <time>2021-08-17T20:13:59Z</time>
      </trkpt>
      <trkpt lat="44.03926" lon="1.71839">
        <ele>441.38</ele>
        <time>2021-08-17T20:14:07Z</time>
      </trkpt>
      <trkpt lat="44.03942" lon="1.71875">
        <ele>442.82</ele>
        <time>2021-08-17T20:14:18Z</time>
      </trkpt>
      <trkpt lat="44.03961" lon="1.71911">
        <ele>443.79</ele>
        <time>2021-08-17T20:14:28Z</time>
      </trkpt>
      <trkpt lat="44.03978" lon="1.71933">
        <ele>444.27</ele>
        <time>2021-08-17T20:14:35Z</time>
      </trkpt>
      <trkpt lat="44.03998" lon="1.71952">
        <ele>444.27</ele>
        <time>2021-08-17T20:14:42Z</time>
      </trkpt>
      <trkpt lat="44.04028" lon="1.71988">
        <ele>444.27</ele>
        <time>2021-08-17T20:14:50Z</time>
      </trkpt>
      <trkpt lat="44.04042" lon="1.72013">
        <ele>442.82</ele>
        <time>2021-08-17T20:14:54Z</time>
      </trkpt>
      <trkpt lat="44.04054" lon="1.72041">
        <ele>441.86</ele>
        <time>2021-08-17T20:14:58Z</time>
      </trkpt>
      <trkpt lat="44.04055" lon="1.72049">
        <ele>440.9</ele>
        <time>2021-08-17T20:14:59Z</time>
      </trkpt>
      <trkpt lat="44.04055" lon="1.72058">
        <ele>440.9</ele>
        <time>2021-08-17T20:15:00Z</time>
      </trkpt>
      <trkpt lat="44.04054" lon="1.72095">
        <ele>438.5</ele>
        <time>2021-08-17T20:15:04Z</time>
      </trkpt>
      <trkpt lat="44.04055" lon="1.72105">
        <ele>438.5</ele>
        <time>2021-08-17T20:15:05Z</time>
      </trkpt>
      <trkpt lat="44.04069" lon="1.72153">
        <ele>438.98</ele>
        <time>2021-08-17T20:15:11Z</time>
      </trkpt>
      <trkpt lat="44.04077" lon="1.7218">
        <ele>438.98</ele>
        <time>2021-08-17T20:15:16Z</time>
      </trkpt>
      <trkpt lat="44.04075" lon="1.72184">
        <ele>438.98</ele>
        <time>2021-08-17T20:15:17Z</time>
      </trkpt>
      <trkpt lat="44.04072" lon="1.72185">
        <ele>438.98</ele>
        <time>2021-08-17T20:15:18Z</time>
      </trkpt>
      <trkpt lat="44.04069" lon="1.72184">
        <ele>438.98</ele>
        <time>2021-08-17T20:15:19Z</time>
      </trkpt>
      <trkpt lat="44.04065" lon="1.72182">
        <ele>438.98</ele>
        <time>2021-08-17T20:15:20Z</time>
      </trkpt>
      <trkpt lat="44.04032" lon="1.7216">
        <ele>435.61</ele>
        <time>2021-08-17T20:15:27Z</time>
      </trkpt>
      <trkpt lat="44.04006" lon="1.72146">
        <ele>431.77</ele>
        <time>2021-08-17T20:15:31Z</time>
      </trkpt>
      <trkpt lat="44.03985" lon="1.72135">
        <ele>428.4</ele>
        <time>2021-08-17T20:15:34Z</time>
      </trkpt>
      <trkpt lat="44.03948" lon="1.72122">
        <ele>424.56</ele>
        <time>2021-08-17T20:15:39Z</time>
      </trkpt>
      <trkpt lat="44.03934" lon="1.72118">
        <ele>423.12</ele>
        <time>2021-08-17T20:15:41Z</time>
      </trkpt>
      <trkpt lat="44.03927" lon="1.72114">
        <ele>422.16</ele>
        <time>2021-08-17T20:15:42Z</time>
      </trkpt>
      <trkpt lat="44.03921" lon="1.7211">
        <ele>421.68</ele>
        <time>2021-08-17T20:15:43Z</time>
      </trkpt>
      <trkpt lat="44.03913" lon="1.72104">
        <ele>420.71</ele>
        <time>2021-08-17T20:15:44Z</time>
      </trkpt>
      <trkpt lat="44.03907" lon="1.72098">
        <ele>419.75</ele>
        <time>2021-08-17T20:15:45Z</time>
      </trkpt>
      <trkpt lat="44.03879" lon="1.72074">
        <ele>415.91</ele>
        <time>2021-08-17T20:15:49Z</time>
      </trkpt>
      <trkpt lat="44.03847" lon="1.72056">
        <ele>412.06</ele>
        <time>2021-08-17T20:15:53Z</time>
      </trkpt>
      <trkpt lat="44.03818" lon="1.72035">
        <ele>408.7</ele>
        <time>2021-08-17T20:15:57Z</time>
      </trkpt>
      <trkpt lat="44.03789" lon="1.72021">
        <ele>405.33</ele>
        <time>2021-08-17T20:16:01Z</time>
      </trkpt>
      <trkpt lat="44.03768" lon="1.72012">
        <ele>403.41</ele>
        <time>2021-08-17T20:16:04Z</time>
      </trkpt>
      <trkpt lat="44.03742" lon="1.71998">
        <ele>400.05</ele>
        <time>2021-08-17T20:16:08Z</time>
      </trkpt>
      <trkpt lat="44.03715" lon="1.71985">
        <ele>396.68</ele>
        <time>2021-08-17T20:16:13Z</time>
      </trkpt>
      <trkpt lat="44.0371" lon="1.71983">
        <ele>396.2</ele>
        <time>2021-08-17T20:16:14Z</time>
      </trkpt>
      <trkpt lat="44.03705" lon="1.71983">
        <ele>395.72</ele>
        <time>2021-08-17T20:16:15Z</time>
      </trkpt>
      <trkpt lat="44.037" lon="1.71983">
        <ele>395.72</ele>
        <time>2021-08-17T20:16:16Z</time>
      </trkpt>
      <trkpt lat="44.03694" lon="1.71984">
        <ele>394.76</ele>
        <time>2021-08-17T20:16:17Z</time>
      </trkpt>
      <trkpt lat="44.03688" lon="1.71985">
        <ele>394.76</ele>
        <time>2021-08-17T20:16:18Z</time>
      </trkpt>
      <trkpt lat="44.03672" lon="1.71987">
        <ele>393.8</ele>
        <time>2021-08-17T20:16:21Z</time>
      </trkpt>
      <trkpt lat="44.03661" lon="1.71986">
        <ele>394.28</ele>
        <time>2021-08-17T20:16:23Z</time>
      </trkpt>
      <trkpt lat="44.03625" lon="1.71977">
        <ele>393.32</ele>
        <time>2021-08-17T20:16:30Z</time>
      </trkpt>
      <trkpt lat="44.03585" lon="1.71969">
        <ele>392.36</ele>
        <time>2021-08-17T20:16:38Z</time>
      </trkpt>
      <trkpt lat="44.03555" lon="1.71963">
        <ele>391.39</ele>
        <time>2021-08-17T20:16:44Z</time>
      </trkpt>
      <trkpt lat="44.03515" lon="1.71946">
        <ele>390.91</ele>
        <time>2021-08-17T20:16:51Z</time>
      </trkpt>
      <trkpt lat="44.03478" lon="1.71923">
        <ele>390.43</ele>
        <time>2021-08-17T20:16:58Z</time>
      </trkpt>
      <trkpt lat="44.0344" lon="1.71901">
        <ele>390.43</ele>
        <time>2021-08-17T20:17:06Z</time>
      </trkpt>
      <trkpt lat="44.03404" lon="1.71878">
        <ele>390.43</ele>
        <time>2021-08-17T20:17:14Z</time>
      </trkpt>
      <trkpt lat="44.03385" lon="1.71866">
        <ele>391.87</ele>
        <time>2021-08-17T20:17:18Z</time>
      </trkpt>
      <trkpt lat="44.03363" lon="1.71851">
        <ele>391.87</ele>
        <time>2021-08-17T20:17:23Z</time>
      </trkpt>
      <trkpt lat="44.03359" lon="1.71848">
        <ele>392.36</ele>
        <time>2021-08-17T20:17:24Z</time>
      </trkpt>
      <trkpt lat="44.03355" lon="1.71846">
        <ele>392.36</ele>
        <time>2021-08-17T20:17:25Z</time>
      </trkpt>
      <trkpt lat="44.0335" lon="1.71844">
        <ele>392.36</ele>
        <time>2021-08-17T20:17:26Z</time>
      </trkpt>
      <trkpt lat="44.03345" lon="1.71841">
        <ele>392.36</ele>
        <time>2021-08-17T20:17:27Z</time>
      </trkpt>
      <trkpt lat="44.03341" lon="1.71838">
        <ele>392.36</ele>
        <time>2021-08-17T20:17:28Z</time>
      </trkpt>
      <trkpt lat="44.033" lon="1.71809">
        <ele>392.36</ele>
        <time>2021-08-17T20:17:38Z</time>
      </trkpt>
      <trkpt lat="44.03292" lon="1.71805">
        <ele>392.36</ele>
        <time>2021-08-17T20:17:40Z</time>
      </trkpt>
      <trkpt lat="44.03287" lon="1.71803">
        <ele>392.36</ele>
        <time>2021-08-17T20:17:41Z</time>
      </trkpt>
      <trkpt lat="44.03255" lon="1.71791">
        <ele>392.84</ele>
        <time>2021-08-17T20:17:48Z</time>
      </trkpt>
      <trkpt lat="44.0325" lon="1.7179">
        <ele>392.84</ele>
        <time>2021-08-17T20:17:49Z</time>
      </trkpt>
      <trkpt lat="44.03214" lon="1.7178">
        <ele>393.32</ele>
        <time>2021-08-17T20:17:57Z</time>
      </trkpt>
      <trkpt lat="44.032" lon="1.71778">
        <ele>393.8</ele>
        <time>2021-08-17T20:18:00Z</time>
      </trkpt>
      <trkpt lat="44.03191" lon="1.71776">
        <ele>393.8</ele>
        <time>2021-08-17T20:18:02Z</time>
      </trkpt>
      <trkpt lat="44.03186" lon="1.71776">
        <ele>393.8</ele>
        <time>2021-08-17T20:18:03Z</time>
      </trkpt>
      <trkpt lat="44.03182" lon="1.71775">
        <ele>394.28</ele>
        <time>2021-08-17T20:18:04Z</time>
      </trkpt>
      <trkpt lat="44.03158" lon="1.7177">
        <ele>394.28</ele>
        <time>2021-08-17T20:18:09Z</time>
      </trkpt>
      <trkpt lat="44.03127" lon="1.71754">
        <ele>394.76</ele>
        <time>2021-08-17T20:18:16Z</time>
      </trkpt>
      <trkpt lat="44.03115" lon="1.71747">
        <ele>395.24</ele>
        <time>2021-08-17T20:18:19Z</time>
      </trkpt>
      <trkpt lat="44.03111" lon="1.71744">
        <ele>395.24</ele>
        <time>2021-08-17T20:18:20Z</time>
      </trkpt>
      <trkpt lat="44.03076" lon="1.71723">
        <ele>395.72</ele>
        <time>2021-08-17T20:18:29Z</time>
      </trkpt>
      <trkpt lat="44.03063" lon="1.71715">
        <ele>395.72</ele>
        <time>2021-08-17T20:18:32Z</time>
      </trkpt>
      <trkpt lat="44.03041" lon="1.71702">
        <ele>395.72</ele>
        <time>2021-08-17T20:18:37Z</time>
      </trkpt>
      <trkpt lat="44.03006" lon="1.71688">
        <ele>396.2</ele>
        <time>2021-08-17T20:18:45Z</time>
      </trkpt>
      <trkpt lat="44.03001" lon="1.71688">
        <ele>396.2</ele>
        <time>2021-08-17T20:18:46Z</time>
      </trkpt>
      <trkpt lat="44.02978" lon="1.71685">
        <ele>396.68</ele>
        <time>2021-08-17T20:18:51Z</time>
      </trkpt>
      <trkpt lat="44.02935" lon="1.71678">
        <ele>397.16</ele>
        <time>2021-08-17T20:19:00Z</time>
      </trkpt>
      <trkpt lat="44.0291" lon="1.71667">
        <ele>397.16</ele>
        <time>2021-08-17T20:19:07Z</time>
      </trkpt>
      <trkpt lat="44.02906" lon="1.71664">
        <ele>397.64</ele>
        <time>2021-08-17T20:19:08Z</time>
      </trkpt>
      <trkpt lat="44.02903" lon="1.71661">
        <ele>397.64</ele>
        <time>2021-08-17T20:19:09Z</time>
      </trkpt>
      <trkpt lat="44.02875" lon="1.71636">
        <ele>398.12</ele>
        <time>2021-08-17T20:19:17Z</time>
      </trkpt>
      <trkpt lat="44.02871" lon="1.71632">
        <ele>398.12</ele>
        <time>2021-08-17T20:19:18Z</time>
      </trkpt>
      <trkpt lat="44.02867" lon="1.71629">
        <ele>398.12</ele>
        <time>2021-08-17T20:19:19Z</time>
      </trkpt>
      <trkpt lat="44.02847" lon="1.71608">
        <ele>398.12</ele>
        <time>2021-08-17T20:19:25Z</time>
      </trkpt>
      <trkpt lat="44.02828" lon="1.71591">
        <ele>398.6</ele>
        <time>2021-08-17T20:19:30Z</time>
      </trkpt>
      <trkpt lat="44.02824" lon="1.71587">
        <ele>398.6</ele>
        <time>2021-08-17T20:19:31Z</time>
      </trkpt>
      <trkpt lat="44.02788" lon="1.71559">
        <ele>399.08</ele>
        <time>2021-08-17T20:19:40Z</time>
      </trkpt>
      <trkpt lat="44.0278" lon="1.71554">
        <ele>399.08</ele>
        <time>2021-08-17T20:19:42Z</time>
      </trkpt>
      <trkpt lat="44.02757" lon="1.71544">
        <ele>399.57</ele>
        <time>2021-08-17T20:19:47Z</time>
      </trkpt>
      <trkpt lat="44.02744" lon="1.71542">
        <ele>399.57</ele>
        <time>2021-08-17T20:19:50Z</time>
      </trkpt>
      <trkpt lat="44.02696" lon="1.71548">
        <ele>400.05</ele>
        <time>2021-08-17T20:20:00Z</time>
      </trkpt>
      <trkpt lat="44.02686" lon="1.7155">
        <ele>400.05</ele>
        <time>2021-08-17T20:20:02Z</time>
      </trkpt>
      <trkpt lat="44.02681" lon="1.71549">
        <ele>400.05</ele>
        <time>2021-08-17T20:20:03Z</time>
      </trkpt>
      <trkpt lat="44.02671" lon="1.71547">
        <ele>400.05</ele>
        <time>2021-08-17T20:20:05Z</time>
      </trkpt>
      <trkpt lat="44.02667" lon="1.71545">
        <ele>400.05</ele>
        <time>2021-08-17T20:20:06Z</time>
      </trkpt>
      <trkpt lat="44.02663" lon="1.71543">
        <ele>400.05</ele>
        <time>2021-08-17T20:20:07Z</time>
      </trkpt>
      <trkpt lat="44.02634" lon="1.71518">
        <ele>400.05</ele>
        <time>2021-08-17T20:20:14Z</time>
      </trkpt>
      <trkpt lat="44.02618" lon="1.715">
        <ele>400.05</ele>
        <time>2021-08-17T20:20:18Z</time>
      </trkpt>
      <trkpt lat="44.02589" lon="1.71474">
        <ele>401.01</ele>
        <time>2021-08-17T20:20:25Z</time>
      </trkpt>
      <trkpt lat="44.02569" lon="1.71467">
        <ele>401.01</ele>
        <time>2021-08-17T20:20:29Z</time>
      </trkpt>
      <trkpt lat="44.02528" lon="1.71464">
        <ele>401.49</ele>
        <time>2021-08-17T20:20:37Z</time>
      </trkpt>
      <trkpt lat="44.02523" lon="1.71463">
        <ele>401.49</ele>
        <time>2021-08-17T20:20:38Z</time>
      </trkpt>
      <trkpt lat="44.02518" lon="1.71461">
        <ele>401.49</ele>
        <time>2021-08-17T20:20:39Z</time>
      </trkpt>
      <trkpt lat="44.02498" lon="1.71444">
        <ele>401.49</ele>
        <time>2021-08-17T20:20:45Z</time>
      </trkpt>
      <trkpt lat="44.02489" lon="1.71429">
        <ele>401.49</ele>
        <time>2021-08-17T20:20:48Z</time>
      </trkpt>
      <trkpt lat="44.02485" lon="1.71417">
        <ele>401.49</ele>
        <time>2021-08-17T20:20:50Z</time>
      </trkpt>
      <trkpt lat="44.02483" lon="1.71412">
        <ele>401.49</ele>
        <time>2021-08-17T20:20:51Z</time>
      </trkpt>
      <trkpt lat="44.0248" lon="1.71408">
        <ele>401.97</ele>
        <time>2021-08-17T20:20:52Z</time>
      </trkpt>
      <trkpt lat="44.02478" lon="1.71403">
        <ele>401.97</ele>
        <time>2021-08-17T20:20:53Z</time>
      </trkpt>
      <trkpt lat="44.02475" lon="1.71399">
        <ele>401.97</ele>
        <time>2021-08-17T20:20:54Z</time>
      </trkpt>
      <trkpt lat="44.02471" lon="1.71395">
        <ele>401.97</ele>
        <time>2021-08-17T20:20:55Z</time>
      </trkpt>
      <trkpt lat="44.02467" lon="1.71391">
        <ele>401.97</ele>
        <time>2021-08-17T20:20:56Z</time>
      </trkpt>
      <trkpt lat="44.02444" lon="1.71377">
        <ele>401.97</ele>
        <time>2021-08-17T20:21:01Z</time>
      </trkpt>
      <trkpt lat="44.02438" lon="1.71376">
        <ele>401.97</ele>
        <time>2021-08-17T20:21:02Z</time>
      </trkpt>
      <trkpt lat="44.02433" lon="1.71376">
        <ele>401.97</ele>
        <time>2021-08-17T20:21:03Z</time>
      </trkpt>
      <trkpt lat="44.02391" lon="1.71382">
        <ele>401.97</ele>
        <time>2021-08-17T20:21:11Z</time>
      </trkpt>
      <trkpt lat="44.02376" lon="1.71384">
        <ele>401.97</ele>
        <time>2021-08-17T20:21:14Z</time>
      </trkpt>
      <trkpt lat="44.02371" lon="1.71383">
        <ele>401.97</ele>
        <time>2021-08-17T20:21:15Z</time>
      </trkpt>
      <trkpt lat="44.02366" lon="1.7138">
        <ele>401.97</ele>
        <time>2021-08-17T20:21:16Z</time>
      </trkpt>
      <trkpt lat="44.02362" lon="1.71376">
        <ele>401.97</ele>
        <time>2021-08-17T20:21:17Z</time>
      </trkpt>
      <trkpt lat="44.02359" lon="1.71371">
        <ele>401.97</ele>
        <time>2021-08-17T20:21:18Z</time>
      </trkpt>
      <trkpt lat="44.02356" lon="1.71365">
        <ele>401.97</ele>
        <time>2021-08-17T20:21:19Z</time>
      </trkpt>
      <trkpt lat="44.02354" lon="1.71359">
        <ele>401.97</ele>
        <time>2021-08-17T20:21:20Z</time>
      </trkpt>
      <trkpt lat="44.0234" lon="1.71311">
        <ele>401.49</ele>
        <time>2021-08-17T20:21:27Z</time>
      </trkpt>
      <trkpt lat="44.0232" lon="1.71271">
        <ele>399.57</ele>
        <time>2021-08-17T20:21:33Z</time>
      </trkpt>
      <trkpt lat="44.02316" lon="1.71266">
        <ele>399.57</ele>
        <time>2021-08-17T20:21:34Z</time>
      </trkpt>
      <trkpt lat="44.0231" lon="1.71261">
        <ele>398.6</ele>
        <time>2021-08-17T20:21:35Z</time>
      </trkpt>
      <trkpt lat="44.02304" lon="1.71258">
        <ele>398.6</ele>
        <time>2021-08-17T20:21:36Z</time>
      </trkpt>
      <trkpt lat="44.02298" lon="1.71255">
        <ele>398.12</ele>
        <time>2021-08-17T20:21:37Z</time>
      </trkpt>
      <trkpt lat="44.02291" lon="1.71252">
        <ele>397.64</ele>
        <time>2021-08-17T20:21:38Z</time>
      </trkpt>
      <trkpt lat="44.02285" lon="1.7125">
        <ele>397.16</ele>
        <time>2021-08-17T20:21:39Z</time>
      </trkpt>
      <trkpt lat="44.02278" lon="1.71249">
        <ele>397.16</ele>
        <time>2021-08-17T20:21:40Z</time>
      </trkpt>
      <trkpt lat="44.02272" lon="1.71247">
        <ele>396.68</ele>
        <time>2021-08-17T20:21:41Z</time>
      </trkpt>
      <trkpt lat="44.02267" lon="1.71244">
        <ele>396.2</ele>
        <time>2021-08-17T20:21:42Z</time>
      </trkpt>
      <trkpt lat="44.02263" lon="1.71238">
        <ele>396.2</ele>
        <time>2021-08-17T20:21:43Z</time>
      </trkpt>
      <trkpt lat="44.02259" lon="1.71232">
        <ele>395.72</ele>
        <time>2021-08-17T20:21:44Z</time>
      </trkpt>
      <trkpt lat="44.02257" lon="1.71225">
        <ele>395.72</ele>
        <time>2021-08-17T20:21:45Z</time>
      </trkpt>
      <trkpt lat="44.02254" lon="1.71217">
        <ele>395.24</ele>
        <time>2021-08-17T20:21:46Z</time>
      </trkpt>
      <trkpt lat="44.02234" lon="1.71154">
        <ele>392.84</ele>
        <time>2021-08-17T20:21:54Z</time>
      </trkpt>
      <trkpt lat="44.0223" lon="1.71148">
        <ele>392.84</ele>
        <time>2021-08-17T20:21:55Z</time>
      </trkpt>
      <trkpt lat="44.02226" lon="1.71141">
        <ele>392.36</ele>
        <time>2021-08-17T20:21:56Z</time>
      </trkpt>
      <trkpt lat="44.02221" lon="1.71136">
        <ele>391.87</ele>
        <time>2021-08-17T20:21:57Z</time>
      </trkpt>
      <trkpt lat="44.02215" lon="1.71132">
        <ele>391.87</ele>
        <time>2021-08-17T20:21:58Z</time>
      </trkpt>
      <trkpt lat="44.02209" lon="1.71129">
        <ele>391.87</ele>
        <time>2021-08-17T20:21:59Z</time>
      </trkpt>
      <trkpt lat="44.02203" lon="1.71126">
        <ele>391.39</ele>
        <time>2021-08-17T20:22:00Z</time>
      </trkpt>
      <trkpt lat="44.02196" lon="1.71125">
        <ele>390.91</ele>
        <time>2021-08-17T20:22:01Z</time>
      </trkpt>
      <trkpt lat="44.0219" lon="1.71124">
        <ele>390.91</ele>
        <time>2021-08-17T20:22:02Z</time>
      </trkpt>
      <trkpt lat="44.02177" lon="1.7112">
        <ele>390.43</ele>
        <time>2021-08-17T20:22:04Z</time>
      </trkpt>
      <trkpt lat="44.0217" lon="1.71117">
        <ele>389.47</ele>
        <time>2021-08-17T20:22:05Z</time>
      </trkpt>
      <trkpt lat="44.02164" lon="1.71113">
        <ele>389.47</ele>
        <time>2021-08-17T20:22:06Z</time>
      </trkpt>
      <trkpt lat="44.02158" lon="1.71109">
        <ele>388.99</ele>
        <time>2021-08-17T20:22:07Z</time>
      </trkpt>
      <trkpt lat="44.02152" lon="1.71104">
        <ele>388.99</ele>
        <time>2021-08-17T20:22:08Z</time>
      </trkpt>
      <trkpt lat="44.02142" lon="1.71092">
        <ele>388.51</ele>
        <time>2021-08-17T20:22:10Z</time>
      </trkpt>
      <trkpt lat="44.02138" lon="1.71086">
        <ele>388.03</ele>
        <time>2021-08-17T20:22:11Z</time>
      </trkpt>
      <trkpt lat="44.02135" lon="1.71079">
        <ele>387.55</ele>
        <time>2021-08-17T20:22:12Z</time>
      </trkpt>
      <trkpt lat="44.02132" lon="1.71071">
        <ele>387.07</ele>
        <time>2021-08-17T20:22:13Z</time>
      </trkpt>
      <trkpt lat="44.0213" lon="1.71063">
        <ele>387.07</ele>
        <time>2021-08-17T20:22:14Z</time>
      </trkpt>
      <trkpt lat="44.02129" lon="1.71055">
        <ele>387.07</ele>
        <time>2021-08-17T20:22:15Z</time>
      </trkpt>
      <trkpt lat="44.02127" lon="1.71046">
        <ele>387.07</ele>
        <time>2021-08-17T20:22:16Z</time>
      </trkpt>
      <trkpt lat="44.02125" lon="1.71038">
        <ele>386.11</ele>
        <time>2021-08-17T20:22:17Z</time>
      </trkpt>
      <trkpt lat="44.02119" lon="1.71022">
        <ele>385.63</ele>
        <time>2021-08-17T20:22:19Z</time>
      </trkpt>
      <trkpt lat="44.02116" lon="1.71015">
        <ele>385.15</ele>
        <time>2021-08-17T20:22:20Z</time>
      </trkpt>
      <trkpt lat="44.02112" lon="1.71008">
        <ele>385.15</ele>
        <time>2021-08-17T20:22:21Z</time>
      </trkpt>
      <trkpt lat="44.02107" lon="1.71001">
        <ele>384.66</ele>
        <time>2021-08-17T20:22:22Z</time>
      </trkpt>
      <trkpt lat="44.02102" lon="1.70996">
        <ele>384.18</ele>
        <time>2021-08-17T20:22:23Z</time>
      </trkpt>
      <trkpt lat="44.02097" lon="1.70993">
        <ele>383.7</ele>
        <time>2021-08-17T20:22:24Z</time>
      </trkpt>
      <trkpt lat="44.02091" lon="1.70991">
        <ele>383.7</ele>
        <time>2021-08-17T20:22:25Z</time>
      </trkpt>
      <trkpt lat="44.02085" lon="1.7099">
        <ele>383.22</ele>
        <time>2021-08-17T20:22:26Z</time>
      </trkpt>
      <trkpt lat="44.02079" lon="1.70989">
        <ele>382.74</ele>
        <time>2021-08-17T20:22:27Z</time>
      </trkpt>
      <trkpt lat="44.02072" lon="1.7099">
        <ele>382.74</ele>
        <time>2021-08-17T20:22:28Z</time>
      </trkpt>
      <trkpt lat="44.02066" lon="1.70991">
        <ele>382.26</ele>
        <time>2021-08-17T20:22:29Z</time>
      </trkpt>
      <trkpt lat="44.02028" lon="1.71001">
        <ele>380.34</ele>
        <time>2021-08-17T20:22:35Z</time>
      </trkpt>
      <trkpt lat="44.02009" lon="1.71004">
        <ele>379.38</ele>
        <time>2021-08-17T20:22:38Z</time>
      </trkpt>
      <trkpt lat="44.02003" lon="1.71003">
        <ele>379.38</ele>
        <time>2021-08-17T20:22:39Z</time>
      </trkpt>
      <trkpt lat="44.01997" lon="1.71001">
        <ele>378.9</ele>
        <time>2021-08-17T20:22:40Z</time>
      </trkpt>
      <trkpt lat="44.01991" lon="1.70998">
        <ele>378.9</ele>
        <time>2021-08-17T20:22:41Z</time>
      </trkpt>
      <trkpt lat="44.01986" lon="1.70994">
        <ele>377.94</ele>
        <time>2021-08-17T20:22:42Z</time>
      </trkpt>
      <trkpt lat="44.01981" lon="1.70989">
        <ele>377.94</ele>
        <time>2021-08-17T20:22:43Z</time>
      </trkpt>
      <trkpt lat="44.01977" lon="1.70983">
        <ele>377.45</ele>
        <time>2021-08-17T20:22:44Z</time>
      </trkpt>
      <trkpt lat="44.01972" lon="1.70977">
        <ele>376.97</ele>
        <time>2021-08-17T20:22:45Z</time>
      </trkpt>
      <trkpt lat="44.01968" lon="1.70969">
        <ele>376.49</ele>
        <time>2021-08-17T20:22:46Z</time>
      </trkpt>
      <trkpt lat="44.01964" lon="1.70962">
        <ele>376.49</ele>
        <time>2021-08-17T20:22:47Z</time>
      </trkpt>
      <trkpt lat="44.01962" lon="1.70954">
        <ele>375.53</ele>
        <time>2021-08-17T20:22:48Z</time>
      </trkpt>
      <trkpt lat="44.0196" lon="1.70944">
        <ele>375.53</ele>
        <time>2021-08-17T20:22:49Z</time>
      </trkpt>
      <trkpt lat="44.01959" lon="1.70935">
        <ele>375.05</ele>
        <time>2021-08-17T20:22:50Z</time>
      </trkpt>
      <trkpt lat="44.01942" lon="1.70871">
        <ele>372.65</ele>
        <time>2021-08-17T20:22:57Z</time>
      </trkpt>
      <trkpt lat="44.01924" lon="1.70795">
        <ele>369.28</ele>
        <time>2021-08-17T20:23:05Z</time>
      </trkpt>
      <trkpt lat="44.0192" lon="1.70777">
        <ele>368.8</ele>
        <time>2021-08-17T20:23:07Z</time>
      </trkpt>
      <trkpt lat="44.01916" lon="1.70769">
        <ele>368.8</ele>
        <time>2021-08-17T20:23:08Z</time>
      </trkpt>
      <trkpt lat="44.01911" lon="1.70761">
        <ele>368.32</ele>
        <time>2021-08-17T20:23:09Z</time>
      </trkpt>
      <trkpt lat="44.01907" lon="1.70755">
        <ele>368.32</ele>
        <time>2021-08-17T20:23:10Z</time>
      </trkpt>
      <trkpt lat="44.01901" lon="1.70749">
        <ele>367.84</ele>
        <time>2021-08-17T20:23:11Z</time>
      </trkpt>
      <trkpt lat="44.01895" lon="1.70744">
        <ele>367.84</ele>
        <time>2021-08-17T20:23:12Z</time>
      </trkpt>
      <trkpt lat="44.01888" lon="1.7074">
        <ele>367.84</ele>
        <time>2021-08-17T20:23:13Z</time>
      </trkpt>
      <trkpt lat="44.01882" lon="1.70738">
        <ele>367.36</ele>
        <time>2021-08-17T20:23:14Z</time>
      </trkpt>
      <trkpt lat="44.01852" lon="1.70731">
        <ele>365.92</ele>
        <time>2021-08-17T20:23:18Z</time>
      </trkpt>
      <trkpt lat="44.01803" lon="1.70726">
        <ele>363.04</ele>
        <time>2021-08-17T20:23:25Z</time>
      </trkpt>
      <trkpt lat="44.01796" lon="1.70724">
        <ele>362.55</ele>
        <time>2021-08-17T20:23:26Z</time>
      </trkpt>
      <trkpt lat="44.0175" lon="1.70708">
        <ele>360.15</ele>
        <time>2021-08-17T20:23:33Z</time>
      </trkpt>
      <trkpt lat="44.01736" lon="1.70704">
        <ele>359.67</ele>
        <time>2021-08-17T20:23:35Z</time>
      </trkpt>
      <trkpt lat="44.01729" lon="1.70703">
        <ele>359.67</ele>
        <time>2021-08-17T20:23:36Z</time>
      </trkpt>
      <trkpt lat="44.0168" lon="1.7071">
        <ele>356.79</ele>
        <time>2021-08-17T20:23:43Z</time>
      </trkpt>
      <trkpt lat="44.01623" lon="1.70723">
        <ele>353.9</ele>
        <time>2021-08-17T20:23:50Z</time>
      </trkpt>
      <trkpt lat="44.01557" lon="1.70739">
        <ele>351.02</ele>
        <time>2021-08-17T20:23:58Z</time>
      </trkpt>
      <trkpt lat="44.01492" lon="1.70754">
        <ele>348.62</ele>
        <time>2021-08-17T20:24:06Z</time>
      </trkpt>
      <trkpt lat="44.01484" lon="1.70754">
        <ele>348.62</ele>
        <time>2021-08-17T20:24:07Z</time>
      </trkpt>
      <trkpt lat="44.01421" lon="1.70759">
        <ele>346.21</ele>
        <time>2021-08-17T20:24:15Z</time>
      </trkpt>
      <trkpt lat="44.01398" lon="1.70767">
        <ele>345.73</ele>
        <time>2021-08-17T20:24:18Z</time>
      </trkpt>
      <trkpt lat="44.01391" lon="1.70772">
        <ele>345.25</ele>
        <time>2021-08-17T20:24:19Z</time>
      </trkpt>
      <trkpt lat="44.01352" lon="1.70805">
        <ele>342.85</ele>
        <time>2021-08-17T20:24:25Z</time>
      </trkpt>
      <trkpt lat="44.01339" lon="1.70816">
        <ele>342.37</ele>
        <time>2021-08-17T20:24:27Z</time>
      </trkpt>
      <trkpt lat="44.01302" lon="1.70855">
        <ele>339.48</ele>
        <time>2021-08-17T20:24:33Z</time>
      </trkpt>
      <trkpt lat="44.01258" lon="1.70914">
        <ele>337.08</ele>
        <time>2021-08-17T20:24:41Z</time>
      </trkpt>
      <trkpt lat="44.01225" lon="1.7096">
        <ele>334.68</ele>
        <time>2021-08-17T20:24:47Z</time>
      </trkpt>
      <trkpt lat="44.01181" lon="1.71022">
        <ele>332.75</ele>
        <time>2021-08-17T20:24:55Z</time>
      </trkpt>
      <trkpt lat="44.01126" lon="1.71096">
        <ele>330.83</ele>
        <time>2021-08-17T20:25:05Z</time>
      </trkpt>
      <trkpt lat="44.01091" lon="1.71146">
        <ele>328.91</ele>
        <time>2021-08-17T20:25:12Z</time>
      </trkpt>
      <trkpt lat="44.01087" lon="1.71151">
        <ele>328.91</ele>
        <time>2021-08-17T20:25:13Z</time>
      </trkpt>
      <trkpt lat="44.01084" lon="1.71154">
        <ele>328.91</ele>
        <time>2021-08-17T20:25:14Z</time>
      </trkpt>
      <trkpt lat="44.01081" lon="1.71157">
        <ele>328.91</ele>
        <time>2021-08-17T20:25:15Z</time>
      </trkpt>
      <trkpt lat="44.01079" lon="1.7116">
        <ele>328.91</ele>
        <time>2021-08-17T20:25:19Z</time>
      </trkpt>
      <trkpt lat="44.01079" lon="1.71161">
        <ele>328.91</ele>
        <time>2021-08-17T20:25:31Z</time>
      </trkpt>
      <trkpt lat="44.01074" lon="1.71162">
        <ele>328.91</ele>
        <time>2021-08-17T20:25:41Z</time>
      </trkpt>
      <trkpt lat="44.01067" lon="1.71164">
        <ele>328.43</ele>
        <time>2021-08-17T20:25:48Z</time>
      </trkpt>
      <trkpt lat="44.01064" lon="1.71162">
        <ele>328.43</ele>
        <time>2021-08-17T20:26:03Z</time>
      </trkpt>
      <trkpt lat="44.01064" lon="1.71163">
        <ele>328.43</ele>
        <time>2021-08-17T20:26:21Z</time>
      </trkpt>
      <trkpt lat="44.01064" lon="1.71164">
        <ele>328.43</ele>
        <time>2021-08-17T20:26:40Z</time>
      </trkpt>
      <trkpt lat="44.01064" lon="1.71163">
        <ele>327.95</ele>
        <time>2021-08-17T20:26:57Z</time>
      </trkpt>
      <trkpt lat="44.01064" lon="1.71163">
        <ele>327.95</ele>
        <time>2021-08-17T20:27:18Z</time>
      </trkpt>
      <trkpt lat="44.01064" lon="1.71162">
        <ele>327.95</ele>
        <time>2021-08-17T20:27:34Z</time>
      </trkpt>
      <trkpt lat="44.01064" lon="1.71159">
        <ele>327.95</ele>
        <time>2021-08-17T20:27:55Z</time>
      </trkpt>
      <trkpt lat="44.01063" lon="1.71166">
        <ele>327.95</ele>
        <time>2021-08-17T20:28:03Z</time>
      </trkpt>
      <trkpt lat="44.01064" lon="1.71163">
        <ele>327.95</ele>
        <time>2021-08-17T20:28:09Z</time>
      </trkpt>
      <trkpt lat="44.01063" lon="1.71169">
        <ele>327.95</ele>
        <time>2021-08-17T20:28:17Z</time>
      </trkpt>
      <trkpt lat="44.01063" lon="1.71171">
        <ele>327.95</ele>
        <time>2021-08-17T20:28:22Z</time>
      </trkpt>
      <trkpt lat="44.01052" lon="1.71182">
        <ele>327.95</ele>
        <time>2021-08-17T20:28:28Z</time>
      </trkpt>
      <trkpt lat="44.01032" lon="1.71204">
        <ele>327.95</ele>
        <time>2021-08-17T20:28:35Z</time>
      </trkpt>
      <trkpt lat="44.01019" lon="1.71215">
        <ele>329.39</ele>
        <time>2021-08-17T20:28:39Z</time>
      </trkpt>
      <trkpt lat="44.01" lon="1.71232">
        <ele>329.39</ele>
        <time>2021-08-17T20:28:44Z</time>
      </trkpt>
      <trkpt lat="44.00984" lon="1.71242">
        <ele>327.95</ele>
        <time>2021-08-17T20:28:49Z</time>
      </trkpt>
      <trkpt lat="44.00979" lon="1.71243">
        <ele>327.95</ele>
        <time>2021-08-17T20:28:50Z</time>
      </trkpt>
      <trkpt lat="44.00962" lon="1.71241">
        <ele>326.5</ele>
        <time>2021-08-17T20:28:54Z</time>
      </trkpt>
      <trkpt lat="44.00957" lon="1.7124">
        <ele>326.5</ele>
        <time>2021-08-17T20:28:55Z</time>
      </trkpt>
      <trkpt lat="44.00941" lon="1.71232">
        <ele>326.02</ele>
        <time>2021-08-17T20:28:59Z</time>
      </trkpt>
      <trkpt lat="44.00928" lon="1.71223">
        <ele>325.06</ele>
        <time>2021-08-17T20:29:02Z</time>
      </trkpt>
      <trkpt lat="44.00916" lon="1.71216">
        <ele>325.06</ele>
        <time>2021-08-17T20:29:05Z</time>
      </trkpt>
      <trkpt lat="44.00912" lon="1.71213">
        <ele>324.58</ele>
        <time>2021-08-17T20:29:06Z</time>
      </trkpt>
      <trkpt lat="44.00909" lon="1.7121">
        <ele>324.58</ele>
        <time>2021-08-17T20:29:07Z</time>
      </trkpt>
      <trkpt lat="44.00905" lon="1.71208">
        <ele>324.1</ele>
        <time>2021-08-17T20:29:08Z</time>
      </trkpt>
      <trkpt lat="44.009" lon="1.71204">
        <ele>324.1</ele>
        <time>2021-08-17T20:29:09Z</time>
      </trkpt>
      <trkpt lat="44.00874" lon="1.71187">
        <ele>323.62</ele>
        <time>2021-08-17T20:29:15Z</time>
      </trkpt>
      <trkpt lat="44.00867" lon="1.71181">
        <ele>323.62</ele>
        <time>2021-08-17T20:29:17Z</time>
      </trkpt>
      <trkpt lat="44.00863" lon="1.71179">
        <ele>323.62</ele>
        <time>2021-08-17T20:29:18Z</time>
      </trkpt>
      <trkpt lat="44.00855" lon="1.71173">
        <ele>323.62</ele>
        <time>2021-08-17T20:29:20Z</time>
      </trkpt>
      <trkpt lat="44.00851" lon="1.71168">
        <ele>323.62</ele>
        <time>2021-08-17T20:29:21Z</time>
      </trkpt>
      <trkpt lat="44.00844" lon="1.71156">
        <ele>326.5</ele>
        <time>2021-08-17T20:29:25Z</time>
      </trkpt>
      <trkpt lat="44.00841" lon="1.71153">
        <ele>327.95</ele>
        <time>2021-08-17T20:29:33Z</time>
      </trkpt>
      <trkpt lat="44.00839" lon="1.71148">
        <ele>329.39</ele>
        <time>2021-08-17T20:29:41Z</time>
      </trkpt>
      <trkpt lat="44.00836" lon="1.71142">
        <ele>331.31</ele>
        <time>2021-08-17T20:29:49Z</time>
      </trkpt>
      <trkpt lat="44.00833" lon="1.71136">
        <ele>331.79</ele>
        <time>2021-08-17T20:29:57Z</time>
      </trkpt>
      <trkpt lat="44.00831" lon="1.71134">
        <ele>331.79</ele>
        <time>2021-08-17T20:30:04Z</time>
      </trkpt>
      <trkpt lat="44.00819" lon="1.71125">
        <ele>331.79</ele>
        <time>2021-08-17T20:30:10Z</time>
      </trkpt>
      <trkpt lat="44.008" lon="1.7111">
        <ele>331.79</ele>
        <time>2021-08-17T20:30:17Z</time>
      </trkpt>
      <trkpt lat="44.0079" lon="1.71102">
        <ele>330.35</ele>
        <time>2021-08-17T20:30:20Z</time>
      </trkpt>
      <trkpt lat="44.00781" lon="1.71096">
        <ele>329.87</ele>
        <time>2021-08-17T20:30:22Z</time>
      </trkpt>
      <trkpt lat="44.00777" lon="1.71093">
        <ele>329.87</ele>
        <time>2021-08-17T20:30:23Z</time>
      </trkpt>
      <trkpt lat="44.00773" lon="1.7109">
        <ele>329.87</ele>
        <time>2021-08-17T20:30:24Z</time>
      </trkpt>
      <trkpt lat="44.00749" lon="1.71074">
        <ele>329.87</ele>
        <time>2021-08-17T20:30:30Z</time>
      </trkpt>
      <trkpt lat="44.00744" lon="1.71071">
        <ele>329.87</ele>
        <time>2021-08-17T20:30:31Z</time>
      </trkpt>
      <trkpt lat="44.00725" lon="1.71061">
        <ele>330.83</ele>
        <time>2021-08-17T20:30:35Z</time>
      </trkpt>
      <trkpt lat="44.0071" lon="1.71057">
        <ele>329.87</ele>
        <time>2021-08-17T20:30:40Z</time>
      </trkpt>
      <trkpt lat="44.00696" lon="1.71054">
        <ele>329.39</ele>
        <time>2021-08-17T20:30:46Z</time>
      </trkpt>
      <trkpt lat="44.00672" lon="1.71055">
        <ele>326.99</ele>
        <time>2021-08-17T20:30:52Z</time>
      </trkpt>
      <trkpt lat="44.00651" lon="1.71059">
        <ele>325.06</ele>
        <time>2021-08-17T20:30:58Z</time>
      </trkpt>
      <trkpt lat="44.00646" lon="1.71061">
        <ele>323.14</ele>
        <time>2021-08-17T20:31:02Z</time>
      </trkpt>
      <trkpt lat="44.00641" lon="1.71064">
        <ele>321.7</ele>
        <time>2021-08-17T20:31:04Z</time>
      </trkpt>
      <trkpt lat="44.00639" lon="1.71065">
        <ele>321.22</ele>
        <time>2021-08-17T20:31:05Z</time>
      </trkpt>
      <trkpt lat="44.00636" lon="1.71066">
        <ele>320.26</ele>
        <time>2021-08-17T20:31:06Z</time>
      </trkpt>
      <trkpt lat="44.00629" lon="1.71068">
        <ele>319.78</ele>
        <time>2021-08-17T20:31:08Z</time>
      </trkpt>
      <trkpt lat="44.0061" lon="1.71072">
        <ele>317.85</ele>
        <time>2021-08-17T20:31:14Z</time>
      </trkpt>
      <trkpt lat="44.00589" lon="1.7107">
        <ele>315.93</ele>
        <time>2021-08-17T20:31:19Z</time>
      </trkpt>
      <trkpt lat="44.00575" lon="1.71069">
        <ele>313.05</ele>
        <time>2021-08-17T20:31:24Z</time>
      </trkpt>
      <trkpt lat="44.00566" lon="1.7107">
        <ele>311.12</ele>
        <time>2021-08-17T20:31:27Z</time>
      </trkpt>
      <trkpt lat="44.00564" lon="1.71069">
        <ele>311.12</ele>
        <time>2021-08-17T20:31:28Z</time>
      </trkpt>
      <trkpt lat="44.00562" lon="1.71067">
        <ele>310.64</ele>
        <time>2021-08-17T20:31:29Z</time>
      </trkpt>
      <trkpt lat="44.00559" lon="1.71067">
        <ele>309.68</ele>
        <time>2021-08-17T20:31:30Z</time>
      </trkpt>
      <trkpt lat="44.00556" lon="1.71066">
        <ele>309.2</ele>
        <time>2021-08-17T20:31:31Z</time>
      </trkpt>
      <trkpt lat="44.00553" lon="1.71066">
        <ele>308.72</ele>
        <time>2021-08-17T20:31:32Z</time>
      </trkpt>
      <trkpt lat="44.0055" lon="1.71065">
        <ele>308.24</ele>
        <time>2021-08-17T20:31:33Z</time>
      </trkpt>
      <trkpt lat="44.00547" lon="1.71063">
        <ele>307.28</ele>
        <time>2021-08-17T20:31:34Z</time>
      </trkpt>
      <trkpt lat="44.00545" lon="1.7106">
        <ele>307.28</ele>
        <time>2021-08-17T20:31:35Z</time>
      </trkpt>
      <trkpt lat="44.00544" lon="1.71057">
        <ele>307.28</ele>
        <time>2021-08-17T20:31:36Z</time>
      </trkpt>
      <trkpt lat="44.00542" lon="1.71055">
        <ele>307.28</ele>
        <time>2021-08-17T20:31:37Z</time>
      </trkpt>
      <trkpt lat="44.0054" lon="1.71053">
        <ele>307.28</ele>
        <time>2021-08-17T20:31:38Z</time>
      </trkpt>
      <trkpt lat="44.00539" lon="1.71051">
        <ele>306.8</ele>
        <time>2021-08-17T20:31:39Z</time>
      </trkpt>
      <trkpt lat="44.00537" lon="1.7105">
        <ele>306.8</ele>
        <time>2021-08-17T20:31:40Z</time>
      </trkpt>
      <trkpt lat="44.00535" lon="1.71048">
        <ele>306.32</ele>
        <time>2021-08-17T20:31:41Z</time>
      </trkpt>
      <trkpt lat="44.00523" lon="1.71035">
        <ele>304.39</ele>
        <time>2021-08-17T20:31:46Z</time>
      </trkpt>
      <trkpt lat="44.0051" lon="1.7102">
        <ele>301.03</ele>
        <time>2021-08-17T20:31:52Z</time>
      </trkpt>
      <trkpt lat="44.00501" lon="1.7101">
        <ele>297.67</ele>
        <time>2021-08-17T20:31:56Z</time>
      </trkpt>
      <trkpt lat="44.00494" lon="1.71001">
        <ele>296.22</ele>
        <time>2021-08-17T20:31:59Z</time>
      </trkpt>
      <trkpt lat="44.00492" lon="1.70998">
        <ele>295.26</ele>
        <time>2021-08-17T20:32:00Z</time>
      </trkpt>
      <trkpt lat="44.00491" lon="1.70995">
        <ele>294.3</ele>
        <time>2021-08-17T20:32:01Z</time>
      </trkpt>
      <trkpt lat="44.00491" lon="1.70993">
        <ele>294.3</ele>
        <time>2021-08-17T20:32:02Z</time>
      </trkpt>
      <trkpt lat="44.00489" lon="1.70989">
        <ele>294.3</ele>
        <time>2021-08-17T20:32:10Z</time>
      </trkpt>
      <trkpt lat="44.00488" lon="1.7099">
        <ele>294.3</ele>
        <time>2021-08-17T20:32:17Z</time>
      </trkpt>
      <trkpt lat="44.00489" lon="1.70991">
        <ele>294.3</ele>
        <time>2021-08-17T20:32:22Z</time>
      </trkpt>
      <trkpt lat="44.00491" lon="1.70996">
        <ele>295.26</ele>
        <time>2021-08-17T20:32:29Z</time>
      </trkpt>
      <trkpt lat="44.00494" lon="1.71">
        <ele>296.22</ele>
        <time>2021-08-17T20:32:38Z</time>
      </trkpt>
      <trkpt lat="44.00494" lon="1.70997">
        <ele>297.18</ele>
        <time>2021-08-17T20:32:46Z</time>
      </trkpt>
      <trkpt lat="44.00494" lon="1.70993">
        <ele>298.63</ele>
        <time>2021-08-17T20:32:52Z</time>
      </trkpt>
      <trkpt lat="44.00494" lon="1.70987">
        <ele>299.11</ele>
        <time>2021-08-17T20:33:00Z</time>
      </trkpt>
      <trkpt lat="44.00495" lon="1.7098">
        <ele>301.51</ele>
        <time>2021-08-17T20:33:08Z</time>
      </trkpt>
      <trkpt lat="44.00497" lon="1.70973">
        <ele>302.47</ele>
        <time>2021-08-17T20:33:15Z</time>
      </trkpt>
      <trkpt lat="44.00498" lon="1.70968">
        <ele>302.47</ele>
        <time>2021-08-17T20:33:22Z</time>
      </trkpt>
      <trkpt lat="44.00499" lon="1.70964">
        <ele>303.91</ele>
        <time>2021-08-17T20:33:28Z</time>
      </trkpt>
      <trkpt lat="44.00499" lon="1.70963">
        <ele>303.91</ele>
        <time>2021-08-17T20:33:33Z</time>
      </trkpt>
      <trkpt lat="44.00498" lon="1.70963">
        <ele>303.91</ele>
        <time>2021-08-17T20:33:46Z</time>
      </trkpt>
      <trkpt lat="44.00501" lon="1.70957">
        <ele>305.36</ele>
        <time>2021-08-17T20:33:53Z</time>
      </trkpt>
      <trkpt lat="44.00502" lon="1.7095">
        <ele>305.84</ele>
        <time>2021-08-17T20:34:00Z</time>
      </trkpt>
      <trkpt lat="44.00503" lon="1.70945">
        <ele>306.32</ele>
        <time>2021-08-17T20:34:04Z</time>
      </trkpt>
      <trkpt lat="44.00502" lon="1.70941">
        <ele>307.28</ele>
        <time>2021-08-17T20:34:07Z</time>
      </trkpt>
      <trkpt lat="44.00499" lon="1.70935">
        <ele>308.24</ele>
        <time>2021-08-17T20:34:15Z</time>
      </trkpt>
      <trkpt lat="44.00495" lon="1.70933">
        <ele>309.2</ele>
        <time>2021-08-17T20:34:20Z</time>
      </trkpt>
      <trkpt lat="44.00493" lon="1.70931">
        <ele>310.64</ele>
        <time>2021-08-17T20:34:26Z</time>
      </trkpt>
      <trkpt lat="44.00488" lon="1.70927">
        <ele>311.6</ele>
        <time>2021-08-17T20:34:33Z</time>
      </trkpt>
      <trkpt lat="44.00484" lon="1.70922">
        <ele>312.57</ele>
        <time>2021-08-17T20:34:41Z</time>
      </trkpt>
      <trkpt lat="44.0048" lon="1.70917">
        <ele>313.53</ele>
        <time>2021-08-17T20:34:47Z</time>
      </trkpt>
      <trkpt lat="44.00479" lon="1.70912">
        <ele>314.97</ele>
        <time>2021-08-17T20:34:54Z</time>
      </trkpt>
      <trkpt lat="44.00479" lon="1.70907">
        <ele>315.93</ele>
        <time>2021-08-17T20:35:07Z</time>
      </trkpt>
      <trkpt lat="44.0048" lon="1.70904">
        <ele>316.89</ele>
        <time>2021-08-17T20:35:14Z</time>
      </trkpt>
      <trkpt lat="44.00482" lon="1.70902">
        <ele>317.37</ele>
        <time>2021-08-17T20:35:20Z</time>
      </trkpt>
      <trkpt lat="44.00483" lon="1.70898">
        <ele>318.33</ele>
        <time>2021-08-17T20:35:27Z</time>
      </trkpt>
      <trkpt lat="44.00483" lon="1.70892">
        <ele>319.78</ele>
        <time>2021-08-17T20:35:35Z</time>
      </trkpt>
      <trkpt lat="44.00483" lon="1.70886">
        <ele>320.74</ele>
        <time>2021-08-17T20:35:42Z</time>
      </trkpt>
      <trkpt lat="44.00484" lon="1.70877">
        <ele>322.18</ele>
        <time>2021-08-17T20:35:50Z</time>
      </trkpt>
      <trkpt lat="44.00487" lon="1.70872">
        <ele>322.66</ele>
        <time>2021-08-17T20:35:56Z</time>
      </trkpt>
      <trkpt lat="44.00489" lon="1.70864">
        <ele>324.58</ele>
        <time>2021-08-17T20:36:04Z</time>
      </trkpt>
      <trkpt lat="44.00492" lon="1.70856">
        <ele>325.54</ele>
        <time>2021-08-17T20:36:12Z</time>
      </trkpt>
      <trkpt lat="44.00495" lon="1.70848">
        <ele>326.5</ele>
        <time>2021-08-17T20:36:20Z</time>
      </trkpt>
      <trkpt lat="44.00495" lon="1.70843">
        <ele>326.99</ele>
        <time>2021-08-17T20:36:24Z</time>
      </trkpt>
      <trkpt lat="44.00498" lon="1.70831">
        <ele>328.43</ele>
        <time>2021-08-17T20:36:33Z</time>
      </trkpt>
      <trkpt lat="44.00499" lon="1.7082">
        <ele>329.87</ele>
        <time>2021-08-17T20:36:42Z</time>
      </trkpt>
      <trkpt lat="44.00501" lon="1.70814">
        <ele>330.35</ele>
        <time>2021-08-17T20:36:47Z</time>
      </trkpt>
      <trkpt lat="44.00504" lon="1.70802">
        <ele>331.31</ele>
        <time>2021-08-17T20:36:55Z</time>
      </trkpt>
      <trkpt lat="44.00505" lon="1.70802">
        <ele>331.31</ele>
        <time>2021-08-17T20:36:56Z</time>
      </trkpt>
      <trkpt lat="44.00505" lon="1.70801">
        <ele>331.31</ele>
        <time>2021-08-17T20:36:57Z</time>
      </trkpt>
      <trkpt lat="44.00506" lon="1.70799">
        <ele>331.79</ele>
        <time>2021-08-17T20:36:58Z</time>
      </trkpt>
      <trkpt lat="44.00507" lon="1.70798">
        <ele>331.79</ele>
        <time>2021-08-17T20:36:59Z</time>
      </trkpt>
      <trkpt lat="44.00507" lon="1.70795">
        <ele>332.27</ele>
        <time>2021-08-17T20:37:06Z</time>
      </trkpt>
      <trkpt lat="44.0051" lon="1.70787">
        <ele>332.27</ele>
        <time>2021-08-17T20:37:11Z</time>
      </trkpt>
      <trkpt lat="44.00518" lon="1.70768">
        <ele>333.71</ele>
        <time>2021-08-17T20:37:18Z</time>
      </trkpt>
      <trkpt lat="44.00528" lon="1.70745">
        <ele>335.64</ele>
        <time>2021-08-17T20:37:27Z</time>
      </trkpt>
      <trkpt lat="44.00541" lon="1.70721">
        <ele>337.08</ele>
        <time>2021-08-17T20:37:36Z</time>
      </trkpt>
      <trkpt lat="44.0055" lon="1.70704">
        <ele>337.56</ele>
        <time>2021-08-17T20:37:43Z</time>
      </trkpt>
      <trkpt lat="44.00561" lon="1.70684">
        <ele>338.52</ele>
        <time>2021-08-17T20:37:51Z</time>
      </trkpt>
      <trkpt lat="44.00574" lon="1.70659">
        <ele>339</ele>
        <time>2021-08-17T20:38:00Z</time>
      </trkpt>
      <trkpt lat="44.00582" lon="1.70633">
        <ele>339</ele>
        <time>2021-08-17T20:38:07Z</time>
      </trkpt>
      <trkpt lat="44.00581" lon="1.70621">
        <ele>337.56</ele>
        <time>2021-08-17T20:38:10Z</time>
      </trkpt>
      <trkpt lat="44.0057" lon="1.70606">
        <ele>335.64</ele>
        <time>2021-08-17T20:38:15Z</time>
      </trkpt>
      <trkpt lat="44.00553" lon="1.70599">
        <ele>334.68</ele>
        <time>2021-08-17T20:38:22Z</time>
      </trkpt>
      <trkpt lat="44.00542" lon="1.70591">
        <ele>333.71</ele>
        <time>2021-08-17T20:38:28Z</time>
      </trkpt>
      <trkpt lat="44.00522" lon="1.70584">
        <ele>333.71</ele>
        <time>2021-08-17T20:38:36Z</time>
      </trkpt>
      <trkpt lat="44.00502" lon="1.7058">
        <ele>333.71</ele>
        <time>2021-08-17T20:38:43Z</time>
      </trkpt>
      <trkpt lat="44.00484" lon="1.70571">
        <ele>333.71</ele>
        <time>2021-08-17T20:38:50Z</time>
      </trkpt>
      <trkpt lat="44.00478" lon="1.70573">
        <ele>333.71</ele>
        <time>2021-08-17T20:38:52Z</time>
      </trkpt>
      <trkpt lat="44.00471" lon="1.7058">
        <ele>332.27</ele>
        <time>2021-08-17T20:38:55Z</time>
      </trkpt>
      <trkpt lat="44.00468" lon="1.70581">
        <ele>332.27</ele>
        <time>2021-08-17T20:38:56Z</time>
      </trkpt>
      <trkpt lat="44.00465" lon="1.70582">
        <ele>332.27</ele>
        <time>2021-08-17T20:38:57Z</time>
      </trkpt>
      <trkpt lat="44.00462" lon="1.70583">
        <ele>331.79</ele>
        <time>2021-08-17T20:38:58Z</time>
      </trkpt>
      <trkpt lat="44.00458" lon="1.70584">
        <ele>331.79</ele>
        <time>2021-08-17T20:38:59Z</time>
      </trkpt>
      <trkpt lat="44.00455" lon="1.70585">
        <ele>331.31</ele>
        <time>2021-08-17T20:39:00Z</time>
      </trkpt>
      <trkpt lat="44.00452" lon="1.70587">
        <ele>331.31</ele>
        <time>2021-08-17T20:39:01Z</time>
      </trkpt>
      <trkpt lat="44.00449" lon="1.70589">
        <ele>331.31</ele>
        <time>2021-08-17T20:39:02Z</time>
      </trkpt>
      <trkpt lat="44.00446" lon="1.7059">
        <ele>331.31</ele>
        <time>2021-08-17T20:39:03Z</time>
      </trkpt>
      <trkpt lat="44.00418" lon="1.70597">
        <ele>330.35</ele>
        <time>2021-08-17T20:39:10Z</time>
      </trkpt>
      <trkpt lat="44.00396" lon="1.70602">
        <ele>330.35</ele>
        <time>2021-08-17T20:39:16Z</time>
      </trkpt>
      <trkpt lat="44.00373" lon="1.70606">
        <ele>331.79</ele>
        <time>2021-08-17T20:39:22Z</time>
      </trkpt>
      <trkpt lat="44.0035" lon="1.70606">
        <ele>332.75</ele>
        <time>2021-08-17T20:39:29Z</time>
      </trkpt>
      <trkpt lat="44.00326" lon="1.70613">
        <ele>333.23</ele>
        <time>2021-08-17T20:39:36Z</time>
      </trkpt>
      <trkpt lat="44.00299" lon="1.7062">
        <ele>333.23</ele>
        <time>2021-08-17T20:39:43Z</time>
      </trkpt>
      <trkpt lat="44.00281" lon="1.70621">
        <ele>331.79</ele>
        <time>2021-08-17T20:39:47Z</time>
      </trkpt>
      <trkpt lat="44.00271" lon="1.7062">
        <ele>331.79</ele>
        <time>2021-08-17T20:39:49Z</time>
      </trkpt>
      <trkpt lat="44.00266" lon="1.70619">
        <ele>331.31</ele>
        <time>2021-08-17T20:39:50Z</time>
      </trkpt>
      <trkpt lat="44.00261" lon="1.70619">
        <ele>331.31</ele>
        <time>2021-08-17T20:39:51Z</time>
      </trkpt>
      <trkpt lat="44.00241" lon="1.70613">
        <ele>329.39</ele>
        <time>2021-08-17T20:39:56Z</time>
      </trkpt>
      <trkpt lat="44.00228" lon="1.70607">
        <ele>327.95</ele>
        <time>2021-08-17T20:39:59Z</time>
      </trkpt>
      <trkpt lat="44.00222" lon="1.70605">
        <ele>327.47</ele>
        <time>2021-08-17T20:40:00Z</time>
      </trkpt>
      <trkpt lat="44.00205" lon="1.706">
        <ele>325.54</ele>
        <time>2021-08-17T20:40:04Z</time>
      </trkpt>
      <trkpt lat="44.00201" lon="1.70597">
        <ele>325.06</ele>
        <time>2021-08-17T20:40:05Z</time>
      </trkpt>
      <trkpt lat="44.00193" lon="1.70589">
        <ele>324.1</ele>
        <time>2021-08-17T20:40:07Z</time>
      </trkpt>
      <trkpt lat="44.0019" lon="1.70584">
        <ele>324.1</ele>
        <time>2021-08-17T20:40:08Z</time>
      </trkpt>
      <trkpt lat="44.00187" lon="1.70579">
        <ele>323.62</ele>
        <time>2021-08-17T20:40:09Z</time>
      </trkpt>
      <trkpt lat="44.00184" lon="1.70575">
        <ele>323.14</ele>
        <time>2021-08-17T20:40:10Z</time>
      </trkpt>
      <trkpt lat="44.0018" lon="1.7057">
        <ele>322.66</ele>
        <time>2021-08-17T20:40:11Z</time>
      </trkpt>
      <trkpt lat="44.00172" lon="1.70563">
        <ele>322.18</ele>
        <time>2021-08-17T20:40:13Z</time>
      </trkpt>
      <trkpt lat="44.00163" lon="1.70558">
        <ele>320.26</ele>
        <time>2021-08-17T20:40:15Z</time>
      </trkpt>
      <trkpt lat="44.00149" lon="1.70549">
        <ele>316.89</ele>
        <time>2021-08-17T20:40:18Z</time>
      </trkpt>
      <trkpt lat="44.00145" lon="1.70546">
        <ele>315.93</ele>
        <time>2021-08-17T20:40:19Z</time>
      </trkpt>
      <trkpt lat="44.0014" lon="1.70544">
        <ele>314.97</ele>
        <time>2021-08-17T20:40:20Z</time>
      </trkpt>
      <trkpt lat="44.00136" lon="1.7054">
        <ele>314.01</ele>
        <time>2021-08-17T20:40:21Z</time>
      </trkpt>
      <trkpt lat="44.00132" lon="1.70537">
        <ele>313.05</ele>
        <time>2021-08-17T20:40:22Z</time>
      </trkpt>
      <trkpt lat="44.00128" lon="1.70534">
        <ele>312.09</ele>
        <time>2021-08-17T20:40:23Z</time>
      </trkpt>
      <trkpt lat="44.00124" lon="1.70531">
        <ele>311.12</ele>
        <time>2021-08-17T20:40:24Z</time>
      </trkpt>
      <trkpt lat="44.00115" lon="1.70525">
        <ele>309.2</ele>
        <time>2021-08-17T20:40:26Z</time>
      </trkpt>
      <trkpt lat="44.00111" lon="1.70522">
        <ele>309.2</ele>
        <time>2021-08-17T20:40:27Z</time>
      </trkpt>
      <trkpt lat="44.00103" lon="1.70514">
        <ele>307.76</ele>
        <time>2021-08-17T20:40:31Z</time>
      </trkpt>
      <trkpt lat="44.001" lon="1.70512">
        <ele>307.28</ele>
        <time>2021-08-17T20:40:33Z</time>
      </trkpt>
      <trkpt lat="44.00097" lon="1.70509">
        <ele>306.8</ele>
        <time>2021-08-17T20:40:36Z</time>
      </trkpt>
      <trkpt lat="44.00096" lon="1.70508">
        <ele>306.32</ele>
        <time>2021-08-17T20:40:37Z</time>
      </trkpt>
      <trkpt lat="44.00094" lon="1.70506">
        <ele>306.32</ele>
        <time>2021-08-17T20:40:38Z</time>
      </trkpt>
      <trkpt lat="44.00084" lon="1.70498">
        <ele>303.91</ele>
        <time>2021-08-17T20:40:43Z</time>
      </trkpt>
      <trkpt lat="44.00083" lon="1.70498">
        <ele>303.91</ele>
        <time>2021-08-17T20:40:44Z</time>
      </trkpt>
      <trkpt lat="44.00081" lon="1.70501">
        <ele>301.99</ele>
        <time>2021-08-17T20:40:50Z</time>
      </trkpt>
      <trkpt lat="44.0008" lon="1.70502">
        <ele>301.51</ele>
        <time>2021-08-17T20:40:58Z</time>
      </trkpt>
      <trkpt lat="44.00079" lon="1.70507">
        <ele>300.07</ele>
        <time>2021-08-17T20:41:05Z</time>
      </trkpt>
      <trkpt lat="44.00076" lon="1.70507">
        <ele>299.11</ele>
        <time>2021-08-17T20:41:11Z</time>
      </trkpt>
      <trkpt lat="44.00075" lon="1.70507">
        <ele>299.11</ele>
        <time>2021-08-17T20:41:14Z</time>
      </trkpt>
      <trkpt lat="44.00073" lon="1.70508">
        <ele>298.63</ele>
        <time>2021-08-17T20:41:16Z</time>
      </trkpt>
      <trkpt lat="44.00074" lon="1.70512">
        <ele>297.18</ele>
        <time>2021-08-17T20:41:19Z</time>
      </trkpt>
      <trkpt lat="44.00075" lon="1.70516">
        <ele>296.22</ele>
        <time>2021-08-17T20:41:22Z</time>
      </trkpt>
      <trkpt lat="44.00075" lon="1.70518">
        <ele>295.74</ele>
        <time>2021-08-17T20:41:24Z</time>
      </trkpt>
      <trkpt lat="44.00061" lon="1.70519">
        <ele>291.9</ele>
        <time>2021-08-17T20:41:30Z</time>
      </trkpt>
      <trkpt lat="44.00047" lon="1.70521">
        <ele>288.05</ele>
        <time>2021-08-17T20:41:35Z</time>
      </trkpt>
      <trkpt lat="44.00031" lon="1.70526">
        <ele>284.21</ele>
        <time>2021-08-17T20:41:41Z</time>
      </trkpt>
      <trkpt lat="44.00014" lon="1.70528">
        <ele>282.28</ele>
        <time>2021-08-17T20:41:45Z</time>
      </trkpt>
      <trkpt lat="43.99997" lon="1.7053">
        <ele>278.44</ele>
        <time>2021-08-17T20:41:49Z</time>
      </trkpt>
      <trkpt lat="43.99984" lon="1.70532">
        <ele>275.07</ele>
        <time>2021-08-17T20:41:52Z</time>
      </trkpt>
      <trkpt lat="43.9998" lon="1.70531">
        <ele>275.07</ele>
        <time>2021-08-17T20:41:53Z</time>
      </trkpt>
      <trkpt lat="43.99958" lon="1.70532">
        <ele>271.71</ele>
        <time>2021-08-17T20:41:59Z</time>
      </trkpt>
      <trkpt lat="43.99944" lon="1.70536">
        <ele>267.86</ele>
        <time>2021-08-17T20:42:03Z</time>
      </trkpt>
      <trkpt lat="43.99931" lon="1.70537">
        <ele>264.5</ele>
        <time>2021-08-17T20:42:07Z</time>
      </trkpt>
      <trkpt lat="43.9992" lon="1.70537">
        <ele>261.14</ele>
        <time>2021-08-17T20:42:11Z</time>
      </trkpt>
      <trkpt lat="43.99906" lon="1.70535">
        <ele>257.29</ele>
        <time>2021-08-17T20:42:15Z</time>
      </trkpt>
      <trkpt lat="43.99897" lon="1.70532">
        <ele>254.89</ele>
        <time>2021-08-17T20:42:17Z</time>
      </trkpt>
      <trkpt lat="43.99878" lon="1.70527">
        <ele>251.52</ele>
        <time>2021-08-17T20:42:21Z</time>
      </trkpt>
      <trkpt lat="43.9987" lon="1.70524">
        <ele>250.08</ele>
        <time>2021-08-17T20:42:23Z</time>
      </trkpt>
      <trkpt lat="43.99849" lon="1.70523">
        <ele>246.23</ele>
        <time>2021-08-17T20:42:28Z</time>
      </trkpt>
      <trkpt lat="43.99842" lon="1.70523">
        <ele>244.79</ele>
        <time>2021-08-17T20:42:30Z</time>
      </trkpt>
      <trkpt lat="43.99838" lon="1.7052">
        <ele>244.31</ele>
        <time>2021-08-17T20:42:31Z</time>
      </trkpt>
      <trkpt lat="43.99816" lon="1.70501">
        <ele>242.39</ele>
        <time>2021-08-17T20:42:36Z</time>
      </trkpt>
      <trkpt lat="43.99788" lon="1.70467">
        <ele>239.99</ele>
        <time>2021-08-17T20:42:42Z</time>
      </trkpt>
      <trkpt lat="43.99783" lon="1.70462">
        <ele>239.02</ele>
        <time>2021-08-17T20:42:43Z</time>
      </trkpt>
      <trkpt lat="43.99766" lon="1.70438">
        <ele>235.66</ele>
        <time>2021-08-17T20:42:47Z</time>
      </trkpt>
      <trkpt lat="43.99758" lon="1.70427">
        <ele>234.22</ele>
        <time>2021-08-17T20:42:49Z</time>
      </trkpt>
      <trkpt lat="43.99747" lon="1.7041">
        <ele>231.81</ele>
        <time>2021-08-17T20:42:53Z</time>
      </trkpt>
      <trkpt lat="43.99744" lon="1.70408">
        <ele>230.85</ele>
        <time>2021-08-17T20:42:54Z</time>
      </trkpt>
      <trkpt lat="43.99742" lon="1.70407">
        <ele>229.89</ele>
        <time>2021-08-17T20:42:55Z</time>
      </trkpt>
      <trkpt lat="43.99739" lon="1.70407">
        <ele>228.93</ele>
        <time>2021-08-17T20:42:56Z</time>
      </trkpt>
      <trkpt lat="43.99737" lon="1.70406">
        <ele>228.45</ele>
        <time>2021-08-17T20:42:57Z</time>
      </trkpt>
      <trkpt lat="43.99734" lon="1.70407">
        <ele>227.49</ele>
        <time>2021-08-17T20:42:58Z</time>
      </trkpt>
      <trkpt lat="43.99731" lon="1.70408">
        <ele>227.01</ele>
        <time>2021-08-17T20:42:59Z</time>
      </trkpt>
      <trkpt lat="43.99727" lon="1.7041">
        <ele>225.57</ele>
        <time>2021-08-17T20:43:00Z</time>
      </trkpt>
      <trkpt lat="43.99723" lon="1.70412">
        <ele>225.09</ele>
        <time>2021-08-17T20:43:01Z</time>
      </trkpt>
      <trkpt lat="43.99719" lon="1.70415">
        <ele>224.12</ele>
        <time>2021-08-17T20:43:02Z</time>
      </trkpt>
      <trkpt lat="43.99716" lon="1.70418">
        <ele>223.64</ele>
        <time>2021-08-17T20:43:03Z</time>
      </trkpt>
      <trkpt lat="43.99712" lon="1.70421">
        <ele>222.68</ele>
        <time>2021-08-17T20:43:04Z</time>
      </trkpt>
      <trkpt lat="43.99709" lon="1.70423">
        <ele>221.72</ele>
        <time>2021-08-17T20:43:05Z</time>
      </trkpt>
      <trkpt lat="43.99706" lon="1.70424">
        <ele>221.24</ele>
        <time>2021-08-17T20:43:06Z</time>
      </trkpt>
      <trkpt lat="43.99704" lon="1.70422">
        <ele>220.76</ele>
        <time>2021-08-17T20:43:07Z</time>
      </trkpt>
      <trkpt lat="43.99702" lon="1.70419">
        <ele>220.76</ele>
        <time>2021-08-17T20:43:08Z</time>
      </trkpt>
      <trkpt lat="43.99702" lon="1.70415">
        <ele>220.28</ele>
        <time>2021-08-17T20:43:09Z</time>
      </trkpt>
      <trkpt lat="43.99703" lon="1.70411">
        <ele>220.28</ele>
        <time>2021-08-17T20:43:10Z</time>
      </trkpt>
      <trkpt lat="43.99703" lon="1.70408">
        <ele>220.76</ele>
        <time>2021-08-17T20:43:11Z</time>
      </trkpt>
      <trkpt lat="43.99704" lon="1.70405">
        <ele>220.76</ele>
        <time>2021-08-17T20:43:12Z</time>
      </trkpt>
      <trkpt lat="43.99703" lon="1.70404">
        <ele>220.76</ele>
        <time>2021-08-17T20:43:17Z</time>
      </trkpt>
      <trkpt lat="43.99701" lon="1.70419">
        <ele>220.76</ele>
        <time>2021-08-17T20:43:24Z</time>
      </trkpt>
      <trkpt lat="43.99699" lon="1.70425">
        <ele>220.76</ele>
        <time>2021-08-17T20:43:26Z</time>
      </trkpt>
      <trkpt lat="43.99697" lon="1.70427">
        <ele>220.76</ele>
        <time>2021-08-17T20:43:27Z</time>
      </trkpt>
      <trkpt lat="43.99695" lon="1.70429">
        <ele>220.76</ele>
        <time>2021-08-17T20:43:28Z</time>
      </trkpt>
      <trkpt lat="43.99682" lon="1.70435">
        <ele>219.32</ele>
        <time>2021-08-17T20:43:33Z</time>
      </trkpt>
      <trkpt lat="43.99661" lon="1.70412">
        <ele>216.43</ele>
        <time>2021-08-17T20:43:40Z</time>
      </trkpt>
      <trkpt lat="43.99657" lon="1.70406">
        <ele>216.43</ele>
        <time>2021-08-17T20:43:41Z</time>
      </trkpt>
      <trkpt lat="43.99645" lon="1.70389">
        <ele>213.55</ele>
        <time>2021-08-17T20:43:44Z</time>
      </trkpt>
      <trkpt lat="43.99641" lon="1.70384">
        <ele>213.07</ele>
        <time>2021-08-17T20:43:45Z</time>
      </trkpt>
      <trkpt lat="43.99637" lon="1.70379">
        <ele>213.07</ele>
        <time>2021-08-17T20:43:46Z</time>
      </trkpt>
      <trkpt lat="43.99634" lon="1.70373">
        <ele>212.11</ele>
        <time>2021-08-17T20:43:47Z</time>
      </trkpt>
      <trkpt lat="43.99631" lon="1.70366">
        <ele>211.15</ele>
        <time>2021-08-17T20:43:48Z</time>
      </trkpt>
      <trkpt lat="43.99629" lon="1.70359">
        <ele>210.19</ele>
        <time>2021-08-17T20:43:49Z</time>
      </trkpt>
      <trkpt lat="43.99627" lon="1.70352">
        <ele>210.19</ele>
        <time>2021-08-17T20:43:50Z</time>
      </trkpt>
      <trkpt lat="43.99626" lon="1.70344">
        <ele>209.7</ele>
        <time>2021-08-17T20:43:51Z</time>
      </trkpt>
      <trkpt lat="43.99621" lon="1.70319">
        <ele>206.34</ele>
        <time>2021-08-17T20:43:54Z</time>
      </trkpt>
      <trkpt lat="43.99619" lon="1.70311">
        <ele>205.86</ele>
        <time>2021-08-17T20:43:55Z</time>
      </trkpt>
      <trkpt lat="43.99616" lon="1.70304">
        <ele>205.38</ele>
        <time>2021-08-17T20:43:56Z</time>
      </trkpt>
      <trkpt lat="43.99612" lon="1.70299">
        <ele>204.42</ele>
        <time>2021-08-17T20:43:57Z</time>
      </trkpt>
      <trkpt lat="43.99608" lon="1.70293">
        <ele>203.94</ele>
        <time>2021-08-17T20:43:58Z</time>
      </trkpt>
      <trkpt lat="43.99605" lon="1.70288">
        <ele>203.94</ele>
        <time>2021-08-17T20:43:59Z</time>
      </trkpt>
      <trkpt lat="43.99604" lon="1.70281">
        <ele>203.46</ele>
        <time>2021-08-17T20:44:00Z</time>
      </trkpt>
      <trkpt lat="43.99602" lon="1.70275">
        <ele>203.94</ele>
        <time>2021-08-17T20:44:01Z</time>
      </trkpt>
      <trkpt lat="43.99601" lon="1.70268">
        <ele>203.94</ele>
        <time>2021-08-17T20:44:02Z</time>
      </trkpt>
      <trkpt lat="43.99601" lon="1.70261">
        <ele>203.94</ele>
        <time>2021-08-17T20:44:03Z</time>
      </trkpt>
      <trkpt lat="43.99596" lon="1.70246">
        <ele>203.94</ele>
        <time>2021-08-17T20:44:07Z</time>
      </trkpt>
      <trkpt lat="43.99594" lon="1.70241">
        <ele>203.94</ele>
        <time>2021-08-17T20:44:13Z</time>
      </trkpt>
      <trkpt lat="43.99592" lon="1.70238">
        <ele>203.94</ele>
        <time>2021-08-17T20:44:14Z</time>
      </trkpt>
      <trkpt lat="43.99581" lon="1.70225">
        <ele>202.01</ele>
        <time>2021-08-17T20:44:18Z</time>
      </trkpt>
      <trkpt lat="43.99577" lon="1.70224">
        <ele>201.05</ele>
        <time>2021-08-17T20:44:19Z</time>
      </trkpt>
      <trkpt lat="43.99558" lon="1.70223">
        <ele>197.21</ele>
        <time>2021-08-17T20:44:23Z</time>
      </trkpt>
      <trkpt lat="43.99553" lon="1.70223">
        <ele>197.21</ele>
        <time>2021-08-17T20:44:24Z</time>
      </trkpt>
      <trkpt lat="43.99534" lon="1.70224">
        <ele>192.88</ele>
        <time>2021-08-17T20:44:27Z</time>
      </trkpt>
      <trkpt lat="43.99515" lon="1.70226">
        <ele>188.56</ele>
        <time>2021-08-17T20:44:30Z</time>
      </trkpt>
      <trkpt lat="43.99493" lon="1.70228">
        <ele>184.23</ele>
        <time>2021-08-17T20:44:33Z</time>
      </trkpt>
      <trkpt lat="43.99477" lon="1.7023">
        <ele>181.35</ele>
        <time>2021-08-17T20:44:35Z</time>
      </trkpt>
      <trkpt lat="43.99456" lon="1.70234">
        <ele>177.5</ele>
        <time>2021-08-17T20:44:38Z</time>
      </trkpt>
      <trkpt lat="43.99432" lon="1.70242">
        <ele>174.14</ele>
        <time>2021-08-17T20:44:41Z</time>
      </trkpt>
      <trkpt lat="43.99422" lon="1.70245">
        <ele>173.17</ele>
        <time>2021-08-17T20:44:43Z</time>
      </trkpt>
      <trkpt lat="43.99416" lon="1.70246">
        <ele>172.69</ele>
        <time>2021-08-17T20:44:44Z</time>
      </trkpt>
      <trkpt lat="43.99407" lon="1.70246">
        <ele>171.25</ele>
        <time>2021-08-17T20:44:46Z</time>
      </trkpt>
      <trkpt lat="43.99394" lon="1.70247">
        <ele>170.29</ele>
        <time>2021-08-17T20:44:48Z</time>
      </trkpt>
      <trkpt lat="43.99363" lon="1.70254">
        <ele>167.41</ele>
        <time>2021-08-17T20:44:53Z</time>
      </trkpt>
      <trkpt lat="43.99333" lon="1.70261">
        <ele>164.04</ele>
        <time>2021-08-17T20:44:57Z</time>
      </trkpt>
      <trkpt lat="43.993" lon="1.70267">
        <ele>161.64</ele>
        <time>2021-08-17T20:45:01Z</time>
      </trkpt>
      <trkpt lat="43.99266" lon="1.70274">
        <ele>158.27</ele>
        <time>2021-08-17T20:45:05Z</time>
      </trkpt>
      <trkpt lat="43.99236" lon="1.70279">
        <ele>156.35</ele>
        <time>2021-08-17T20:45:09Z</time>
      </trkpt>
      <trkpt lat="43.99187" lon="1.70287">
        <ele>153.95</ele>
        <time>2021-08-17T20:45:16Z</time>
      </trkpt>
      <trkpt lat="43.99175" lon="1.7029">
        <ele>153.47</ele>
        <time>2021-08-17T20:45:19Z</time>
      </trkpt>
      <trkpt lat="43.99173" lon="1.70294">
        <ele>152.51</ele>
        <time>2021-08-17T20:45:20Z</time>
      </trkpt>
      <trkpt lat="43.99171" lon="1.70298">
        <ele>152.51</ele>
        <time>2021-08-17T20:45:21Z</time>
      </trkpt>
      <trkpt lat="43.99161" lon="1.70327">
        <ele>151.06</ele>
        <time>2021-08-17T20:45:26Z</time>
      </trkpt>
      <trkpt lat="43.99158" lon="1.70332">
        <ele>151.06</ele>
        <time>2021-08-17T20:45:27Z</time>
      </trkpt>
      <trkpt lat="43.99152" lon="1.70346">
        <ele>149.14</ele>
        <time>2021-08-17T20:45:29Z</time>
      </trkpt>
      <trkpt lat="43.99146" lon="1.7037">
        <ele>147.22</ele>
        <time>2021-08-17T20:45:32Z</time>
      </trkpt>
      <trkpt lat="43.99143" lon="1.70381">
        <ele>146.26</ele>
        <time>2021-08-17T20:45:34Z</time>
      </trkpt>
      <trkpt lat="43.99141" lon="1.70383">
        <ele>146.26</ele>
        <time>2021-08-17T20:45:35Z</time>
      </trkpt>
      <trkpt lat="43.99138" lon="1.70383">
        <ele>146.26</ele>
        <time>2021-08-17T20:45:36Z</time>
      </trkpt>
      <trkpt lat="43.99131" lon="1.70384">
        <ele>145.78</ele>
        <time>2021-08-17T20:45:38Z</time>
      </trkpt>
      <trkpt lat="43.99116" lon="1.70389">
        <ele>145.78</ele>
        <time>2021-08-17T20:45:42Z</time>
      </trkpt>
      <trkpt lat="43.99114" lon="1.70392">
        <ele>145.78</ele>
        <time>2021-08-17T20:45:43Z</time>
      </trkpt>
      <trkpt lat="43.99113" lon="1.70396">
        <ele>145.78</ele>
        <time>2021-08-17T20:45:44Z</time>
      </trkpt>
      <trkpt lat="43.99113" lon="1.704">
        <ele>145.78</ele>
        <time>2021-08-17T20:45:45Z</time>
      </trkpt>
      <trkpt lat="43.99113" lon="1.70403">
        <ele>145.78</ele>
        <time>2021-08-17T20:45:46Z</time>
      </trkpt>
      <trkpt lat="43.99114" lon="1.70406">
        <ele>145.78</ele>
        <time>2021-08-17T20:45:47Z</time>
      </trkpt>
      <trkpt lat="43.99116" lon="1.70407">
        <ele>145.78</ele>
        <time>2021-08-17T20:45:48Z</time>
      </trkpt>
      <trkpt lat="43.99118" lon="1.70407">
        <ele>145.78</ele>
        <time>2021-08-17T20:45:49Z</time>
      </trkpt>
      <trkpt lat="43.99121" lon="1.70408">
        <ele>145.78</ele>
        <time>2021-08-17T20:45:50Z</time>
      </trkpt>
      <trkpt lat="43.99124" lon="1.70408">
        <ele>145.78</ele>
        <time>2021-08-17T20:45:51Z</time>
      </trkpt>
      <trkpt lat="43.99128" lon="1.70408">
        <ele>145.78</ele>
        <time>2021-08-17T20:45:52Z</time>
      </trkpt>
      <trkpt lat="43.99132" lon="1.70408">
        <ele>145.78</ele>
        <time>2021-08-17T20:45:53Z</time>
      </trkpt>
      <trkpt lat="43.99135" lon="1.70409">
        <ele>145.78</ele>
        <time>2021-08-17T20:45:54Z</time>
      </trkpt>
      <trkpt lat="43.99151" lon="1.70414">
        <ele>145.78</ele>
        <time>2021-08-17T20:46:01Z</time>
      </trkpt>
      <trkpt lat="43.99164" lon="1.70429">
        <ele>148.18</ele>
        <time>2021-08-17T20:46:09Z</time>
      </trkpt>
      <trkpt lat="43.99173" lon="1.70438">
        <ele>149.62</ele>
        <time>2021-08-17T20:46:17Z</time>
      </trkpt>
      <trkpt lat="43.9918" lon="1.70445">
        <ele>151.54</ele>
        <time>2021-08-17T20:46:27Z</time>
      </trkpt>
      <trkpt lat="43.99183" lon="1.70448">
        <ele>152.51</ele>
        <time>2021-08-17T20:46:36Z</time>
      </trkpt>
      <trkpt lat="43.99186" lon="1.70452">
        <ele>152.99</ele>
        <time>2021-08-17T20:46:48Z</time>
      </trkpt>
      <trkpt lat="43.99193" lon="1.70459">
        <ele>154.91</ele>
        <time>2021-08-17T20:46:58Z</time>
      </trkpt>
      <trkpt lat="43.99199" lon="1.70466">
        <ele>157.31</ele>
        <time>2021-08-17T20:47:08Z</time>
      </trkpt>
      <trkpt lat="43.99207" lon="1.70471">
        <ele>159.72</ele>
        <time>2021-08-17T20:47:21Z</time>
      </trkpt>
      <trkpt lat="43.99213" lon="1.70474">
        <ele>161.64</ele>
        <time>2021-08-17T20:47:30Z</time>
      </trkpt>
      <trkpt lat="43.99221" lon="1.70479">
        <ele>163.56</ele>
        <time>2021-08-17T20:47:42Z</time>
      </trkpt>
      <trkpt lat="43.99228" lon="1.70483">
        <ele>165</ele>
        <time>2021-08-17T20:47:53Z</time>
      </trkpt>
      <trkpt lat="43.99236" lon="1.70486">
        <ele>167.41</ele>
        <time>2021-08-17T20:48:04Z</time>
      </trkpt>
      <trkpt lat="43.99244" lon="1.7049">
        <ele>169.33</ele>
        <time>2021-08-17T20:48:16Z</time>
      </trkpt>
      <trkpt lat="43.9925" lon="1.70493">
        <ele>170.77</ele>
        <time>2021-08-17T20:48:26Z</time>
      </trkpt>
      <trkpt lat="43.99258" lon="1.70498">
        <ele>172.69</ele>
        <time>2021-08-17T20:48:37Z</time>
      </trkpt>
      <trkpt lat="43.99263" lon="1.70502">
        <ele>173.66</ele>
        <time>2021-08-17T20:48:44Z</time>
      </trkpt>
      <trkpt lat="43.99269" lon="1.70505">
        <ele>175.1</ele>
        <time>2021-08-17T20:48:53Z</time>
      </trkpt>
      <trkpt lat="43.99278" lon="1.70511">
        <ele>176.54</ele>
        <time>2021-08-17T20:49:05Z</time>
      </trkpt>
      <trkpt lat="43.99278" lon="1.70513">
        <ele>177.5</ele>
        <time>2021-08-17T20:49:07Z</time>
      </trkpt>
      <trkpt lat="43.99283" lon="1.70516">
        <ele>177.98</ele>
        <time>2021-08-17T20:49:13Z</time>
      </trkpt>
      <trkpt lat="43.99292" lon="1.70521">
        <ele>179.9</ele>
        <time>2021-08-17T20:49:24Z</time>
      </trkpt>
      <trkpt lat="43.99296" lon="1.70525">
        <ele>179.9</ele>
        <time>2021-08-17T20:49:29Z</time>
      </trkpt>
      <trkpt lat="43.99307" lon="1.70533">
        <ele>181.83</ele>
        <time>2021-08-17T20:49:41Z</time>
      </trkpt>
      <trkpt lat="43.99312" lon="1.70537">
        <ele>182.79</ele>
        <time>2021-08-17T20:49:50Z</time>
      </trkpt>
      <trkpt lat="43.99316" lon="1.7054">
        <ele>183.27</ele>
        <time>2021-08-17T20:49:56Z</time>
      </trkpt>
      <trkpt lat="43.99317" lon="1.7054">
        <ele>183.27</ele>
        <time>2021-08-17T20:49:57Z</time>
      </trkpt>
      <trkpt lat="43.99318" lon="1.70541">
        <ele>183.75</ele>
        <time>2021-08-17T20:49:58Z</time>
      </trkpt>
      <trkpt lat="43.9932" lon="1.70542">
        <ele>183.75</ele>
        <time>2021-08-17T20:49:59Z</time>
      </trkpt>
      <trkpt lat="43.99321" lon="1.70543">
        <ele>183.75</ele>
        <time>2021-08-17T20:50:00Z</time>
      </trkpt>
      <trkpt lat="43.99322" lon="1.70544">
        <ele>184.23</ele>
        <time>2021-08-17T20:50:01Z</time>
      </trkpt>
      <trkpt lat="43.99323" lon="1.70545">
        <ele>184.23</ele>
        <time>2021-08-17T20:50:02Z</time>
      </trkpt>
      <trkpt lat="43.99324" lon="1.70545">
        <ele>184.71</ele>
        <time>2021-08-17T20:50:03Z</time>
      </trkpt>
      <trkpt lat="43.99326" lon="1.70546">
        <ele>184.71</ele>
        <time>2021-08-17T20:50:04Z</time>
      </trkpt>
      <trkpt lat="43.99327" lon="1.70547">
        <ele>185.19</ele>
        <time>2021-08-17T20:50:05Z</time>
      </trkpt>
      <trkpt lat="43.99328" lon="1.70548">
        <ele>185.19</ele>
        <time>2021-08-17T20:50:06Z</time>
      </trkpt>
      <trkpt lat="43.99329" lon="1.70548">
        <ele>185.19</ele>
        <time>2021-08-17T20:50:07Z</time>
      </trkpt>
      <trkpt lat="43.9933" lon="1.70549">
        <ele>185.67</ele>
        <time>2021-08-17T20:50:08Z</time>
      </trkpt>
      <trkpt lat="43.99331" lon="1.7055">
        <ele>185.67</ele>
        <time>2021-08-17T20:50:09Z</time>
      </trkpt>
      <trkpt lat="43.99332" lon="1.70551">
        <ele>185.67</ele>
        <time>2021-08-17T20:50:10Z</time>
      </trkpt>
      <trkpt lat="43.9934" lon="1.70557">
        <ele>187.11</ele>
        <time>2021-08-17T20:50:17Z</time>
      </trkpt>
      <trkpt lat="43.99342" lon="1.7056">
        <ele>187.59</ele>
        <time>2021-08-17T20:50:22Z</time>
      </trkpt>
      <trkpt lat="43.99349" lon="1.70566">
        <ele>189.04</ele>
        <time>2021-08-17T20:50:31Z</time>
      </trkpt>
      <trkpt lat="43.99355" lon="1.70573">
        <ele>190.48</ele>
        <time>2021-08-17T20:50:40Z</time>
      </trkpt>
      <trkpt lat="43.99361" lon="1.70582">
        <ele>191.92</ele>
        <time>2021-08-17T20:50:51Z</time>
      </trkpt>
      <trkpt lat="43.99368" lon="1.70592">
        <ele>193.84</ele>
        <time>2021-08-17T20:51:02Z</time>
      </trkpt>
      <trkpt lat="43.99374" lon="1.70602">
        <ele>195.28</ele>
        <time>2021-08-17T20:51:12Z</time>
      </trkpt>
      <trkpt lat="43.99379" lon="1.70612">
        <ele>196.73</ele>
        <time>2021-08-17T20:51:23Z</time>
      </trkpt>
      <trkpt lat="43.99383" lon="1.70623">
        <ele>198.17</ele>
        <time>2021-08-17T20:51:33Z</time>
      </trkpt>
      <trkpt lat="43.99388" lon="1.70633">
        <ele>199.61</ele>
        <time>2021-08-17T20:51:42Z</time>
      </trkpt>
      <trkpt lat="43.99394" lon="1.70643">
        <ele>200.57</ele>
        <time>2021-08-17T20:51:51Z</time>
      </trkpt>
      <trkpt lat="43.99401" lon="1.70653">
        <ele>202.01</ele>
        <time>2021-08-17T20:52:00Z</time>
      </trkpt>
      <trkpt lat="43.99408" lon="1.70664">
        <ele>203.46</ele>
        <time>2021-08-17T20:52:09Z</time>
      </trkpt>
      <trkpt lat="43.99406" lon="1.70676">
        <ele>204.42</ele>
        <time>2021-08-17T20:52:19Z</time>
      </trkpt>
      <trkpt lat="43.99399" lon="1.70674">
        <ele>205.38</ele>
        <time>2021-08-17T20:52:28Z</time>
      </trkpt>
      <trkpt lat="43.99397" lon="1.70672">
        <ele>205.86</ele>
        <time>2021-08-17T20:52:31Z</time>
      </trkpt>
      <trkpt lat="43.99396" lon="1.70671">
        <ele>206.34</ele>
        <time>2021-08-17T20:52:32Z</time>
      </trkpt>
      <trkpt lat="43.99385" lon="1.70666">
        <ele>207.78</ele>
        <time>2021-08-17T20:52:42Z</time>
      </trkpt>
      <trkpt lat="43.99382" lon="1.70664">
        <ele>207.78</ele>
        <time>2021-08-17T20:52:48Z</time>
      </trkpt>
      <trkpt lat="43.99379" lon="1.70663">
        <ele>208.26</ele>
        <time>2021-08-17T20:52:51Z</time>
      </trkpt>
      <trkpt lat="43.99378" lon="1.70663">
        <ele>208.26</ele>
        <time>2021-08-17T20:52:52Z</time>
      </trkpt>
      <trkpt lat="43.99376" lon="1.70662">
        <ele>208.26</ele>
        <time>2021-08-17T20:52:53Z</time>
      </trkpt>
      <trkpt lat="43.99374" lon="1.70661">
        <ele>208.26</ele>
        <time>2021-08-17T20:52:54Z</time>
      </trkpt>
      <trkpt lat="43.99372" lon="1.70661">
        <ele>208.26</ele>
        <time>2021-08-17T20:52:55Z</time>
      </trkpt>
      <trkpt lat="43.99357" lon="1.70655">
        <ele>209.7</ele>
        <time>2021-08-17T20:53:02Z</time>
      </trkpt>
      <trkpt lat="43.99336" lon="1.7065">
        <ele>210.19</ele>
        <time>2021-08-17T20:53:10Z</time>
      </trkpt>
      <trkpt lat="43.99313" lon="1.70646">
        <ele>211.15</ele>
        <time>2021-08-17T20:53:19Z</time>
      </trkpt>
      <trkpt lat="43.99293" lon="1.70655">
        <ele>211.63</ele>
        <time>2021-08-17T20:53:27Z</time>
      </trkpt>
      <trkpt lat="43.99274" lon="1.70668">
        <ele>211.63</ele>
        <time>2021-08-17T20:53:33Z</time>
      </trkpt>
      <trkpt lat="43.99252" lon="1.70692">
        <ele>211.63</ele>
        <time>2021-08-17T20:53:41Z</time>
      </trkpt>
      <trkpt lat="43.99245" lon="1.70712">
        <ele>212.11</ele>
        <time>2021-08-17T20:53:47Z</time>
      </trkpt>
      <trkpt lat="43.99244" lon="1.70716">
        <ele>212.11</ele>
        <time>2021-08-17T20:53:48Z</time>
      </trkpt>
      <trkpt lat="43.99244" lon="1.7072">
        <ele>212.11</ele>
        <time>2021-08-17T20:53:49Z</time>
      </trkpt>
      <trkpt lat="43.99244" lon="1.70722">
        <ele>212.59</ele>
        <time>2021-08-17T20:53:50Z</time>
      </trkpt>
      <trkpt lat="43.99242" lon="1.70725">
        <ele>212.59</ele>
        <time>2021-08-17T20:53:51Z</time>
      </trkpt>
      <trkpt lat="43.99241" lon="1.70726">
        <ele>212.59</ele>
        <time>2021-08-17T20:53:52Z</time>
      </trkpt>
      <trkpt lat="43.99239" lon="1.70727">
        <ele>212.59</ele>
        <time>2021-08-17T20:53:53Z</time>
      </trkpt>
      <trkpt lat="43.99236" lon="1.70728">
        <ele>212.59</ele>
        <time>2021-08-17T20:53:54Z</time>
      </trkpt>
      <trkpt lat="43.99231" lon="1.70733">
        <ele>212.59</ele>
        <time>2021-08-17T20:53:57Z</time>
      </trkpt>
      <trkpt lat="43.99235" lon="1.70738">
        <ele>212.59</ele>
        <time>2021-08-17T20:54:01Z</time>
      </trkpt>
      <trkpt lat="43.9924" lon="1.70736">
        <ele>212.59</ele>
        <time>2021-08-17T20:54:03Z</time>
      </trkpt>
      <trkpt lat="43.99241" lon="1.70734">
        <ele>212.59</ele>
        <time>2021-08-17T20:54:04Z</time>
      </trkpt>
      <trkpt lat="43.99245" lon="1.70726">
        <ele>212.59</ele>
        <time>2021-08-17T20:54:08Z</time>
      </trkpt>
      <trkpt lat="43.99248" lon="1.70726">
        <ele>212.59</ele>
        <time>2021-08-17T20:54:10Z</time>
      </trkpt>
      <trkpt lat="43.99252" lon="1.70728">
        <ele>212.59</ele>
        <time>2021-08-17T20:54:12Z</time>
      </trkpt>
      <trkpt lat="43.99254" lon="1.70731">
        <ele>212.59</ele>
        <time>2021-08-17T20:54:13Z</time>
      </trkpt>
      <trkpt lat="43.99255" lon="1.70734">
        <ele>213.07</ele>
        <time>2021-08-17T20:54:14Z</time>
      </trkpt>
      <trkpt lat="43.99256" lon="1.70737">
        <ele>213.07</ele>
        <time>2021-08-17T20:54:15Z</time>
      </trkpt>
      <trkpt lat="43.99256" lon="1.7074">
        <ele>213.55</ele>
        <time>2021-08-17T20:54:16Z</time>
      </trkpt>
      <trkpt lat="43.99258" lon="1.70746">
        <ele>214.03</ele>
        <time>2021-08-17T20:54:21Z</time>
      </trkpt>
      <trkpt lat="43.99258" lon="1.70756">
        <ele>216.43</ele>
        <time>2021-08-17T20:54:31Z</time>
      </trkpt>
      <trkpt lat="43.99256" lon="1.70767">
        <ele>217.88</ele>
        <time>2021-08-17T20:54:41Z</time>
      </trkpt>
      <trkpt lat="43.99254" lon="1.70776">
        <ele>218.84</ele>
        <time>2021-08-17T20:54:49Z</time>
      </trkpt>
      <trkpt lat="43.99252" lon="1.70783">
        <ele>220.76</ele>
        <time>2021-08-17T20:54:58Z</time>
      </trkpt>
      <trkpt lat="43.99249" lon="1.70792">
        <ele>222.2</ele>
        <time>2021-08-17T20:55:07Z</time>
      </trkpt>
      <trkpt lat="43.99247" lon="1.70799">
        <ele>223.64</ele>
        <time>2021-08-17T20:55:15Z</time>
      </trkpt>
      <trkpt lat="43.99251" lon="1.70799">
        <ele>224.61</ele>
        <time>2021-08-17T20:55:23Z</time>
      </trkpt>
      <trkpt lat="43.99256" lon="1.70794">
        <ele>226.53</ele>
        <time>2021-08-17T20:55:32Z</time>
      </trkpt>
      <trkpt lat="43.99262" lon="1.70788">
        <ele>227.97</ele>
        <time>2021-08-17T20:55:40Z</time>
      </trkpt>
      <trkpt lat="43.99269" lon="1.70781">
        <ele>229.41</ele>
        <time>2021-08-17T20:55:50Z</time>
      </trkpt>
      <trkpt lat="43.99275" lon="1.70776">
        <ele>230.85</ele>
        <time>2021-08-17T20:55:58Z</time>
      </trkpt>
      <trkpt lat="43.99283" lon="1.70771">
        <ele>232.3</ele>
        <time>2021-08-17T20:56:08Z</time>
      </trkpt>
      <trkpt lat="43.9929" lon="1.70766">
        <ele>233.26</ele>
        <time>2021-08-17T20:56:17Z</time>
      </trkpt>
      <trkpt lat="43.99295" lon="1.70766">
        <ele>235.18</ele>
        <time>2021-08-17T20:56:24Z</time>
      </trkpt>
      <trkpt lat="43.99295" lon="1.70769">
        <ele>235.66</ele>
        <time>2021-08-17T20:56:32Z</time>
      </trkpt>
      <trkpt lat="43.99293" lon="1.70776">
        <ele>237.58</ele>
        <time>2021-08-17T20:56:40Z</time>
      </trkpt>
      <trkpt lat="43.9929" lon="1.70785">
        <ele>239.02</ele>
        <time>2021-08-17T20:56:50Z</time>
      </trkpt>
      <trkpt lat="43.99286" lon="1.70795">
        <ele>240.95</ele>
        <time>2021-08-17T20:57:01Z</time>
      </trkpt>
      <trkpt lat="43.99283" lon="1.70807">
        <ele>242.39</ele>
        <time>2021-08-17T20:57:11Z</time>
      </trkpt>
      <trkpt lat="43.99279" lon="1.70813">
        <ele>243.83</ele>
        <time>2021-08-17T20:57:18Z</time>
      </trkpt>
      <trkpt lat="43.99274" lon="1.70822">
        <ele>245.27</ele>
        <time>2021-08-17T20:57:26Z</time>
      </trkpt>
      <trkpt lat="43.99271" lon="1.70832">
        <ele>246.23</ele>
        <time>2021-08-17T20:57:34Z</time>
      </trkpt>
      <trkpt lat="43.99267" lon="1.7084">
        <ele>246.72</ele>
        <time>2021-08-17T20:57:40Z</time>
      </trkpt>
      <trkpt lat="43.99263" lon="1.7085">
        <ele>248.16</ele>
        <time>2021-08-17T20:57:47Z</time>
      </trkpt>
      <trkpt lat="43.99259" lon="1.70859">
        <ele>249.6</ele>
        <time>2021-08-17T20:57:56Z</time>
      </trkpt>
      <trkpt lat="43.99253" lon="1.70871">
        <ele>251.52</ele>
        <time>2021-08-17T20:58:06Z</time>
      </trkpt>
      <trkpt lat="43.9925" lon="1.7088">
        <ele>252.48</ele>
        <time>2021-08-17T20:58:13Z</time>
      </trkpt>
      <trkpt lat="43.99246" lon="1.70891">
        <ele>254.41</ele>
        <time>2021-08-17T20:58:22Z</time>
      </trkpt>
      <trkpt lat="43.99239" lon="1.70906">
        <ele>255.37</ele>
        <time>2021-08-17T20:58:33Z</time>
      </trkpt>
      <trkpt lat="43.99231" lon="1.70919">
        <ele>257.29</ele>
        <time>2021-08-17T20:58:45Z</time>
      </trkpt>
      <trkpt lat="43.99225" lon="1.70929">
        <ele>258.73</ele>
        <time>2021-08-17T20:58:55Z</time>
      </trkpt>
      <trkpt lat="43.99221" lon="1.70936">
        <ele>260.17</ele>
        <time>2021-08-17T20:59:02Z</time>
      </trkpt>
      <trkpt lat="43.99216" lon="1.70947">
        <ele>262.1</ele>
        <time>2021-08-17T20:59:12Z</time>
      </trkpt>
      <trkpt lat="43.99212" lon="1.70955">
        <ele>263.06</ele>
        <time>2021-08-17T20:59:20Z</time>
      </trkpt>
      <trkpt lat="43.99208" lon="1.70966">
        <ele>264.98</ele>
        <time>2021-08-17T20:59:29Z</time>
      </trkpt>
      <trkpt lat="43.99206" lon="1.70969">
        <ele>265.46</ele>
        <time>2021-08-17T20:59:33Z</time>
      </trkpt>
      <trkpt lat="43.99204" lon="1.7097">
        <ele>265.46</ele>
        <time>2021-08-17T20:59:34Z</time>
      </trkpt>
      <trkpt lat="43.99202" lon="1.70971">
        <ele>265.94</ele>
        <time>2021-08-17T20:59:35Z</time>
      </trkpt>
      <trkpt lat="43.99203" lon="1.70977">
        <ele>266.42</ele>
        <time>2021-08-17T20:59:41Z</time>
      </trkpt>
      <trkpt lat="43.99199" lon="1.70988">
        <ele>268.35</ele>
        <time>2021-08-17T20:59:51Z</time>
      </trkpt>
      <trkpt lat="43.99196" lon="1.70995">
        <ele>269.31</ele>
        <time>2021-08-17T20:59:59Z</time>
      </trkpt>
      <trkpt lat="43.99193" lon="1.71005">
        <ele>271.23</ele>
        <time>2021-08-17T21:00:08Z</time>
      </trkpt>
      <trkpt lat="43.9919" lon="1.71015">
        <ele>272.19</ele>
        <time>2021-08-17T21:00:18Z</time>
      </trkpt>
      <trkpt lat="43.99191" lon="1.71014">
        <ele>273.15</ele>
        <time>2021-08-17T21:00:24Z</time>
      </trkpt>
      <trkpt lat="43.99189" lon="1.71016">
        <ele>273.15</ele>
        <time>2021-08-17T21:00:29Z</time>
      </trkpt>
      <trkpt lat="43.99183" lon="1.71023">
        <ele>273.63</ele>
        <time>2021-08-17T21:00:35Z</time>
      </trkpt>
      <trkpt lat="43.99173" lon="1.71036">
        <ele>274.11</ele>
        <time>2021-08-17T21:00:45Z</time>
      </trkpt>
      <trkpt lat="43.99157" lon="1.71059">
        <ele>273.63</ele>
        <time>2021-08-17T21:00:52Z</time>
      </trkpt>
      <trkpt lat="43.99151" lon="1.71079">
        <ele>274.11</ele>
        <time>2021-08-17T21:00:59Z</time>
      </trkpt>
      <trkpt lat="43.99149" lon="1.7109">
        <ele>276.52</ele>
        <time>2021-08-17T21:01:05Z</time>
      </trkpt>
      <trkpt lat="43.99149" lon="1.71092">
        <ele>276.52</ele>
        <time>2021-08-17T21:01:06Z</time>
      </trkpt>
      <trkpt lat="43.9915" lon="1.71093">
        <ele>277</ele>
        <time>2021-08-17T21:01:07Z</time>
      </trkpt>
      <trkpt lat="43.99151" lon="1.71094">
        <ele>277</ele>
        <time>2021-08-17T21:01:08Z</time>
      </trkpt>
      <trkpt lat="43.99152" lon="1.71093">
        <ele>277</ele>
        <time>2021-08-17T21:01:09Z</time>
      </trkpt>
      <trkpt lat="43.99152" lon="1.71091">
        <ele>277</ele>
        <time>2021-08-17T21:01:10Z</time>
      </trkpt>
      <trkpt lat="43.99152" lon="1.71088">
        <ele>277</ele>
        <time>2021-08-17T21:01:11Z</time>
      </trkpt>
      <trkpt lat="43.99153" lon="1.71087">
        <ele>277</ele>
        <time>2021-08-17T21:01:12Z</time>
      </trkpt>
      <trkpt lat="43.99157" lon="1.71073">
        <ele>277.48</ele>
        <time>2021-08-17T21:01:18Z</time>
      </trkpt>
      <trkpt lat="43.99174" lon="1.71051">
        <ele>278.44</ele>
        <time>2021-08-17T21:01:27Z</time>
      </trkpt>
      <trkpt lat="43.99191" lon="1.71032">
        <ele>279.88</ele>
        <time>2021-08-17T21:01:36Z</time>
      </trkpt>
      <trkpt lat="43.99209" lon="1.71013">
        <ele>281.8</ele>
        <time>2021-08-17T21:01:45Z</time>
      </trkpt>
      <trkpt lat="43.99229" lon="1.70989">
        <ele>282.77</ele>
        <time>2021-08-17T21:01:55Z</time>
      </trkpt>
      <trkpt lat="43.9925" lon="1.70963">
        <ele>285.17</ele>
        <time>2021-08-17T21:02:05Z</time>
      </trkpt>
      <trkpt lat="43.99279" lon="1.70926">
        <ele>287.09</ele>
        <time>2021-08-17T21:02:17Z</time>
      </trkpt>
      <trkpt lat="43.99301" lon="1.70897">
        <ele>289.49</ele>
        <time>2021-08-17T21:02:27Z</time>
      </trkpt>
      <trkpt lat="43.99312" lon="1.70886">
        <ele>289.97</ele>
        <time>2021-08-17T21:02:33Z</time>
      </trkpt>
      <trkpt lat="43.99315" lon="1.70886">
        <ele>290.46</ele>
        <time>2021-08-17T21:02:34Z</time>
      </trkpt>
      <trkpt lat="43.99317" lon="1.70889">
        <ele>290.94</ele>
        <time>2021-08-17T21:02:35Z</time>
      </trkpt>
      <trkpt lat="43.99318" lon="1.70894">
        <ele>290.94</ele>
        <time>2021-08-17T21:02:37Z</time>
      </trkpt>
      <trkpt lat="43.99318" lon="1.70897">
        <ele>290.46</ele>
        <time>2021-08-17T21:02:38Z</time>
      </trkpt>
      <trkpt lat="43.99317" lon="1.709">
        <ele>290.46</ele>
        <time>2021-08-17T21:02:39Z</time>
      </trkpt>
      <trkpt lat="43.99316" lon="1.70901">
        <ele>290.46</ele>
        <time>2021-08-17T21:02:40Z</time>
      </trkpt>
      <trkpt lat="43.99315" lon="1.70903">
        <ele>290.46</ele>
        <time>2021-08-17T21:02:41Z</time>
      </trkpt>
      <trkpt lat="43.99315" lon="1.70904">
        <ele>290.46</ele>
        <time>2021-08-17T21:02:42Z</time>
      </trkpt>
      <trkpt lat="43.99311" lon="1.70909">
        <ele>290.46</ele>
        <time>2021-08-17T21:02:46Z</time>
      </trkpt>
      <trkpt lat="43.9931" lon="1.7091">
        <ele>290.46</ele>
        <time>2021-08-17T21:02:47Z</time>
      </trkpt>
      <trkpt lat="43.99309" lon="1.70913">
        <ele>290.46</ele>
        <time>2021-08-17T21:02:53Z</time>
      </trkpt>
      <trkpt lat="43.99306" lon="1.70916">
        <ele>290.94</ele>
        <time>2021-08-17T21:03:01Z</time>
      </trkpt>
      <trkpt lat="43.99306" lon="1.70916">
        <ele>291.42</ele>
        <time>2021-08-17T21:03:13Z</time>
      </trkpt>
      <trkpt lat="43.9931" lon="1.70918">
        <ele>291.42</ele>
        <time>2021-08-17T21:03:34Z</time>
      </trkpt>
      <trkpt lat="43.99311" lon="1.70918">
        <ele>291.42</ele>
        <time>2021-08-17T21:03:36Z</time>
      </trkpt>
    </trkseg>
  </trk>
</gpx>